<?xml version="1.0" encoding="UTF-8"?>
<gpx version="1.1" creator="https://www.youtrack.es" xsi:schemaLocation="http://www.topografix.com/GPX/1/1 http://www.topografix.com/GPX/1/1/gpx.xsd http://www.garmin.com/xmlschemas/GpxExtensions/v3 http://www.garmin.com/xmlschemas/GpxExtensionsv3.xsd http://www.garmin.com/xmlschemas/TrackPointExtension/v1 http://www.garmin.com/xmlschemas/TrackPointExtensionv1.xsd" xmlns:gpxtpx="http://www.garmin.com/xmlschemas/TrackPointExtension/v1" xmlns:gpxx="http://www.garmin.com/xmlschemas/GpxExtensions/v3" xmlns:xsi="http://www.w3.org/2001/XMLSchema-instance">
  <metadata>
    <link href="https://www.youtrack.es">
      <text>YouTrack.es</text>
    </link>
    <time>2026-05-08T02:57:40Z</time>
  </metadata>
  <trk>
    <src>https://www.youtrack.es</src>
    <link href="https://www.youtrack.es/ruta/3517-ruta-un0-atalaya">
      <text>YouTrack.es</text>
    </link>
    <trkseg>
      <trkpt lat="41.6742810" lon="-0.8761730">
        <ele>63.6</ele>
        <time>2019-01-01T08:12:24Z</time>
      </trkpt>
      <trkpt lat="41.6742470" lon="-0.8762580">
        <ele>64.8</ele>
        <time>2019-01-01T08:12:25Z</time>
      </trkpt>
      <trkpt lat="41.6742200" lon="-0.8763080">
        <ele>64.4</ele>
        <time>2019-01-01T08:12:26Z</time>
      </trkpt>
      <trkpt lat="41.6741550" lon="-0.8763930">
        <ele>63.6</ele>
        <time>2019-01-01T08:12:28Z</time>
      </trkpt>
      <trkpt lat="41.6741230" lon="-0.8764400">
        <ele>63.6</ele>
        <time>2019-01-01T08:12:29Z</time>
      </trkpt>
      <trkpt lat="41.6741160" lon="-0.8765470">
        <ele>63.6</ele>
        <time>2019-01-01T08:12:31Z</time>
      </trkpt>
      <trkpt lat="41.6741200" lon="-0.8766140">
        <ele>63.6</ele>
        <time>2019-01-01T08:12:32Z</time>
      </trkpt>
      <trkpt lat="41.6740410" lon="-0.8768000">
        <ele>63.6</ele>
        <time>2019-01-01T08:12:35Z</time>
      </trkpt>
      <trkpt lat="41.6738840" lon="-0.8769050">
        <ele>63.6</ele>
        <time>2019-01-01T08:12:38Z</time>
      </trkpt>
      <trkpt lat="41.6738470" lon="-0.8769490">
        <ele>63.8</ele>
        <time>2019-01-01T08:12:39Z</time>
      </trkpt>
      <trkpt lat="41.6736970" lon="-0.8770660">
        <ele>64.2</ele>
        <time>2019-01-01T08:12:43Z</time>
      </trkpt>
      <trkpt lat="41.6733320" lon="-0.8770680">
        <ele>63.8</ele>
        <time>2019-01-01T08:12:50Z</time>
      </trkpt>
      <trkpt lat="41.6732820" lon="-0.8770720">
        <ele>63.8</ele>
        <time>2019-01-01T08:12:51Z</time>
      </trkpt>
      <trkpt lat="41.6730770" lon="-0.8771660">
        <ele>63.6</ele>
        <time>2019-01-01T08:12:55Z</time>
      </trkpt>
      <trkpt lat="41.6730790" lon="-0.8775110">
        <ele>63.6</ele>
        <time>2019-01-01T08:12:59Z</time>
      </trkpt>
      <trkpt lat="41.6731040" lon="-0.8776880">
        <ele>63.6</ele>
        <time>2019-01-01T08:13:01Z</time>
      </trkpt>
      <trkpt lat="41.6731140" lon="-0.8777690">
        <ele>63.8</ele>
        <time>2019-01-01T08:13:02Z</time>
      </trkpt>
      <trkpt lat="41.6731210" lon="-0.8778470">
        <ele>64.0</ele>
        <time>2019-01-01T08:13:03Z</time>
      </trkpt>
      <trkpt lat="41.6731290" lon="-0.8779980">
        <ele>64.6</ele>
        <time>2019-01-01T08:13:05Z</time>
      </trkpt>
      <trkpt lat="41.6731310" lon="-0.8780730">
        <ele>64.8</ele>
        <time>2019-01-01T08:13:06Z</time>
      </trkpt>
      <trkpt lat="41.6731290" lon="-0.8784950">
        <ele>65.8</ele>
        <time>2019-01-01T08:13:12Z</time>
      </trkpt>
      <trkpt lat="41.6731210" lon="-0.8787760">
        <ele>66.8</ele>
        <time>2019-01-01T08:13:16Z</time>
      </trkpt>
      <trkpt lat="41.6731070" lon="-0.8789840">
        <ele>67.4</ele>
        <time>2019-01-01T08:13:19Z</time>
      </trkpt>
      <trkpt lat="41.6731110" lon="-0.8791220">
        <ele>68.0</ele>
        <time>2019-01-01T08:13:21Z</time>
      </trkpt>
      <trkpt lat="41.6731180" lon="-0.8791890">
        <ele>68.2</ele>
        <time>2019-01-01T08:13:22Z</time>
      </trkpt>
      <trkpt lat="41.6731270" lon="-0.8792560">
        <ele>68.2</ele>
        <time>2019-01-01T08:13:23Z</time>
      </trkpt>
      <trkpt lat="41.6731390" lon="-0.8793930">
        <ele>68.6</ele>
        <time>2019-01-01T08:13:25Z</time>
      </trkpt>
      <trkpt lat="41.6731370" lon="-0.8796020">
        <ele>69.2</ele>
        <time>2019-01-01T08:13:28Z</time>
      </trkpt>
      <trkpt lat="41.6731380" lon="-0.8798740">
        <ele>69.8</ele>
        <time>2019-01-01T08:13:32Z</time>
      </trkpt>
      <trkpt lat="41.6731380" lon="-0.8799400">
        <ele>70.2</ele>
        <time>2019-01-01T08:13:33Z</time>
      </trkpt>
      <trkpt lat="41.6731370" lon="-0.8801390">
        <ele>70.8</ele>
        <time>2019-01-01T08:13:36Z</time>
      </trkpt>
      <trkpt lat="41.6731360" lon="-0.8803960">
        <ele>70.8</ele>
        <time>2019-01-01T08:13:40Z</time>
      </trkpt>
      <trkpt lat="41.6731390" lon="-0.8805920">
        <ele>71.0</ele>
        <time>2019-01-01T08:13:43Z</time>
      </trkpt>
      <trkpt lat="41.6731380" lon="-0.8808500">
        <ele>71.0</ele>
        <time>2019-01-01T08:13:47Z</time>
      </trkpt>
      <trkpt lat="41.6731450" lon="-0.8813990">
        <ele>70.4</ele>
        <time>2019-01-01T08:13:55Z</time>
      </trkpt>
      <trkpt lat="41.6731450" lon="-0.8817850">
        <ele>69.6</ele>
        <time>2019-01-01T08:14:00Z</time>
      </trkpt>
      <trkpt lat="41.6731990" lon="-0.8821690">
        <ele>68.6</ele>
        <time>2019-01-01T08:14:05Z</time>
      </trkpt>
      <trkpt lat="41.6731880" lon="-0.8826300">
        <ele>67.0</ele>
        <time>2019-01-01T08:14:10Z</time>
      </trkpt>
      <trkpt lat="41.6731820" lon="-0.8828200">
        <ele>67.0</ele>
        <time>2019-01-01T08:14:12Z</time>
      </trkpt>
      <trkpt lat="41.6731820" lon="-0.8835880">
        <ele>66.0</ele>
        <time>2019-01-01T08:14:20Z</time>
      </trkpt>
      <trkpt lat="41.6731850" lon="-0.8836810">
        <ele>66.0</ele>
        <time>2019-01-01T08:14:21Z</time>
      </trkpt>
      <trkpt lat="41.6731870" lon="-0.8837720">
        <ele>65.8</ele>
        <time>2019-01-01T08:14:22Z</time>
      </trkpt>
      <trkpt lat="41.6731860" lon="-0.8845490">
        <ele>64.8</ele>
        <time>2019-01-01T08:14:31Z</time>
      </trkpt>
      <trkpt lat="41.6731890" lon="-0.8853060">
        <ele>64.8</ele>
        <time>2019-01-01T08:14:40Z</time>
      </trkpt>
      <trkpt lat="41.6731900" lon="-0.8853910">
        <ele>64.6</ele>
        <time>2019-01-01T08:14:41Z</time>
      </trkpt>
      <trkpt lat="41.6731850" lon="-0.8855550">
        <ele>64.6</ele>
        <time>2019-01-01T08:14:43Z</time>
      </trkpt>
      <trkpt lat="41.6731790" lon="-0.8858860">
        <ele>64.6</ele>
        <time>2019-01-01T08:14:47Z</time>
      </trkpt>
      <trkpt lat="41.6731790" lon="-0.8859680">
        <ele>64.6</ele>
        <time>2019-01-01T08:14:48Z</time>
      </trkpt>
      <trkpt lat="41.6731730" lon="-0.8864460">
        <ele>64.8</ele>
        <time>2019-01-01T08:14:54Z</time>
      </trkpt>
      <trkpt lat="41.6731780" lon="-0.8865270">
        <ele>64.8</ele>
        <time>2019-01-01T08:14:55Z</time>
      </trkpt>
      <trkpt lat="41.6731850" lon="-0.8866830">
        <ele>65.0</ele>
        <time>2019-01-01T08:14:57Z</time>
      </trkpt>
      <trkpt lat="41.6731850" lon="-0.8867630">
        <ele>64.8</ele>
        <time>2019-01-01T08:14:58Z</time>
      </trkpt>
      <trkpt lat="41.6731840" lon="-0.8873170">
        <ele>65.0</ele>
        <time>2019-01-01T08:15:05Z</time>
      </trkpt>
      <trkpt lat="41.6731850" lon="-0.8874730">
        <ele>65.2</ele>
        <time>2019-01-01T08:15:07Z</time>
      </trkpt>
      <trkpt lat="41.6731910" lon="-0.8878580">
        <ele>64.8</ele>
        <time>2019-01-01T08:15:12Z</time>
      </trkpt>
      <trkpt lat="41.6731930" lon="-0.8879370">
        <ele>65.0</ele>
        <time>2019-01-01T08:15:13Z</time>
      </trkpt>
      <trkpt lat="41.6732040" lon="-0.8884710">
        <ele>65.2</ele>
        <time>2019-01-01T08:15:20Z</time>
      </trkpt>
      <trkpt lat="41.6732100" lon="-0.8885430">
        <ele>65.2</ele>
        <time>2019-01-01T08:15:21Z</time>
      </trkpt>
      <trkpt lat="41.6732200" lon="-0.8886170">
        <ele>65.0</ele>
        <time>2019-01-01T08:15:22Z</time>
      </trkpt>
      <trkpt lat="41.6732620" lon="-0.8888450">
        <ele>65.0</ele>
        <time>2019-01-01T08:15:25Z</time>
      </trkpt>
      <trkpt lat="41.6732810" lon="-0.8889180">
        <ele>65.2</ele>
        <time>2019-01-01T08:15:26Z</time>
      </trkpt>
      <trkpt lat="41.6734140" lon="-0.8893370">
        <ele>65.6</ele>
        <time>2019-01-01T08:15:32Z</time>
      </trkpt>
      <trkpt lat="41.6734410" lon="-0.8894000">
        <ele>65.6</ele>
        <time>2019-01-01T08:15:33Z</time>
      </trkpt>
      <trkpt lat="41.6734860" lon="-0.8895350">
        <ele>65.8</ele>
        <time>2019-01-01T08:15:35Z</time>
      </trkpt>
      <trkpt lat="41.6735060" lon="-0.8896750">
        <ele>66.0</ele>
        <time>2019-01-01T08:15:37Z</time>
      </trkpt>
      <trkpt lat="41.6735100" lon="-0.8897450">
        <ele>66.0</ele>
        <time>2019-01-01T08:15:38Z</time>
      </trkpt>
      <trkpt lat="41.6735080" lon="-0.8899500">
        <ele>66.0</ele>
        <time>2019-01-01T08:15:41Z</time>
      </trkpt>
      <trkpt lat="41.6735060" lon="-0.8900890">
        <ele>66.0</ele>
        <time>2019-01-01T08:15:43Z</time>
      </trkpt>
      <trkpt lat="41.6734900" lon="-0.8902850">
        <ele>65.8</ele>
        <time>2019-01-01T08:15:46Z</time>
      </trkpt>
      <trkpt lat="41.6734660" lon="-0.8904040">
        <ele>65.6</ele>
        <time>2019-01-01T08:15:48Z</time>
      </trkpt>
      <trkpt lat="41.6734050" lon="-0.8907230">
        <ele>65.0</ele>
        <time>2019-01-01T08:15:54Z</time>
      </trkpt>
      <trkpt lat="41.6733990" lon="-0.8911150">
        <ele>64.6</ele>
        <time>2019-01-01T08:16:01Z</time>
      </trkpt>
      <trkpt lat="41.6734180" lon="-0.8912890">
        <ele>65.0</ele>
        <time>2019-01-01T08:16:05Z</time>
      </trkpt>
      <trkpt lat="41.6734180" lon="-0.8913440">
        <ele>65.0</ele>
        <time>2019-01-01T08:16:06Z</time>
      </trkpt>
      <trkpt lat="41.6734090" lon="-0.8914600">
        <ele>65.2</ele>
        <time>2019-01-01T08:16:08Z</time>
      </trkpt>
      <trkpt lat="41.6734050" lon="-0.8915200">
        <ele>65.0</ele>
        <time>2019-01-01T08:16:09Z</time>
      </trkpt>
      <trkpt lat="41.6734080" lon="-0.8917120">
        <ele>65.4</ele>
        <time>2019-01-01T08:16:12Z</time>
      </trkpt>
      <trkpt lat="41.6734220" lon="-0.8921760">
        <ele>65.2</ele>
        <time>2019-01-01T08:16:19Z</time>
      </trkpt>
      <trkpt lat="41.6734170" lon="-0.8922410">
        <ele>65.4</ele>
        <time>2019-01-01T08:16:20Z</time>
      </trkpt>
      <trkpt lat="41.6734110" lon="-0.8923070">
        <ele>65.2</ele>
        <time>2019-01-01T08:16:21Z</time>
      </trkpt>
      <trkpt lat="41.6734150" lon="-0.8925080">
        <ele>65.4</ele>
        <time>2019-01-01T08:16:24Z</time>
      </trkpt>
      <trkpt lat="41.6734220" lon="-0.8926390">
        <ele>65.4</ele>
        <time>2019-01-01T08:16:26Z</time>
      </trkpt>
      <trkpt lat="41.6734240" lon="-0.8929160">
        <ele>65.2</ele>
        <time>2019-01-01T08:16:30Z</time>
      </trkpt>
      <trkpt lat="41.6734290" lon="-0.8930450">
        <ele>65.2</ele>
        <time>2019-01-01T08:16:32Z</time>
      </trkpt>
      <trkpt lat="41.6734840" lon="-0.8931430">
        <ele>65.0</ele>
        <time>2019-01-01T08:16:34Z</time>
      </trkpt>
      <trkpt lat="41.6736230" lon="-0.8931710">
        <ele>65.0</ele>
        <time>2019-01-01T08:16:37Z</time>
      </trkpt>
      <trkpt lat="41.6737190" lon="-0.8931770">
        <ele>65.0</ele>
        <time>2019-01-01T08:16:39Z</time>
      </trkpt>
      <trkpt lat="41.6738790" lon="-0.8931760">
        <ele>64.8</ele>
        <time>2019-01-01T08:16:42Z</time>
      </trkpt>
      <trkpt lat="41.6742070" lon="-0.8931830">
        <ele>65.4</ele>
        <time>2019-01-01T08:16:48Z</time>
      </trkpt>
      <trkpt lat="41.6742590" lon="-0.8931860">
        <ele>65.4</ele>
        <time>2019-01-01T08:16:49Z</time>
      </trkpt>
      <trkpt lat="41.6743120" lon="-0.8931890">
        <ele>65.6</ele>
        <time>2019-01-01T08:16:50Z</time>
      </trkpt>
      <trkpt lat="41.6744140" lon="-0.8931830">
        <ele>65.6</ele>
        <time>2019-01-01T08:16:52Z</time>
      </trkpt>
      <trkpt lat="41.6745070" lon="-0.8931720">
        <ele>65.8</ele>
        <time>2019-01-01T08:16:54Z</time>
      </trkpt>
      <trkpt lat="41.6746830" lon="-0.8932880">
        <ele>65.8</ele>
        <time>2019-01-01T08:16:58Z</time>
      </trkpt>
      <trkpt lat="41.6747210" lon="-0.8934730">
        <ele>65.6</ele>
        <time>2019-01-01T08:17:01Z</time>
      </trkpt>
      <trkpt lat="41.6747210" lon="-0.8936100">
        <ele>65.8</ele>
        <time>2019-01-01T08:17:03Z</time>
      </trkpt>
      <trkpt lat="41.6747220" lon="-0.8938190">
        <ele>65.6</ele>
        <time>2019-01-01T08:17:06Z</time>
      </trkpt>
      <trkpt lat="41.6747180" lon="-0.8938870">
        <ele>65.6</ele>
        <time>2019-01-01T08:17:07Z</time>
      </trkpt>
      <trkpt lat="41.6747200" lon="-0.8943730">
        <ele>65.2</ele>
        <time>2019-01-01T08:17:14Z</time>
      </trkpt>
      <trkpt lat="41.6747640" lon="-0.8947900">
        <ele>65.2</ele>
        <time>2019-01-01T08:17:20Z</time>
      </trkpt>
      <trkpt lat="41.6747800" lon="-0.8949850">
        <ele>65.2</ele>
        <time>2019-01-01T08:17:23Z</time>
      </trkpt>
      <trkpt lat="41.6748280" lon="-0.8950730">
        <ele>65.2</ele>
        <time>2019-01-01T08:17:25Z</time>
      </trkpt>
      <trkpt lat="41.6749610" lon="-0.8950840">
        <ele>65.2</ele>
        <time>2019-01-01T08:17:28Z</time>
      </trkpt>
      <trkpt lat="41.6750010" lon="-0.8950780">
        <ele>65.2</ele>
        <time>2019-01-01T08:17:29Z</time>
      </trkpt>
      <trkpt lat="41.6750880" lon="-0.8950730">
        <ele>65.0</ele>
        <time>2019-01-01T08:17:31Z</time>
      </trkpt>
      <trkpt lat="41.6751580" lon="-0.8951220">
        <ele>65.0</ele>
        <time>2019-01-01T08:17:33Z</time>
      </trkpt>
      <trkpt lat="41.6751670" lon="-0.8952190">
        <ele>65.0</ele>
        <time>2019-01-01T08:17:35Z</time>
      </trkpt>
      <trkpt lat="41.6751700" lon="-0.8952780">
        <ele>64.8</ele>
        <time>2019-01-01T08:17:36Z</time>
      </trkpt>
      <trkpt lat="41.6751670" lon="-0.8953400">
        <ele>64.8</ele>
        <time>2019-01-01T08:17:37Z</time>
      </trkpt>
      <trkpt lat="41.6751740" lon="-0.8955240">
        <ele>64.4</ele>
        <time>2019-01-01T08:17:40Z</time>
      </trkpt>
      <trkpt lat="41.6751710" lon="-0.8957830">
        <ele>64.2</ele>
        <time>2019-01-01T08:17:45Z</time>
      </trkpt>
      <trkpt lat="41.6751710" lon="-0.8958100">
        <ele>64.0</ele>
        <time>2019-01-01T08:17:48Z</time>
      </trkpt>
      <trkpt lat="41.6752220" lon="-0.8958630">
        <ele>64.0</ele>
        <time>2019-01-01T08:18:04Z</time>
      </trkpt>
      <trkpt lat="41.6753430" lon="-0.8958480">
        <ele>64.2</ele>
        <time>2019-01-01T08:18:09Z</time>
      </trkpt>
      <trkpt lat="41.6755380" lon="-0.8958460">
        <ele>64.2</ele>
        <time>2019-01-01T08:18:15Z</time>
      </trkpt>
      <trkpt lat="41.6756380" lon="-0.8958480">
        <ele>64.2</ele>
        <time>2019-01-01T08:18:18Z</time>
      </trkpt>
      <trkpt lat="41.6757790" lon="-0.8958690">
        <ele>64.4</ele>
        <time>2019-01-01T08:18:22Z</time>
      </trkpt>
      <trkpt lat="41.6759390" lon="-0.8958740">
        <ele>64.6</ele>
        <time>2019-01-01T08:18:27Z</time>
      </trkpt>
      <trkpt lat="41.6760670" lon="-0.8958720">
        <ele>64.8</ele>
        <time>2019-01-01T08:18:33Z</time>
      </trkpt>
      <trkpt lat="41.6762340" lon="-0.8959170">
        <ele>64.8</ele>
        <time>2019-01-01T08:18:38Z</time>
      </trkpt>
      <trkpt lat="41.6762730" lon="-0.8959210">
        <ele>65.0</ele>
        <time>2019-01-01T08:18:39Z</time>
      </trkpt>
      <trkpt lat="41.6763480" lon="-0.8959190">
        <ele>64.6</ele>
        <time>2019-01-01T08:18:41Z</time>
      </trkpt>
      <trkpt lat="41.6764300" lon="-0.8959130">
        <ele>64.8</ele>
        <time>2019-01-01T08:18:43Z</time>
      </trkpt>
      <trkpt lat="41.6765990" lon="-0.8959010">
        <ele>65.2</ele>
        <time>2019-01-01T08:18:47Z</time>
      </trkpt>
      <trkpt lat="41.6766770" lon="-0.8958420">
        <ele>65.0</ele>
        <time>2019-01-01T08:18:49Z</time>
      </trkpt>
      <trkpt lat="41.6767890" lon="-0.8956810">
        <ele>64.8</ele>
        <time>2019-01-01T08:18:53Z</time>
      </trkpt>
      <trkpt lat="41.6768680" lon="-0.8956840">
        <ele>64.4</ele>
        <time>2019-01-01T08:18:55Z</time>
      </trkpt>
      <trkpt lat="41.6769470" lon="-0.8956820">
        <ele>64.2</ele>
        <time>2019-01-01T08:18:57Z</time>
      </trkpt>
      <trkpt lat="41.6770080" lon="-0.8956360">
        <ele>64.4</ele>
        <time>2019-01-01T08:18:59Z</time>
      </trkpt>
      <trkpt lat="41.6770190" lon="-0.8955930">
        <ele>64.6</ele>
        <time>2019-01-01T08:19:00Z</time>
      </trkpt>
      <trkpt lat="41.6770260" lon="-0.8953790">
        <ele>64.2</ele>
        <time>2019-01-01T08:19:04Z</time>
      </trkpt>
      <trkpt lat="41.6770310" lon="-0.8953280">
        <ele>64.4</ele>
        <time>2019-01-01T08:19:05Z</time>
      </trkpt>
      <trkpt lat="41.6771010" lon="-0.8952390">
        <ele>64.8</ele>
        <time>2019-01-01T08:19:08Z</time>
      </trkpt>
      <trkpt lat="41.6771380" lon="-0.8952370">
        <ele>64.8</ele>
        <time>2019-01-01T08:19:09Z</time>
      </trkpt>
      <trkpt lat="41.6772250" lon="-0.8952340">
        <ele>65.0</ele>
        <time>2019-01-01T08:19:11Z</time>
      </trkpt>
      <trkpt lat="41.6774370" lon="-0.8951980">
        <ele>65.0</ele>
        <time>2019-01-01T08:19:16Z</time>
      </trkpt>
      <trkpt lat="41.6776300" lon="-0.8951670">
        <ele>64.6</ele>
        <time>2019-01-01T08:19:20Z</time>
      </trkpt>
      <trkpt lat="41.6778340" lon="-0.8951580">
        <ele>64.4</ele>
        <time>2019-01-01T08:19:25Z</time>
      </trkpt>
      <trkpt lat="41.6780770" lon="-0.8951750">
        <ele>64.4</ele>
        <time>2019-01-01T08:19:30Z</time>
      </trkpt>
      <trkpt lat="41.6782980" lon="-0.8951780">
        <ele>64.2</ele>
        <time>2019-01-01T08:19:35Z</time>
      </trkpt>
      <trkpt lat="41.6783350" lon="-0.8951540">
        <ele>64.2</ele>
        <time>2019-01-01T08:19:36Z</time>
      </trkpt>
      <trkpt lat="41.6783600" lon="-0.8950050">
        <ele>64.0</ele>
        <time>2019-01-01T08:19:39Z</time>
      </trkpt>
      <trkpt lat="41.6783620" lon="-0.8949500">
        <ele>64.2</ele>
        <time>2019-01-01T08:19:40Z</time>
      </trkpt>
      <trkpt lat="41.6783930" lon="-0.8945640">
        <ele>64.4</ele>
        <time>2019-01-01T08:19:47Z</time>
      </trkpt>
      <trkpt lat="41.6784670" lon="-0.8944980">
        <ele>64.6</ele>
        <time>2019-01-01T08:19:50Z</time>
      </trkpt>
      <trkpt lat="41.6786350" lon="-0.8944930">
        <ele>64.4</ele>
        <time>2019-01-01T08:19:54Z</time>
      </trkpt>
      <trkpt lat="41.6787080" lon="-0.8944860">
        <ele>64.6</ele>
        <time>2019-01-01T08:19:56Z</time>
      </trkpt>
      <trkpt lat="41.6788740" lon="-0.8944830">
        <ele>64.2</ele>
        <time>2019-01-01T08:20:00Z</time>
      </trkpt>
      <trkpt lat="41.6791280" lon="-0.8944880">
        <ele>64.2</ele>
        <time>2019-01-01T08:20:06Z</time>
      </trkpt>
      <trkpt lat="41.6792470" lon="-0.8944730">
        <ele>64.0</ele>
        <time>2019-01-01T08:20:09Z</time>
      </trkpt>
      <trkpt lat="41.6793450" lon="-0.8944320">
        <ele>63.8</ele>
        <time>2019-01-01T08:20:12Z</time>
      </trkpt>
      <trkpt lat="41.6793480" lon="-0.8942840">
        <ele>63.6</ele>
        <time>2019-01-01T08:20:15Z</time>
      </trkpt>
      <trkpt lat="41.6793240" lon="-0.8939910">
        <ele>63.8</ele>
        <time>2019-01-01T08:20:20Z</time>
      </trkpt>
      <trkpt lat="41.6793120" lon="-0.8938090">
        <ele>63.8</ele>
        <time>2019-01-01T08:20:23Z</time>
      </trkpt>
      <trkpt lat="41.6792880" lon="-0.8934470">
        <ele>64.4</ele>
        <time>2019-01-01T08:20:29Z</time>
      </trkpt>
      <trkpt lat="41.6792780" lon="-0.8932730">
        <ele>64.2</ele>
        <time>2019-01-01T08:20:32Z</time>
      </trkpt>
      <trkpt lat="41.6792610" lon="-0.8928890">
        <ele>64.4</ele>
        <time>2019-01-01T08:20:39Z</time>
      </trkpt>
      <trkpt lat="41.6792810" lon="-0.8927440">
        <ele>64.4</ele>
        <time>2019-01-01T08:20:42Z</time>
      </trkpt>
      <trkpt lat="41.6792830" lon="-0.8926420">
        <ele>64.6</ele>
        <time>2019-01-01T08:20:44Z</time>
      </trkpt>
      <trkpt lat="41.6792800" lon="-0.8925890">
        <ele>64.8</ele>
        <time>2019-01-01T08:20:45Z</time>
      </trkpt>
      <trkpt lat="41.6792590" lon="-0.8922050">
        <ele>64.6</ele>
        <time>2019-01-01T08:20:52Z</time>
      </trkpt>
      <trkpt lat="41.6792300" lon="-0.8916930">
        <ele>64.2</ele>
        <time>2019-01-01T08:21:01Z</time>
      </trkpt>
      <trkpt lat="41.6792170" lon="-0.8914620">
        <ele>64.0</ele>
        <time>2019-01-01T08:21:05Z</time>
      </trkpt>
      <trkpt lat="41.6791990" lon="-0.8912830">
        <ele>63.8</ele>
        <time>2019-01-01T08:21:08Z</time>
      </trkpt>
      <trkpt lat="41.6792410" lon="-0.8910690">
        <ele>63.6</ele>
        <time>2019-01-01T08:21:12Z</time>
      </trkpt>
      <trkpt lat="41.6792550" lon="-0.8910190">
        <ele>63.8</ele>
        <time>2019-01-01T08:21:13Z</time>
      </trkpt>
      <trkpt lat="41.6792680" lon="-0.8908780">
        <ele>63.4</ele>
        <time>2019-01-01T08:21:16Z</time>
      </trkpt>
      <trkpt lat="41.6792630" lon="-0.8908310">
        <ele>63.2</ele>
        <time>2019-01-01T08:21:17Z</time>
      </trkpt>
      <trkpt lat="41.6792540" lon="-0.8905410">
        <ele>63.2</ele>
        <time>2019-01-01T08:21:24Z</time>
      </trkpt>
      <trkpt lat="41.6792290" lon="-0.8903810">
        <ele>63.2</ele>
        <time>2019-01-01T08:21:31Z</time>
      </trkpt>
      <trkpt lat="41.6792310" lon="-0.8903680">
        <ele>63.2</ele>
        <time>2019-01-01T08:21:34Z</time>
      </trkpt>
      <trkpt lat="41.6880690" lon="-0.8907890">
        <ele>79.8</ele>
        <time>2019-01-01T08:35:48Z</time>
      </trkpt>
      <trkpt lat="41.6882140" lon="-0.8910220">
        <ele>80.4</ele>
        <time>2019-01-01T08:35:55Z</time>
      </trkpt>
      <trkpt lat="41.6882370" lon="-0.8910550">
        <ele>80.6</ele>
        <time>2019-01-01T08:35:56Z</time>
      </trkpt>
      <trkpt lat="41.6884260" lon="-0.8913540">
        <ele>80.8</ele>
        <time>2019-01-01T08:36:04Z</time>
      </trkpt>
      <trkpt lat="41.6884940" lon="-0.8914750">
        <ele>81.0</ele>
        <time>2019-01-01T08:36:07Z</time>
      </trkpt>
      <trkpt lat="41.6886260" lon="-0.8917330">
        <ele>81.8</ele>
        <time>2019-01-01T08:36:13Z</time>
      </trkpt>
      <trkpt lat="41.6887130" lon="-0.8919780">
        <ele>82.0</ele>
        <time>2019-01-01T08:36:18Z</time>
      </trkpt>
      <trkpt lat="41.6887280" lon="-0.8920320">
        <ele>82.0</ele>
        <time>2019-01-01T08:36:19Z</time>
      </trkpt>
      <trkpt lat="41.6888530" lon="-0.8924970">
        <ele>82.0</ele>
        <time>2019-01-01T08:36:27Z</time>
      </trkpt>
      <trkpt lat="41.6890710" lon="-0.8931930">
        <ele>81.6</ele>
        <time>2019-01-01T08:36:38Z</time>
      </trkpt>
      <trkpt lat="41.6892960" lon="-0.8935750">
        <ele>81.0</ele>
        <time>2019-01-01T08:36:45Z</time>
      </trkpt>
      <trkpt lat="41.6894850" lon="-0.8938190">
        <ele>80.8</ele>
        <time>2019-01-01T08:36:50Z</time>
      </trkpt>
      <trkpt lat="41.6895450" lon="-0.8939390">
        <ele>80.6</ele>
        <time>2019-01-01T08:36:52Z</time>
      </trkpt>
      <trkpt lat="41.6896060" lon="-0.8941300">
        <ele>80.4</ele>
        <time>2019-01-01T08:36:55Z</time>
      </trkpt>
      <trkpt lat="41.6896390" lon="-0.8942680">
        <ele>80.4</ele>
        <time>2019-01-01T08:36:57Z</time>
      </trkpt>
      <trkpt lat="41.6897640" lon="-0.8947280">
        <ele>80.0</ele>
        <time>2019-01-01T08:37:04Z</time>
      </trkpt>
      <trkpt lat="41.6898820" lon="-0.8949840">
        <ele>80.0</ele>
        <time>2019-01-01T08:37:08Z</time>
      </trkpt>
      <trkpt lat="41.6899000" lon="-0.8950520">
        <ele>80.0</ele>
        <time>2019-01-01T08:37:09Z</time>
      </trkpt>
      <trkpt lat="41.6899250" lon="-0.8952590">
        <ele>80.0</ele>
        <time>2019-01-01T08:37:12Z</time>
      </trkpt>
      <trkpt lat="41.6899220" lon="-0.8953940">
        <ele>80.0</ele>
        <time>2019-01-01T08:37:14Z</time>
      </trkpt>
      <trkpt lat="41.6899250" lon="-0.8954620">
        <ele>80.0</ele>
        <time>2019-01-01T08:37:15Z</time>
      </trkpt>
      <trkpt lat="41.6899510" lon="-0.8955950">
        <ele>80.2</ele>
        <time>2019-01-01T08:37:17Z</time>
      </trkpt>
      <trkpt lat="41.6899760" lon="-0.8956580">
        <ele>80.2</ele>
        <time>2019-01-01T08:37:18Z</time>
      </trkpt>
      <trkpt lat="41.6901570" lon="-0.8959010">
        <ele>80.2</ele>
        <time>2019-01-01T08:37:23Z</time>
      </trkpt>
      <trkpt lat="41.6902010" lon="-0.8959370">
        <ele>80.0</ele>
        <time>2019-01-01T08:37:24Z</time>
      </trkpt>
      <trkpt lat="41.6902950" lon="-0.8959930">
        <ele>80.0</ele>
        <time>2019-01-01T08:37:26Z</time>
      </trkpt>
      <trkpt lat="41.6903960" lon="-0.8960180">
        <ele>80.0</ele>
        <time>2019-01-01T08:37:28Z</time>
      </trkpt>
      <trkpt lat="41.6905540" lon="-0.8960500">
        <ele>80.0</ele>
        <time>2019-01-01T08:37:31Z</time>
      </trkpt>
      <trkpt lat="41.6907140" lon="-0.8961350">
        <ele>79.8</ele>
        <time>2019-01-01T08:37:34Z</time>
      </trkpt>
      <trkpt lat="41.6907640" lon="-0.8961760">
        <ele>79.8</ele>
        <time>2019-01-01T08:37:35Z</time>
      </trkpt>
      <trkpt lat="41.6911310" lon="-0.8965150">
        <ele>79.4</ele>
        <time>2019-01-01T08:37:43Z</time>
      </trkpt>
      <trkpt lat="41.6915250" lon="-0.8968530">
        <ele>79.8</ele>
        <time>2019-01-01T08:37:52Z</time>
      </trkpt>
      <trkpt lat="41.6916110" lon="-0.8969300">
        <ele>79.8</ele>
        <time>2019-01-01T08:37:54Z</time>
      </trkpt>
      <trkpt lat="41.6917740" lon="-0.8971040">
        <ele>79.4</ele>
        <time>2019-01-01T08:37:58Z</time>
      </trkpt>
      <trkpt lat="41.6918750" lon="-0.8972560">
        <ele>79.4</ele>
        <time>2019-01-01T08:38:01Z</time>
      </trkpt>
      <trkpt lat="41.6920600" lon="-0.8975920">
        <ele>79.2</ele>
        <time>2019-01-01T08:38:07Z</time>
      </trkpt>
      <trkpt lat="41.6923700" lon="-0.8979370">
        <ele>79.4</ele>
        <time>2019-01-01T08:38:15Z</time>
      </trkpt>
      <trkpt lat="41.6924830" lon="-0.8980370">
        <ele>80.0</ele>
        <time>2019-01-01T08:38:18Z</time>
      </trkpt>
      <trkpt lat="41.6925890" lon="-0.8981580">
        <ele>80.4</ele>
        <time>2019-01-01T08:38:21Z</time>
      </trkpt>
      <trkpt lat="41.6926200" lon="-0.8982090">
        <ele>80.4</ele>
        <time>2019-01-01T08:38:22Z</time>
      </trkpt>
      <trkpt lat="41.6926840" lon="-0.8983220">
        <ele>80.4</ele>
        <time>2019-01-01T08:38:24Z</time>
      </trkpt>
      <trkpt lat="41.6928120" lon="-0.8985700">
        <ele>80.2</ele>
        <time>2019-01-01T08:38:28Z</time>
      </trkpt>
      <trkpt lat="41.6930530" lon="-0.8990350">
        <ele>78.4</ele>
        <time>2019-01-01T08:38:35Z</time>
      </trkpt>
      <trkpt lat="41.6930860" lon="-0.8991050">
        <ele>78.0</ele>
        <time>2019-01-01T08:38:36Z</time>
      </trkpt>
      <trkpt lat="41.6932710" lon="-0.8994690">
        <ele>78.2</ele>
        <time>2019-01-01T08:38:42Z</time>
      </trkpt>
      <trkpt lat="41.6933280" lon="-0.8995790">
        <ele>78.8</ele>
        <time>2019-01-01T08:38:44Z</time>
      </trkpt>
      <trkpt lat="41.6934670" lon="-0.8998400">
        <ele>79.4</ele>
        <time>2019-01-01T08:38:49Z</time>
      </trkpt>
      <trkpt lat="41.6936490" lon="-0.9001120">
        <ele>78.4</ele>
        <time>2019-01-01T08:38:54Z</time>
      </trkpt>
      <trkpt lat="41.6938780" lon="-0.9004300">
        <ele>78.2</ele>
        <time>2019-01-01T08:39:00Z</time>
      </trkpt>
      <trkpt lat="41.6940880" lon="-0.9007490">
        <ele>78.0</ele>
        <time>2019-01-01T08:39:06Z</time>
      </trkpt>
      <trkpt lat="41.6941190" lon="-0.9008050">
        <ele>78.0</ele>
        <time>2019-01-01T08:39:07Z</time>
      </trkpt>
      <trkpt lat="41.6942040" lon="-0.9010090">
        <ele>77.6</ele>
        <time>2019-01-01T08:39:10Z</time>
      </trkpt>
      <trkpt lat="41.6942770" lon="-0.9012240">
        <ele>77.8</ele>
        <time>2019-01-01T08:39:13Z</time>
      </trkpt>
      <trkpt lat="41.6943550" lon="-0.9014160">
        <ele>78.0</ele>
        <time>2019-01-01T08:39:16Z</time>
      </trkpt>
      <trkpt lat="41.6944250" lon="-0.9015990">
        <ele>78.0</ele>
        <time>2019-01-01T08:39:19Z</time>
      </trkpt>
      <trkpt lat="41.6944820" lon="-0.9017020">
        <ele>78.2</ele>
        <time>2019-01-01T08:39:21Z</time>
      </trkpt>
      <trkpt lat="41.6945060" lon="-0.9017510">
        <ele>78.4</ele>
        <time>2019-01-01T08:39:22Z</time>
      </trkpt>
      <trkpt lat="41.6945530" lon="-0.9018530">
        <ele>78.4</ele>
        <time>2019-01-01T08:39:24Z</time>
      </trkpt>
      <trkpt lat="41.6945980" lon="-0.9019580">
        <ele>78.4</ele>
        <time>2019-01-01T08:39:26Z</time>
      </trkpt>
      <trkpt lat="41.6946490" lon="-0.9020580">
        <ele>78.6</ele>
        <time>2019-01-01T08:39:28Z</time>
      </trkpt>
      <trkpt lat="41.6946750" lon="-0.9021140">
        <ele>78.6</ele>
        <time>2019-01-01T08:39:29Z</time>
      </trkpt>
      <trkpt lat="41.6947320" lon="-0.9022980">
        <ele>78.2</ele>
        <time>2019-01-01T08:39:32Z</time>
      </trkpt>
      <trkpt lat="41.6947300" lon="-0.9023510">
        <ele>77.8</ele>
        <time>2019-01-01T08:39:33Z</time>
      </trkpt>
      <trkpt lat="41.6947220" lon="-0.9025350">
        <ele>77.2</ele>
        <time>2019-01-01T08:39:36Z</time>
      </trkpt>
      <trkpt lat="41.6947710" lon="-0.9026530">
        <ele>77.2</ele>
        <time>2019-01-01T08:39:38Z</time>
      </trkpt>
      <trkpt lat="41.6948180" lon="-0.9027870">
        <ele>76.8</ele>
        <time>2019-01-01T08:39:40Z</time>
      </trkpt>
      <trkpt lat="41.6948380" lon="-0.9028610">
        <ele>76.6</ele>
        <time>2019-01-01T08:39:41Z</time>
      </trkpt>
      <trkpt lat="41.6948780" lon="-0.9030760">
        <ele>76.6</ele>
        <time>2019-01-01T08:39:44Z</time>
      </trkpt>
      <trkpt lat="41.6948960" lon="-0.9031410">
        <ele>76.8</ele>
        <time>2019-01-01T08:39:45Z</time>
      </trkpt>
      <trkpt lat="41.6949160" lon="-0.9032060">
        <ele>77.0</ele>
        <time>2019-01-01T08:39:46Z</time>
      </trkpt>
      <trkpt lat="41.6950150" lon="-0.9034490">
        <ele>77.6</ele>
        <time>2019-01-01T08:39:50Z</time>
      </trkpt>
      <trkpt lat="41.6950430" lon="-0.9035050">
        <ele>77.8</ele>
        <time>2019-01-01T08:39:51Z</time>
      </trkpt>
      <trkpt lat="41.6951520" lon="-0.9036030">
        <ele>77.8</ele>
        <time>2019-01-01T08:39:54Z</time>
      </trkpt>
      <trkpt lat="41.6952230" lon="-0.9036470">
        <ele>78.0</ele>
        <time>2019-01-01T08:39:56Z</time>
      </trkpt>
      <trkpt lat="41.6953300" lon="-0.9037010">
        <ele>78.8</ele>
        <time>2019-01-01T08:39:59Z</time>
      </trkpt>
      <trkpt lat="41.6954010" lon="-0.9037450">
        <ele>79.2</ele>
        <time>2019-01-01T08:40:01Z</time>
      </trkpt>
      <trkpt lat="41.6954850" lon="-0.9038360">
        <ele>79.8</ele>
        <time>2019-01-01T08:40:04Z</time>
      </trkpt>
      <trkpt lat="41.6955380" lon="-0.9039180">
        <ele>80.2</ele>
        <time>2019-01-01T08:40:06Z</time>
      </trkpt>
      <trkpt lat="41.6956860" lon="-0.9042290">
        <ele>80.6</ele>
        <time>2019-01-01T08:40:12Z</time>
      </trkpt>
      <trkpt lat="41.6957130" lon="-0.9042810">
        <ele>80.4</ele>
        <time>2019-01-01T08:40:13Z</time>
      </trkpt>
      <trkpt lat="41.6957370" lon="-0.9043420">
        <ele>80.4</ele>
        <time>2019-01-01T08:40:14Z</time>
      </trkpt>
      <trkpt lat="41.6958210" lon="-0.9045710">
        <ele>80.2</ele>
        <time>2019-01-01T08:40:18Z</time>
      </trkpt>
      <trkpt lat="41.6959490" lon="-0.9048810">
        <ele>80.6</ele>
        <time>2019-01-01T08:40:24Z</time>
      </trkpt>
      <trkpt lat="41.6959670" lon="-0.9049300">
        <ele>80.6</ele>
        <time>2019-01-01T08:40:25Z</time>
      </trkpt>
      <trkpt lat="41.6960300" lon="-0.9050750">
        <ele>80.8</ele>
        <time>2019-01-01T08:40:28Z</time>
      </trkpt>
      <trkpt lat="41.6961560" lon="-0.9053930">
        <ele>81.8</ele>
        <time>2019-01-01T08:40:34Z</time>
      </trkpt>
      <trkpt lat="41.6961770" lon="-0.9054490">
        <ele>81.6</ele>
        <time>2019-01-01T08:40:35Z</time>
      </trkpt>
      <trkpt lat="41.6962900" lon="-0.9057120">
        <ele>81.6</ele>
        <time>2019-01-01T08:40:40Z</time>
      </trkpt>
      <trkpt lat="41.6963450" lon="-0.9058140">
        <ele>81.6</ele>
        <time>2019-01-01T08:40:42Z</time>
      </trkpt>
      <trkpt lat="41.6965300" lon="-0.9061870">
        <ele>80.4</ele>
        <time>2019-01-01T08:40:48Z</time>
      </trkpt>
      <trkpt lat="41.6965590" lon="-0.9062640">
        <ele>80.0</ele>
        <time>2019-01-01T08:40:49Z</time>
      </trkpt>
      <trkpt lat="41.6966600" lon="-0.9065980">
        <ele>78.8</ele>
        <time>2019-01-01T08:40:53Z</time>
      </trkpt>
      <trkpt lat="41.6967080" lon="-0.9067700">
        <ele>78.2</ele>
        <time>2019-01-01T08:40:55Z</time>
      </trkpt>
      <trkpt lat="41.6967840" lon="-0.9070150">
        <ele>77.6</ele>
        <time>2019-01-01T08:40:58Z</time>
      </trkpt>
      <trkpt lat="41.6968320" lon="-0.9071670">
        <ele>77.4</ele>
        <time>2019-01-01T08:41:00Z</time>
      </trkpt>
      <trkpt lat="41.6968470" lon="-0.9072420">
        <ele>77.0</ele>
        <time>2019-01-01T08:41:01Z</time>
      </trkpt>
      <trkpt lat="41.6968580" lon="-0.9076110">
        <ele>76.6</ele>
        <time>2019-01-01T08:41:06Z</time>
      </trkpt>
      <trkpt lat="41.6968480" lon="-0.9076830">
        <ele>76.6</ele>
        <time>2019-01-01T08:41:07Z</time>
      </trkpt>
      <trkpt lat="41.6967670" lon="-0.9081300">
        <ele>76.8</ele>
        <time>2019-01-01T08:41:13Z</time>
      </trkpt>
      <trkpt lat="41.6967580" lon="-0.9082060">
        <ele>76.8</ele>
        <time>2019-01-01T08:41:14Z</time>
      </trkpt>
      <trkpt lat="41.6967690" lon="-0.9084350">
        <ele>76.6</ele>
        <time>2019-01-01T08:41:17Z</time>
      </trkpt>
      <trkpt lat="41.6968140" lon="-0.9086480">
        <ele>76.6</ele>
        <time>2019-01-01T08:41:20Z</time>
      </trkpt>
      <trkpt lat="41.6968560" lon="-0.9088350">
        <ele>76.6</ele>
        <time>2019-01-01T08:41:23Z</time>
      </trkpt>
      <trkpt lat="41.6969150" lon="-0.9090020">
        <ele>77.0</ele>
        <time>2019-01-01T08:41:26Z</time>
      </trkpt>
      <trkpt lat="41.6969690" lon="-0.9090980">
        <ele>77.4</ele>
        <time>2019-01-01T08:41:28Z</time>
      </trkpt>
      <trkpt lat="41.6969990" lon="-0.9091430">
        <ele>77.6</ele>
        <time>2019-01-01T08:41:29Z</time>
      </trkpt>
      <trkpt lat="41.6971150" lon="-0.9093060">
        <ele>78.4</ele>
        <time>2019-01-01T08:41:33Z</time>
      </trkpt>
      <trkpt lat="41.6972000" lon="-0.9094440">
        <ele>79.0</ele>
        <time>2019-01-01T08:41:36Z</time>
      </trkpt>
      <trkpt lat="41.6972260" lon="-0.9094980">
        <ele>79.2</ele>
        <time>2019-01-01T08:41:37Z</time>
      </trkpt>
      <trkpt lat="41.6973230" lon="-0.9097900">
        <ele>79.4</ele>
        <time>2019-01-01T08:41:42Z</time>
      </trkpt>
      <trkpt lat="41.6974050" lon="-0.9100880">
        <ele>79.0</ele>
        <time>2019-01-01T08:41:47Z</time>
      </trkpt>
      <trkpt lat="41.6974330" lon="-0.9101840">
        <ele>79.0</ele>
        <time>2019-01-01T08:41:49Z</time>
      </trkpt>
      <trkpt lat="41.6975540" lon="-0.9103730">
        <ele>78.6</ele>
        <time>2019-01-01T08:41:53Z</time>
      </trkpt>
      <trkpt lat="41.6976180" lon="-0.9104750">
        <ele>78.4</ele>
        <time>2019-01-01T08:41:55Z</time>
      </trkpt>
      <trkpt lat="41.6977380" lon="-0.9106040">
        <ele>78.0</ele>
        <time>2019-01-01T08:41:58Z</time>
      </trkpt>
      <trkpt lat="41.6979260" lon="-0.9107800">
        <ele>77.4</ele>
        <time>2019-01-01T08:42:02Z</time>
      </trkpt>
      <trkpt lat="41.6979680" lon="-0.9108400">
        <ele>77.2</ele>
        <time>2019-01-01T08:42:03Z</time>
      </trkpt>
      <trkpt lat="41.6980090" lon="-0.9109070">
        <ele>77.0</ele>
        <time>2019-01-01T08:42:04Z</time>
      </trkpt>
      <trkpt lat="41.6981640" lon="-0.9112180">
        <ele>76.0</ele>
        <time>2019-01-01T08:42:08Z</time>
      </trkpt>
      <trkpt lat="41.6982250" lon="-0.9113780">
        <ele>75.6</ele>
        <time>2019-01-01T08:42:10Z</time>
      </trkpt>
      <trkpt lat="41.6983560" lon="-0.9118320">
        <ele>75.0</ele>
        <time>2019-01-01T08:42:16Z</time>
      </trkpt>
      <trkpt lat="41.6983820" lon="-0.9119610">
        <ele>75.0</ele>
        <time>2019-01-01T08:42:18Z</time>
      </trkpt>
      <trkpt lat="41.6983900" lon="-0.9121580">
        <ele>75.0</ele>
        <time>2019-01-01T08:42:21Z</time>
      </trkpt>
      <trkpt lat="41.6983920" lon="-0.9122260">
        <ele>75.0</ele>
        <time>2019-01-01T08:42:22Z</time>
      </trkpt>
      <trkpt lat="41.6984380" lon="-0.9125770">
        <ele>144.0</ele>
        <time>2019-01-01T08:42:27Z</time>
      </trkpt>
      <trkpt lat="41.6985370" lon="-0.9128470">
        <ele>75.6</ele>
        <time>2019-01-01T08:42:31Z</time>
      </trkpt>
      <trkpt lat="41.6986110" lon="-0.9129530">
        <ele>75.8</ele>
        <time>2019-01-01T08:42:33Z</time>
      </trkpt>
      <trkpt lat="41.6986990" lon="-0.9130420">
        <ele>75.6</ele>
        <time>2019-01-01T08:42:35Z</time>
      </trkpt>
      <trkpt lat="41.6989260" lon="-0.9132760">
        <ele>75.6</ele>
        <time>2019-01-01T08:42:40Z</time>
      </trkpt>
      <trkpt lat="41.6991530" lon="-0.9136240">
        <ele>74.8</ele>
        <time>2019-01-01T08:42:46Z</time>
      </trkpt>
      <trkpt lat="41.6991880" lon="-0.9136950">
        <ele>74.4</ele>
        <time>2019-01-01T08:42:47Z</time>
      </trkpt>
      <trkpt lat="41.6993260" lon="-0.9139800">
        <ele>73.4</ele>
        <time>2019-01-01T08:42:51Z</time>
      </trkpt>
      <trkpt lat="41.6994840" lon="-0.9143310">
        <ele>73.2</ele>
        <time>2019-01-01T08:42:56Z</time>
      </trkpt>
      <trkpt lat="41.6996680" lon="-0.9146900">
        <ele>73.6</ele>
        <time>2019-01-01T08:43:02Z</time>
      </trkpt>
      <trkpt lat="41.6997250" lon="-0.9147880">
        <ele>74.0</ele>
        <time>2019-01-01T08:43:04Z</time>
      </trkpt>
      <trkpt lat="41.6997800" lon="-0.9149330">
        <ele>74.8</ele>
        <time>2019-01-01T08:43:07Z</time>
      </trkpt>
      <trkpt lat="41.6997980" lon="-0.9149820">
        <ele>75.0</ele>
        <time>2019-01-01T08:43:08Z</time>
      </trkpt>
      <trkpt lat="41.6998780" lon="-0.9152530">
        <ele>75.8</ele>
        <time>2019-01-01T08:43:13Z</time>
      </trkpt>
      <trkpt lat="41.6999140" lon="-0.9153660">
        <ele>76.2</ele>
        <time>2019-01-01T08:43:15Z</time>
      </trkpt>
      <trkpt lat="41.7000750" lon="-0.9158380">
        <ele>76.6</ele>
        <time>2019-01-01T08:43:23Z</time>
      </trkpt>
      <trkpt lat="41.7001730" lon="-0.9160550">
        <ele>76.2</ele>
        <time>2019-01-01T08:43:27Z</time>
      </trkpt>
      <trkpt lat="41.7002750" lon="-0.9161880">
        <ele>76.4</ele>
        <time>2019-01-01T08:43:30Z</time>
      </trkpt>
      <trkpt lat="41.7004010" lon="-0.9162900">
        <ele>76.2</ele>
        <time>2019-01-01T08:43:33Z</time>
      </trkpt>
      <trkpt lat="41.7005370" lon="-0.9163870">
        <ele>76.0</ele>
        <time>2019-01-01T08:43:36Z</time>
      </trkpt>
      <trkpt lat="41.7007540" lon="-0.9166630">
        <ele>76.0</ele>
        <time>2019-01-01T08:43:42Z</time>
      </trkpt>
      <trkpt lat="41.7008110" lon="-0.9167710">
        <ele>76.0</ele>
        <time>2019-01-01T08:43:44Z</time>
      </trkpt>
      <trkpt lat="41.7009920" lon="-0.9170870">
        <ele>75.4</ele>
        <time>2019-01-01T08:43:50Z</time>
      </trkpt>
      <trkpt lat="41.7012130" lon="-0.9174610">
        <ele>75.4</ele>
        <time>2019-01-01T08:43:57Z</time>
      </trkpt>
      <trkpt lat="41.7012440" lon="-0.9175260">
        <ele>75.4</ele>
        <time>2019-01-01T08:43:58Z</time>
      </trkpt>
      <trkpt lat="41.7012830" lon="-0.9177750">
        <ele>74.2</ele>
        <time>2019-01-01T08:44:01Z</time>
      </trkpt>
      <trkpt lat="41.7012320" lon="-0.9179650">
        <ele>73.4</ele>
        <time>2019-01-01T08:44:03Z</time>
      </trkpt>
      <trkpt lat="41.7012020" lon="-0.9180680">
        <ele>72.6</ele>
        <time>2019-01-01T08:44:04Z</time>
      </trkpt>
      <trkpt lat="41.7011740" lon="-0.9184070">
        <ele>71.2</ele>
        <time>2019-01-01T08:44:07Z</time>
      </trkpt>
      <trkpt lat="41.7012180" lon="-0.9186240">
        <ele>69.8</ele>
        <time>2019-01-01T08:44:09Z</time>
      </trkpt>
      <trkpt lat="41.7012680" lon="-0.9187100">
        <ele>69.2</ele>
        <time>2019-01-01T08:44:10Z</time>
      </trkpt>
      <trkpt lat="41.7014600" lon="-0.9188620">
        <ele>68.4</ele>
        <time>2019-01-01T08:44:13Z</time>
      </trkpt>
      <trkpt lat="41.7015250" lon="-0.9188930">
        <ele>68.4</ele>
        <time>2019-01-01T08:44:14Z</time>
      </trkpt>
      <trkpt lat="41.7016490" lon="-0.9189640">
        <ele>68.2</ele>
        <time>2019-01-01T08:44:16Z</time>
      </trkpt>
      <trkpt lat="41.7017530" lon="-0.9190600">
        <ele>67.8</ele>
        <time>2019-01-01T08:44:18Z</time>
      </trkpt>
      <trkpt lat="41.7018430" lon="-0.9191750">
        <ele>67.6</ele>
        <time>2019-01-01T08:44:20Z</time>
      </trkpt>
      <trkpt lat="41.7019180" lon="-0.9193010">
        <ele>67.4</ele>
        <time>2019-01-01T08:44:22Z</time>
      </trkpt>
      <trkpt lat="41.7019510" lon="-0.9193710">
        <ele>67.4</ele>
        <time>2019-01-01T08:44:23Z</time>
      </trkpt>
      <trkpt lat="41.7020210" lon="-0.9196700">
        <ele>67.4</ele>
        <time>2019-01-01T08:44:27Z</time>
      </trkpt>
      <trkpt lat="41.7020260" lon="-0.9197470">
        <ele>67.4</ele>
        <time>2019-01-01T08:44:28Z</time>
      </trkpt>
      <trkpt lat="41.7020770" lon="-0.9202070">
        <ele>67.0</ele>
        <time>2019-01-01T08:44:34Z</time>
      </trkpt>
      <trkpt lat="41.7021140" lon="-0.9203480">
        <ele>67.2</ele>
        <time>2019-01-01T08:44:36Z</time>
      </trkpt>
      <trkpt lat="41.7021920" lon="-0.9205480">
        <ele>67.2</ele>
        <time>2019-01-01T08:44:39Z</time>
      </trkpt>
      <trkpt lat="41.7023930" lon="-0.9208790">
        <ele>67.0</ele>
        <time>2019-01-01T08:44:45Z</time>
      </trkpt>
      <trkpt lat="41.7026230" lon="-0.9210480">
        <ele>66.8</ele>
        <time>2019-01-01T08:44:50Z</time>
      </trkpt>
      <trkpt lat="41.7029230" lon="-0.9212160">
        <ele>66.6</ele>
        <time>2019-01-01T08:44:56Z</time>
      </trkpt>
      <trkpt lat="41.7032080" lon="-0.9214460">
        <ele>66.4</ele>
        <time>2019-01-01T08:45:02Z</time>
      </trkpt>
      <trkpt lat="41.7032980" lon="-0.9215360">
        <ele>66.4</ele>
        <time>2019-01-01T08:45:04Z</time>
      </trkpt>
      <trkpt lat="41.7034070" lon="-0.9217040">
        <ele>66.4</ele>
        <time>2019-01-01T08:45:07Z</time>
      </trkpt>
      <trkpt lat="41.7034380" lon="-0.9217680">
        <ele>66.6</ele>
        <time>2019-01-01T08:45:08Z</time>
      </trkpt>
      <trkpt lat="41.7035550" lon="-0.9221010">
        <ele>66.6</ele>
        <time>2019-01-01T08:45:13Z</time>
      </trkpt>
      <trkpt lat="41.7037120" lon="-0.9225450">
        <ele>66.8</ele>
        <time>2019-01-01T08:45:20Z</time>
      </trkpt>
      <trkpt lat="41.7037450" lon="-0.9225970">
        <ele>66.8</ele>
        <time>2019-01-01T08:45:21Z</time>
      </trkpt>
      <trkpt lat="41.7040100" lon="-0.9229200">
        <ele>66.4</ele>
        <time>2019-01-01T08:45:28Z</time>
      </trkpt>
      <trkpt lat="41.7043300" lon="-0.9232540">
        <ele>66.2</ele>
        <time>2019-01-01T08:45:36Z</time>
      </trkpt>
      <trkpt lat="41.7044420" lon="-0.9233900">
        <ele>66.6</ele>
        <time>2019-01-01T08:45:39Z</time>
      </trkpt>
      <trkpt lat="41.7045780" lon="-0.9235730">
        <ele>66.6</ele>
        <time>2019-01-01T08:45:43Z</time>
      </trkpt>
      <trkpt lat="41.7047850" lon="-0.9237110">
        <ele>66.6</ele>
        <time>2019-01-01T08:45:48Z</time>
      </trkpt>
      <trkpt lat="41.7049780" lon="-0.9239020">
        <ele>66.8</ele>
        <time>2019-01-01T08:45:53Z</time>
      </trkpt>
      <trkpt lat="41.7050100" lon="-0.9239540">
        <ele>66.8</ele>
        <time>2019-01-01T08:45:54Z</time>
      </trkpt>
      <trkpt lat="41.7051310" lon="-0.9242280">
        <ele>66.6</ele>
        <time>2019-01-01T08:45:59Z</time>
      </trkpt>
      <trkpt lat="41.7052840" lon="-0.9243820">
        <ele>66.6</ele>
        <time>2019-01-01T08:46:03Z</time>
      </trkpt>
      <trkpt lat="41.7053240" lon="-0.9244170">
        <ele>66.4</ele>
        <time>2019-01-01T08:46:04Z</time>
      </trkpt>
      <trkpt lat="41.7053990" lon="-0.9245490">
        <ele>66.4</ele>
        <time>2019-01-01T08:46:07Z</time>
      </trkpt>
      <trkpt lat="41.7053820" lon="-0.9247920">
        <ele>65.8</ele>
        <time>2019-01-01T08:46:11Z</time>
      </trkpt>
      <trkpt lat="41.7052790" lon="-0.9250420">
        <ele>65.0</ele>
        <time>2019-01-01T08:46:15Z</time>
      </trkpt>
      <trkpt lat="41.7052540" lon="-0.9251070">
        <ele>65.0</ele>
        <time>2019-01-01T08:46:16Z</time>
      </trkpt>
      <trkpt lat="41.7050900" lon="-0.9254840">
        <ele>64.8</ele>
        <time>2019-01-01T08:46:22Z</time>
      </trkpt>
      <trkpt lat="41.7050670" lon="-0.9255450">
        <ele>64.8</ele>
        <time>2019-01-01T08:46:23Z</time>
      </trkpt>
      <trkpt lat="41.7049750" lon="-0.9257910">
        <ele>64.8</ele>
        <time>2019-01-01T08:46:27Z</time>
      </trkpt>
      <trkpt lat="41.7049080" lon="-0.9259810">
        <ele>64.6</ele>
        <time>2019-01-01T08:46:30Z</time>
      </trkpt>
      <trkpt lat="41.7048950" lon="-0.9261170">
        <ele>64.8</ele>
        <time>2019-01-01T08:46:32Z</time>
      </trkpt>
      <trkpt lat="41.7049490" lon="-0.9263800">
        <ele>65.0</ele>
        <time>2019-01-01T08:46:36Z</time>
      </trkpt>
      <trkpt lat="41.7049620" lon="-0.9264470">
        <ele>65.2</ele>
        <time>2019-01-01T08:46:37Z</time>
      </trkpt>
      <trkpt lat="41.7049560" lon="-0.9266480">
        <ele>65.6</ele>
        <time>2019-01-01T08:46:40Z</time>
      </trkpt>
      <trkpt lat="41.7049170" lon="-0.9267800">
        <ele>65.8</ele>
        <time>2019-01-01T08:46:42Z</time>
      </trkpt>
      <trkpt lat="41.7048920" lon="-0.9268440">
        <ele>65.8</ele>
        <time>2019-01-01T08:46:43Z</time>
      </trkpt>
      <trkpt lat="41.7048250" lon="-0.9269560">
        <ele>65.8</ele>
        <time>2019-01-01T08:46:45Z</time>
      </trkpt>
      <trkpt lat="41.7047370" lon="-0.9270440">
        <ele>65.6</ele>
        <time>2019-01-01T08:46:47Z</time>
      </trkpt>
      <trkpt lat="41.7045530" lon="-0.9272000">
        <ele>65.4</ele>
        <time>2019-01-01T08:46:51Z</time>
      </trkpt>
      <trkpt lat="41.7044120" lon="-0.9273090">
        <ele>65.6</ele>
        <time>2019-01-01T08:46:54Z</time>
      </trkpt>
      <trkpt lat="41.7043100" lon="-0.9273630">
        <ele>65.6</ele>
        <time>2019-01-01T08:46:56Z</time>
      </trkpt>
      <trkpt lat="41.7042610" lon="-0.9273970">
        <ele>65.8</ele>
        <time>2019-01-01T08:46:57Z</time>
      </trkpt>
      <trkpt lat="41.7039270" lon="-0.9276370">
        <ele>65.6</ele>
        <time>2019-01-01T08:47:04Z</time>
      </trkpt>
      <trkpt lat="41.7038790" lon="-0.9276590">
        <ele>65.6</ele>
        <time>2019-01-01T08:47:05Z</time>
      </trkpt>
      <trkpt lat="41.7037360" lon="-0.9277100">
        <ele>65.8</ele>
        <time>2019-01-01T08:47:08Z</time>
      </trkpt>
      <trkpt lat="41.7036040" lon="-0.9278050">
        <ele>65.8</ele>
        <time>2019-01-01T08:47:11Z</time>
      </trkpt>
      <trkpt lat="41.7034500" lon="-0.9279810">
        <ele>65.8</ele>
        <time>2019-01-01T08:47:15Z</time>
      </trkpt>
      <trkpt lat="41.7034040" lon="-0.9281020">
        <ele>65.8</ele>
        <time>2019-01-01T08:47:17Z</time>
      </trkpt>
      <trkpt lat="41.7034110" lon="-0.9283610">
        <ele>66.0</ele>
        <time>2019-01-01T08:47:21Z</time>
      </trkpt>
      <trkpt lat="41.7034780" lon="-0.9285440">
        <ele>66.2</ele>
        <time>2019-01-01T08:47:24Z</time>
      </trkpt>
      <trkpt lat="41.7035380" lon="-0.9286590">
        <ele>66.0</ele>
        <time>2019-01-01T08:47:26Z</time>
      </trkpt>
      <trkpt lat="41.7037210" lon="-0.9290700">
        <ele>66.4</ele>
        <time>2019-01-01T08:47:33Z</time>
      </trkpt>
      <trkpt lat="41.7038360" lon="-0.9294380">
        <ele>66.2</ele>
        <time>2019-01-01T08:47:39Z</time>
      </trkpt>
      <trkpt lat="41.7039690" lon="-0.9297920">
        <ele>66.4</ele>
        <time>2019-01-01T08:47:45Z</time>
      </trkpt>
      <trkpt lat="41.7040560" lon="-0.9299400">
        <ele>66.0</ele>
        <time>2019-01-01T08:47:48Z</time>
      </trkpt>
      <trkpt lat="41.7041760" lon="-0.9300800">
        <ele>66.0</ele>
        <time>2019-01-01T08:47:51Z</time>
      </trkpt>
      <trkpt lat="41.7042570" lon="-0.9301710">
        <ele>66.0</ele>
        <time>2019-01-01T08:47:53Z</time>
      </trkpt>
      <trkpt lat="41.7042930" lon="-0.9302230">
        <ele>66.0</ele>
        <time>2019-01-01T08:47:54Z</time>
      </trkpt>
      <trkpt lat="41.7043550" lon="-0.9303430">
        <ele>66.2</ele>
        <time>2019-01-01T08:47:56Z</time>
      </trkpt>
      <trkpt lat="41.7044330" lon="-0.9306140">
        <ele>65.8</ele>
        <time>2019-01-01T08:48:00Z</time>
      </trkpt>
      <trkpt lat="41.7044480" lon="-0.9306850">
        <ele>65.8</ele>
        <time>2019-01-01T08:48:01Z</time>
      </trkpt>
      <trkpt lat="41.7044640" lon="-0.9308240">
        <ele>65.8</ele>
        <time>2019-01-01T08:48:03Z</time>
      </trkpt>
      <trkpt lat="41.7044390" lon="-0.9310260">
        <ele>66.0</ele>
        <time>2019-01-01T08:48:06Z</time>
      </trkpt>
      <trkpt lat="41.7043700" lon="-0.9312130">
        <ele>66.0</ele>
        <time>2019-01-01T08:48:09Z</time>
      </trkpt>
      <trkpt lat="41.7043400" lon="-0.9312680">
        <ele>66.2</ele>
        <time>2019-01-01T08:48:10Z</time>
      </trkpt>
      <trkpt lat="41.7043030" lon="-0.9313150">
        <ele>66.0</ele>
        <time>2019-01-01T08:48:11Z</time>
      </trkpt>
      <trkpt lat="41.7041000" lon="-0.9315490">
        <ele>66.0</ele>
        <time>2019-01-01T08:48:16Z</time>
      </trkpt>
      <trkpt lat="41.7040600" lon="-0.9315950">
        <ele>66.0</ele>
        <time>2019-01-01T08:48:17Z</time>
      </trkpt>
      <trkpt lat="41.7038770" lon="-0.9318620">
        <ele>65.8</ele>
        <time>2019-01-01T08:48:22Z</time>
      </trkpt>
      <trkpt lat="41.7036760" lon="-0.9322260">
        <ele>65.4</ele>
        <time>2019-01-01T08:48:28Z</time>
      </trkpt>
      <trkpt lat="41.7034430" lon="-0.9328050">
        <ele>65.2</ele>
        <time>2019-01-01T08:48:37Z</time>
      </trkpt>
      <trkpt lat="41.7032270" lon="-0.9333790">
        <ele>65.0</ele>
        <time>2019-01-01T08:48:46Z</time>
      </trkpt>
      <trkpt lat="41.7030030" lon="-0.9339340">
        <ele>65.0</ele>
        <time>2019-01-01T08:48:55Z</time>
      </trkpt>
      <trkpt lat="41.7028690" lon="-0.9343100">
        <ele>64.8</ele>
        <time>2019-01-01T08:49:01Z</time>
      </trkpt>
      <trkpt lat="41.7027770" lon="-0.9345560">
        <ele>64.8</ele>
        <time>2019-01-01T08:49:05Z</time>
      </trkpt>
      <trkpt lat="41.7027590" lon="-0.9346230">
        <ele>65.0</ele>
        <time>2019-01-01T08:49:06Z</time>
      </trkpt>
      <trkpt lat="41.7027240" lon="-0.9347550">
        <ele>65.0</ele>
        <time>2019-01-01T08:49:08Z</time>
      </trkpt>
      <trkpt lat="41.7026720" lon="-0.9349520">
        <ele>65.0</ele>
        <time>2019-01-01T08:49:11Z</time>
      </trkpt>
      <trkpt lat="41.7026670" lon="-0.9350890">
        <ele>65.0</ele>
        <time>2019-01-01T08:49:13Z</time>
      </trkpt>
      <trkpt lat="41.7027570" lon="-0.9352410">
        <ele>65.0</ele>
        <time>2019-01-01T08:49:16Z</time>
      </trkpt>
      <trkpt lat="41.7028530" lon="-0.9352820">
        <ele>65.0</ele>
        <time>2019-01-01T08:49:18Z</time>
      </trkpt>
      <trkpt lat="41.7030010" lon="-0.9353290">
        <ele>65.4</ele>
        <time>2019-01-01T08:49:21Z</time>
      </trkpt>
      <trkpt lat="41.7031550" lon="-0.9353890">
        <ele>65.2</ele>
        <time>2019-01-01T08:49:24Z</time>
      </trkpt>
      <trkpt lat="41.7032430" lon="-0.9354650">
        <ele>65.4</ele>
        <time>2019-01-01T08:49:26Z</time>
      </trkpt>
      <trkpt lat="41.7035030" lon="-0.9357080">
        <ele>65.4</ele>
        <time>2019-01-01T08:49:32Z</time>
      </trkpt>
      <trkpt lat="41.7035470" lon="-0.9357450">
        <ele>65.6</ele>
        <time>2019-01-01T08:49:33Z</time>
      </trkpt>
      <trkpt lat="41.7036690" lon="-0.9358630">
        <ele>65.2</ele>
        <time>2019-01-01T08:49:36Z</time>
      </trkpt>
      <trkpt lat="41.7037890" lon="-0.9359940">
        <ele>65.0</ele>
        <time>2019-01-01T08:49:39Z</time>
      </trkpt>
      <trkpt lat="41.7039070" lon="-0.9361310">
        <ele>65.0</ele>
        <time>2019-01-01T08:49:42Z</time>
      </trkpt>
      <trkpt lat="41.7039910" lon="-0.9362170">
        <ele>65.0</ele>
        <time>2019-01-01T08:49:44Z</time>
      </trkpt>
      <trkpt lat="41.7040630" lon="-0.9363200">
        <ele>65.0</ele>
        <time>2019-01-01T08:49:46Z</time>
      </trkpt>
      <trkpt lat="41.7043470" lon="-0.9367330">
        <ele>65.4</ele>
        <time>2019-01-01T08:49:54Z</time>
      </trkpt>
      <trkpt lat="41.7044210" lon="-0.9368310">
        <ele>65.6</ele>
        <time>2019-01-01T08:49:56Z</time>
      </trkpt>
      <trkpt lat="41.7046540" lon="-0.9371080">
        <ele>65.6</ele>
        <time>2019-01-01T08:50:02Z</time>
      </trkpt>
      <trkpt lat="41.7047270" lon="-0.9372030">
        <ele>65.6</ele>
        <time>2019-01-01T08:50:04Z</time>
      </trkpt>
      <trkpt lat="41.7048360" lon="-0.9373050">
        <ele>65.4</ele>
        <time>2019-01-01T08:50:07Z</time>
      </trkpt>
      <trkpt lat="41.7049330" lon="-0.9373870">
        <ele>65.0</ele>
        <time>2019-01-01T08:50:11Z</time>
      </trkpt>
      <trkpt lat="41.7050530" lon="-0.9374650">
        <ele>64.8</ele>
        <time>2019-01-01T08:50:15Z</time>
      </trkpt>
      <trkpt lat="41.7051690" lon="-0.9375950">
        <ele>66.0</ele>
        <time>2019-01-01T08:50:21Z</time>
      </trkpt>
      <trkpt lat="41.7051910" lon="-0.9376130">
        <ele>67.0</ele>
        <time>2019-01-01T08:50:24Z</time>
      </trkpt>
      <trkpt lat="41.7052010" lon="-0.9376220">
        <ele>67.4</ele>
        <time>2019-01-01T08:50:27Z</time>
      </trkpt>
      <trkpt lat="41.7052300" lon="-0.9376480">
        <ele>67.2</ele>
        <time>2019-01-01T08:50:47Z</time>
      </trkpt>
      <trkpt lat="41.7052800" lon="-0.9377070">
        <ele>67.2</ele>
        <time>2019-01-01T08:50:49Z</time>
      </trkpt>
      <trkpt lat="41.7054630" lon="-0.9379210">
        <ele>66.0</ele>
        <time>2019-01-01T08:50:54Z</time>
      </trkpt>
      <trkpt lat="41.7057140" lon="-0.9382130">
        <ele>65.4</ele>
        <time>2019-01-01T08:51:02Z</time>
      </trkpt>
      <trkpt lat="41.7059470" lon="-0.9384800">
        <ele>65.8</ele>
        <time>2019-01-01T08:51:09Z</time>
      </trkpt>
      <trkpt lat="41.7061950" lon="-0.9387730">
        <ele>66.0</ele>
        <time>2019-01-01T08:51:17Z</time>
      </trkpt>
      <trkpt lat="41.7064110" lon="-0.9390350">
        <ele>65.8</ele>
        <time>2019-01-01T08:51:24Z</time>
      </trkpt>
      <trkpt lat="41.7066600" lon="-0.9393280">
        <ele>66.0</ele>
        <time>2019-01-01T08:51:32Z</time>
      </trkpt>
      <trkpt lat="41.7066900" lon="-0.9393640">
        <ele>66.2</ele>
        <time>2019-01-01T08:51:33Z</time>
      </trkpt>
      <trkpt lat="41.7069480" lon="-0.9396680">
        <ele>66.0</ele>
        <time>2019-01-01T08:51:41Z</time>
      </trkpt>
      <trkpt lat="41.7071910" lon="-0.9399640">
        <ele>66.0</ele>
        <time>2019-01-01T08:51:48Z</time>
      </trkpt>
      <trkpt lat="41.7075060" lon="-0.9403500">
        <ele>65.8</ele>
        <time>2019-01-01T08:51:57Z</time>
      </trkpt>
      <trkpt lat="41.7077730" lon="-0.9406750">
        <ele>65.2</ele>
        <time>2019-01-01T08:52:05Z</time>
      </trkpt>
      <trkpt lat="41.7081160" lon="-0.9410960">
        <ele>65.8</ele>
        <time>2019-01-01T08:52:14Z</time>
      </trkpt>
      <trkpt lat="41.7081920" lon="-0.9411880">
        <ele>66.0</ele>
        <time>2019-01-01T08:52:16Z</time>
      </trkpt>
      <trkpt lat="41.7084550" lon="-0.9415140">
        <ele>65.6</ele>
        <time>2019-01-01T08:52:23Z</time>
      </trkpt>
      <trkpt lat="41.7084920" lon="-0.9415610">
        <ele>65.4</ele>
        <time>2019-01-01T08:52:24Z</time>
      </trkpt>
      <trkpt lat="41.7086710" lon="-0.9417730">
        <ele>65.6</ele>
        <time>2019-01-01T08:52:29Z</time>
      </trkpt>
      <trkpt lat="41.7087350" lon="-0.9418570">
        <ele>65.2</ele>
        <time>2019-01-01T08:52:31Z</time>
      </trkpt>
      <trkpt lat="41.7088400" lon="-0.9419790">
        <ele>65.6</ele>
        <time>2019-01-01T08:52:34Z</time>
      </trkpt>
      <trkpt lat="41.7091230" lon="-0.9423240">
        <ele>66.0</ele>
        <time>2019-01-01T08:52:42Z</time>
      </trkpt>
      <trkpt lat="41.7094000" lon="-0.9426670">
        <ele>66.0</ele>
        <time>2019-01-01T08:52:50Z</time>
      </trkpt>
      <trkpt lat="41.7095000" lon="-0.9427970">
        <ele>66.0</ele>
        <time>2019-01-01T08:52:53Z</time>
      </trkpt>
      <trkpt lat="41.7096470" lon="-0.9429640">
        <ele>66.4</ele>
        <time>2019-01-01T08:52:57Z</time>
      </trkpt>
      <trkpt lat="41.7099560" lon="-0.9433410">
        <ele>66.8</ele>
        <time>2019-01-01T08:53:06Z</time>
      </trkpt>
      <trkpt lat="41.7099900" lon="-0.9433830">
        <ele>66.8</ele>
        <time>2019-01-01T08:53:07Z</time>
      </trkpt>
      <trkpt lat="41.7102010" lon="-0.9436290">
        <ele>66.4</ele>
        <time>2019-01-01T08:53:13Z</time>
      </trkpt>
      <trkpt lat="41.7103610" lon="-0.9438340">
        <ele>66.8</ele>
        <time>2019-01-01T08:53:18Z</time>
      </trkpt>
      <trkpt lat="41.7104470" lon="-0.9439770">
        <ele>67.0</ele>
        <time>2019-01-01T08:53:21Z</time>
      </trkpt>
      <trkpt lat="41.7106150" lon="-0.9443170">
        <ele>66.8</ele>
        <time>2019-01-01T08:53:27Z</time>
      </trkpt>
      <trkpt lat="41.7107970" lon="-0.9447120">
        <ele>67.0</ele>
        <time>2019-01-01T08:53:34Z</time>
      </trkpt>
      <trkpt lat="41.7110100" lon="-0.9451710">
        <ele>66.6</ele>
        <time>2019-01-01T08:53:42Z</time>
      </trkpt>
      <trkpt lat="41.7111150" lon="-0.9453950">
        <ele>66.8</ele>
        <time>2019-01-01T08:53:46Z</time>
      </trkpt>
      <trkpt lat="41.7112460" lon="-0.9456780">
        <ele>66.8</ele>
        <time>2019-01-01T08:53:51Z</time>
      </trkpt>
      <trkpt lat="41.7115430" lon="-0.9463190">
        <ele>66.6</ele>
        <time>2019-01-01T08:54:02Z</time>
      </trkpt>
      <trkpt lat="41.7115700" lon="-0.9463770">
        <ele>66.6</ele>
        <time>2019-01-01T08:54:03Z</time>
      </trkpt>
      <trkpt lat="41.7118130" lon="-0.9468900">
        <ele>66.8</ele>
        <time>2019-01-01T08:54:12Z</time>
      </trkpt>
      <trkpt lat="41.7120310" lon="-0.9473390">
        <ele>66.8</ele>
        <time>2019-01-01T08:54:20Z</time>
      </trkpt>
      <trkpt lat="41.7123030" lon="-0.9479070">
        <ele>66.4</ele>
        <time>2019-01-01T08:54:30Z</time>
      </trkpt>
      <trkpt lat="41.7124590" lon="-0.9482440">
        <ele>66.6</ele>
        <time>2019-01-01T08:54:36Z</time>
      </trkpt>
      <trkpt lat="41.7125110" lon="-0.9483600">
        <ele>66.6</ele>
        <time>2019-01-01T08:54:38Z</time>
      </trkpt>
      <trkpt lat="41.7127680" lon="-0.9489420">
        <ele>67.0</ele>
        <time>2019-01-01T08:54:48Z</time>
      </trkpt>
      <trkpt lat="41.7130530" lon="-0.9495830">
        <ele>67.0</ele>
        <time>2019-01-01T08:54:59Z</time>
      </trkpt>
      <trkpt lat="41.7130780" lon="-0.9496410">
        <ele>66.8</ele>
        <time>2019-01-01T08:55:00Z</time>
      </trkpt>
      <trkpt lat="41.7133650" lon="-0.9502850">
        <ele>66.8</ele>
        <time>2019-01-01T08:55:11Z</time>
      </trkpt>
      <trkpt lat="41.7135760" lon="-0.9507620">
        <ele>66.8</ele>
        <time>2019-01-01T08:55:19Z</time>
      </trkpt>
      <trkpt lat="41.7136310" lon="-0.9508790">
        <ele>67.0</ele>
        <time>2019-01-01T08:55:21Z</time>
      </trkpt>
      <trkpt lat="41.7139470" lon="-0.9515070">
        <ele>67.0</ele>
        <time>2019-01-01T08:55:32Z</time>
      </trkpt>
      <trkpt lat="41.7141960" lon="-0.9520800">
        <ele>66.8</ele>
        <time>2019-01-01T08:55:42Z</time>
      </trkpt>
      <trkpt lat="41.7144770" lon="-0.9526490">
        <ele>67.0</ele>
        <time>2019-01-01T08:55:52Z</time>
      </trkpt>
      <trkpt lat="41.7147000" lon="-0.9531020">
        <ele>66.8</ele>
        <time>2019-01-01T08:56:00Z</time>
      </trkpt>
      <trkpt lat="41.7147310" lon="-0.9531550">
        <ele>66.8</ele>
        <time>2019-01-01T08:56:01Z</time>
      </trkpt>
      <trkpt lat="41.7147600" lon="-0.9532100">
        <ele>67.0</ele>
        <time>2019-01-01T08:56:02Z</time>
      </trkpt>
      <trkpt lat="41.7149210" lon="-0.9535310">
        <ele>66.8</ele>
        <time>2019-01-01T08:56:08Z</time>
      </trkpt>
      <trkpt lat="41.7150860" lon="-0.9538220">
        <ele>67.0</ele>
        <time>2019-01-01T08:56:15Z</time>
      </trkpt>
      <trkpt lat="41.7152490" lon="-0.9537890">
        <ele>67.2</ele>
        <time>2019-01-01T08:56:19Z</time>
      </trkpt>
      <trkpt lat="41.7156230" lon="-0.9537030">
        <ele>67.2</ele>
        <time>2019-01-01T08:56:26Z</time>
      </trkpt>
      <trkpt lat="41.7156790" lon="-0.9536900">
        <ele>67.2</ele>
        <time>2019-01-01T08:56:27Z</time>
      </trkpt>
      <trkpt lat="41.7162440" lon="-0.9535830">
        <ele>67.8</ele>
        <time>2019-01-01T08:56:37Z</time>
      </trkpt>
      <trkpt lat="41.7163010" lon="-0.9535710">
        <ele>67.8</ele>
        <time>2019-01-01T08:56:38Z</time>
      </trkpt>
      <trkpt lat="41.7167360" lon="-0.9534960">
        <ele>67.4</ele>
        <time>2019-01-01T08:56:46Z</time>
      </trkpt>
      <trkpt lat="41.7172300" lon="-0.9534000">
        <ele>67.4</ele>
        <time>2019-01-01T08:56:55Z</time>
      </trkpt>
      <trkpt lat="41.7173960" lon="-0.9533870">
        <ele>67.6</ele>
        <time>2019-01-01T08:56:58Z</time>
      </trkpt>
      <trkpt lat="41.7176750" lon="-0.9533630">
        <ele>67.6</ele>
        <time>2019-01-01T08:57:03Z</time>
      </trkpt>
      <trkpt lat="41.7181340" lon="-0.9533140">
        <ele>67.4</ele>
        <time>2019-01-01T08:57:11Z</time>
      </trkpt>
      <trkpt lat="41.7186580" lon="-0.9532490">
        <ele>67.2</ele>
        <time>2019-01-01T08:57:20Z</time>
      </trkpt>
      <trkpt lat="41.7191540" lon="-0.9531120">
        <ele>67.4</ele>
        <time>2019-01-01T08:57:29Z</time>
      </trkpt>
      <trkpt lat="41.7196820" lon="-0.9530180">
        <ele>67.0</ele>
        <time>2019-01-01T08:57:39Z</time>
      </trkpt>
      <trkpt lat="41.7198990" lon="-0.9530360">
        <ele>67.0</ele>
        <time>2019-01-01T08:57:43Z</time>
      </trkpt>
      <trkpt lat="41.7200030" lon="-0.9530700">
        <ele>67.2</ele>
        <time>2019-01-01T08:57:45Z</time>
      </trkpt>
      <trkpt lat="41.7204190" lon="-0.9532090">
        <ele>66.8</ele>
        <time>2019-01-01T08:57:53Z</time>
      </trkpt>
      <trkpt lat="41.7206350" lon="-0.9532020">
        <ele>66.8</ele>
        <time>2019-01-01T08:57:57Z</time>
      </trkpt>
      <trkpt lat="41.7207320" lon="-0.9531450">
        <ele>67.0</ele>
        <time>2019-01-01T08:57:59Z</time>
      </trkpt>
      <trkpt lat="41.7209160" lon="-0.9529700">
        <ele>67.2</ele>
        <time>2019-01-01T08:58:03Z</time>
      </trkpt>
      <trkpt lat="41.7209670" lon="-0.9529350">
        <ele>67.2</ele>
        <time>2019-01-01T08:58:04Z</time>
      </trkpt>
      <trkpt lat="41.7213740" lon="-0.9526810">
        <ele>67.0</ele>
        <time>2019-01-01T08:58:12Z</time>
      </trkpt>
      <trkpt lat="41.7215020" lon="-0.9525550">
        <ele>67.0</ele>
        <time>2019-01-01T08:58:15Z</time>
      </trkpt>
      <trkpt lat="41.7215590" lon="-0.9524350">
        <ele>67.0</ele>
        <time>2019-01-01T08:58:17Z</time>
      </trkpt>
      <trkpt lat="41.7216000" lon="-0.9523060">
        <ele>67.0</ele>
        <time>2019-01-01T08:58:19Z</time>
      </trkpt>
      <trkpt lat="41.7217190" lon="-0.9519080">
        <ele>67.2</ele>
        <time>2019-01-01T08:58:25Z</time>
      </trkpt>
      <trkpt lat="41.7218870" lon="-0.9514070">
        <ele>67.6</ele>
        <time>2019-01-01T08:58:33Z</time>
      </trkpt>
      <trkpt lat="41.7219750" lon="-0.9511580">
        <ele>67.8</ele>
        <time>2019-01-01T08:58:37Z</time>
      </trkpt>
      <trkpt lat="41.7221320" lon="-0.9508110">
        <ele>68.2</ele>
        <time>2019-01-01T08:58:43Z</time>
      </trkpt>
      <trkpt lat="41.7221670" lon="-0.9507610">
        <ele>68.2</ele>
        <time>2019-01-01T08:58:44Z</time>
      </trkpt>
      <trkpt lat="41.7223810" lon="-0.9505850">
        <ele>67.8</ele>
        <time>2019-01-01T08:58:49Z</time>
      </trkpt>
      <trkpt lat="41.7226380" lon="-0.9505460">
        <ele>67.2</ele>
        <time>2019-01-01T08:58:54Z</time>
      </trkpt>
      <trkpt lat="41.7227890" lon="-0.9505880">
        <ele>67.2</ele>
        <time>2019-01-01T08:58:57Z</time>
      </trkpt>
      <trkpt lat="41.7229320" lon="-0.9506370">
        <ele>67.6</ele>
        <time>2019-01-01T08:59:00Z</time>
      </trkpt>
      <trkpt lat="41.7230650" lon="-0.9506620">
        <ele>68.4</ele>
        <time>2019-01-01T08:59:03Z</time>
      </trkpt>
      <trkpt lat="41.7232520" lon="-0.9506800">
        <ele>68.6</ele>
        <time>2019-01-01T08:59:07Z</time>
      </trkpt>
      <trkpt lat="41.7234820" lon="-0.9506760">
        <ele>68.6</ele>
        <time>2019-01-01T08:59:12Z</time>
      </trkpt>
      <trkpt lat="41.7235480" lon="-0.9506650">
        <ele>69.0</ele>
        <time>2019-01-01T08:59:14Z</time>
      </trkpt>
      <trkpt lat="41.7236630" lon="-0.9506370">
        <ele>70.2</ele>
        <time>2019-01-01T08:59:18Z</time>
      </trkpt>
      <trkpt lat="41.7237110" lon="-0.9506180">
        <ele>71.2</ele>
        <time>2019-01-01T08:59:20Z</time>
      </trkpt>
      <trkpt lat="41.7237390" lon="-0.9506070">
        <ele>71.6</ele>
        <time>2019-01-01T08:59:21Z</time>
      </trkpt>
      <trkpt lat="41.7238180" lon="-0.9505750">
        <ele>72.8</ele>
        <time>2019-01-01T08:59:24Z</time>
      </trkpt>
      <trkpt lat="41.7239030" lon="-0.9505510">
        <ele>73.6</ele>
        <time>2019-01-01T08:59:27Z</time>
      </trkpt>
      <trkpt lat="41.7239310" lon="-0.9505450">
        <ele>73.8</ele>
        <time>2019-01-01T08:59:28Z</time>
      </trkpt>
      <trkpt lat="41.7240450" lon="-0.9505510">
        <ele>74.8</ele>
        <time>2019-01-01T08:59:32Z</time>
      </trkpt>
      <trkpt lat="41.7241020" lon="-0.9505860">
        <ele>75.0</ele>
        <time>2019-01-01T08:59:34Z</time>
      </trkpt>
      <trkpt lat="41.7241940" lon="-0.9507030">
        <ele>75.8</ele>
        <time>2019-01-01T08:59:38Z</time>
      </trkpt>
      <trkpt lat="41.7242380" lon="-0.9507720">
        <ele>76.0</ele>
        <time>2019-01-01T08:59:40Z</time>
      </trkpt>
      <trkpt lat="41.7244150" lon="-0.9510400">
        <ele>76.6</ele>
        <time>2019-01-01T08:59:48Z</time>
      </trkpt>
      <trkpt lat="41.7244630" lon="-0.9510980">
        <ele>76.8</ele>
        <time>2019-01-01T08:59:50Z</time>
      </trkpt>
      <trkpt lat="41.7245210" lon="-0.9511980">
        <ele>77.8</ele>
        <time>2019-01-01T08:59:53Z</time>
      </trkpt>
      <trkpt lat="41.7245400" lon="-0.9512300">
        <ele>77.8</ele>
        <time>2019-01-01T08:59:54Z</time>
      </trkpt>
      <trkpt lat="41.7246210" lon="-0.9513600">
        <ele>79.0</ele>
        <time>2019-01-01T08:59:58Z</time>
      </trkpt>
      <trkpt lat="41.7246470" lon="-0.9513860">
        <ele>79.2</ele>
        <time>2019-01-01T08:59:59Z</time>
      </trkpt>
      <trkpt lat="41.7247450" lon="-0.9515140">
        <ele>80.0</ele>
        <time>2019-01-01T09:00:03Z</time>
      </trkpt>
      <trkpt lat="41.7247920" lon="-0.9515800">
        <ele>80.8</ele>
        <time>2019-01-01T09:00:05Z</time>
      </trkpt>
      <trkpt lat="41.7248180" lon="-0.9516080">
        <ele>81.2</ele>
        <time>2019-01-01T09:00:06Z</time>
      </trkpt>
      <trkpt lat="41.7248970" lon="-0.9516860">
        <ele>82.4</ele>
        <time>2019-01-01T09:00:09Z</time>
      </trkpt>
      <trkpt lat="41.7249520" lon="-0.9517350">
        <ele>83.4</ele>
        <time>2019-01-01T09:00:11Z</time>
      </trkpt>
      <trkpt lat="41.7250890" lon="-0.9518570">
        <ele>84.2</ele>
        <time>2019-01-01T09:00:16Z</time>
      </trkpt>
      <trkpt lat="41.7251910" lon="-0.9519620">
        <ele>84.8</ele>
        <time>2019-01-01T09:00:20Z</time>
      </trkpt>
      <trkpt lat="41.7253230" lon="-0.9520860">
        <ele>85.4</ele>
        <time>2019-01-01T09:00:25Z</time>
      </trkpt>
      <trkpt lat="41.7254700" lon="-0.9522370">
        <ele>86.0</ele>
        <time>2019-01-01T09:00:31Z</time>
      </trkpt>
      <trkpt lat="41.7254930" lon="-0.9522810">
        <ele>86.2</ele>
        <time>2019-01-01T09:00:33Z</time>
      </trkpt>
      <trkpt lat="41.7255310" lon="-0.9523280">
        <ele>86.6</ele>
        <time>2019-01-01T09:00:36Z</time>
      </trkpt>
      <trkpt lat="41.7255490" lon="-0.9523560">
        <ele>86.8</ele>
        <time>2019-01-01T09:00:38Z</time>
      </trkpt>
      <trkpt lat="41.7255750" lon="-0.9524160">
        <ele>87.0</ele>
        <time>2019-01-01T09:00:41Z</time>
      </trkpt>
      <trkpt lat="41.7255840" lon="-0.9524340">
        <ele>87.4</ele>
        <time>2019-01-01T09:00:42Z</time>
      </trkpt>
      <trkpt lat="41.7256410" lon="-0.9525660">
        <ele>88.2</ele>
        <time>2019-01-01T09:00:49Z</time>
      </trkpt>
      <trkpt lat="41.7256550" lon="-0.9526070">
        <ele>88.6</ele>
        <time>2019-01-01T09:00:51Z</time>
      </trkpt>
      <trkpt lat="41.7256890" lon="-0.9526710">
        <ele>89.0</ele>
        <time>2019-01-01T09:00:54Z</time>
      </trkpt>
      <trkpt lat="41.7257060" lon="-0.9526920">
        <ele>89.2</ele>
        <time>2019-01-01T09:00:55Z</time>
      </trkpt>
      <trkpt lat="41.7257560" lon="-0.9527640">
        <ele>89.8</ele>
        <time>2019-01-01T09:00:59Z</time>
      </trkpt>
      <trkpt lat="41.7258150" lon="-0.9528460">
        <ele>90.2</ele>
        <time>2019-01-01T09:01:03Z</time>
      </trkpt>
      <trkpt lat="41.7258340" lon="-0.9528760">
        <ele>90.2</ele>
        <time>2019-01-01T09:01:04Z</time>
      </trkpt>
      <trkpt lat="41.7260180" lon="-0.9531670">
        <ele>90.6</ele>
        <time>2019-01-01T09:01:13Z</time>
      </trkpt>
      <trkpt lat="41.7261340" lon="-0.9532830">
        <ele>91.0</ele>
        <time>2019-01-01T09:01:18Z</time>
      </trkpt>
      <trkpt lat="41.7261580" lon="-0.9533030">
        <ele>91.0</ele>
        <time>2019-01-01T09:01:19Z</time>
      </trkpt>
      <trkpt lat="41.7262940" lon="-0.9534220">
        <ele>91.4</ele>
        <time>2019-01-01T09:01:23Z</time>
      </trkpt>
      <trkpt lat="41.7263940" lon="-0.9534230">
        <ele>92.0</ele>
        <time>2019-01-01T09:01:26Z</time>
      </trkpt>
      <trkpt lat="41.7264400" lon="-0.9534190">
        <ele>93.4</ele>
        <time>2019-01-01T09:01:28Z</time>
      </trkpt>
      <trkpt lat="41.7265220" lon="-0.9534170">
        <ele>94.4</ele>
        <time>2019-01-01T09:01:31Z</time>
      </trkpt>
      <trkpt lat="41.7265490" lon="-0.9534140">
        <ele>94.4</ele>
        <time>2019-01-01T09:01:32Z</time>
      </trkpt>
      <trkpt lat="41.7265990" lon="-0.9533910">
        <ele>94.4</ele>
        <time>2019-01-01T09:01:34Z</time>
      </trkpt>
      <trkpt lat="41.7266580" lon="-0.9533090">
        <ele>94.4</ele>
        <time>2019-01-01T09:01:37Z</time>
      </trkpt>
      <trkpt lat="41.7266900" lon="-0.9531990">
        <ele>94.4</ele>
        <time>2019-01-01T09:01:40Z</time>
      </trkpt>
      <trkpt lat="41.7267160" lon="-0.9531090">
        <ele>94.6</ele>
        <time>2019-01-01T09:01:42Z</time>
      </trkpt>
      <trkpt lat="41.7267670" lon="-0.9530460">
        <ele>94.4</ele>
        <time>2019-01-01T09:01:44Z</time>
      </trkpt>
      <trkpt lat="41.7267990" lon="-0.9530350">
        <ele>94.6</ele>
        <time>2019-01-01T09:01:45Z</time>
      </trkpt>
      <trkpt lat="41.7268760" lon="-0.9530750">
        <ele>94.4</ele>
        <time>2019-01-01T09:01:47Z</time>
      </trkpt>
      <trkpt lat="41.7268990" lon="-0.9531070">
        <ele>94.4</ele>
        <time>2019-01-01T09:01:48Z</time>
      </trkpt>
      <trkpt lat="41.7269570" lon="-0.9531820">
        <ele>94.4</ele>
        <time>2019-01-01T09:01:51Z</time>
      </trkpt>
      <trkpt lat="41.7270100" lon="-0.9532550">
        <ele>95.0</ele>
        <time>2019-01-01T09:01:54Z</time>
      </trkpt>
      <trkpt lat="41.7270640" lon="-0.9532990">
        <ele>95.4</ele>
        <time>2019-01-01T09:01:56Z</time>
      </trkpt>
      <trkpt lat="41.7272630" lon="-0.9533080">
        <ele>95.8</ele>
        <time>2019-01-01T09:02:02Z</time>
      </trkpt>
      <trkpt lat="41.7273030" lon="-0.9532970">
        <ele>95.8</ele>
        <time>2019-01-01T09:02:03Z</time>
      </trkpt>
      <trkpt lat="41.7273730" lon="-0.9533110">
        <ele>95.8</ele>
        <time>2019-01-01T09:02:05Z</time>
      </trkpt>
      <trkpt lat="41.7274290" lon="-0.9533330">
        <ele>95.8</ele>
        <time>2019-01-01T09:02:07Z</time>
      </trkpt>
      <trkpt lat="41.7274590" lon="-0.9533440">
        <ele>95.8</ele>
        <time>2019-01-01T09:02:08Z</time>
      </trkpt>
      <trkpt lat="41.7275160" lon="-0.9533860">
        <ele>96.4</ele>
        <time>2019-01-01T09:02:10Z</time>
      </trkpt>
      <trkpt lat="41.7276830" lon="-0.9535430">
        <ele>96.8</ele>
        <time>2019-01-01T09:02:16Z</time>
      </trkpt>
      <trkpt lat="41.7277140" lon="-0.9535600">
        <ele>97.0</ele>
        <time>2019-01-01T09:02:17Z</time>
      </trkpt>
      <trkpt lat="41.7279570" lon="-0.9536340">
        <ele>97.0</ele>
        <time>2019-01-01T09:02:24Z</time>
      </trkpt>
      <trkpt lat="41.7281420" lon="-0.9536910">
        <ele>97.8</ele>
        <time>2019-01-01T09:02:29Z</time>
      </trkpt>
      <trkpt lat="41.7281820" lon="-0.9536950">
        <ele>97.8</ele>
        <time>2019-01-01T09:02:30Z</time>
      </trkpt>
      <trkpt lat="41.7282580" lon="-0.9537250">
        <ele>98.0</ele>
        <time>2019-01-01T09:02:32Z</time>
      </trkpt>
      <trkpt lat="41.7283200" lon="-0.9537840">
        <ele>98.2</ele>
        <time>2019-01-01T09:02:34Z</time>
      </trkpt>
      <trkpt lat="41.7283970" lon="-0.9538970">
        <ele>98.6</ele>
        <time>2019-01-01T09:02:38Z</time>
      </trkpt>
      <trkpt lat="41.7284140" lon="-0.9539340">
        <ele>99.0</ele>
        <time>2019-01-01T09:02:39Z</time>
      </trkpt>
      <trkpt lat="41.7284650" lon="-0.9541370">
        <ele>99.6</ele>
        <time>2019-01-01T09:02:44Z</time>
      </trkpt>
      <trkpt lat="41.7284820" lon="-0.9541700">
        <ele>99.8</ele>
        <time>2019-01-01T09:02:45Z</time>
      </trkpt>
      <trkpt lat="41.7286100" lon="-0.9542550">
        <ele>100.2</ele>
        <time>2019-01-01T09:02:50Z</time>
      </trkpt>
      <trkpt lat="41.7286700" lon="-0.9542610">
        <ele>100.6</ele>
        <time>2019-01-01T09:02:52Z</time>
      </trkpt>
      <trkpt lat="41.7288380" lon="-0.9542730">
        <ele>100.8</ele>
        <time>2019-01-01T09:02:57Z</time>
      </trkpt>
      <trkpt lat="41.7290070" lon="-0.9541820">
        <ele>100.8</ele>
        <time>2019-01-01T09:03:02Z</time>
      </trkpt>
      <trkpt lat="41.7292300" lon="-0.9541060">
        <ele>100.8</ele>
        <time>2019-01-01T09:03:08Z</time>
      </trkpt>
      <trkpt lat="41.7294490" lon="-0.9540020">
        <ele>100.2</ele>
        <time>2019-01-01T09:03:14Z</time>
      </trkpt>
      <trkpt lat="41.7295600" lon="-0.9539830">
        <ele>99.8</ele>
        <time>2019-01-01T09:03:17Z</time>
      </trkpt>
      <trkpt lat="41.7296760" lon="-0.9540660">
        <ele>99.4</ele>
        <time>2019-01-01T09:03:21Z</time>
      </trkpt>
      <trkpt lat="41.7298000" lon="-0.9542350">
        <ele>100.4</ele>
        <time>2019-01-01T09:03:26Z</time>
      </trkpt>
      <trkpt lat="41.7299370" lon="-0.9542760">
        <ele>101.0</ele>
        <time>2019-01-01T09:03:30Z</time>
      </trkpt>
      <trkpt lat="41.7299780" lon="-0.9542680">
        <ele>101.0</ele>
        <time>2019-01-01T09:03:31Z</time>
      </trkpt>
      <trkpt lat="41.7301430" lon="-0.9542750">
        <ele>100.8</ele>
        <time>2019-01-01T09:03:35Z</time>
      </trkpt>
      <trkpt lat="41.7303760" lon="-0.9543780">
        <ele>101.0</ele>
        <time>2019-01-01T09:03:41Z</time>
      </trkpt>
      <trkpt lat="41.7306370" lon="-0.9545630">
        <ele>101.4</ele>
        <time>2019-01-01T09:03:48Z</time>
      </trkpt>
      <trkpt lat="41.7306740" lon="-0.9545890">
        <ele>101.6</ele>
        <time>2019-01-01T09:03:49Z</time>
      </trkpt>
      <trkpt lat="41.7307100" lon="-0.9546160">
        <ele>101.6</ele>
        <time>2019-01-01T09:03:50Z</time>
      </trkpt>
      <trkpt lat="41.7309540" lon="-0.9548290">
        <ele>102.2</ele>
        <time>2019-01-01T09:03:57Z</time>
      </trkpt>
      <trkpt lat="41.7310550" lon="-0.9549230">
        <ele>102.6</ele>
        <time>2019-01-01T09:04:00Z</time>
      </trkpt>
      <trkpt lat="41.7311730" lon="-0.9550760">
        <ele>103.0</ele>
        <time>2019-01-01T09:04:04Z</time>
      </trkpt>
      <trkpt lat="41.7311970" lon="-0.9551200">
        <ele>103.2</ele>
        <time>2019-01-01T09:04:05Z</time>
      </trkpt>
      <trkpt lat="41.7312440" lon="-0.9551960">
        <ele>103.4</ele>
        <time>2019-01-01T09:04:07Z</time>
      </trkpt>
      <trkpt lat="41.7312700" lon="-0.9552260">
        <ele>103.4</ele>
        <time>2019-01-01T09:04:08Z</time>
      </trkpt>
      <trkpt lat="41.7314230" lon="-0.9553660">
        <ele>104.6</ele>
        <time>2019-01-01T09:04:13Z</time>
      </trkpt>
      <trkpt lat="41.7314490" lon="-0.9554040">
        <ele>104.6</ele>
        <time>2019-01-01T09:04:14Z</time>
      </trkpt>
      <trkpt lat="41.7315400" lon="-0.9555510">
        <ele>104.8</ele>
        <time>2019-01-01T09:04:18Z</time>
      </trkpt>
      <trkpt lat="41.7316020" lon="-0.9556950">
        <ele>104.0</ele>
        <time>2019-01-01T09:04:22Z</time>
      </trkpt>
      <trkpt lat="41.7316980" lon="-0.9557980">
        <ele>103.2</ele>
        <time>2019-01-01T09:04:26Z</time>
      </trkpt>
      <trkpt lat="41.7317260" lon="-0.9558160">
        <ele>103.2</ele>
        <time>2019-01-01T09:04:27Z</time>
      </trkpt>
      <trkpt lat="41.7319670" lon="-0.9559390">
        <ele>103.2</ele>
        <time>2019-01-01T09:04:34Z</time>
      </trkpt>
      <trkpt lat="41.7320560" lon="-0.9559910">
        <ele>103.4</ele>
        <time>2019-01-01T09:04:36Z</time>
      </trkpt>
      <trkpt lat="41.7321890" lon="-0.9560750">
        <ele>104.0</ele>
        <time>2019-01-01T09:04:39Z</time>
      </trkpt>
      <trkpt lat="41.7322580" lon="-0.9561170">
        <ele>105.2</ele>
        <time>2019-01-01T09:04:41Z</time>
      </trkpt>
      <trkpt lat="41.7323130" lon="-0.9561550">
        <ele>106.4</ele>
        <time>2019-01-01T09:04:43Z</time>
      </trkpt>
      <trkpt lat="41.7323370" lon="-0.9561750">
        <ele>106.6</ele>
        <time>2019-01-01T09:04:44Z</time>
      </trkpt>
      <trkpt lat="41.7324060" lon="-0.9562470">
        <ele>107.2</ele>
        <time>2019-01-01T09:04:47Z</time>
      </trkpt>
      <trkpt lat="41.7324970" lon="-0.9563490">
        <ele>108.2</ele>
        <time>2019-01-01T09:04:51Z</time>
      </trkpt>
      <trkpt lat="41.7325230" lon="-0.9563710">
        <ele>108.4</ele>
        <time>2019-01-01T09:04:52Z</time>
      </trkpt>
      <trkpt lat="41.7326780" lon="-0.9564620">
        <ele>109.4</ele>
        <time>2019-01-01T09:04:58Z</time>
      </trkpt>
      <trkpt lat="41.7329010" lon="-0.9564890">
        <ele>110.4</ele>
        <time>2019-01-01T09:05:05Z</time>
      </trkpt>
      <trkpt lat="41.7331150" lon="-0.9565540">
        <ele>111.2</ele>
        <time>2019-01-01T09:05:12Z</time>
      </trkpt>
      <trkpt lat="41.7331620" lon="-0.9565820">
        <ele>111.4</ele>
        <time>2019-01-01T09:05:14Z</time>
      </trkpt>
      <trkpt lat="41.7332710" lon="-0.9566450">
        <ele>112.0</ele>
        <time>2019-01-01T09:05:19Z</time>
      </trkpt>
      <trkpt lat="41.7333550" lon="-0.9566930">
        <ele>112.4</ele>
        <time>2019-01-01T09:05:23Z</time>
      </trkpt>
      <trkpt lat="41.7334310" lon="-0.9567350">
        <ele>112.8</ele>
        <time>2019-01-01T09:05:26Z</time>
      </trkpt>
      <trkpt lat="41.7336660" lon="-0.9568790">
        <ele>112.6</ele>
        <time>2019-01-01T09:05:34Z</time>
      </trkpt>
      <trkpt lat="41.7338440" lon="-0.9569540">
        <ele>112.4</ele>
        <time>2019-01-01T09:05:39Z</time>
      </trkpt>
      <trkpt lat="41.7341460" lon="-0.9569720">
        <ele>112.6</ele>
        <time>2019-01-01T09:05:47Z</time>
      </trkpt>
      <trkpt lat="41.7345070" lon="-0.9569940">
        <ele>112.8</ele>
        <time>2019-01-01T09:05:56Z</time>
      </trkpt>
      <trkpt lat="41.7345480" lon="-0.9569910">
        <ele>112.8</ele>
        <time>2019-01-01T09:05:57Z</time>
      </trkpt>
      <trkpt lat="41.7347720" lon="-0.9569080">
        <ele>112.8</ele>
        <time>2019-01-01T09:06:03Z</time>
      </trkpt>
      <trkpt lat="41.7350810" lon="-0.9567710">
        <ele>112.6</ele>
        <time>2019-01-01T09:06:11Z</time>
      </trkpt>
      <trkpt lat="41.7353660" lon="-0.9567960">
        <ele>112.8</ele>
        <time>2019-01-01T09:06:18Z</time>
      </trkpt>
      <trkpt lat="41.7356710" lon="-0.9568740">
        <ele>112.8</ele>
        <time>2019-01-01T09:06:26Z</time>
      </trkpt>
      <trkpt lat="41.7359660" lon="-0.9569620">
        <ele>113.4</ele>
        <time>2019-01-01T09:06:34Z</time>
      </trkpt>
      <trkpt lat="41.7362410" lon="-0.9570080">
        <ele>113.6</ele>
        <time>2019-01-01T09:06:41Z</time>
      </trkpt>
      <trkpt lat="41.7364680" lon="-0.9570290">
        <ele>114.2</ele>
        <time>2019-01-01T09:06:47Z</time>
      </trkpt>
      <trkpt lat="41.7365810" lon="-0.9570520">
        <ele>114.6</ele>
        <time>2019-01-01T09:06:50Z</time>
      </trkpt>
      <trkpt lat="41.7368920" lon="-0.9570920">
        <ele>115.2</ele>
        <time>2019-01-01T09:06:59Z</time>
      </trkpt>
      <trkpt lat="41.7370860" lon="-0.9570690">
        <ele>114.8</ele>
        <time>2019-01-01T09:07:05Z</time>
      </trkpt>
      <trkpt lat="41.7372030" lon="-0.9570110">
        <ele>114.6</ele>
        <time>2019-01-01T09:07:09Z</time>
      </trkpt>
      <trkpt lat="41.7373230" lon="-0.9569710">
        <ele>114.8</ele>
        <time>2019-01-01T09:07:13Z</time>
      </trkpt>
      <trkpt lat="41.7374540" lon="-0.9569210">
        <ele>114.6</ele>
        <time>2019-01-01T09:07:17Z</time>
      </trkpt>
      <trkpt lat="41.7377310" lon="-0.9568960">
        <ele>114.6</ele>
        <time>2019-01-01T09:07:25Z</time>
      </trkpt>
      <trkpt lat="41.7379210" lon="-0.9568710">
        <ele>115.0</ele>
        <time>2019-01-01T09:07:31Z</time>
      </trkpt>
      <trkpt lat="41.7381100" lon="-0.9568540">
        <ele>115.6</ele>
        <time>2019-01-01T09:07:37Z</time>
      </trkpt>
      <trkpt lat="41.7383000" lon="-0.9569760">
        <ele>115.4</ele>
        <time>2019-01-01T09:07:43Z</time>
      </trkpt>
      <trkpt lat="41.7385300" lon="-0.9570290">
        <ele>116.2</ele>
        <time>2019-01-01T09:07:50Z</time>
      </trkpt>
      <trkpt lat="41.7385680" lon="-0.9570320">
        <ele>116.2</ele>
        <time>2019-01-01T09:07:51Z</time>
      </trkpt>
      <trkpt lat="41.7387360" lon="-0.9570860">
        <ele>117.4</ele>
        <time>2019-01-01T09:07:56Z</time>
      </trkpt>
      <trkpt lat="41.7387630" lon="-0.9570960">
        <ele>117.8</ele>
        <time>2019-01-01T09:07:57Z</time>
      </trkpt>
      <trkpt lat="41.7388850" lon="-0.9571310">
        <ele>118.4</ele>
        <time>2019-01-01T09:08:01Z</time>
      </trkpt>
      <trkpt lat="41.7389920" lon="-0.9571590">
        <ele>118.8</ele>
        <time>2019-01-01T09:08:04Z</time>
      </trkpt>
      <trkpt lat="41.7391920" lon="-0.9572640">
        <ele>118.4</ele>
        <time>2019-01-01T09:08:10Z</time>
      </trkpt>
      <trkpt lat="41.7393910" lon="-0.9574290">
        <ele>118.8</ele>
        <time>2019-01-01T09:08:16Z</time>
      </trkpt>
      <trkpt lat="41.7395310" lon="-0.9575260">
        <ele>118.8</ele>
        <time>2019-01-01T09:08:20Z</time>
      </trkpt>
      <trkpt lat="41.7395810" lon="-0.9576100">
        <ele>118.8</ele>
        <time>2019-01-01T09:08:22Z</time>
      </trkpt>
      <trkpt lat="41.7397000" lon="-0.9578590">
        <ele>119.0</ele>
        <time>2019-01-01T09:08:28Z</time>
      </trkpt>
      <trkpt lat="41.7397330" lon="-0.9579240">
        <ele>119.2</ele>
        <time>2019-01-01T09:08:31Z</time>
      </trkpt>
      <trkpt lat="41.7397180" lon="-0.9578730">
        <ele>119.0</ele>
        <time>2019-01-01T09:08:34Z</time>
      </trkpt>
      <trkpt lat="41.7396330" lon="-0.9578550">
        <ele>119.2</ele>
        <time>2019-01-01T09:08:37Z</time>
      </trkpt>
      <trkpt lat="41.7396240" lon="-0.9579860">
        <ele>119.0</ele>
        <time>2019-01-01T09:08:40Z</time>
      </trkpt>
      <trkpt lat="41.7396330" lon="-0.9580420">
        <ele>118.8</ele>
        <time>2019-01-01T09:08:41Z</time>
      </trkpt>
      <trkpt lat="41.7396450" lon="-0.9581040">
        <ele>118.6</ele>
        <time>2019-01-01T09:08:42Z</time>
      </trkpt>
      <trkpt lat="41.7396940" lon="-0.9583130">
        <ele>119.0</ele>
        <time>2019-01-01T09:08:45Z</time>
      </trkpt>
      <trkpt lat="41.7398790" lon="-0.9589550">
        <ele>119.4</ele>
        <time>2019-01-01T09:08:54Z</time>
      </trkpt>
      <trkpt lat="41.7399460" lon="-0.9591410">
        <ele>119.8</ele>
        <time>2019-01-01T09:08:57Z</time>
      </trkpt>
      <trkpt lat="41.7400100" lon="-0.9592990">
        <ele>120.0</ele>
        <time>2019-01-01T09:09:00Z</time>
      </trkpt>
      <trkpt lat="41.7401060" lon="-0.9595300">
        <ele>120.8</ele>
        <time>2019-01-01T09:09:05Z</time>
      </trkpt>
      <trkpt lat="41.7401360" lon="-0.9596040">
        <ele>121.0</ele>
        <time>2019-01-01T09:09:07Z</time>
      </trkpt>
      <trkpt lat="41.7402140" lon="-0.9597980">
        <ele>121.6</ele>
        <time>2019-01-01T09:09:12Z</time>
      </trkpt>
      <trkpt lat="41.7402690" lon="-0.9599350">
        <ele>122.2</ele>
        <time>2019-01-01T09:09:15Z</time>
      </trkpt>
      <trkpt lat="41.7403830" lon="-0.9601880">
        <ele>122.6</ele>
        <time>2019-01-01T09:09:20Z</time>
      </trkpt>
      <trkpt lat="41.7404240" lon="-0.9602860">
        <ele>122.8</ele>
        <time>2019-01-01T09:09:22Z</time>
      </trkpt>
      <trkpt lat="41.7405340" lon="-0.9605720">
        <ele>123.6</ele>
        <time>2019-01-01T09:09:28Z</time>
      </trkpt>
      <trkpt lat="41.7405630" lon="-0.9606710">
        <ele>123.6</ele>
        <time>2019-01-01T09:09:30Z</time>
      </trkpt>
      <trkpt lat="41.7406300" lon="-0.9609660">
        <ele>124.6</ele>
        <time>2019-01-01T09:09:36Z</time>
      </trkpt>
      <trkpt lat="41.7406890" lon="-0.9613630">
        <ele>124.8</ele>
        <time>2019-01-01T09:09:43Z</time>
      </trkpt>
      <trkpt lat="41.7407340" lon="-0.9616730">
        <ele>125.6</ele>
        <time>2019-01-01T09:09:49Z</time>
      </trkpt>
      <trkpt lat="41.7407410" lon="-0.9617300">
        <ele>125.8</ele>
        <time>2019-01-01T09:09:50Z</time>
      </trkpt>
      <trkpt lat="41.7407540" lon="-0.9618470">
        <ele>125.8</ele>
        <time>2019-01-01T09:09:52Z</time>
      </trkpt>
      <trkpt lat="41.7407830" lon="-0.9620590">
        <ele>125.8</ele>
        <time>2019-01-01T09:09:56Z</time>
      </trkpt>
      <trkpt lat="41.7408380" lon="-0.9623950">
        <ele>126.4</ele>
        <time>2019-01-01T09:10:03Z</time>
      </trkpt>
      <trkpt lat="41.7408930" lon="-0.9625180">
        <ele>127.0</ele>
        <time>2019-01-01T09:10:06Z</time>
      </trkpt>
      <trkpt lat="41.7409490" lon="-0.9625930">
        <ele>127.2</ele>
        <time>2019-01-01T09:10:08Z</time>
      </trkpt>
      <trkpt lat="41.7410170" lon="-0.9626610">
        <ele>127.4</ele>
        <time>2019-01-01T09:10:10Z</time>
      </trkpt>
      <trkpt lat="41.7412000" lon="-0.9628270">
        <ele>127.6</ele>
        <time>2019-01-01T09:10:15Z</time>
      </trkpt>
      <trkpt lat="41.7412300" lon="-0.9628650">
        <ele>127.6</ele>
        <time>2019-01-01T09:10:16Z</time>
      </trkpt>
      <trkpt lat="41.7413110" lon="-0.9630000">
        <ele>128.0</ele>
        <time>2019-01-01T09:10:19Z</time>
      </trkpt>
      <trkpt lat="41.7413620" lon="-0.9630950">
        <ele>128.2</ele>
        <time>2019-01-01T09:10:21Z</time>
      </trkpt>
      <trkpt lat="41.7414950" lon="-0.9633110">
        <ele>128.4</ele>
        <time>2019-01-01T09:10:26Z</time>
      </trkpt>
      <trkpt lat="41.7415430" lon="-0.9633930">
        <ele>128.6</ele>
        <time>2019-01-01T09:10:28Z</time>
      </trkpt>
      <trkpt lat="41.7416970" lon="-0.9635640">
        <ele>129.0</ele>
        <time>2019-01-01T09:10:33Z</time>
      </trkpt>
      <trkpt lat="41.7418460" lon="-0.9637660">
        <ele>129.0</ele>
        <time>2019-01-01T09:10:38Z</time>
      </trkpt>
      <trkpt lat="41.7418960" lon="-0.9638580">
        <ele>129.4</ele>
        <time>2019-01-01T09:10:40Z</time>
      </trkpt>
      <trkpt lat="41.7420070" lon="-0.9640890">
        <ele>130.0</ele>
        <time>2019-01-01T09:10:45Z</time>
      </trkpt>
      <trkpt lat="41.7420530" lon="-0.9641760">
        <ele>130.6</ele>
        <time>2019-01-01T09:10:47Z</time>
      </trkpt>
      <trkpt lat="41.7421480" lon="-0.9643740">
        <ele>131.0</ele>
        <time>2019-01-01T09:10:51Z</time>
      </trkpt>
      <trkpt lat="41.7423170" lon="-0.9646890">
        <ele>131.6</ele>
        <time>2019-01-01T09:10:58Z</time>
      </trkpt>
      <trkpt lat="41.7424940" lon="-0.9650100">
        <ele>132.2</ele>
        <time>2019-01-01T09:11:05Z</time>
      </trkpt>
      <trkpt lat="41.7425440" lon="-0.9651690">
        <ele>132.6</ele>
        <time>2019-01-01T09:11:08Z</time>
      </trkpt>
      <trkpt lat="41.7426090" lon="-0.9653170">
        <ele>133.2</ele>
        <time>2019-01-01T09:11:11Z</time>
      </trkpt>
      <trkpt lat="41.7426480" lon="-0.9653990">
        <ele>133.4</ele>
        <time>2019-01-01T09:11:13Z</time>
      </trkpt>
      <trkpt lat="41.7427010" lon="-0.9655190">
        <ele>133.6</ele>
        <time>2019-01-01T09:11:16Z</time>
      </trkpt>
      <trkpt lat="41.7428590" lon="-0.9658750">
        <ele>134.0</ele>
        <time>2019-01-01T09:11:24Z</time>
      </trkpt>
      <trkpt lat="41.7429550" lon="-0.9660700">
        <ele>134.6</ele>
        <time>2019-01-01T09:11:28Z</time>
      </trkpt>
      <trkpt lat="41.7430430" lon="-0.9662550">
        <ele>134.8</ele>
        <time>2019-01-01T09:11:32Z</time>
      </trkpt>
      <trkpt lat="41.7431020" lon="-0.9664000">
        <ele>135.4</ele>
        <time>2019-01-01T09:11:35Z</time>
      </trkpt>
      <trkpt lat="41.7431520" lon="-0.9665470">
        <ele>135.8</ele>
        <time>2019-01-01T09:11:38Z</time>
      </trkpt>
      <trkpt lat="41.7432680" lon="-0.9668950">
        <ele>136.4</ele>
        <time>2019-01-01T09:11:45Z</time>
      </trkpt>
      <trkpt lat="41.7433650" lon="-0.9671970">
        <ele>137.0</ele>
        <time>2019-01-01T09:11:51Z</time>
      </trkpt>
      <trkpt lat="41.7434150" lon="-0.9672850">
        <ele>137.0</ele>
        <time>2019-01-01T09:11:53Z</time>
      </trkpt>
      <trkpt lat="41.7434380" lon="-0.9673270">
        <ele>137.2</ele>
        <time>2019-01-01T09:11:54Z</time>
      </trkpt>
      <trkpt lat="41.7435790" lon="-0.9675940">
        <ele>138.0</ele>
        <time>2019-01-01T09:12:00Z</time>
      </trkpt>
      <trkpt lat="41.7437480" lon="-0.9679350">
        <ele>138.4</ele>
        <time>2019-01-01T09:12:07Z</time>
      </trkpt>
      <trkpt lat="41.7438930" lon="-0.9683410">
        <ele>139.4</ele>
        <time>2019-01-01T09:12:15Z</time>
      </trkpt>
      <trkpt lat="41.7439740" lon="-0.9685300">
        <ele>140.4</ele>
        <time>2019-01-01T09:12:19Z</time>
      </trkpt>
      <trkpt lat="41.7440200" lon="-0.9686180">
        <ele>140.8</ele>
        <time>2019-01-01T09:12:21Z</time>
      </trkpt>
      <trkpt lat="41.7442220" lon="-0.9689280">
        <ele>141.0</ele>
        <time>2019-01-01T09:12:28Z</time>
      </trkpt>
      <trkpt lat="41.7444450" lon="-0.9691220">
        <ele>140.8</ele>
        <time>2019-01-01T09:12:34Z</time>
      </trkpt>
      <trkpt lat="41.7444990" lon="-0.9691950">
        <ele>140.8</ele>
        <time>2019-01-01T09:12:38Z</time>
      </trkpt>
      <trkpt lat="41.7445000" lon="-0.9691950">
        <ele>140.8</ele>
        <time>2019-01-01T09:12:39Z</time>
      </trkpt>
      <trkpt lat="41.7445220" lon="-0.9692530">
        <ele>141.0</ele>
        <time>2019-01-01T09:15:42Z</time>
      </trkpt>
      <trkpt lat="41.7445390" lon="-0.9693070">
        <ele>141.0</ele>
        <time>2019-01-01T09:15:44Z</time>
      </trkpt>
      <trkpt lat="41.7445940" lon="-0.9695830">
        <ele>141.4</ele>
        <time>2019-01-01T09:15:50Z</time>
      </trkpt>
      <trkpt lat="41.7446220" lon="-0.9697580">
        <ele>142.0</ele>
        <time>2019-01-01T09:15:53Z</time>
      </trkpt>
      <trkpt lat="41.7446470" lon="-0.9699440">
        <ele>142.6</ele>
        <time>2019-01-01T09:15:56Z</time>
      </trkpt>
      <trkpt lat="41.7446500" lon="-0.9700120">
        <ele>142.6</ele>
        <time>2019-01-01T09:15:57Z</time>
      </trkpt>
      <trkpt lat="41.7446500" lon="-0.9701870">
        <ele>142.6</ele>
        <time>2019-01-01T09:16:00Z</time>
      </trkpt>
      <trkpt lat="41.7446560" lon="-0.9703830">
        <ele>143.0</ele>
        <time>2019-01-01T09:16:03Z</time>
      </trkpt>
      <trkpt lat="41.7446540" lon="-0.9706240">
        <ele>143.6</ele>
        <time>2019-01-01T09:16:07Z</time>
      </trkpt>
      <trkpt lat="41.7446580" lon="-0.9707410">
        <ele>144.0</ele>
        <time>2019-01-01T09:16:09Z</time>
      </trkpt>
      <trkpt lat="41.7446990" lon="-0.9711010">
        <ele>144.8</ele>
        <time>2019-01-01T09:16:15Z</time>
      </trkpt>
      <trkpt lat="41.7447500" lon="-0.9716040">
        <ele>145.0</ele>
        <time>2019-01-01T09:16:23Z</time>
      </trkpt>
      <trkpt lat="41.7447610" lon="-0.9717250">
        <ele>145.0</ele>
        <time>2019-01-01T09:16:25Z</time>
      </trkpt>
      <trkpt lat="41.7447890" lon="-0.9720400">
        <ele>145.4</ele>
        <time>2019-01-01T09:16:30Z</time>
      </trkpt>
      <trkpt lat="41.7448210" lon="-0.9722730">
        <ele>146.0</ele>
        <time>2019-01-01T09:16:34Z</time>
      </trkpt>
      <trkpt lat="41.7448200" lon="-0.9723360">
        <ele>146.4</ele>
        <time>2019-01-01T09:16:35Z</time>
      </trkpt>
      <trkpt lat="41.7448090" lon="-0.9725630">
        <ele>147.2</ele>
        <time>2019-01-01T09:16:39Z</time>
      </trkpt>
      <trkpt lat="41.7448020" lon="-0.9726190">
        <ele>147.4</ele>
        <time>2019-01-01T09:16:40Z</time>
      </trkpt>
      <trkpt lat="41.7447910" lon="-0.9726730">
        <ele>147.4</ele>
        <time>2019-01-01T09:16:41Z</time>
      </trkpt>
      <trkpt lat="41.7446900" lon="-0.9730610">
        <ele>147.6</ele>
        <time>2019-01-01T09:16:48Z</time>
      </trkpt>
      <trkpt lat="41.7446110" lon="-0.9734800">
        <ele>147.8</ele>
        <time>2019-01-01T09:16:55Z</time>
      </trkpt>
      <trkpt lat="41.7445820" lon="-0.9735940">
        <ele>148.0</ele>
        <time>2019-01-01T09:16:57Z</time>
      </trkpt>
      <trkpt lat="41.7445250" lon="-0.9738780">
        <ele>149.0</ele>
        <time>2019-01-01T09:17:02Z</time>
      </trkpt>
      <trkpt lat="41.7445170" lon="-0.9739370">
        <ele>149.0</ele>
        <time>2019-01-01T09:17:03Z</time>
      </trkpt>
      <trkpt lat="41.7445120" lon="-0.9739990">
        <ele>149.0</ele>
        <time>2019-01-01T09:17:04Z</time>
      </trkpt>
      <trkpt lat="41.7445030" lon="-0.9742400">
        <ele>149.2</ele>
        <time>2019-01-01T09:17:08Z</time>
      </trkpt>
      <trkpt lat="41.7444650" lon="-0.9745260">
        <ele>150.2</ele>
        <time>2019-01-01T09:17:13Z</time>
      </trkpt>
      <trkpt lat="41.7444500" lon="-0.9746320">
        <ele>150.2</ele>
        <time>2019-01-01T09:17:15Z</time>
      </trkpt>
      <trkpt lat="41.7444230" lon="-0.9748580">
        <ele>150.8</ele>
        <time>2019-01-01T09:17:19Z</time>
      </trkpt>
      <trkpt lat="41.7444250" lon="-0.9749180">
        <ele>151.0</ele>
        <time>2019-01-01T09:17:20Z</time>
      </trkpt>
      <trkpt lat="41.7444370" lon="-0.9750330">
        <ele>151.4</ele>
        <time>2019-01-01T09:17:22Z</time>
      </trkpt>
      <trkpt lat="41.7445350" lon="-0.9754850">
        <ele>152.0</ele>
        <time>2019-01-01T09:17:30Z</time>
      </trkpt>
      <trkpt lat="41.7445770" lon="-0.9756590">
        <ele>152.0</ele>
        <time>2019-01-01T09:17:33Z</time>
      </trkpt>
      <trkpt lat="41.7446080" lon="-0.9758350">
        <ele>152.4</ele>
        <time>2019-01-01T09:17:36Z</time>
      </trkpt>
      <trkpt lat="41.7446040" lon="-0.9760750">
        <ele>152.8</ele>
        <time>2019-01-01T09:17:40Z</time>
      </trkpt>
      <trkpt lat="41.7446050" lon="-0.9761340">
        <ele>152.8</ele>
        <time>2019-01-01T09:17:41Z</time>
      </trkpt>
      <trkpt lat="41.7446100" lon="-0.9762400">
        <ele>153.2</ele>
        <time>2019-01-01T09:17:43Z</time>
      </trkpt>
      <trkpt lat="41.7446240" lon="-0.9764820">
        <ele>153.6</ele>
        <time>2019-01-01T09:17:48Z</time>
      </trkpt>
      <trkpt lat="41.7446380" lon="-0.9766220">
        <ele>154.0</ele>
        <time>2019-01-01T09:17:51Z</time>
      </trkpt>
      <trkpt lat="41.7446440" lon="-0.9768050">
        <ele>154.4</ele>
        <time>2019-01-01T09:17:55Z</time>
      </trkpt>
      <trkpt lat="41.7446520" lon="-0.9769780">
        <ele>155.2</ele>
        <time>2019-01-01T09:17:59Z</time>
      </trkpt>
      <trkpt lat="41.7446640" lon="-0.9771060">
        <ele>156.0</ele>
        <time>2019-01-01T09:18:02Z</time>
      </trkpt>
      <trkpt lat="41.7446700" lon="-0.9771480">
        <ele>156.2</ele>
        <time>2019-01-01T09:18:03Z</time>
      </trkpt>
      <trkpt lat="41.7447230" lon="-0.9774000">
        <ele>157.0</ele>
        <time>2019-01-01T09:18:08Z</time>
      </trkpt>
      <trkpt lat="41.7448180" lon="-0.9777200">
        <ele>157.2</ele>
        <time>2019-01-01T09:18:14Z</time>
      </trkpt>
      <trkpt lat="41.7448350" lon="-0.9777700">
        <ele>157.6</ele>
        <time>2019-01-01T09:18:15Z</time>
      </trkpt>
      <trkpt lat="41.7450130" lon="-0.9782980">
        <ele>158.0</ele>
        <time>2019-01-01T09:18:25Z</time>
      </trkpt>
      <trkpt lat="41.7451030" lon="-0.9784950">
        <ele>158.4</ele>
        <time>2019-01-01T09:18:29Z</time>
      </trkpt>
      <trkpt lat="41.7451820" lon="-0.9786420">
        <ele>159.0</ele>
        <time>2019-01-01T09:18:32Z</time>
      </trkpt>
      <trkpt lat="41.7453210" lon="-0.9789720">
        <ele>159.4</ele>
        <time>2019-01-01T09:18:38Z</time>
      </trkpt>
      <trkpt lat="41.7455000" lon="-0.9793470">
        <ele>159.4</ele>
        <time>2019-01-01T09:18:45Z</time>
      </trkpt>
      <trkpt lat="41.7455320" lon="-0.9793960">
        <ele>159.4</ele>
        <time>2019-01-01T09:18:46Z</time>
      </trkpt>
      <trkpt lat="41.7457250" lon="-0.9795900">
        <ele>159.8</ele>
        <time>2019-01-01T09:18:51Z</time>
      </trkpt>
      <trkpt lat="41.7460340" lon="-0.9797990">
        <ele>160.2</ele>
        <time>2019-01-01T09:18:58Z</time>
      </trkpt>
      <trkpt lat="41.7462560" lon="-0.9799540">
        <ele>160.2</ele>
        <time>2019-01-01T09:19:03Z</time>
      </trkpt>
      <trkpt lat="41.7463930" lon="-0.9800420">
        <ele>160.4</ele>
        <time>2019-01-01T09:19:06Z</time>
      </trkpt>
      <trkpt lat="41.7466060" lon="-0.9801870">
        <ele>161.4</ele>
        <time>2019-01-01T09:19:11Z</time>
      </trkpt>
      <trkpt lat="41.7466860" lon="-0.9802430">
        <ele>161.4</ele>
        <time>2019-01-01T09:19:13Z</time>
      </trkpt>
      <trkpt lat="41.7469620" lon="-0.9804560">
        <ele>162.2</ele>
        <time>2019-01-01T09:19:20Z</time>
      </trkpt>
      <trkpt lat="41.7472890" lon="-0.9807150">
        <ele>163.2</ele>
        <time>2019-01-01T09:19:28Z</time>
      </trkpt>
      <trkpt lat="41.7475230" lon="-0.9808710">
        <ele>163.8</ele>
        <time>2019-01-01T09:19:33Z</time>
      </trkpt>
      <trkpt lat="41.7476040" lon="-0.9809600">
        <ele>163.8</ele>
        <time>2019-01-01T09:19:35Z</time>
      </trkpt>
      <trkpt lat="41.7477240" lon="-0.9810810">
        <ele>163.6</ele>
        <time>2019-01-01T09:19:38Z</time>
      </trkpt>
      <trkpt lat="41.7478180" lon="-0.9811270">
        <ele>164.0</ele>
        <time>2019-01-01T09:19:40Z</time>
      </trkpt>
      <trkpt lat="41.7479100" lon="-0.9811520">
        <ele>164.4</ele>
        <time>2019-01-01T09:19:42Z</time>
      </trkpt>
      <trkpt lat="41.7480520" lon="-0.9811470">
        <ele>165.4</ele>
        <time>2019-01-01T09:19:45Z</time>
      </trkpt>
      <trkpt lat="41.7481030" lon="-0.9811390">
        <ele>165.4</ele>
        <time>2019-01-01T09:19:46Z</time>
      </trkpt>
      <trkpt lat="41.7484100" lon="-0.9810490">
        <ele>166.0</ele>
        <time>2019-01-01T09:19:52Z</time>
      </trkpt>
      <trkpt lat="41.7485580" lon="-0.9810130">
        <ele>166.2</ele>
        <time>2019-01-01T09:19:55Z</time>
      </trkpt>
      <trkpt lat="41.7488510" lon="-0.9809550">
        <ele>167.0</ele>
        <time>2019-01-01T09:20:01Z</time>
      </trkpt>
      <trkpt lat="41.7489460" lon="-0.9809380">
        <ele>167.2</ele>
        <time>2019-01-01T09:20:03Z</time>
      </trkpt>
      <trkpt lat="41.7491230" lon="-0.9808690">
        <ele>167.2</ele>
        <time>2019-01-01T09:20:07Z</time>
      </trkpt>
      <trkpt lat="41.7491610" lon="-0.9808490">
        <ele>167.2</ele>
        <time>2019-01-01T09:20:08Z</time>
      </trkpt>
      <trkpt lat="41.7494220" lon="-0.9807010">
        <ele>167.8</ele>
        <time>2019-01-01T09:20:14Z</time>
      </trkpt>
      <trkpt lat="41.7497570" lon="-0.9805990">
        <ele>168.0</ele>
        <time>2019-01-01T09:20:21Z</time>
      </trkpt>
      <trkpt lat="41.7499030" lon="-0.9805350">
        <ele>168.2</ele>
        <time>2019-01-01T09:20:24Z</time>
      </trkpt>
      <trkpt lat="41.7500480" lon="-0.9804590">
        <ele>168.8</ele>
        <time>2019-01-01T09:20:27Z</time>
      </trkpt>
      <trkpt lat="41.7500940" lon="-0.9804320">
        <ele>169.2</ele>
        <time>2019-01-01T09:20:28Z</time>
      </trkpt>
      <trkpt lat="41.7503240" lon="-0.9803240">
        <ele>169.6</ele>
        <time>2019-01-01T09:20:33Z</time>
      </trkpt>
      <trkpt lat="41.7504000" lon="-0.9802730">
        <ele>169.8</ele>
        <time>2019-01-01T09:20:35Z</time>
      </trkpt>
      <trkpt lat="41.7504720" lon="-0.9802290">
        <ele>170.4</ele>
        <time>2019-01-01T09:20:37Z</time>
      </trkpt>
      <trkpt lat="41.7506120" lon="-0.9801170">
        <ele>170.8</ele>
        <time>2019-01-01T09:20:41Z</time>
      </trkpt>
      <trkpt lat="41.7508200" lon="-0.9798810">
        <ele>170.6</ele>
        <time>2019-01-01T09:20:47Z</time>
      </trkpt>
      <trkpt lat="41.7508510" lon="-0.9798320">
        <ele>170.6</ele>
        <time>2019-01-01T09:20:48Z</time>
      </trkpt>
      <trkpt lat="41.7509590" lon="-0.9796100">
        <ele>171.4</ele>
        <time>2019-01-01T09:20:52Z</time>
      </trkpt>
      <trkpt lat="41.7510460" lon="-0.9794550">
        <ele>171.6</ele>
        <time>2019-01-01T09:20:55Z</time>
      </trkpt>
      <trkpt lat="41.7511140" lon="-0.9793620">
        <ele>171.6</ele>
        <time>2019-01-01T09:20:57Z</time>
      </trkpt>
      <trkpt lat="41.7512500" lon="-0.9792700">
        <ele>171.6</ele>
        <time>2019-01-01T09:21:00Z</time>
      </trkpt>
      <trkpt lat="41.7513960" lon="-0.9793080">
        <ele>171.8</ele>
        <time>2019-01-01T09:21:03Z</time>
      </trkpt>
      <trkpt lat="41.7514820" lon="-0.9793770">
        <ele>172.0</ele>
        <time>2019-01-01T09:21:05Z</time>
      </trkpt>
      <trkpt lat="41.7515720" lon="-0.9794530">
        <ele>172.2</ele>
        <time>2019-01-01T09:21:07Z</time>
      </trkpt>
      <trkpt lat="41.7517020" lon="-0.9795760">
        <ele>172.4</ele>
        <time>2019-01-01T09:21:10Z</time>
      </trkpt>
      <trkpt lat="41.7519940" lon="-0.9798880">
        <ele>173.2</ele>
        <time>2019-01-01T09:21:17Z</time>
      </trkpt>
      <trkpt lat="41.7520340" lon="-0.9799400">
        <ele>173.2</ele>
        <time>2019-01-01T09:21:18Z</time>
      </trkpt>
      <trkpt lat="41.7523560" lon="-0.9803670">
        <ele>173.6</ele>
        <time>2019-01-01T09:21:26Z</time>
      </trkpt>
      <trkpt lat="41.7526290" lon="-0.9807180">
        <ele>174.2</ele>
        <time>2019-01-01T09:21:33Z</time>
      </trkpt>
      <trkpt lat="41.7527010" lon="-0.9808190">
        <ele>174.6</ele>
        <time>2019-01-01T09:21:35Z</time>
      </trkpt>
      <trkpt lat="41.7528170" lon="-0.9810170">
        <ele>175.0</ele>
        <time>2019-01-01T09:21:39Z</time>
      </trkpt>
      <trkpt lat="41.7528370" lon="-0.9810740">
        <ele>175.2</ele>
        <time>2019-01-01T09:21:40Z</time>
      </trkpt>
      <trkpt lat="41.7528730" lon="-0.9812000">
        <ele>175.2</ele>
        <time>2019-01-01T09:21:42Z</time>
      </trkpt>
      <trkpt lat="41.7529280" lon="-0.9813790">
        <ele>175.6</ele>
        <time>2019-01-01T09:21:45Z</time>
      </trkpt>
      <trkpt lat="41.7529580" lon="-0.9814300">
        <ele>175.8</ele>
        <time>2019-01-01T09:21:46Z</time>
      </trkpt>
      <trkpt lat="41.7530280" lon="-0.9815220">
        <ele>176.6</ele>
        <time>2019-01-01T09:21:48Z</time>
      </trkpt>
      <trkpt lat="41.7531040" lon="-0.9816010">
        <ele>176.8</ele>
        <time>2019-01-01T09:21:50Z</time>
      </trkpt>
      <trkpt lat="41.7531780" lon="-0.9816810">
        <ele>177.2</ele>
        <time>2019-01-01T09:21:52Z</time>
      </trkpt>
      <trkpt lat="41.7535190" lon="-0.9819850">
        <ele>177.4</ele>
        <time>2019-01-01T09:22:00Z</time>
      </trkpt>
      <trkpt lat="41.7536990" lon="-0.9820910">
        <ele>177.6</ele>
        <time>2019-01-01T09:22:04Z</time>
      </trkpt>
      <trkpt lat="41.7537840" lon="-0.9821250">
        <ele>178.0</ele>
        <time>2019-01-01T09:22:06Z</time>
      </trkpt>
      <trkpt lat="41.7538960" lon="-0.9821590">
        <ele>178.6</ele>
        <time>2019-01-01T09:22:09Z</time>
      </trkpt>
      <trkpt lat="41.7540550" lon="-0.9822060">
        <ele>179.6</ele>
        <time>2019-01-01T09:22:13Z</time>
      </trkpt>
      <trkpt lat="41.7541400" lon="-0.9822270">
        <ele>179.6</ele>
        <time>2019-01-01T09:22:15Z</time>
      </trkpt>
      <trkpt lat="41.7542200" lon="-0.9822550">
        <ele>179.6</ele>
        <time>2019-01-01T09:22:17Z</time>
      </trkpt>
      <trkpt lat="41.7542940" lon="-0.9822890">
        <ele>179.8</ele>
        <time>2019-01-01T09:22:19Z</time>
      </trkpt>
      <trkpt lat="41.7545680" lon="-0.9824580">
        <ele>180.4</ele>
        <time>2019-01-01T09:22:26Z</time>
      </trkpt>
      <trkpt lat="41.7546950" lon="-0.9825410">
        <ele>180.8</ele>
        <time>2019-01-01T09:22:29Z</time>
      </trkpt>
      <trkpt lat="41.7549560" lon="-0.9827500">
        <ele>181.4</ele>
        <time>2019-01-01T09:22:35Z</time>
      </trkpt>
      <trkpt lat="41.7550390" lon="-0.9828460">
        <ele>181.6</ele>
        <time>2019-01-01T09:22:37Z</time>
      </trkpt>
      <trkpt lat="41.7551070" lon="-0.9829540">
        <ele>181.8</ele>
        <time>2019-01-01T09:22:39Z</time>
      </trkpt>
      <trkpt lat="41.7551360" lon="-0.9830090">
        <ele>182.0</ele>
        <time>2019-01-01T09:22:40Z</time>
      </trkpt>
      <trkpt lat="41.7552080" lon="-0.9831840">
        <ele>182.6</ele>
        <time>2019-01-01T09:22:43Z</time>
      </trkpt>
      <trkpt lat="41.7552250" lon="-0.9832480">
        <ele>182.8</ele>
        <time>2019-01-01T09:22:44Z</time>
      </trkpt>
      <trkpt lat="41.7552500" lon="-0.9833810">
        <ele>183.2</ele>
        <time>2019-01-01T09:22:46Z</time>
      </trkpt>
      <trkpt lat="41.7553100" lon="-0.9837930">
        <ele>183.6</ele>
        <time>2019-01-01T09:22:53Z</time>
      </trkpt>
      <trkpt lat="41.7553390" lon="-0.9839870">
        <ele>183.8</ele>
        <time>2019-01-01T09:22:57Z</time>
      </trkpt>
      <trkpt lat="41.7553700" lon="-0.9842170">
        <ele>184.4</ele>
        <time>2019-01-01T09:23:02Z</time>
      </trkpt>
      <trkpt lat="41.7553930" lon="-0.9845050">
        <ele>185.0</ele>
        <time>2019-01-01T09:23:08Z</time>
      </trkpt>
      <trkpt lat="41.7553910" lon="-0.9846350">
        <ele>185.6</ele>
        <time>2019-01-01T09:23:11Z</time>
      </trkpt>
      <trkpt lat="41.7553730" lon="-0.9848200">
        <ele>186.0</ele>
        <time>2019-01-01T09:23:15Z</time>
      </trkpt>
      <trkpt lat="41.7553520" lon="-0.9849720">
        <ele>186.2</ele>
        <time>2019-01-01T09:23:18Z</time>
      </trkpt>
      <trkpt lat="41.7553170" lon="-0.9852790">
        <ele>187.0</ele>
        <time>2019-01-01T09:23:25Z</time>
      </trkpt>
      <trkpt lat="41.7552840" lon="-0.9856430">
        <ele>188.0</ele>
        <time>2019-01-01T09:23:33Z</time>
      </trkpt>
      <trkpt lat="41.7552800" lon="-0.9856900">
        <ele>188.2</ele>
        <time>2019-01-01T09:23:34Z</time>
      </trkpt>
      <trkpt lat="41.7552260" lon="-0.9860490">
        <ele>188.6</ele>
        <time>2019-01-01T09:23:42Z</time>
      </trkpt>
      <trkpt lat="41.7551940" lon="-0.9862900">
        <ele>189.0</ele>
        <time>2019-01-01T09:23:47Z</time>
      </trkpt>
      <trkpt lat="41.7551840" lon="-0.9864280">
        <ele>189.2</ele>
        <time>2019-01-01T09:23:50Z</time>
      </trkpt>
      <trkpt lat="41.7551770" lon="-0.9866800">
        <ele>190.0</ele>
        <time>2019-01-01T09:23:56Z</time>
      </trkpt>
      <trkpt lat="41.7551750" lon="-0.9867190">
        <ele>190.0</ele>
        <time>2019-01-01T09:23:57Z</time>
      </trkpt>
      <trkpt lat="41.7551440" lon="-0.9870450">
        <ele>191.0</ele>
        <time>2019-01-01T09:24:05Z</time>
      </trkpt>
      <trkpt lat="41.7550760" lon="-0.9872500">
        <ele>191.2</ele>
        <time>2019-01-01T09:24:10Z</time>
      </trkpt>
      <trkpt lat="41.7549480" lon="-0.9874430">
        <ele>191.8</ele>
        <time>2019-01-01T09:24:16Z</time>
      </trkpt>
      <trkpt lat="41.7549000" lon="-0.9875090">
        <ele>192.4</ele>
        <time>2019-01-01T09:24:18Z</time>
      </trkpt>
      <trkpt lat="41.7548360" lon="-0.9876200">
        <ele>193.0</ele>
        <time>2019-01-01T09:24:21Z</time>
      </trkpt>
      <trkpt lat="41.7547670" lon="-0.9877720">
        <ele>193.0</ele>
        <time>2019-01-01T09:24:25Z</time>
      </trkpt>
      <trkpt lat="41.7546790" lon="-0.9880090">
        <ele>194.2</ele>
        <time>2019-01-01T09:24:31Z</time>
      </trkpt>
      <trkpt lat="41.7546450" lon="-0.9880980">
        <ele>194.4</ele>
        <time>2019-01-01T09:24:33Z</time>
      </trkpt>
      <trkpt lat="41.7545610" lon="-0.9882940">
        <ele>195.4</ele>
        <time>2019-01-01T09:24:38Z</time>
      </trkpt>
      <trkpt lat="41.7545200" lon="-0.9883660">
        <ele>195.8</ele>
        <time>2019-01-01T09:24:40Z</time>
      </trkpt>
      <trkpt lat="41.7543310" lon="-0.9886530">
        <ele>196.4</ele>
        <time>2019-01-01T09:24:48Z</time>
      </trkpt>
      <trkpt lat="41.7543070" lon="-0.9886870">
        <ele>196.6</ele>
        <time>2019-01-01T09:24:49Z</time>
      </trkpt>
      <trkpt lat="41.7541500" lon="-0.9889110">
        <ele>197.4</ele>
        <time>2019-01-01T09:24:56Z</time>
      </trkpt>
      <trkpt lat="41.7540990" lon="-0.9889580">
        <ele>197.6</ele>
        <time>2019-01-01T09:24:58Z</time>
      </trkpt>
      <trkpt lat="41.7538860" lon="-0.9891030">
        <ele>198.0</ele>
        <time>2019-01-01T09:25:05Z</time>
      </trkpt>
      <trkpt lat="41.7538220" lon="-0.9891490">
        <ele>198.4</ele>
        <time>2019-01-01T09:25:07Z</time>
      </trkpt>
      <trkpt lat="41.7536410" lon="-0.9892820">
        <ele>198.6</ele>
        <time>2019-01-01T09:25:13Z</time>
      </trkpt>
      <trkpt lat="41.7534940" lon="-0.9894270">
        <ele>199.2</ele>
        <time>2019-01-01T09:25:19Z</time>
      </trkpt>
      <trkpt lat="41.7534660" lon="-0.9894530">
        <ele>199.4</ele>
        <time>2019-01-01T09:25:20Z</time>
      </trkpt>
      <trkpt lat="41.7532850" lon="-0.9896260">
        <ele>200.4</ele>
        <time>2019-01-01T09:25:27Z</time>
      </trkpt>
      <trkpt lat="41.7532650" lon="-0.9896480">
        <ele>200.6</ele>
        <time>2019-01-01T09:25:28Z</time>
      </trkpt>
      <trkpt lat="41.7531730" lon="-0.9897590">
        <ele>201.8</ele>
        <time>2019-01-01T09:25:32Z</time>
      </trkpt>
      <trkpt lat="41.7531100" lon="-0.9898790">
        <ele>202.0</ele>
        <time>2019-01-01T09:25:35Z</time>
      </trkpt>
      <trkpt lat="41.7530700" lon="-0.9901170">
        <ele>202.0</ele>
        <time>2019-01-01T09:25:40Z</time>
      </trkpt>
      <trkpt lat="41.7531080" lon="-0.9904330">
        <ele>202.4</ele>
        <time>2019-01-01T09:25:47Z</time>
      </trkpt>
      <trkpt lat="41.7531180" lon="-0.9905190">
        <ele>203.0</ele>
        <time>2019-01-01T09:25:49Z</time>
      </trkpt>
      <trkpt lat="41.7531470" lon="-0.9907840">
        <ele>203.4</ele>
        <time>2019-01-01T09:25:55Z</time>
      </trkpt>
      <trkpt lat="41.7531400" lon="-0.9911970">
        <ele>203.6</ele>
        <time>2019-01-01T09:26:04Z</time>
      </trkpt>
      <trkpt lat="41.7531440" lon="-0.9912950">
        <ele>203.8</ele>
        <time>2019-01-01T09:26:06Z</time>
      </trkpt>
      <trkpt lat="41.7531830" lon="-0.9916380">
        <ele>204.4</ele>
        <time>2019-01-01T09:26:13Z</time>
      </trkpt>
      <trkpt lat="41.7532040" lon="-0.9920040">
        <ele>204.8</ele>
        <time>2019-01-01T09:26:21Z</time>
      </trkpt>
      <trkpt lat="41.7532030" lon="-0.9920460">
        <ele>204.8</ele>
        <time>2019-01-01T09:26:22Z</time>
      </trkpt>
      <trkpt lat="41.7531930" lon="-0.9923170">
        <ele>205.4</ele>
        <time>2019-01-01T09:26:28Z</time>
      </trkpt>
      <trkpt lat="41.7531970" lon="-0.9924520">
        <ele>205.8</ele>
        <time>2019-01-01T09:26:31Z</time>
      </trkpt>
      <trkpt lat="41.7532100" lon="-0.9926460">
        <ele>206.2</ele>
        <time>2019-01-01T09:26:36Z</time>
      </trkpt>
      <trkpt lat="41.7532160" lon="-0.9927860">
        <ele>206.8</ele>
        <time>2019-01-01T09:26:39Z</time>
      </trkpt>
      <trkpt lat="41.7532360" lon="-0.9929760">
        <ele>206.6</ele>
        <time>2019-01-01T09:26:43Z</time>
      </trkpt>
      <trkpt lat="41.7533030" lon="-0.9933090">
        <ele>207.0</ele>
        <time>2019-01-01T09:26:51Z</time>
      </trkpt>
      <trkpt lat="41.7534010" lon="-0.9935470">
        <ele>207.8</ele>
        <time>2019-01-01T09:26:57Z</time>
      </trkpt>
      <trkpt lat="41.7534170" lon="-0.9935800">
        <ele>208.0</ele>
        <time>2019-01-01T09:26:58Z</time>
      </trkpt>
      <trkpt lat="41.7535200" lon="-0.9937820">
        <ele>209.0</ele>
        <time>2019-01-01T09:27:04Z</time>
      </trkpt>
      <trkpt lat="41.7535680" lon="-0.9938900">
        <ele>209.4</ele>
        <time>2019-01-01T09:27:07Z</time>
      </trkpt>
      <trkpt lat="41.7536270" lon="-0.9940310">
        <ele>210.2</ele>
        <time>2019-01-01T09:27:11Z</time>
      </trkpt>
      <trkpt lat="41.7536680" lon="-0.9941850">
        <ele>211.2</ele>
        <time>2019-01-01T09:27:15Z</time>
      </trkpt>
      <trkpt lat="41.7536950" lon="-0.9944530">
        <ele>211.4</ele>
        <time>2019-01-01T09:27:21Z</time>
      </trkpt>
      <trkpt lat="41.7536980" lon="-0.9945000">
        <ele>211.4</ele>
        <time>2019-01-01T09:27:22Z</time>
      </trkpt>
      <trkpt lat="41.7537090" lon="-0.9948850">
        <ele>211.8</ele>
        <time>2019-01-01T09:27:31Z</time>
      </trkpt>
      <trkpt lat="41.7537180" lon="-0.9950440">
        <ele>212.2</ele>
        <time>2019-01-01T09:27:35Z</time>
      </trkpt>
      <trkpt lat="41.7537250" lon="-0.9951800">
        <ele>212.4</ele>
        <time>2019-01-01T09:27:38Z</time>
      </trkpt>
      <trkpt lat="41.7537500" lon="-0.9955100">
        <ele>213.2</ele>
        <time>2019-01-01T09:27:46Z</time>
      </trkpt>
      <trkpt lat="41.7537540" lon="-0.9955530">
        <ele>213.2</ele>
        <time>2019-01-01T09:27:47Z</time>
      </trkpt>
      <trkpt lat="41.7538040" lon="-0.9957850">
        <ele>213.4</ele>
        <time>2019-01-01T09:27:53Z</time>
      </trkpt>
      <trkpt lat="41.7538480" lon="-0.9960460">
        <ele>214.0</ele>
        <time>2019-01-01T09:28:00Z</time>
      </trkpt>
      <trkpt lat="41.7538640" lon="-0.9961820">
        <ele>214.4</ele>
        <time>2019-01-01T09:28:04Z</time>
      </trkpt>
      <trkpt lat="41.7538680" lon="-0.9962870">
        <ele>214.8</ele>
        <time>2019-01-01T09:28:07Z</time>
      </trkpt>
      <trkpt lat="41.7538670" lon="-0.9965030">
        <ele>215.4</ele>
        <time>2019-01-01T09:28:13Z</time>
      </trkpt>
      <trkpt lat="41.7538610" lon="-0.9965720">
        <ele>215.8</ele>
        <time>2019-01-01T09:28:15Z</time>
      </trkpt>
      <trkpt lat="41.7538590" lon="-0.9967720">
        <ele>216.2</ele>
        <time>2019-01-01T09:28:21Z</time>
      </trkpt>
      <trkpt lat="41.7538620" lon="-0.9968010">
        <ele>216.4</ele>
        <time>2019-01-01T09:28:22Z</time>
      </trkpt>
      <trkpt lat="41.7539070" lon="-0.9970370">
        <ele>217.4</ele>
        <time>2019-01-01T09:28:29Z</time>
      </trkpt>
      <trkpt lat="41.7539580" lon="-0.9972500">
        <ele>218.6</ele>
        <time>2019-01-01T09:28:36Z</time>
      </trkpt>
      <trkpt lat="41.7539630" lon="-0.9972750">
        <ele>218.6</ele>
        <time>2019-01-01T09:28:37Z</time>
      </trkpt>
      <trkpt lat="41.7540110" lon="-0.9974960">
        <ele>219.6</ele>
        <time>2019-01-01T09:28:45Z</time>
      </trkpt>
      <trkpt lat="41.7540890" lon="-0.9976690">
        <ele>220.8</ele>
        <time>2019-01-01T09:28:51Z</time>
      </trkpt>
      <trkpt lat="41.7541880" lon="-0.9978520">
        <ele>221.8</ele>
        <time>2019-01-01T09:28:57Z</time>
      </trkpt>
      <trkpt lat="41.7542040" lon="-0.9978800">
        <ele>222.0</ele>
        <time>2019-01-01T09:28:58Z</time>
      </trkpt>
      <trkpt lat="41.7543020" lon="-0.9980430">
        <ele>222.6</ele>
        <time>2019-01-01T09:29:04Z</time>
      </trkpt>
      <trkpt lat="41.7543420" lon="-0.9981310">
        <ele>223.2</ele>
        <time>2019-01-01T09:29:07Z</time>
      </trkpt>
      <trkpt lat="41.7544090" lon="-0.9982350">
        <ele>223.8</ele>
        <time>2019-01-01T09:29:11Z</time>
      </trkpt>
      <trkpt lat="41.7544700" lon="-0.9982950">
        <ele>224.2</ele>
        <time>2019-01-01T09:29:14Z</time>
      </trkpt>
      <trkpt lat="41.7545610" lon="-0.9983660">
        <ele>225.0</ele>
        <time>2019-01-01T09:29:18Z</time>
      </trkpt>
      <trkpt lat="41.7546860" lon="-0.9984290">
        <ele>226.0</ele>
        <time>2019-01-01T09:29:23Z</time>
      </trkpt>
      <trkpt lat="41.7548370" lon="-0.9984830">
        <ele>227.2</ele>
        <time>2019-01-01T09:29:29Z</time>
      </trkpt>
      <trkpt lat="41.7549050" lon="-0.9985040">
        <ele>227.4</ele>
        <time>2019-01-01T09:29:32Z</time>
      </trkpt>
      <trkpt lat="41.7549250" lon="-0.9985130">
        <ele>227.6</ele>
        <time>2019-01-01T09:29:33Z</time>
      </trkpt>
      <trkpt lat="41.7550040" lon="-0.9985390">
        <ele>228.2</ele>
        <time>2019-01-01T09:29:36Z</time>
      </trkpt>
      <trkpt lat="41.7550310" lon="-0.9985470">
        <ele>228.4</ele>
        <time>2019-01-01T09:29:37Z</time>
      </trkpt>
      <trkpt lat="41.7551900" lon="-0.9985950">
        <ele>229.2</ele>
        <time>2019-01-01T09:29:44Z</time>
      </trkpt>
      <trkpt lat="41.7553520" lon="-0.9986660">
        <ele>230.2</ele>
        <time>2019-01-01T09:29:51Z</time>
      </trkpt>
      <trkpt lat="41.7553760" lon="-0.9986800">
        <ele>230.4</ele>
        <time>2019-01-01T09:29:52Z</time>
      </trkpt>
      <trkpt lat="41.7554650" lon="-0.9987280">
        <ele>231.2</ele>
        <time>2019-01-01T09:29:56Z</time>
      </trkpt>
      <trkpt lat="41.7555630" lon="-0.9987760">
        <ele>231.8</ele>
        <time>2019-01-01T09:30:00Z</time>
      </trkpt>
      <trkpt lat="41.7556410" lon="-0.9988000">
        <ele>232.6</ele>
        <time>2019-01-01T09:30:03Z</time>
      </trkpt>
      <trkpt lat="41.7557950" lon="-0.9988310">
        <ele>233.6</ele>
        <time>2019-01-01T09:30:09Z</time>
      </trkpt>
      <trkpt lat="41.7558220" lon="-0.9988370">
        <ele>233.8</ele>
        <time>2019-01-01T09:30:10Z</time>
      </trkpt>
      <trkpt lat="41.7559610" lon="-0.9988610">
        <ele>234.6</ele>
        <time>2019-01-01T09:30:15Z</time>
      </trkpt>
      <trkpt lat="41.7560150" lon="-0.9988780">
        <ele>234.8</ele>
        <time>2019-01-01T09:30:17Z</time>
      </trkpt>
      <trkpt lat="41.7561380" lon="-0.9989610">
        <ele>235.6</ele>
        <time>2019-01-01T09:30:22Z</time>
      </trkpt>
      <trkpt lat="41.7561970" lon="-0.9990340">
        <ele>236.0</ele>
        <time>2019-01-01T09:30:25Z</time>
      </trkpt>
      <trkpt lat="41.7562410" lon="-0.9991280">
        <ele>236.4</ele>
        <time>2019-01-01T09:30:28Z</time>
      </trkpt>
      <trkpt lat="41.7562850" lon="-0.9992640">
        <ele>237.0</ele>
        <time>2019-01-01T09:30:32Z</time>
      </trkpt>
      <trkpt lat="41.7563140" lon="-0.9993830">
        <ele>237.4</ele>
        <time>2019-01-01T09:30:35Z</time>
      </trkpt>
      <trkpt lat="41.7563890" lon="-0.9997130">
        <ele>237.8</ele>
        <time>2019-01-01T09:30:42Z</time>
      </trkpt>
      <trkpt lat="41.7564710" lon="-1.0000010">
        <ele>237.6</ele>
        <time>2019-01-01T09:30:48Z</time>
      </trkpt>
      <trkpt lat="41.7566480" lon="-1.0004090">
        <ele>237.4</ele>
        <time>2019-01-01T09:30:57Z</time>
      </trkpt>
      <trkpt lat="41.7568200" lon="-1.0005840">
        <ele>238.0</ele>
        <time>2019-01-01T09:31:03Z</time>
      </trkpt>
      <trkpt lat="41.7568480" lon="-1.0006050">
        <ele>238.2</ele>
        <time>2019-01-01T09:31:04Z</time>
      </trkpt>
      <trkpt lat="41.7569590" lon="-1.0006570">
        <ele>239.4</ele>
        <time>2019-01-01T09:31:08Z</time>
      </trkpt>
      <trkpt lat="41.7569890" lon="-1.0006640">
        <ele>239.4</ele>
        <time>2019-01-01T09:31:09Z</time>
      </trkpt>
      <trkpt lat="41.7572280" lon="-1.0007110">
        <ele>239.8</ele>
        <time>2019-01-01T09:31:16Z</time>
      </trkpt>
      <trkpt lat="41.7573660" lon="-1.0007500">
        <ele>240.4</ele>
        <time>2019-01-01T09:31:20Z</time>
      </trkpt>
      <trkpt lat="41.7575130" lon="-1.0008030">
        <ele>240.8</ele>
        <time>2019-01-01T09:31:25Z</time>
      </trkpt>
      <trkpt lat="41.7576510" lon="-1.0008720">
        <ele>241.4</ele>
        <time>2019-01-01T09:31:30Z</time>
      </trkpt>
      <trkpt lat="41.7577330" lon="-1.0009220">
        <ele>242.0</ele>
        <time>2019-01-01T09:31:33Z</time>
      </trkpt>
      <trkpt lat="41.7577890" lon="-1.0009570">
        <ele>242.6</ele>
        <time>2019-01-01T09:31:35Z</time>
      </trkpt>
      <trkpt lat="41.7578600" lon="-1.0010020">
        <ele>243.8</ele>
        <time>2019-01-01T09:31:38Z</time>
      </trkpt>
      <trkpt lat="41.7578830" lon="-1.0010200">
        <ele>244.0</ele>
        <time>2019-01-01T09:31:39Z</time>
      </trkpt>
      <trkpt lat="41.7579470" lon="-1.0010740">
        <ele>244.8</ele>
        <time>2019-01-01T09:31:42Z</time>
      </trkpt>
      <trkpt lat="41.7580400" lon="-1.0011370">
        <ele>246.0</ele>
        <time>2019-01-01T09:31:46Z</time>
      </trkpt>
      <trkpt lat="41.7580640" lon="-1.0011530">
        <ele>246.2</ele>
        <time>2019-01-01T09:31:47Z</time>
      </trkpt>
      <trkpt lat="41.7582400" lon="-1.0012400">
        <ele>246.8</ele>
        <time>2019-01-01T09:31:53Z</time>
      </trkpt>
      <trkpt lat="41.7584450" lon="-1.0013020">
        <ele>246.4</ele>
        <time>2019-01-01T09:31:58Z</time>
      </trkpt>
      <trkpt lat="41.7585950" lon="-1.0013260">
        <ele>246.0</ele>
        <time>2019-01-01T09:32:01Z</time>
      </trkpt>
      <trkpt lat="41.7586870" lon="-1.0013170">
        <ele>245.8</ele>
        <time>2019-01-01T09:32:03Z</time>
      </trkpt>
      <trkpt lat="41.7589810" lon="-1.0013060">
        <ele>245.8</ele>
        <time>2019-01-01T09:32:10Z</time>
      </trkpt>
      <trkpt lat="41.7593560" lon="-1.0013100">
        <ele>246.8</ele>
        <time>2019-01-01T09:32:19Z</time>
      </trkpt>
      <trkpt lat="41.7595590" lon="-1.0012890">
        <ele>247.2</ele>
        <time>2019-01-01T09:32:24Z</time>
      </trkpt>
      <trkpt lat="41.7596410" lon="-1.0012750">
        <ele>247.4</ele>
        <time>2019-01-01T09:32:26Z</time>
      </trkpt>
      <trkpt lat="41.7597600" lon="-1.0012560">
        <ele>248.2</ele>
        <time>2019-01-01T09:32:29Z</time>
      </trkpt>
      <trkpt lat="41.7599990" lon="-1.0012180">
        <ele>249.2</ele>
        <time>2019-01-01T09:32:35Z</time>
      </trkpt>
      <trkpt lat="41.7600380" lon="-1.0012130">
        <ele>249.2</ele>
        <time>2019-01-01T09:32:36Z</time>
      </trkpt>
      <trkpt lat="41.7602470" lon="-1.0012300">
        <ele>249.6</ele>
        <time>2019-01-01T09:32:42Z</time>
      </trkpt>
      <trkpt lat="41.7602770" lon="-1.0012450">
        <ele>250.0</ele>
        <time>2019-01-01T09:32:43Z</time>
      </trkpt>
      <trkpt lat="41.7603030" lon="-1.0012730">
        <ele>250.2</ele>
        <time>2019-01-01T09:32:44Z</time>
      </trkpt>
      <trkpt lat="41.7603230" lon="-1.0013070">
        <ele>250.6</ele>
        <time>2019-01-01T09:32:45Z</time>
      </trkpt>
      <trkpt lat="41.7603550" lon="-1.0013810">
        <ele>250.8</ele>
        <time>2019-01-01T09:32:47Z</time>
      </trkpt>
      <trkpt lat="41.7603950" lon="-1.0014940">
        <ele>251.6</ele>
        <time>2019-01-01T09:32:50Z</time>
      </trkpt>
      <trkpt lat="41.7604260" lon="-1.0015850">
        <ele>252.0</ele>
        <time>2019-01-01T09:32:52Z</time>
      </trkpt>
      <trkpt lat="41.7605500" lon="-1.0019230">
        <ele>252.6</ele>
        <time>2019-01-01T09:32:59Z</time>
      </trkpt>
      <trkpt lat="41.7605990" lon="-1.0020550">
        <ele>252.8</ele>
        <time>2019-01-01T09:33:02Z</time>
      </trkpt>
      <trkpt lat="41.7606770" lon="-1.0022730">
        <ele>253.6</ele>
        <time>2019-01-01T09:33:07Z</time>
      </trkpt>
      <trkpt lat="41.7607390" lon="-1.0024640">
        <ele>254.2</ele>
        <time>2019-01-01T09:33:11Z</time>
      </trkpt>
      <trkpt lat="41.7608870" lon="-1.0029520">
        <ele>254.4</ele>
        <time>2019-01-01T09:33:21Z</time>
      </trkpt>
      <trkpt lat="41.7609810" lon="-1.0033070">
        <ele>254.6</ele>
        <time>2019-01-01T09:33:28Z</time>
      </trkpt>
      <trkpt lat="41.7609930" lon="-1.0033580">
        <ele>254.8</ele>
        <time>2019-01-01T09:33:29Z</time>
      </trkpt>
      <trkpt lat="41.7610820" lon="-1.0038910">
        <ele>255.4</ele>
        <time>2019-01-01T09:33:39Z</time>
      </trkpt>
      <trkpt lat="41.7611680" lon="-1.0042870">
        <ele>255.2</ele>
        <time>2019-01-01T09:33:46Z</time>
      </trkpt>
      <trkpt lat="41.7612020" lon="-1.0043880">
        <ele>255.6</ele>
        <time>2019-01-01T09:33:48Z</time>
      </trkpt>
      <trkpt lat="41.7612600" lon="-1.0045700">
        <ele>256.4</ele>
        <time>2019-01-01T09:33:52Z</time>
      </trkpt>
      <trkpt lat="41.7613210" lon="-1.0047740">
        <ele>256.8</ele>
        <time>2019-01-01T09:33:56Z</time>
      </trkpt>
      <trkpt lat="41.7613740" lon="-1.0050030">
        <ele>256.8</ele>
        <time>2019-01-01T09:34:00Z</time>
      </trkpt>
      <trkpt lat="41.7614440" lon="-1.0053100">
        <ele>255.8</ele>
        <time>2019-01-01T09:34:05Z</time>
      </trkpt>
      <trkpt lat="41.7614730" lon="-1.0054420">
        <ele>255.4</ele>
        <time>2019-01-01T09:34:07Z</time>
      </trkpt>
      <trkpt lat="41.7615760" lon="-1.0058750">
        <ele>254.6</ele>
        <time>2019-01-01T09:34:13Z</time>
      </trkpt>
      <trkpt lat="41.7615940" lon="-1.0059510">
        <ele>254.4</ele>
        <time>2019-01-01T09:34:14Z</time>
      </trkpt>
      <trkpt lat="41.7616570" lon="-1.0061810">
        <ele>253.4</ele>
        <time>2019-01-01T09:34:17Z</time>
      </trkpt>
      <trkpt lat="41.7617790" lon="-1.0064770">
        <ele>252.4</ele>
        <time>2019-01-01T09:34:21Z</time>
      </trkpt>
      <trkpt lat="41.7619480" lon="-1.0067450">
        <ele>250.8</ele>
        <time>2019-01-01T09:34:25Z</time>
      </trkpt>
      <trkpt lat="41.7619820" lon="-1.0068170">
        <ele>250.6</ele>
        <time>2019-01-01T09:34:26Z</time>
      </trkpt>
      <trkpt lat="41.7620100" lon="-1.0068930">
        <ele>250.4</ele>
        <time>2019-01-01T09:34:27Z</time>
      </trkpt>
      <trkpt lat="41.7620500" lon="-1.0070420">
        <ele>249.8</ele>
        <time>2019-01-01T09:34:29Z</time>
      </trkpt>
      <trkpt lat="41.7620720" lon="-1.0071090">
        <ele>249.6</ele>
        <time>2019-01-01T09:34:30Z</time>
      </trkpt>
      <trkpt lat="41.7621180" lon="-1.0072290">
        <ele>249.6</ele>
        <time>2019-01-01T09:34:32Z</time>
      </trkpt>
      <trkpt lat="41.7622740" lon="-1.0076680">
        <ele>249.4</ele>
        <time>2019-01-01T09:34:40Z</time>
      </trkpt>
      <trkpt lat="41.7624090" lon="-1.0081480">
        <ele>250.0</ele>
        <time>2019-01-01T09:34:49Z</time>
      </trkpt>
      <trkpt lat="41.7625300" lon="-1.0086160">
        <ele>250.8</ele>
        <time>2019-01-01T09:34:58Z</time>
      </trkpt>
      <trkpt lat="41.7625430" lon="-1.0086690">
        <ele>251.0</ele>
        <time>2019-01-01T09:34:59Z</time>
      </trkpt>
      <trkpt lat="41.7625850" lon="-1.0089390">
        <ele>251.2</ele>
        <time>2019-01-01T09:35:04Z</time>
      </trkpt>
      <trkpt lat="41.7625720" lon="-1.0090530">
        <ele>251.2</ele>
        <time>2019-01-01T09:35:06Z</time>
      </trkpt>
      <trkpt lat="41.7624870" lon="-1.0092470">
        <ele>251.2</ele>
        <time>2019-01-01T09:35:10Z</time>
      </trkpt>
      <trkpt lat="41.7624590" lon="-1.0092910">
        <ele>251.4</ele>
        <time>2019-01-01T09:35:11Z</time>
      </trkpt>
      <trkpt lat="41.7623680" lon="-1.0094230">
        <ele>251.8</ele>
        <time>2019-01-01T09:35:14Z</time>
      </trkpt>
      <trkpt lat="41.7623330" lon="-1.0094660">
        <ele>252.0</ele>
        <time>2019-01-01T09:35:15Z</time>
      </trkpt>
      <trkpt lat="41.7622290" lon="-1.0095800">
        <ele>252.0</ele>
        <time>2019-01-01T09:35:18Z</time>
      </trkpt>
      <trkpt lat="41.7619800" lon="-1.0098890">
        <ele>252.8</ele>
        <time>2019-01-01T09:35:26Z</time>
      </trkpt>
      <trkpt lat="41.7619190" lon="-1.0099700">
        <ele>252.8</ele>
        <time>2019-01-01T09:35:28Z</time>
      </trkpt>
      <trkpt lat="41.7616630" lon="-1.0103080">
        <ele>253.0</ele>
        <time>2019-01-01T09:35:36Z</time>
      </trkpt>
      <trkpt lat="41.7614310" lon="-1.0106210">
        <ele>252.8</ele>
        <time>2019-01-01T09:35:43Z</time>
      </trkpt>
      <trkpt lat="41.7611340" lon="-1.0110170">
        <ele>251.8</ele>
        <time>2019-01-01T09:35:51Z</time>
      </trkpt>
      <trkpt lat="41.7610940" lon="-1.0110670">
        <ele>251.6</ele>
        <time>2019-01-01T09:35:52Z</time>
      </trkpt>
      <trkpt lat="41.7608460" lon="-1.0113910">
        <ele>250.4</ele>
        <time>2019-01-01T09:35:58Z</time>
      </trkpt>
      <trkpt lat="41.7608040" lon="-1.0114460">
        <ele>250.0</ele>
        <time>2019-01-01T09:35:59Z</time>
      </trkpt>
      <trkpt lat="41.7607190" lon="-1.0115570">
        <ele>249.4</ele>
        <time>2019-01-01T09:36:01Z</time>
      </trkpt>
      <trkpt lat="41.7604930" lon="-1.0118380">
        <ele>248.0</ele>
        <time>2019-01-01T09:36:06Z</time>
      </trkpt>
      <trkpt lat="41.7604460" lon="-1.0118960">
        <ele>247.6</ele>
        <time>2019-01-01T09:36:07Z</time>
      </trkpt>
      <trkpt lat="41.7602750" lon="-1.0121400">
        <ele>247.0</ele>
        <time>2019-01-01T09:36:11Z</time>
      </trkpt>
      <trkpt lat="41.7601590" lon="-1.0123210">
        <ele>247.2</ele>
        <time>2019-01-01T09:36:14Z</time>
      </trkpt>
      <trkpt lat="41.7599370" lon="-1.0126980">
        <ele>248.0</ele>
        <time>2019-01-01T09:36:20Z</time>
      </trkpt>
      <trkpt lat="41.7599050" lon="-1.0127720">
        <ele>248.4</ele>
        <time>2019-01-01T09:36:21Z</time>
      </trkpt>
      <trkpt lat="41.7598460" lon="-1.0129250">
        <ele>249.0</ele>
        <time>2019-01-01T09:36:23Z</time>
      </trkpt>
      <trkpt lat="41.7598210" lon="-1.0130050">
        <ele>249.2</ele>
        <time>2019-01-01T09:36:24Z</time>
      </trkpt>
      <trkpt lat="41.7597780" lon="-1.0131660">
        <ele>250.2</ele>
        <time>2019-01-01T09:36:26Z</time>
      </trkpt>
      <trkpt lat="41.7597590" lon="-1.0132450">
        <ele>250.8</ele>
        <time>2019-01-01T09:36:27Z</time>
      </trkpt>
      <trkpt lat="41.7597220" lon="-1.0134000">
        <ele>251.8</ele>
        <time>2019-01-01T09:36:29Z</time>
      </trkpt>
      <trkpt lat="41.7596760" lon="-1.0135410">
        <ele>252.6</ele>
        <time>2019-01-01T09:36:31Z</time>
      </trkpt>
      <trkpt lat="41.7596430" lon="-1.0136080">
        <ele>253.0</ele>
        <time>2019-01-01T09:36:32Z</time>
      </trkpt>
      <trkpt lat="41.7594490" lon="-1.0138870">
        <ele>253.4</ele>
        <time>2019-01-01T09:36:36Z</time>
      </trkpt>
      <trkpt lat="41.7592920" lon="-1.0140920">
        <ele>254.4</ele>
        <time>2019-01-01T09:36:39Z</time>
      </trkpt>
      <trkpt lat="41.7591980" lon="-1.0142170">
        <ele>255.2</ele>
        <time>2019-01-01T09:36:41Z</time>
      </trkpt>
      <trkpt lat="41.7591070" lon="-1.0143300">
        <ele>256.2</ele>
        <time>2019-01-01T09:36:43Z</time>
      </trkpt>
      <trkpt lat="41.7590600" lon="-1.0143830">
        <ele>256.4</ele>
        <time>2019-01-01T09:36:44Z</time>
      </trkpt>
      <trkpt lat="41.7587540" lon="-1.0147220">
        <ele>255.8</ele>
        <time>2019-01-01T09:36:50Z</time>
      </trkpt>
      <trkpt lat="41.7586970" lon="-1.0147800">
        <ele>255.2</ele>
        <time>2019-01-01T09:36:51Z</time>
      </trkpt>
      <trkpt lat="41.7585310" lon="-1.0149700">
        <ele>253.6</ele>
        <time>2019-01-01T09:36:54Z</time>
      </trkpt>
      <trkpt lat="41.7584720" lon="-1.0150270">
        <ele>253.4</ele>
        <time>2019-01-01T09:36:55Z</time>
      </trkpt>
      <trkpt lat="41.7584060" lon="-1.0150730">
        <ele>253.2</ele>
        <time>2019-01-01T09:36:56Z</time>
      </trkpt>
      <trkpt lat="41.7582500" lon="-1.0151410">
        <ele>252.2</ele>
        <time>2019-01-01T09:36:58Z</time>
      </trkpt>
      <trkpt lat="41.7581580" lon="-1.0151690">
        <ele>251.6</ele>
        <time>2019-01-01T09:36:59Z</time>
      </trkpt>
      <trkpt lat="41.7580610" lon="-1.0152080">
        <ele>250.6</ele>
        <time>2019-01-01T09:37:00Z</time>
      </trkpt>
      <trkpt lat="41.7579640" lon="-1.0152590">
        <ele>249.2</ele>
        <time>2019-01-01T09:37:01Z</time>
      </trkpt>
      <trkpt lat="41.7577840" lon="-1.0154000">
        <ele>246.6</ele>
        <time>2019-01-01T09:37:03Z</time>
      </trkpt>
      <trkpt lat="41.7577030" lon="-1.0154870">
        <ele>245.6</ele>
        <time>2019-01-01T09:37:04Z</time>
      </trkpt>
      <trkpt lat="41.7576240" lon="-1.0155760">
        <ele>245.0</ele>
        <time>2019-01-01T09:37:05Z</time>
      </trkpt>
      <trkpt lat="41.7574910" lon="-1.0157410">
        <ele>244.8</ele>
        <time>2019-01-01T09:37:07Z</time>
      </trkpt>
      <trkpt lat="41.7573020" lon="-1.0160070">
        <ele>246.0</ele>
        <time>2019-01-01T09:37:11Z</time>
      </trkpt>
      <trkpt lat="41.7572350" lon="-1.0160940">
        <ele>246.8</ele>
        <time>2019-01-01T09:37:13Z</time>
      </trkpt>
      <trkpt lat="41.7571840" lon="-1.0161500">
        <ele>247.6</ele>
        <time>2019-01-01T09:37:15Z</time>
      </trkpt>
      <trkpt lat="41.7571390" lon="-1.0162000">
        <ele>248.2</ele>
        <time>2019-01-01T09:37:17Z</time>
      </trkpt>
      <trkpt lat="41.7570550" lon="-1.0163220">
        <ele>248.4</ele>
        <time>2019-01-01T09:37:22Z</time>
      </trkpt>
      <trkpt lat="41.7570570" lon="-1.0163860">
        <ele>248.6</ele>
        <time>2019-01-01T09:37:25Z</time>
      </trkpt>
      <trkpt lat="41.7570660" lon="-1.0164000">
        <ele>248.6</ele>
        <time>2019-01-01T09:37:26Z</time>
      </trkpt>
      <trkpt lat="41.7571130" lon="-1.0165200">
        <ele>248.4</ele>
        <time>2019-01-01T09:37:33Z</time>
      </trkpt>
      <trkpt lat="41.7571080" lon="-1.0165320">
        <ele>248.4</ele>
        <time>2019-01-01T09:37:34Z</time>
      </trkpt>
      <trkpt lat="41.7570830" lon="-1.0165400">
        <ele>248.4</ele>
        <time>2019-01-01T09:37:39Z</time>
      </trkpt>
      <trkpt lat="41.7570790" lon="-1.0165250">
        <ele>248.6</ele>
        <time>2019-01-01T09:37:40Z</time>
      </trkpt>
      <trkpt lat="41.7571140" lon="-1.0165080">
        <ele>248.2</ele>
        <time>2019-01-01T09:37:44Z</time>
      </trkpt>
      <trkpt lat="41.7571130" lon="-1.0165490">
        <ele>248.2</ele>
        <time>2019-01-01T09:37:49Z</time>
      </trkpt>
      <trkpt lat="41.7571030" lon="-1.0164930">
        <ele>248.4</ele>
        <time>2019-01-01T09:37:55Z</time>
      </trkpt>
      <trkpt lat="41.7570950" lon="-1.0164110">
        <ele>248.4</ele>
        <time>2019-01-01T09:37:59Z</time>
      </trkpt>
      <trkpt lat="41.7570800" lon="-1.0163990">
        <ele>248.4</ele>
        <time>2019-01-01T09:38:00Z</time>
      </trkpt>
      <trkpt lat="41.7570610" lon="-1.0164360">
        <ele>248.4</ele>
        <time>2019-01-01T09:38:03Z</time>
      </trkpt>
      <trkpt lat="41.7571210" lon="-1.0164890">
        <ele>248.2</ele>
        <time>2019-01-01T09:38:08Z</time>
      </trkpt>
      <trkpt lat="41.7571210" lon="-1.0165070">
        <ele>248.0</ele>
        <time>2019-01-01T09:38:12Z</time>
      </trkpt>
      <trkpt lat="41.7571000" lon="-1.0164090">
        <ele>248.2</ele>
        <time>2019-01-01T09:46:54Z</time>
      </trkpt>
      <trkpt lat="41.7570840" lon="-1.0163600">
        <ele>248.4</ele>
        <time>2019-01-01T09:46:56Z</time>
      </trkpt>
      <trkpt lat="41.7570730" lon="-1.0163080">
        <ele>248.4</ele>
        <time>2019-01-01T09:46:58Z</time>
      </trkpt>
      <trkpt lat="41.7570950" lon="-1.0162510">
        <ele>248.4</ele>
        <time>2019-01-01T09:47:00Z</time>
      </trkpt>
      <trkpt lat="41.7571680" lon="-1.0161800">
        <ele>248.6</ele>
        <time>2019-01-01T09:47:03Z</time>
      </trkpt>
      <trkpt lat="41.7572540" lon="-1.0160870">
        <ele>248.4</ele>
        <time>2019-01-01T09:47:06Z</time>
      </trkpt>
      <trkpt lat="41.7573230" lon="-1.0160080">
        <ele>248.2</ele>
        <time>2019-01-01T09:47:08Z</time>
      </trkpt>
      <trkpt lat="41.7574040" lon="-1.0158990">
        <ele>247.4</ele>
        <time>2019-01-01T09:47:10Z</time>
      </trkpt>
      <trkpt lat="41.7574450" lon="-1.0158400">
        <ele>247.0</ele>
        <time>2019-01-01T09:47:11Z</time>
      </trkpt>
      <trkpt lat="41.7575790" lon="-1.0156640">
        <ele>246.0</ele>
        <time>2019-01-01T09:47:14Z</time>
      </trkpt>
      <trkpt lat="41.7577320" lon="-1.0154960">
        <ele>245.2</ele>
        <time>2019-01-01T09:47:17Z</time>
      </trkpt>
      <trkpt lat="41.7577850" lon="-1.0154370">
        <ele>244.4</ele>
        <time>2019-01-01T09:47:18Z</time>
      </trkpt>
      <trkpt lat="41.7579670" lon="-1.0152470">
        <ele>243.8</ele>
        <time>2019-01-01T09:47:22Z</time>
      </trkpt>
      <trkpt lat="41.7580100" lon="-1.0152160">
        <ele>243.8</ele>
        <time>2019-01-01T09:47:23Z</time>
      </trkpt>
      <trkpt lat="41.7581400" lon="-1.0151530">
        <ele>244.4</ele>
        <time>2019-01-01T09:47:26Z</time>
      </trkpt>
      <trkpt lat="41.7581800" lon="-1.0151410">
        <ele>244.6</ele>
        <time>2019-01-01T09:47:27Z</time>
      </trkpt>
      <trkpt lat="41.7582490" lon="-1.0151240">
        <ele>245.8</ele>
        <time>2019-01-01T09:47:29Z</time>
      </trkpt>
      <trkpt lat="41.7583120" lon="-1.0151080">
        <ele>246.8</ele>
        <time>2019-01-01T09:47:31Z</time>
      </trkpt>
      <trkpt lat="41.7583740" lon="-1.0150860">
        <ele>247.8</ele>
        <time>2019-01-01T09:47:33Z</time>
      </trkpt>
      <trkpt lat="41.7584020" lon="-1.0150740">
        <ele>248.2</ele>
        <time>2019-01-01T09:47:34Z</time>
      </trkpt>
      <trkpt lat="41.7584820" lon="-1.0150290">
        <ele>249.4</ele>
        <time>2019-01-01T09:47:37Z</time>
      </trkpt>
      <trkpt lat="41.7585540" lon="-1.0149620">
        <ele>250.8</ele>
        <time>2019-01-01T09:47:40Z</time>
      </trkpt>
      <trkpt lat="41.7585770" lon="-1.0149350">
        <ele>251.2</ele>
        <time>2019-01-01T09:47:41Z</time>
      </trkpt>
      <trkpt lat="41.7586530" lon="-1.0148520">
        <ele>252.0</ele>
        <time>2019-01-01T09:47:44Z</time>
      </trkpt>
      <trkpt lat="41.7588030" lon="-1.0146920">
        <ele>252.6</ele>
        <time>2019-01-01T09:47:50Z</time>
      </trkpt>
      <trkpt lat="41.7588550" lon="-1.0146390">
        <ele>253.2</ele>
        <time>2019-01-01T09:47:52Z</time>
      </trkpt>
      <trkpt lat="41.7589600" lon="-1.0145300">
        <ele>254.4</ele>
        <time>2019-01-01T09:47:56Z</time>
      </trkpt>
      <trkpt lat="41.7590440" lon="-1.0144350">
        <ele>255.0</ele>
        <time>2019-01-01T09:47:59Z</time>
      </trkpt>
      <trkpt lat="41.7591200" lon="-1.0143350">
        <ele>255.4</ele>
        <time>2019-01-01T09:48:02Z</time>
      </trkpt>
      <trkpt lat="41.7592580" lon="-1.0141590">
        <ele>255.6</ele>
        <time>2019-01-01T09:48:07Z</time>
      </trkpt>
      <trkpt lat="41.7594740" lon="-1.0138830">
        <ele>255.2</ele>
        <time>2019-01-01T09:48:13Z</time>
      </trkpt>
      <trkpt lat="41.7596360" lon="-1.0136560">
        <ele>254.2</ele>
        <time>2019-01-01T09:48:17Z</time>
      </trkpt>
      <trkpt lat="41.7597430" lon="-1.0134760">
        <ele>253.8</ele>
        <time>2019-01-01T09:48:20Z</time>
      </trkpt>
      <trkpt lat="41.7598270" lon="-1.0131760">
        <ele>253.2</ele>
        <time>2019-01-01T09:48:24Z</time>
      </trkpt>
      <trkpt lat="41.7598490" lon="-1.0130890">
        <ele>253.0</ele>
        <time>2019-01-01T09:48:25Z</time>
      </trkpt>
      <trkpt lat="41.7599670" lon="-1.0127300">
        <ele>251.6</ele>
        <time>2019-01-01T09:48:29Z</time>
      </trkpt>
      <trkpt lat="41.7600090" lon="-1.0126410">
        <ele>251.2</ele>
        <time>2019-01-01T09:48:30Z</time>
      </trkpt>
      <trkpt lat="41.7601050" lon="-1.0124670">
        <ele>250.2</ele>
        <time>2019-01-01T09:48:32Z</time>
      </trkpt>
      <trkpt lat="41.7602100" lon="-1.0123030">
        <ele>249.0</ele>
        <time>2019-01-01T09:48:34Z</time>
      </trkpt>
      <trkpt lat="41.7602600" lon="-1.0122190">
        <ele>248.6</ele>
        <time>2019-01-01T09:48:35Z</time>
      </trkpt>
      <trkpt lat="41.7603680" lon="-1.0120540">
        <ele>247.8</ele>
        <time>2019-01-01T09:48:37Z</time>
      </trkpt>
      <trkpt lat="41.7606400" lon="-1.0116920">
        <ele>247.0</ele>
        <time>2019-01-01T09:48:42Z</time>
      </trkpt>
      <trkpt lat="41.7608560" lon="-1.0114200">
        <ele>248.2</ele>
        <time>2019-01-01T09:48:47Z</time>
      </trkpt>
      <trkpt lat="41.7610730" lon="-1.0111310">
        <ele>249.0</ele>
        <time>2019-01-01T09:48:53Z</time>
      </trkpt>
      <trkpt lat="41.7613870" lon="-1.0107190">
        <ele>250.4</ele>
        <time>2019-01-01T09:49:02Z</time>
      </trkpt>
      <trkpt lat="41.7616300" lon="-1.0104000">
        <ele>251.6</ele>
        <time>2019-01-01T09:49:09Z</time>
      </trkpt>
      <trkpt lat="41.7616660" lon="-1.0103520">
        <ele>251.8</ele>
        <time>2019-01-01T09:49:10Z</time>
      </trkpt>
      <trkpt lat="41.7619340" lon="-1.0100010">
        <ele>252.4</ele>
        <time>2019-01-01T09:49:17Z</time>
      </trkpt>
      <trkpt lat="41.7621680" lon="-1.0096880">
        <ele>252.6</ele>
        <time>2019-01-01T09:49:23Z</time>
      </trkpt>
      <trkpt lat="41.7623430" lon="-1.0094730">
        <ele>252.4</ele>
        <time>2019-01-01T09:49:27Z</time>
      </trkpt>
      <trkpt lat="41.7624730" lon="-1.0092960">
        <ele>251.6</ele>
        <time>2019-01-01T09:49:30Z</time>
      </trkpt>
      <trkpt lat="41.7625460" lon="-1.0091710">
        <ele>251.2</ele>
        <time>2019-01-01T09:49:32Z</time>
      </trkpt>
      <trkpt lat="41.7625770" lon="-1.0091020">
        <ele>251.0</ele>
        <time>2019-01-01T09:49:33Z</time>
      </trkpt>
      <trkpt lat="41.7626190" lon="-1.0088530">
        <ele>250.8</ele>
        <time>2019-01-01T09:49:36Z</time>
      </trkpt>
      <trkpt lat="41.7625780" lon="-1.0086010">
        <ele>250.6</ele>
        <time>2019-01-01T09:49:39Z</time>
      </trkpt>
      <trkpt lat="41.7625570" lon="-1.0085200">
        <ele>250.4</ele>
        <time>2019-01-01T09:49:40Z</time>
      </trkpt>
      <trkpt lat="41.7623730" lon="-1.0078620">
        <ele>249.8</ele>
        <time>2019-01-01T09:49:48Z</time>
      </trkpt>
      <trkpt lat="41.7621960" lon="-1.0073470">
        <ele>249.6</ele>
        <time>2019-01-01T09:49:54Z</time>
      </trkpt>
      <trkpt lat="41.7621660" lon="-1.0072600">
        <ele>249.6</ele>
        <time>2019-01-01T09:49:55Z</time>
      </trkpt>
      <trkpt lat="41.7621350" lon="-1.0071710">
        <ele>249.2</ele>
        <time>2019-01-01T09:49:56Z</time>
      </trkpt>
      <trkpt lat="41.7621080" lon="-1.0070820">
        <ele>249.0</ele>
        <time>2019-01-01T09:49:57Z</time>
      </trkpt>
      <trkpt lat="41.7620660" lon="-1.0069260">
        <ele>248.4</ele>
        <time>2019-01-01T09:49:59Z</time>
      </trkpt>
      <trkpt lat="41.7620380" lon="-1.0068670">
        <ele>248.0</ele>
        <time>2019-01-01T09:50:00Z</time>
      </trkpt>
      <trkpt lat="41.7619410" lon="-1.0066900">
        <ele>247.2</ele>
        <time>2019-01-01T09:50:03Z</time>
      </trkpt>
      <trkpt lat="41.7618300" lon="-1.0065230">
        <ele>248.2</ele>
        <time>2019-01-01T09:50:06Z</time>
      </trkpt>
      <trkpt lat="41.7617960" lon="-1.0064670">
        <ele>248.4</ele>
        <time>2019-01-01T09:50:07Z</time>
      </trkpt>
      <trkpt lat="41.7616830" lon="-1.0062360">
        <ele>249.4</ele>
        <time>2019-01-01T09:50:11Z</time>
      </trkpt>
      <trkpt lat="41.7616220" lon="-1.0060740">
        <ele>249.8</ele>
        <time>2019-01-01T09:50:14Z</time>
      </trkpt>
      <trkpt lat="41.7615740" lon="-1.0059070">
        <ele>250.6</ele>
        <time>2019-01-01T09:50:17Z</time>
      </trkpt>
      <trkpt lat="41.7615400" lon="-1.0057310">
        <ele>251.4</ele>
        <time>2019-01-01T09:50:20Z</time>
      </trkpt>
      <trkpt lat="41.7615320" lon="-1.0056700">
        <ele>251.4</ele>
        <time>2019-01-01T09:50:21Z</time>
      </trkpt>
      <trkpt lat="41.7615240" lon="-1.0056090">
        <ele>252.0</ele>
        <time>2019-01-01T09:50:22Z</time>
      </trkpt>
      <trkpt lat="41.7615120" lon="-1.0055470">
        <ele>252.4</ele>
        <time>2019-01-01T09:50:23Z</time>
      </trkpt>
      <trkpt lat="41.7614690" lon="-1.0053480">
        <ele>253.0</ele>
        <time>2019-01-01T09:50:26Z</time>
      </trkpt>
      <trkpt lat="41.7614520" lon="-1.0052800">
        <ele>253.2</ele>
        <time>2019-01-01T09:50:27Z</time>
      </trkpt>
      <trkpt lat="41.7614040" lon="-1.0050830">
        <ele>254.2</ele>
        <time>2019-01-01T09:50:30Z</time>
      </trkpt>
      <trkpt lat="41.7613350" lon="-1.0047520">
        <ele>255.2</ele>
        <time>2019-01-01T09:50:35Z</time>
      </trkpt>
      <trkpt lat="41.7613030" lon="-1.0046220">
        <ele>255.4</ele>
        <time>2019-01-01T09:50:37Z</time>
      </trkpt>
      <trkpt lat="41.7612210" lon="-1.0043760">
        <ele>255.8</ele>
        <time>2019-01-01T09:50:41Z</time>
      </trkpt>
      <trkpt lat="41.7611060" lon="-1.0039900">
        <ele>255.4</ele>
        <time>2019-01-01T09:50:46Z</time>
      </trkpt>
      <trkpt lat="41.7609870" lon="-1.0033450">
        <ele>254.8</ele>
        <time>2019-01-01T09:50:54Z</time>
      </trkpt>
      <trkpt lat="41.7608430" lon="-1.0028260">
        <ele>254.0</ele>
        <time>2019-01-01T09:51:01Z</time>
      </trkpt>
      <trkpt lat="41.7608190" lon="-1.0027540">
        <ele>254.0</ele>
        <time>2019-01-01T09:51:02Z</time>
      </trkpt>
      <trkpt lat="41.7605870" lon="-1.0020400">
        <ele>253.4</ele>
        <time>2019-01-01T09:51:12Z</time>
      </trkpt>
      <trkpt lat="41.7605390" lon="-1.0019000">
        <ele>253.0</ele>
        <time>2019-01-01T09:51:14Z</time>
      </trkpt>
      <trkpt lat="41.7604100" lon="-1.0015580">
        <ele>252.2</ele>
        <time>2019-01-01T09:51:19Z</time>
      </trkpt>
      <trkpt lat="41.7603220" lon="-1.0013400">
        <ele>252.4</ele>
        <time>2019-01-01T09:51:23Z</time>
      </trkpt>
      <trkpt lat="41.7603090" lon="-1.0012740">
        <ele>252.4</ele>
        <time>2019-01-01T09:51:24Z</time>
      </trkpt>
      <trkpt lat="41.7602930" lon="-1.0011160">
        <ele>251.8</ele>
        <time>2019-01-01T09:51:26Z</time>
      </trkpt>
      <trkpt lat="41.7602910" lon="-1.0010340">
        <ele>251.4</ele>
        <time>2019-01-01T09:51:27Z</time>
      </trkpt>
      <trkpt lat="41.7602940" lon="-1.0009540">
        <ele>251.0</ele>
        <time>2019-01-01T09:51:28Z</time>
      </trkpt>
      <trkpt lat="41.7603490" lon="-1.0005690">
        <ele>251.2</ele>
        <time>2019-01-01T09:51:33Z</time>
      </trkpt>
      <trkpt lat="41.7603380" lon="-1.0001330">
        <ele>250.6</ele>
        <time>2019-01-01T09:51:38Z</time>
      </trkpt>
      <trkpt lat="41.7602100" lon="-0.9996490">
        <ele>249.8</ele>
        <time>2019-01-01T09:51:43Z</time>
      </trkpt>
      <trkpt lat="41.7601640" lon="-0.9995510">
        <ele>249.6</ele>
        <time>2019-01-01T09:51:44Z</time>
      </trkpt>
      <trkpt lat="41.7599930" lon="-0.9992650">
        <ele>248.2</ele>
        <time>2019-01-01T09:51:47Z</time>
      </trkpt>
      <trkpt lat="41.7597120" lon="-0.9989380">
        <ele>247.4</ele>
        <time>2019-01-01T09:51:51Z</time>
      </trkpt>
      <trkpt lat="41.7596320" lon="-0.9988890">
        <ele>247.4</ele>
        <time>2019-01-01T09:51:52Z</time>
      </trkpt>
      <trkpt lat="41.7592850" lon="-0.9987400">
        <ele>247.0</ele>
        <time>2019-01-01T09:51:56Z</time>
      </trkpt>
      <trkpt lat="41.7592020" lon="-0.9986800">
        <ele>247.0</ele>
        <time>2019-01-01T09:51:57Z</time>
      </trkpt>
      <trkpt lat="41.7590460" lon="-0.9985160">
        <ele>245.8</ele>
        <time>2019-01-01T09:51:59Z</time>
      </trkpt>
      <trkpt lat="41.7589010" lon="-0.9983210">
        <ele>245.0</ele>
        <time>2019-01-01T09:52:01Z</time>
      </trkpt>
      <trkpt lat="41.7588250" lon="-0.9982280">
        <ele>244.0</ele>
        <time>2019-01-01T09:52:02Z</time>
      </trkpt>
      <trkpt lat="41.7586540" lon="-0.9980570">
        <ele>242.4</ele>
        <time>2019-01-01T09:52:04Z</time>
      </trkpt>
      <trkpt lat="41.7585630" lon="-0.9979780">
        <ele>241.4</ele>
        <time>2019-01-01T09:52:05Z</time>
      </trkpt>
      <trkpt lat="41.7584700" lon="-0.9979060">
        <ele>240.4</ele>
        <time>2019-01-01T09:52:06Z</time>
      </trkpt>
      <trkpt lat="41.7582790" lon="-0.9977750">
        <ele>239.2</ele>
        <time>2019-01-01T09:52:08Z</time>
      </trkpt>
      <trkpt lat="41.7580800" lon="-0.9976790">
        <ele>238.4</ele>
        <time>2019-01-01T09:52:10Z</time>
      </trkpt>
      <trkpt lat="41.7579800" lon="-0.9976440">
        <ele>237.8</ele>
        <time>2019-01-01T09:52:11Z</time>
      </trkpt>
      <trkpt lat="41.7577830" lon="-0.9975510">
        <ele>237.0</ele>
        <time>2019-01-01T09:52:13Z</time>
      </trkpt>
      <trkpt lat="41.7576930" lon="-0.9974830">
        <ele>236.4</ele>
        <time>2019-01-01T09:52:14Z</time>
      </trkpt>
      <trkpt lat="41.7575330" lon="-0.9973140">
        <ele>235.0</ele>
        <time>2019-01-01T09:52:16Z</time>
      </trkpt>
      <trkpt lat="41.7574620" lon="-0.9972200">
        <ele>234.4</ele>
        <time>2019-01-01T09:52:17Z</time>
      </trkpt>
      <trkpt lat="41.7573930" lon="-0.9971260">
        <ele>234.0</ele>
        <time>2019-01-01T09:52:18Z</time>
      </trkpt>
      <trkpt lat="41.7573240" lon="-0.9970310">
        <ele>233.8</ele>
        <time>2019-01-01T09:52:19Z</time>
      </trkpt>
      <trkpt lat="41.7571170" lon="-0.9967390">
        <ele>232.0</ele>
        <time>2019-01-01T09:52:22Z</time>
      </trkpt>
      <trkpt lat="41.7569720" lon="-0.9965400">
        <ele>230.4</ele>
        <time>2019-01-01T09:52:24Z</time>
      </trkpt>
      <trkpt lat="41.7568210" lon="-0.9963410">
        <ele>229.4</ele>
        <time>2019-01-01T09:52:26Z</time>
      </trkpt>
      <trkpt lat="41.7565890" lon="-0.9960260">
        <ele>228.0</ele>
        <time>2019-01-01T09:52:29Z</time>
      </trkpt>
      <trkpt lat="41.7565110" lon="-0.9959150">
        <ele>227.4</ele>
        <time>2019-01-01T09:52:30Z</time>
      </trkpt>
      <trkpt lat="41.7563520" lon="-0.9956980">
        <ele>226.8</ele>
        <time>2019-01-01T09:52:32Z</time>
      </trkpt>
      <trkpt lat="41.7560960" lon="-0.9954320">
        <ele>226.0</ele>
        <time>2019-01-01T09:52:35Z</time>
      </trkpt>
      <trkpt lat="41.7558140" lon="-0.9952240">
        <ele>225.4</ele>
        <time>2019-01-01T09:52:38Z</time>
      </trkpt>
      <trkpt lat="41.7556340" lon="-0.9950740">
        <ele>224.6</ele>
        <time>2019-01-01T09:52:40Z</time>
      </trkpt>
      <trkpt lat="41.7555500" lon="-0.9949880">
        <ele>224.2</ele>
        <time>2019-01-01T09:52:41Z</time>
      </trkpt>
      <trkpt lat="41.7553290" lon="-0.9946920">
        <ele>223.2</ele>
        <time>2019-01-01T09:52:44Z</time>
      </trkpt>
      <trkpt lat="41.7552600" lon="-0.9945920">
        <ele>222.8</ele>
        <time>2019-01-01T09:52:45Z</time>
      </trkpt>
      <trkpt lat="41.7550010" lon="-0.9941840">
        <ele>221.6</ele>
        <time>2019-01-01T09:52:49Z</time>
      </trkpt>
      <trkpt lat="41.7549460" lon="-0.9940770">
        <ele>221.4</ele>
        <time>2019-01-01T09:52:50Z</time>
      </trkpt>
      <trkpt lat="41.7548020" lon="-0.9937450">
        <ele>220.6</ele>
        <time>2019-01-01T09:52:53Z</time>
      </trkpt>
      <trkpt lat="41.7546640" lon="-0.9933880">
        <ele>219.2</ele>
        <time>2019-01-01T09:52:56Z</time>
      </trkpt>
      <trkpt lat="41.7545740" lon="-0.9931370">
        <ele>217.8</ele>
        <time>2019-01-01T09:52:58Z</time>
      </trkpt>
      <trkpt lat="41.7544900" lon="-0.9928940">
        <ele>216.6</ele>
        <time>2019-01-01T09:53:00Z</time>
      </trkpt>
      <trkpt lat="41.7543650" lon="-0.9925510">
        <ele>215.8</ele>
        <time>2019-01-01T09:53:03Z</time>
      </trkpt>
      <trkpt lat="41.7543200" lon="-0.9924440">
        <ele>215.6</ele>
        <time>2019-01-01T09:53:04Z</time>
      </trkpt>
      <trkpt lat="41.7542710" lon="-0.9923430">
        <ele>215.4</ele>
        <time>2019-01-01T09:53:05Z</time>
      </trkpt>
      <trkpt lat="41.7541610" lon="-0.9921660">
        <ele>215.0</ele>
        <time>2019-01-01T09:53:07Z</time>
      </trkpt>
      <trkpt lat="41.7541120" lon="-0.9920800">
        <ele>214.8</ele>
        <time>2019-01-01T09:53:08Z</time>
      </trkpt>
      <trkpt lat="41.7540600" lon="-0.9918950">
        <ele>214.8</ele>
        <time>2019-01-01T09:53:10Z</time>
      </trkpt>
      <trkpt lat="41.7539860" lon="-0.9915170">
        <ele>214.6</ele>
        <time>2019-01-01T09:53:14Z</time>
      </trkpt>
      <trkpt lat="41.7539370" lon="-0.9913170">
        <ele>214.2</ele>
        <time>2019-01-01T09:53:16Z</time>
      </trkpt>
      <trkpt lat="41.7538730" lon="-0.9910000">
        <ele>213.2</ele>
        <time>2019-01-01T09:53:19Z</time>
      </trkpt>
      <trkpt lat="41.7538140" lon="-0.9907850">
        <ele>212.0</ele>
        <time>2019-01-01T09:53:21Z</time>
      </trkpt>
      <trkpt lat="41.7537210" lon="-0.9905950">
        <ele>210.8</ele>
        <time>2019-01-01T09:53:23Z</time>
      </trkpt>
      <trkpt lat="41.7536140" lon="-0.9904200">
        <ele>209.6</ele>
        <time>2019-01-01T09:53:25Z</time>
      </trkpt>
      <trkpt lat="41.7534640" lon="-0.9901490">
        <ele>208.6</ele>
        <time>2019-01-01T09:53:28Z</time>
      </trkpt>
      <trkpt lat="41.7534240" lon="-0.9900490">
        <ele>208.4</ele>
        <time>2019-01-01T09:53:29Z</time>
      </trkpt>
      <trkpt lat="41.7533990" lon="-0.9899380">
        <ele>208.0</ele>
        <time>2019-01-01T09:53:30Z</time>
      </trkpt>
      <trkpt lat="41.7533860" lon="-0.9898160">
        <ele>207.2</ele>
        <time>2019-01-01T09:53:31Z</time>
      </trkpt>
      <trkpt lat="41.7534260" lon="-0.9895660">
        <ele>205.2</ele>
        <time>2019-01-01T09:53:33Z</time>
      </trkpt>
      <trkpt lat="41.7534760" lon="-0.9894520">
        <ele>203.8</ele>
        <time>2019-01-01T09:53:34Z</time>
      </trkpt>
      <trkpt lat="41.7536090" lon="-0.9892730">
        <ele>202.2</ele>
        <time>2019-01-01T09:53:36Z</time>
      </trkpt>
      <trkpt lat="41.7537650" lon="-0.9891540">
        <ele>200.8</ele>
        <time>2019-01-01T09:53:38Z</time>
      </trkpt>
      <trkpt lat="41.7539950" lon="-0.9889990">
        <ele>199.4</ele>
        <time>2019-01-01T09:53:41Z</time>
      </trkpt>
      <trkpt lat="41.7542040" lon="-0.9888310">
        <ele>198.8</ele>
        <time>2019-01-01T09:53:44Z</time>
      </trkpt>
      <trkpt lat="41.7542600" lon="-0.9887580">
        <ele>198.6</ele>
        <time>2019-01-01T09:53:45Z</time>
      </trkpt>
      <trkpt lat="41.7543110" lon="-0.9886800">
        <ele>198.2</ele>
        <time>2019-01-01T09:53:46Z</time>
      </trkpt>
      <trkpt lat="41.7544610" lon="-0.9884580">
        <ele>197.0</ele>
        <time>2019-01-01T09:53:49Z</time>
      </trkpt>
      <trkpt lat="41.7545510" lon="-0.9883180">
        <ele>196.8</ele>
        <time>2019-01-01T09:53:51Z</time>
      </trkpt>
      <trkpt lat="41.7547280" lon="-0.9879410">
        <ele>196.0</ele>
        <time>2019-01-01T09:53:56Z</time>
      </trkpt>
      <trkpt lat="41.7548510" lon="-0.9876250">
        <ele>195.0</ele>
        <time>2019-01-01T09:54:00Z</time>
      </trkpt>
      <trkpt lat="41.7549290" lon="-0.9874780">
        <ele>194.6</ele>
        <time>2019-01-01T09:54:02Z</time>
      </trkpt>
      <trkpt lat="41.7549710" lon="-0.9874110">
        <ele>194.4</ele>
        <time>2019-01-01T09:54:03Z</time>
      </trkpt>
      <trkpt lat="41.7550610" lon="-0.9872830">
        <ele>193.8</ele>
        <time>2019-01-01T09:54:05Z</time>
      </trkpt>
      <trkpt lat="41.7551410" lon="-0.9871460">
        <ele>193.4</ele>
        <time>2019-01-01T09:54:07Z</time>
      </trkpt>
      <trkpt lat="41.7551870" lon="-0.9869820">
        <ele>192.8</ele>
        <time>2019-01-01T09:54:09Z</time>
      </trkpt>
      <trkpt lat="41.7552070" lon="-0.9868130">
        <ele>192.0</ele>
        <time>2019-01-01T09:54:11Z</time>
      </trkpt>
      <trkpt lat="41.7552130" lon="-0.9867300">
        <ele>191.8</ele>
        <time>2019-01-01T09:54:12Z</time>
      </trkpt>
      <trkpt lat="41.7552190" lon="-0.9865680">
        <ele>191.6</ele>
        <time>2019-01-01T09:54:14Z</time>
      </trkpt>
      <trkpt lat="41.7552200" lon="-0.9863170">
        <ele>190.8</ele>
        <time>2019-01-01T09:54:17Z</time>
      </trkpt>
      <trkpt lat="41.7552250" lon="-0.9862380">
        <ele>190.6</ele>
        <time>2019-01-01T09:54:18Z</time>
      </trkpt>
      <trkpt lat="41.7552340" lon="-0.9861610">
        <ele>190.4</ele>
        <time>2019-01-01T09:54:19Z</time>
      </trkpt>
      <trkpt lat="41.7552890" lon="-0.9857760">
        <ele>189.2</ele>
        <time>2019-01-01T09:54:24Z</time>
      </trkpt>
      <trkpt lat="41.7553500" lon="-0.9852000">
        <ele>188.2</ele>
        <time>2019-01-01T09:54:31Z</time>
      </trkpt>
      <trkpt lat="41.7553800" lon="-0.9849510">
        <ele>187.6</ele>
        <time>2019-01-01T09:54:34Z</time>
      </trkpt>
      <trkpt lat="41.7553980" lon="-0.9847800">
        <ele>187.2</ele>
        <time>2019-01-01T09:54:36Z</time>
      </trkpt>
      <trkpt lat="41.7554050" lon="-0.9842660">
        <ele>186.2</ele>
        <time>2019-01-01T09:54:42Z</time>
      </trkpt>
      <trkpt lat="41.7553430" lon="-0.9838390">
        <ele>185.2</ele>
        <time>2019-01-01T09:54:47Z</time>
      </trkpt>
      <trkpt lat="41.7553000" lon="-0.9835840">
        <ele>184.8</ele>
        <time>2019-01-01T09:54:50Z</time>
      </trkpt>
      <trkpt lat="41.7552390" lon="-0.9832580">
        <ele>184.4</ele>
        <time>2019-01-01T09:54:54Z</time>
      </trkpt>
      <trkpt lat="41.7551990" lon="-0.9831060">
        <ele>184.2</ele>
        <time>2019-01-01T09:54:56Z</time>
      </trkpt>
      <trkpt lat="41.7551700" lon="-0.9830350">
        <ele>184.0</ele>
        <time>2019-01-01T09:54:57Z</time>
      </trkpt>
      <trkpt lat="41.7550090" lon="-0.9827770">
        <ele>183.4</ele>
        <time>2019-01-01T09:55:01Z</time>
      </trkpt>
      <trkpt lat="41.7549070" lon="-0.9826750">
        <ele>182.6</ele>
        <time>2019-01-01T09:55:03Z</time>
      </trkpt>
      <trkpt lat="41.7548530" lon="-0.9826330">
        <ele>182.4</ele>
        <time>2019-01-01T09:55:04Z</time>
      </trkpt>
      <trkpt lat="41.7547460" lon="-0.9825520">
        <ele>182.0</ele>
        <time>2019-01-01T09:55:06Z</time>
      </trkpt>
      <trkpt lat="41.7544790" lon="-0.9823760">
        <ele>181.2</ele>
        <time>2019-01-01T09:55:11Z</time>
      </trkpt>
      <trkpt lat="41.7543720" lon="-0.9823090">
        <ele>181.0</ele>
        <time>2019-01-01T09:55:13Z</time>
      </trkpt>
      <trkpt lat="41.7542150" lon="-0.9822270">
        <ele>180.6</ele>
        <time>2019-01-01T09:55:16Z</time>
      </trkpt>
      <trkpt lat="41.7541100" lon="-0.9821970">
        <ele>180.8</ele>
        <time>2019-01-01T09:55:18Z</time>
      </trkpt>
      <trkpt lat="41.7538990" lon="-0.9821450">
        <ele>180.2</ele>
        <time>2019-01-01T09:55:22Z</time>
      </trkpt>
      <trkpt lat="41.7536760" lon="-0.9820530">
        <ele>179.8</ele>
        <time>2019-01-01T09:55:26Z</time>
      </trkpt>
      <trkpt lat="41.7535030" lon="-0.9819500">
        <ele>179.2</ele>
        <time>2019-01-01T09:55:29Z</time>
      </trkpt>
      <trkpt lat="41.7533410" lon="-0.9818240">
        <ele>178.8</ele>
        <time>2019-01-01T09:55:32Z</time>
      </trkpt>
      <trkpt lat="41.7532910" lon="-0.9817760">
        <ele>178.6</ele>
        <time>2019-01-01T09:55:33Z</time>
      </trkpt>
      <trkpt lat="41.7531110" lon="-0.9815770">
        <ele>178.2</ele>
        <time>2019-01-01T09:55:37Z</time>
      </trkpt>
      <trkpt lat="41.7529380" lon="-0.9813680">
        <ele>177.8</ele>
        <time>2019-01-01T09:55:41Z</time>
      </trkpt>
      <trkpt lat="41.7529070" lon="-0.9813010">
        <ele>177.6</ele>
        <time>2019-01-01T09:55:42Z</time>
      </trkpt>
      <trkpt lat="41.7528450" lon="-0.9810680">
        <ele>177.0</ele>
        <time>2019-01-01T09:55:45Z</time>
      </trkpt>
      <trkpt lat="41.7528180" lon="-0.9809960">
        <ele>176.6</ele>
        <time>2019-01-01T09:55:46Z</time>
      </trkpt>
      <trkpt lat="41.7527060" lon="-0.9808190">
        <ele>176.2</ele>
        <time>2019-01-01T09:55:49Z</time>
      </trkpt>
      <trkpt lat="41.7526610" lon="-0.9807620">
        <ele>176.2</ele>
        <time>2019-01-01T09:55:50Z</time>
      </trkpt>
      <trkpt lat="41.7524770" lon="-0.9805260">
        <ele>175.8</ele>
        <time>2019-01-01T09:55:54Z</time>
      </trkpt>
      <trkpt lat="41.7523410" lon="-0.9803510">
        <ele>175.0</ele>
        <time>2019-01-01T09:55:57Z</time>
      </trkpt>
      <trkpt lat="41.7522070" lon="-0.9801700">
        <ele>174.6</ele>
        <time>2019-01-01T09:56:00Z</time>
      </trkpt>
      <trkpt lat="41.7520280" lon="-0.9799450">
        <ele>174.0</ele>
        <time>2019-01-01T09:56:04Z</time>
      </trkpt>
      <trkpt lat="41.7518930" lon="-0.9797880">
        <ele>173.8</ele>
        <time>2019-01-01T09:56:07Z</time>
      </trkpt>
      <trkpt lat="41.7517510" lon="-0.9796430">
        <ele>173.6</ele>
        <time>2019-01-01T09:56:10Z</time>
      </trkpt>
      <trkpt lat="41.7514540" lon="-0.9793820">
        <ele>172.8</ele>
        <time>2019-01-01T09:56:16Z</time>
      </trkpt>
      <trkpt lat="41.7513490" lon="-0.9793090">
        <ele>172.6</ele>
        <time>2019-01-01T09:56:18Z</time>
      </trkpt>
      <trkpt lat="41.7512310" lon="-0.9792880">
        <ele>172.6</ele>
        <time>2019-01-01T09:56:20Z</time>
      </trkpt>
      <trkpt lat="41.7510820" lon="-0.9794080">
        <ele>172.2</ele>
        <time>2019-01-01T09:56:23Z</time>
      </trkpt>
      <trkpt lat="41.7509700" lon="-0.9796020">
        <ele>172.0</ele>
        <time>2019-01-01T09:56:26Z</time>
      </trkpt>
      <trkpt lat="41.7508670" lon="-0.9798090">
        <ele>171.8</ele>
        <time>2019-01-01T09:56:29Z</time>
      </trkpt>
      <trkpt lat="41.7508300" lon="-0.9798690">
        <ele>171.6</ele>
        <time>2019-01-01T09:56:30Z</time>
      </trkpt>
      <trkpt lat="41.7507900" lon="-0.9799230">
        <ele>171.4</ele>
        <time>2019-01-01T09:56:31Z</time>
      </trkpt>
      <trkpt lat="41.7506610" lon="-0.9800630">
        <ele>171.2</ele>
        <time>2019-01-01T09:56:34Z</time>
      </trkpt>
      <trkpt lat="41.7502860" lon="-0.9803380">
        <ele>170.2</ele>
        <time>2019-01-01T09:56:42Z</time>
      </trkpt>
      <trkpt lat="41.7502340" lon="-0.9803620">
        <ele>170.2</ele>
        <time>2019-01-01T09:56:43Z</time>
      </trkpt>
      <trkpt lat="41.7498760" lon="-0.9805360">
        <ele>169.4</ele>
        <time>2019-01-01T09:56:50Z</time>
      </trkpt>
      <trkpt lat="41.7497260" lon="-0.9805950">
        <ele>169.0</ele>
        <time>2019-01-01T09:56:53Z</time>
      </trkpt>
      <trkpt lat="41.7495750" lon="-0.9806320">
        <ele>168.4</ele>
        <time>2019-01-01T09:56:56Z</time>
      </trkpt>
      <trkpt lat="41.7492280" lon="-0.9807960">
        <ele>168.0</ele>
        <time>2019-01-01T09:57:03Z</time>
      </trkpt>
      <trkpt lat="41.7490990" lon="-0.9808700">
        <ele>168.0</ele>
        <time>2019-01-01T09:57:06Z</time>
      </trkpt>
      <trkpt lat="41.7489590" lon="-0.9809240">
        <ele>167.6</ele>
        <time>2019-01-01T09:57:09Z</time>
      </trkpt>
      <trkpt lat="41.7488250" lon="-0.9809520">
        <ele>167.0</ele>
        <time>2019-01-01T09:57:12Z</time>
      </trkpt>
      <trkpt lat="41.7486930" lon="-0.9809710">
        <ele>166.8</ele>
        <time>2019-01-01T09:57:15Z</time>
      </trkpt>
      <trkpt lat="41.7483590" lon="-0.9810650">
        <ele>166.0</ele>
        <time>2019-01-01T09:57:22Z</time>
      </trkpt>
      <trkpt lat="41.7482610" lon="-0.9811000">
        <ele>165.8</ele>
        <time>2019-01-01T09:57:24Z</time>
      </trkpt>
      <trkpt lat="41.7481130" lon="-0.9811390">
        <ele>165.4</ele>
        <time>2019-01-01T09:57:27Z</time>
      </trkpt>
      <trkpt lat="41.7480130" lon="-0.9811500">
        <ele>165.0</ele>
        <time>2019-01-01T09:57:29Z</time>
      </trkpt>
      <trkpt lat="41.7479200" lon="-0.9811490">
        <ele>164.8</ele>
        <time>2019-01-01T09:57:31Z</time>
      </trkpt>
      <trkpt lat="41.7478320" lon="-0.9811250">
        <ele>164.6</ele>
        <time>2019-01-01T09:57:33Z</time>
      </trkpt>
      <trkpt lat="41.7477860" lon="-0.9811050">
        <ele>164.4</ele>
        <time>2019-01-01T09:57:34Z</time>
      </trkpt>
      <trkpt lat="41.7476940" lon="-0.9810520">
        <ele>164.0</ele>
        <time>2019-01-01T09:57:36Z</time>
      </trkpt>
      <trkpt lat="41.7475750" lon="-0.9809310">
        <ele>163.6</ele>
        <time>2019-01-01T09:57:39Z</time>
      </trkpt>
      <trkpt lat="41.7475400" lon="-0.9808880">
        <ele>163.4</ele>
        <time>2019-01-01T09:57:40Z</time>
      </trkpt>
      <trkpt lat="41.7474210" lon="-0.9807840">
        <ele>163.2</ele>
        <time>2019-01-01T09:57:43Z</time>
      </trkpt>
      <trkpt lat="41.7473830" lon="-0.9807590">
        <ele>163.0</ele>
        <time>2019-01-01T09:57:44Z</time>
      </trkpt>
      <trkpt lat="41.7472020" lon="-0.9806410">
        <ele>162.6</ele>
        <time>2019-01-01T09:57:50Z</time>
      </trkpt>
      <trkpt lat="41.7471830" lon="-0.9806330">
        <ele>162.4</ele>
        <time>2019-01-01T09:57:51Z</time>
      </trkpt>
      <trkpt lat="41.7471560" lon="-0.9806170">
        <ele>162.4</ele>
        <time>2019-01-01T09:57:55Z</time>
      </trkpt>
      <trkpt lat="41.7471260" lon="-0.9805960">
        <ele>162.4</ele>
        <time>2019-01-01T09:58:06Z</time>
      </trkpt>
      <trkpt lat="41.7470840" lon="-0.9805610">
        <ele>162.2</ele>
        <time>2019-01-01T09:58:08Z</time>
      </trkpt>
      <trkpt lat="41.7468970" lon="-0.9804190">
        <ele>162.0</ele>
        <time>2019-01-01T09:58:14Z</time>
      </trkpt>
      <trkpt lat="41.7465580" lon="-0.9801450">
        <ele>161.6</ele>
        <time>2019-01-01T09:58:22Z</time>
      </trkpt>
      <trkpt lat="41.7463140" lon="-0.9799740">
        <ele>161.2</ele>
        <time>2019-01-01T09:58:27Z</time>
      </trkpt>
      <trkpt lat="41.7461690" lon="-0.9798670">
        <ele>161.0</ele>
        <time>2019-01-01T09:58:30Z</time>
      </trkpt>
      <trkpt lat="41.7459250" lon="-0.9796970">
        <ele>160.2</ele>
        <time>2019-01-01T09:58:35Z</time>
      </trkpt>
      <trkpt lat="41.7456420" lon="-0.9794870">
        <ele>159.8</ele>
        <time>2019-01-01T09:58:41Z</time>
      </trkpt>
      <trkpt lat="41.7455990" lon="-0.9794430">
        <ele>159.8</ele>
        <time>2019-01-01T09:58:42Z</time>
      </trkpt>
      <trkpt lat="41.7454800" lon="-0.9792780">
        <ele>159.6</ele>
        <time>2019-01-01T09:58:45Z</time>
      </trkpt>
      <trkpt lat="41.7454470" lon="-0.9792160">
        <ele>159.4</ele>
        <time>2019-01-01T09:58:46Z</time>
      </trkpt>
      <trkpt lat="41.7453310" lon="-0.9789530">
        <ele>159.0</ele>
        <time>2019-01-01T09:58:50Z</time>
      </trkpt>
      <trkpt lat="41.7452530" lon="-0.9787510">
        <ele>159.2</ele>
        <time>2019-01-01T09:58:53Z</time>
      </trkpt>
      <trkpt lat="41.7450460" lon="-0.9783150">
        <ele>158.4</ele>
        <time>2019-01-01T09:59:00Z</time>
      </trkpt>
      <trkpt lat="41.7449270" lon="-0.9779780">
        <ele>157.8</ele>
        <time>2019-01-01T09:59:05Z</time>
      </trkpt>
      <trkpt lat="41.7449050" lon="-0.9779090">
        <ele>157.6</ele>
        <time>2019-01-01T09:59:06Z</time>
      </trkpt>
      <trkpt lat="41.7447440" lon="-0.9774310">
        <ele>157.0</ele>
        <time>2019-01-01T09:59:13Z</time>
      </trkpt>
      <trkpt lat="41.7446410" lon="-0.9769080">
        <ele>157.0</ele>
        <time>2019-01-01T09:59:20Z</time>
      </trkpt>
      <trkpt lat="41.7446400" lon="-0.9767130">
        <ele>156.8</ele>
        <time>2019-01-01T09:59:22Z</time>
      </trkpt>
      <trkpt lat="41.7446290" lon="-0.9764900">
        <ele>156.0</ele>
        <time>2019-01-01T09:59:24Z</time>
      </trkpt>
      <trkpt lat="41.7446200" lon="-0.9763770">
        <ele>155.4</ele>
        <time>2019-01-01T09:59:25Z</time>
      </trkpt>
      <trkpt lat="41.7446000" lon="-0.9760370">
        <ele>153.8</ele>
        <time>2019-01-01T09:59:28Z</time>
      </trkpt>
      <trkpt lat="41.7446050" lon="-0.9758030">
        <ele>153.2</ele>
        <time>2019-01-01T09:59:30Z</time>
      </trkpt>
      <trkpt lat="41.7445950" lon="-0.9756890">
        <ele>153.0</ele>
        <time>2019-01-01T09:59:31Z</time>
      </trkpt>
      <trkpt lat="41.7445740" lon="-0.9755770">
        <ele>152.6</ele>
        <time>2019-01-01T09:59:32Z</time>
      </trkpt>
      <trkpt lat="41.7445480" lon="-0.9754630">
        <ele>152.4</ele>
        <time>2019-01-01T09:59:33Z</time>
      </trkpt>
      <trkpt lat="41.7444480" lon="-0.9749960">
        <ele>151.6</ele>
        <time>2019-01-01T09:59:37Z</time>
      </trkpt>
      <trkpt lat="41.7444290" lon="-0.9747610">
        <ele>151.4</ele>
        <time>2019-01-01T09:59:39Z</time>
      </trkpt>
      <trkpt lat="41.7444860" lon="-0.9743010">
        <ele>150.6</ele>
        <time>2019-01-01T09:59:43Z</time>
      </trkpt>
      <trkpt lat="41.7445100" lon="-0.9740750">
        <ele>150.4</ele>
        <time>2019-01-01T09:59:45Z</time>
      </trkpt>
      <trkpt lat="41.7445360" lon="-0.9737480">
        <ele>149.2</ele>
        <time>2019-01-01T09:59:48Z</time>
      </trkpt>
      <trkpt lat="41.7445570" lon="-0.9736410">
        <ele>149.0</ele>
        <time>2019-01-01T09:59:49Z</time>
      </trkpt>
      <trkpt lat="41.7446530" lon="-0.9732130">
        <ele>148.2</ele>
        <time>2019-01-01T09:59:53Z</time>
      </trkpt>
      <trkpt lat="41.7446770" lon="-0.9731080">
        <ele>148.2</ele>
        <time>2019-01-01T09:59:54Z</time>
      </trkpt>
      <trkpt lat="41.7448000" lon="-0.9725880">
        <ele>147.0</ele>
        <time>2019-01-01T09:59:59Z</time>
      </trkpt>
      <trkpt lat="41.7448190" lon="-0.9724820">
        <ele>147.0</ele>
        <time>2019-01-01T10:00:00Z</time>
      </trkpt>
      <trkpt lat="41.7448290" lon="-0.9722620">
        <ele>147.0</ele>
        <time>2019-01-01T10:00:02Z</time>
      </trkpt>
      <trkpt lat="41.7448250" lon="-0.9721520">
        <ele>146.4</ele>
        <time>2019-01-01T10:00:03Z</time>
      </trkpt>
      <trkpt lat="41.7448130" lon="-0.9720470">
        <ele>146.0</ele>
        <time>2019-01-01T10:00:04Z</time>
      </trkpt>
      <trkpt lat="41.7447970" lon="-0.9719410">
        <ele>145.6</ele>
        <time>2019-01-01T10:00:05Z</time>
      </trkpt>
      <trkpt lat="41.7447780" lon="-0.9717240">
        <ele>144.6</ele>
        <time>2019-01-01T10:00:07Z</time>
      </trkpt>
      <trkpt lat="41.7447420" lon="-0.9713000">
        <ele>144.0</ele>
        <time>2019-01-01T10:00:11Z</time>
      </trkpt>
      <trkpt lat="41.7446610" lon="-0.9705590">
        <ele>143.6</ele>
        <time>2019-01-01T10:00:18Z</time>
      </trkpt>
      <trkpt lat="41.7446610" lon="-0.9704580">
        <ele>143.6</ele>
        <time>2019-01-01T10:00:19Z</time>
      </trkpt>
      <trkpt lat="41.7446620" lon="-0.9703580">
        <ele>143.4</ele>
        <time>2019-01-01T10:00:20Z</time>
      </trkpt>
      <trkpt lat="41.7446560" lon="-0.9700100">
        <ele>142.2</ele>
        <time>2019-01-01T10:00:24Z</time>
      </trkpt>
      <trkpt lat="41.7446520" lon="-0.9698430">
        <ele>141.8</ele>
        <time>2019-01-01T10:00:26Z</time>
      </trkpt>
      <trkpt lat="41.7446330" lon="-0.9696850">
        <ele>141.4</ele>
        <time>2019-01-01T10:00:28Z</time>
      </trkpt>
      <trkpt lat="41.7446010" lon="-0.9694100">
        <ele>141.4</ele>
        <time>2019-01-01T10:00:32Z</time>
      </trkpt>
      <trkpt lat="41.7445870" lon="-0.9693580">
        <ele>141.2</ele>
        <time>2019-01-01T10:00:33Z</time>
      </trkpt>
      <trkpt lat="41.7445410" lon="-0.9692250">
        <ele>140.0</ele>
        <time>2019-01-01T10:00:36Z</time>
      </trkpt>
      <trkpt lat="41.7445250" lon="-0.9691850">
        <ele>140.0</ele>
        <time>2019-01-01T10:00:37Z</time>
      </trkpt>
      <trkpt lat="41.7444020" lon="-0.9690310">
        <ele>140.0</ele>
        <time>2019-01-01T10:00:42Z</time>
      </trkpt>
      <trkpt lat="41.7443640" lon="-0.9689990">
        <ele>139.8</ele>
        <time>2019-01-01T10:00:43Z</time>
      </trkpt>
      <trkpt lat="41.7442820" lon="-0.9689180">
        <ele>139.6</ele>
        <time>2019-01-01T10:00:45Z</time>
      </trkpt>
      <trkpt lat="41.7442450" lon="-0.9688720">
        <ele>139.6</ele>
        <time>2019-01-01T10:00:46Z</time>
      </trkpt>
      <trkpt lat="41.7440840" lon="-0.9686500">
        <ele>139.6</ele>
        <time>2019-01-01T10:00:51Z</time>
      </trkpt>
      <trkpt lat="41.7438860" lon="-0.9682160">
        <ele>139.8</ele>
        <time>2019-01-01T10:00:58Z</time>
      </trkpt>
      <trkpt lat="41.7437770" lon="-0.9679140">
        <ele>138.8</ele>
        <time>2019-01-01T10:01:02Z</time>
      </trkpt>
      <trkpt lat="41.7437440" lon="-0.9678430">
        <ele>138.4</ele>
        <time>2019-01-01T10:01:03Z</time>
      </trkpt>
      <trkpt lat="41.7435400" lon="-0.9674370">
        <ele>138.0</ele>
        <time>2019-01-01T10:01:08Z</time>
      </trkpt>
      <trkpt lat="41.7433510" lon="-0.9670730">
        <ele>138.0</ele>
        <time>2019-01-01T10:01:12Z</time>
      </trkpt>
      <trkpt lat="41.7432810" lon="-0.9668660">
        <ele>137.6</ele>
        <time>2019-01-01T10:01:14Z</time>
      </trkpt>
      <trkpt lat="41.7431920" lon="-0.9665870">
        <ele>136.2</ele>
        <time>2019-01-01T10:01:17Z</time>
      </trkpt>
      <trkpt lat="41.7431340" lon="-0.9664210">
        <ele>135.8</ele>
        <time>2019-01-01T10:01:19Z</time>
      </trkpt>
      <trkpt lat="41.7429700" lon="-0.9660300">
        <ele>135.2</ele>
        <time>2019-01-01T10:01:24Z</time>
      </trkpt>
      <trkpt lat="41.7428060" lon="-0.9656700">
        <ele>134.2</ele>
        <time>2019-01-01T10:01:29Z</time>
      </trkpt>
      <trkpt lat="41.7427730" lon="-0.9656090">
        <ele>134.2</ele>
        <time>2019-01-01T10:01:30Z</time>
      </trkpt>
      <trkpt lat="41.7427420" lon="-0.9655500">
        <ele>134.0</ele>
        <time>2019-01-01T10:01:31Z</time>
      </trkpt>
      <trkpt lat="41.7426810" lon="-0.9654180">
        <ele>133.0</ele>
        <time>2019-01-01T10:01:33Z</time>
      </trkpt>
      <trkpt lat="41.7426160" lon="-0.9652770">
        <ele>132.6</ele>
        <time>2019-01-01T10:01:35Z</time>
      </trkpt>
      <trkpt lat="41.7425200" lon="-0.9650420">
        <ele>132.2</ele>
        <time>2019-01-01T10:01:38Z</time>
      </trkpt>
      <trkpt lat="41.7424650" lon="-0.9648850">
        <ele>132.2</ele>
        <time>2019-01-01T10:01:40Z</time>
      </trkpt>
      <trkpt lat="41.7423460" lon="-0.9646790">
        <ele>132.0</ele>
        <time>2019-01-01T10:01:43Z</time>
      </trkpt>
      <trkpt lat="41.7422310" lon="-0.9644750">
        <ele>131.4</ele>
        <time>2019-01-01T10:01:46Z</time>
      </trkpt>
      <trkpt lat="41.7421180" lon="-0.9642530">
        <ele>131.0</ele>
        <time>2019-01-01T10:01:49Z</time>
      </trkpt>
      <trkpt lat="41.7419390" lon="-0.9638960">
        <ele>130.2</ele>
        <time>2019-01-01T10:01:54Z</time>
      </trkpt>
      <trkpt lat="41.7419010" lon="-0.9638170">
        <ele>130.0</ele>
        <time>2019-01-01T10:01:55Z</time>
      </trkpt>
      <trkpt lat="41.7418210" lon="-0.9636690">
        <ele>129.6</ele>
        <time>2019-01-01T10:01:57Z</time>
      </trkpt>
      <trkpt lat="41.7417230" lon="-0.9635450">
        <ele>129.0</ele>
        <time>2019-01-01T10:01:59Z</time>
      </trkpt>
      <trkpt lat="41.7416670" lon="-0.9634890">
        <ele>129.0</ele>
        <time>2019-01-01T10:02:00Z</time>
      </trkpt>
      <trkpt lat="41.7416140" lon="-0.9634300">
        <ele>128.8</ele>
        <time>2019-01-01T10:02:01Z</time>
      </trkpt>
      <trkpt lat="41.7414810" lon="-0.9632280">
        <ele>128.4</ele>
        <time>2019-01-01T10:02:04Z</time>
      </trkpt>
      <trkpt lat="41.7411900" lon="-0.9627470">
        <ele>128.2</ele>
        <time>2019-01-01T10:02:11Z</time>
      </trkpt>
      <trkpt lat="41.7410250" lon="-0.9625900">
        <ele>128.0</ele>
        <time>2019-01-01T10:02:14Z</time>
      </trkpt>
      <trkpt lat="41.7409230" lon="-0.9624810">
        <ele>127.6</ele>
        <time>2019-01-01T10:02:16Z</time>
      </trkpt>
      <trkpt lat="41.7408780" lon="-0.9624190">
        <ele>127.6</ele>
        <time>2019-01-01T10:02:17Z</time>
      </trkpt>
      <trkpt lat="41.7408170" lon="-0.9622730">
        <ele>127.2</ele>
        <time>2019-01-01T10:02:19Z</time>
      </trkpt>
      <trkpt lat="41.7407770" lon="-0.9620070">
        <ele>126.8</ele>
        <time>2019-01-01T10:02:22Z</time>
      </trkpt>
      <trkpt lat="41.7407690" lon="-0.9619160">
        <ele>126.4</ele>
        <time>2019-01-01T10:02:23Z</time>
      </trkpt>
      <trkpt lat="41.7407020" lon="-0.9614030">
        <ele>125.6</ele>
        <time>2019-01-01T10:02:29Z</time>
      </trkpt>
      <trkpt lat="41.7406640" lon="-0.9611400">
        <ele>125.4</ele>
        <time>2019-01-01T10:02:32Z</time>
      </trkpt>
      <trkpt lat="41.7406240" lon="-0.9608830">
        <ele>124.8</ele>
        <time>2019-01-01T10:02:35Z</time>
      </trkpt>
      <trkpt lat="41.7406070" lon="-0.9608040">
        <ele>124.8</ele>
        <time>2019-01-01T10:02:36Z</time>
      </trkpt>
      <trkpt lat="41.7405460" lon="-0.9605520">
        <ele>124.2</ele>
        <time>2019-01-01T10:02:39Z</time>
      </trkpt>
      <trkpt lat="41.7405200" lon="-0.9604690">
        <ele>124.0</ele>
        <time>2019-01-01T10:02:40Z</time>
      </trkpt>
      <trkpt lat="41.7403930" lon="-0.9601450">
        <ele>123.4</ele>
        <time>2019-01-01T10:02:44Z</time>
      </trkpt>
      <trkpt lat="41.7403250" lon="-0.9599900">
        <ele>123.2</ele>
        <time>2019-01-01T10:02:46Z</time>
      </trkpt>
      <trkpt lat="41.7401940" lon="-0.9596850">
        <ele>122.6</ele>
        <time>2019-01-01T10:02:50Z</time>
      </trkpt>
      <trkpt lat="41.7400960" lon="-0.9594420">
        <ele>122.0</ele>
        <time>2019-01-01T10:02:53Z</time>
      </trkpt>
      <trkpt lat="41.7399660" lon="-0.9591170">
        <ele>120.6</ele>
        <time>2019-01-01T10:02:57Z</time>
      </trkpt>
      <trkpt lat="41.7399360" lon="-0.9590400">
        <ele>120.4</ele>
        <time>2019-01-01T10:02:58Z</time>
      </trkpt>
      <trkpt lat="41.7398680" lon="-0.9588310">
        <ele>119.6</ele>
        <time>2019-01-01T10:03:01Z</time>
      </trkpt>
      <trkpt lat="41.7398580" lon="-0.9587710">
        <ele>119.6</ele>
        <time>2019-01-01T10:03:02Z</time>
      </trkpt>
      <trkpt lat="41.7398470" lon="-0.9587130">
        <ele>119.2</ele>
        <time>2019-01-01T10:03:03Z</time>
      </trkpt>
      <trkpt lat="41.7397870" lon="-0.9585460">
        <ele>118.4</ele>
        <time>2019-01-01T10:03:06Z</time>
      </trkpt>
      <trkpt lat="41.7397670" lon="-0.9584830">
        <ele>118.2</ele>
        <time>2019-01-01T10:03:07Z</time>
      </trkpt>
      <trkpt lat="41.7397470" lon="-0.9584140">
        <ele>118.0</ele>
        <time>2019-01-01T10:03:08Z</time>
      </trkpt>
      <trkpt lat="41.7396650" lon="-0.9580850">
        <ele>118.0</ele>
        <time>2019-01-01T10:03:12Z</time>
      </trkpt>
      <trkpt lat="41.7396230" lon="-0.9578200">
        <ele>118.6</ele>
        <time>2019-01-01T10:03:15Z</time>
      </trkpt>
      <trkpt lat="41.7396100" lon="-0.9576500">
        <ele>118.8</ele>
        <time>2019-01-01T10:03:17Z</time>
      </trkpt>
      <trkpt lat="41.7395220" lon="-0.9574440">
        <ele>118.6</ele>
        <time>2019-01-01T10:03:20Z</time>
      </trkpt>
      <trkpt lat="41.7393350" lon="-0.9573330">
        <ele>118.2</ele>
        <time>2019-01-01T10:03:24Z</time>
      </trkpt>
      <trkpt lat="41.7391360" lon="-0.9571690">
        <ele>118.0</ele>
        <time>2019-01-01T10:03:30Z</time>
      </trkpt>
      <trkpt lat="41.7390960" lon="-0.9571410">
        <ele>118.0</ele>
        <time>2019-01-01T10:03:31Z</time>
      </trkpt>
      <trkpt lat="41.7389570" lon="-0.9570910">
        <ele>117.6</ele>
        <time>2019-01-01T10:03:34Z</time>
      </trkpt>
      <trkpt lat="41.7388600" lon="-0.9570750">
        <ele>117.6</ele>
        <time>2019-01-01T10:03:36Z</time>
      </trkpt>
      <trkpt lat="41.7386620" lon="-0.9570140">
        <ele>117.6</ele>
        <time>2019-01-01T10:03:40Z</time>
      </trkpt>
      <trkpt lat="41.7386060" lon="-0.9569950">
        <ele>117.6</ele>
        <time>2019-01-01T10:03:41Z</time>
      </trkpt>
      <trkpt lat="41.7384280" lon="-0.9569550">
        <ele>117.0</ele>
        <time>2019-01-01T10:03:44Z</time>
      </trkpt>
      <trkpt lat="41.7383650" lon="-0.9569380">
        <ele>116.6</ele>
        <time>2019-01-01T10:03:45Z</time>
      </trkpt>
      <trkpt lat="41.7382300" lon="-0.9568790">
        <ele>116.4</ele>
        <time>2019-01-01T10:03:47Z</time>
      </trkpt>
      <trkpt lat="41.7380980" lon="-0.9568110">
        <ele>116.2</ele>
        <time>2019-01-01T10:03:49Z</time>
      </trkpt>
      <trkpt lat="41.7380340" lon="-0.9567980">
        <ele>115.8</ele>
        <time>2019-01-01T10:03:50Z</time>
      </trkpt>
      <trkpt lat="41.7379100" lon="-0.9568160">
        <ele>115.2</ele>
        <time>2019-01-01T10:03:52Z</time>
      </trkpt>
      <trkpt lat="41.7378500" lon="-0.9568370">
        <ele>115.2</ele>
        <time>2019-01-01T10:03:53Z</time>
      </trkpt>
      <trkpt lat="41.7377300" lon="-0.9568630">
        <ele>115.0</ele>
        <time>2019-01-01T10:03:55Z</time>
      </trkpt>
      <trkpt lat="41.7376140" lon="-0.9568720">
        <ele>114.8</ele>
        <time>2019-01-01T10:03:57Z</time>
      </trkpt>
      <trkpt lat="41.7375600" lon="-0.9568770">
        <ele>114.4</ele>
        <time>2019-01-01T10:03:58Z</time>
      </trkpt>
      <trkpt lat="41.7373760" lon="-0.9569110">
        <ele>113.6</ele>
        <time>2019-01-01T10:04:02Z</time>
      </trkpt>
      <trkpt lat="41.7373400" lon="-0.9569270">
        <ele>113.6</ele>
        <time>2019-01-01T10:04:03Z</time>
      </trkpt>
      <trkpt lat="41.7372380" lon="-0.9569900">
        <ele>113.6</ele>
        <time>2019-01-01T10:04:06Z</time>
      </trkpt>
      <trkpt lat="41.7372040" lon="-0.9569870">
        <ele>113.4</ele>
        <time>2019-01-01T10:04:07Z</time>
      </trkpt>
      <trkpt lat="41.7370870" lon="-0.9570430">
        <ele>113.4</ele>
        <time>2019-01-01T10:04:11Z</time>
      </trkpt>
      <trkpt lat="41.7370580" lon="-0.9570620">
        <ele>113.4</ele>
        <time>2019-01-01T10:04:12Z</time>
      </trkpt>
      <trkpt lat="41.7370280" lon="-0.9570680">
        <ele>113.4</ele>
        <time>2019-01-01T10:04:13Z</time>
      </trkpt>
      <trkpt lat="41.7369590" lon="-0.9570570">
        <ele>113.4</ele>
        <time>2019-01-01T10:04:15Z</time>
      </trkpt>
      <trkpt lat="41.7368320" lon="-0.9570620">
        <ele>113.6</ele>
        <time>2019-01-01T10:04:18Z</time>
      </trkpt>
      <trkpt lat="41.7367420" lon="-0.9570590">
        <ele>113.8</ele>
        <time>2019-01-01T10:04:20Z</time>
      </trkpt>
      <trkpt lat="41.7366960" lon="-0.9570510">
        <ele>113.8</ele>
        <time>2019-01-01T10:04:21Z</time>
      </trkpt>
      <trkpt lat="41.7365590" lon="-0.9570060">
        <ele>114.0</ele>
        <time>2019-01-01T10:04:24Z</time>
      </trkpt>
      <trkpt lat="41.7365110" lon="-0.9569970">
        <ele>114.0</ele>
        <time>2019-01-01T10:04:25Z</time>
      </trkpt>
      <trkpt lat="41.7361290" lon="-0.9569510">
        <ele>113.2</ele>
        <time>2019-01-01T10:04:33Z</time>
      </trkpt>
      <trkpt lat="41.7358340" lon="-0.9568770">
        <ele>112.6</ele>
        <time>2019-01-01T10:04:39Z</time>
      </trkpt>
      <trkpt lat="41.7354790" lon="-0.9567810">
        <ele>112.2</ele>
        <time>2019-01-01T10:04:46Z</time>
      </trkpt>
      <trkpt lat="41.7354280" lon="-0.9567690">
        <ele>112.2</ele>
        <time>2019-01-01T10:04:47Z</time>
      </trkpt>
      <trkpt lat="41.7350660" lon="-0.9567410">
        <ele>112.0</ele>
        <time>2019-01-01T10:04:54Z</time>
      </trkpt>
      <trkpt lat="41.7348240" lon="-0.9568660">
        <ele>111.8</ele>
        <time>2019-01-01T10:04:59Z</time>
      </trkpt>
      <trkpt lat="41.7345710" lon="-0.9569650">
        <ele>111.8</ele>
        <time>2019-01-01T10:05:04Z</time>
      </trkpt>
      <trkpt lat="41.7344610" lon="-0.9569730">
        <ele>111.8</ele>
        <time>2019-01-01T10:05:06Z</time>
      </trkpt>
      <trkpt lat="41.7340230" lon="-0.9569320">
        <ele>111.8</ele>
        <time>2019-01-01T10:05:14Z</time>
      </trkpt>
      <trkpt lat="41.7338030" lon="-0.9569180">
        <ele>111.6</ele>
        <time>2019-01-01T10:05:18Z</time>
      </trkpt>
      <trkpt lat="41.7336990" lon="-0.9568740">
        <ele>111.6</ele>
        <time>2019-01-01T10:05:20Z</time>
      </trkpt>
      <trkpt lat="41.7335560" lon="-0.9567640">
        <ele>111.8</ele>
        <time>2019-01-01T10:05:23Z</time>
      </trkpt>
      <trkpt lat="41.7334030" lon="-0.9566830">
        <ele>111.6</ele>
        <time>2019-01-01T10:05:26Z</time>
      </trkpt>
      <trkpt lat="41.7330760" lon="-0.9564970">
        <ele>111.8</ele>
        <time>2019-01-01T10:05:32Z</time>
      </trkpt>
      <trkpt lat="41.7329470" lon="-0.9564550">
        <ele>111.4</ele>
        <time>2019-01-01T10:05:34Z</time>
      </trkpt>
      <trkpt lat="41.7328170" lon="-0.9564380">
        <ele>111.0</ele>
        <time>2019-01-01T10:05:36Z</time>
      </trkpt>
      <trkpt lat="41.7327540" lon="-0.9564310">
        <ele>110.8</ele>
        <time>2019-01-01T10:05:37Z</time>
      </trkpt>
      <trkpt lat="41.7326940" lon="-0.9564170">
        <ele>110.6</ele>
        <time>2019-01-01T10:05:38Z</time>
      </trkpt>
      <trkpt lat="41.7325210" lon="-0.9563320">
        <ele>109.8</ele>
        <time>2019-01-01T10:05:41Z</time>
      </trkpt>
      <trkpt lat="41.7323680" lon="-0.9561710">
        <ele>109.0</ele>
        <time>2019-01-01T10:05:44Z</time>
      </trkpt>
      <trkpt lat="41.7323170" lon="-0.9561200">
        <ele>108.6</ele>
        <time>2019-01-01T10:05:45Z</time>
      </trkpt>
      <trkpt lat="41.7321980" lon="-0.9560330">
        <ele>107.6</ele>
        <time>2019-01-01T10:05:47Z</time>
      </trkpt>
      <trkpt lat="41.7321280" lon="-0.9559950">
        <ele>107.2</ele>
        <time>2019-01-01T10:05:48Z</time>
      </trkpt>
      <trkpt lat="41.7320530" lon="-0.9559560">
        <ele>106.8</ele>
        <time>2019-01-01T10:05:49Z</time>
      </trkpt>
      <trkpt lat="41.7319780" lon="-0.9559100">
        <ele>106.0</ele>
        <time>2019-01-01T10:05:50Z</time>
      </trkpt>
      <trkpt lat="41.7318310" lon="-0.9558210">
        <ele>104.4</ele>
        <time>2019-01-01T10:05:52Z</time>
      </trkpt>
      <trkpt lat="41.7317080" lon="-0.9557590">
        <ele>103.8</ele>
        <time>2019-01-01T10:05:54Z</time>
      </trkpt>
      <trkpt lat="41.7316600" lon="-0.9557290">
        <ele>103.6</ele>
        <time>2019-01-01T10:05:55Z</time>
      </trkpt>
      <trkpt lat="41.7316190" lon="-0.9556930">
        <ele>103.2</ele>
        <time>2019-01-01T10:05:56Z</time>
      </trkpt>
      <trkpt lat="41.7315620" lon="-0.9555980">
        <ele>102.4</ele>
        <time>2019-01-01T10:05:58Z</time>
      </trkpt>
      <trkpt lat="41.7315180" lon="-0.9554840">
        <ele>102.8</ele>
        <time>2019-01-01T10:06:01Z</time>
      </trkpt>
      <trkpt lat="41.7314300" lon="-0.9553520">
        <ele>103.4</ele>
        <time>2019-01-01T10:06:05Z</time>
      </trkpt>
      <trkpt lat="41.7313980" lon="-0.9553110">
        <ele>103.6</ele>
        <time>2019-01-01T10:06:06Z</time>
      </trkpt>
      <trkpt lat="41.7312480" lon="-0.9551730">
        <ele>103.4</ele>
        <time>2019-01-01T10:06:10Z</time>
      </trkpt>
      <trkpt lat="41.7311140" lon="-0.9549330">
        <ele>103.2</ele>
        <time>2019-01-01T10:06:14Z</time>
      </trkpt>
      <trkpt lat="41.7309790" lon="-0.9547960">
        <ele>102.6</ele>
        <time>2019-01-01T10:06:17Z</time>
      </trkpt>
      <trkpt lat="41.7308820" lon="-0.9546940">
        <ele>102.4</ele>
        <time>2019-01-01T10:06:19Z</time>
      </trkpt>
      <trkpt lat="41.7307790" lon="-0.9546050">
        <ele>101.8</ele>
        <time>2019-01-01T10:06:21Z</time>
      </trkpt>
      <trkpt lat="41.7305200" lon="-0.9544100">
        <ele>100.8</ele>
        <time>2019-01-01T10:06:26Z</time>
      </trkpt>
      <trkpt lat="41.7301630" lon="-0.9542190">
        <ele>100.4</ele>
        <time>2019-01-01T10:06:33Z</time>
      </trkpt>
      <trkpt lat="41.7300570" lon="-0.9542020">
        <ele>100.6</ele>
        <time>2019-01-01T10:06:35Z</time>
      </trkpt>
      <trkpt lat="41.7299550" lon="-0.9542300">
        <ele>100.2</ele>
        <time>2019-01-01T10:06:37Z</time>
      </trkpt>
      <trkpt lat="41.7298250" lon="-0.9542020">
        <ele>100.0</ele>
        <time>2019-01-01T10:06:40Z</time>
      </trkpt>
      <trkpt lat="41.7297870" lon="-0.9541670">
        <ele>99.8</ele>
        <time>2019-01-01T10:06:41Z</time>
      </trkpt>
      <trkpt lat="41.7297180" lon="-0.9540830">
        <ele>99.6</ele>
        <time>2019-01-01T10:06:43Z</time>
      </trkpt>
      <trkpt lat="41.7296640" lon="-0.9539990">
        <ele>99.2</ele>
        <time>2019-01-01T10:06:45Z</time>
      </trkpt>
      <trkpt lat="41.7295520" lon="-0.9539570">
        <ele>98.8</ele>
        <time>2019-01-01T10:06:48Z</time>
      </trkpt>
      <trkpt lat="41.7295140" lon="-0.9539620">
        <ele>98.8</ele>
        <time>2019-01-01T10:06:49Z</time>
      </trkpt>
      <trkpt lat="41.7294500" lon="-0.9540070">
        <ele>98.8</ele>
        <time>2019-01-01T10:06:51Z</time>
      </trkpt>
      <trkpt lat="41.7293480" lon="-0.9540690">
        <ele>98.8</ele>
        <time>2019-01-01T10:06:54Z</time>
      </trkpt>
      <trkpt lat="41.7292570" lon="-0.9540900">
        <ele>99.2</ele>
        <time>2019-01-01T10:06:56Z</time>
      </trkpt>
      <trkpt lat="41.7290770" lon="-0.9541270">
        <ele>99.4</ele>
        <time>2019-01-01T10:07:00Z</time>
      </trkpt>
      <trkpt lat="41.7289530" lon="-0.9541970">
        <ele>99.4</ele>
        <time>2019-01-01T10:07:03Z</time>
      </trkpt>
      <trkpt lat="41.7288660" lon="-0.9542430">
        <ele>99.4</ele>
        <time>2019-01-01T10:07:05Z</time>
      </trkpt>
      <trkpt lat="41.7287740" lon="-0.9542440">
        <ele>99.6</ele>
        <time>2019-01-01T10:07:07Z</time>
      </trkpt>
      <trkpt lat="41.7286840" lon="-0.9542250">
        <ele>99.6</ele>
        <time>2019-01-01T10:07:09Z</time>
      </trkpt>
      <trkpt lat="41.7285920" lon="-0.9542120">
        <ele>99.8</ele>
        <time>2019-01-01T10:07:11Z</time>
      </trkpt>
      <trkpt lat="41.7285050" lon="-0.9541700">
        <ele>99.8</ele>
        <time>2019-01-01T10:07:13Z</time>
      </trkpt>
      <trkpt lat="41.7284370" lon="-0.9540010">
        <ele>99.6</ele>
        <time>2019-01-01T10:07:16Z</time>
      </trkpt>
      <trkpt lat="41.7283390" lon="-0.9537650">
        <ele>99.2</ele>
        <time>2019-01-01T10:07:20Z</time>
      </trkpt>
      <trkpt lat="41.7282990" lon="-0.9537160">
        <ele>99.0</ele>
        <time>2019-01-01T10:07:21Z</time>
      </trkpt>
      <trkpt lat="41.7281940" lon="-0.9536450">
        <ele>98.4</ele>
        <time>2019-01-01T10:07:23Z</time>
      </trkpt>
      <trkpt lat="41.7281370" lon="-0.9536330">
        <ele>97.8</ele>
        <time>2019-01-01T10:07:24Z</time>
      </trkpt>
      <trkpt lat="41.7279770" lon="-0.9535890">
        <ele>97.0</ele>
        <time>2019-01-01T10:07:27Z</time>
      </trkpt>
      <trkpt lat="41.7279250" lon="-0.9535710">
        <ele>97.0</ele>
        <time>2019-01-01T10:07:28Z</time>
      </trkpt>
      <trkpt lat="41.7277720" lon="-0.9535240">
        <ele>96.6</ele>
        <time>2019-01-01T10:07:31Z</time>
      </trkpt>
      <trkpt lat="41.7276730" lon="-0.9534850">
        <ele>96.2</ele>
        <time>2019-01-01T10:07:33Z</time>
      </trkpt>
      <trkpt lat="41.7274980" lon="-0.9533270">
        <ele>96.0</ele>
        <time>2019-01-01T10:07:37Z</time>
      </trkpt>
      <trkpt lat="41.7273450" lon="-0.9532570">
        <ele>95.4</ele>
        <time>2019-01-01T10:07:41Z</time>
      </trkpt>
      <trkpt lat="41.7272770" lon="-0.9532610">
        <ele>94.8</ele>
        <time>2019-01-01T10:07:43Z</time>
      </trkpt>
      <trkpt lat="41.7272400" lon="-0.9532730">
        <ele>94.6</ele>
        <time>2019-01-01T10:07:44Z</time>
      </trkpt>
      <trkpt lat="41.7272090" lon="-0.9532830">
        <ele>94.4</ele>
        <time>2019-01-01T10:07:45Z</time>
      </trkpt>
      <trkpt lat="41.7270630" lon="-0.9532640">
        <ele>94.6</ele>
        <time>2019-01-01T10:07:49Z</time>
      </trkpt>
      <trkpt lat="41.7269410" lon="-0.9531330">
        <ele>94.6</ele>
        <time>2019-01-01T10:07:53Z</time>
      </trkpt>
      <trkpt lat="41.7267800" lon="-0.9530150">
        <ele>94.2</ele>
        <time>2019-01-01T10:07:57Z</time>
      </trkpt>
      <trkpt lat="41.7267480" lon="-0.9530170">
        <ele>93.4</ele>
        <time>2019-01-01T10:07:58Z</time>
      </trkpt>
      <trkpt lat="41.7267150" lon="-0.9530150">
        <ele>93.4</ele>
        <time>2019-01-01T10:07:59Z</time>
      </trkpt>
      <trkpt lat="41.7266450" lon="-0.9529770">
        <ele>93.0</ele>
        <time>2019-01-01T10:08:01Z</time>
      </trkpt>
      <trkpt lat="41.7265040" lon="-0.9527980">
        <ele>93.0</ele>
        <time>2019-01-01T10:08:05Z</time>
      </trkpt>
      <trkpt lat="41.7263730" lon="-0.9527880">
        <ele>91.8</ele>
        <time>2019-01-01T10:08:07Z</time>
      </trkpt>
      <trkpt lat="41.7262640" lon="-0.9528510">
        <ele>90.8</ele>
        <time>2019-01-01T10:08:09Z</time>
      </trkpt>
      <trkpt lat="41.7262180" lon="-0.9528930">
        <ele>90.6</ele>
        <time>2019-01-01T10:08:10Z</time>
      </trkpt>
      <trkpt lat="41.7260980" lon="-0.9530110">
        <ele>90.4</ele>
        <time>2019-01-01T10:08:13Z</time>
      </trkpt>
      <trkpt lat="41.7260100" lon="-0.9530380">
        <ele>90.2</ele>
        <time>2019-01-01T10:08:15Z</time>
      </trkpt>
      <trkpt lat="41.7258930" lon="-0.9529790">
        <ele>89.6</ele>
        <time>2019-01-01T10:08:18Z</time>
      </trkpt>
      <trkpt lat="41.7258370" lon="-0.9528970">
        <ele>89.6</ele>
        <time>2019-01-01T10:08:20Z</time>
      </trkpt>
      <trkpt lat="41.7257710" lon="-0.9527970">
        <ele>89.6</ele>
        <time>2019-01-01T10:08:23Z</time>
      </trkpt>
      <trkpt lat="41.7257360" lon="-0.9527700">
        <ele>89.4</ele>
        <time>2019-01-01T10:08:27Z</time>
      </trkpt>
      <trkpt lat="41.7256970" lon="-0.9527570">
        <ele>89.6</ele>
        <time>2019-01-01T10:08:36Z</time>
      </trkpt>
      <trkpt lat="41.7256650" lon="-0.9527200">
        <ele>89.6</ele>
        <time>2019-01-01T10:08:38Z</time>
      </trkpt>
      <trkpt lat="41.7255650" lon="-0.9525610">
        <ele>89.6</ele>
        <time>2019-01-01T10:08:43Z</time>
      </trkpt>
      <trkpt lat="41.7255420" lon="-0.9525270">
        <ele>89.4</ele>
        <time>2019-01-01T10:08:47Z</time>
      </trkpt>
      <trkpt lat="41.7255430" lon="-0.9525270">
        <ele>89.4</ele>
        <time>2019-01-01T10:08:48Z</time>
      </trkpt>
      <trkpt lat="41.7255960" lon="-0.9526080">
        <ele>89.6</ele>
        <time>2019-01-01T10:09:25Z</time>
      </trkpt>
      <trkpt lat="41.7256230" lon="-0.9526620">
        <ele>89.6</ele>
        <time>2019-01-01T10:09:27Z</time>
      </trkpt>
      <trkpt lat="41.7256710" lon="-0.9527360">
        <ele>89.6</ele>
        <time>2019-01-01T10:09:30Z</time>
      </trkpt>
      <trkpt lat="41.7256960" lon="-0.9527750">
        <ele>89.6</ele>
        <time>2019-01-01T10:09:32Z</time>
      </trkpt>
      <trkpt lat="41.7257340" lon="-0.9528060">
        <ele>89.2</ele>
        <time>2019-01-01T10:09:35Z</time>
      </trkpt>
      <trkpt lat="41.7257730" lon="-0.9527850">
        <ele>88.8</ele>
        <time>2019-01-01T10:09:38Z</time>
      </trkpt>
      <trkpt lat="41.7257110" lon="-0.9527140">
        <ele>88.8</ele>
        <time>2019-01-01T10:09:41Z</time>
      </trkpt>
      <trkpt lat="41.7256830" lon="-0.9526840">
        <ele>88.8</ele>
        <time>2019-01-01T10:09:42Z</time>
      </trkpt>
      <trkpt lat="41.7255820" lon="-0.9525170">
        <ele>88.2</ele>
        <time>2019-01-01T10:09:46Z</time>
      </trkpt>
      <trkpt lat="41.7255540" lon="-0.9524650">
        <ele>87.8</ele>
        <time>2019-01-01T10:09:47Z</time>
      </trkpt>
      <trkpt lat="41.7255200" lon="-0.9524100">
        <ele>87.6</ele>
        <time>2019-01-01T10:09:48Z</time>
      </trkpt>
      <trkpt lat="41.7254010" lon="-0.9522300">
        <ele>86.6</ele>
        <time>2019-01-01T10:09:51Z</time>
      </trkpt>
      <trkpt lat="41.7252540" lon="-0.9520750">
        <ele>85.6</ele>
        <time>2019-01-01T10:09:54Z</time>
      </trkpt>
      <trkpt lat="41.7251990" lon="-0.9520270">
        <ele>85.4</ele>
        <time>2019-01-01T10:09:55Z</time>
      </trkpt>
      <trkpt lat="41.7251460" lon="-0.9519770">
        <ele>85.2</ele>
        <time>2019-01-01T10:09:56Z</time>
      </trkpt>
      <trkpt lat="41.7250510" lon="-0.9518740">
        <ele>84.4</ele>
        <time>2019-01-01T10:09:58Z</time>
      </trkpt>
      <trkpt lat="41.7249950" lon="-0.9518410">
        <ele>84.2</ele>
        <time>2019-01-01T10:09:59Z</time>
      </trkpt>
      <trkpt lat="41.7249450" lon="-0.9518030">
        <ele>83.8</ele>
        <time>2019-01-01T10:10:00Z</time>
      </trkpt>
      <trkpt lat="41.7248510" lon="-0.9517410">
        <ele>83.2</ele>
        <time>2019-01-01T10:10:02Z</time>
      </trkpt>
      <trkpt lat="41.7247660" lon="-0.9516930">
        <ele>83.0</ele>
        <time>2019-01-01T10:10:04Z</time>
      </trkpt>
      <trkpt lat="41.7245630" lon="-0.9515660">
        <ele>83.0</ele>
        <time>2019-01-01T10:10:09Z</time>
      </trkpt>
      <trkpt lat="41.7245230" lon="-0.9515500">
        <ele>83.0</ele>
        <time>2019-01-01T10:10:10Z</time>
      </trkpt>
      <trkpt lat="41.7243340" lon="-0.9515620">
        <ele>84.2</ele>
        <time>2019-01-01T10:10:15Z</time>
      </trkpt>
      <trkpt lat="41.7243070" lon="-0.9515800">
        <ele>84.4</ele>
        <time>2019-01-01T10:10:16Z</time>
      </trkpt>
      <trkpt lat="41.7242650" lon="-0.9516810">
        <ele>84.8</ele>
        <time>2019-01-01T10:10:19Z</time>
      </trkpt>
      <trkpt lat="41.7241870" lon="-0.9519360">
        <ele>84.4</ele>
        <time>2019-01-01T10:10:26Z</time>
      </trkpt>
      <trkpt lat="41.7241760" lon="-0.9521500">
        <ele>83.6</ele>
        <time>2019-01-01T10:10:30Z</time>
      </trkpt>
      <trkpt lat="41.7241780" lon="-0.9522260">
        <ele>83.2</ele>
        <time>2019-01-01T10:10:31Z</time>
      </trkpt>
      <trkpt lat="41.7241970" lon="-0.9523940">
        <ele>82.0</ele>
        <time>2019-01-01T10:10:33Z</time>
      </trkpt>
      <trkpt lat="41.7242160" lon="-0.9524820">
        <ele>81.6</ele>
        <time>2019-01-01T10:10:34Z</time>
      </trkpt>
      <trkpt lat="41.7242700" lon="-0.9526770">
        <ele>80.8</ele>
        <time>2019-01-01T10:10:36Z</time>
      </trkpt>
      <trkpt lat="41.7243010" lon="-0.9527810">
        <ele>79.6</ele>
        <time>2019-01-01T10:10:37Z</time>
      </trkpt>
      <trkpt lat="41.7243330" lon="-0.9528850">
        <ele>78.6</ele>
        <time>2019-01-01T10:10:38Z</time>
      </trkpt>
      <trkpt lat="41.7243630" lon="-0.9529850">
        <ele>77.4</ele>
        <time>2019-01-01T10:10:39Z</time>
      </trkpt>
      <trkpt lat="41.7243930" lon="-0.9530810">
        <ele>75.6</ele>
        <time>2019-01-01T10:10:40Z</time>
      </trkpt>
      <trkpt lat="41.7244220" lon="-0.9531700">
        <ele>74.2</ele>
        <time>2019-01-01T10:10:41Z</time>
      </trkpt>
      <trkpt lat="41.7244420" lon="-0.9532520">
        <ele>73.0</ele>
        <time>2019-01-01T10:10:42Z</time>
      </trkpt>
      <trkpt lat="41.7244480" lon="-0.9533310">
        <ele>71.8</ele>
        <time>2019-01-01T10:10:43Z</time>
      </trkpt>
      <trkpt lat="41.7244310" lon="-0.9533910">
        <ele>70.6</ele>
        <time>2019-01-01T10:10:44Z</time>
      </trkpt>
      <trkpt lat="41.7243860" lon="-0.9534300">
        <ele>69.6</ele>
        <time>2019-01-01T10:10:45Z</time>
      </trkpt>
      <trkpt lat="41.7243290" lon="-0.9534450">
        <ele>68.8</ele>
        <time>2019-01-01T10:10:46Z</time>
      </trkpt>
      <trkpt lat="41.7242030" lon="-0.9534190">
        <ele>67.4</ele>
        <time>2019-01-01T10:10:48Z</time>
      </trkpt>
      <trkpt lat="41.7240780" lon="-0.9533990">
        <ele>67.0</ele>
        <time>2019-01-01T10:10:50Z</time>
      </trkpt>
      <trkpt lat="41.7239080" lon="-0.9534280">
        <ele>66.6</ele>
        <time>2019-01-01T10:10:53Z</time>
      </trkpt>
      <trkpt lat="41.7238580" lon="-0.9534520">
        <ele>66.6</ele>
        <time>2019-01-01T10:10:54Z</time>
      </trkpt>
      <trkpt lat="41.7237140" lon="-0.9535310">
        <ele>66.2</ele>
        <time>2019-01-01T10:10:57Z</time>
      </trkpt>
      <trkpt lat="41.7235680" lon="-0.9536140">
        <ele>66.2</ele>
        <time>2019-01-01T10:11:00Z</time>
      </trkpt>
      <trkpt lat="41.7232450" lon="-0.9538360">
        <ele>66.4</ele>
        <time>2019-01-01T10:11:07Z</time>
      </trkpt>
      <trkpt lat="41.7229710" lon="-0.9540370">
        <ele>66.6</ele>
        <time>2019-01-01T10:11:13Z</time>
      </trkpt>
      <trkpt lat="41.7225170" lon="-0.9542310">
        <ele>66.4</ele>
        <time>2019-01-01T10:11:22Z</time>
      </trkpt>
      <trkpt lat="41.7221910" lon="-0.9542820">
        <ele>66.4</ele>
        <time>2019-01-01T10:11:28Z</time>
      </trkpt>
      <trkpt lat="41.7218750" lon="-0.9541940">
        <ele>66.6</ele>
        <time>2019-01-01T10:11:34Z</time>
      </trkpt>
      <trkpt lat="41.7215920" lon="-0.9539720">
        <ele>66.4</ele>
        <time>2019-01-01T10:11:40Z</time>
      </trkpt>
      <trkpt lat="41.7211900" lon="-0.9535770">
        <ele>66.6</ele>
        <time>2019-01-01T10:11:49Z</time>
      </trkpt>
      <trkpt lat="41.7209320" lon="-0.9532890">
        <ele>66.2</ele>
        <time>2019-01-01T10:11:55Z</time>
      </trkpt>
      <trkpt lat="41.7208310" lon="-0.9532360">
        <ele>66.0</ele>
        <time>2019-01-01T10:11:57Z</time>
      </trkpt>
      <trkpt lat="41.7206630" lon="-0.9532290">
        <ele>66.0</ele>
        <time>2019-01-01T10:12:00Z</time>
      </trkpt>
      <trkpt lat="41.7205510" lon="-0.9532420">
        <ele>66.0</ele>
        <time>2019-01-01T10:12:02Z</time>
      </trkpt>
      <trkpt lat="41.7202350" lon="-0.9531860">
        <ele>66.2</ele>
        <time>2019-01-01T10:12:08Z</time>
      </trkpt>
      <trkpt lat="41.7197780" lon="-0.9530300">
        <ele>65.4</ele>
        <time>2019-01-01T10:12:17Z</time>
      </trkpt>
      <trkpt lat="41.7194150" lon="-0.9530620">
        <ele>65.4</ele>
        <time>2019-01-01T10:12:24Z</time>
      </trkpt>
      <trkpt lat="41.7189990" lon="-0.9531740">
        <ele>65.2</ele>
        <time>2019-01-01T10:12:32Z</time>
      </trkpt>
      <trkpt lat="41.7185700" lon="-0.9532710">
        <ele>65.2</ele>
        <time>2019-01-01T10:12:40Z</time>
      </trkpt>
      <trkpt lat="41.7181100" lon="-0.9533390">
        <ele>65.4</ele>
        <time>2019-01-01T10:12:49Z</time>
      </trkpt>
      <trkpt lat="41.7176540" lon="-0.9533820">
        <ele>65.4</ele>
        <time>2019-01-01T10:12:58Z</time>
      </trkpt>
      <trkpt lat="41.7171860" lon="-0.9534200">
        <ele>65.0</ele>
        <time>2019-01-01T10:13:07Z</time>
      </trkpt>
      <trkpt lat="41.7166160" lon="-0.9535350">
        <ele>65.4</ele>
        <time>2019-01-01T10:13:18Z</time>
      </trkpt>
      <trkpt lat="41.7161530" lon="-0.9536140">
        <ele>65.4</ele>
        <time>2019-01-01T10:13:27Z</time>
      </trkpt>
      <trkpt lat="41.7156070" lon="-0.9537180">
        <ele>65.4</ele>
        <time>2019-01-01T10:13:38Z</time>
      </trkpt>
      <trkpt lat="41.7151650" lon="-0.9538140">
        <ele>65.8</ele>
        <time>2019-01-01T10:13:47Z</time>
      </trkpt>
      <trkpt lat="41.7147190" lon="-0.9539220">
        <ele>65.8</ele>
        <time>2019-01-01T10:13:56Z</time>
      </trkpt>
      <trkpt lat="41.7142770" lon="-0.9540310">
        <ele>66.0</ele>
        <time>2019-01-01T10:14:05Z</time>
      </trkpt>
      <trkpt lat="41.7137300" lon="-0.9541670">
        <ele>65.6</ele>
        <time>2019-01-01T10:14:16Z</time>
      </trkpt>
      <trkpt lat="41.7133350" lon="-0.9542640">
        <ele>66.2</ele>
        <time>2019-01-01T10:14:24Z</time>
      </trkpt>
      <trkpt lat="41.7132390" lon="-0.9542930">
        <ele>66.2</ele>
        <time>2019-01-01T10:14:26Z</time>
      </trkpt>
      <trkpt lat="41.7128600" lon="-0.9544450">
        <ele>66.2</ele>
        <time>2019-01-01T10:14:34Z</time>
      </trkpt>
      <trkpt lat="41.7123390" lon="-0.9546340">
        <ele>66.0</ele>
        <time>2019-01-01T10:14:45Z</time>
      </trkpt>
      <trkpt lat="41.7121210" lon="-0.9547160">
        <ele>65.8</ele>
        <time>2019-01-01T10:14:51Z</time>
      </trkpt>
      <trkpt lat="41.7118820" lon="-0.9548150">
        <ele>66.0</ele>
        <time>2019-01-01T10:15:00Z</time>
      </trkpt>
      <trkpt lat="41.7116500" lon="-0.9549180">
        <ele>66.0</ele>
        <time>2019-01-01T10:15:07Z</time>
      </trkpt>
      <trkpt lat="41.7113780" lon="-0.9550070">
        <ele>66.4</ele>
        <time>2019-01-01T10:15:14Z</time>
      </trkpt>
      <trkpt lat="41.7110860" lon="-0.9550750">
        <ele>66.4</ele>
        <time>2019-01-01T10:15:21Z</time>
      </trkpt>
      <trkpt lat="41.7106410" lon="-0.9551600">
        <ele>66.4</ele>
        <time>2019-01-01T10:15:31Z</time>
      </trkpt>
      <trkpt lat="41.7102910" lon="-0.9552780">
        <ele>66.4</ele>
        <time>2019-01-01T10:15:39Z</time>
      </trkpt>
      <trkpt lat="41.7100990" lon="-0.9553370">
        <ele>67.0</ele>
        <time>2019-01-01T10:15:44Z</time>
      </trkpt>
      <trkpt lat="41.7100670" lon="-0.9553260">
        <ele>67.2</ele>
        <time>2019-01-01T10:15:45Z</time>
      </trkpt>
      <trkpt lat="41.7099660" lon="-0.9552090">
        <ele>67.6</ele>
        <time>2019-01-01T10:15:49Z</time>
      </trkpt>
      <trkpt lat="41.7098190" lon="-0.9551170">
        <ele>66.8</ele>
        <time>2019-01-01T10:15:52Z</time>
      </trkpt>
      <trkpt lat="41.7097590" lon="-0.9550120">
        <ele>65.4</ele>
        <time>2019-01-01T10:15:54Z</time>
      </trkpt>
      <trkpt lat="41.7097410" lon="-0.9549560">
        <ele>64.8</ele>
        <time>2019-01-01T10:15:55Z</time>
      </trkpt>
      <trkpt lat="41.7097190" lon="-0.9549040">
        <ele>64.6</ele>
        <time>2019-01-01T10:15:56Z</time>
      </trkpt>
      <trkpt lat="41.7096930" lon="-0.9548490">
        <ele>64.4</ele>
        <time>2019-01-01T10:15:57Z</time>
      </trkpt>
      <trkpt lat="41.7096470" lon="-0.9547300">
        <ele>64.2</ele>
        <time>2019-01-01T10:15:59Z</time>
      </trkpt>
      <trkpt lat="41.7096280" lon="-0.9546680">
        <ele>64.2</ele>
        <time>2019-01-01T10:16:00Z</time>
      </trkpt>
      <trkpt lat="41.7095800" lon="-0.9544230">
        <ele>64.2</ele>
        <time>2019-01-01T10:16:04Z</time>
      </trkpt>
      <trkpt lat="41.7095360" lon="-0.9542410">
        <ele>64.4</ele>
        <time>2019-01-01T10:16:07Z</time>
      </trkpt>
      <trkpt lat="41.7095170" lon="-0.9541160">
        <ele>64.6</ele>
        <time>2019-01-01T10:16:09Z</time>
      </trkpt>
      <trkpt lat="41.7094330" lon="-0.9539550">
        <ele>64.8</ele>
        <time>2019-01-01T10:16:13Z</time>
      </trkpt>
      <trkpt lat="41.7094210" lon="-0.9538720">
        <ele>64.8</ele>
        <time>2019-01-01T10:16:16Z</time>
      </trkpt>
      <trkpt lat="41.7094250" lon="-0.9537680">
        <ele>64.6</ele>
        <time>2019-01-01T10:16:19Z</time>
      </trkpt>
      <trkpt lat="41.7094090" lon="-0.9537260">
        <ele>64.6</ele>
        <time>2019-01-01T10:16:20Z</time>
      </trkpt>
      <trkpt lat="41.7093430" lon="-0.9535170">
        <ele>64.2</ele>
        <time>2019-01-01T10:16:24Z</time>
      </trkpt>
      <trkpt lat="41.7093050" lon="-0.9533960">
        <ele>64.2</ele>
        <time>2019-01-01T10:16:26Z</time>
      </trkpt>
      <trkpt lat="41.7092460" lon="-0.9532840">
        <ele>64.2</ele>
        <time>2019-01-01T10:16:28Z</time>
      </trkpt>
      <trkpt lat="41.7092140" lon="-0.9532380">
        <ele>64.4</ele>
        <time>2019-01-01T10:16:29Z</time>
      </trkpt>
      <trkpt lat="41.7090890" lon="-0.9530980">
        <ele>64.6</ele>
        <time>2019-01-01T10:16:32Z</time>
      </trkpt>
      <trkpt lat="41.7089700" lon="-0.9529360">
        <ele>64.4</ele>
        <time>2019-01-01T10:16:35Z</time>
      </trkpt>
      <trkpt lat="41.7089170" lon="-0.9528170">
        <ele>64.2</ele>
        <time>2019-01-01T10:16:37Z</time>
      </trkpt>
      <trkpt lat="41.7088080" lon="-0.9524880">
        <ele>64.0</ele>
        <time>2019-01-01T10:16:43Z</time>
      </trkpt>
      <trkpt lat="41.7086850" lon="-0.9522680">
        <ele>64.4</ele>
        <time>2019-01-01T10:16:48Z</time>
      </trkpt>
      <trkpt lat="41.7086120" lon="-0.9521140">
        <ele>64.6</ele>
        <time>2019-01-01T10:16:51Z</time>
      </trkpt>
      <trkpt lat="41.7085780" lon="-0.9520040">
        <ele>64.8</ele>
        <time>2019-01-01T10:16:53Z</time>
      </trkpt>
      <trkpt lat="41.7084610" lon="-0.9518330">
        <ele>64.8</ele>
        <time>2019-01-01T10:16:57Z</time>
      </trkpt>
      <trkpt lat="41.7083920" lon="-0.9516590">
        <ele>64.6</ele>
        <time>2019-01-01T10:17:01Z</time>
      </trkpt>
      <trkpt lat="41.7084000" lon="-0.9515520">
        <ele>64.6</ele>
        <time>2019-01-01T10:17:03Z</time>
      </trkpt>
      <trkpt lat="41.7084070" lon="-0.9514450">
        <ele>64.6</ele>
        <time>2019-01-01T10:17:05Z</time>
      </trkpt>
      <trkpt lat="41.7083580" lon="-0.9512820">
        <ele>64.8</ele>
        <time>2019-01-01T10:17:08Z</time>
      </trkpt>
      <trkpt lat="41.7083390" lon="-0.9511000">
        <ele>65.0</ele>
        <time>2019-01-01T10:17:11Z</time>
      </trkpt>
      <trkpt lat="41.7083310" lon="-0.9510370">
        <ele>65.0</ele>
        <time>2019-01-01T10:17:12Z</time>
      </trkpt>
      <trkpt lat="41.7082690" lon="-0.9507420">
        <ele>64.8</ele>
        <time>2019-01-01T10:17:17Z</time>
      </trkpt>
      <trkpt lat="41.7082530" lon="-0.9506860">
        <ele>64.8</ele>
        <time>2019-01-01T10:17:18Z</time>
      </trkpt>
      <trkpt lat="41.7082250" lon="-0.9504540">
        <ele>64.4</ele>
        <time>2019-01-01T10:17:22Z</time>
      </trkpt>
      <trkpt lat="41.7082310" lon="-0.9503310">
        <ele>64.4</ele>
        <time>2019-01-01T10:17:24Z</time>
      </trkpt>
      <trkpt lat="41.7081770" lon="-0.9501580">
        <ele>64.4</ele>
        <time>2019-01-01T10:17:27Z</time>
      </trkpt>
      <trkpt lat="41.7081240" lon="-0.9500600">
        <ele>64.6</ele>
        <time>2019-01-01T10:17:29Z</time>
      </trkpt>
      <trkpt lat="41.7080440" lon="-0.9499120">
        <ele>64.4</ele>
        <time>2019-01-01T10:17:32Z</time>
      </trkpt>
      <trkpt lat="41.7080250" lon="-0.9498570">
        <ele>64.4</ele>
        <time>2019-01-01T10:17:33Z</time>
      </trkpt>
      <trkpt lat="41.7080040" lon="-0.9498030">
        <ele>64.4</ele>
        <time>2019-01-01T10:17:34Z</time>
      </trkpt>
      <trkpt lat="41.7079110" lon="-0.9495940">
        <ele>64.4</ele>
        <time>2019-01-01T10:17:38Z</time>
      </trkpt>
      <trkpt lat="41.7078400" lon="-0.9494290">
        <ele>64.4</ele>
        <time>2019-01-01T10:17:41Z</time>
      </trkpt>
      <trkpt lat="41.7078080" lon="-0.9493150">
        <ele>64.4</ele>
        <time>2019-01-01T10:17:43Z</time>
      </trkpt>
      <trkpt lat="41.7077770" lon="-0.9491540">
        <ele>64.6</ele>
        <time>2019-01-01T10:17:46Z</time>
      </trkpt>
      <trkpt lat="41.7077790" lon="-0.9490940">
        <ele>64.4</ele>
        <time>2019-01-01T10:17:47Z</time>
      </trkpt>
      <trkpt lat="41.7077380" lon="-0.9489190">
        <ele>64.0</ele>
        <time>2019-01-01T10:17:50Z</time>
      </trkpt>
      <trkpt lat="41.7077200" lon="-0.9488600">
        <ele>64.0</ele>
        <time>2019-01-01T10:17:51Z</time>
      </trkpt>
      <trkpt lat="41.7076240" lon="-0.9486480">
        <ele>64.0</ele>
        <time>2019-01-01T10:17:55Z</time>
      </trkpt>
      <trkpt lat="41.7076010" lon="-0.9485960">
        <ele>63.8</ele>
        <time>2019-01-01T10:17:56Z</time>
      </trkpt>
      <trkpt lat="41.7075470" lon="-0.9484260">
        <ele>63.8</ele>
        <time>2019-01-01T10:17:59Z</time>
      </trkpt>
      <trkpt lat="41.7075320" lon="-0.9483680">
        <ele>63.8</ele>
        <time>2019-01-01T10:18:00Z</time>
      </trkpt>
      <trkpt lat="41.7074790" lon="-0.9482160">
        <ele>64.0</ele>
        <time>2019-01-01T10:18:03Z</time>
      </trkpt>
      <trkpt lat="41.7074580" lon="-0.9481710">
        <ele>63.8</ele>
        <time>2019-01-01T10:18:04Z</time>
      </trkpt>
      <trkpt lat="41.7074480" lon="-0.9479960">
        <ele>63.6</ele>
        <time>2019-01-01T10:18:07Z</time>
      </trkpt>
      <trkpt lat="41.7074310" lon="-0.9479380">
        <ele>63.8</ele>
        <time>2019-01-01T10:18:08Z</time>
      </trkpt>
      <trkpt lat="41.7073560" lon="-0.9476990">
        <ele>63.8</ele>
        <time>2019-01-01T10:18:12Z</time>
      </trkpt>
      <trkpt lat="41.7071820" lon="-0.9474370">
        <ele>63.4</ele>
        <time>2019-01-01T10:18:17Z</time>
      </trkpt>
      <trkpt lat="41.7070760" lon="-0.9473310">
        <ele>63.6</ele>
        <time>2019-01-01T10:18:20Z</time>
      </trkpt>
      <trkpt lat="41.7070450" lon="-0.9472930">
        <ele>63.8</ele>
        <time>2019-01-01T10:18:21Z</time>
      </trkpt>
      <trkpt lat="41.7068930" lon="-0.9470300">
        <ele>64.2</ele>
        <time>2019-01-01T10:18:27Z</time>
      </trkpt>
      <trkpt lat="41.7068650" lon="-0.9468430">
        <ele>64.2</ele>
        <time>2019-01-01T10:18:31Z</time>
      </trkpt>
      <trkpt lat="41.7068140" lon="-0.9466380">
        <ele>64.2</ele>
        <time>2019-01-01T10:18:35Z</time>
      </trkpt>
      <trkpt lat="41.7066870" lon="-0.9463150">
        <ele>64.2</ele>
        <time>2019-01-01T10:18:41Z</time>
      </trkpt>
      <trkpt lat="41.7065730" lon="-0.9460210">
        <ele>63.8</ele>
        <time>2019-01-01T10:18:46Z</time>
      </trkpt>
      <trkpt lat="41.7065570" lon="-0.9459560">
        <ele>63.6</ele>
        <time>2019-01-01T10:18:47Z</time>
      </trkpt>
      <trkpt lat="41.7064970" lon="-0.9457310">
        <ele>63.6</ele>
        <time>2019-01-01T10:18:51Z</time>
      </trkpt>
      <trkpt lat="41.7064610" lon="-0.9455750">
        <ele>63.6</ele>
        <time>2019-01-01T10:18:54Z</time>
      </trkpt>
      <trkpt lat="41.7064360" lon="-0.9454710">
        <ele>63.6</ele>
        <time>2019-01-01T10:18:56Z</time>
      </trkpt>
      <trkpt lat="41.7064170" lon="-0.9453580">
        <ele>63.6</ele>
        <time>2019-01-01T10:18:58Z</time>
      </trkpt>
      <trkpt lat="41.7064050" lon="-0.9452490">
        <ele>63.8</ele>
        <time>2019-01-01T10:19:00Z</time>
      </trkpt>
      <trkpt lat="41.7064110" lon="-0.9450170">
        <ele>63.8</ele>
        <time>2019-01-01T10:19:04Z</time>
      </trkpt>
      <trkpt lat="41.7063760" lon="-0.9448690">
        <ele>63.8</ele>
        <time>2019-01-01T10:19:07Z</time>
      </trkpt>
      <trkpt lat="41.7062980" lon="-0.9446530">
        <ele>63.8</ele>
        <time>2019-01-01T10:19:11Z</time>
      </trkpt>
      <trkpt lat="41.7062820" lon="-0.9445940">
        <ele>63.8</ele>
        <time>2019-01-01T10:19:12Z</time>
      </trkpt>
      <trkpt lat="41.7062170" lon="-0.9444180">
        <ele>64.0</ele>
        <time>2019-01-01T10:19:15Z</time>
      </trkpt>
      <trkpt lat="41.7061860" lon="-0.9442940">
        <ele>64.0</ele>
        <time>2019-01-01T10:19:17Z</time>
      </trkpt>
      <trkpt lat="41.7061780" lon="-0.9441910">
        <ele>64.0</ele>
        <time>2019-01-01T10:19:19Z</time>
      </trkpt>
      <trkpt lat="41.7061920" lon="-0.9439530">
        <ele>64.0</ele>
        <time>2019-01-01T10:19:23Z</time>
      </trkpt>
      <trkpt lat="41.7061970" lon="-0.9438310">
        <ele>63.8</ele>
        <time>2019-01-01T10:19:25Z</time>
      </trkpt>
      <trkpt lat="41.7061940" lon="-0.9436830">
        <ele>63.6</ele>
        <time>2019-01-01T10:19:27Z</time>
      </trkpt>
      <trkpt lat="41.7061840" lon="-0.9435460">
        <ele>63.2</ele>
        <time>2019-01-01T10:19:29Z</time>
      </trkpt>
      <trkpt lat="41.7061640" lon="-0.9434040">
        <ele>63.0</ele>
        <time>2019-01-01T10:19:31Z</time>
      </trkpt>
      <trkpt lat="41.7061360" lon="-0.9432050">
        <ele>62.8</ele>
        <time>2019-01-01T10:19:34Z</time>
      </trkpt>
      <trkpt lat="41.7060950" lon="-0.9430840">
        <ele>62.8</ele>
        <time>2019-01-01T10:19:36Z</time>
      </trkpt>
      <trkpt lat="41.7060600" lon="-0.9428540">
        <ele>62.8</ele>
        <time>2019-01-01T10:19:40Z</time>
      </trkpt>
      <trkpt lat="41.7060020" lon="-0.9427070">
        <ele>63.0</ele>
        <time>2019-01-01T10:19:43Z</time>
      </trkpt>
      <trkpt lat="41.7058720" lon="-0.9424990">
        <ele>63.4</ele>
        <time>2019-01-01T10:19:48Z</time>
      </trkpt>
      <trkpt lat="41.7058520" lon="-0.9424480">
        <ele>63.6</ele>
        <time>2019-01-01T10:19:49Z</time>
      </trkpt>
      <trkpt lat="41.7057900" lon="-0.9422950">
        <ele>63.6</ele>
        <time>2019-01-01T10:19:52Z</time>
      </trkpt>
      <trkpt lat="41.7057220" lon="-0.9422050">
        <ele>63.4</ele>
        <time>2019-01-01T10:19:54Z</time>
      </trkpt>
      <trkpt lat="41.7056480" lon="-0.9420930">
        <ele>63.2</ele>
        <time>2019-01-01T10:19:56Z</time>
      </trkpt>
      <trkpt lat="41.7055600" lon="-0.9419270">
        <ele>63.2</ele>
        <time>2019-01-01T10:19:59Z</time>
      </trkpt>
      <trkpt lat="41.7053610" lon="-0.9416770">
        <ele>63.0</ele>
        <time>2019-01-01T10:20:05Z</time>
      </trkpt>
      <trkpt lat="41.7053270" lon="-0.9416340">
        <ele>62.8</ele>
        <time>2019-01-01T10:20:06Z</time>
      </trkpt>
      <trkpt lat="41.7052650" lon="-0.9415380">
        <ele>62.8</ele>
        <time>2019-01-01T10:20:08Z</time>
      </trkpt>
      <trkpt lat="41.7052290" lon="-0.9414990">
        <ele>62.8</ele>
        <time>2019-01-01T10:20:09Z</time>
      </trkpt>
      <trkpt lat="41.7051160" lon="-0.9413490">
        <ele>63.0</ele>
        <time>2019-01-01T10:20:13Z</time>
      </trkpt>
      <trkpt lat="41.7050820" lon="-0.9412630">
        <ele>64.2</ele>
        <time>2019-01-01T10:20:16Z</time>
      </trkpt>
      <trkpt lat="41.7050650" lon="-0.9412280">
        <ele>64.4</ele>
        <time>2019-01-01T10:20:17Z</time>
      </trkpt>
      <trkpt lat="41.7050510" lon="-0.9411780">
        <ele>64.4</ele>
        <time>2019-01-01T10:20:18Z</time>
      </trkpt>
      <trkpt lat="41.7050780" lon="-0.9410650">
        <ele>64.4</ele>
        <time>2019-01-01T10:20:20Z</time>
      </trkpt>
      <trkpt lat="41.7051530" lon="-0.9409500">
        <ele>64.2</ele>
        <time>2019-01-01T10:20:22Z</time>
      </trkpt>
      <trkpt lat="41.7052030" lon="-0.9408690">
        <ele>64.6</ele>
        <time>2019-01-01T10:20:24Z</time>
      </trkpt>
      <trkpt lat="41.7052080" lon="-0.9408290">
        <ele>65.0</ele>
        <time>2019-01-01T10:20:25Z</time>
      </trkpt>
      <trkpt lat="41.7052020" lon="-0.9407840">
        <ele>65.2</ele>
        <time>2019-01-01T10:20:26Z</time>
      </trkpt>
      <trkpt lat="41.7051890" lon="-0.9407290">
        <ele>65.2</ele>
        <time>2019-01-01T10:20:27Z</time>
      </trkpt>
      <trkpt lat="41.7051250" lon="-0.9404330">
        <ele>65.8</ele>
        <time>2019-01-01T10:20:31Z</time>
      </trkpt>
      <trkpt lat="41.7051050" lon="-0.9403490">
        <ele>66.0</ele>
        <time>2019-01-01T10:20:32Z</time>
      </trkpt>
      <trkpt lat="41.7049700" lon="-0.9399470">
        <ele>66.4</ele>
        <time>2019-01-01T10:20:37Z</time>
      </trkpt>
      <trkpt lat="41.7047620" lon="-0.9395530">
        <ele>66.4</ele>
        <time>2019-01-01T10:20:43Z</time>
      </trkpt>
      <trkpt lat="41.7047360" lon="-0.9394890">
        <ele>66.2</ele>
        <time>2019-01-01T10:20:44Z</time>
      </trkpt>
      <trkpt lat="41.7046920" lon="-0.9392960">
        <ele>65.8</ele>
        <time>2019-01-01T10:20:47Z</time>
      </trkpt>
      <trkpt lat="41.7046970" lon="-0.9390410">
        <ele>65.8</ele>
        <time>2019-01-01T10:20:52Z</time>
      </trkpt>
      <trkpt lat="41.7047500" lon="-0.9388090">
        <ele>65.8</ele>
        <time>2019-01-01T10:20:58Z</time>
      </trkpt>
      <trkpt lat="41.7048530" lon="-0.9385010">
        <ele>66.0</ele>
        <time>2019-01-01T10:21:06Z</time>
      </trkpt>
      <trkpt lat="41.7049800" lon="-0.9381840">
        <ele>65.4</ele>
        <time>2019-01-01T10:21:13Z</time>
      </trkpt>
      <trkpt lat="41.7051320" lon="-0.9378240">
        <ele>65.6</ele>
        <time>2019-01-01T10:21:21Z</time>
      </trkpt>
      <trkpt lat="41.7051910" lon="-0.9376040">
        <ele>65.4</ele>
        <time>2019-01-01T10:21:27Z</time>
      </trkpt>
      <trkpt lat="41.7051110" lon="-0.9374680">
        <ele>65.0</ele>
        <time>2019-01-01T10:21:31Z</time>
      </trkpt>
      <trkpt lat="41.7050750" lon="-0.9374380">
        <ele>64.8</ele>
        <time>2019-01-01T10:21:32Z</time>
      </trkpt>
      <trkpt lat="41.7049720" lon="-0.9373730">
        <ele>63.6</ele>
        <time>2019-01-01T10:21:35Z</time>
      </trkpt>
      <trkpt lat="41.7049500" lon="-0.9373550">
        <ele>63.2</ele>
        <time>2019-01-01T10:21:36Z</time>
      </trkpt>
      <trkpt lat="41.7048960" lon="-0.9372900">
        <ele>62.4</ele>
        <time>2019-01-01T10:21:39Z</time>
      </trkpt>
      <trkpt lat="41.7048680" lon="-0.9372640">
        <ele>62.4</ele>
        <time>2019-01-01T10:21:40Z</time>
      </trkpt>
      <trkpt lat="41.7048380" lon="-0.9372390">
        <ele>62.4</ele>
        <time>2019-01-01T10:21:41Z</time>
      </trkpt>
      <trkpt lat="41.7047690" lon="-0.9371770">
        <ele>62.4</ele>
        <time>2019-01-01T10:21:43Z</time>
      </trkpt>
      <trkpt lat="41.7046670" lon="-0.9370440">
        <ele>62.4</ele>
        <time>2019-01-01T10:21:46Z</time>
      </trkpt>
      <trkpt lat="41.7044270" lon="-0.9367360">
        <ele>62.8</ele>
        <time>2019-01-01T10:21:53Z</time>
      </trkpt>
      <trkpt lat="41.7041950" lon="-0.9364340">
        <ele>62.6</ele>
        <time>2019-01-01T10:22:00Z</time>
      </trkpt>
      <trkpt lat="41.7040180" lon="-0.9361640">
        <ele>62.8</ele>
        <time>2019-01-01T10:22:06Z</time>
      </trkpt>
      <trkpt lat="41.7039830" lon="-0.9361250">
        <ele>62.8</ele>
        <time>2019-01-01T10:22:07Z</time>
      </trkpt>
      <trkpt lat="41.7038740" lon="-0.9360000">
        <ele>62.6</ele>
        <time>2019-01-01T10:22:10Z</time>
      </trkpt>
      <trkpt lat="41.7037660" lon="-0.9358700">
        <ele>62.6</ele>
        <time>2019-01-01T10:22:13Z</time>
      </trkpt>
      <trkpt lat="41.7037300" lon="-0.9358280">
        <ele>62.6</ele>
        <time>2019-01-01T10:22:14Z</time>
      </trkpt>
      <trkpt lat="41.7035770" lon="-0.9356740">
        <ele>62.8</ele>
        <time>2019-01-01T10:22:18Z</time>
      </trkpt>
      <trkpt lat="41.7033420" lon="-0.9354640">
        <ele>62.6</ele>
        <time>2019-01-01T10:22:24Z</time>
      </trkpt>
      <trkpt lat="41.7032210" lon="-0.9353470">
        <ele>62.6</ele>
        <time>2019-01-01T10:22:27Z</time>
      </trkpt>
      <trkpt lat="41.7031250" lon="-0.9353000">
        <ele>62.6</ele>
        <time>2019-01-01T10:22:29Z</time>
      </trkpt>
      <trkpt lat="41.7027820" lon="-0.9351580">
        <ele>62.8</ele>
        <time>2019-01-01T10:22:36Z</time>
      </trkpt>
      <trkpt lat="41.7026960" lon="-0.9349380">
        <ele>62.8</ele>
        <time>2019-01-01T10:22:40Z</time>
      </trkpt>
      <trkpt lat="41.7027330" lon="-0.9348170">
        <ele>62.8</ele>
        <time>2019-01-01T10:22:42Z</time>
      </trkpt>
      <trkpt lat="41.7027810" lon="-0.9347000">
        <ele>62.6</ele>
        <time>2019-01-01T10:22:44Z</time>
      </trkpt>
      <trkpt lat="41.7028010" lon="-0.9346380">
        <ele>62.6</ele>
        <time>2019-01-01T10:22:45Z</time>
      </trkpt>
      <trkpt lat="41.7028500" lon="-0.9344530">
        <ele>62.6</ele>
        <time>2019-01-01T10:22:48Z</time>
      </trkpt>
      <trkpt lat="41.7028710" lon="-0.9343940">
        <ele>62.6</ele>
        <time>2019-01-01T10:22:49Z</time>
      </trkpt>
      <trkpt lat="41.7030190" lon="-0.9339730">
        <ele>62.8</ele>
        <time>2019-01-01T10:22:56Z</time>
      </trkpt>
      <trkpt lat="41.7030690" lon="-0.9338600">
        <ele>62.8</ele>
        <time>2019-01-01T10:22:58Z</time>
      </trkpt>
      <trkpt lat="41.7031440" lon="-0.9336890">
        <ele>62.8</ele>
        <time>2019-01-01T10:23:01Z</time>
      </trkpt>
      <trkpt lat="41.7033050" lon="-0.9332670">
        <ele>62.8</ele>
        <time>2019-01-01T10:23:08Z</time>
      </trkpt>
      <trkpt lat="41.7034890" lon="-0.9327710">
        <ele>62.4</ele>
        <time>2019-01-01T10:23:16Z</time>
      </trkpt>
      <trkpt lat="41.7036790" lon="-0.9322830">
        <ele>62.8</ele>
        <time>2019-01-01T10:23:24Z</time>
      </trkpt>
      <trkpt lat="41.7039290" lon="-0.9317910">
        <ele>62.8</ele>
        <time>2019-01-01T10:23:33Z</time>
      </trkpt>
      <trkpt lat="41.7040900" lon="-0.9315600">
        <ele>62.8</ele>
        <time>2019-01-01T10:23:38Z</time>
      </trkpt>
      <trkpt lat="41.7041290" lon="-0.9315230">
        <ele>62.8</ele>
        <time>2019-01-01T10:23:39Z</time>
      </trkpt>
      <trkpt lat="41.7041650" lon="-0.9314820">
        <ele>62.8</ele>
        <time>2019-01-01T10:23:40Z</time>
      </trkpt>
      <trkpt lat="41.7041990" lon="-0.9314390">
        <ele>63.0</ele>
        <time>2019-01-01T10:23:41Z</time>
      </trkpt>
      <trkpt lat="41.7043090" lon="-0.9313260">
        <ele>63.0</ele>
        <time>2019-01-01T10:23:44Z</time>
      </trkpt>
      <trkpt lat="41.7044220" lon="-0.9311990">
        <ele>63.0</ele>
        <time>2019-01-01T10:23:47Z</time>
      </trkpt>
      <trkpt lat="41.7044770" lon="-0.9310840">
        <ele>63.0</ele>
        <time>2019-01-01T10:23:49Z</time>
      </trkpt>
      <trkpt lat="41.7045090" lon="-0.9309550">
        <ele>63.2</ele>
        <time>2019-01-01T10:23:51Z</time>
      </trkpt>
      <trkpt lat="41.7045200" lon="-0.9308890">
        <ele>63.2</ele>
        <time>2019-01-01T10:23:52Z</time>
      </trkpt>
      <trkpt lat="41.7045240" lon="-0.9307530">
        <ele>63.4</ele>
        <time>2019-01-01T10:23:54Z</time>
      </trkpt>
      <trkpt lat="41.7044900" lon="-0.9304910">
        <ele>63.4</ele>
        <time>2019-01-01T10:23:58Z</time>
      </trkpt>
      <trkpt lat="41.7044540" lon="-0.9303650">
        <ele>63.4</ele>
        <time>2019-01-01T10:24:00Z</time>
      </trkpt>
      <trkpt lat="41.7043760" lon="-0.9301920">
        <ele>63.4</ele>
        <time>2019-01-01T10:24:03Z</time>
      </trkpt>
      <trkpt lat="41.7043000" lon="-0.9301010">
        <ele>63.2</ele>
        <time>2019-01-01T10:24:05Z</time>
      </trkpt>
      <trkpt lat="41.7041080" lon="-0.9298850">
        <ele>63.6</ele>
        <time>2019-01-01T10:24:10Z</time>
      </trkpt>
      <trkpt lat="41.7040730" lon="-0.9298330">
        <ele>63.8</ele>
        <time>2019-01-01T10:24:11Z</time>
      </trkpt>
      <trkpt lat="41.7040380" lon="-0.9297760">
        <ele>64.0</ele>
        <time>2019-01-01T10:24:12Z</time>
      </trkpt>
      <trkpt lat="41.7039310" lon="-0.9295240">
        <ele>64.0</ele>
        <time>2019-01-01T10:24:16Z</time>
      </trkpt>
      <trkpt lat="41.7037900" lon="-0.9290800">
        <ele>64.0</ele>
        <time>2019-01-01T10:24:23Z</time>
      </trkpt>
      <trkpt lat="41.7036380" lon="-0.9287280">
        <ele>63.8</ele>
        <time>2019-01-01T10:24:29Z</time>
      </trkpt>
      <trkpt lat="41.7034880" lon="-0.9283960">
        <ele>64.4</ele>
        <time>2019-01-01T10:24:35Z</time>
      </trkpt>
      <trkpt lat="41.7034710" lon="-0.9283320">
        <ele>64.4</ele>
        <time>2019-01-01T10:24:36Z</time>
      </trkpt>
      <trkpt lat="41.7034550" lon="-0.9280670">
        <ele>63.8</ele>
        <time>2019-01-01T10:24:40Z</time>
      </trkpt>
      <trkpt lat="41.7035450" lon="-0.9278950">
        <ele>63.6</ele>
        <time>2019-01-01T10:24:43Z</time>
      </trkpt>
      <trkpt lat="41.7037130" lon="-0.9277430">
        <ele>63.6</ele>
        <time>2019-01-01T10:24:47Z</time>
      </trkpt>
      <trkpt lat="41.7038050" lon="-0.9276740">
        <ele>63.6</ele>
        <time>2019-01-01T10:24:49Z</time>
      </trkpt>
      <trkpt lat="41.7039010" lon="-0.9276170">
        <ele>63.8</ele>
        <time>2019-01-01T10:24:51Z</time>
      </trkpt>
      <trkpt lat="41.7040030" lon="-0.9275930">
        <ele>63.8</ele>
        <time>2019-01-01T10:24:53Z</time>
      </trkpt>
      <trkpt lat="41.7041450" lon="-0.9275140">
        <ele>63.6</ele>
        <time>2019-01-01T10:24:56Z</time>
      </trkpt>
      <trkpt lat="41.7041910" lon="-0.9274810">
        <ele>63.4</ele>
        <time>2019-01-01T10:24:57Z</time>
      </trkpt>
      <trkpt lat="41.7043740" lon="-0.9273540">
        <ele>63.4</ele>
        <time>2019-01-01T10:25:01Z</time>
      </trkpt>
      <trkpt lat="41.7044690" lon="-0.9273080">
        <ele>63.6</ele>
        <time>2019-01-01T10:25:03Z</time>
      </trkpt>
      <trkpt lat="41.7045130" lon="-0.9272800">
        <ele>63.6</ele>
        <time>2019-01-01T10:25:04Z</time>
      </trkpt>
      <trkpt lat="41.7047650" lon="-0.9270480">
        <ele>63.2</ele>
        <time>2019-01-01T10:25:10Z</time>
      </trkpt>
      <trkpt lat="41.7048900" lon="-0.9269310">
        <ele>63.4</ele>
        <time>2019-01-01T10:25:13Z</time>
      </trkpt>
      <trkpt lat="41.7049510" lon="-0.9268270">
        <ele>63.4</ele>
        <time>2019-01-01T10:25:15Z</time>
      </trkpt>
      <trkpt lat="41.7049960" lon="-0.9267060">
        <ele>63.8</ele>
        <time>2019-01-01T10:25:17Z</time>
      </trkpt>
      <trkpt lat="41.7050120" lon="-0.9266430">
        <ele>63.8</ele>
        <time>2019-01-01T10:25:18Z</time>
      </trkpt>
      <trkpt lat="41.7050290" lon="-0.9265110">
        <ele>63.8</ele>
        <time>2019-01-01T10:25:20Z</time>
      </trkpt>
      <trkpt lat="41.7049780" lon="-0.9262350">
        <ele>63.8</ele>
        <time>2019-01-01T10:25:24Z</time>
      </trkpt>
      <trkpt lat="41.7049530" lon="-0.9260930">
        <ele>63.6</ele>
        <time>2019-01-01T10:25:26Z</time>
      </trkpt>
      <trkpt lat="41.7049600" lon="-0.9259500">
        <ele>63.6</ele>
        <time>2019-01-01T10:25:28Z</time>
      </trkpt>
      <trkpt lat="41.7050520" lon="-0.9257070">
        <ele>63.4</ele>
        <time>2019-01-01T10:25:32Z</time>
      </trkpt>
      <trkpt lat="41.7050770" lon="-0.9256540">
        <ele>63.2</ele>
        <time>2019-01-01T10:25:33Z</time>
      </trkpt>
      <trkpt lat="41.7052540" lon="-0.9252280">
        <ele>62.8</ele>
        <time>2019-01-01T10:25:40Z</time>
      </trkpt>
      <trkpt lat="41.7053070" lon="-0.9251060">
        <ele>62.8</ele>
        <time>2019-01-01T10:25:42Z</time>
      </trkpt>
      <trkpt lat="41.7053650" lon="-0.9249900">
        <ele>62.8</ele>
        <time>2019-01-01T10:25:44Z</time>
      </trkpt>
      <trkpt lat="41.7054100" lon="-0.9248650">
        <ele>62.8</ele>
        <time>2019-01-01T10:25:46Z</time>
      </trkpt>
      <trkpt lat="41.7054770" lon="-0.9246760">
        <ele>63.0</ele>
        <time>2019-01-01T10:25:49Z</time>
      </trkpt>
      <trkpt lat="41.7054920" lon="-0.9245510">
        <ele>63.6</ele>
        <time>2019-01-01T10:25:51Z</time>
      </trkpt>
      <trkpt lat="41.7054210" lon="-0.9244320">
        <ele>64.4</ele>
        <time>2019-01-01T10:25:54Z</time>
      </trkpt>
      <trkpt lat="41.7053870" lon="-0.9244090">
        <ele>64.8</ele>
        <time>2019-01-01T10:25:55Z</time>
      </trkpt>
      <trkpt lat="41.7053510" lon="-0.9243880">
        <ele>64.8</ele>
        <time>2019-01-01T10:25:56Z</time>
      </trkpt>
      <trkpt lat="41.7052820" lon="-0.9243250">
        <ele>65.0</ele>
        <time>2019-01-01T10:25:58Z</time>
      </trkpt>
      <trkpt lat="41.7052500" lon="-0.9242840">
        <ele>64.8</ele>
        <time>2019-01-01T10:25:59Z</time>
      </trkpt>
      <trkpt lat="41.7051610" lon="-0.9240860">
        <ele>65.0</ele>
        <time>2019-01-01T10:26:03Z</time>
      </trkpt>
      <trkpt lat="41.7050940" lon="-0.9239380">
        <ele>65.0</ele>
        <time>2019-01-01T10:26:06Z</time>
      </trkpt>
      <trkpt lat="41.7050690" lon="-0.9238920">
        <ele>65.0</ele>
        <time>2019-01-01T10:26:07Z</time>
      </trkpt>
      <trkpt lat="41.7050380" lon="-0.9238500">
        <ele>65.0</ele>
        <time>2019-01-01T10:26:08Z</time>
      </trkpt>
      <trkpt lat="41.7048590" lon="-0.9236780">
        <ele>65.2</ele>
        <time>2019-01-01T10:26:13Z</time>
      </trkpt>
      <trkpt lat="41.7046850" lon="-0.9235730">
        <ele>65.0</ele>
        <time>2019-01-01T10:26:17Z</time>
      </trkpt>
      <trkpt lat="41.7046140" lon="-0.9235080">
        <ele>64.8</ele>
        <time>2019-01-01T10:26:19Z</time>
      </trkpt>
      <trkpt lat="41.7044140" lon="-0.9232710">
        <ele>64.8</ele>
        <time>2019-01-01T10:26:25Z</time>
      </trkpt>
      <trkpt lat="41.7041270" lon="-0.9229610">
        <ele>64.8</ele>
        <time>2019-01-01T10:26:32Z</time>
      </trkpt>
      <trkpt lat="41.7038250" lon="-0.9226060">
        <ele>64.6</ele>
        <time>2019-01-01T10:26:40Z</time>
      </trkpt>
      <trkpt lat="41.7037250" lon="-0.9224530">
        <ele>64.6</ele>
        <time>2019-01-01T10:26:43Z</time>
      </trkpt>
      <trkpt lat="41.7036590" lon="-0.9222850">
        <ele>64.8</ele>
        <time>2019-01-01T10:26:46Z</time>
      </trkpt>
      <trkpt lat="41.7035450" lon="-0.9218760">
        <ele>64.8</ele>
        <time>2019-01-01T10:26:53Z</time>
      </trkpt>
      <trkpt lat="41.7034540" lon="-0.9216450">
        <ele>64.8</ele>
        <time>2019-01-01T10:26:57Z</time>
      </trkpt>
      <trkpt lat="41.7033920" lon="-0.9215420">
        <ele>64.8</ele>
        <time>2019-01-01T10:26:59Z</time>
      </trkpt>
      <trkpt lat="41.7033550" lon="-0.9214900">
        <ele>64.8</ele>
        <time>2019-01-01T10:27:00Z</time>
      </trkpt>
      <trkpt lat="41.7032030" lon="-0.9213330">
        <ele>64.6</ele>
        <time>2019-01-01T10:27:04Z</time>
      </trkpt>
      <trkpt lat="41.7029000" lon="-0.9211090">
        <ele>65.0</ele>
        <time>2019-01-01T10:27:11Z</time>
      </trkpt>
      <trkpt lat="41.7024780" lon="-0.9208670">
        <ele>64.8</ele>
        <time>2019-01-01T10:27:20Z</time>
      </trkpt>
      <trkpt lat="41.7024350" lon="-0.9208300">
        <ele>65.0</ele>
        <time>2019-01-01T10:27:21Z</time>
      </trkpt>
      <trkpt lat="41.7022840" lon="-0.9206490">
        <ele>65.2</ele>
        <time>2019-01-01T10:27:25Z</time>
      </trkpt>
      <trkpt lat="41.7020980" lon="-0.9202330">
        <ele>65.0</ele>
        <time>2019-01-01T10:27:32Z</time>
      </trkpt>
      <trkpt lat="41.7020410" lon="-0.9198230">
        <ele>65.0</ele>
        <time>2019-01-01T10:27:38Z</time>
      </trkpt>
      <trkpt lat="41.7020570" lon="-0.9195510">
        <ele>65.0</ele>
        <time>2019-01-01T10:27:42Z</time>
      </trkpt>
      <trkpt lat="41.7020400" lon="-0.9194250">
        <ele>65.2</ele>
        <time>2019-01-01T10:27:44Z</time>
      </trkpt>
      <trkpt lat="41.7020040" lon="-0.9193050">
        <ele>65.4</ele>
        <time>2019-01-01T10:27:46Z</time>
      </trkpt>
      <trkpt lat="41.7019550" lon="-0.9191900">
        <ele>65.2</ele>
        <time>2019-01-01T10:27:48Z</time>
      </trkpt>
      <trkpt lat="41.7019230" lon="-0.9191330">
        <ele>65.2</ele>
        <time>2019-01-01T10:27:49Z</time>
      </trkpt>
      <trkpt lat="41.7016710" lon="-0.9188610">
        <ele>65.2</ele>
        <time>2019-01-01T10:27:55Z</time>
      </trkpt>
      <trkpt lat="41.7013590" lon="-0.9186760">
        <ele>65.4</ele>
        <time>2019-01-01T10:28:01Z</time>
      </trkpt>
      <trkpt lat="41.7012270" lon="-0.9184410">
        <ele>65.4</ele>
        <time>2019-01-01T10:28:05Z</time>
      </trkpt>
      <trkpt lat="41.7012080" lon="-0.9182250">
        <ele>65.6</ele>
        <time>2019-01-01T10:28:08Z</time>
      </trkpt>
      <trkpt lat="41.7012110" lon="-0.9181560">
        <ele>66.0</ele>
        <time>2019-01-01T10:28:09Z</time>
      </trkpt>
      <trkpt lat="41.7012180" lon="-0.9180880">
        <ele>66.0</ele>
        <time>2019-01-01T10:28:10Z</time>
      </trkpt>
      <trkpt lat="41.7012280" lon="-0.9180240">
        <ele>66.2</ele>
        <time>2019-01-01T10:28:11Z</time>
      </trkpt>
      <trkpt lat="41.7012430" lon="-0.9179640">
        <ele>66.4</ele>
        <time>2019-01-01T10:28:12Z</time>
      </trkpt>
      <trkpt lat="41.7012970" lon="-0.9178080">
        <ele>67.6</ele>
        <time>2019-01-01T10:28:15Z</time>
      </trkpt>
      <trkpt lat="41.7013390" lon="-0.9176680">
        <ele>68.8</ele>
        <time>2019-01-01T10:28:18Z</time>
      </trkpt>
      <trkpt lat="41.7013320" lon="-0.9175820">
        <ele>69.4</ele>
        <time>2019-01-01T10:28:20Z</time>
      </trkpt>
      <trkpt lat="41.7013190" lon="-0.9175410">
        <ele>70.0</ele>
        <time>2019-01-01T10:28:21Z</time>
      </trkpt>
      <trkpt lat="41.7012640" lon="-0.9174360">
        <ele>70.8</ele>
        <time>2019-01-01T10:28:24Z</time>
      </trkpt>
      <trkpt lat="41.7012420" lon="-0.9174030">
        <ele>71.4</ele>
        <time>2019-01-01T10:28:25Z</time>
      </trkpt>
      <trkpt lat="41.7011960" lon="-0.9173320">
        <ele>72.0</ele>
        <time>2019-01-01T10:28:27Z</time>
      </trkpt>
      <trkpt lat="41.7010340" lon="-0.9170610">
        <ele>72.6</ele>
        <time>2019-01-01T10:28:34Z</time>
      </trkpt>
      <trkpt lat="41.7009790" lon="-0.9169730">
        <ele>72.8</ele>
        <time>2019-01-01T10:28:36Z</time>
      </trkpt>
      <trkpt lat="41.7009210" lon="-0.9168790">
        <ele>73.0</ele>
        <time>2019-01-01T10:28:38Z</time>
      </trkpt>
      <trkpt lat="41.7008630" lon="-0.9167860">
        <ele>73.0</ele>
        <time>2019-01-01T10:28:40Z</time>
      </trkpt>
      <trkpt lat="41.7008380" lon="-0.9167370">
        <ele>73.2</ele>
        <time>2019-01-01T10:28:41Z</time>
      </trkpt>
      <trkpt lat="41.7006160" lon="-0.9164070">
        <ele>73.4</ele>
        <time>2019-01-01T10:28:48Z</time>
      </trkpt>
      <trkpt lat="41.7005760" lon="-0.9163630">
        <ele>73.4</ele>
        <time>2019-01-01T10:28:49Z</time>
      </trkpt>
      <trkpt lat="41.7003850" lon="-0.9162200">
        <ele>73.4</ele>
        <time>2019-01-01T10:28:53Z</time>
      </trkpt>
      <trkpt lat="41.7002450" lon="-0.9160930">
        <ele>73.4</ele>
        <time>2019-01-01T10:28:56Z</time>
      </trkpt>
      <trkpt lat="41.7001810" lon="-0.9159890">
        <ele>73.6</ele>
        <time>2019-01-01T10:28:58Z</time>
      </trkpt>
      <trkpt lat="41.7001360" lon="-0.9158850">
        <ele>73.6</ele>
        <time>2019-01-01T10:29:00Z</time>
      </trkpt>
      <trkpt lat="41.7000400" lon="-0.9156300">
        <ele>73.8</ele>
        <time>2019-01-01T10:29:05Z</time>
      </trkpt>
      <trkpt lat="41.6999210" lon="-0.9152840">
        <ele>74.0</ele>
        <time>2019-01-01T10:29:11Z</time>
      </trkpt>
      <trkpt lat="41.6998980" lon="-0.9152220">
        <ele>74.0</ele>
        <time>2019-01-01T10:29:12Z</time>
      </trkpt>
      <trkpt lat="41.6997420" lon="-0.9147600">
        <ele>73.8</ele>
        <time>2019-01-01T10:29:19Z</time>
      </trkpt>
      <trkpt lat="41.6997120" lon="-0.9146920">
        <ele>73.8</ele>
        <time>2019-01-01T10:29:20Z</time>
      </trkpt>
      <trkpt lat="41.6995920" lon="-0.9144810">
        <ele>73.0</ele>
        <time>2019-01-01T10:29:23Z</time>
      </trkpt>
      <trkpt lat="41.6995520" lon="-0.9144030">
        <ele>72.8</ele>
        <time>2019-01-01T10:29:24Z</time>
      </trkpt>
      <trkpt lat="41.6994350" lon="-0.9141690">
        <ele>71.8</ele>
        <time>2019-01-01T10:29:27Z</time>
      </trkpt>
      <trkpt lat="41.6993340" lon="-0.9139510">
        <ele>70.8</ele>
        <time>2019-01-01T10:29:30Z</time>
      </trkpt>
      <trkpt lat="41.6992440" lon="-0.9137630">
        <ele>70.8</ele>
        <time>2019-01-01T10:29:33Z</time>
      </trkpt>
      <trkpt lat="41.6991640" lon="-0.9135930">
        <ele>70.4</ele>
        <time>2019-01-01T10:29:36Z</time>
      </trkpt>
      <trkpt lat="41.6989880" lon="-0.9132940">
        <ele>71.2</ele>
        <time>2019-01-01T10:29:42Z</time>
      </trkpt>
      <trkpt lat="41.6989530" lon="-0.9132470">
        <ele>71.4</ele>
        <time>2019-01-01T10:29:43Z</time>
      </trkpt>
      <trkpt lat="41.6988360" lon="-0.9131200">
        <ele>71.8</ele>
        <time>2019-01-01T10:29:46Z</time>
      </trkpt>
      <trkpt lat="41.6987120" lon="-0.9129930">
        <ele>72.2</ele>
        <time>2019-01-01T10:29:49Z</time>
      </trkpt>
      <trkpt lat="41.6985700" lon="-0.9128250">
        <ele>72.8</ele>
        <time>2019-01-01T10:29:53Z</time>
      </trkpt>
      <trkpt lat="41.6985390" lon="-0.9127720">
        <ele>73.0</ele>
        <time>2019-01-01T10:29:54Z</time>
      </trkpt>
      <trkpt lat="41.6985130" lon="-0.9127140">
        <ele>73.0</ele>
        <time>2019-01-01T10:29:55Z</time>
      </trkpt>
      <trkpt lat="41.6984320" lon="-0.9124550">
        <ele>73.0</ele>
        <time>2019-01-01T10:29:59Z</time>
      </trkpt>
      <trkpt lat="41.6984110" lon="-0.9123150">
        <ele>73.4</ele>
        <time>2019-01-01T10:30:01Z</time>
      </trkpt>
      <trkpt lat="41.6983800" lon="-0.9118260">
        <ele>72.8</ele>
        <time>2019-01-01T10:30:08Z</time>
      </trkpt>
      <trkpt lat="41.6982650" lon="-0.9113870">
        <ele>72.2</ele>
        <time>2019-01-01T10:30:14Z</time>
      </trkpt>
      <trkpt lat="41.6982390" lon="-0.9113120">
        <ele>72.0</ele>
        <time>2019-01-01T10:30:15Z</time>
      </trkpt>
      <trkpt lat="41.6980440" lon="-0.9109000">
        <ele>72.0</ele>
        <time>2019-01-01T10:30:21Z</time>
      </trkpt>
      <trkpt lat="41.6978150" lon="-0.9106070">
        <ele>73.2</ele>
        <time>2019-01-01T10:30:27Z</time>
      </trkpt>
      <trkpt lat="41.6977710" lon="-0.9105700">
        <ele>73.8</ele>
        <time>2019-01-01T10:30:28Z</time>
      </trkpt>
      <trkpt lat="41.6977280" lon="-0.9105290">
        <ele>74.2</ele>
        <time>2019-01-01T10:30:29Z</time>
      </trkpt>
      <trkpt lat="41.6976530" lon="-0.9104450">
        <ele>74.8</ele>
        <time>2019-01-01T10:30:31Z</time>
      </trkpt>
      <trkpt lat="41.6975940" lon="-0.9103620">
        <ele>75.2</ele>
        <time>2019-01-01T10:30:33Z</time>
      </trkpt>
      <trkpt lat="41.6975160" lon="-0.9102090">
        <ele>75.6</ele>
        <time>2019-01-01T10:30:36Z</time>
      </trkpt>
      <trkpt lat="41.6974970" lon="-0.9101420">
        <ele>75.8</ele>
        <time>2019-01-01T10:30:37Z</time>
      </trkpt>
      <trkpt lat="41.6974910" lon="-0.9100790">
        <ele>76.0</ele>
        <time>2019-01-01T10:30:38Z</time>
      </trkpt>
      <trkpt lat="41.6974860" lon="-0.9099820">
        <ele>76.2</ele>
        <time>2019-01-01T10:30:40Z</time>
      </trkpt>
      <trkpt lat="41.6974110" lon="-0.9098640">
        <ele>76.8</ele>
        <time>2019-01-01T10:30:43Z</time>
      </trkpt>
      <trkpt lat="41.6973840" lon="-0.9097650">
        <ele>77.0</ele>
        <time>2019-01-01T10:30:45Z</time>
      </trkpt>
      <trkpt lat="41.6973590" lon="-0.9096790">
        <ele>76.8</ele>
        <time>2019-01-01T10:30:47Z</time>
      </trkpt>
      <trkpt lat="41.6972000" lon="-0.9093240">
        <ele>77.0</ele>
        <time>2019-01-01T10:30:55Z</time>
      </trkpt>
      <trkpt lat="41.6970100" lon="-0.9090660">
        <ele>76.8</ele>
        <time>2019-01-01T10:31:01Z</time>
      </trkpt>
      <trkpt lat="41.6969760" lon="-0.9090100">
        <ele>76.8</ele>
        <time>2019-01-01T10:31:02Z</time>
      </trkpt>
      <trkpt lat="41.6968760" lon="-0.9087510">
        <ele>76.0</ele>
        <time>2019-01-01T10:31:06Z</time>
      </trkpt>
      <trkpt lat="41.6968610" lon="-0.9086760">
        <ele>75.8</ele>
        <time>2019-01-01T10:31:07Z</time>
      </trkpt>
      <trkpt lat="41.6967860" lon="-0.9082850">
        <ele>75.0</ele>
        <time>2019-01-01T10:31:12Z</time>
      </trkpt>
      <trkpt lat="41.6967850" lon="-0.9081360">
        <ele>74.8</ele>
        <time>2019-01-01T10:31:14Z</time>
      </trkpt>
      <trkpt lat="41.6968000" lon="-0.9080000">
        <ele>74.6</ele>
        <time>2019-01-01T10:31:16Z</time>
      </trkpt>
      <trkpt lat="41.6968890" lon="-0.9075300">
        <ele>74.6</ele>
        <time>2019-01-01T10:31:23Z</time>
      </trkpt>
      <trkpt lat="41.6968960" lon="-0.9074610">
        <ele>74.6</ele>
        <time>2019-01-01T10:31:24Z</time>
      </trkpt>
      <trkpt lat="41.6968880" lon="-0.9071760">
        <ele>74.6</ele>
        <time>2019-01-01T10:31:28Z</time>
      </trkpt>
      <trkpt lat="41.6968160" lon="-0.9068980">
        <ele>74.8</ele>
        <time>2019-01-01T10:31:32Z</time>
      </trkpt>
      <trkpt lat="41.6967730" lon="-0.9067670">
        <ele>75.0</ele>
        <time>2019-01-01T10:31:34Z</time>
      </trkpt>
      <trkpt lat="41.6966470" lon="-0.9063790">
        <ele>75.8</ele>
        <time>2019-01-01T10:31:40Z</time>
      </trkpt>
      <trkpt lat="41.6966280" lon="-0.9063170">
        <ele>75.8</ele>
        <time>2019-01-01T10:31:41Z</time>
      </trkpt>
      <trkpt lat="41.6965240" lon="-0.9060200">
        <ele>77.0</ele>
        <time>2019-01-01T10:31:46Z</time>
      </trkpt>
      <trkpt lat="41.6964710" lon="-0.9059060">
        <ele>77.4</ele>
        <time>2019-01-01T10:31:48Z</time>
      </trkpt>
      <trkpt lat="41.6964110" lon="-0.9058010">
        <ele>77.6</ele>
        <time>2019-01-01T10:31:50Z</time>
      </trkpt>
      <trkpt lat="41.6963460" lon="-0.9056890">
        <ele>78.0</ele>
        <time>2019-01-01T10:31:52Z</time>
      </trkpt>
      <trkpt lat="41.6963140" lon="-0.9056300">
        <ele>78.6</ele>
        <time>2019-01-01T10:31:53Z</time>
      </trkpt>
      <trkpt lat="41.6962840" lon="-0.9055690">
        <ele>79.0</ele>
        <time>2019-01-01T10:31:54Z</time>
      </trkpt>
      <trkpt lat="41.6962070" lon="-0.9053860">
        <ele>80.0</ele>
        <time>2019-01-01T10:31:57Z</time>
      </trkpt>
      <trkpt lat="41.6961350" lon="-0.9052040">
        <ele>80.2</ele>
        <time>2019-01-01T10:32:00Z</time>
      </trkpt>
      <trkpt lat="41.6958990" lon="-0.9046240">
        <ele>79.8</ele>
        <time>2019-01-01T10:32:09Z</time>
      </trkpt>
      <trkpt lat="41.6958090" lon="-0.9044000">
        <ele>79.0</ele>
        <time>2019-01-01T10:32:12Z</time>
      </trkpt>
      <trkpt lat="41.6956880" lon="-0.9041100">
        <ele>78.6</ele>
        <time>2019-01-01T10:32:16Z</time>
      </trkpt>
      <trkpt lat="41.6956110" lon="-0.9039180">
        <ele>78.8</ele>
        <time>2019-01-01T10:32:19Z</time>
      </trkpt>
      <trkpt lat="41.6955480" lon="-0.9038100">
        <ele>79.0</ele>
        <time>2019-01-01T10:32:21Z</time>
      </trkpt>
      <trkpt lat="41.6955150" lon="-0.9037660">
        <ele>79.0</ele>
        <time>2019-01-01T10:32:22Z</time>
      </trkpt>
      <trkpt lat="41.6953840" lon="-0.9036680">
        <ele>78.4</ele>
        <time>2019-01-01T10:32:25Z</time>
      </trkpt>
      <trkpt lat="41.6952680" lon="-0.9036270">
        <ele>77.8</ele>
        <time>2019-01-01T10:32:27Z</time>
      </trkpt>
      <trkpt lat="41.6951360" lon="-0.9035730">
        <ele>77.2</ele>
        <time>2019-01-01T10:32:29Z</time>
      </trkpt>
      <trkpt lat="41.6950200" lon="-0.9034720">
        <ele>76.6</ele>
        <time>2019-01-01T10:32:31Z</time>
      </trkpt>
      <trkpt lat="41.6949780" lon="-0.9034030">
        <ele>76.2</ele>
        <time>2019-01-01T10:32:32Z</time>
      </trkpt>
      <trkpt lat="41.6949080" lon="-0.9032570">
        <ele>75.4</ele>
        <time>2019-01-01T10:32:34Z</time>
      </trkpt>
      <trkpt lat="41.6948540" lon="-0.9031080">
        <ele>75.0</ele>
        <time>2019-01-01T10:32:36Z</time>
      </trkpt>
      <trkpt lat="41.6948290" lon="-0.9030200">
        <ele>74.8</ele>
        <time>2019-01-01T10:32:37Z</time>
      </trkpt>
      <trkpt lat="41.6947480" lon="-0.9027790">
        <ele>74.2</ele>
        <time>2019-01-01T10:32:40Z</time>
      </trkpt>
      <trkpt lat="41.6946880" lon="-0.9026440">
        <ele>74.2</ele>
        <time>2019-01-01T10:32:42Z</time>
      </trkpt>
      <trkpt lat="41.6946600" lon="-0.9024460">
        <ele>74.4</ele>
        <time>2019-01-01T10:32:45Z</time>
      </trkpt>
      <trkpt lat="41.6946210" lon="-0.9022000">
        <ele>74.6</ele>
        <time>2019-01-01T10:32:49Z</time>
      </trkpt>
      <trkpt lat="41.6946000" lon="-0.9021370">
        <ele>74.6</ele>
        <time>2019-01-01T10:32:50Z</time>
      </trkpt>
      <trkpt lat="41.6945750" lon="-0.9020750">
        <ele>74.8</ele>
        <time>2019-01-01T10:32:51Z</time>
      </trkpt>
      <trkpt lat="41.6945290" lon="-0.9019490">
        <ele>75.4</ele>
        <time>2019-01-01T10:32:53Z</time>
      </trkpt>
      <trkpt lat="41.6945050" lon="-0.9018840">
        <ele>75.6</ele>
        <time>2019-01-01T10:32:54Z</time>
      </trkpt>
      <trkpt lat="41.6943350" lon="-0.9014230">
        <ele>76.0</ele>
        <time>2019-01-01T10:33:00Z</time>
      </trkpt>
      <trkpt lat="41.6941770" lon="-0.9008730">
        <ele>75.0</ele>
        <time>2019-01-01T10:33:07Z</time>
      </trkpt>
      <trkpt lat="41.6941170" lon="-0.9007380">
        <ele>75.0</ele>
        <time>2019-01-01T10:33:09Z</time>
      </trkpt>
      <trkpt lat="41.6940150" lon="-0.9005690">
        <ele>75.0</ele>
        <time>2019-01-01T10:33:12Z</time>
      </trkpt>
      <trkpt lat="41.6937680" lon="-0.9002060">
        <ele>74.8</ele>
        <time>2019-01-01T10:33:19Z</time>
      </trkpt>
      <trkpt lat="41.6935740" lon="-0.8999310">
        <ele>74.6</ele>
        <time>2019-01-01T10:33:24Z</time>
      </trkpt>
      <trkpt lat="41.6933370" lon="-0.8995950">
        <ele>75.8</ele>
        <time>2019-01-01T10:33:30Z</time>
      </trkpt>
      <trkpt lat="41.6932990" lon="-0.8995220">
        <ele>75.8</ele>
        <time>2019-01-01T10:33:31Z</time>
      </trkpt>
      <trkpt lat="41.6932100" lon="-0.8992850">
        <ele>76.0</ele>
        <time>2019-01-01T10:33:34Z</time>
      </trkpt>
      <trkpt lat="41.6931780" lon="-0.8992010">
        <ele>76.0</ele>
        <time>2019-01-01T10:33:35Z</time>
      </trkpt>
      <trkpt lat="41.6931100" lon="-0.8990460">
        <ele>75.6</ele>
        <time>2019-01-01T10:33:37Z</time>
      </trkpt>
      <trkpt lat="41.6930470" lon="-0.8989140">
        <ele>75.2</ele>
        <time>2019-01-01T10:33:39Z</time>
      </trkpt>
      <trkpt lat="41.6930170" lon="-0.8988660">
        <ele>75.2</ele>
        <time>2019-01-01T10:33:40Z</time>
      </trkpt>
      <trkpt lat="41.6929290" lon="-0.8987190">
        <ele>75.0</ele>
        <time>2019-01-01T10:33:43Z</time>
      </trkpt>
      <trkpt lat="41.6927730" lon="-0.8984530">
        <ele>75.8</ele>
        <time>2019-01-01T10:33:49Z</time>
      </trkpt>
      <trkpt lat="41.6926970" lon="-0.8983160">
        <ele>76.0</ele>
        <time>2019-01-01T10:33:52Z</time>
      </trkpt>
      <trkpt lat="41.6926340" lon="-0.8981890">
        <ele>76.4</ele>
        <time>2019-01-01T10:33:55Z</time>
      </trkpt>
      <trkpt lat="41.6924450" lon="-0.8979590">
        <ele>77.0</ele>
        <time>2019-01-01T10:34:01Z</time>
      </trkpt>
      <trkpt lat="41.6922130" lon="-0.8977560">
        <ele>76.6</ele>
        <time>2019-01-01T10:34:06Z</time>
      </trkpt>
      <trkpt lat="41.6919450" lon="-0.8974060">
        <ele>76.0</ele>
        <time>2019-01-01T10:34:13Z</time>
      </trkpt>
      <trkpt lat="41.6917170" lon="-0.8970380">
        <ele>76.0</ele>
        <time>2019-01-01T10:34:20Z</time>
      </trkpt>
      <trkpt lat="41.6916760" lon="-0.8969940">
        <ele>76.0</ele>
        <time>2019-01-01T10:34:21Z</time>
      </trkpt>
      <trkpt lat="41.6914640" lon="-0.8968060">
        <ele>76.0</ele>
        <time>2019-01-01T10:34:26Z</time>
      </trkpt>
      <trkpt lat="41.6910710" lon="-0.8964550">
        <ele>75.8</ele>
        <time>2019-01-01T10:34:35Z</time>
      </trkpt>
      <trkpt lat="41.6910270" lon="-0.8964170">
        <ele>75.8</ele>
        <time>2019-01-01T10:34:36Z</time>
      </trkpt>
      <trkpt lat="41.6907150" lon="-0.8961350">
        <ele>75.6</ele>
        <time>2019-01-01T10:34:44Z</time>
      </trkpt>
      <trkpt lat="41.6906310" lon="-0.8959620">
        <ele>75.6</ele>
        <time>2019-01-01T10:34:49Z</time>
      </trkpt>
      <trkpt lat="41.6906690" lon="-0.8959270">
        <ele>75.8</ele>
        <time>2019-01-01T10:34:52Z</time>
      </trkpt>
      <trkpt lat="41.6906800" lon="-0.8959340">
        <ele>75.8</ele>
        <time>2019-01-01T10:34:54Z</time>
      </trkpt>
      <trkpt lat="41.6906580" lon="-0.8959470">
        <ele>76.0</ele>
        <time>2019-01-01T10:34:58Z</time>
      </trkpt>
      <trkpt lat="41.6906350" lon="-0.8959480">
        <ele>76.0</ele>
        <time>2019-01-01T10:34:59Z</time>
      </trkpt>
      <trkpt lat="41.6905380" lon="-0.8959320">
        <ele>75.6</ele>
        <time>2019-01-01T10:35:04Z</time>
      </trkpt>
      <trkpt lat="41.6904770" lon="-0.8959280">
        <ele>75.8</ele>
        <time>2019-01-01T10:35:09Z</time>
      </trkpt>
      <trkpt lat="41.6904610" lon="-0.8959370">
        <ele>75.8</ele>
        <time>2019-01-01T10:35:10Z</time>
      </trkpt>
      <trkpt lat="41.6904140" lon="-0.8959640">
        <ele>75.8</ele>
        <time>2019-01-01T10:35:12Z</time>
      </trkpt>
      <trkpt lat="41.6902620" lon="-0.8959410">
        <ele>75.6</ele>
        <time>2019-01-01T10:35:16Z</time>
      </trkpt>
      <trkpt lat="41.6901890" lon="-0.8958960">
        <ele>75.6</ele>
        <time>2019-01-01T10:35:18Z</time>
      </trkpt>
      <trkpt lat="41.6900830" lon="-0.8958200">
        <ele>76.0</ele>
        <time>2019-01-01T10:35:21Z</time>
      </trkpt>
      <trkpt lat="41.6900160" lon="-0.8957490">
        <ele>76.0</ele>
        <time>2019-01-01T10:35:23Z</time>
      </trkpt>
      <trkpt lat="41.6899430" lon="-0.8956250">
        <ele>76.0</ele>
        <time>2019-01-01T10:35:26Z</time>
      </trkpt>
      <trkpt lat="41.6899210" lon="-0.8955750">
        <ele>76.0</ele>
        <time>2019-01-01T10:35:27Z</time>
      </trkpt>
      <trkpt lat="41.6898930" lon="-0.8954720">
        <ele>76.2</ele>
        <time>2019-01-01T10:35:29Z</time>
      </trkpt>
      <trkpt lat="41.6898810" lon="-0.8953560">
        <ele>76.6</ele>
        <time>2019-01-01T10:35:31Z</time>
      </trkpt>
      <trkpt lat="41.6898820" lon="-0.8952340">
        <ele>76.6</ele>
        <time>2019-01-01T10:35:33Z</time>
      </trkpt>
      <trkpt lat="41.6898750" lon="-0.8950420">
        <ele>76.6</ele>
        <time>2019-01-01T10:35:36Z</time>
      </trkpt>
      <trkpt lat="41.6898630" lon="-0.8949830">
        <ele>76.2</ele>
        <time>2019-01-01T10:35:37Z</time>
      </trkpt>
      <trkpt lat="41.6897890" lon="-0.8947680">
        <ele>76.0</ele>
        <time>2019-01-01T10:35:41Z</time>
      </trkpt>
      <trkpt lat="41.6897460" lon="-0.8946770">
        <ele>76.2</ele>
        <time>2019-01-01T10:35:43Z</time>
      </trkpt>
      <trkpt lat="41.6896900" lon="-0.8945290">
        <ele>75.8</ele>
        <time>2019-01-01T10:35:46Z</time>
      </trkpt>
      <trkpt lat="41.6896560" lon="-0.8943570">
        <ele>75.8</ele>
        <time>2019-01-01T10:35:49Z</time>
      </trkpt>
      <trkpt lat="41.6895750" lon="-0.8939760">
        <ele>76.4</ele>
        <time>2019-01-01T10:35:55Z</time>
      </trkpt>
      <trkpt lat="41.6895510" lon="-0.8939140">
        <ele>76.4</ele>
        <time>2019-01-01T10:35:56Z</time>
      </trkpt>
      <trkpt lat="41.6894520" lon="-0.8937470">
        <ele>76.6</ele>
        <time>2019-01-01T10:35:59Z</time>
      </trkpt>
      <trkpt lat="41.6894150" lon="-0.8936990">
        <ele>76.8</ele>
        <time>2019-01-01T10:36:00Z</time>
      </trkpt>
      <trkpt lat="41.6892020" lon="-0.8934140">
        <ele>77.4</ele>
        <time>2019-01-01T10:36:06Z</time>
      </trkpt>
      <trkpt lat="41.6891040" lon="-0.8932470">
        <ele>77.8</ele>
        <time>2019-01-01T10:36:09Z</time>
      </trkpt>
      <trkpt lat="41.6890270" lon="-0.8930830">
        <ele>78.0</ele>
        <time>2019-01-01T10:36:12Z</time>
      </trkpt>
      <trkpt lat="41.6889630" lon="-0.8928900">
        <ele>78.2</ele>
        <time>2019-01-01T10:36:15Z</time>
      </trkpt>
      <trkpt lat="41.6889240" lon="-0.8927530">
        <ele>78.4</ele>
        <time>2019-01-01T10:36:17Z</time>
      </trkpt>
      <trkpt lat="41.6887990" lon="-0.8922740">
        <ele>78.6</ele>
        <time>2019-01-01T10:36:24Z</time>
      </trkpt>
      <trkpt lat="41.6886480" lon="-0.8917600">
        <ele>78.6</ele>
        <time>2019-01-01T10:36:32Z</time>
      </trkpt>
      <trkpt lat="41.6886240" lon="-0.8917020">
        <ele>78.8</ele>
        <time>2019-01-01T10:36:33Z</time>
      </trkpt>
      <trkpt lat="41.6884660" lon="-0.8914100">
        <ele>78.2</ele>
        <time>2019-01-01T10:36:38Z</time>
      </trkpt>
      <trkpt lat="41.6882540" lon="-0.8910790">
        <ele>77.6</ele>
        <time>2019-01-01T10:36:44Z</time>
      </trkpt>
      <trkpt lat="41.6881790" lon="-0.8909680">
        <ele>77.4</ele>
        <time>2019-01-01T10:36:46Z</time>
      </trkpt>
      <trkpt lat="41.6879790" lon="-0.8905970">
        <ele>76.4</ele>
        <time>2019-01-01T10:36:52Z</time>
      </trkpt>
      <trkpt lat="41.6877900" lon="-0.8901620">
        <ele>75.4</ele>
        <time>2019-01-01T10:36:59Z</time>
      </trkpt>
      <trkpt lat="41.6877200" lon="-0.8900360">
        <ele>75.2</ele>
        <time>2019-01-01T10:37:01Z</time>
      </trkpt>
      <trkpt lat="41.6875360" lon="-0.8899940">
        <ele>74.2</ele>
        <time>2019-01-01T10:37:04Z</time>
      </trkpt>
      <trkpt lat="41.6874070" lon="-0.8901000">
        <ele>72.8</ele>
        <time>2019-01-01T10:37:06Z</time>
      </trkpt>
      <trkpt lat="41.6873430" lon="-0.8901540">
        <ele>72.0</ele>
        <time>2019-01-01T10:37:07Z</time>
      </trkpt>
      <trkpt lat="41.6872740" lon="-0.8901920">
        <ele>71.6</ele>
        <time>2019-01-01T10:37:08Z</time>
      </trkpt>
      <trkpt lat="41.6871270" lon="-0.8902150">
        <ele>70.8</ele>
        <time>2019-01-01T10:37:10Z</time>
      </trkpt>
      <trkpt lat="41.6869880" lon="-0.8901720">
        <ele>70.4</ele>
        <time>2019-01-01T10:37:12Z</time>
      </trkpt>
      <trkpt lat="41.6869280" lon="-0.8901320">
        <ele>70.2</ele>
        <time>2019-01-01T10:37:13Z</time>
      </trkpt>
      <trkpt lat="41.6868220" lon="-0.8900390">
        <ele>70.0</ele>
        <time>2019-01-01T10:37:15Z</time>
      </trkpt>
      <trkpt lat="41.6866720" lon="-0.8899280">
        <ele>69.8</ele>
        <time>2019-01-01T10:37:18Z</time>
      </trkpt>
      <trkpt lat="41.6864430" lon="-0.8899180">
        <ele>69.2</ele>
        <time>2019-01-01T10:37:22Z</time>
      </trkpt>
      <trkpt lat="41.6861780" lon="-0.8899380">
        <ele>68.2</ele>
        <time>2019-01-01T10:37:26Z</time>
      </trkpt>
      <trkpt lat="41.6859720" lon="-0.8899420">
        <ele>67.0</ele>
        <time>2019-01-01T10:37:29Z</time>
      </trkpt>
      <trkpt lat="41.6859020" lon="-0.8899450">
        <ele>66.6</ele>
        <time>2019-01-01T10:37:30Z</time>
      </trkpt>
      <trkpt lat="41.6856240" lon="-0.8899570">
        <ele>65.8</ele>
        <time>2019-01-01T10:37:34Z</time>
      </trkpt>
      <trkpt lat="41.6852860" lon="-0.8899640">
        <ele>65.0</ele>
        <time>2019-01-01T10:37:39Z</time>
      </trkpt>
      <trkpt lat="41.6852210" lon="-0.8899660">
        <ele>64.6</ele>
        <time>2019-01-01T10:37:40Z</time>
      </trkpt>
      <trkpt lat="41.6849670" lon="-0.8899770">
        <ele>63.4</ele>
        <time>2019-01-01T10:37:44Z</time>
      </trkpt>
      <trkpt lat="41.6847180" lon="-0.8899820">
        <ele>62.8</ele>
        <time>2019-01-01T10:37:48Z</time>
      </trkpt>
      <trkpt lat="41.6842940" lon="-0.8899910">
        <ele>62.8</ele>
        <time>2019-01-01T10:37:55Z</time>
      </trkpt>
      <trkpt lat="41.6840610" lon="-0.8900110">
        <ele>62.4</ele>
        <time>2019-01-01T10:37:59Z</time>
      </trkpt>
      <trkpt lat="41.6840070" lon="-0.8900350">
        <ele>62.2</ele>
        <time>2019-01-01T10:38:00Z</time>
      </trkpt>
      <trkpt lat="41.6839550" lon="-0.8900640">
        <ele>62.2</ele>
        <time>2019-01-01T10:38:01Z</time>
      </trkpt>
      <trkpt lat="41.6839000" lon="-0.8900870">
        <ele>62.2</ele>
        <time>2019-01-01T10:38:02Z</time>
      </trkpt>
      <trkpt lat="41.6837230" lon="-0.8901040">
        <ele>62.2</ele>
        <time>2019-01-01T10:38:05Z</time>
      </trkpt>
      <trkpt lat="41.6833080" lon="-0.8901100">
        <ele>61.2</ele>
        <time>2019-01-01T10:38:12Z</time>
      </trkpt>
      <trkpt lat="41.6832510" lon="-0.8901020">
        <ele>61.4</ele>
        <time>2019-01-01T10:38:13Z</time>
      </trkpt>
      <trkpt lat="41.6830870" lon="-0.8900470">
        <ele>61.6</ele>
        <time>2019-01-01T10:38:16Z</time>
      </trkpt>
      <trkpt lat="41.6828750" lon="-0.8900500">
        <ele>61.6</ele>
        <time>2019-01-01T10:38:20Z</time>
      </trkpt>
      <trkpt lat="41.6828220" lon="-0.8900530">
        <ele>61.6</ele>
        <time>2019-01-01T10:38:21Z</time>
      </trkpt>
      <trkpt lat="41.6826060" lon="-0.8900610">
        <ele>61.0</ele>
        <time>2019-01-01T10:38:25Z</time>
      </trkpt>
      <trkpt lat="41.6823940" lon="-0.8900700">
        <ele>60.8</ele>
        <time>2019-01-01T10:38:29Z</time>
      </trkpt>
      <trkpt lat="41.6818480" lon="-0.8900810">
        <ele>60.8</ele>
        <time>2019-01-01T10:38:39Z</time>
      </trkpt>
      <trkpt lat="41.6815150" lon="-0.8901140">
        <ele>60.6</ele>
        <time>2019-01-01T10:38:45Z</time>
      </trkpt>
      <trkpt lat="41.6814640" lon="-0.8901470">
        <ele>60.6</ele>
        <time>2019-01-01T10:38:46Z</time>
      </trkpt>
      <trkpt lat="41.6813400" lon="-0.8903100">
        <ele>60.4</ele>
        <time>2019-01-01T10:38:49Z</time>
      </trkpt>
      <trkpt lat="41.6812910" lon="-0.8903540">
        <ele>60.2</ele>
        <time>2019-01-01T10:38:50Z</time>
      </trkpt>
      <trkpt lat="41.6810620" lon="-0.8904100">
        <ele>60.2</ele>
        <time>2019-01-01T10:38:54Z</time>
      </trkpt>
      <trkpt lat="41.6808510" lon="-0.8902690">
        <ele>60.2</ele>
        <time>2019-01-01T10:38:58Z</time>
      </trkpt>
      <trkpt lat="41.6808080" lon="-0.8902170">
        <ele>60.2</ele>
        <time>2019-01-01T10:38:59Z</time>
      </trkpt>
      <trkpt lat="41.6807650" lon="-0.8901680">
        <ele>60.2</ele>
        <time>2019-01-01T10:39:00Z</time>
      </trkpt>
      <trkpt lat="41.6806700" lon="-0.8901140">
        <ele>60.2</ele>
        <time>2019-01-01T10:39:02Z</time>
      </trkpt>
      <trkpt lat="41.6805650" lon="-0.8901110">
        <ele>60.0</ele>
        <time>2019-01-01T10:39:04Z</time>
      </trkpt>
      <trkpt lat="41.6804080" lon="-0.8901220">
        <ele>60.0</ele>
        <time>2019-01-01T10:39:07Z</time>
      </trkpt>
      <trkpt lat="41.6802530" lon="-0.8901280">
        <ele>59.8</ele>
        <time>2019-01-01T10:39:10Z</time>
      </trkpt>
      <trkpt lat="41.6801140" lon="-0.8901500">
        <ele>59.8</ele>
        <time>2019-01-01T10:39:13Z</time>
      </trkpt>
      <trkpt lat="41.6798890" lon="-0.8901960">
        <ele>59.8</ele>
        <time>2019-01-01T10:39:19Z</time>
      </trkpt>
      <trkpt lat="41.6797930" lon="-0.8902620">
        <ele>59.8</ele>
        <time>2019-01-01T10:39:22Z</time>
      </trkpt>
      <trkpt lat="41.6797400" lon="-0.8902460">
        <ele>59.8</ele>
        <time>2019-01-01T10:39:23Z</time>
      </trkpt>
      <trkpt lat="41.6796040" lon="-0.8902160">
        <ele>59.8</ele>
        <time>2019-01-01T10:39:25Z</time>
      </trkpt>
      <trkpt lat="41.6794470" lon="-0.8902270">
        <ele>59.8</ele>
        <time>2019-01-01T10:39:28Z</time>
      </trkpt>
      <trkpt lat="41.6793210" lon="-0.8901820">
        <ele>59.8</ele>
        <time>2019-01-01T10:39:31Z</time>
      </trkpt>
      <trkpt lat="41.6791870" lon="-0.8901460">
        <ele>59.8</ele>
        <time>2019-01-01T10:39:36Z</time>
      </trkpt>
      <trkpt lat="41.6790640" lon="-0.8902250">
        <ele>59.8</ele>
        <time>2019-01-01T10:39:40Z</time>
      </trkpt>
      <trkpt lat="41.6789220" lon="-0.8903970">
        <ele>60.0</ele>
        <time>2019-01-01T10:39:45Z</time>
      </trkpt>
      <trkpt lat="41.6787360" lon="-0.8905940">
        <ele>60.2</ele>
        <time>2019-01-01T10:39:51Z</time>
      </trkpt>
      <trkpt lat="41.6785790" lon="-0.8907480">
        <ele>60.2</ele>
        <time>2019-01-01T10:39:56Z</time>
      </trkpt>
      <trkpt lat="41.6785040" lon="-0.8908030">
        <ele>60.2</ele>
        <time>2019-01-01T10:39:58Z</time>
      </trkpt>
      <trkpt lat="41.6783380" lon="-0.8908590">
        <ele>60.0</ele>
        <time>2019-01-01T10:40:02Z</time>
      </trkpt>
      <trkpt lat="41.6781930" lon="-0.8908450">
        <ele>60.4</ele>
        <time>2019-01-01T10:40:07Z</time>
      </trkpt>
      <trkpt lat="41.6780620" lon="-0.8908490">
        <ele>60.4</ele>
        <time>2019-01-01T10:40:13Z</time>
      </trkpt>
      <trkpt lat="41.6778980" lon="-0.8908340">
        <ele>60.4</ele>
        <time>2019-01-01T10:40:19Z</time>
      </trkpt>
      <trkpt lat="41.6776650" lon="-0.8908350">
        <ele>60.6</ele>
        <time>2019-01-01T10:40:27Z</time>
      </trkpt>
      <trkpt lat="41.6774420" lon="-0.8908480">
        <ele>60.8</ele>
        <time>2019-01-01T10:40:34Z</time>
      </trkpt>
      <trkpt lat="41.6773700" lon="-0.8908520">
        <ele>61.0</ele>
        <time>2019-01-01T10:40:36Z</time>
      </trkpt>
      <trkpt lat="41.6770880" lon="-0.8908580">
        <ele>61.0</ele>
        <time>2019-01-01T10:40:44Z</time>
      </trkpt>
      <trkpt lat="41.6769030" lon="-0.8908110">
        <ele>61.2</ele>
        <time>2019-01-01T10:40:49Z</time>
      </trkpt>
      <trkpt lat="41.6766180" lon="-0.8908080">
        <ele>61.0</ele>
        <time>2019-01-01T10:40:56Z</time>
      </trkpt>
      <trkpt lat="41.6763790" lon="-0.8907990">
        <ele>60.8</ele>
        <time>2019-01-01T10:41:03Z</time>
      </trkpt>
      <trkpt lat="41.6761970" lon="-0.8907890">
        <ele>60.6</ele>
        <time>2019-01-01T10:41:10Z</time>
      </trkpt>
      <trkpt lat="41.6760930" lon="-0.8907830">
        <ele>60.6</ele>
        <time>2019-01-01T10:41:15Z</time>
      </trkpt>
      <trkpt lat="41.6759410" lon="-0.8907630">
        <ele>60.6</ele>
        <time>2019-01-01T10:41:20Z</time>
      </trkpt>
      <trkpt lat="41.6756450" lon="-0.8906870">
        <ele>61.0</ele>
        <time>2019-01-01T10:41:27Z</time>
      </trkpt>
      <trkpt lat="41.6752850" lon="-0.8907020">
        <ele>61.0</ele>
        <time>2019-01-01T10:41:36Z</time>
      </trkpt>
      <trkpt lat="41.6750840" lon="-0.8907870">
        <ele>61.0</ele>
        <time>2019-01-01T10:41:42Z</time>
      </trkpt>
      <trkpt lat="41.6747310" lon="-0.8908240">
        <ele>60.4</ele>
        <time>2019-01-01T10:41:51Z</time>
      </trkpt>
      <trkpt lat="41.6746240" lon="-0.8908670">
        <ele>60.4</ele>
        <time>2019-01-01T10:41:54Z</time>
      </trkpt>
      <trkpt lat="41.6746070" lon="-0.8909130">
        <ele>60.4</ele>
        <time>2019-01-01T10:41:55Z</time>
      </trkpt>
      <trkpt lat="41.6745950" lon="-0.8910750">
        <ele>60.6</ele>
        <time>2019-01-01T10:41:58Z</time>
      </trkpt>
      <trkpt lat="41.6745660" lon="-0.8911100">
        <ele>60.6</ele>
        <time>2019-01-01T10:41:59Z</time>
      </trkpt>
      <trkpt lat="41.6744310" lon="-0.8911030">
        <ele>60.4</ele>
        <time>2019-01-01T10:42:02Z</time>
      </trkpt>
      <trkpt lat="41.6743880" lon="-0.8910980">
        <ele>60.4</ele>
        <time>2019-01-01T10:42:03Z</time>
      </trkpt>
      <trkpt lat="41.6742150" lon="-0.8910890">
        <ele>60.4</ele>
        <time>2019-01-01T10:42:08Z</time>
      </trkpt>
      <trkpt lat="41.6743490" lon="-0.8911480">
        <ele>60.4</ele>
        <time>2019-01-01T10:42:12Z</time>
      </trkpt>
      <trkpt lat="41.6745000" lon="-0.8912140">
        <ele>60.2</ele>
        <time>2019-01-01T10:42:14Z</time>
      </trkpt>
      <trkpt lat="41.6746520" lon="-0.8912790">
        <ele>66.8</ele>
        <time>2019-01-01T11:38:14Z</time>
      </trkpt>
      <trkpt lat="41.6748030" lon="-0.8913450">
        <ele>67.0</ele>
        <time>2019-01-01T11:38:15Z</time>
      </trkpt>
      <trkpt lat="41.6748230" lon="-0.8916210">
        <ele>66.8</ele>
        <time>2019-01-01T11:38:21Z</time>
      </trkpt>
      <trkpt lat="41.6748500" lon="-0.8918920">
        <ele>66.8</ele>
        <time>2019-01-01T11:38:27Z</time>
      </trkpt>
      <trkpt lat="41.6748390" lon="-0.8921970">
        <ele>67.0</ele>
        <time>2019-01-01T11:38:34Z</time>
      </trkpt>
      <trkpt lat="41.6748160" lon="-0.8924690">
        <ele>67.0</ele>
        <time>2019-01-01T11:38:40Z</time>
      </trkpt>
      <trkpt lat="41.6748350" lon="-0.8928770">
        <ele>66.8</ele>
        <time>2019-01-01T11:38:49Z</time>
      </trkpt>
      <trkpt lat="41.6748240" lon="-0.8931540">
        <ele>66.8</ele>
        <time>2019-01-01T11:38:56Z</time>
      </trkpt>
      <trkpt lat="41.6747990" lon="-0.8934720">
        <ele>66.8</ele>
        <time>2019-01-01T11:39:03Z</time>
      </trkpt>
      <trkpt lat="41.6748130" lon="-0.8937930">
        <ele>67.0</ele>
        <time>2019-01-01T11:39:10Z</time>
      </trkpt>
      <trkpt lat="41.6747800" lon="-0.8940910">
        <ele>67.0</ele>
        <time>2019-01-01T11:39:16Z</time>
      </trkpt>
      <trkpt lat="41.6747790" lon="-0.8943480">
        <ele>67.0</ele>
        <time>2019-01-01T11:39:21Z</time>
      </trkpt>
      <trkpt lat="41.6748200" lon="-0.8946740">
        <ele>66.8</ele>
        <time>2019-01-01T11:39:27Z</time>
      </trkpt>
      <trkpt lat="41.6748390" lon="-0.8950500">
        <ele>66.4</ele>
        <time>2019-01-01T11:39:34Z</time>
      </trkpt>
      <trkpt lat="41.6748590" lon="-0.8951450">
        <ele>66.4</ele>
        <time>2019-01-01T11:39:36Z</time>
      </trkpt>
      <trkpt lat="41.6748730" lon="-0.8951790">
        <ele>66.8</ele>
        <time>2019-01-01T11:39:38Z</time>
      </trkpt>
      <trkpt lat="41.6749410" lon="-0.8951710">
        <ele>67.0</ele>
        <time>2019-01-01T11:39:41Z</time>
      </trkpt>
      <trkpt lat="41.6749740" lon="-0.8951760">
        <ele>66.8</ele>
        <time>2019-01-01T11:39:42Z</time>
      </trkpt>
      <trkpt lat="41.6751040" lon="-0.8952100">
        <ele>66.6</ele>
        <time>2019-01-01T11:39:46Z</time>
      </trkpt>
      <trkpt lat="41.6751260" lon="-0.8952370">
        <ele>66.6</ele>
        <time>2019-01-01T11:39:47Z</time>
      </trkpt>
      <trkpt lat="41.6751450" lon="-0.8953490">
        <ele>66.4</ele>
        <time>2019-01-01T11:39:50Z</time>
      </trkpt>
      <trkpt lat="41.6751910" lon="-0.8955110">
        <ele>66.4</ele>
        <time>2019-01-01T11:39:54Z</time>
      </trkpt>
      <trkpt lat="41.6752930" lon="-0.8957140">
        <ele>66.2</ele>
        <time>2019-01-01T11:39:59Z</time>
      </trkpt>
      <trkpt lat="41.6753190" lon="-0.8958530">
        <ele>66.2</ele>
        <time>2019-01-01T11:40:04Z</time>
      </trkpt>
      <trkpt lat="41.6753030" lon="-0.8958550">
        <ele>66.0</ele>
        <time>2019-01-01T11:40:06Z</time>
      </trkpt>
      <trkpt lat="41.6752780" lon="-0.8959700">
        <ele>66.2</ele>
        <time>2019-01-01T11:40:23Z</time>
      </trkpt>
      <trkpt lat="41.6752930" lon="-0.8960080">
        <ele>66.2</ele>
        <time>2019-01-01T11:40:24Z</time>
      </trkpt>
      <trkpt lat="41.6753460" lon="-0.8961420">
        <ele>66.2</ele>
        <time>2019-01-01T11:40:27Z</time>
      </trkpt>
      <trkpt lat="41.6753670" lon="-0.8962390">
        <ele>66.4</ele>
        <time>2019-01-01T11:40:29Z</time>
      </trkpt>
      <trkpt lat="41.6753670" lon="-0.8963900">
        <ele>66.4</ele>
        <time>2019-01-01T11:40:32Z</time>
      </trkpt>
      <trkpt lat="41.6752880" lon="-0.8964900">
        <ele>66.6</ele>
        <time>2019-01-01T11:40:34Z</time>
      </trkpt>
      <trkpt lat="41.6751610" lon="-0.8965240">
        <ele>66.4</ele>
        <time>2019-01-01T11:40:37Z</time>
      </trkpt>
      <trkpt lat="41.6749110" lon="-0.8965430">
        <ele>66.4</ele>
        <time>2019-01-01T11:40:42Z</time>
      </trkpt>
      <trkpt lat="41.6747760" lon="-0.8965520">
        <ele>66.2</ele>
        <time>2019-01-01T11:40:45Z</time>
      </trkpt>
      <trkpt lat="41.6746830" lon="-0.8965480">
        <ele>66.2</ele>
        <time>2019-01-01T11:40:47Z</time>
      </trkpt>
      <trkpt lat="41.6743670" lon="-0.8965810">
        <ele>66.4</ele>
        <time>2019-01-01T11:40:54Z</time>
      </trkpt>
      <trkpt lat="41.6742860" lon="-0.8966080">
        <ele>66.6</ele>
        <time>2019-01-01T11:40:56Z</time>
      </trkpt>
      <trkpt lat="41.6742610" lon="-0.8966510">
        <ele>66.6</ele>
        <time>2019-01-01T11:40:57Z</time>
      </trkpt>
      <trkpt lat="41.6742220" lon="-0.8968820">
        <ele>66.6</ele>
        <time>2019-01-01T11:41:01Z</time>
      </trkpt>
      <trkpt lat="41.6742120" lon="-0.8971620">
        <ele>67.4</ele>
        <time>2019-01-01T11:41:06Z</time>
      </trkpt>
      <trkpt lat="41.6742290" lon="-0.8972620">
        <ele>68.0</ele>
        <time>2019-01-01T11:41:08Z</time>
      </trkpt>
      <trkpt lat="41.6742460" lon="-0.8973650">
        <ele>68.6</ele>
        <time>2019-01-01T11:41:12Z</time>
      </trkpt>
      <trkpt lat="41.6742470" lon="-0.8973630">
        <ele>68.6</ele>
        <time>2019-01-01T11:41:13Z</time>
      </trkpt>
      <trkpt lat="41.6742520" lon="-0.8973700">
        <ele>68.8</ele>
        <time>2019-01-01T11:42:39Z</time>
      </trkpt>
      <trkpt lat="41.6742300" lon="-0.8974310">
        <ele>68.8</ele>
        <time>2019-01-01T11:42:41Z</time>
      </trkpt>
      <trkpt lat="41.6741760" lon="-0.8975490">
        <ele>69.2</ele>
        <time>2019-01-01T11:42:44Z</time>
      </trkpt>
      <trkpt lat="41.6741050" lon="-0.8976710">
        <ele>69.4</ele>
        <time>2019-01-01T11:42:47Z</time>
      </trkpt>
      <trkpt lat="41.6739980" lon="-0.8978450">
        <ele>69.4</ele>
        <time>2019-01-01T11:42:51Z</time>
      </trkpt>
      <trkpt lat="41.6739060" lon="-0.8979490">
        <ele>69.6</ele>
        <time>2019-01-01T11:42:54Z</time>
      </trkpt>
      <trkpt lat="41.6738130" lon="-0.8980640">
        <ele>69.6</ele>
        <time>2019-01-01T11:42:57Z</time>
      </trkpt>
      <trkpt lat="41.6737310" lon="-0.8981000">
        <ele>69.6</ele>
        <time>2019-01-01T11:42:59Z</time>
      </trkpt>
      <trkpt lat="41.6736420" lon="-0.8980880">
        <ele>69.6</ele>
        <time>2019-01-01T11:43:01Z</time>
      </trkpt>
      <trkpt lat="41.6735120" lon="-0.8980660">
        <ele>69.6</ele>
        <time>2019-01-01T11:43:04Z</time>
      </trkpt>
      <trkpt lat="41.6732490" lon="-0.8980520">
        <ele>69.6</ele>
        <time>2019-01-01T11:43:10Z</time>
      </trkpt>
      <trkpt lat="41.6729270" lon="-0.8980420">
        <ele>69.6</ele>
        <time>2019-01-01T11:43:17Z</time>
      </trkpt>
      <trkpt lat="41.6727400" lon="-0.8980440">
        <ele>69.6</ele>
        <time>2019-01-01T11:43:21Z</time>
      </trkpt>
      <trkpt lat="41.6726060" lon="-0.8980560">
        <ele>69.6</ele>
        <time>2019-01-01T11:43:24Z</time>
      </trkpt>
      <trkpt lat="41.6723970" lon="-0.8980810">
        <ele>69.6</ele>
        <time>2019-01-01T11:43:29Z</time>
      </trkpt>
      <trkpt lat="41.6723090" lon="-0.8980860">
        <ele>69.4</ele>
        <time>2019-01-01T11:43:31Z</time>
      </trkpt>
      <trkpt lat="41.6720850" lon="-0.8981500">
        <ele>69.2</ele>
        <time>2019-01-01T11:43:36Z</time>
      </trkpt>
      <trkpt lat="41.6720390" lon="-0.8981550">
        <ele>69.2</ele>
        <time>2019-01-01T11:43:37Z</time>
      </trkpt>
      <trkpt lat="41.6718560" lon="-0.8981790">
        <ele>69.0</ele>
        <time>2019-01-01T11:43:41Z</time>
      </trkpt>
      <trkpt lat="41.6717150" lon="-0.8981660">
        <ele>68.8</ele>
        <time>2019-01-01T11:43:44Z</time>
      </trkpt>
      <trkpt lat="41.6715010" lon="-0.8980490">
        <ele>69.0</ele>
        <time>2019-01-01T11:43:49Z</time>
      </trkpt>
      <trkpt lat="41.6714640" lon="-0.8980120">
        <ele>69.0</ele>
        <time>2019-01-01T11:43:50Z</time>
      </trkpt>
      <trkpt lat="41.6713330" lon="-0.8978340">
        <ele>69.0</ele>
        <time>2019-01-01T11:43:54Z</time>
      </trkpt>
      <trkpt lat="41.6711100" lon="-0.8975360">
        <ele>69.6</ele>
        <time>2019-01-01T11:44:01Z</time>
      </trkpt>
      <trkpt lat="41.6710680" lon="-0.8975100">
        <ele>69.4</ele>
        <time>2019-01-01T11:44:02Z</time>
      </trkpt>
      <trkpt lat="41.6709440" lon="-0.8974520">
        <ele>69.6</ele>
        <time>2019-01-01T11:44:05Z</time>
      </trkpt>
      <trkpt lat="41.6709020" lon="-0.8974280">
        <ele>69.6</ele>
        <time>2019-01-01T11:44:06Z</time>
      </trkpt>
      <trkpt lat="41.6706040" lon="-0.8973050">
        <ele>69.4</ele>
        <time>2019-01-01T11:44:13Z</time>
      </trkpt>
      <trkpt lat="41.6703050" lon="-0.8972020">
        <ele>70.4</ele>
        <time>2019-01-01T11:44:20Z</time>
      </trkpt>
      <trkpt lat="41.6700120" lon="-0.8970980">
        <ele>71.0</ele>
        <time>2019-01-01T11:44:27Z</time>
      </trkpt>
      <trkpt lat="41.6697510" lon="-0.8969950">
        <ele>71.4</ele>
        <time>2019-01-01T11:44:33Z</time>
      </trkpt>
      <trkpt lat="41.6696610" lon="-0.8969620">
        <ele>71.4</ele>
        <time>2019-01-01T11:44:35Z</time>
      </trkpt>
      <trkpt lat="41.6693190" lon="-0.8968370">
        <ele>71.2</ele>
        <time>2019-01-01T11:44:43Z</time>
      </trkpt>
      <trkpt lat="41.6690680" lon="-0.8967430">
        <ele>71.6</ele>
        <time>2019-01-01T11:44:49Z</time>
      </trkpt>
      <trkpt lat="41.6690260" lon="-0.8967310">
        <ele>71.8</ele>
        <time>2019-01-01T11:44:50Z</time>
      </trkpt>
      <trkpt lat="41.6688830" lon="-0.8966910">
        <ele>71.6</ele>
        <time>2019-01-01T11:44:54Z</time>
      </trkpt>
      <trkpt lat="41.6688400" lon="-0.8966780">
        <ele>71.6</ele>
        <time>2019-01-01T11:44:55Z</time>
      </trkpt>
      <trkpt lat="41.6686510" lon="-0.8966030">
        <ele>71.4</ele>
        <time>2019-01-01T11:45:00Z</time>
      </trkpt>
      <trkpt lat="41.6685360" lon="-0.8965300">
        <ele>71.2</ele>
        <time>2019-01-01T11:45:03Z</time>
      </trkpt>
      <trkpt lat="41.6684220" lon="-0.8964440">
        <ele>71.4</ele>
        <time>2019-01-01T11:45:06Z</time>
      </trkpt>
      <trkpt lat="41.6681890" lon="-0.8963230">
        <ele>71.2</ele>
        <time>2019-01-01T11:45:11Z</time>
      </trkpt>
      <trkpt lat="41.6679080" lon="-0.8961380">
        <ele>70.2</ele>
        <time>2019-01-01T11:45:16Z</time>
      </trkpt>
      <trkpt lat="41.6676610" lon="-0.8959500">
        <ele>70.0</ele>
        <time>2019-01-01T11:45:22Z</time>
      </trkpt>
      <trkpt lat="41.6673620" lon="-0.8956650">
        <ele>69.4</ele>
        <time>2019-01-01T11:45:29Z</time>
      </trkpt>
      <trkpt lat="41.6672040" lon="-0.8954860">
        <ele>69.2</ele>
        <time>2019-01-01T11:45:33Z</time>
      </trkpt>
      <trkpt lat="41.6670950" lon="-0.8953540">
        <ele>68.8</ele>
        <time>2019-01-01T11:45:36Z</time>
      </trkpt>
      <trkpt lat="41.6670580" lon="-0.8953110">
        <ele>68.8</ele>
        <time>2019-01-01T11:45:37Z</time>
      </trkpt>
      <trkpt lat="41.6669840" lon="-0.8952360">
        <ele>68.8</ele>
        <time>2019-01-01T11:45:39Z</time>
      </trkpt>
      <trkpt lat="41.6669030" lon="-0.8951710">
        <ele>68.6</ele>
        <time>2019-01-01T11:45:41Z</time>
      </trkpt>
      <trkpt lat="41.6666760" lon="-0.8950290">
        <ele>68.4</ele>
        <time>2019-01-01T11:45:46Z</time>
      </trkpt>
      <trkpt lat="41.6665820" lon="-0.8949700">
        <ele>68.6</ele>
        <time>2019-01-01T11:45:48Z</time>
      </trkpt>
      <trkpt lat="41.6664670" lon="-0.8948350">
        <ele>68.6</ele>
        <time>2019-01-01T11:45:51Z</time>
      </trkpt>
      <trkpt lat="41.6664150" lon="-0.8947210">
        <ele>68.8</ele>
        <time>2019-01-01T11:45:53Z</time>
      </trkpt>
      <trkpt lat="41.6663890" lon="-0.8946650">
        <ele>68.8</ele>
        <time>2019-01-01T11:45:54Z</time>
      </trkpt>
      <trkpt lat="41.6663250" lon="-0.8945650">
        <ele>69.0</ele>
        <time>2019-01-01T11:45:56Z</time>
      </trkpt>
      <trkpt lat="41.6661380" lon="-0.8943460">
        <ele>68.4</ele>
        <time>2019-01-01T11:46:01Z</time>
      </trkpt>
      <trkpt lat="41.6660240" lon="-0.8942200">
        <ele>68.4</ele>
        <time>2019-01-01T11:46:04Z</time>
      </trkpt>
      <trkpt lat="41.6656650" lon="-0.8938120">
        <ele>68.2</ele>
        <time>2019-01-01T11:46:14Z</time>
      </trkpt>
      <trkpt lat="41.6654870" lon="-0.8936170">
        <ele>68.0</ele>
        <time>2019-01-01T11:46:19Z</time>
      </trkpt>
      <trkpt lat="41.6653810" lon="-0.8934960">
        <ele>67.8</ele>
        <time>2019-01-01T11:46:22Z</time>
      </trkpt>
      <trkpt lat="41.6650990" lon="-0.8931580">
        <ele>67.8</ele>
        <time>2019-01-01T11:46:30Z</time>
      </trkpt>
      <trkpt lat="41.6648520" lon="-0.8928470">
        <ele>67.8</ele>
        <time>2019-01-01T11:46:37Z</time>
      </trkpt>
      <trkpt lat="41.6648170" lon="-0.8928020">
        <ele>67.8</ele>
        <time>2019-01-01T11:46:38Z</time>
      </trkpt>
      <trkpt lat="41.6645710" lon="-0.8924870">
        <ele>67.6</ele>
        <time>2019-01-01T11:46:45Z</time>
      </trkpt>
      <trkpt lat="41.6643000" lon="-0.8921140">
        <ele>67.6</ele>
        <time>2019-01-01T11:46:53Z</time>
      </trkpt>
      <trkpt lat="41.6639690" lon="-0.8916280">
        <ele>67.8</ele>
        <time>2019-01-01T11:47:03Z</time>
      </trkpt>
      <trkpt lat="41.6639060" lon="-0.8915290">
        <ele>67.6</ele>
        <time>2019-01-01T11:47:05Z</time>
      </trkpt>
      <trkpt lat="41.6636540" lon="-0.8911240">
        <ele>67.4</ele>
        <time>2019-01-01T11:47:13Z</time>
      </trkpt>
      <trkpt lat="41.6634060" lon="-0.8907060">
        <ele>67.6</ele>
        <time>2019-01-01T11:47:21Z</time>
      </trkpt>
      <trkpt lat="41.6631770" lon="-0.8902910">
        <ele>68.6</ele>
        <time>2019-01-01T11:47:29Z</time>
      </trkpt>
      <trkpt lat="41.6630190" lon="-0.8900210">
        <ele>69.0</ele>
        <time>2019-01-01T11:47:35Z</time>
      </trkpt>
      <trkpt lat="41.6629920" lon="-0.8899830">
        <ele>69.0</ele>
        <time>2019-01-01T11:47:36Z</time>
      </trkpt>
      <trkpt lat="41.6627910" lon="-0.8897590">
        <ele>70.0</ele>
        <time>2019-01-01T11:47:43Z</time>
      </trkpt>
      <trkpt lat="41.6627590" lon="-0.8897270">
        <ele>70.0</ele>
        <time>2019-01-01T11:47:44Z</time>
      </trkpt>
      <trkpt lat="41.6626120" lon="-0.8896520">
        <ele>70.6</ele>
        <time>2019-01-01T11:47:48Z</time>
      </trkpt>
      <trkpt lat="41.6624310" lon="-0.8896180">
        <ele>70.8</ele>
        <time>2019-01-01T11:47:54Z</time>
      </trkpt>
      <trkpt lat="41.6623920" lon="-0.8895900">
        <ele>70.8</ele>
        <time>2019-01-01T11:47:59Z</time>
      </trkpt>
      <trkpt lat="41.6623440" lon="-0.8895420">
        <ele>70.8</ele>
        <time>2019-01-01T11:48:07Z</time>
      </trkpt>
      <trkpt lat="41.6622910" lon="-0.8895000">
        <ele>71.0</ele>
        <time>2019-01-01T11:48:09Z</time>
      </trkpt>
      <trkpt lat="41.6622640" lon="-0.8894930">
        <ele>71.0</ele>
        <time>2019-01-01T11:48:10Z</time>
      </trkpt>
      <trkpt lat="41.6622120" lon="-0.8895270">
        <ele>71.2</ele>
        <time>2019-01-01T11:48:12Z</time>
      </trkpt>
      <trkpt lat="41.6620770" lon="-0.8896730">
        <ele>71.8</ele>
        <time>2019-01-01T11:48:17Z</time>
      </trkpt>
      <trkpt lat="41.6620470" lon="-0.8897100">
        <ele>72.2</ele>
        <time>2019-01-01T11:48:18Z</time>
      </trkpt>
      <trkpt lat="41.6620150" lon="-0.8897440">
        <ele>72.4</ele>
        <time>2019-01-01T11:48:19Z</time>
      </trkpt>
      <trkpt lat="41.6618800" lon="-0.8898800">
        <ele>73.0</ele>
        <time>2019-01-01T11:48:23Z</time>
      </trkpt>
      <trkpt lat="41.6615850" lon="-0.8901920">
        <ele>73.0</ele>
        <time>2019-01-01T11:48:32Z</time>
      </trkpt>
      <trkpt lat="41.6615480" lon="-0.8902270">
        <ele>73.0</ele>
        <time>2019-01-01T11:48:33Z</time>
      </trkpt>
      <trkpt lat="41.6613370" lon="-0.8904340">
        <ele>73.0</ele>
        <time>2019-01-01T11:48:39Z</time>
      </trkpt>
      <trkpt lat="41.6611210" lon="-0.8906420">
        <ele>73.4</ele>
        <time>2019-01-01T11:48:45Z</time>
      </trkpt>
      <trkpt lat="41.6609780" lon="-0.8907800">
        <ele>73.4</ele>
        <time>2019-01-01T11:48:49Z</time>
      </trkpt>
      <trkpt lat="41.6606140" lon="-0.8911330">
        <ele>73.2</ele>
        <time>2019-01-01T11:48:59Z</time>
      </trkpt>
      <trkpt lat="41.6602510" lon="-0.8914850">
        <ele>73.2</ele>
        <time>2019-01-01T11:49:09Z</time>
      </trkpt>
      <trkpt lat="41.6598990" lon="-0.8918570">
        <ele>73.2</ele>
        <time>2019-01-01T11:49:19Z</time>
      </trkpt>
      <trkpt lat="41.6598550" lon="-0.8918920">
        <ele>73.0</ele>
        <time>2019-01-01T11:49:20Z</time>
      </trkpt>
      <trkpt lat="41.6597600" lon="-0.8919200">
        <ele>72.4</ele>
        <time>2019-01-01T11:49:22Z</time>
      </trkpt>
      <trkpt lat="41.6596290" lon="-0.8918390">
        <ele>71.8</ele>
        <time>2019-01-01T11:49:25Z</time>
      </trkpt>
      <trkpt lat="41.6595980" lon="-0.8917900">
        <ele>71.8</ele>
        <time>2019-01-01T11:49:26Z</time>
      </trkpt>
      <trkpt lat="41.6595660" lon="-0.8917490">
        <ele>71.6</ele>
        <time>2019-01-01T11:49:27Z</time>
      </trkpt>
      <trkpt lat="41.6594860" lon="-0.8917070">
        <ele>71.2</ele>
        <time>2019-01-01T11:49:29Z</time>
      </trkpt>
      <trkpt lat="41.6594040" lon="-0.8916870">
        <ele>71.0</ele>
        <time>2019-01-01T11:49:31Z</time>
      </trkpt>
      <trkpt lat="41.6592850" lon="-0.8916010">
        <ele>70.4</ele>
        <time>2019-01-01T11:49:34Z</time>
      </trkpt>
      <trkpt lat="41.6592170" lon="-0.8915260">
        <ele>70.4</ele>
        <time>2019-01-01T11:49:36Z</time>
      </trkpt>
      <trkpt lat="41.6591820" lon="-0.8914850">
        <ele>70.2</ele>
        <time>2019-01-01T11:49:37Z</time>
      </trkpt>
      <trkpt lat="41.6591130" lon="-0.8914000">
        <ele>69.8</ele>
        <time>2019-01-01T11:49:39Z</time>
      </trkpt>
      <trkpt lat="41.6590820" lon="-0.8913520">
        <ele>69.8</ele>
        <time>2019-01-01T11:49:40Z</time>
      </trkpt>
      <trkpt lat="41.6590240" lon="-0.8912070">
        <ele>69.4</ele>
        <time>2019-01-01T11:49:43Z</time>
      </trkpt>
      <trkpt lat="41.6589830" lon="-0.8910360">
        <ele>69.4</ele>
        <time>2019-01-01T11:49:47Z</time>
      </trkpt>
      <trkpt lat="41.6589680" lon="-0.8909460">
        <ele>69.4</ele>
        <time>2019-01-01T11:49:49Z</time>
      </trkpt>
      <trkpt lat="41.6589490" lon="-0.8907360">
        <ele>69.4</ele>
        <time>2019-01-01T11:49:54Z</time>
      </trkpt>
      <trkpt lat="41.6589910" lon="-0.8906310">
        <ele>69.4</ele>
        <time>2019-01-01T11:49:58Z</time>
      </trkpt>
      <trkpt lat="41.6590240" lon="-0.8907010">
        <ele>69.4</ele>
        <time>2019-01-01T11:50:01Z</time>
      </trkpt>
      <trkpt lat="41.6589730" lon="-0.8907210">
        <ele>69.4</ele>
        <time>2019-01-01T11:50:04Z</time>
      </trkpt>
      <trkpt lat="41.6589910" lon="-0.8906420">
        <ele>69.4</ele>
        <time>2019-01-01T11:50:07Z</time>
      </trkpt>
      <trkpt lat="41.6590380" lon="-0.8907110">
        <ele>69.2</ele>
        <time>2019-01-01T11:50:10Z</time>
      </trkpt>
      <trkpt lat="41.6590100" lon="-0.8907560">
        <ele>69.2</ele>
        <time>2019-01-01T11:50:12Z</time>
      </trkpt>
      <trkpt lat="41.6589880" lon="-0.8907470">
        <ele>69.2</ele>
        <time>2019-01-01T11:50:13Z</time>
      </trkpt>
      <trkpt lat="41.6589900" lon="-0.8906640">
        <ele>69.2</ele>
        <time>2019-01-01T11:50:16Z</time>
      </trkpt>
      <trkpt lat="41.6590320" lon="-0.8906990">
        <ele>69.2</ele>
        <time>2019-01-01T11:50:19Z</time>
      </trkpt>
      <trkpt lat="41.6590250" lon="-0.8907670">
        <ele>69.2</ele>
        <time>2019-01-01T11:50:23Z</time>
      </trkpt>
      <trkpt lat="41.6590150" lon="-0.8908040">
        <ele>69.4</ele>
        <time>2019-01-01T11:50:27Z</time>
      </trkpt>
      <trkpt lat="41.6590080" lon="-0.8908930">
        <ele>69.6</ele>
        <time>2019-01-01T11:50:52Z</time>
      </trkpt>
      <trkpt lat="41.6590000" lon="-0.8910360">
        <ele>69.4</ele>
        <time>2019-01-01T11:50:57Z</time>
      </trkpt>
      <trkpt lat="41.6590050" lon="-0.8910630">
        <ele>69.2</ele>
        <time>2019-01-01T11:50:58Z</time>
      </trkpt>
      <trkpt lat="41.6590270" lon="-0.8911860">
        <ele>69.4</ele>
        <time>2019-01-01T11:51:02Z</time>
      </trkpt>
      <trkpt lat="41.6590720" lon="-0.8913600">
        <ele>69.6</ele>
        <time>2019-01-01T11:51:06Z</time>
      </trkpt>
      <trkpt lat="41.6590980" lon="-0.8914070">
        <ele>69.8</ele>
        <time>2019-01-01T11:51:07Z</time>
      </trkpt>
      <trkpt lat="41.6592180" lon="-0.8915540">
        <ele>70.2</ele>
        <time>2019-01-01T11:51:11Z</time>
      </trkpt>
      <trkpt lat="41.6592850" lon="-0.8916220">
        <ele>70.2</ele>
        <time>2019-01-01T11:51:13Z</time>
      </trkpt>
      <trkpt lat="41.6593680" lon="-0.8916720">
        <ele>70.4</ele>
        <time>2019-01-01T11:51:15Z</time>
      </trkpt>
      <trkpt lat="41.6595110" lon="-0.8917050">
        <ele>71.0</ele>
        <time>2019-01-01T11:51:19Z</time>
      </trkpt>
      <trkpt lat="41.6595400" lon="-0.8917110">
        <ele>71.0</ele>
        <time>2019-01-01T11:51:20Z</time>
      </trkpt>
      <trkpt lat="41.6595600" lon="-0.8917200">
        <ele>71.2</ele>
        <time>2019-01-01T11:51:21Z</time>
      </trkpt>
      <trkpt lat="41.6595680" lon="-0.8917290">
        <ele>71.2</ele>
        <time>2019-01-01T11:51:23Z</time>
      </trkpt>
      <trkpt lat="41.6595800" lon="-0.8917740">
        <ele>71.2</ele>
        <time>2019-01-01T11:51:46Z</time>
      </trkpt>
      <trkpt lat="41.6595990" lon="-0.8918410">
        <ele>71.2</ele>
        <time>2019-01-01T11:51:48Z</time>
      </trkpt>
      <trkpt lat="41.6596590" lon="-0.8920420">
        <ele>71.2</ele>
        <time>2019-01-01T11:51:53Z</time>
      </trkpt>
      <trkpt lat="41.6597950" lon="-0.8921910">
        <ele>71.0</ele>
        <time>2019-01-01T11:51:58Z</time>
      </trkpt>
      <trkpt lat="41.6599150" lon="-0.8922390">
        <ele>71.0</ele>
        <time>2019-01-01T11:52:02Z</time>
      </trkpt>
      <trkpt lat="41.6599550" lon="-0.8922330">
        <ele>70.8</ele>
        <time>2019-01-01T11:52:03Z</time>
      </trkpt>
      <trkpt lat="41.6600410" lon="-0.8921780">
        <ele>70.6</ele>
        <time>2019-01-01T11:52:05Z</time>
      </trkpt>
      <trkpt lat="41.6601780" lon="-0.8921260">
        <ele>69.0</ele>
        <time>2019-01-01T11:52:08Z</time>
      </trkpt>
      <trkpt lat="41.6602640" lon="-0.8922560">
        <ele>68.2</ele>
        <time>2019-01-01T11:52:11Z</time>
      </trkpt>
      <trkpt lat="41.6602850" lon="-0.8923070">
        <ele>68.0</ele>
        <time>2019-01-01T11:52:12Z</time>
      </trkpt>
      <trkpt lat="41.6603070" lon="-0.8923570">
        <ele>67.8</ele>
        <time>2019-01-01T11:52:13Z</time>
      </trkpt>
      <trkpt lat="41.6604260" lon="-0.8926080">
        <ele>68.0</ele>
        <time>2019-01-01T11:52:18Z</time>
      </trkpt>
      <trkpt lat="41.6604820" lon="-0.8927010">
        <ele>67.8</ele>
        <time>2019-01-01T11:52:20Z</time>
      </trkpt>
      <trkpt lat="41.6605610" lon="-0.8926980">
        <ele>67.8</ele>
        <time>2019-01-01T11:52:22Z</time>
      </trkpt>
      <trkpt lat="41.6606820" lon="-0.8925490">
        <ele>67.8</ele>
        <time>2019-01-01T11:52:26Z</time>
      </trkpt>
      <trkpt lat="41.6607910" lon="-0.8924500">
        <ele>67.6</ele>
        <time>2019-01-01T11:52:29Z</time>
      </trkpt>
      <trkpt lat="41.6609210" lon="-0.8923510">
        <ele>67.2</ele>
        <time>2019-01-01T11:52:32Z</time>
      </trkpt>
      <trkpt lat="41.6609720" lon="-0.8923380">
        <ele>67.0</ele>
        <time>2019-01-01T11:52:33Z</time>
      </trkpt>
      <trkpt lat="41.6610250" lon="-0.8923410">
        <ele>66.8</ele>
        <time>2019-01-01T11:52:34Z</time>
      </trkpt>
      <trkpt lat="41.6610730" lon="-0.8923590">
        <ele>66.8</ele>
        <time>2019-01-01T11:52:35Z</time>
      </trkpt>
      <trkpt lat="41.6611760" lon="-0.8924660">
        <ele>66.4</ele>
        <time>2019-01-01T11:52:38Z</time>
      </trkpt>
      <trkpt lat="41.6612020" lon="-0.8925090">
        <ele>66.4</ele>
        <time>2019-01-01T11:52:39Z</time>
      </trkpt>
      <trkpt lat="41.6613180" lon="-0.8926880">
        <ele>66.6</ele>
        <time>2019-01-01T11:52:43Z</time>
      </trkpt>
      <trkpt lat="41.6613540" lon="-0.8927330">
        <ele>66.6</ele>
        <time>2019-01-01T11:52:44Z</time>
      </trkpt>
      <trkpt lat="41.6615180" lon="-0.8929370">
        <ele>66.8</ele>
        <time>2019-01-01T11:52:49Z</time>
      </trkpt>
      <trkpt lat="41.6616730" lon="-0.8932550">
        <ele>67.0</ele>
        <time>2019-01-01T11:52:55Z</time>
      </trkpt>
      <trkpt lat="41.6617960" lon="-0.8934720">
        <ele>67.2</ele>
        <time>2019-01-01T11:52:59Z</time>
      </trkpt>
      <trkpt lat="41.6618220" lon="-0.8935220">
        <ele>67.2</ele>
        <time>2019-01-01T11:53:00Z</time>
      </trkpt>
      <trkpt lat="41.6619190" lon="-0.8936650">
        <ele>67.6</ele>
        <time>2019-01-01T11:53:03Z</time>
      </trkpt>
      <trkpt lat="41.6619990" lon="-0.8937550">
        <ele>67.6</ele>
        <time>2019-01-01T11:53:05Z</time>
      </trkpt>
      <trkpt lat="41.6621130" lon="-0.8938780">
        <ele>67.4</ele>
        <time>2019-01-01T11:53:08Z</time>
      </trkpt>
      <trkpt lat="41.6621700" lon="-0.8939880">
        <ele>67.2</ele>
        <time>2019-01-01T11:53:10Z</time>
      </trkpt>
      <trkpt lat="41.6622660" lon="-0.8941610">
        <ele>66.8</ele>
        <time>2019-01-01T11:53:13Z</time>
      </trkpt>
      <trkpt lat="41.6623410" lon="-0.8942620">
        <ele>67.0</ele>
        <time>2019-01-01T11:53:15Z</time>
      </trkpt>
      <trkpt lat="41.6626620" lon="-0.8945430">
        <ele>66.8</ele>
        <time>2019-01-01T11:53:22Z</time>
      </trkpt>
      <trkpt lat="41.6629390" lon="-0.8947810">
        <ele>67.0</ele>
        <time>2019-01-01T11:53:28Z</time>
      </trkpt>
      <trkpt lat="41.6632410" lon="-0.8950990">
        <ele>67.0</ele>
        <time>2019-01-01T11:53:35Z</time>
      </trkpt>
      <trkpt lat="41.6635090" lon="-0.8954170">
        <ele>67.4</ele>
        <time>2019-01-01T11:53:42Z</time>
      </trkpt>
      <trkpt lat="41.6635430" lon="-0.8954700">
        <ele>67.6</ele>
        <time>2019-01-01T11:53:43Z</time>
      </trkpt>
      <trkpt lat="41.6635780" lon="-0.8955210">
        <ele>67.6</ele>
        <time>2019-01-01T11:53:44Z</time>
      </trkpt>
      <trkpt lat="41.6636830" lon="-0.8956570">
        <ele>68.0</ele>
        <time>2019-01-01T11:53:47Z</time>
      </trkpt>
      <trkpt lat="41.6637160" lon="-0.8957070">
        <ele>68.2</ele>
        <time>2019-01-01T11:53:48Z</time>
      </trkpt>
      <trkpt lat="41.6638200" lon="-0.8958400">
        <ele>68.8</ele>
        <time>2019-01-01T11:53:51Z</time>
      </trkpt>
      <trkpt lat="41.6638570" lon="-0.8958760">
        <ele>69.2</ele>
        <time>2019-01-01T11:53:52Z</time>
      </trkpt>
      <trkpt lat="41.6639390" lon="-0.8959430">
        <ele>69.2</ele>
        <time>2019-01-01T11:53:54Z</time>
      </trkpt>
      <trkpt lat="41.6639760" lon="-0.8959820">
        <ele>69.2</ele>
        <time>2019-01-01T11:53:55Z</time>
      </trkpt>
      <trkpt lat="41.6640910" lon="-0.8961360">
        <ele>69.2</ele>
        <time>2019-01-01T11:53:58Z</time>
      </trkpt>
      <trkpt lat="41.6642540" lon="-0.8962180">
        <ele>68.6</ele>
        <time>2019-01-01T11:54:01Z</time>
      </trkpt>
      <trkpt lat="41.6643120" lon="-0.8962270">
        <ele>68.4</ele>
        <time>2019-01-01T11:54:02Z</time>
      </trkpt>
      <trkpt lat="41.6643690" lon="-0.8962400">
        <ele>68.2</ele>
        <time>2019-01-01T11:54:03Z</time>
      </trkpt>
      <trkpt lat="41.6644250" lon="-0.8962640">
        <ele>68.0</ele>
        <time>2019-01-01T11:54:04Z</time>
      </trkpt>
      <trkpt lat="41.6645310" lon="-0.8963320">
        <ele>67.8</ele>
        <time>2019-01-01T11:54:06Z</time>
      </trkpt>
      <trkpt lat="41.6646250" lon="-0.8964180">
        <ele>67.4</ele>
        <time>2019-01-01T11:54:08Z</time>
      </trkpt>
      <trkpt lat="41.6647060" lon="-0.8965270">
        <ele>67.0</ele>
        <time>2019-01-01T11:54:10Z</time>
      </trkpt>
      <trkpt lat="41.6647400" lon="-0.8965880">
        <ele>66.6</ele>
        <time>2019-01-01T11:54:11Z</time>
      </trkpt>
      <trkpt lat="41.6649170" lon="-0.8969540">
        <ele>66.0</ele>
        <time>2019-01-01T11:54:17Z</time>
      </trkpt>
      <trkpt lat="41.6649800" lon="-0.8970700">
        <ele>66.0</ele>
        <time>2019-01-01T11:54:19Z</time>
      </trkpt>
      <trkpt lat="41.6650400" lon="-0.8971810">
        <ele>66.0</ele>
        <time>2019-01-01T11:54:21Z</time>
      </trkpt>
      <trkpt lat="41.6651010" lon="-0.8972960">
        <ele>66.0</ele>
        <time>2019-01-01T11:54:23Z</time>
      </trkpt>
      <trkpt lat="41.6653370" lon="-0.8977640">
        <ele>65.8</ele>
        <time>2019-01-01T11:54:31Z</time>
      </trkpt>
      <trkpt lat="41.6655360" lon="-0.8981910">
        <ele>66.0</ele>
        <time>2019-01-01T11:54:38Z</time>
      </trkpt>
      <trkpt lat="41.6657330" lon="-0.8986230">
        <ele>65.4</ele>
        <time>2019-01-01T11:54:45Z</time>
      </trkpt>
      <trkpt lat="41.6658140" lon="-0.8988090">
        <ele>65.4</ele>
        <time>2019-01-01T11:54:48Z</time>
      </trkpt>
      <trkpt lat="41.6658510" lon="-0.8989440">
        <ele>65.4</ele>
        <time>2019-01-01T11:54:50Z</time>
      </trkpt>
      <trkpt lat="41.6659710" lon="-0.8994080">
        <ele>65.2</ele>
        <time>2019-01-01T11:54:57Z</time>
      </trkpt>
      <trkpt lat="41.6661020" lon="-0.8996370">
        <ele>65.4</ele>
        <time>2019-01-01T11:55:01Z</time>
      </trkpt>
      <trkpt lat="41.6661680" lon="-0.8997590">
        <ele>65.4</ele>
        <time>2019-01-01T11:55:03Z</time>
      </trkpt>
      <trkpt lat="41.6662190" lon="-0.8999650">
        <ele>65.4</ele>
        <time>2019-01-01T11:55:06Z</time>
      </trkpt>
      <trkpt lat="41.6662110" lon="-0.9001770">
        <ele>65.8</ele>
        <time>2019-01-01T11:55:09Z</time>
      </trkpt>
      <trkpt lat="41.6662000" lon="-0.9003880">
        <ele>66.0</ele>
        <time>2019-01-01T11:55:12Z</time>
      </trkpt>
      <trkpt lat="41.6662380" lon="-0.9008140">
        <ele>66.0</ele>
        <time>2019-01-01T11:55:18Z</time>
      </trkpt>
      <trkpt lat="41.6662820" lon="-0.9013030">
        <ele>66.2</ele>
        <time>2019-01-01T11:55:25Z</time>
      </trkpt>
      <trkpt lat="41.6663160" lon="-0.9017120">
        <ele>66.4</ele>
        <time>2019-01-01T11:55:31Z</time>
      </trkpt>
      <trkpt lat="41.6662910" lon="-0.9022110">
        <ele>66.8</ele>
        <time>2019-01-01T11:55:38Z</time>
      </trkpt>
      <trkpt lat="41.6662860" lon="-0.9022810">
        <ele>66.8</ele>
        <time>2019-01-01T11:55:39Z</time>
      </trkpt>
      <trkpt lat="41.6662690" lon="-0.9025620">
        <ele>66.4</ele>
        <time>2019-01-01T11:55:43Z</time>
      </trkpt>
      <trkpt lat="41.6662720" lon="-0.9026340">
        <ele>66.4</ele>
        <time>2019-01-01T11:55:44Z</time>
      </trkpt>
      <trkpt lat="41.6662790" lon="-0.9028520">
        <ele>66.2</ele>
        <time>2019-01-01T11:55:47Z</time>
      </trkpt>
      <trkpt lat="41.6662650" lon="-0.9029960">
        <ele>66.4</ele>
        <time>2019-01-01T11:55:49Z</time>
      </trkpt>
      <trkpt lat="41.6662220" lon="-0.9032060">
        <ele>66.4</ele>
        <time>2019-01-01T11:55:52Z</time>
      </trkpt>
      <trkpt lat="41.6661960" lon="-0.9033420">
        <ele>66.4</ele>
        <time>2019-01-01T11:55:54Z</time>
      </trkpt>
      <trkpt lat="41.6661480" lon="-0.9037640">
        <ele>66.2</ele>
        <time>2019-01-01T11:56:00Z</time>
      </trkpt>
      <trkpt lat="41.6661250" lon="-0.9038980">
        <ele>66.4</ele>
        <time>2019-01-01T11:56:02Z</time>
      </trkpt>
      <trkpt lat="41.6660950" lon="-0.9040290">
        <ele>66.4</ele>
        <time>2019-01-01T11:56:04Z</time>
      </trkpt>
      <trkpt lat="41.6660780" lon="-0.9041630">
        <ele>66.6</ele>
        <time>2019-01-01T11:56:06Z</time>
      </trkpt>
      <trkpt lat="41.6660470" lon="-0.9043630">
        <ele>66.8</ele>
        <time>2019-01-01T11:56:09Z</time>
      </trkpt>
      <trkpt lat="41.6660540" lon="-0.9046160">
        <ele>66.6</ele>
        <time>2019-01-01T11:56:13Z</time>
      </trkpt>
      <trkpt lat="41.6660060" lon="-0.9048620">
        <ele>66.6</ele>
        <time>2019-01-01T11:56:17Z</time>
      </trkpt>
      <trkpt lat="41.6659860" lon="-0.9049190">
        <ele>66.8</ele>
        <time>2019-01-01T11:56:18Z</time>
      </trkpt>
      <trkpt lat="41.6659690" lon="-0.9049810">
        <ele>66.8</ele>
        <time>2019-01-01T11:56:19Z</time>
      </trkpt>
      <trkpt lat="41.6659390" lon="-0.9052010">
        <ele>67.0</ele>
        <time>2019-01-01T11:56:22Z</time>
      </trkpt>
      <trkpt lat="41.6659120" lon="-0.9052490">
        <ele>67.0</ele>
        <time>2019-01-01T11:56:23Z</time>
      </trkpt>
      <trkpt lat="41.6658530" lon="-0.9053810">
        <ele>67.0</ele>
        <time>2019-01-01T11:56:25Z</time>
      </trkpt>
      <trkpt lat="41.6657910" lon="-0.9055780">
        <ele>67.2</ele>
        <time>2019-01-01T11:56:28Z</time>
      </trkpt>
      <trkpt lat="41.6656490" lon="-0.9060120">
        <ele>67.2</ele>
        <time>2019-01-01T11:56:35Z</time>
      </trkpt>
      <trkpt lat="41.6656250" lon="-0.9060780">
        <ele>67.0</ele>
        <time>2019-01-01T11:56:36Z</time>
      </trkpt>
      <trkpt lat="41.6655120" lon="-0.9064320">
        <ele>66.6</ele>
        <time>2019-01-01T11:56:41Z</time>
      </trkpt>
      <trkpt lat="41.6653630" lon="-0.9070030">
        <ele>66.4</ele>
        <time>2019-01-01T11:56:49Z</time>
      </trkpt>
      <trkpt lat="41.6651710" lon="-0.9077000">
        <ele>66.6</ele>
        <time>2019-01-01T11:56:59Z</time>
      </trkpt>
      <trkpt lat="41.6650700" lon="-0.9080570">
        <ele>67.0</ele>
        <time>2019-01-01T11:57:05Z</time>
      </trkpt>
      <trkpt lat="41.6650130" lon="-0.9082910">
        <ele>67.2</ele>
        <time>2019-01-01T11:57:09Z</time>
      </trkpt>
      <trkpt lat="41.6649280" lon="-0.9085640">
        <ele>67.2</ele>
        <time>2019-01-01T11:57:13Z</time>
      </trkpt>
      <trkpt lat="41.6648090" lon="-0.9089350">
        <ele>67.4</ele>
        <time>2019-01-01T11:57:19Z</time>
      </trkpt>
      <trkpt lat="41.6647600" lon="-0.9090820">
        <ele>67.4</ele>
        <time>2019-01-01T11:57:22Z</time>
      </trkpt>
      <trkpt lat="41.6647410" lon="-0.9091310">
        <ele>67.4</ele>
        <time>2019-01-01T11:57:23Z</time>
      </trkpt>
      <trkpt lat="41.6646660" lon="-0.9093400">
        <ele>67.4</ele>
        <time>2019-01-01T11:57:27Z</time>
      </trkpt>
      <trkpt lat="41.6646510" lon="-0.9093950">
        <ele>67.4</ele>
        <time>2019-01-01T11:57:28Z</time>
      </trkpt>
      <trkpt lat="41.6645970" lon="-0.9096190">
        <ele>67.8</ele>
        <time>2019-01-01T11:57:32Z</time>
      </trkpt>
      <trkpt lat="41.6645220" lon="-0.9098960">
        <ele>68.2</ele>
        <time>2019-01-01T11:57:37Z</time>
      </trkpt>
      <trkpt lat="41.6644700" lon="-0.9101240">
        <ele>68.8</ele>
        <time>2019-01-01T11:57:41Z</time>
      </trkpt>
      <trkpt lat="41.6644220" lon="-0.9103590">
        <ele>69.2</ele>
        <time>2019-01-01T11:57:45Z</time>
      </trkpt>
      <trkpt lat="41.6643200" lon="-0.9107930">
        <ele>69.6</ele>
        <time>2019-01-01T11:57:52Z</time>
      </trkpt>
      <trkpt lat="41.6642200" lon="-0.9112570">
        <ele>69.4</ele>
        <time>2019-01-01T11:57:59Z</time>
      </trkpt>
      <trkpt lat="41.6641110" lon="-0.9118070">
        <ele>68.6</ele>
        <time>2019-01-01T11:58:07Z</time>
      </trkpt>
      <trkpt lat="41.6640300" lon="-0.9123510">
        <ele>68.8</ele>
        <time>2019-01-01T11:58:15Z</time>
      </trkpt>
      <trkpt lat="41.6639500" lon="-0.9130360">
        <ele>68.8</ele>
        <time>2019-01-01T11:58:25Z</time>
      </trkpt>
      <trkpt lat="41.6639100" lon="-0.9136710">
        <ele>68.8</ele>
        <time>2019-01-01T11:58:34Z</time>
      </trkpt>
      <trkpt lat="41.6638840" lon="-0.9143260">
        <ele>68.6</ele>
        <time>2019-01-01T11:58:43Z</time>
      </trkpt>
      <trkpt lat="41.6638830" lon="-0.9149150">
        <ele>68.6</ele>
        <time>2019-01-01T11:58:51Z</time>
      </trkpt>
      <trkpt lat="41.6638830" lon="-0.9152660">
        <ele>68.8</ele>
        <time>2019-01-01T11:58:56Z</time>
      </trkpt>
      <trkpt lat="41.6638960" lon="-0.9156880">
        <ele>69.2</ele>
        <time>2019-01-01T11:59:02Z</time>
      </trkpt>
      <trkpt lat="41.6639070" lon="-0.9161680">
        <ele>69.8</ele>
        <time>2019-01-01T11:59:09Z</time>
      </trkpt>
      <trkpt lat="41.6639170" lon="-0.9165960">
        <ele>69.6</ele>
        <time>2019-01-01T11:59:15Z</time>
      </trkpt>
      <trkpt lat="41.6639490" lon="-0.9171160">
        <ele>69.6</ele>
        <time>2019-01-01T11:59:22Z</time>
      </trkpt>
      <trkpt lat="41.6639670" lon="-0.9175640">
        <ele>69.6</ele>
        <time>2019-01-01T11:59:28Z</time>
      </trkpt>
      <trkpt lat="41.6639550" lon="-0.9180090">
        <ele>69.4</ele>
        <time>2019-01-01T11:59:34Z</time>
      </trkpt>
      <trkpt lat="41.6639560" lon="-0.9181540">
        <ele>69.6</ele>
        <time>2019-01-01T11:59:36Z</time>
      </trkpt>
      <trkpt lat="41.6639850" lon="-0.9183640">
        <ele>69.6</ele>
        <time>2019-01-01T11:59:39Z</time>
      </trkpt>
      <trkpt lat="41.6641030" lon="-0.9188450">
        <ele>69.6</ele>
        <time>2019-01-01T11:59:46Z</time>
      </trkpt>
      <trkpt lat="41.6641210" lon="-0.9189130">
        <ele>69.8</ele>
        <time>2019-01-01T11:59:47Z</time>
      </trkpt>
      <trkpt lat="41.6642330" lon="-0.9193150">
        <ele>70.0</ele>
        <time>2019-01-01T11:59:53Z</time>
      </trkpt>
      <trkpt lat="41.6644440" lon="-0.9198800">
        <ele>70.4</ele>
        <time>2019-01-01T12:00:02Z</time>
      </trkpt>
      <trkpt lat="41.6647160" lon="-0.9203170">
        <ele>70.2</ele>
        <time>2019-01-01T12:00:10Z</time>
      </trkpt>
      <trkpt lat="41.6650750" lon="-0.9208610">
        <ele>70.6</ele>
        <time>2019-01-01T12:00:20Z</time>
      </trkpt>
      <trkpt lat="41.6653640" lon="-0.9211940">
        <ele>70.6</ele>
        <time>2019-01-01T12:00:27Z</time>
      </trkpt>
      <trkpt lat="41.6656250" lon="-0.9214400">
        <ele>70.4</ele>
        <time>2019-01-01T12:00:33Z</time>
      </trkpt>
      <trkpt lat="41.6656930" lon="-0.9215460">
        <ele>70.2</ele>
        <time>2019-01-01T12:00:35Z</time>
      </trkpt>
      <trkpt lat="41.6657680" lon="-0.9216470">
        <ele>70.2</ele>
        <time>2019-01-01T12:00:37Z</time>
      </trkpt>
      <trkpt lat="41.6659010" lon="-0.9217660">
        <ele>70.0</ele>
        <time>2019-01-01T12:00:40Z</time>
      </trkpt>
      <trkpt lat="41.6661350" lon="-0.9219260">
        <ele>70.0</ele>
        <time>2019-01-01T12:00:45Z</time>
      </trkpt>
      <trkpt lat="41.6662370" lon="-0.9219560">
        <ele>70.0</ele>
        <time>2019-01-01T12:00:47Z</time>
      </trkpt>
      <trkpt lat="41.6663430" lon="-0.9219670">
        <ele>70.0</ele>
        <time>2019-01-01T12:00:49Z</time>
      </trkpt>
      <trkpt lat="41.6665980" lon="-0.9220270">
        <ele>70.0</ele>
        <time>2019-01-01T12:00:54Z</time>
      </trkpt>
      <trkpt lat="41.6670150" lon="-0.9221420">
        <ele>70.2</ele>
        <time>2019-01-01T12:01:02Z</time>
      </trkpt>
      <trkpt lat="41.6670680" lon="-0.9221440">
        <ele>70.2</ele>
        <time>2019-01-01T12:01:03Z</time>
      </trkpt>
      <trkpt lat="41.6673370" lon="-0.9221760">
        <ele>70.0</ele>
        <time>2019-01-01T12:01:08Z</time>
      </trkpt>
      <trkpt lat="41.6673880" lon="-0.9221980">
        <ele>70.0</ele>
        <time>2019-01-01T12:01:09Z</time>
      </trkpt>
      <trkpt lat="41.6676420" lon="-0.9223140">
        <ele>70.2</ele>
        <time>2019-01-01T12:01:14Z</time>
      </trkpt>
      <trkpt lat="41.6677490" lon="-0.9223140">
        <ele>70.2</ele>
        <time>2019-01-01T12:01:16Z</time>
      </trkpt>
      <trkpt lat="41.6679060" lon="-0.9222930">
        <ele>70.0</ele>
        <time>2019-01-01T12:01:19Z</time>
      </trkpt>
      <trkpt lat="41.6683130" lon="-0.9221800">
        <ele>70.4</ele>
        <time>2019-01-01T12:01:27Z</time>
      </trkpt>
      <trkpt lat="41.6686560" lon="-0.9220250">
        <ele>70.2</ele>
        <time>2019-01-01T12:01:34Z</time>
      </trkpt>
      <trkpt lat="41.6690400" lon="-0.9218470">
        <ele>70.0</ele>
        <time>2019-01-01T12:01:42Z</time>
      </trkpt>
      <trkpt lat="41.6694680" lon="-0.9216110">
        <ele>70.0</ele>
        <time>2019-01-01T12:01:51Z</time>
      </trkpt>
      <trkpt lat="41.6698430" lon="-0.9213580">
        <ele>70.0</ele>
        <time>2019-01-01T12:01:59Z</time>
      </trkpt>
      <trkpt lat="41.6702870" lon="-0.9209760">
        <ele>69.6</ele>
        <time>2019-01-01T12:02:09Z</time>
      </trkpt>
      <trkpt lat="41.6706180" lon="-0.9206250">
        <ele>69.8</ele>
        <time>2019-01-01T12:02:17Z</time>
      </trkpt>
      <trkpt lat="41.6709200" lon="-0.9202380">
        <ele>69.8</ele>
        <time>2019-01-01T12:02:25Z</time>
      </trkpt>
      <trkpt lat="41.6712370" lon="-0.9197960">
        <ele>69.8</ele>
        <time>2019-01-01T12:02:34Z</time>
      </trkpt>
      <trkpt lat="41.6715240" lon="-0.9193520">
        <ele>69.8</ele>
        <time>2019-01-01T12:02:43Z</time>
      </trkpt>
      <trkpt lat="41.6716790" lon="-0.9190820">
        <ele>69.6</ele>
        <time>2019-01-01T12:02:50Z</time>
      </trkpt>
      <trkpt lat="41.6717650" lon="-0.9189760">
        <ele>69.4</ele>
        <time>2019-01-01T12:02:56Z</time>
      </trkpt>
      <trkpt lat="41.6718540" lon="-0.9190160">
        <ele>69.4</ele>
        <time>2019-01-01T12:03:01Z</time>
      </trkpt>
      <trkpt lat="41.6718790" lon="-0.9190440">
        <ele>69.2</ele>
        <time>2019-01-01T12:03:02Z</time>
      </trkpt>
      <trkpt lat="41.6719770" lon="-0.9191910">
        <ele>69.2</ele>
        <time>2019-01-01T12:03:06Z</time>
      </trkpt>
      <trkpt lat="41.6721650" lon="-0.9195480">
        <ele>69.4</ele>
        <time>2019-01-01T12:03:13Z</time>
      </trkpt>
      <trkpt lat="41.6721950" lon="-0.9195980">
        <ele>69.4</ele>
        <time>2019-01-01T12:03:14Z</time>
      </trkpt>
      <trkpt lat="41.6724030" lon="-0.9198610">
        <ele>69.4</ele>
        <time>2019-01-01T12:03:20Z</time>
      </trkpt>
      <trkpt lat="41.6725780" lon="-0.9200530">
        <ele>69.6</ele>
        <time>2019-01-01T12:03:26Z</time>
      </trkpt>
      <trkpt lat="41.6727970" lon="-0.9202790">
        <ele>69.6</ele>
        <time>2019-01-01T12:03:33Z</time>
      </trkpt>
      <trkpt lat="41.6729250" lon="-0.9204420">
        <ele>70.0</ele>
        <time>2019-01-01T12:03:37Z</time>
      </trkpt>
      <trkpt lat="41.6730360" lon="-0.9205500">
        <ele>70.2</ele>
        <time>2019-01-01T12:03:40Z</time>
      </trkpt>
      <trkpt lat="41.6733080" lon="-0.9206920">
        <ele>69.8</ele>
        <time>2019-01-01T12:03:46Z</time>
      </trkpt>
      <trkpt lat="41.6736710" lon="-0.9209370">
        <ele>69.8</ele>
        <time>2019-01-01T12:03:54Z</time>
      </trkpt>
      <trkpt lat="41.6738830" lon="-0.9212490">
        <ele>70.0</ele>
        <time>2019-01-01T12:04:00Z</time>
      </trkpt>
      <trkpt lat="41.6741770" lon="-0.9216410">
        <ele>70.0</ele>
        <time>2019-01-01T12:04:08Z</time>
      </trkpt>
      <trkpt lat="41.6745340" lon="-0.9220430">
        <ele>70.2</ele>
        <time>2019-01-01T12:04:17Z</time>
      </trkpt>
      <trkpt lat="41.6749370" lon="-0.9224870">
        <ele>70.4</ele>
        <time>2019-01-01T12:04:27Z</time>
      </trkpt>
      <trkpt lat="41.6752020" lon="-0.9229060">
        <ele>70.2</ele>
        <time>2019-01-01T12:04:35Z</time>
      </trkpt>
      <trkpt lat="41.6754100" lon="-0.9233950">
        <ele>70.2</ele>
        <time>2019-01-01T12:04:43Z</time>
      </trkpt>
      <trkpt lat="41.6757050" lon="-0.9239860">
        <ele>70.2</ele>
        <time>2019-01-01T12:04:53Z</time>
      </trkpt>
      <trkpt lat="41.6760090" lon="-0.9244590">
        <ele>71.2</ele>
        <time>2019-01-01T12:05:02Z</time>
      </trkpt>
      <trkpt lat="41.6760690" lon="-0.9245490">
        <ele>71.6</ele>
        <time>2019-01-01T12:05:04Z</time>
      </trkpt>
      <trkpt lat="41.6761850" lon="-0.9247170">
        <ele>72.6</ele>
        <time>2019-01-01T12:05:08Z</time>
      </trkpt>
      <trkpt lat="41.6762380" lon="-0.9247920">
        <ele>73.0</ele>
        <time>2019-01-01T12:05:10Z</time>
      </trkpt>
      <trkpt lat="41.6763120" lon="-0.9248970">
        <ele>74.0</ele>
        <time>2019-01-01T12:05:13Z</time>
      </trkpt>
      <trkpt lat="41.6763830" lon="-0.9250060">
        <ele>75.2</ele>
        <time>2019-01-01T12:05:16Z</time>
      </trkpt>
      <trkpt lat="41.6764320" lon="-0.9250740">
        <ele>76.0</ele>
        <time>2019-01-01T12:05:18Z</time>
      </trkpt>
      <trkpt lat="41.6764560" lon="-0.9251080">
        <ele>76.2</ele>
        <time>2019-01-01T12:05:19Z</time>
      </trkpt>
      <trkpt lat="41.6765510" lon="-0.9252500">
        <ele>77.2</ele>
        <time>2019-01-01T12:05:23Z</time>
      </trkpt>
      <trkpt lat="41.6767400" lon="-0.9255480">
        <ele>76.4</ele>
        <time>2019-01-01T12:05:29Z</time>
      </trkpt>
      <trkpt lat="41.6769200" lon="-0.9258140">
        <ele>75.2</ele>
        <time>2019-01-01T12:05:33Z</time>
      </trkpt>
      <trkpt lat="41.6769690" lon="-0.9258860">
        <ele>74.6</ele>
        <time>2019-01-01T12:05:34Z</time>
      </trkpt>
      <trkpt lat="41.6770740" lon="-0.9260280">
        <ele>74.2</ele>
        <time>2019-01-01T12:05:36Z</time>
      </trkpt>
      <trkpt lat="41.6773370" lon="-0.9263660">
        <ele>73.4</ele>
        <time>2019-01-01T12:05:41Z</time>
      </trkpt>
      <trkpt lat="41.6773830" lon="-0.9264320">
        <ele>73.0</ele>
        <time>2019-01-01T12:05:42Z</time>
      </trkpt>
      <trkpt lat="41.6775620" lon="-0.9267730">
        <ele>72.2</ele>
        <time>2019-01-01T12:05:47Z</time>
      </trkpt>
      <trkpt lat="41.6776500" lon="-0.9270570">
        <ele>72.6</ele>
        <time>2019-01-01T12:05:51Z</time>
      </trkpt>
      <trkpt lat="41.6776590" lon="-0.9271300">
        <ele>72.6</ele>
        <time>2019-01-01T12:05:52Z</time>
      </trkpt>
      <trkpt lat="41.6776500" lon="-0.9273530">
        <ele>72.8</ele>
        <time>2019-01-01T12:05:55Z</time>
      </trkpt>
      <trkpt lat="41.6776410" lon="-0.9274230">
        <ele>72.8</ele>
        <time>2019-01-01T12:05:56Z</time>
      </trkpt>
      <trkpt lat="41.6776350" lon="-0.9274930">
        <ele>73.0</ele>
        <time>2019-01-01T12:05:57Z</time>
      </trkpt>
      <trkpt lat="41.6775890" lon="-0.9277370">
        <ele>73.2</ele>
        <time>2019-01-01T12:06:01Z</time>
      </trkpt>
      <trkpt lat="41.6774610" lon="-0.9280890">
        <ele>73.0</ele>
        <time>2019-01-01T12:06:08Z</time>
      </trkpt>
      <trkpt lat="41.6774380" lon="-0.9281380">
        <ele>73.0</ele>
        <time>2019-01-01T12:06:09Z</time>
      </trkpt>
      <trkpt lat="41.6773370" lon="-0.9283170">
        <ele>73.2</ele>
        <time>2019-01-01T12:06:13Z</time>
      </trkpt>
      <trkpt lat="41.6771680" lon="-0.9285550">
        <ele>73.4</ele>
        <time>2019-01-01T12:06:19Z</time>
      </trkpt>
      <trkpt lat="41.6770010" lon="-0.9287960">
        <ele>74.0</ele>
        <time>2019-01-01T12:06:25Z</time>
      </trkpt>
      <trkpt lat="41.6769790" lon="-0.9288450">
        <ele>74.2</ele>
        <time>2019-01-01T12:06:26Z</time>
      </trkpt>
      <trkpt lat="41.6769580" lon="-0.9288950">
        <ele>74.4</ele>
        <time>2019-01-01T12:06:27Z</time>
      </trkpt>
      <trkpt lat="41.6769140" lon="-0.9289970">
        <ele>74.4</ele>
        <time>2019-01-01T12:06:29Z</time>
      </trkpt>
      <trkpt lat="41.6768890" lon="-0.9291270">
        <ele>74.8</ele>
        <time>2019-01-01T12:06:31Z</time>
      </trkpt>
      <trkpt lat="41.6768750" lon="-0.9292720">
        <ele>75.0</ele>
        <time>2019-01-01T12:06:33Z</time>
      </trkpt>
      <trkpt lat="41.6768980" lon="-0.9295010">
        <ele>75.4</ele>
        <time>2019-01-01T12:06:36Z</time>
      </trkpt>
      <trkpt lat="41.6769180" lon="-0.9295790">
        <ele>75.6</ele>
        <time>2019-01-01T12:06:37Z</time>
      </trkpt>
      <trkpt lat="41.6770090" lon="-0.9298010">
        <ele>76.6</ele>
        <time>2019-01-01T12:06:40Z</time>
      </trkpt>
      <trkpt lat="41.6770470" lon="-0.9298700">
        <ele>76.8</ele>
        <time>2019-01-01T12:06:41Z</time>
      </trkpt>
      <trkpt lat="41.6771360" lon="-0.9299990">
        <ele>77.4</ele>
        <time>2019-01-01T12:06:43Z</time>
      </trkpt>
      <trkpt lat="41.6772310" lon="-0.9300960">
        <ele>78.2</ele>
        <time>2019-01-01T12:06:45Z</time>
      </trkpt>
      <trkpt lat="41.6773590" lon="-0.9301870">
        <ele>79.4</ele>
        <time>2019-01-01T12:06:48Z</time>
      </trkpt>
      <trkpt lat="41.6774310" lon="-0.9302400">
        <ele>80.0</ele>
        <time>2019-01-01T12:06:50Z</time>
      </trkpt>
      <trkpt lat="41.6776840" lon="-0.9304370">
        <ele>80.4</ele>
        <time>2019-01-01T12:06:57Z</time>
      </trkpt>
      <trkpt lat="41.6777210" lon="-0.9304670">
        <ele>80.2</ele>
        <time>2019-01-01T12:06:58Z</time>
      </trkpt>
      <trkpt lat="41.6779330" lon="-0.9306180">
        <ele>79.8</ele>
        <time>2019-01-01T12:07:03Z</time>
      </trkpt>
      <trkpt lat="41.6781550" lon="-0.9307740">
        <ele>78.4</ele>
        <time>2019-01-01T12:07:07Z</time>
      </trkpt>
      <trkpt lat="41.6782190" lon="-0.9308130">
        <ele>77.8</ele>
        <time>2019-01-01T12:07:08Z</time>
      </trkpt>
      <trkpt lat="41.6783560" lon="-0.9308840">
        <ele>77.2</ele>
        <time>2019-01-01T12:07:10Z</time>
      </trkpt>
      <trkpt lat="41.6785780" lon="-0.9309880">
        <ele>76.0</ele>
        <time>2019-01-01T12:07:13Z</time>
      </trkpt>
      <trkpt lat="41.6786530" lon="-0.9310190">
        <ele>75.4</ele>
        <time>2019-01-01T12:07:14Z</time>
      </trkpt>
      <trkpt lat="41.6788070" lon="-0.9310790">
        <ele>74.8</ele>
        <time>2019-01-01T12:07:16Z</time>
      </trkpt>
      <trkpt lat="41.6792620" lon="-0.9312500">
        <ele>73.8</ele>
        <time>2019-01-01T12:07:22Z</time>
      </trkpt>
      <trkpt lat="41.6793340" lon="-0.9312860">
        <ele>73.6</ele>
        <time>2019-01-01T12:07:23Z</time>
      </trkpt>
      <trkpt lat="41.6797820" lon="-0.9315940">
        <ele>72.8</ele>
        <time>2019-01-01T12:07:30Z</time>
      </trkpt>
      <trkpt lat="41.6798370" lon="-0.9316470">
        <ele>72.8</ele>
        <time>2019-01-01T12:07:31Z</time>
      </trkpt>
      <trkpt lat="41.6802500" lon="-0.9320670">
        <ele>72.6</ele>
        <time>2019-01-01T12:07:39Z</time>
      </trkpt>
      <trkpt lat="41.6804520" lon="-0.9323810">
        <ele>73.0</ele>
        <time>2019-01-01T12:07:44Z</time>
      </trkpt>
      <trkpt lat="41.6807610" lon="-0.9329730">
        <ele>72.6</ele>
        <time>2019-01-01T12:07:53Z</time>
      </trkpt>
      <trkpt lat="41.6810600" lon="-0.9334540">
        <ele>72.8</ele>
        <time>2019-01-01T12:08:01Z</time>
      </trkpt>
      <trkpt lat="41.6811060" lon="-0.9335000">
        <ele>72.6</ele>
        <time>2019-01-01T12:08:02Z</time>
      </trkpt>
      <trkpt lat="41.6814660" lon="-0.9337830">
        <ele>72.0</ele>
        <time>2019-01-01T12:08:09Z</time>
      </trkpt>
      <trkpt lat="41.6820110" lon="-0.9340870">
        <ele>72.2</ele>
        <time>2019-01-01T12:08:19Z</time>
      </trkpt>
      <trkpt lat="41.6820660" lon="-0.9341160">
        <ele>72.0</ele>
        <time>2019-01-01T12:08:20Z</time>
      </trkpt>
      <trkpt lat="41.6822740" lon="-0.9342560">
        <ele>72.0</ele>
        <time>2019-01-01T12:08:24Z</time>
      </trkpt>
      <trkpt lat="41.6823240" lon="-0.9342940">
        <ele>72.0</ele>
        <time>2019-01-01T12:08:25Z</time>
      </trkpt>
      <trkpt lat="41.6826600" lon="-0.9345940">
        <ele>71.6</ele>
        <time>2019-01-01T12:08:32Z</time>
      </trkpt>
      <trkpt lat="41.6831350" lon="-0.9350380">
        <ele>71.8</ele>
        <time>2019-01-01T12:08:42Z</time>
      </trkpt>
      <trkpt lat="41.6831830" lon="-0.9350770">
        <ele>71.8</ele>
        <time>2019-01-01T12:08:43Z</time>
      </trkpt>
      <trkpt lat="41.6836140" lon="-0.9354070">
        <ele>71.8</ele>
        <time>2019-01-01T12:08:52Z</time>
      </trkpt>
      <trkpt lat="41.6840310" lon="-0.9357600">
        <ele>72.0</ele>
        <time>2019-01-01T12:09:01Z</time>
      </trkpt>
      <trkpt lat="41.6844890" lon="-0.9361680">
        <ele>72.4</ele>
        <time>2019-01-01T12:09:11Z</time>
      </trkpt>
      <trkpt lat="41.6846170" lon="-0.9363110">
        <ele>72.4</ele>
        <time>2019-01-01T12:09:14Z</time>
      </trkpt>
      <trkpt lat="41.6847770" lon="-0.9365230">
        <ele>72.6</ele>
        <time>2019-01-01T12:09:18Z</time>
      </trkpt>
      <trkpt lat="41.6851240" lon="-0.9369810">
        <ele>72.8</ele>
        <time>2019-01-01T12:09:27Z</time>
      </trkpt>
      <trkpt lat="41.6854380" lon="-0.9374580">
        <ele>73.0</ele>
        <time>2019-01-01T12:09:36Z</time>
      </trkpt>
      <trkpt lat="41.6856440" lon="-0.9378690">
        <ele>73.2</ele>
        <time>2019-01-01T12:09:43Z</time>
      </trkpt>
      <trkpt lat="41.6857910" lon="-0.9381920">
        <ele>73.6</ele>
        <time>2019-01-01T12:09:48Z</time>
      </trkpt>
      <trkpt lat="41.6858450" lon="-0.9383270">
        <ele>73.6</ele>
        <time>2019-01-01T12:09:50Z</time>
      </trkpt>
      <trkpt lat="41.6860660" lon="-0.9390040">
        <ele>73.6</ele>
        <time>2019-01-01T12:10:00Z</time>
      </trkpt>
      <trkpt lat="41.6862950" lon="-0.9395980">
        <ele>73.0</ele>
        <time>2019-01-01T12:10:09Z</time>
      </trkpt>
      <trkpt lat="41.6866010" lon="-0.9402460">
        <ele>73.2</ele>
        <time>2019-01-01T12:10:19Z</time>
      </trkpt>
      <trkpt lat="41.6867010" lon="-0.9404350">
        <ele>73.0</ele>
        <time>2019-01-01T12:10:22Z</time>
      </trkpt>
      <trkpt lat="41.6870560" lon="-0.9410390">
        <ele>72.8</ele>
        <time>2019-01-01T12:10:32Z</time>
      </trkpt>
      <trkpt lat="41.6874460" lon="-0.9415160">
        <ele>73.2</ele>
        <time>2019-01-01T12:10:41Z</time>
      </trkpt>
      <trkpt lat="41.6878020" lon="-0.9420250">
        <ele>73.0</ele>
        <time>2019-01-01T12:10:50Z</time>
      </trkpt>
      <trkpt lat="41.6881720" lon="-0.9424270">
        <ele>72.8</ele>
        <time>2019-01-01T12:10:58Z</time>
      </trkpt>
      <trkpt lat="41.6885540" lon="-0.9427950">
        <ele>73.0</ele>
        <time>2019-01-01T12:11:06Z</time>
      </trkpt>
      <trkpt lat="41.6888380" lon="-0.9432020">
        <ele>73.4</ele>
        <time>2019-01-01T12:11:13Z</time>
      </trkpt>
      <trkpt lat="41.6891590" lon="-0.9436830">
        <ele>73.6</ele>
        <time>2019-01-01T12:11:21Z</time>
      </trkpt>
      <trkpt lat="41.6895720" lon="-0.9441310">
        <ele>73.6</ele>
        <time>2019-01-01T12:11:30Z</time>
      </trkpt>
      <trkpt lat="41.6899990" lon="-0.9446750">
        <ele>74.0</ele>
        <time>2019-01-01T12:11:40Z</time>
      </trkpt>
      <trkpt lat="41.6903580" lon="-0.9451680">
        <ele>73.8</ele>
        <time>2019-01-01T12:11:49Z</time>
      </trkpt>
      <trkpt lat="41.6906050" lon="-0.9454910">
        <ele>73.6</ele>
        <time>2019-01-01T12:11:55Z</time>
      </trkpt>
      <trkpt lat="41.6909050" lon="-0.9460240">
        <ele>73.4</ele>
        <time>2019-01-01T12:12:04Z</time>
      </trkpt>
      <trkpt lat="41.6910200" lon="-0.9462780">
        <ele>73.2</ele>
        <time>2019-01-01T12:12:08Z</time>
      </trkpt>
      <trkpt lat="41.6911370" lon="-0.9466160">
        <ele>73.0</ele>
        <time>2019-01-01T12:12:13Z</time>
      </trkpt>
      <trkpt lat="41.6911980" lon="-0.9470440">
        <ele>73.2</ele>
        <time>2019-01-01T12:12:19Z</time>
      </trkpt>
      <trkpt lat="41.6912400" lon="-0.9477120">
        <ele>73.6</ele>
        <time>2019-01-01T12:12:28Z</time>
      </trkpt>
      <trkpt lat="41.6913580" lon="-0.9480400">
        <ele>73.8</ele>
        <time>2019-01-01T12:12:33Z</time>
      </trkpt>
      <trkpt lat="41.6915680" lon="-0.9485270">
        <ele>73.2</ele>
        <time>2019-01-01T12:12:41Z</time>
      </trkpt>
      <trkpt lat="41.6917280" lon="-0.9489530">
        <ele>73.0</ele>
        <time>2019-01-01T12:12:48Z</time>
      </trkpt>
      <trkpt lat="41.6917760" lon="-0.9490750">
        <ele>73.0</ele>
        <time>2019-01-01T12:12:50Z</time>
      </trkpt>
      <trkpt lat="41.6918870" lon="-0.9493990">
        <ele>73.4</ele>
        <time>2019-01-01T12:12:55Z</time>
      </trkpt>
      <trkpt lat="41.6920360" lon="-0.9498520">
        <ele>73.4</ele>
        <time>2019-01-01T12:13:02Z</time>
      </trkpt>
      <trkpt lat="41.6921220" lon="-0.9501200">
        <ele>73.4</ele>
        <time>2019-01-01T12:13:06Z</time>
      </trkpt>
      <trkpt lat="41.6921610" lon="-0.9502490">
        <ele>73.4</ele>
        <time>2019-01-01T12:13:08Z</time>
      </trkpt>
      <trkpt lat="41.6923580" lon="-0.9508640">
        <ele>73.8</ele>
        <time>2019-01-01T12:13:17Z</time>
      </trkpt>
      <trkpt lat="41.6925740" lon="-0.9513820">
        <ele>73.4</ele>
        <time>2019-01-01T12:13:25Z</time>
      </trkpt>
      <trkpt lat="41.6928600" lon="-0.9517400">
        <ele>73.6</ele>
        <time>2019-01-01T12:13:32Z</time>
      </trkpt>
      <trkpt lat="41.6932100" lon="-0.9521160">
        <ele>73.6</ele>
        <time>2019-01-01T12:13:40Z</time>
      </trkpt>
      <trkpt lat="41.6936040" lon="-0.9525120">
        <ele>73.8</ele>
        <time>2019-01-01T12:13:49Z</time>
      </trkpt>
      <trkpt lat="41.6940490" lon="-0.9529220">
        <ele>73.6</ele>
        <time>2019-01-01T12:13:59Z</time>
      </trkpt>
      <trkpt lat="41.6940950" lon="-0.9529590">
        <ele>73.6</ele>
        <time>2019-01-01T12:14:00Z</time>
      </trkpt>
      <trkpt lat="41.6944700" lon="-0.9532350">
        <ele>73.6</ele>
        <time>2019-01-01T12:14:08Z</time>
      </trkpt>
      <trkpt lat="41.6948290" lon="-0.9535450">
        <ele>74.0</ele>
        <time>2019-01-01T12:14:16Z</time>
      </trkpt>
      <trkpt lat="41.6953090" lon="-0.9539960">
        <ele>73.8</ele>
        <time>2019-01-01T12:14:27Z</time>
      </trkpt>
      <trkpt lat="41.6957970" lon="-0.9544320">
        <ele>74.0</ele>
        <time>2019-01-01T12:14:38Z</time>
      </trkpt>
      <trkpt lat="41.6962950" lon="-0.9548600">
        <ele>74.2</ele>
        <time>2019-01-01T12:14:49Z</time>
      </trkpt>
      <trkpt lat="41.6965810" lon="-0.9551780">
        <ele>74.2</ele>
        <time>2019-01-01T12:14:56Z</time>
      </trkpt>
      <trkpt lat="41.6969270" lon="-0.9557200">
        <ele>74.4</ele>
        <time>2019-01-01T12:15:06Z</time>
      </trkpt>
      <trkpt lat="41.6970630" lon="-0.9559330">
        <ele>75.0</ele>
        <time>2019-01-01T12:15:10Z</time>
      </trkpt>
      <trkpt lat="41.6972590" lon="-0.9562380">
        <ele>75.0</ele>
        <time>2019-01-01T12:15:16Z</time>
      </trkpt>
      <trkpt lat="41.6976040" lon="-0.9567980">
        <ele>75.2</ele>
        <time>2019-01-01T12:15:27Z</time>
      </trkpt>
      <trkpt lat="41.6976990" lon="-0.9569490">
        <ele>75.2</ele>
        <time>2019-01-01T12:15:30Z</time>
      </trkpt>
      <trkpt lat="41.6979950" lon="-0.9574070">
        <ele>75.6</ele>
        <time>2019-01-01T12:15:39Z</time>
      </trkpt>
      <trkpt lat="41.6981970" lon="-0.9577520">
        <ele>75.6</ele>
        <time>2019-01-01T12:15:46Z</time>
      </trkpt>
      <trkpt lat="41.6983730" lon="-0.9581250">
        <ele>76.0</ele>
        <time>2019-01-01T12:15:53Z</time>
      </trkpt>
      <trkpt lat="41.6985710" lon="-0.9586000">
        <ele>76.0</ele>
        <time>2019-01-01T12:16:01Z</time>
      </trkpt>
      <trkpt lat="41.6987930" lon="-0.9590920">
        <ele>76.0</ele>
        <time>2019-01-01T12:16:09Z</time>
      </trkpt>
      <trkpt lat="41.6989860" lon="-0.9595670">
        <ele>75.4</ele>
        <time>2019-01-01T12:16:17Z</time>
      </trkpt>
      <trkpt lat="41.6990850" lon="-0.9598150">
        <ele>75.2</ele>
        <time>2019-01-01T12:16:21Z</time>
      </trkpt>
      <trkpt lat="41.6991260" lon="-0.9599380">
        <ele>75.2</ele>
        <time>2019-01-01T12:16:23Z</time>
      </trkpt>
      <trkpt lat="41.6993100" lon="-0.9604100">
        <ele>75.0</ele>
        <time>2019-01-01T12:16:31Z</time>
      </trkpt>
      <trkpt lat="41.6994910" lon="-0.9608110">
        <ele>74.8</ele>
        <time>2019-01-01T12:16:38Z</time>
      </trkpt>
      <trkpt lat="41.6996910" lon="-0.9613480">
        <ele>75.4</ele>
        <time>2019-01-01T12:16:47Z</time>
      </trkpt>
      <trkpt lat="41.6999340" lon="-0.9620180">
        <ele>75.4</ele>
        <time>2019-01-01T12:16:58Z</time>
      </trkpt>
      <trkpt lat="41.7001570" lon="-0.9624710">
        <ele>75.6</ele>
        <time>2019-01-01T12:17:06Z</time>
      </trkpt>
      <trkpt lat="41.7003150" lon="-0.9627440">
        <ele>75.6</ele>
        <time>2019-01-01T12:17:11Z</time>
      </trkpt>
      <trkpt lat="41.7003440" lon="-0.9627960">
        <ele>75.6</ele>
        <time>2019-01-01T12:17:12Z</time>
      </trkpt>
      <trkpt lat="41.7004140" lon="-0.9629030">
        <ele>75.4</ele>
        <time>2019-01-01T12:17:14Z</time>
      </trkpt>
      <trkpt lat="41.7005030" lon="-0.9630710">
        <ele>75.4</ele>
        <time>2019-01-01T12:17:17Z</time>
      </trkpt>
      <trkpt lat="41.7006270" lon="-0.9632880">
        <ele>75.6</ele>
        <time>2019-01-01T12:17:21Z</time>
      </trkpt>
      <trkpt lat="41.7006610" lon="-0.9633410">
        <ele>75.6</ele>
        <time>2019-01-01T12:17:22Z</time>
      </trkpt>
      <trkpt lat="41.7008500" lon="-0.9636550">
        <ele>75.8</ele>
        <time>2019-01-01T12:17:28Z</time>
      </trkpt>
      <trkpt lat="41.7009170" lon="-0.9637650">
        <ele>75.8</ele>
        <time>2019-01-01T12:17:30Z</time>
      </trkpt>
      <trkpt lat="41.7010150" lon="-0.9639310">
        <ele>75.6</ele>
        <time>2019-01-01T12:17:33Z</time>
      </trkpt>
      <trkpt lat="41.7010400" lon="-0.9639870">
        <ele>75.6</ele>
        <time>2019-01-01T12:17:34Z</time>
      </trkpt>
      <trkpt lat="41.7011340" lon="-0.9641560">
        <ele>76.2</ele>
        <time>2019-01-01T12:17:37Z</time>
      </trkpt>
      <trkpt lat="41.7011690" lon="-0.9642110">
        <ele>76.4</ele>
        <time>2019-01-01T12:17:38Z</time>
      </trkpt>
      <trkpt lat="41.7012970" lon="-0.9644400">
        <ele>76.2</ele>
        <time>2019-01-01T12:17:42Z</time>
      </trkpt>
      <trkpt lat="41.7015410" lon="-0.9649070">
        <ele>76.2</ele>
        <time>2019-01-01T12:17:50Z</time>
      </trkpt>
      <trkpt lat="41.7016310" lon="-0.9650740">
        <ele>76.2</ele>
        <time>2019-01-01T12:17:53Z</time>
      </trkpt>
      <trkpt lat="41.7017190" lon="-0.9652370">
        <ele>76.2</ele>
        <time>2019-01-01T12:17:56Z</time>
      </trkpt>
      <trkpt lat="41.7018650" lon="-0.9654420">
        <ele>76.4</ele>
        <time>2019-01-01T12:18:00Z</time>
      </trkpt>
      <trkpt lat="41.7019860" lon="-0.9655790">
        <ele>76.6</ele>
        <time>2019-01-01T12:18:03Z</time>
      </trkpt>
      <trkpt lat="41.7020280" lon="-0.9656040">
        <ele>76.4</ele>
        <time>2019-01-01T12:18:04Z</time>
      </trkpt>
      <trkpt lat="41.7020840" lon="-0.9655680">
        <ele>76.4</ele>
        <time>2019-01-01T12:18:06Z</time>
      </trkpt>
      <trkpt lat="41.7021360" lon="-0.9654050">
        <ele>76.6</ele>
        <time>2019-01-01T12:18:09Z</time>
      </trkpt>
      <trkpt lat="41.7021680" lon="-0.9652860">
        <ele>76.6</ele>
        <time>2019-01-01T12:18:11Z</time>
      </trkpt>
      <trkpt lat="41.7021910" lon="-0.9652320">
        <ele>76.6</ele>
        <time>2019-01-01T12:18:12Z</time>
      </trkpt>
      <trkpt lat="41.7022980" lon="-0.9650200">
        <ele>76.8</ele>
        <time>2019-01-01T12:18:16Z</time>
      </trkpt>
      <trkpt lat="41.7023220" lon="-0.9649700">
        <ele>76.8</ele>
        <time>2019-01-01T12:18:17Z</time>
      </trkpt>
      <trkpt lat="41.7024920" lon="-0.9645990">
        <ele>77.2</ele>
        <time>2019-01-01T12:18:24Z</time>
      </trkpt>
      <trkpt lat="41.7027170" lon="-0.9640870">
        <ele>77.4</ele>
        <time>2019-01-01T12:18:33Z</time>
      </trkpt>
      <trkpt lat="41.7027630" lon="-0.9639030">
        <ele>77.4</ele>
        <time>2019-01-01T12:18:36Z</time>
      </trkpt>
      <trkpt lat="41.7027620" lon="-0.9637720">
        <ele>77.4</ele>
        <time>2019-01-01T12:18:38Z</time>
      </trkpt>
      <trkpt lat="41.7026970" lon="-0.9635190">
        <ele>77.4</ele>
        <time>2019-01-01T12:18:42Z</time>
      </trkpt>
      <trkpt lat="41.7026780" lon="-0.9634560">
        <ele>77.4</ele>
        <time>2019-01-01T12:18:43Z</time>
      </trkpt>
      <trkpt lat="41.7026680" lon="-0.9631880">
        <ele>77.4</ele>
        <time>2019-01-01T12:18:47Z</time>
      </trkpt>
      <trkpt lat="41.7027700" lon="-0.9629610">
        <ele>77.0</ele>
        <time>2019-01-01T12:18:51Z</time>
      </trkpt>
      <trkpt lat="41.7028890" lon="-0.9627520">
        <ele>76.2</ele>
        <time>2019-01-01T12:18:55Z</time>
      </trkpt>
      <trkpt lat="41.7029290" lon="-0.9626270">
        <ele>75.8</ele>
        <time>2019-01-01T12:18:57Z</time>
      </trkpt>
      <trkpt lat="41.7030670" lon="-0.9622560">
        <ele>75.4</ele>
        <time>2019-01-01T12:19:03Z</time>
      </trkpt>
      <trkpt lat="41.7032210" lon="-0.9618430">
        <ele>75.8</ele>
        <time>2019-01-01T12:19:10Z</time>
      </trkpt>
      <trkpt lat="41.7032320" lon="-0.9617850">
        <ele>75.6</ele>
        <time>2019-01-01T12:19:11Z</time>
      </trkpt>
      <trkpt lat="41.7032220" lon="-0.9616150">
        <ele>75.6</ele>
        <time>2019-01-01T12:19:15Z</time>
      </trkpt>
      <trkpt lat="41.7031900" lon="-0.9615330">
        <ele>75.4</ele>
        <time>2019-01-01T12:19:18Z</time>
      </trkpt>
      <trkpt lat="41.7031850" lon="-0.9615060">
        <ele>75.4</ele>
        <time>2019-01-01T12:19:19Z</time>
      </trkpt>
      <trkpt lat="41.7031850" lon="-0.9614930">
        <ele>75.0</ele>
        <time>2019-01-01T12:19:21Z</time>
      </trkpt>
      <trkpt lat="41.7031900" lon="-0.9615480">
        <ele>75.0</ele>
        <time>2019-01-01T12:21:41Z</time>
      </trkpt>
      <trkpt lat="41.7032620" lon="-0.9616280">
        <ele>75.4</ele>
        <time>2019-01-01T12:21:47Z</time>
      </trkpt>
      <trkpt lat="41.7033880" lon="-0.9615590">
        <ele>75.6</ele>
        <time>2019-01-01T12:21:50Z</time>
      </trkpt>
      <trkpt lat="41.7034290" lon="-0.9615110">
        <ele>75.6</ele>
        <time>2019-01-01T12:21:51Z</time>
      </trkpt>
      <trkpt lat="41.7036590" lon="-0.9612010">
        <ele>75.8</ele>
        <time>2019-01-01T12:21:57Z</time>
      </trkpt>
      <trkpt lat="41.7039990" lon="-0.9607650">
        <ele>76.0</ele>
        <time>2019-01-01T12:22:06Z</time>
      </trkpt>
      <trkpt lat="41.7043560" lon="-0.9604130">
        <ele>75.8</ele>
        <time>2019-01-01T12:22:15Z</time>
      </trkpt>
      <trkpt lat="41.7045450" lon="-0.9602200">
        <ele>75.8</ele>
        <time>2019-01-01T12:22:20Z</time>
      </trkpt>
      <trkpt lat="41.7046250" lon="-0.9600690">
        <ele>75.8</ele>
        <time>2019-01-01T12:22:23Z</time>
      </trkpt>
      <trkpt lat="41.7046430" lon="-0.9600150">
        <ele>75.8</ele>
        <time>2019-01-01T12:22:24Z</time>
      </trkpt>
      <trkpt lat="41.7047880" lon="-0.9596370">
        <ele>76.2</ele>
        <time>2019-01-01T12:22:31Z</time>
      </trkpt>
      <trkpt lat="41.7049750" lon="-0.9591910">
        <ele>76.6</ele>
        <time>2019-01-01T12:22:39Z</time>
      </trkpt>
      <trkpt lat="41.7050730" lon="-0.9589590">
        <ele>76.4</ele>
        <time>2019-01-01T12:22:43Z</time>
      </trkpt>
      <trkpt lat="41.7051460" lon="-0.9587830">
        <ele>76.4</ele>
        <time>2019-01-01T12:22:46Z</time>
      </trkpt>
      <trkpt lat="41.7053100" lon="-0.9585220">
        <ele>76.8</ele>
        <time>2019-01-01T12:22:51Z</time>
      </trkpt>
      <trkpt lat="41.7053500" lon="-0.9584780">
        <ele>76.8</ele>
        <time>2019-01-01T12:22:52Z</time>
      </trkpt>
      <trkpt lat="41.7056610" lon="-0.9582250">
        <ele>76.8</ele>
        <time>2019-01-01T12:22:59Z</time>
      </trkpt>
      <trkpt lat="41.7059960" lon="-0.9579680">
        <ele>76.6</ele>
        <time>2019-01-01T12:23:07Z</time>
      </trkpt>
      <trkpt lat="41.7063990" lon="-0.9576860">
        <ele>76.6</ele>
        <time>2019-01-01T12:23:16Z</time>
      </trkpt>
      <trkpt lat="41.7068740" lon="-0.9574020">
        <ele>76.4</ele>
        <time>2019-01-01T12:23:26Z</time>
      </trkpt>
      <trkpt lat="41.7073450" lon="-0.9570950">
        <ele>77.0</ele>
        <time>2019-01-01T12:23:36Z</time>
      </trkpt>
      <trkpt lat="41.7073910" lon="-0.9570610">
        <ele>77.0</ele>
        <time>2019-01-01T12:23:37Z</time>
      </trkpt>
      <trkpt lat="41.7078790" lon="-0.9567180">
        <ele>77.6</ele>
        <time>2019-01-01T12:23:47Z</time>
      </trkpt>
      <trkpt lat="41.7081130" lon="-0.9565540">
        <ele>78.2</ele>
        <time>2019-01-01T12:23:52Z</time>
      </trkpt>
      <trkpt lat="41.7081520" lon="-0.9565280">
        <ele>78.6</ele>
        <time>2019-01-01T12:23:53Z</time>
      </trkpt>
      <trkpt lat="41.7082230" lon="-0.9564870">
        <ele>79.4</ele>
        <time>2019-01-01T12:23:55Z</time>
      </trkpt>
      <trkpt lat="41.7083920" lon="-0.9563870">
        <ele>80.2</ele>
        <time>2019-01-01T12:24:00Z</time>
      </trkpt>
      <trkpt lat="41.7084610" lon="-0.9563480">
        <ele>80.4</ele>
        <time>2019-01-01T12:24:02Z</time>
      </trkpt>
      <trkpt lat="41.7086430" lon="-0.9562400">
        <ele>80.4</ele>
        <time>2019-01-01T12:24:07Z</time>
      </trkpt>
      <trkpt lat="41.7089980" lon="-0.9560330">
        <ele>80.8</ele>
        <time>2019-01-01T12:24:16Z</time>
      </trkpt>
      <trkpt lat="41.7093210" lon="-0.9558440">
        <ele>80.8</ele>
        <time>2019-01-01T12:24:24Z</time>
      </trkpt>
      <trkpt lat="41.7097080" lon="-0.9556240">
        <ele>80.4</ele>
        <time>2019-01-01T12:24:33Z</time>
      </trkpt>
      <trkpt lat="41.7100970" lon="-0.9553960">
        <ele>79.8</ele>
        <time>2019-01-01T12:24:41Z</time>
      </trkpt>
      <trkpt lat="41.7102170" lon="-0.9553310">
        <ele>79.2</ele>
        <time>2019-01-01T12:24:43Z</time>
      </trkpt>
      <trkpt lat="41.7104120" lon="-0.9552370">
        <ele>78.0</ele>
        <time>2019-01-01T12:24:46Z</time>
      </trkpt>
      <trkpt lat="41.7105480" lon="-0.9551840">
        <ele>77.6</ele>
        <time>2019-01-01T12:24:48Z</time>
      </trkpt>
      <trkpt lat="41.7110220" lon="-0.9550870">
        <ele>76.8</ele>
        <time>2019-01-01T12:24:55Z</time>
      </trkpt>
      <trkpt lat="41.7115150" lon="-0.9549570">
        <ele>76.8</ele>
        <time>2019-01-01T12:25:03Z</time>
      </trkpt>
      <trkpt lat="41.7120680" lon="-0.9547490">
        <ele>76.8</ele>
        <time>2019-01-01T12:25:13Z</time>
      </trkpt>
      <trkpt lat="41.7126070" lon="-0.9545610">
        <ele>76.8</ele>
        <time>2019-01-01T12:25:23Z</time>
      </trkpt>
      <trkpt lat="41.7127110" lon="-0.9545220">
        <ele>76.8</ele>
        <time>2019-01-01T12:25:25Z</time>
      </trkpt>
      <trkpt lat="41.7131700" lon="-0.9543470">
        <ele>77.0</ele>
        <time>2019-01-01T12:25:34Z</time>
      </trkpt>
      <trkpt lat="41.7137420" lon="-0.9541800">
        <ele>76.8</ele>
        <time>2019-01-01T12:25:45Z</time>
      </trkpt>
      <trkpt lat="41.7142710" lon="-0.9540510">
        <ele>76.6</ele>
        <time>2019-01-01T12:25:55Z</time>
      </trkpt>
      <trkpt lat="41.7148540" lon="-0.9539130">
        <ele>76.8</ele>
        <time>2019-01-01T12:26:06Z</time>
      </trkpt>
      <trkpt lat="41.7149070" lon="-0.9538990">
        <ele>76.8</ele>
        <time>2019-01-01T12:26:07Z</time>
      </trkpt>
      <trkpt lat="41.7154250" lon="-0.9537740">
        <ele>76.4</ele>
        <time>2019-01-01T12:26:17Z</time>
      </trkpt>
      <trkpt lat="41.7160120" lon="-0.9536580">
        <ele>76.4</ele>
        <time>2019-01-01T12:26:28Z</time>
      </trkpt>
      <trkpt lat="41.7160660" lon="-0.9536500">
        <ele>76.4</ele>
        <time>2019-01-01T12:26:29Z</time>
      </trkpt>
      <trkpt lat="41.7163350" lon="-0.9536020">
        <ele>76.2</ele>
        <time>2019-01-01T12:26:34Z</time>
      </trkpt>
      <trkpt lat="41.7166020" lon="-0.9535620">
        <ele>75.8</ele>
        <time>2019-01-01T12:26:39Z</time>
      </trkpt>
      <trkpt lat="41.7171710" lon="-0.9534480">
        <ele>76.6</ele>
        <time>2019-01-01T12:26:50Z</time>
      </trkpt>
      <trkpt lat="41.7176890" lon="-0.9534090">
        <ele>76.2</ele>
        <time>2019-01-01T12:27:00Z</time>
      </trkpt>
      <trkpt lat="41.7182490" lon="-0.9533430">
        <ele>76.4</ele>
        <time>2019-01-01T12:27:11Z</time>
      </trkpt>
      <trkpt lat="41.7187950" lon="-0.9532660">
        <ele>76.4</ele>
        <time>2019-01-01T12:27:21Z</time>
      </trkpt>
      <trkpt lat="41.7192210" lon="-0.9531410">
        <ele>76.6</ele>
        <time>2019-01-01T12:27:29Z</time>
      </trkpt>
      <trkpt lat="41.7196950" lon="-0.9530630">
        <ele>76.8</ele>
        <time>2019-01-01T12:27:38Z</time>
      </trkpt>
      <trkpt lat="41.7200550" lon="-0.9531220">
        <ele>76.8</ele>
        <time>2019-01-01T12:27:45Z</time>
      </trkpt>
      <trkpt lat="41.7205090" lon="-0.9532540">
        <ele>76.6</ele>
        <time>2019-01-01T12:27:54Z</time>
      </trkpt>
      <trkpt lat="41.7206690" lon="-0.9532390">
        <ele>76.8</ele>
        <time>2019-01-01T12:27:57Z</time>
      </trkpt>
      <trkpt lat="41.7207650" lon="-0.9531870">
        <ele>76.8</ele>
        <time>2019-01-01T12:27:59Z</time>
      </trkpt>
      <trkpt lat="41.7208500" lon="-0.9531010">
        <ele>76.6</ele>
        <time>2019-01-01T12:28:01Z</time>
      </trkpt>
      <trkpt lat="41.7208950" lon="-0.9530570">
        <ele>76.6</ele>
        <time>2019-01-01T12:28:02Z</time>
      </trkpt>
      <trkpt lat="41.7209930" lon="-0.9529840">
        <ele>76.4</ele>
        <time>2019-01-01T12:28:04Z</time>
      </trkpt>
      <trkpt lat="41.7214420" lon="-0.9527060">
        <ele>76.2</ele>
        <time>2019-01-01T12:28:13Z</time>
      </trkpt>
      <trkpt lat="41.7215290" lon="-0.9526180">
        <ele>76.2</ele>
        <time>2019-01-01T12:28:15Z</time>
      </trkpt>
      <trkpt lat="41.7215870" lon="-0.9524990">
        <ele>76.4</ele>
        <time>2019-01-01T12:28:17Z</time>
      </trkpt>
      <trkpt lat="41.7216320" lon="-0.9523660">
        <ele>76.6</ele>
        <time>2019-01-01T12:28:19Z</time>
      </trkpt>
      <trkpt lat="41.7217300" lon="-0.9520300">
        <ele>76.6</ele>
        <time>2019-01-01T12:28:24Z</time>
      </trkpt>
      <trkpt lat="41.7219530" lon="-0.9514020">
        <ele>76.8</ele>
        <time>2019-01-01T12:28:34Z</time>
      </trkpt>
      <trkpt lat="41.7221500" lon="-0.9509160">
        <ele>77.2</ele>
        <time>2019-01-01T12:28:42Z</time>
      </trkpt>
      <trkpt lat="41.7223470" lon="-0.9506860">
        <ele>77.2</ele>
        <time>2019-01-01T12:28:47Z</time>
      </trkpt>
      <trkpt lat="41.7225980" lon="-0.9505920">
        <ele>77.0</ele>
        <time>2019-01-01T12:28:52Z</time>
      </trkpt>
      <trkpt lat="41.7228110" lon="-0.9506260">
        <ele>77.2</ele>
        <time>2019-01-01T12:28:56Z</time>
      </trkpt>
      <trkpt lat="41.7228610" lon="-0.9506430">
        <ele>77.2</ele>
        <time>2019-01-01T12:28:57Z</time>
      </trkpt>
      <trkpt lat="41.7231240" lon="-0.9507000">
        <ele>77.6</ele>
        <time>2019-01-01T12:29:03Z</time>
      </trkpt>
      <trkpt lat="41.7233030" lon="-0.9507130">
        <ele>77.8</ele>
        <time>2019-01-01T12:29:07Z</time>
      </trkpt>
      <trkpt lat="41.7235210" lon="-0.9507100">
        <ele>78.2</ele>
        <time>2019-01-01T12:29:12Z</time>
      </trkpt>
      <trkpt lat="41.7236010" lon="-0.9506950">
        <ele>79.0</ele>
        <time>2019-01-01T12:29:15Z</time>
      </trkpt>
      <trkpt lat="41.7236650" lon="-0.9506770">
        <ele>80.0</ele>
        <time>2019-01-01T12:29:18Z</time>
      </trkpt>
      <trkpt lat="41.7236830" lon="-0.9506680">
        <ele>80.2</ele>
        <time>2019-01-01T12:29:19Z</time>
      </trkpt>
      <trkpt lat="41.7237400" lon="-0.9506400">
        <ele>81.6</ele>
        <time>2019-01-01T12:29:22Z</time>
      </trkpt>
      <trkpt lat="41.7237800" lon="-0.9506270">
        <ele>82.0</ele>
        <time>2019-01-01T12:29:24Z</time>
      </trkpt>
      <trkpt lat="41.7238210" lon="-0.9506080">
        <ele>82.6</ele>
        <time>2019-01-01T12:29:26Z</time>
      </trkpt>
      <trkpt lat="41.7239070" lon="-0.9505830">
        <ele>83.8</ele>
        <time>2019-01-01T12:29:30Z</time>
      </trkpt>
      <trkpt lat="41.7239500" lon="-0.9505700">
        <ele>84.0</ele>
        <time>2019-01-01T12:29:32Z</time>
      </trkpt>
      <trkpt lat="41.7240780" lon="-0.9505810">
        <ele>84.8</ele>
        <time>2019-01-01T12:29:37Z</time>
      </trkpt>
      <trkpt lat="41.7241020" lon="-0.9505920">
        <ele>85.0</ele>
        <time>2019-01-01T12:29:38Z</time>
      </trkpt>
      <trkpt lat="41.7241920" lon="-0.9506770">
        <ele>85.6</ele>
        <time>2019-01-01T12:29:42Z</time>
      </trkpt>
      <trkpt lat="41.7242540" lon="-0.9507690">
        <ele>86.0</ele>
        <time>2019-01-01T12:29:45Z</time>
      </trkpt>
      <trkpt lat="41.7243150" lon="-0.9508660">
        <ele>86.2</ele>
        <time>2019-01-01T12:29:48Z</time>
      </trkpt>
      <trkpt lat="41.7244050" lon="-0.9510330">
        <ele>86.4</ele>
        <time>2019-01-01T12:29:53Z</time>
      </trkpt>
      <trkpt lat="41.7244310" lon="-0.9510890">
        <ele>86.8</ele>
        <time>2019-01-01T12:29:55Z</time>
      </trkpt>
      <trkpt lat="41.7244490" lon="-0.9511160">
        <ele>86.8</ele>
        <time>2019-01-01T12:29:56Z</time>
      </trkpt>
      <trkpt lat="41.7244780" lon="-0.9511730">
        <ele>87.0</ele>
        <time>2019-01-01T12:29:58Z</time>
      </trkpt>
      <trkpt lat="41.7245540" lon="-0.9513050">
        <ele>87.8</ele>
        <time>2019-01-01T12:30:03Z</time>
      </trkpt>
      <trkpt lat="41.7245740" lon="-0.9513330">
        <ele>88.0</ele>
        <time>2019-01-01T12:30:04Z</time>
      </trkpt>
      <trkpt lat="41.7246520" lon="-0.9514240">
        <ele>89.0</ele>
        <time>2019-01-01T12:30:08Z</time>
      </trkpt>
      <trkpt lat="41.7246850" lon="-0.9514750">
        <ele>89.4</ele>
        <time>2019-01-01T12:30:10Z</time>
      </trkpt>
      <trkpt lat="41.7247260" lon="-0.9515530">
        <ele>90.0</ele>
        <time>2019-01-01T12:30:13Z</time>
      </trkpt>
      <trkpt lat="41.7247640" lon="-0.9515890">
        <ele>90.6</ele>
        <time>2019-01-01T12:30:15Z</time>
      </trkpt>
      <trkpt lat="41.7248190" lon="-0.9516400">
        <ele>91.4</ele>
        <time>2019-01-01T12:30:18Z</time>
      </trkpt>
      <trkpt lat="41.7248380" lon="-0.9516530">
        <ele>91.6</ele>
        <time>2019-01-01T12:30:19Z</time>
      </trkpt>
      <trkpt lat="41.7249220" lon="-0.9517320">
        <ele>92.8</ele>
        <time>2019-01-01T12:30:24Z</time>
      </trkpt>
      <trkpt lat="41.7249570" lon="-0.9517680">
        <ele>93.2</ele>
        <time>2019-01-01T12:30:26Z</time>
      </trkpt>
      <trkpt lat="41.7250800" lon="-0.9518900">
        <ele>93.8</ele>
        <time>2019-01-01T12:30:31Z</time>
      </trkpt>
      <trkpt lat="41.7251040" lon="-0.9519160">
        <ele>93.8</ele>
        <time>2019-01-01T12:30:32Z</time>
      </trkpt>
      <trkpt lat="41.7252760" lon="-0.9520900">
        <ele>94.6</ele>
        <time>2019-01-01T12:30:39Z</time>
      </trkpt>
      <trkpt lat="41.7253290" lon="-0.9521650">
        <ele>95.0</ele>
        <time>2019-01-01T12:30:42Z</time>
      </trkpt>
      <trkpt lat="41.7253890" lon="-0.9522370">
        <ele>95.6</ele>
        <time>2019-01-01T12:30:45Z</time>
      </trkpt>
      <trkpt lat="41.7254400" lon="-0.9523300">
        <ele>96.0</ele>
        <time>2019-01-01T12:30:49Z</time>
      </trkpt>
      <trkpt lat="41.7254630" lon="-0.9523820">
        <ele>96.2</ele>
        <time>2019-01-01T12:30:51Z</time>
      </trkpt>
      <trkpt lat="41.7255660" lon="-0.9525270">
        <ele>97.2</ele>
        <time>2019-01-01T12:30:57Z</time>
      </trkpt>
      <trkpt lat="41.7255840" lon="-0.9525480">
        <ele>97.4</ele>
        <time>2019-01-01T12:30:58Z</time>
      </trkpt>
      <trkpt lat="41.7256390" lon="-0.9526540">
        <ele>98.4</ele>
        <time>2019-01-01T12:31:02Z</time>
      </trkpt>
      <trkpt lat="41.7256810" lon="-0.9527220">
        <ele>99.0</ele>
        <time>2019-01-01T12:31:05Z</time>
      </trkpt>
      <trkpt lat="41.7257120" lon="-0.9527630">
        <ele>99.4</ele>
        <time>2019-01-01T12:31:07Z</time>
      </trkpt>
      <trkpt lat="41.7257730" lon="-0.9528340">
        <ele>100.0</ele>
        <time>2019-01-01T12:31:11Z</time>
      </trkpt>
      <trkpt lat="41.7258840" lon="-0.9529700">
        <ele>100.2</ele>
        <time>2019-01-01T12:31:17Z</time>
      </trkpt>
      <trkpt lat="41.7259980" lon="-0.9531350">
        <ele>100.6</ele>
        <time>2019-01-01T12:31:23Z</time>
      </trkpt>
      <trkpt lat="41.7261100" lon="-0.9532440">
        <ele>100.8</ele>
        <time>2019-01-01T12:31:28Z</time>
      </trkpt>
      <trkpt lat="41.7262640" lon="-0.9533920">
        <ele>101.4</ele>
        <time>2019-01-01T12:31:35Z</time>
      </trkpt>
      <trkpt lat="41.7263140" lon="-0.9534270">
        <ele>101.6</ele>
        <time>2019-01-01T12:31:37Z</time>
      </trkpt>
      <trkpt lat="41.7264360" lon="-0.9535080">
        <ele>101.8</ele>
        <time>2019-01-01T12:31:42Z</time>
      </trkpt>
      <trkpt lat="41.7265340" lon="-0.9535770">
        <ele>103.0</ele>
        <time>2019-01-01T12:31:46Z</time>
      </trkpt>
      <trkpt lat="41.7265980" lon="-0.9536010">
        <ele>104.0</ele>
        <time>2019-01-01T12:31:49Z</time>
      </trkpt>
      <trkpt lat="41.7266200" lon="-0.9535950">
        <ele>104.0</ele>
        <time>2019-01-01T12:31:50Z</time>
      </trkpt>
      <trkpt lat="41.7266360" lon="-0.9535760">
        <ele>104.4</ele>
        <time>2019-01-01T12:31:51Z</time>
      </trkpt>
      <trkpt lat="41.7266660" lon="-0.9535090">
        <ele>104.8</ele>
        <time>2019-01-01T12:31:53Z</time>
      </trkpt>
      <trkpt lat="41.7266930" lon="-0.9533030">
        <ele>105.0</ele>
        <time>2019-01-01T12:31:58Z</time>
      </trkpt>
      <trkpt lat="41.7267720" lon="-0.9530620">
        <ele>104.6</ele>
        <time>2019-01-01T12:32:04Z</time>
      </trkpt>
      <trkpt lat="41.7268430" lon="-0.9530600">
        <ele>104.4</ele>
        <time>2019-01-01T12:32:06Z</time>
      </trkpt>
      <trkpt lat="41.7268780" lon="-0.9530880">
        <ele>104.2</ele>
        <time>2019-01-01T12:32:07Z</time>
      </trkpt>
      <trkpt lat="41.7269320" lon="-0.9531630">
        <ele>104.2</ele>
        <time>2019-01-01T12:32:10Z</time>
      </trkpt>
      <trkpt lat="41.7269490" lon="-0.9531820">
        <ele>104.4</ele>
        <time>2019-01-01T12:32:11Z</time>
      </trkpt>
      <trkpt lat="41.7269910" lon="-0.9532400">
        <ele>105.4</ele>
        <time>2019-01-01T12:32:14Z</time>
      </trkpt>
      <trkpt lat="41.7270460" lon="-0.9532990">
        <ele>105.8</ele>
        <time>2019-01-01T12:32:17Z</time>
      </trkpt>
      <trkpt lat="41.7271900" lon="-0.9533390">
        <ele>105.8</ele>
        <time>2019-01-01T12:32:23Z</time>
      </trkpt>
      <trkpt lat="41.7273140" lon="-0.9533070">
        <ele>105.6</ele>
        <time>2019-01-01T12:32:27Z</time>
      </trkpt>
      <trkpt lat="41.7273960" lon="-0.9533330">
        <ele>105.4</ele>
        <time>2019-01-01T12:32:30Z</time>
      </trkpt>
      <trkpt lat="41.7274210" lon="-0.9533380">
        <ele>105.8</ele>
        <time>2019-01-01T12:32:33Z</time>
      </trkpt>
      <trkpt lat="41.7274410" lon="-0.9533460">
        <ele>106.0</ele>
        <time>2019-01-01T12:32:37Z</time>
      </trkpt>
      <trkpt lat="41.7275530" lon="-0.9534380">
        <ele>106.2</ele>
        <time>2019-01-01T12:32:42Z</time>
      </trkpt>
      <trkpt lat="41.7276830" lon="-0.9535610">
        <ele>106.6</ele>
        <time>2019-01-01T12:32:47Z</time>
      </trkpt>
      <trkpt lat="41.7277420" lon="-0.9535880">
        <ele>106.6</ele>
        <time>2019-01-01T12:32:49Z</time>
      </trkpt>
      <trkpt lat="41.7279590" lon="-0.9536510">
        <ele>107.2</ele>
        <time>2019-01-01T12:32:56Z</time>
      </trkpt>
      <trkpt lat="41.7280830" lon="-0.9536960">
        <ele>107.6</ele>
        <time>2019-01-01T12:33:00Z</time>
      </trkpt>
      <trkpt lat="41.7281830" lon="-0.9537120">
        <ele>107.8</ele>
        <time>2019-01-01T12:33:03Z</time>
      </trkpt>
      <trkpt lat="41.7283490" lon="-0.9538130">
        <ele>108.0</ele>
        <time>2019-01-01T12:33:08Z</time>
      </trkpt>
      <trkpt lat="41.7284200" lon="-0.9539120">
        <ele>109.2</ele>
        <time>2019-01-01T12:33:11Z</time>
      </trkpt>
      <trkpt lat="41.7284600" lon="-0.9540370">
        <ele>110.0</ele>
        <time>2019-01-01T12:33:14Z</time>
      </trkpt>
      <trkpt lat="41.7284710" lon="-0.9541210">
        <ele>110.2</ele>
        <time>2019-01-01T12:33:16Z</time>
      </trkpt>
      <trkpt lat="41.7285230" lon="-0.9542240">
        <ele>110.4</ele>
        <time>2019-01-01T12:33:19Z</time>
      </trkpt>
      <trkpt lat="41.7285510" lon="-0.9542440">
        <ele>110.6</ele>
        <time>2019-01-01T12:33:20Z</time>
      </trkpt>
      <trkpt lat="41.7286450" lon="-0.9542570">
        <ele>110.6</ele>
        <time>2019-01-01T12:33:23Z</time>
      </trkpt>
      <trkpt lat="41.7288510" lon="-0.9542830">
        <ele>111.2</ele>
        <time>2019-01-01T12:33:29Z</time>
      </trkpt>
      <trkpt lat="41.7288920" lon="-0.9542790">
        <ele>111.2</ele>
        <time>2019-01-01T12:33:30Z</time>
      </trkpt>
      <trkpt lat="41.7290830" lon="-0.9541720">
        <ele>111.0</ele>
        <time>2019-01-01T12:33:35Z</time>
      </trkpt>
      <trkpt lat="41.7293260" lon="-0.9541200">
        <ele>111.0</ele>
        <time>2019-01-01T12:33:41Z</time>
      </trkpt>
      <trkpt lat="41.7293660" lon="-0.9541070">
        <ele>111.0</ele>
        <time>2019-01-01T12:33:42Z</time>
      </trkpt>
      <trkpt lat="41.7295150" lon="-0.9540210">
        <ele>110.8</ele>
        <time>2019-01-01T12:33:46Z</time>
      </trkpt>
      <trkpt lat="41.7295540" lon="-0.9540060">
        <ele>110.6</ele>
        <time>2019-01-01T12:33:47Z</time>
      </trkpt>
      <trkpt lat="41.7296290" lon="-0.9540130">
        <ele>110.4</ele>
        <time>2019-01-01T12:33:49Z</time>
      </trkpt>
      <trkpt lat="41.7296890" lon="-0.9540450">
        <ele>110.4</ele>
        <time>2019-01-01T12:33:51Z</time>
      </trkpt>
      <trkpt lat="41.7297250" lon="-0.9541060">
        <ele>110.4</ele>
        <time>2019-01-01T12:33:53Z</time>
      </trkpt>
      <trkpt lat="41.7297900" lon="-0.9541980">
        <ele>110.8</ele>
        <time>2019-01-01T12:33:56Z</time>
      </trkpt>
      <trkpt lat="41.7298190" lon="-0.9542290">
        <ele>111.2</ele>
        <time>2019-01-01T12:33:57Z</time>
      </trkpt>
      <trkpt lat="41.7299070" lon="-0.9543030">
        <ele>111.6</ele>
        <time>2019-01-01T12:34:00Z</time>
      </trkpt>
      <trkpt lat="41.7299440" lon="-0.9543030">
        <ele>111.6</ele>
        <time>2019-01-01T12:34:01Z</time>
      </trkpt>
      <trkpt lat="41.7301320" lon="-0.9542600">
        <ele>111.6</ele>
        <time>2019-01-01T12:34:06Z</time>
      </trkpt>
      <trkpt lat="41.7303900" lon="-0.9543670">
        <ele>111.6</ele>
        <time>2019-01-01T12:34:13Z</time>
      </trkpt>
      <trkpt lat="41.7306750" lon="-0.9545660">
        <ele>111.8</ele>
        <time>2019-01-01T12:34:21Z</time>
      </trkpt>
      <trkpt lat="41.7309780" lon="-0.9548340">
        <ele>112.2</ele>
        <time>2019-01-01T12:34:30Z</time>
      </trkpt>
      <trkpt lat="41.7310090" lon="-0.9548680">
        <ele>112.4</ele>
        <time>2019-01-01T12:34:31Z</time>
      </trkpt>
      <trkpt lat="41.7311810" lon="-0.9550940">
        <ele>113.6</ele>
        <time>2019-01-01T12:34:37Z</time>
      </trkpt>
      <trkpt lat="41.7312650" lon="-0.9552310">
        <ele>114.2</ele>
        <time>2019-01-01T12:34:41Z</time>
      </trkpt>
      <trkpt lat="41.7313530" lon="-0.9553200">
        <ele>114.6</ele>
        <time>2019-01-01T12:34:45Z</time>
      </trkpt>
      <trkpt lat="41.7314070" lon="-0.9553600">
        <ele>114.8</ele>
        <time>2019-01-01T12:34:47Z</time>
      </trkpt>
      <trkpt lat="41.7314720" lon="-0.9554630">
        <ele>115.2</ele>
        <time>2019-01-01T12:34:51Z</time>
      </trkpt>
      <trkpt lat="41.7315520" lon="-0.9556060">
        <ele>115.2</ele>
        <time>2019-01-01T12:34:56Z</time>
      </trkpt>
      <trkpt lat="41.7316250" lon="-0.9557580">
        <ele>113.8</ele>
        <time>2019-01-01T12:35:01Z</time>
      </trkpt>
      <trkpt lat="41.7316490" lon="-0.9557840">
        <ele>113.6</ele>
        <time>2019-01-01T12:35:02Z</time>
      </trkpt>
      <trkpt lat="41.7317600" lon="-0.9558500">
        <ele>113.4</ele>
        <time>2019-01-01T12:35:06Z</time>
      </trkpt>
      <trkpt lat="41.7318280" lon="-0.9558840">
        <ele>113.4</ele>
        <time>2019-01-01T12:35:10Z</time>
      </trkpt>
      <trkpt lat="41.7318270" lon="-0.9558820">
        <ele>113.4</ele>
        <time>2019-01-01T12:35:11Z</time>
      </trkpt>
      <trkpt lat="41.7317840" lon="-0.9558470">
        <ele>113.8</ele>
        <time>2019-01-01T12:35:16Z</time>
      </trkpt>
      <trkpt lat="41.7317510" lon="-0.9558300">
        <ele>113.8</ele>
        <time>2019-01-01T12:35:18Z</time>
      </trkpt>
      <trkpt lat="41.7316100" lon="-0.9557320">
        <ele>113.8</ele>
        <time>2019-01-01T12:35:23Z</time>
      </trkpt>
      <trkpt lat="41.7315760" lon="-0.9557020">
        <ele>113.4</ele>
        <time>2019-01-01T12:35:26Z</time>
      </trkpt>
      <trkpt lat="41.7315720" lon="-0.9557020">
        <ele>113.0</ele>
        <time>2019-01-01T12:35:28Z</time>
      </trkpt>
      <trkpt lat="41.7317030" lon="-0.9557990">
        <ele>113.4</ele>
        <time>2019-01-01T12:39:16Z</time>
      </trkpt>
      <trkpt lat="41.7317210" lon="-0.9558000">
        <ele>113.4</ele>
        <time>2019-01-01T12:39:18Z</time>
      </trkpt>
      <trkpt lat="41.7317540" lon="-0.9557930">
        <ele>113.4</ele>
        <time>2019-01-01T12:39:23Z</time>
      </trkpt>
      <trkpt lat="41.7317580" lon="-0.9557930">
        <ele>113.4</ele>
        <time>2019-01-01T12:39:25Z</time>
      </trkpt>
      <trkpt lat="41.7318030" lon="-0.9558510">
        <ele>113.2</ele>
        <time>2019-01-01T12:40:38Z</time>
      </trkpt>
      <trkpt lat="41.7318340" lon="-0.9558760">
        <ele>113.0</ele>
        <time>2019-01-01T12:40:40Z</time>
      </trkpt>
      <trkpt lat="41.7319820" lon="-0.9559520">
        <ele>113.4</ele>
        <time>2019-01-01T12:40:47Z</time>
      </trkpt>
      <trkpt lat="41.7321120" lon="-0.9560320">
        <ele>114.6</ele>
        <time>2019-01-01T12:40:56Z</time>
      </trkpt>
      <trkpt lat="41.7321260" lon="-0.9560390">
        <ele>114.8</ele>
        <time>2019-01-01T12:40:57Z</time>
      </trkpt>
      <trkpt lat="41.7321730" lon="-0.9560690">
        <ele>115.8</ele>
        <time>2019-01-01T12:41:01Z</time>
      </trkpt>
      <trkpt lat="41.7322140" lon="-0.9560970">
        <ele>116.4</ele>
        <time>2019-01-01T12:41:04Z</time>
      </trkpt>
      <trkpt lat="41.7322830" lon="-0.9561420">
        <ele>117.0</ele>
        <time>2019-01-01T12:41:09Z</time>
      </trkpt>
      <trkpt lat="41.7323350" lon="-0.9561920">
        <ele>117.4</ele>
        <time>2019-01-01T12:41:13Z</time>
      </trkpt>
      <trkpt lat="41.7323810" lon="-0.9562490">
        <ele>118.0</ele>
        <time>2019-01-01T12:41:17Z</time>
      </trkpt>
      <trkpt lat="41.7324030" lon="-0.9562840">
        <ele>118.2</ele>
        <time>2019-01-01T12:41:19Z</time>
      </trkpt>
      <trkpt lat="41.7324930" lon="-0.9563720">
        <ele>118.8</ele>
        <time>2019-01-01T12:41:26Z</time>
      </trkpt>
      <trkpt lat="41.7325250" lon="-0.9563910">
        <ele>119.0</ele>
        <time>2019-01-01T12:41:28Z</time>
      </trkpt>
      <trkpt lat="41.7326080" lon="-0.9564590">
        <ele>119.6</ele>
        <time>2019-01-01T12:41:34Z</time>
      </trkpt>
      <trkpt lat="41.7326180" lon="-0.9564600">
        <ele>119.8</ele>
        <time>2019-01-01T12:41:36Z</time>
      </trkpt>
      <trkpt lat="41.7326450" lon="-0.9564640">
        <ele>119.8</ele>
        <time>2019-01-01T12:41:38Z</time>
      </trkpt>
      <trkpt lat="41.7327410" lon="-0.9564800">
        <ele>119.8</ele>
        <time>2019-01-01T12:41:44Z</time>
      </trkpt>
      <trkpt lat="41.7328060" lon="-0.9564840">
        <ele>120.0</ele>
        <time>2019-01-01T12:41:48Z</time>
      </trkpt>
      <trkpt lat="41.7328490" lon="-0.9564960">
        <ele>120.4</ele>
        <time>2019-01-01T12:41:51Z</time>
      </trkpt>
      <trkpt lat="41.7328870" lon="-0.9565100">
        <ele>120.8</ele>
        <time>2019-01-01T12:41:54Z</time>
      </trkpt>
      <trkpt lat="41.7329220" lon="-0.9565070">
        <ele>120.8</ele>
        <time>2019-01-01T12:41:56Z</time>
      </trkpt>
      <trkpt lat="41.7330120" lon="-0.9565240">
        <ele>121.2</ele>
        <time>2019-01-01T12:42:01Z</time>
      </trkpt>
      <trkpt lat="41.7330490" lon="-0.9565420">
        <ele>121.2</ele>
        <time>2019-01-01T12:42:03Z</time>
      </trkpt>
      <trkpt lat="41.7331900" lon="-0.9566150">
        <ele>121.6</ele>
        <time>2019-01-01T12:42:11Z</time>
      </trkpt>
      <trkpt lat="41.7333080" lon="-0.9566770">
        <ele>122.4</ele>
        <time>2019-01-01T12:42:17Z</time>
      </trkpt>
      <trkpt lat="41.7334390" lon="-0.9567460">
        <ele>123.0</ele>
        <time>2019-01-01T12:42:24Z</time>
      </trkpt>
      <trkpt lat="41.7335560" lon="-0.9568030">
        <ele>123.0</ele>
        <time>2019-01-01T12:42:30Z</time>
      </trkpt>
      <trkpt lat="41.7336760" lon="-0.9569010">
        <ele>122.8</ele>
        <time>2019-01-01T12:42:35Z</time>
      </trkpt>
      <trkpt lat="41.7338580" lon="-0.9569710">
        <ele>122.6</ele>
        <time>2019-01-01T12:42:41Z</time>
      </trkpt>
      <trkpt lat="41.7341210" lon="-0.9569820">
        <ele>122.4</ele>
        <time>2019-01-01T12:42:49Z</time>
      </trkpt>
      <trkpt lat="41.7344880" lon="-0.9570080">
        <ele>123.0</ele>
        <time>2019-01-01T12:43:00Z</time>
      </trkpt>
      <trkpt lat="41.7347610" lon="-0.9569380">
        <ele>122.8</ele>
        <time>2019-01-01T12:43:08Z</time>
      </trkpt>
      <trkpt lat="41.7350440" lon="-0.9568050">
        <ele>123.2</ele>
        <time>2019-01-01T12:43:16Z</time>
      </trkpt>
      <trkpt lat="41.7353100" lon="-0.9567970">
        <ele>123.2</ele>
        <time>2019-01-01T12:43:23Z</time>
      </trkpt>
      <trkpt lat="41.7355740" lon="-0.9568660">
        <ele>123.2</ele>
        <time>2019-01-01T12:43:30Z</time>
      </trkpt>
      <trkpt lat="41.7356830" lon="-0.9568980">
        <ele>123.6</ele>
        <time>2019-01-01T12:43:33Z</time>
      </trkpt>
      <trkpt lat="41.7358690" lon="-0.9569460">
        <ele>123.8</ele>
        <time>2019-01-01T12:43:38Z</time>
      </trkpt>
      <trkpt lat="41.7361450" lon="-0.9570150">
        <ele>124.4</ele>
        <time>2019-01-01T12:43:45Z</time>
      </trkpt>
      <trkpt lat="41.7362270" lon="-0.9570270">
        <ele>124.6</ele>
        <time>2019-01-01T12:43:47Z</time>
      </trkpt>
      <trkpt lat="41.7364690" lon="-0.9570490">
        <ele>125.2</ele>
        <time>2019-01-01T12:43:53Z</time>
      </trkpt>
      <trkpt lat="41.7368180" lon="-0.9571050">
        <ele>125.8</ele>
        <time>2019-01-01T12:44:02Z</time>
      </trkpt>
      <trkpt lat="41.7370680" lon="-0.9571100">
        <ele>125.6</ele>
        <time>2019-01-01T12:44:09Z</time>
      </trkpt>
      <trkpt lat="41.7371520" lon="-0.9570440">
        <ele>125.6</ele>
        <time>2019-01-01T12:44:13Z</time>
      </trkpt>
      <trkpt lat="41.7372500" lon="-0.9570440">
        <ele>125.6</ele>
        <time>2019-01-01T12:44:17Z</time>
      </trkpt>
      <trkpt lat="41.7372900" lon="-0.9570320">
        <ele>125.6</ele>
        <time>2019-01-01T12:44:19Z</time>
      </trkpt>
      <trkpt lat="41.7373260" lon="-0.9569930">
        <ele>125.6</ele>
        <time>2019-01-01T12:44:21Z</time>
      </trkpt>
      <trkpt lat="41.7373940" lon="-0.9569600">
        <ele>125.6</ele>
        <time>2019-01-01T12:44:24Z</time>
      </trkpt>
      <trkpt lat="41.7374470" lon="-0.9569510">
        <ele>125.6</ele>
        <time>2019-01-01T12:44:26Z</time>
      </trkpt>
      <trkpt lat="41.7377070" lon="-0.9569160">
        <ele>125.8</ele>
        <time>2019-01-01T12:44:35Z</time>
      </trkpt>
      <trkpt lat="41.7379130" lon="-0.9568730">
        <ele>126.2</ele>
        <time>2019-01-01T12:44:42Z</time>
      </trkpt>
      <trkpt lat="41.7380280" lon="-0.9568350">
        <ele>126.6</ele>
        <time>2019-01-01T12:44:48Z</time>
      </trkpt>
      <trkpt lat="41.7380380" lon="-0.9568380">
        <ele>126.8</ele>
        <time>2019-01-01T12:44:49Z</time>
      </trkpt>
      <trkpt lat="41.7380790" lon="-0.9568500">
        <ele>126.8</ele>
        <time>2019-01-01T12:44:53Z</time>
      </trkpt>
      <trkpt lat="41.7381690" lon="-0.9568950">
        <ele>126.8</ele>
        <time>2019-01-01T12:44:59Z</time>
      </trkpt>
      <trkpt lat="41.7382390" lon="-0.9569490">
        <ele>126.8</ele>
        <time>2019-01-01T12:45:02Z</time>
      </trkpt>
      <trkpt lat="41.7383050" lon="-0.9569920">
        <ele>127.0</ele>
        <time>2019-01-01T12:45:05Z</time>
      </trkpt>
      <trkpt lat="41.7384030" lon="-0.9570320">
        <ele>127.2</ele>
        <time>2019-01-01T12:45:09Z</time>
      </trkpt>
      <trkpt lat="41.7384310" lon="-0.9570380">
        <ele>127.4</ele>
        <time>2019-01-01T12:45:10Z</time>
      </trkpt>
      <trkpt lat="41.7386540" lon="-0.9570710">
        <ele>127.8</ele>
        <time>2019-01-01T12:45:17Z</time>
      </trkpt>
      <trkpt lat="41.7387290" lon="-0.9571060">
        <ele>128.4</ele>
        <time>2019-01-01T12:45:20Z</time>
      </trkpt>
      <trkpt lat="41.7387750" lon="-0.9571250">
        <ele>128.8</ele>
        <time>2019-01-01T12:45:22Z</time>
      </trkpt>
      <trkpt lat="41.7389590" lon="-0.9571710">
        <ele>129.4</ele>
        <time>2019-01-01T12:45:28Z</time>
      </trkpt>
      <trkpt lat="41.7389940" lon="-0.9571780">
        <ele>129.6</ele>
        <time>2019-01-01T12:45:29Z</time>
      </trkpt>
      <trkpt lat="41.7391860" lon="-0.9572970">
        <ele>129.8</ele>
        <time>2019-01-01T12:45:35Z</time>
      </trkpt>
      <trkpt lat="41.7394150" lon="-0.9574760">
        <ele>130.2</ele>
        <time>2019-01-01T12:45:42Z</time>
      </trkpt>
      <trkpt lat="41.7395580" lon="-0.9575970">
        <ele>130.4</ele>
        <time>2019-01-01T12:45:47Z</time>
      </trkpt>
      <trkpt lat="41.7395920" lon="-0.9578010">
        <ele>130.4</ele>
        <time>2019-01-01T12:45:52Z</time>
      </trkpt>
      <trkpt lat="41.7396190" lon="-0.9580820">
        <ele>130.4</ele>
        <time>2019-01-01T12:45:58Z</time>
      </trkpt>
      <trkpt lat="41.7397470" lon="-0.9585980">
        <ele>130.4</ele>
        <time>2019-01-01T12:46:09Z</time>
      </trkpt>
      <trkpt lat="41.7397770" lon="-0.9586950">
        <ele>130.6</ele>
        <time>2019-01-01T12:46:11Z</time>
      </trkpt>
      <trkpt lat="41.7398320" lon="-0.9588820">
        <ele>130.6</ele>
        <time>2019-01-01T12:46:15Z</time>
      </trkpt>
      <trkpt lat="41.7398970" lon="-0.9590690">
        <ele>131.0</ele>
        <time>2019-01-01T12:46:19Z</time>
      </trkpt>
      <trkpt lat="41.7400600" lon="-0.9594730">
        <ele>131.6</ele>
        <time>2019-01-01T12:46:28Z</time>
      </trkpt>
      <trkpt lat="41.7401160" lon="-0.9596070">
        <ele>131.8</ele>
        <time>2019-01-01T12:46:31Z</time>
      </trkpt>
      <trkpt lat="41.7401910" lon="-0.9597930">
        <ele>133.0</ele>
        <time>2019-01-01T12:46:35Z</time>
      </trkpt>
      <trkpt lat="41.7402300" lon="-0.9598820">
        <ele>133.4</ele>
        <time>2019-01-01T12:46:37Z</time>
      </trkpt>
      <trkpt lat="41.7403820" lon="-0.9602400">
        <ele>133.8</ele>
        <time>2019-01-01T12:46:45Z</time>
      </trkpt>
      <trkpt lat="41.7404360" lon="-0.9603740">
        <ele>134.0</ele>
        <time>2019-01-01T12:46:48Z</time>
      </trkpt>
      <trkpt lat="41.7405190" lon="-0.9606110">
        <ele>134.8</ele>
        <time>2019-01-01T12:46:53Z</time>
      </trkpt>
      <trkpt lat="41.7405910" lon="-0.9608990">
        <ele>135.2</ele>
        <time>2019-01-01T12:46:59Z</time>
      </trkpt>
      <trkpt lat="41.7406090" lon="-0.9609810">
        <ele>135.6</ele>
        <time>2019-01-01T12:47:01Z</time>
      </trkpt>
      <trkpt lat="41.7406570" lon="-0.9613290">
        <ele>136.2</ele>
        <time>2019-01-01T12:47:08Z</time>
      </trkpt>
      <trkpt lat="41.7407200" lon="-0.9617680">
        <ele>137.0</ele>
        <time>2019-01-01T12:47:17Z</time>
      </trkpt>
      <trkpt lat="41.7407350" lon="-0.9618780">
        <ele>137.2</ele>
        <time>2019-01-01T12:47:19Z</time>
      </trkpt>
      <trkpt lat="41.7407580" lon="-0.9621040">
        <ele>137.2</ele>
        <time>2019-01-01T12:47:23Z</time>
      </trkpt>
      <trkpt lat="41.7407880" lon="-0.9623340">
        <ele>137.6</ele>
        <time>2019-01-01T12:47:27Z</time>
      </trkpt>
      <trkpt lat="41.7408180" lon="-0.9624270">
        <ele>138.0</ele>
        <time>2019-01-01T12:47:29Z</time>
      </trkpt>
      <trkpt lat="41.7408560" lon="-0.9625130">
        <ele>138.4</ele>
        <time>2019-01-01T12:47:31Z</time>
      </trkpt>
      <trkpt lat="41.7409460" lon="-0.9626190">
        <ele>138.6</ele>
        <time>2019-01-01T12:47:34Z</time>
      </trkpt>
      <trkpt lat="41.7409800" lon="-0.9626500">
        <ele>138.6</ele>
        <time>2019-01-01T12:47:35Z</time>
      </trkpt>
      <trkpt lat="41.7412360" lon="-0.9629120">
        <ele>139.0</ele>
        <time>2019-01-01T12:47:43Z</time>
      </trkpt>
      <trkpt lat="41.7413860" lon="-0.9631930">
        <ele>139.4</ele>
        <time>2019-01-01T12:47:50Z</time>
      </trkpt>
      <trkpt lat="41.7414120" lon="-0.9632330">
        <ele>139.4</ele>
        <time>2019-01-01T12:47:51Z</time>
      </trkpt>
      <trkpt lat="41.7415840" lon="-0.9635050">
        <ele>139.8</ele>
        <time>2019-01-01T12:47:58Z</time>
      </trkpt>
      <trkpt lat="41.7417710" lon="-0.9637060">
        <ele>139.8</ele>
        <time>2019-01-01T12:48:04Z</time>
      </trkpt>
      <trkpt lat="41.7418460" lon="-0.9638240">
        <ele>140.4</ele>
        <time>2019-01-01T12:48:07Z</time>
      </trkpt>
      <trkpt lat="41.7419370" lon="-0.9640100">
        <ele>141.2</ele>
        <time>2019-01-01T12:48:11Z</time>
      </trkpt>
      <trkpt lat="41.7419750" lon="-0.9640880">
        <ele>141.6</ele>
        <time>2019-01-01T12:48:13Z</time>
      </trkpt>
      <trkpt lat="41.7420050" lon="-0.9641520">
        <ele>141.8</ele>
        <time>2019-01-01T12:48:15Z</time>
      </trkpt>
      <trkpt lat="41.7421050" lon="-0.9643730">
        <ele>142.4</ele>
        <time>2019-01-01T12:48:21Z</time>
      </trkpt>
      <trkpt lat="41.7422210" lon="-0.9645910">
        <ele>142.4</ele>
        <time>2019-01-01T12:48:26Z</time>
      </trkpt>
      <trkpt lat="41.7422680" lon="-0.9646730">
        <ele>142.6</ele>
        <time>2019-01-01T12:48:28Z</time>
      </trkpt>
      <trkpt lat="41.7424270" lon="-0.9649350">
        <ele>143.4</ele>
        <time>2019-01-01T12:48:34Z</time>
      </trkpt>
      <trkpt lat="41.7424670" lon="-0.9650220">
        <ele>144.0</ele>
        <time>2019-01-01T12:48:36Z</time>
      </trkpt>
      <trkpt lat="41.7425130" lon="-0.9651610">
        <ele>144.2</ele>
        <time>2019-01-01T12:48:39Z</time>
      </trkpt>
      <trkpt lat="41.7426110" lon="-0.9653600">
        <ele>144.4</ele>
        <time>2019-01-01T12:48:44Z</time>
      </trkpt>
      <trkpt lat="41.7426480" lon="-0.9654320">
        <ele>145.0</ele>
        <time>2019-01-01T12:48:48Z</time>
      </trkpt>
      <trkpt lat="41.7426520" lon="-0.9654430">
        <ele>145.0</ele>
        <time>2019-01-01T12:48:49Z</time>
      </trkpt>
      <trkpt lat="41.7427020" lon="-0.9655480">
        <ele>145.0</ele>
        <time>2019-01-01T12:48:55Z</time>
      </trkpt>
      <trkpt lat="41.7427620" lon="-0.9656770">
        <ele>145.2</ele>
        <time>2019-01-01T12:49:01Z</time>
      </trkpt>
      <trkpt lat="41.7428340" lon="-0.9658420">
        <ele>145.4</ele>
        <time>2019-01-01T12:49:07Z</time>
      </trkpt>
      <trkpt lat="41.7429100" lon="-0.9660200">
        <ele>145.6</ele>
        <time>2019-01-01T12:49:12Z</time>
      </trkpt>
      <trkpt lat="41.7429970" lon="-0.9661980">
        <ele>146.2</ele>
        <time>2019-01-01T12:49:18Z</time>
      </trkpt>
      <trkpt lat="41.7430690" lon="-0.9663620">
        <ele>146.8</ele>
        <time>2019-01-01T12:49:23Z</time>
      </trkpt>
      <trkpt lat="41.7431070" lon="-0.9664580">
        <ele>147.4</ele>
        <time>2019-01-01T12:49:26Z</time>
      </trkpt>
      <trkpt lat="41.7431560" lon="-0.9666080">
        <ele>147.6</ele>
        <time>2019-01-01T12:49:30Z</time>
      </trkpt>
      <trkpt lat="41.7432560" lon="-0.9668940">
        <ele>147.8</ele>
        <time>2019-01-01T12:49:37Z</time>
      </trkpt>
      <trkpt lat="41.7433630" lon="-0.9672250">
        <ele>148.4</ele>
        <time>2019-01-01T12:49:45Z</time>
      </trkpt>
      <trkpt lat="41.7434760" lon="-0.9674310">
        <ele>149.4</ele>
        <time>2019-01-01T12:49:51Z</time>
      </trkpt>
      <trkpt lat="41.7435130" lon="-0.9675000">
        <ele>149.4</ele>
        <time>2019-01-01T12:49:53Z</time>
      </trkpt>
      <trkpt lat="41.7436090" lon="-0.9676930">
        <ele>149.6</ele>
        <time>2019-01-01T12:49:58Z</time>
      </trkpt>
      <trkpt lat="41.7437180" lon="-0.9679220">
        <ele>150.4</ele>
        <time>2019-01-01T12:50:04Z</time>
      </trkpt>
      <trkpt lat="41.7437340" lon="-0.9679560">
        <ele>150.6</ele>
        <time>2019-01-01T12:50:05Z</time>
      </trkpt>
      <trkpt lat="41.7438160" lon="-0.9681640">
        <ele>150.8</ele>
        <time>2019-01-01T12:50:10Z</time>
      </trkpt>
      <trkpt lat="41.7439150" lon="-0.9684540">
        <ele>152.0</ele>
        <time>2019-01-01T12:50:17Z</time>
      </trkpt>
      <trkpt lat="41.7440310" lon="-0.9687090">
        <ele>152.8</ele>
        <time>2019-01-01T12:50:24Z</time>
      </trkpt>
      <trkpt lat="41.7440520" lon="-0.9687470">
        <ele>153.0</ele>
        <time>2019-01-01T12:50:25Z</time>
      </trkpt>
      <trkpt lat="41.7441240" lon="-0.9688570">
        <ele>153.0</ele>
        <time>2019-01-01T12:50:28Z</time>
      </trkpt>
      <trkpt lat="41.7441800" lon="-0.9689220">
        <ele>153.0</ele>
        <time>2019-01-01T12:50:30Z</time>
      </trkpt>
      <trkpt lat="41.7444080" lon="-0.9691760">
        <ele>153.2</ele>
        <time>2019-01-01T12:50:38Z</time>
      </trkpt>
      <trkpt lat="41.7444800" lon="-0.9692950">
        <ele>153.6</ele>
        <time>2019-01-01T12:50:42Z</time>
      </trkpt>
      <trkpt lat="41.7444990" lon="-0.9693120">
        <ele>153.6</ele>
        <time>2019-01-01T12:50:43Z</time>
      </trkpt>
      <trkpt lat="41.7445170" lon="-0.9693380">
        <ele>153.4</ele>
        <time>2019-01-01T12:50:47Z</time>
      </trkpt>
      <trkpt lat="41.7445290" lon="-0.9693850">
        <ele>153.2</ele>
        <time>2019-01-01T12:50:53Z</time>
      </trkpt>
      <trkpt lat="41.7445360" lon="-0.9694390">
        <ele>153.2</ele>
        <time>2019-01-01T12:50:55Z</time>
      </trkpt>
      <trkpt lat="41.7445780" lon="-0.9696810">
        <ele>153.2</ele>
        <time>2019-01-01T12:51:01Z</time>
      </trkpt>
      <trkpt lat="41.7446190" lon="-0.9699460">
        <ele>153.6</ele>
        <time>2019-01-01T12:51:06Z</time>
      </trkpt>
      <trkpt lat="41.7446240" lon="-0.9700130">
        <ele>153.8</ele>
        <time>2019-01-01T12:51:07Z</time>
      </trkpt>
      <trkpt lat="41.7446230" lon="-0.9700750">
        <ele>154.0</ele>
        <time>2019-01-01T12:51:08Z</time>
      </trkpt>
      <trkpt lat="41.7446220" lon="-0.9701900">
        <ele>154.4</ele>
        <time>2019-01-01T12:51:10Z</time>
      </trkpt>
      <trkpt lat="41.7446260" lon="-0.9705740">
        <ele>155.0</ele>
        <time>2019-01-01T12:51:17Z</time>
      </trkpt>
      <trkpt lat="41.7446410" lon="-0.9708730">
        <ele>155.8</ele>
        <time>2019-01-01T12:51:23Z</time>
      </trkpt>
      <trkpt lat="41.7446740" lon="-0.9711340">
        <ele>156.0</ele>
        <time>2019-01-01T12:51:28Z</time>
      </trkpt>
      <trkpt lat="41.7446850" lon="-0.9712450">
        <ele>156.0</ele>
        <time>2019-01-01T12:51:30Z</time>
      </trkpt>
      <trkpt lat="41.7447210" lon="-0.9715950">
        <ele>156.4</ele>
        <time>2019-01-01T12:51:36Z</time>
      </trkpt>
      <trkpt lat="41.7447250" lon="-0.9716510">
        <ele>156.4</ele>
        <time>2019-01-01T12:51:37Z</time>
      </trkpt>
      <trkpt lat="41.7447640" lon="-0.9721070">
        <ele>157.2</ele>
        <time>2019-01-01T12:51:45Z</time>
      </trkpt>
      <trkpt lat="41.7447790" lon="-0.9722060">
        <ele>157.4</ele>
        <time>2019-01-01T12:51:47Z</time>
      </trkpt>
      <trkpt lat="41.7447880" lon="-0.9723130">
        <ele>157.6</ele>
        <time>2019-01-01T12:51:49Z</time>
      </trkpt>
      <trkpt lat="41.7447830" lon="-0.9724200">
        <ele>157.8</ele>
        <time>2019-01-01T12:51:51Z</time>
      </trkpt>
      <trkpt lat="41.7447770" lon="-0.9725660">
        <ele>158.6</ele>
        <time>2019-01-01T12:51:54Z</time>
      </trkpt>
      <trkpt lat="41.7447720" lon="-0.9726190">
        <ele>158.8</ele>
        <time>2019-01-01T12:51:55Z</time>
      </trkpt>
      <trkpt lat="41.7447580" lon="-0.9726700">
        <ele>159.0</ele>
        <time>2019-01-01T12:51:56Z</time>
      </trkpt>
      <trkpt lat="41.7447130" lon="-0.9728200">
        <ele>159.0</ele>
        <time>2019-01-01T12:51:59Z</time>
      </trkpt>
      <trkpt lat="41.7446630" lon="-0.9730330">
        <ele>159.4</ele>
        <time>2019-01-01T12:52:03Z</time>
      </trkpt>
      <trkpt lat="41.7446060" lon="-0.9733300">
        <ele>159.2</ele>
        <time>2019-01-01T12:52:09Z</time>
      </trkpt>
      <trkpt lat="41.7445540" lon="-0.9735550">
        <ele>159.4</ele>
        <time>2019-01-01T12:52:15Z</time>
      </trkpt>
      <trkpt lat="41.7445390" lon="-0.9736310">
        <ele>159.6</ele>
        <time>2019-01-01T12:52:17Z</time>
      </trkpt>
      <trkpt lat="41.7445160" lon="-0.9737470">
        <ele>160.0</ele>
        <time>2019-01-01T12:52:21Z</time>
      </trkpt>
      <trkpt lat="41.7444840" lon="-0.9740280">
        <ele>160.8</ele>
        <time>2019-01-01T12:52:28Z</time>
      </trkpt>
      <trkpt lat="41.7444660" lon="-0.9743160">
        <ele>161.2</ele>
        <time>2019-01-01T12:52:34Z</time>
      </trkpt>
      <trkpt lat="41.7444540" lon="-0.9745580">
        <ele>161.8</ele>
        <time>2019-01-01T12:52:41Z</time>
      </trkpt>
      <trkpt lat="41.7444340" lon="-0.9746150">
        <ele>162.0</ele>
        <time>2019-01-01T12:52:42Z</time>
      </trkpt>
      <trkpt lat="41.7444170" lon="-0.9746850">
        <ele>162.2</ele>
        <time>2019-01-01T12:52:44Z</time>
      </trkpt>
      <trkpt lat="41.7444170" lon="-0.9746850">
        <ele>162.4</ele>
        <time>2019-01-01T12:52:45Z</time>
      </trkpt>
      <trkpt lat="41.7444070" lon="-0.9749840">
        <ele>162.6</ele>
        <time>2019-01-01T12:52:52Z</time>
      </trkpt>
      <trkpt lat="41.7444640" lon="-0.9753510">
        <ele>163.0</ele>
        <time>2019-01-01T12:53:01Z</time>
      </trkpt>
      <trkpt lat="41.7445280" lon="-0.9756180">
        <ele>163.6</ele>
        <time>2019-01-01T12:53:08Z</time>
      </trkpt>
      <trkpt lat="41.7445620" lon="-0.9758150">
        <ele>164.0</ele>
        <time>2019-01-01T12:53:13Z</time>
      </trkpt>
      <trkpt lat="41.7445660" lon="-0.9759080">
        <ele>164.2</ele>
        <time>2019-01-01T12:53:15Z</time>
      </trkpt>
      <trkpt lat="41.7445570" lon="-0.9760990">
        <ele>164.4</ele>
        <time>2019-01-01T12:53:18Z</time>
      </trkpt>
      <trkpt lat="41.7445840" lon="-0.9764720">
        <ele>165.2</ele>
        <time>2019-01-01T12:53:26Z</time>
      </trkpt>
      <trkpt lat="41.7445840" lon="-0.9764720">
        <ele>165.4</ele>
        <time>2019-01-01T12:53:27Z</time>
      </trkpt>
      <trkpt lat="41.7446040" lon="-0.9767530">
        <ele>166.4</ele>
        <time>2019-01-01T12:53:32Z</time>
      </trkpt>
      <trkpt lat="41.7446090" lon="-0.9768740">
        <ele>166.6</ele>
        <time>2019-01-01T12:53:35Z</time>
      </trkpt>
      <trkpt lat="41.7446150" lon="-0.9770540">
        <ele>167.6</ele>
        <time>2019-01-01T12:53:40Z</time>
      </trkpt>
      <trkpt lat="41.7446390" lon="-0.9772030">
        <ele>168.2</ele>
        <time>2019-01-01T12:53:44Z</time>
      </trkpt>
      <trkpt lat="41.7446850" lon="-0.9773950">
        <ele>168.6</ele>
        <time>2019-01-01T12:53:48Z</time>
      </trkpt>
      <trkpt lat="41.7446960" lon="-0.9774450">
        <ele>168.8</ele>
        <time>2019-01-01T12:53:50Z</time>
      </trkpt>
      <trkpt lat="41.7448020" lon="-0.9777680">
        <ele>169.4</ele>
        <time>2019-01-01T12:53:56Z</time>
      </trkpt>
      <trkpt lat="41.7448670" lon="-0.9779410">
        <ele>169.8</ele>
        <time>2019-01-01T12:54:00Z</time>
      </trkpt>
      <trkpt lat="41.7449490" lon="-0.9781780">
        <ele>170.2</ele>
        <time>2019-01-01T12:54:05Z</time>
      </trkpt>
      <trkpt lat="41.7450040" lon="-0.9783200">
        <ele>170.0</ele>
        <time>2019-01-01T12:54:08Z</time>
      </trkpt>
      <trkpt lat="41.7450830" lon="-0.9784920">
        <ele>170.6</ele>
        <time>2019-01-01T12:54:12Z</time>
      </trkpt>
      <trkpt lat="41.7452140" lon="-0.9787510">
        <ele>171.0</ele>
        <time>2019-01-01T12:54:18Z</time>
      </trkpt>
      <trkpt lat="41.7452520" lon="-0.9788450">
        <ele>170.6</ele>
        <time>2019-01-01T12:54:21Z</time>
      </trkpt>
      <trkpt lat="41.7454660" lon="-0.9793300">
        <ele>171.0</ele>
        <time>2019-01-01T12:54:30Z</time>
      </trkpt>
      <trkpt lat="41.7455220" lon="-0.9794160">
        <ele>171.0</ele>
        <time>2019-01-01T12:54:32Z</time>
      </trkpt>
      <trkpt lat="41.7456460" lon="-0.9795530">
        <ele>171.2</ele>
        <time>2019-01-01T12:54:36Z</time>
      </trkpt>
      <trkpt lat="41.7457110" lon="-0.9796090">
        <ele>172.0</ele>
        <time>2019-01-01T12:54:38Z</time>
      </trkpt>
      <trkpt lat="41.7458550" lon="-0.9796990">
        <ele>172.2</ele>
        <time>2019-01-01T12:54:43Z</time>
      </trkpt>
      <trkpt lat="41.7461350" lon="-0.9799080">
        <ele>172.8</ele>
        <time>2019-01-01T12:54:51Z</time>
      </trkpt>
      <trkpt lat="41.7462090" lon="-0.9799550">
        <ele>173.0</ele>
        <time>2019-01-01T12:54:52Z</time>
      </trkpt>
      <trkpt lat="41.7463510" lon="-0.9800570">
        <ele>172.6</ele>
        <time>2019-01-01T12:54:57Z</time>
      </trkpt>
      <trkpt lat="41.7465650" lon="-0.9802050">
        <ele>173.2</ele>
        <time>2019-01-01T12:55:03Z</time>
      </trkpt>
      <trkpt lat="41.7468230" lon="-0.9804130">
        <ele>174.0</ele>
        <time>2019-01-01T12:55:10Z</time>
      </trkpt>
      <trkpt lat="41.7468580" lon="-0.9804380">
        <ele>174.0</ele>
        <time>2019-01-01T12:55:11Z</time>
      </trkpt>
      <trkpt lat="41.7468890" lon="-0.9804630">
        <ele>174.2</ele>
        <time>2019-01-01T12:55:12Z</time>
      </trkpt>
      <trkpt lat="41.7471700" lon="-0.9806720">
        <ele>175.0</ele>
        <time>2019-01-01T12:55:20Z</time>
      </trkpt>
      <trkpt lat="41.7475050" lon="-0.9808840">
        <ele>175.4</ele>
        <time>2019-01-01T12:55:29Z</time>
      </trkpt>
      <trkpt lat="41.7475420" lon="-0.9809190">
        <ele>175.6</ele>
        <time>2019-01-01T12:55:30Z</time>
      </trkpt>
      <trkpt lat="41.7476020" lon="-0.9809990">
        <ele>175.8</ele>
        <time>2019-01-01T12:55:32Z</time>
      </trkpt>
      <trkpt lat="41.7476700" lon="-0.9810670">
        <ele>175.8</ele>
        <time>2019-01-01T12:55:34Z</time>
      </trkpt>
      <trkpt lat="41.7477060" lon="-0.9810950">
        <ele>176.0</ele>
        <time>2019-01-01T12:55:35Z</time>
      </trkpt>
      <trkpt lat="41.7477440" lon="-0.9811200">
        <ele>176.0</ele>
        <time>2019-01-01T12:55:36Z</time>
      </trkpt>
      <trkpt lat="41.7478260" lon="-0.9811540">
        <ele>176.0</ele>
        <time>2019-01-01T12:55:38Z</time>
      </trkpt>
      <trkpt lat="41.7479400" lon="-0.9811830">
        <ele>176.6</ele>
        <time>2019-01-01T12:55:41Z</time>
      </trkpt>
      <trkpt lat="41.7480600" lon="-0.9811870">
        <ele>177.0</ele>
        <time>2019-01-01T12:55:44Z</time>
      </trkpt>
      <trkpt lat="41.7481460" lon="-0.9811790">
        <ele>177.2</ele>
        <time>2019-01-01T12:55:46Z</time>
      </trkpt>
      <trkpt lat="41.7482300" lon="-0.9811490">
        <ele>177.4</ele>
        <time>2019-01-01T12:55:48Z</time>
      </trkpt>
      <trkpt lat="41.7483150" lon="-0.9811200">
        <ele>177.6</ele>
        <time>2019-01-01T12:55:50Z</time>
      </trkpt>
      <trkpt lat="41.7484780" lon="-0.9810610">
        <ele>177.8</ele>
        <time>2019-01-01T12:55:55Z</time>
      </trkpt>
      <trkpt lat="41.7487990" lon="-0.9809750">
        <ele>178.8</ele>
        <time>2019-01-01T12:56:03Z</time>
      </trkpt>
      <trkpt lat="41.7490900" lon="-0.9808910">
        <ele>179.2</ele>
        <time>2019-01-01T12:56:10Z</time>
      </trkpt>
      <trkpt lat="41.7491580" lon="-0.9808530">
        <ele>179.8</ele>
        <time>2019-01-01T12:56:12Z</time>
      </trkpt>
      <trkpt lat="41.7493710" lon="-0.9807260">
        <ele>180.4</ele>
        <time>2019-01-01T12:56:18Z</time>
      </trkpt>
      <trkpt lat="41.7495200" lon="-0.9806680">
        <ele>180.4</ele>
        <time>2019-01-01T12:56:22Z</time>
      </trkpt>
      <trkpt lat="41.7496780" lon="-0.9806160">
        <ele>180.6</ele>
        <time>2019-01-01T12:56:27Z</time>
      </trkpt>
      <trkpt lat="41.7500120" lon="-0.9804650">
        <ele>181.0</ele>
        <time>2019-01-01T12:56:35Z</time>
      </trkpt>
      <trkpt lat="41.7500490" lon="-0.9804460">
        <ele>181.0</ele>
        <time>2019-01-01T12:56:36Z</time>
      </trkpt>
      <trkpt lat="41.7503930" lon="-0.9802760">
        <ele>182.2</ele>
        <time>2019-01-01T12:56:46Z</time>
      </trkpt>
      <trkpt lat="41.7506260" lon="-0.9800960">
        <ele>183.2</ele>
        <time>2019-01-01T12:56:54Z</time>
      </trkpt>
      <trkpt lat="41.7506260" lon="-0.9800960">
        <ele>183.4</ele>
        <time>2019-01-01T12:56:55Z</time>
      </trkpt>
      <trkpt lat="41.7508650" lon="-0.9798020">
        <ele>183.6</ele>
        <time>2019-01-01T12:57:03Z</time>
      </trkpt>
      <trkpt lat="41.7510580" lon="-0.9794340">
        <ele>184.2</ele>
        <time>2019-01-01T12:57:10Z</time>
      </trkpt>
      <trkpt lat="41.7510880" lon="-0.9793950">
        <ele>184.4</ele>
        <time>2019-01-01T12:57:11Z</time>
      </trkpt>
      <trkpt lat="41.7511950" lon="-0.9793020">
        <ele>184.6</ele>
        <time>2019-01-01T12:57:14Z</time>
      </trkpt>
      <trkpt lat="41.7512380" lon="-0.9792870">
        <ele>184.4</ele>
        <time>2019-01-01T12:57:16Z</time>
      </trkpt>
      <trkpt lat="41.7513650" lon="-0.9793210">
        <ele>184.4</ele>
        <time>2019-01-01T12:57:19Z</time>
      </trkpt>
      <trkpt lat="41.7514410" lon="-0.9793780">
        <ele>184.4</ele>
        <time>2019-01-01T12:57:20Z</time>
      </trkpt>
      <trkpt lat="41.7516570" lon="-0.9795690">
        <ele>185.0</ele>
        <time>2019-01-01T12:57:27Z</time>
      </trkpt>
      <trkpt lat="41.7517930" lon="-0.9796960">
        <ele>185.4</ele>
        <time>2019-01-01T12:57:31Z</time>
      </trkpt>
      <trkpt lat="41.7519920" lon="-0.9799160">
        <ele>185.6</ele>
        <time>2019-01-01T12:57:36Z</time>
      </trkpt>
      <trkpt lat="41.7522390" lon="-0.9802390">
        <ele>186.2</ele>
        <time>2019-01-01T12:57:45Z</time>
      </trkpt>
      <trkpt lat="41.7523600" lon="-0.9804020">
        <ele>186.8</ele>
        <time>2019-01-01T12:57:49Z</time>
      </trkpt>
      <trkpt lat="41.7525400" lon="-0.9806480">
        <ele>187.2</ele>
        <time>2019-01-01T12:57:54Z</time>
      </trkpt>
      <trkpt lat="41.7527500" lon="-0.9809570">
        <ele>187.8</ele>
        <time>2019-01-01T12:58:02Z</time>
      </trkpt>
      <trkpt lat="41.7528280" lon="-0.9811170">
        <ele>188.2</ele>
        <time>2019-01-01T12:58:06Z</time>
      </trkpt>
      <trkpt lat="41.7528550" lon="-0.9812200">
        <ele>188.4</ele>
        <time>2019-01-01T12:58:08Z</time>
      </trkpt>
      <trkpt lat="41.7529120" lon="-0.9814100">
        <ele>189.0</ele>
        <time>2019-01-01T12:58:13Z</time>
      </trkpt>
      <trkpt lat="41.7530790" lon="-0.9816180">
        <ele>189.6</ele>
        <time>2019-01-01T12:58:19Z</time>
      </trkpt>
      <trkpt lat="41.7532300" lon="-0.9817750">
        <ele>190.0</ele>
        <time>2019-01-01T12:58:23Z</time>
      </trkpt>
      <trkpt lat="41.7533310" lon="-0.9818690">
        <ele>190.2</ele>
        <time>2019-01-01T12:58:27Z</time>
      </trkpt>
      <trkpt lat="41.7536300" lon="-0.9820850">
        <ele>190.4</ele>
        <time>2019-01-01T12:58:34Z</time>
      </trkpt>
      <trkpt lat="41.7537110" lon="-0.9821280">
        <ele>190.6</ele>
        <time>2019-01-01T12:58:36Z</time>
      </trkpt>
      <trkpt lat="41.7538640" lon="-0.9821970">
        <ele>191.2</ele>
        <time>2019-01-01T12:58:40Z</time>
      </trkpt>
      <trkpt lat="41.7540190" lon="-0.9822440">
        <ele>191.8</ele>
        <time>2019-01-01T12:58:44Z</time>
      </trkpt>
      <trkpt lat="41.7541850" lon="-0.9822790">
        <ele>192.2</ele>
        <time>2019-01-01T12:58:48Z</time>
      </trkpt>
      <trkpt lat="41.7542640" lon="-0.9823090">
        <ele>192.4</ele>
        <time>2019-01-01T12:58:50Z</time>
      </trkpt>
      <trkpt lat="41.7543400" lon="-0.9823540">
        <ele>192.8</ele>
        <time>2019-01-01T12:58:52Z</time>
      </trkpt>
      <trkpt lat="41.7544150" lon="-0.9824060">
        <ele>193.0</ele>
        <time>2019-01-01T12:58:54Z</time>
      </trkpt>
      <trkpt lat="41.7544890" lon="-0.9824560">
        <ele>193.4</ele>
        <time>2019-01-01T12:58:56Z</time>
      </trkpt>
      <trkpt lat="41.7548240" lon="-0.9826870">
        <ele>193.8</ele>
        <time>2019-01-01T12:59:05Z</time>
      </trkpt>
      <trkpt lat="41.7550480" lon="-0.9829340">
        <ele>194.4</ele>
        <time>2019-01-01T12:59:13Z</time>
      </trkpt>
      <trkpt lat="41.7550960" lon="-0.9830210">
        <ele>194.4</ele>
        <time>2019-01-01T12:59:14Z</time>
      </trkpt>
      <trkpt lat="41.7551690" lon="-0.9832030">
        <ele>195.6</ele>
        <time>2019-01-01T12:59:18Z</time>
      </trkpt>
      <trkpt lat="41.7551940" lon="-0.9833070">
        <ele>196.0</ele>
        <time>2019-01-01T12:59:20Z</time>
      </trkpt>
      <trkpt lat="41.7551940" lon="-0.9833070">
        <ele>196.0</ele>
        <time>2019-01-01T12:59:21Z</time>
      </trkpt>
      <trkpt lat="41.7552840" lon="-0.9838560">
        <ele>196.8</ele>
        <time>2019-01-01T12:59:30Z</time>
      </trkpt>
      <trkpt lat="41.7553440" lon="-0.9842990">
        <ele>197.8</ele>
        <time>2019-01-01T12:59:39Z</time>
      </trkpt>
      <trkpt lat="41.7553560" lon="-0.9844120">
        <ele>197.8</ele>
        <time>2019-01-01T12:59:40Z</time>
      </trkpt>
      <trkpt lat="41.7553530" lon="-0.9847440">
        <ele>198.4</ele>
        <time>2019-01-01T12:59:46Z</time>
      </trkpt>
      <trkpt lat="41.7553430" lon="-0.9848540">
        <ele>198.8</ele>
        <time>2019-01-01T12:59:49Z</time>
      </trkpt>
      <trkpt lat="41.7552990" lon="-0.9852530">
        <ele>199.4</ele>
        <time>2019-01-01T12:59:56Z</time>
      </trkpt>
      <trkpt lat="41.7552830" lon="-0.9853970">
        <ele>200.0</ele>
        <time>2019-01-01T12:59:59Z</time>
      </trkpt>
      <trkpt lat="41.7552470" lon="-0.9857350">
        <ele>200.8</ele>
        <time>2019-01-01T13:00:06Z</time>
      </trkpt>
      <trkpt lat="41.7552470" lon="-0.9857350">
        <ele>201.0</ele>
        <time>2019-01-01T13:00:07Z</time>
      </trkpt>
      <trkpt lat="41.7551820" lon="-0.9862180">
        <ele>202.0</ele>
        <time>2019-01-01T13:00:16Z</time>
      </trkpt>
      <trkpt lat="41.7551680" lon="-0.9863140">
        <ele>202.2</ele>
        <time>2019-01-01T13:00:18Z</time>
      </trkpt>
      <trkpt lat="41.7551660" lon="-0.9865660">
        <ele>202.6</ele>
        <time>2019-01-01T13:00:23Z</time>
      </trkpt>
      <trkpt lat="41.7551590" lon="-0.9867950">
        <ele>203.2</ele>
        <time>2019-01-01T13:00:28Z</time>
      </trkpt>
      <trkpt lat="41.7551540" lon="-0.9868860">
        <ele>203.4</ele>
        <time>2019-01-01T13:00:31Z</time>
      </trkpt>
      <trkpt lat="41.7550670" lon="-0.9872490">
        <ele>204.0</ele>
        <time>2019-01-01T13:00:38Z</time>
      </trkpt>
      <trkpt lat="41.7550320" lon="-0.9873110">
        <ele>204.4</ele>
        <time>2019-01-01T13:00:40Z</time>
      </trkpt>
      <trkpt lat="41.7548990" lon="-0.9875000">
        <ele>205.4</ele>
        <time>2019-01-01T13:00:46Z</time>
      </trkpt>
      <trkpt lat="41.7547380" lon="-0.9877960">
        <ele>206.4</ele>
        <time>2019-01-01T13:00:55Z</time>
      </trkpt>
      <trkpt lat="41.7547090" lon="-0.9878720">
        <ele>206.8</ele>
        <time>2019-01-01T13:00:57Z</time>
      </trkpt>
      <trkpt lat="41.7546280" lon="-0.9881300">
        <ele>207.2</ele>
        <time>2019-01-01T13:01:02Z</time>
      </trkpt>
      <trkpt lat="41.7545650" lon="-0.9882680">
        <ele>207.8</ele>
        <time>2019-01-01T13:01:07Z</time>
      </trkpt>
      <trkpt lat="41.7545290" lon="-0.9883380">
        <ele>208.0</ele>
        <time>2019-01-01T13:01:08Z</time>
      </trkpt>
      <trkpt lat="41.7544390" lon="-0.9884970">
        <ele>209.0</ele>
        <time>2019-01-01T13:01:12Z</time>
      </trkpt>
      <trkpt lat="41.7543840" lon="-0.9885750">
        <ele>209.4</ele>
        <time>2019-01-01T13:01:15Z</time>
      </trkpt>
      <trkpt lat="41.7541180" lon="-0.9889660">
        <ele>210.0</ele>
        <time>2019-01-01T13:01:24Z</time>
      </trkpt>
      <trkpt lat="41.7541180" lon="-0.9889660">
        <ele>210.0</ele>
        <time>2019-01-01T13:01:25Z</time>
      </trkpt>
      <trkpt lat="41.7539400" lon="-0.9891030">
        <ele>211.2</ele>
        <time>2019-01-01T13:01:31Z</time>
      </trkpt>
      <trkpt lat="41.7536930" lon="-0.9892860">
        <ele>211.4</ele>
        <time>2019-01-01T13:01:39Z</time>
      </trkpt>
      <trkpt lat="41.7534950" lon="-0.9894710">
        <ele>212.0</ele>
        <time>2019-01-01T13:01:46Z</time>
      </trkpt>
      <trkpt lat="41.7534560" lon="-0.9895400">
        <ele>212.2</ele>
        <time>2019-01-01T13:01:48Z</time>
      </trkpt>
      <trkpt lat="41.7533740" lon="-0.9897330">
        <ele>212.6</ele>
        <time>2019-01-01T13:01:53Z</time>
      </trkpt>
      <trkpt lat="41.7533610" lon="-0.9899060">
        <ele>213.8</ele>
        <time>2019-01-01T13:01:58Z</time>
      </trkpt>
      <trkpt lat="41.7533740" lon="-0.9900090">
        <ele>214.8</ele>
        <time>2019-01-01T13:02:02Z</time>
      </trkpt>
      <trkpt lat="41.7533970" lon="-0.9901090">
        <ele>215.8</ele>
        <time>2019-01-01T13:02:06Z</time>
      </trkpt>
      <trkpt lat="41.7533970" lon="-0.9901090">
        <ele>216.2</ele>
        <time>2019-01-01T13:02:07Z</time>
      </trkpt>
      <trkpt lat="41.7534130" lon="-0.9901530">
        <ele>216.4</ele>
        <time>2019-01-01T13:02:08Z</time>
      </trkpt>
      <trkpt lat="41.7534700" lon="-0.9902380">
        <ele>217.2</ele>
        <time>2019-01-01T13:02:12Z</time>
      </trkpt>
      <trkpt lat="41.7535470" lon="-0.9903890">
        <ele>218.2</ele>
        <time>2019-01-01T13:02:19Z</time>
      </trkpt>
      <trkpt lat="41.7536190" lon="-0.9904990">
        <ele>218.8</ele>
        <time>2019-01-01T13:02:23Z</time>
      </trkpt>
      <trkpt lat="41.7536880" lon="-0.9906060">
        <ele>219.6</ele>
        <time>2019-01-01T13:02:28Z</time>
      </trkpt>
      <trkpt lat="41.7537430" lon="-0.9907030">
        <ele>220.2</ele>
        <time>2019-01-01T13:02:33Z</time>
      </trkpt>
      <trkpt lat="41.7537940" lon="-0.9908050">
        <ele>220.6</ele>
        <time>2019-01-01T13:02:36Z</time>
      </trkpt>
      <trkpt lat="41.7538470" lon="-0.9909690">
        <ele>221.4</ele>
        <time>2019-01-01T13:02:42Z</time>
      </trkpt>
      <trkpt lat="41.7538640" lon="-0.9910250">
        <ele>221.6</ele>
        <time>2019-01-01T13:02:44Z</time>
      </trkpt>
      <trkpt lat="41.7538970" lon="-0.9911990">
        <ele>222.8</ele>
        <time>2019-01-01T13:02:50Z</time>
      </trkpt>
      <trkpt lat="41.7539120" lon="-0.9912860">
        <ele>223.4</ele>
        <time>2019-01-01T13:02:53Z</time>
      </trkpt>
      <trkpt lat="41.7539550" lon="-0.9914520">
        <ele>224.0</ele>
        <time>2019-01-01T13:02:59Z</time>
      </trkpt>
      <trkpt lat="41.7539770" lon="-0.9915420">
        <ele>224.4</ele>
        <time>2019-01-01T13:03:02Z</time>
      </trkpt>
      <trkpt lat="41.7540120" lon="-0.9916660">
        <ele>225.0</ele>
        <time>2019-01-01T13:03:07Z</time>
      </trkpt>
      <trkpt lat="41.7540280" lon="-0.9917340">
        <ele>225.2</ele>
        <time>2019-01-01T13:03:08Z</time>
      </trkpt>
      <trkpt lat="41.7540720" lon="-0.9919380">
        <ele>226.2</ele>
        <time>2019-01-01T13:03:14Z</time>
      </trkpt>
      <trkpt lat="41.7540720" lon="-0.9919380">
        <ele>226.2</ele>
        <time>2019-01-01T13:03:15Z</time>
      </trkpt>
      <trkpt lat="41.7541260" lon="-0.9921490">
        <ele>226.8</ele>
        <time>2019-01-01T13:03:21Z</time>
      </trkpt>
      <trkpt lat="41.7542490" lon="-0.9923550">
        <ele>226.2</ele>
        <time>2019-01-01T13:03:27Z</time>
      </trkpt>
      <trkpt lat="41.7544150" lon="-0.9927120">
        <ele>226.6</ele>
        <time>2019-01-01T13:03:36Z</time>
      </trkpt>
      <trkpt lat="41.7545650" lon="-0.9931350">
        <ele>227.2</ele>
        <time>2019-01-01T13:03:47Z</time>
      </trkpt>
      <trkpt lat="41.7545790" lon="-0.9931740">
        <ele>227.4</ele>
        <time>2019-01-01T13:03:48Z</time>
      </trkpt>
      <trkpt lat="41.7546860" lon="-0.9934810">
        <ele>227.6</ele>
        <time>2019-01-01T13:03:57Z</time>
      </trkpt>
      <trkpt lat="41.7547650" lon="-0.9936680">
        <ele>228.6</ele>
        <time>2019-01-01T13:04:02Z</time>
      </trkpt>
      <trkpt lat="41.7548020" lon="-0.9937600">
        <ele>229.2</ele>
        <time>2019-01-01T13:04:05Z</time>
      </trkpt>
      <trkpt lat="41.7548130" lon="-0.9937900">
        <ele>229.8</ele>
        <time>2019-01-01T13:04:07Z</time>
      </trkpt>
      <trkpt lat="41.7548840" lon="-0.9939670">
        <ele>231.0</ele>
        <time>2019-01-01T13:04:13Z</time>
      </trkpt>
      <trkpt lat="41.7549120" lon="-0.9940340">
        <ele>231.4</ele>
        <time>2019-01-01T13:04:15Z</time>
      </trkpt>
      <trkpt lat="41.7550870" lon="-0.9943810">
        <ele>232.2</ele>
        <time>2019-01-01T13:04:24Z</time>
      </trkpt>
      <trkpt lat="41.7550870" lon="-0.9943810">
        <ele>232.2</ele>
        <time>2019-01-01T13:04:25Z</time>
      </trkpt>
      <trkpt lat="41.7552640" lon="-0.9946380">
        <ele>233.2</ele>
        <time>2019-01-01T13:04:33Z</time>
      </trkpt>
      <trkpt lat="41.7554730" lon="-0.9949220">
        <ele>234.2</ele>
        <time>2019-01-01T13:04:41Z</time>
      </trkpt>
      <trkpt lat="41.7554990" lon="-0.9949540">
        <ele>234.4</ele>
        <time>2019-01-01T13:04:43Z</time>
      </trkpt>
      <trkpt lat="41.7557060" lon="-0.9951750">
        <ele>234.6</ele>
        <time>2019-01-01T13:04:51Z</time>
      </trkpt>
      <trkpt lat="41.7558110" lon="-0.9952630">
        <ele>235.4</ele>
        <time>2019-01-01T13:04:55Z</time>
      </trkpt>
      <trkpt lat="41.7559730" lon="-0.9953840">
        <ele>235.8</ele>
        <time>2019-01-01T13:05:00Z</time>
      </trkpt>
      <trkpt lat="41.7561120" lon="-0.9954940">
        <ele>236.6</ele>
        <time>2019-01-01T13:05:07Z</time>
      </trkpt>
      <trkpt lat="41.7561570" lon="-0.9955340">
        <ele>236.8</ele>
        <time>2019-01-01T13:05:09Z</time>
      </trkpt>
      <trkpt lat="41.7563070" lon="-0.9956830">
        <ele>237.6</ele>
        <time>2019-01-01T13:05:15Z</time>
      </trkpt>
      <trkpt lat="41.7563560" lon="-0.9957390">
        <ele>237.6</ele>
        <time>2019-01-01T13:05:16Z</time>
      </trkpt>
      <trkpt lat="41.7565500" lon="-0.9960000">
        <ele>238.6</ele>
        <time>2019-01-01T13:05:24Z</time>
      </trkpt>
      <trkpt lat="41.7566740" lon="-0.9961760">
        <ele>238.6</ele>
        <time>2019-01-01T13:05:29Z</time>
      </trkpt>
      <trkpt lat="41.7567410" lon="-0.9962730">
        <ele>239.6</ele>
        <time>2019-01-01T13:05:33Z</time>
      </trkpt>
      <trkpt lat="41.7567910" lon="-0.9963380">
        <ele>239.8</ele>
        <time>2019-01-01T13:05:34Z</time>
      </trkpt>
      <trkpt lat="41.7569590" lon="-0.9965640">
        <ele>240.4</ele>
        <time>2019-01-01T13:05:41Z</time>
      </trkpt>
      <trkpt lat="41.7570320" lon="-0.9966660">
        <ele>241.0</ele>
        <time>2019-01-01T13:05:45Z</time>
      </trkpt>
      <trkpt lat="41.7571730" lon="-0.9968630">
        <ele>241.6</ele>
        <time>2019-01-01T13:05:50Z</time>
      </trkpt>
      <trkpt lat="41.7572230" lon="-0.9969280">
        <ele>242.2</ele>
        <time>2019-01-01T13:05:52Z</time>
      </trkpt>
      <trkpt lat="41.7573970" lon="-0.9971720">
        <ele>243.4</ele>
        <time>2019-01-01T13:05:59Z</time>
      </trkpt>
      <trkpt lat="41.7574200" lon="-0.9972030">
        <ele>243.6</ele>
        <time>2019-01-01T13:06:00Z</time>
      </trkpt>
      <trkpt lat="41.7575470" lon="-0.9973680">
        <ele>244.4</ele>
        <time>2019-01-01T13:06:05Z</time>
      </trkpt>
      <trkpt lat="41.7576850" lon="-0.9975160">
        <ele>245.2</ele>
        <time>2019-01-01T13:06:10Z</time>
      </trkpt>
      <trkpt lat="41.7577400" lon="-0.9975630">
        <ele>245.6</ele>
        <time>2019-01-01T13:06:12Z</time>
      </trkpt>
      <trkpt lat="41.7579000" lon="-0.9976560">
        <ele>246.0</ele>
        <time>2019-01-01T13:06:17Z</time>
      </trkpt>
      <trkpt lat="41.7580260" lon="-0.9977040">
        <ele>246.8</ele>
        <time>2019-01-01T13:06:22Z</time>
      </trkpt>
      <trkpt lat="41.7580760" lon="-0.9977200">
        <ele>247.2</ele>
        <time>2019-01-01T13:06:24Z</time>
      </trkpt>
      <trkpt lat="41.7581860" lon="-0.9977620">
        <ele>247.8</ele>
        <time>2019-01-01T13:06:28Z</time>
      </trkpt>
      <trkpt lat="41.7583110" lon="-0.9978350">
        <ele>248.8</ele>
        <time>2019-01-01T13:06:32Z</time>
      </trkpt>
      <trkpt lat="41.7583110" lon="-0.9978350">
        <ele>249.0</ele>
        <time>2019-01-01T13:06:33Z</time>
      </trkpt>
      <trkpt lat="41.7585810" lon="-0.9980340">
        <ele>250.2</ele>
        <time>2019-01-01T13:06:42Z</time>
      </trkpt>
      <trkpt lat="41.7585810" lon="-0.9980340">
        <ele>250.2</ele>
        <time>2019-01-01T13:06:43Z</time>
      </trkpt>
      <trkpt lat="41.7587090" lon="-0.9981480">
        <ele>251.2</ele>
        <time>2019-01-01T13:06:49Z</time>
      </trkpt>
      <trkpt lat="41.7588090" lon="-0.9982530">
        <ele>251.8</ele>
        <time>2019-01-01T13:06:53Z</time>
      </trkpt>
      <trkpt lat="41.7588680" lon="-0.9983190">
        <ele>252.2</ele>
        <time>2019-01-01T13:06:56Z</time>
      </trkpt>
      <trkpt lat="41.7589420" lon="-0.9984170">
        <ele>253.4</ele>
        <time>2019-01-01T13:07:01Z</time>
      </trkpt>
      <trkpt lat="41.7589810" lon="-0.9984660">
        <ele>253.4</ele>
        <time>2019-01-01T13:07:02Z</time>
      </trkpt>
      <trkpt lat="41.7590910" lon="-0.9986100">
        <ele>254.4</ele>
        <time>2019-01-01T13:07:09Z</time>
      </trkpt>
      <trkpt lat="41.7591320" lon="-0.9986510">
        <ele>254.6</ele>
        <time>2019-01-01T13:07:10Z</time>
      </trkpt>
      <trkpt lat="41.7591710" lon="-0.9986870">
        <ele>255.4</ele>
        <time>2019-01-01T13:07:13Z</time>
      </trkpt>
      <trkpt lat="41.7592820" lon="-0.9987750">
        <ele>256.4</ele>
        <time>2019-01-01T13:07:17Z</time>
      </trkpt>
      <trkpt lat="41.7593060" lon="-0.9987890">
        <ele>256.6</ele>
        <time>2019-01-01T13:07:19Z</time>
      </trkpt>
      <trkpt lat="41.7594570" lon="-0.9988610">
        <ele>258.0</ele>
        <time>2019-01-01T13:07:25Z</time>
      </trkpt>
      <trkpt lat="41.7595090" lon="-0.9988770">
        <ele>258.4</ele>
        <time>2019-01-01T13:07:27Z</time>
      </trkpt>
      <trkpt lat="41.7596160" lon="-0.9989310">
        <ele>259.0</ele>
        <time>2019-01-01T13:07:31Z</time>
      </trkpt>
      <trkpt lat="41.7596740" lon="-0.9989570">
        <ele>259.4</ele>
        <time>2019-01-01T13:07:33Z</time>
      </trkpt>
      <trkpt lat="41.7598350" lon="-0.9991270">
        <ele>259.2</ele>
        <time>2019-01-01T13:07:38Z</time>
      </trkpt>
      <trkpt lat="41.7600550" lon="-0.9994480">
        <ele>259.2</ele>
        <time>2019-01-01T13:07:48Z</time>
      </trkpt>
      <trkpt lat="41.7601730" lon="-0.9996930">
        <ele>260.0</ele>
        <time>2019-01-01T13:07:57Z</time>
      </trkpt>
      <trkpt lat="41.7601920" lon="-0.9997450">
        <ele>260.2</ele>
        <time>2019-01-01T13:07:58Z</time>
      </trkpt>
      <trkpt lat="41.7602430" lon="-0.9999490">
        <ele>261.2</ele>
        <time>2019-01-01T13:08:05Z</time>
      </trkpt>
      <trkpt lat="41.7602970" lon="-1.0002260">
        <ele>262.2</ele>
        <time>2019-01-01T13:08:13Z</time>
      </trkpt>
      <trkpt lat="41.7603070" lon="-1.0005700">
        <ele>263.0</ele>
        <time>2019-01-01T13:08:21Z</time>
      </trkpt>
      <trkpt lat="41.7602870" lon="-1.0007240">
        <ele>263.6</ele>
        <time>2019-01-01T13:08:24Z</time>
      </trkpt>
      <trkpt lat="41.7602810" lon="-1.0007910">
        <ele>264.0</ele>
        <time>2019-01-01T13:08:27Z</time>
      </trkpt>
      <trkpt lat="41.7602520" lon="-1.0011330">
        <ele>263.6</ele>
        <time>2019-01-01T13:08:35Z</time>
      </trkpt>
      <trkpt lat="41.7603000" lon="-1.0014450">
        <ele>263.6</ele>
        <time>2019-01-01T13:08:42Z</time>
      </trkpt>
      <trkpt lat="41.7603850" lon="-1.0016600">
        <ele>264.6</ele>
        <time>2019-01-01T13:08:49Z</time>
      </trkpt>
      <trkpt lat="41.7605070" lon="-1.0019730">
        <ele>264.8</ele>
        <time>2019-01-01T13:08:56Z</time>
      </trkpt>
      <trkpt lat="41.7605630" lon="-1.0021270">
        <ele>265.2</ele>
        <time>2019-01-01T13:09:01Z</time>
      </trkpt>
      <trkpt lat="41.7606990" lon="-1.0025320">
        <ele>265.6</ele>
        <time>2019-01-01T13:09:10Z</time>
      </trkpt>
      <trkpt lat="41.7607270" lon="-1.0026190">
        <ele>265.8</ele>
        <time>2019-01-01T13:09:13Z</time>
      </trkpt>
      <trkpt lat="41.7608890" lon="-1.0031510">
        <ele>266.6</ele>
        <time>2019-01-01T13:09:24Z</time>
      </trkpt>
      <trkpt lat="41.7610020" lon="-1.0036420">
        <ele>266.6</ele>
        <time>2019-01-01T13:09:35Z</time>
      </trkpt>
      <trkpt lat="41.7610270" lon="-1.0037720">
        <ele>267.0</ele>
        <time>2019-01-01T13:09:38Z</time>
      </trkpt>
      <trkpt lat="41.7610720" lon="-1.0040530">
        <ele>267.6</ele>
        <time>2019-01-01T13:09:44Z</time>
      </trkpt>
      <trkpt lat="41.7611790" lon="-1.0044330">
        <ele>267.8</ele>
        <time>2019-01-01T13:09:52Z</time>
      </trkpt>
      <trkpt lat="41.7612040" lon="-1.0045120">
        <ele>268.2</ele>
        <time>2019-01-01T13:09:54Z</time>
      </trkpt>
      <trkpt lat="41.7612790" lon="-1.0047580">
        <ele>268.4</ele>
        <time>2019-01-01T13:10:01Z</time>
      </trkpt>
      <trkpt lat="41.7613680" lon="-1.0051600">
        <ele>268.2</ele>
        <time>2019-01-01T13:10:09Z</time>
      </trkpt>
      <trkpt lat="41.7614760" lon="-1.0056270">
        <ele>267.4</ele>
        <time>2019-01-01T13:10:16Z</time>
      </trkpt>
      <trkpt lat="41.7615470" lon="-1.0059040">
        <ele>266.2</ele>
        <time>2019-01-01T13:10:21Z</time>
      </trkpt>
      <trkpt lat="41.7616010" lon="-1.0061230">
        <ele>265.8</ele>
        <time>2019-01-01T13:10:23Z</time>
      </trkpt>
      <trkpt lat="41.7616760" lon="-1.0063320">
        <ele>265.2</ele>
        <time>2019-01-01T13:10:26Z</time>
      </trkpt>
      <trkpt lat="41.7617780" lon="-1.0065390">
        <ele>264.0</ele>
        <time>2019-01-01T13:10:29Z</time>
      </trkpt>
      <trkpt lat="41.7619010" lon="-1.0067320">
        <ele>263.0</ele>
        <time>2019-01-01T13:10:33Z</time>
      </trkpt>
      <trkpt lat="41.7619640" lon="-1.0068710">
        <ele>262.6</ele>
        <time>2019-01-01T13:10:34Z</time>
      </trkpt>
      <trkpt lat="41.7619830" lon="-1.0069450">
        <ele>262.4</ele>
        <time>2019-01-01T13:10:35Z</time>
      </trkpt>
      <trkpt lat="41.7620480" lon="-1.0071370">
        <ele>262.2</ele>
        <time>2019-01-01T13:10:38Z</time>
      </trkpt>
      <trkpt lat="41.7620700" lon="-1.0071890">
        <ele>262.0</ele>
        <time>2019-01-01T13:10:39Z</time>
      </trkpt>
      <trkpt lat="41.7620920" lon="-1.0072410">
        <ele>261.8</ele>
        <time>2019-01-01T13:10:40Z</time>
      </trkpt>
      <trkpt lat="41.7621960" lon="-1.0075670">
        <ele>261.6</ele>
        <time>2019-01-01T13:10:47Z</time>
      </trkpt>
      <trkpt lat="41.7623180" lon="-1.0079620">
        <ele>262.2</ele>
        <time>2019-01-01T13:10:56Z</time>
      </trkpt>
      <trkpt lat="41.7624260" lon="-1.0083530">
        <ele>262.8</ele>
        <time>2019-01-01T13:11:05Z</time>
      </trkpt>
      <trkpt lat="41.7625030" lon="-1.0086660">
        <ele>263.0</ele>
        <time>2019-01-01T13:11:12Z</time>
      </trkpt>
      <trkpt lat="41.7625400" lon="-1.0088920">
        <ele>263.2</ele>
        <time>2019-01-01T13:11:17Z</time>
      </trkpt>
      <trkpt lat="41.7625370" lon="-1.0090360">
        <ele>263.4</ele>
        <time>2019-01-01T13:11:20Z</time>
      </trkpt>
      <trkpt lat="41.7624370" lon="-1.0092840">
        <ele>263.8</ele>
        <time>2019-01-01T13:11:26Z</time>
      </trkpt>
      <trkpt lat="41.7622300" lon="-1.0095570">
        <ele>264.0</ele>
        <time>2019-01-01T13:11:34Z</time>
      </trkpt>
      <trkpt lat="41.7621760" lon="-1.0096130">
        <ele>264.4</ele>
        <time>2019-01-01T13:11:37Z</time>
      </trkpt>
      <trkpt lat="41.7620350" lon="-1.0097980">
        <ele>265.0</ele>
        <time>2019-01-01T13:11:43Z</time>
      </trkpt>
      <trkpt lat="41.7618190" lon="-1.0100860">
        <ele>265.2</ele>
        <time>2019-01-01T13:11:50Z</time>
      </trkpt>
      <trkpt lat="41.7617090" lon="-1.0102310">
        <ele>265.4</ele>
        <time>2019-01-01T13:11:55Z</time>
      </trkpt>
      <trkpt lat="41.7615360" lon="-1.0104640">
        <ele>265.6</ele>
        <time>2019-01-01T13:12:00Z</time>
      </trkpt>
      <trkpt lat="41.7614760" lon="-1.0105440">
        <ele>265.6</ele>
        <time>2019-01-01T13:12:02Z</time>
      </trkpt>
      <trkpt lat="41.7612780" lon="-1.0107990">
        <ele>265.0</ele>
        <time>2019-01-01T13:12:08Z</time>
      </trkpt>
      <trkpt lat="41.7611450" lon="-1.0109750">
        <ele>264.2</ele>
        <time>2019-01-01T13:12:13Z</time>
      </trkpt>
      <trkpt lat="41.7609270" lon="-1.0112520">
        <ele>263.6</ele>
        <time>2019-01-01T13:12:19Z</time>
      </trkpt>
      <trkpt lat="41.7607610" lon="-1.0114770">
        <ele>263.2</ele>
        <time>2019-01-01T13:12:22Z</time>
      </trkpt>
      <trkpt lat="41.7606690" lon="-1.0115920">
        <ele>262.2</ele>
        <time>2019-01-01T13:12:25Z</time>
      </trkpt>
      <trkpt lat="41.7605750" lon="-1.0117070">
        <ele>261.8</ele>
        <time>2019-01-01T13:12:26Z</time>
      </trkpt>
      <trkpt lat="41.7604290" lon="-1.0118940">
        <ele>261.2</ele>
        <time>2019-01-01T13:12:29Z</time>
      </trkpt>
      <trkpt lat="41.7602870" lon="-1.0120950">
        <ele>260.6</ele>
        <time>2019-01-01T13:12:33Z</time>
      </trkpt>
      <trkpt lat="41.7600530" lon="-1.0124660">
        <ele>260.6</ele>
        <time>2019-01-01T13:12:39Z</time>
      </trkpt>
      <trkpt lat="41.7599170" lon="-1.0127020">
        <ele>260.8</ele>
        <time>2019-01-01T13:12:42Z</time>
      </trkpt>
      <trkpt lat="41.7598650" lon="-1.0128240">
        <ele>261.2</ele>
        <time>2019-01-01T13:12:44Z</time>
      </trkpt>
      <trkpt lat="41.7598650" lon="-1.0128240">
        <ele>261.6</ele>
        <time>2019-01-01T13:12:45Z</time>
      </trkpt>
      <trkpt lat="41.7598050" lon="-1.0129890">
        <ele>262.6</ele>
        <time>2019-01-01T13:12:47Z</time>
      </trkpt>
      <trkpt lat="41.7597710" lon="-1.0131410">
        <ele>263.4</ele>
        <time>2019-01-01T13:12:50Z</time>
      </trkpt>
      <trkpt lat="41.7597710" lon="-1.0131410">
        <ele>263.8</ele>
        <time>2019-01-01T13:12:51Z</time>
      </trkpt>
      <trkpt lat="41.7597240" lon="-1.0133260">
        <ele>265.0</ele>
        <time>2019-01-01T13:12:55Z</time>
      </trkpt>
      <trkpt lat="41.7596700" lon="-1.0134880">
        <ele>266.0</ele>
        <time>2019-01-01T13:12:58Z</time>
      </trkpt>
      <trkpt lat="41.7596530" lon="-1.0135280">
        <ele>266.2</ele>
        <time>2019-01-01T13:12:59Z</time>
      </trkpt>
      <trkpt lat="41.7595840" lon="-1.0136510">
        <ele>266.4</ele>
        <time>2019-01-01T13:13:02Z</time>
      </trkpt>
      <trkpt lat="41.7594970" lon="-1.0137720">
        <ele>266.4</ele>
        <time>2019-01-01T13:13:05Z</time>
      </trkpt>
      <trkpt lat="41.7593110" lon="-1.0140240">
        <ele>267.0</ele>
        <time>2019-01-01T13:13:12Z</time>
      </trkpt>
      <trkpt lat="41.7593110" lon="-1.0140240">
        <ele>267.2</ele>
        <time>2019-01-01T13:13:13Z</time>
      </trkpt>
      <trkpt lat="41.7592040" lon="-1.0141600">
        <ele>268.0</ele>
        <time>2019-01-01T13:13:17Z</time>
      </trkpt>
      <trkpt lat="41.7590940" lon="-1.0142990">
        <ele>268.6</ele>
        <time>2019-01-01T13:13:22Z</time>
      </trkpt>
      <trkpt lat="41.7588920" lon="-1.0145410">
        <ele>268.8</ele>
        <time>2019-01-01T13:13:29Z</time>
      </trkpt>
      <trkpt lat="41.7586570" lon="-1.0147900">
        <ele>268.2</ele>
        <time>2019-01-01T13:13:35Z</time>
      </trkpt>
      <trkpt lat="41.7585210" lon="-1.0149480">
        <ele>267.0</ele>
        <time>2019-01-01T13:13:39Z</time>
      </trkpt>
      <trkpt lat="41.7584220" lon="-1.0150480">
        <ele>266.8</ele>
        <time>2019-01-01T13:13:40Z</time>
      </trkpt>
      <trkpt lat="41.7583610" lon="-1.0150860">
        <ele>266.4</ele>
        <time>2019-01-01T13:13:41Z</time>
      </trkpt>
      <trkpt lat="41.7582920" lon="-1.0151160">
        <ele>266.0</ele>
        <time>2019-01-01T13:13:42Z</time>
      </trkpt>
      <trkpt lat="41.7581240" lon="-1.0151690">
        <ele>264.6</ele>
        <time>2019-01-01T13:13:45Z</time>
      </trkpt>
      <trkpt lat="41.7579850" lon="-1.0152420">
        <ele>264.0</ele>
        <time>2019-01-01T13:13:46Z</time>
      </trkpt>
      <trkpt lat="41.7578460" lon="-1.0153150">
        <ele>263.0</ele>
        <time>2019-01-01T13:13:47Z</time>
      </trkpt>
      <trkpt lat="41.7577640" lon="-1.0153910">
        <ele>261.8</ele>
        <time>2019-01-01T13:13:48Z</time>
      </trkpt>
      <trkpt lat="41.7576920" lon="-1.0154690">
        <ele>260.0</ele>
        <time>2019-01-01T13:13:49Z</time>
      </trkpt>
      <trkpt lat="41.7576190" lon="-1.0155470">
        <ele>258.6</ele>
        <time>2019-01-01T13:13:51Z</time>
      </trkpt>
      <trkpt lat="41.7574530" lon="-1.0157410">
        <ele>258.2</ele>
        <time>2019-01-01T13:13:53Z</time>
      </trkpt>
      <trkpt lat="41.7572920" lon="-1.0159670">
        <ele>258.8</ele>
        <time>2019-01-01T13:13:58Z</time>
      </trkpt>
      <trkpt lat="41.7572020" lon="-1.0160830">
        <ele>260.2</ele>
        <time>2019-01-01T13:14:04Z</time>
      </trkpt>
      <trkpt lat="41.7571570" lon="-1.0161530">
        <ele>261.2</ele>
        <time>2019-01-01T13:14:09Z</time>
      </trkpt>
      <trkpt lat="41.7570900" lon="-1.0162300">
        <ele>262.0</ele>
        <time>2019-01-01T13:14:14Z</time>
      </trkpt>
      <trkpt lat="41.7570380" lon="-1.0162860">
        <ele>262.4</ele>
        <time>2019-01-01T13:14:18Z</time>
      </trkpt>
      <trkpt lat="41.7570240" lon="-1.0163310">
        <ele>262.2</ele>
        <time>2019-01-01T13:14:20Z</time>
      </trkpt>
      <trkpt lat="41.7570240" lon="-1.0163310">
        <ele>262.2</ele>
        <time>2019-01-01T13:14:21Z</time>
      </trkpt>
      <trkpt lat="41.7570410" lon="-1.0164720">
        <ele>262.6</ele>
        <time>2019-01-01T13:14:27Z</time>
      </trkpt>
      <trkpt lat="41.7570420" lon="-1.0164780">
        <ele>262.4</ele>
        <time>2019-01-01T13:14:29Z</time>
      </trkpt>
      <trkpt lat="41.7570400" lon="-1.0163860">
        <ele>262.6</ele>
        <time>2019-01-01T13:19:30Z</time>
      </trkpt>
      <trkpt lat="41.7570400" lon="-1.0163860">
        <ele>262.6</ele>
        <time>2019-01-01T13:19:31Z</time>
      </trkpt>
      <trkpt lat="41.7570280" lon="-1.0163540">
        <ele>262.6</ele>
        <time>2019-01-01T13:19:32Z</time>
      </trkpt>
      <trkpt lat="41.7570300" lon="-1.0163100">
        <ele>262.4</ele>
        <time>2019-01-01T13:19:34Z</time>
      </trkpt>
      <trkpt lat="41.7570490" lon="-1.0162780">
        <ele>262.4</ele>
        <time>2019-01-01T13:19:36Z</time>
      </trkpt>
      <trkpt lat="41.7571430" lon="-1.0161920">
        <ele>262.4</ele>
        <time>2019-01-01T13:19:44Z</time>
      </trkpt>
      <trkpt lat="41.7572730" lon="-1.0160420">
        <ele>261.8</ele>
        <time>2019-01-01T13:19:50Z</time>
      </trkpt>
      <trkpt lat="41.7572910" lon="-1.0160150">
        <ele>261.6</ele>
        <time>2019-01-01T13:19:51Z</time>
      </trkpt>
      <trkpt lat="41.7573090" lon="-1.0159880">
        <ele>261.4</ele>
        <time>2019-01-01T13:19:52Z</time>
      </trkpt>
      <trkpt lat="41.7574150" lon="-1.0158270">
        <ele>260.4</ele>
        <time>2019-01-01T13:19:55Z</time>
      </trkpt>
      <trkpt lat="41.7574950" lon="-1.0157070">
        <ele>260.2</ele>
        <time>2019-01-01T13:19:56Z</time>
      </trkpt>
      <trkpt lat="41.7576850" lon="-1.0154820">
        <ele>259.4</ele>
        <time>2019-01-01T13:20:00Z</time>
      </trkpt>
      <trkpt lat="41.7577850" lon="-1.0153700">
        <ele>258.6</ele>
        <time>2019-01-01T13:20:02Z</time>
      </trkpt>
      <trkpt lat="41.7579440" lon="-1.0152140">
        <ele>257.8</ele>
        <time>2019-01-01T13:20:06Z</time>
      </trkpt>
      <trkpt lat="41.7580660" lon="-1.0151450">
        <ele>258.6</ele>
        <time>2019-01-01T13:20:11Z</time>
      </trkpt>
      <trkpt lat="41.7581560" lon="-1.0151170">
        <ele>260.0</ele>
        <time>2019-01-01T13:20:16Z</time>
      </trkpt>
      <trkpt lat="41.7581910" lon="-1.0151010">
        <ele>260.4</ele>
        <time>2019-01-01T13:20:18Z</time>
      </trkpt>
      <trkpt lat="41.7582200" lon="-1.0150980">
        <ele>261.2</ele>
        <time>2019-01-01T13:20:21Z</time>
      </trkpt>
      <trkpt lat="41.7582760" lon="-1.0150900">
        <ele>262.0</ele>
        <time>2019-01-01T13:20:24Z</time>
      </trkpt>
      <trkpt lat="41.7582900" lon="-1.0150830">
        <ele>262.4</ele>
        <time>2019-01-01T13:20:25Z</time>
      </trkpt>
      <trkpt lat="41.7583580" lon="-1.0150560">
        <ele>263.6</ele>
        <time>2019-01-01T13:20:30Z</time>
      </trkpt>
      <trkpt lat="41.7584150" lon="-1.0150230">
        <ele>264.4</ele>
        <time>2019-01-01T13:20:34Z</time>
      </trkpt>
      <trkpt lat="41.7584300" lon="-1.0150130">
        <ele>264.6</ele>
        <time>2019-01-01T13:20:35Z</time>
      </trkpt>
      <trkpt lat="41.7585250" lon="-1.0149230">
        <ele>265.4</ele>
        <time>2019-01-01T13:20:42Z</time>
      </trkpt>
      <trkpt lat="41.7585500" lon="-1.0148980">
        <ele>265.8</ele>
        <time>2019-01-01T13:20:44Z</time>
      </trkpt>
      <trkpt lat="41.7586280" lon="-1.0148080">
        <ele>266.4</ele>
        <time>2019-01-01T13:20:50Z</time>
      </trkpt>
      <trkpt lat="41.7586870" lon="-1.0147500">
        <ele>266.8</ele>
        <time>2019-01-01T13:20:55Z</time>
      </trkpt>
      <trkpt lat="41.7587310" lon="-1.0147090">
        <ele>267.2</ele>
        <time>2019-01-01T13:20:57Z</time>
      </trkpt>
      <trkpt lat="41.7588490" lon="-1.0145850">
        <ele>268.2</ele>
        <time>2019-01-01T13:21:05Z</time>
      </trkpt>
      <trkpt lat="41.7588640" lon="-1.0145700">
        <ele>268.4</ele>
        <time>2019-01-01T13:21:06Z</time>
      </trkpt>
      <trkpt lat="41.7589950" lon="-1.0144130">
        <ele>269.2</ele>
        <time>2019-01-01T13:21:14Z</time>
      </trkpt>
      <trkpt lat="41.7591560" lon="-1.0142110">
        <ele>269.8</ele>
        <time>2019-01-01T13:21:23Z</time>
      </trkpt>
      <trkpt lat="41.7593280" lon="-1.0139870">
        <ele>269.6</ele>
        <time>2019-01-01T13:21:30Z</time>
      </trkpt>
      <trkpt lat="41.7595600" lon="-1.0136680">
        <ele>268.0</ele>
        <time>2019-01-01T13:21:37Z</time>
      </trkpt>
      <trkpt lat="41.7595930" lon="-1.0136200">
        <ele>267.6</ele>
        <time>2019-01-01T13:21:39Z</time>
      </trkpt>
      <trkpt lat="41.7596830" lon="-1.0134430">
        <ele>267.4</ele>
        <time>2019-01-01T13:21:43Z</time>
      </trkpt>
      <trkpt lat="41.7597550" lon="-1.0131700">
        <ele>266.8</ele>
        <time>2019-01-01T13:21:47Z</time>
      </trkpt>
      <trkpt lat="41.7597720" lon="-1.0131020">
        <ele>266.6</ele>
        <time>2019-01-01T13:21:48Z</time>
      </trkpt>
      <trkpt lat="41.7598130" lon="-1.0129550">
        <ele>265.8</ele>
        <time>2019-01-01T13:21:51Z</time>
      </trkpt>
      <trkpt lat="41.7598670" lon="-1.0128010">
        <ele>265.6</ele>
        <time>2019-01-01T13:21:52Z</time>
      </trkpt>
      <trkpt lat="41.7599370" lon="-1.0126430">
        <ele>265.2</ele>
        <time>2019-01-01T13:21:54Z</time>
      </trkpt>
      <trkpt lat="41.7599790" lon="-1.0125640">
        <ele>264.6</ele>
        <time>2019-01-01T13:21:55Z</time>
      </trkpt>
      <trkpt lat="41.7600250" lon="-1.0124860">
        <ele>263.8</ele>
        <time>2019-01-01T13:21:57Z</time>
      </trkpt>
      <trkpt lat="41.7602190" lon="-1.0121800">
        <ele>263.0</ele>
        <time>2019-01-01T13:22:00Z</time>
      </trkpt>
      <trkpt lat="41.7603140" lon="-1.0120350">
        <ele>262.8</ele>
        <time>2019-01-01T13:22:02Z</time>
      </trkpt>
      <trkpt lat="41.7605010" lon="-1.0117830">
        <ele>261.6</ele>
        <time>2019-01-01T13:22:06Z</time>
      </trkpt>
      <trkpt lat="41.7605420" lon="-1.0117290">
        <ele>261.4</ele>
        <time>2019-01-01T13:22:07Z</time>
      </trkpt>
      <trkpt lat="41.7607130" lon="-1.0115150">
        <ele>261.8</ele>
        <time>2019-01-01T13:22:12Z</time>
      </trkpt>
      <trkpt lat="41.7608560" lon="-1.0113290">
        <ele>263.2</ele>
        <time>2019-01-01T13:22:17Z</time>
      </trkpt>
      <trkpt lat="41.7609060" lon="-1.0112640">
        <ele>264.6</ele>
        <time>2019-01-01T13:22:19Z</time>
      </trkpt>
      <trkpt lat="41.7609300" lon="-1.0112320">
        <ele>264.4</ele>
        <time>2019-01-01T13:22:20Z</time>
      </trkpt>
      <trkpt lat="41.7609940" lon="-1.0111400">
        <ele>263.4</ele>
        <time>2019-01-01T13:22:23Z</time>
      </trkpt>
      <trkpt lat="41.7610660" lon="-1.0110460">
        <ele>263.8</ele>
        <time>2019-01-01T13:22:27Z</time>
      </trkpt>
      <trkpt lat="41.7612660" lon="-1.0107820">
        <ele>264.6</ele>
        <time>2019-01-01T13:22:34Z</time>
      </trkpt>
      <trkpt lat="41.7612930" lon="-1.0107490">
        <ele>264.8</ele>
        <time>2019-01-01T13:22:35Z</time>
      </trkpt>
      <trkpt lat="41.7614730" lon="-1.0105120">
        <ele>265.8</ele>
        <time>2019-01-01T13:22:42Z</time>
      </trkpt>
      <trkpt lat="41.7615010" lon="-1.0104780">
        <ele>265.8</ele>
        <time>2019-01-01T13:22:43Z</time>
      </trkpt>
      <trkpt lat="41.7615290" lon="-1.0104430">
        <ele>266.0</ele>
        <time>2019-01-01T13:22:44Z</time>
      </trkpt>
      <trkpt lat="41.7617850" lon="-1.0101070">
        <ele>266.4</ele>
        <time>2019-01-01T13:22:53Z</time>
      </trkpt>
      <trkpt lat="41.7620460" lon="-1.0097560">
        <ele>266.4</ele>
        <time>2019-01-01T13:23:02Z</time>
      </trkpt>
      <trkpt lat="41.7623640" lon="-1.0093610">
        <ele>266.0</ele>
        <time>2019-01-01T13:23:12Z</time>
      </trkpt>
      <trkpt lat="41.7625120" lon="-1.0091040">
        <ele>265.6</ele>
        <time>2019-01-01T13:23:18Z</time>
      </trkpt>
      <trkpt lat="41.7625500" lon="-1.0088770">
        <ele>265.4</ele>
        <time>2019-01-01T13:23:22Z</time>
      </trkpt>
      <trkpt lat="41.7625260" lon="-1.0087080">
        <ele>265.0</ele>
        <time>2019-01-01T13:23:25Z</time>
      </trkpt>
      <trkpt lat="41.7625000" lon="-1.0085960">
        <ele>265.0</ele>
        <time>2019-01-01T13:23:27Z</time>
      </trkpt>
      <trkpt lat="41.7624450" lon="-1.0083890">
        <ele>264.6</ele>
        <time>2019-01-01T13:23:31Z</time>
      </trkpt>
      <trkpt lat="41.7624390" lon="-1.0083380">
        <ele>264.6</ele>
        <time>2019-01-01T13:23:33Z</time>
      </trkpt>
      <trkpt lat="41.7624680" lon="-1.0083540">
        <ele>264.4</ele>
        <time>2019-01-01T13:23:36Z</time>
      </trkpt>
      <trkpt lat="41.7624770" lon="-1.0084630">
        <ele>264.8</ele>
        <time>2019-01-01T13:23:40Z</time>
      </trkpt>
      <trkpt lat="41.7625000" lon="-1.0085630">
        <ele>264.6</ele>
        <time>2019-01-01T13:23:47Z</time>
      </trkpt>
      <trkpt lat="41.7625160" lon="-1.0086350">
        <ele>264.4</ele>
        <time>2019-01-01T13:23:53Z</time>
      </trkpt>
      <trkpt lat="41.7625160" lon="-1.0086370">
        <ele>264.4</ele>
        <time>2019-01-01T13:23:54Z</time>
      </trkpt>
      <trkpt lat="41.7625140" lon="-1.0086390">
        <ele>264.4</ele>
        <time>2019-01-01T13:23:55Z</time>
      </trkpt>
      <trkpt lat="41.7624940" lon="-1.0085480">
        <ele>264.4</ele>
        <time>2019-01-01T13:24:17Z</time>
      </trkpt>
      <trkpt lat="41.7624830" lon="-1.0085070">
        <ele>264.4</ele>
        <time>2019-01-01T13:24:19Z</time>
      </trkpt>
      <trkpt lat="41.7624460" lon="-1.0083550">
        <ele>264.6</ele>
        <time>2019-01-01T13:24:24Z</time>
      </trkpt>
      <trkpt lat="41.7623970" lon="-1.0081680">
        <ele>264.2</ele>
        <time>2019-01-01T13:24:29Z</time>
      </trkpt>
      <trkpt lat="41.7622790" lon="-1.0077670">
        <ele>264.0</ele>
        <time>2019-01-01T13:24:38Z</time>
      </trkpt>
      <trkpt lat="41.7622650" lon="-1.0077230">
        <ele>264.0</ele>
        <time>2019-01-01T13:24:39Z</time>
      </trkpt>
      <trkpt lat="41.7621030" lon="-1.0072610">
        <ele>263.2</ele>
        <time>2019-01-01T13:24:49Z</time>
      </trkpt>
      <trkpt lat="41.7620620" lon="-1.0071640">
        <ele>262.8</ele>
        <time>2019-01-01T13:24:51Z</time>
      </trkpt>
      <trkpt lat="41.7619980" lon="-1.0070160">
        <ele>262.6</ele>
        <time>2019-01-01T13:24:54Z</time>
      </trkpt>
      <trkpt lat="41.7619740" lon="-1.0069090">
        <ele>262.8</ele>
        <time>2019-01-01T13:24:56Z</time>
      </trkpt>
      <trkpt lat="41.7619590" lon="-1.0068540">
        <ele>262.8</ele>
        <time>2019-01-01T13:24:57Z</time>
      </trkpt>
      <trkpt lat="41.7618590" lon="-1.0066620">
        <ele>263.0</ele>
        <time>2019-01-01T13:25:01Z</time>
      </trkpt>
      <trkpt lat="41.7616850" lon="-1.0063950">
        <ele>263.4</ele>
        <time>2019-01-01T13:25:08Z</time>
      </trkpt>
      <trkpt lat="41.7616320" lon="-1.0062790">
        <ele>264.0</ele>
        <time>2019-01-01T13:25:11Z</time>
      </trkpt>
      <trkpt lat="41.7615770" lon="-1.0061210">
        <ele>264.8</ele>
        <time>2019-01-01T13:25:15Z</time>
      </trkpt>
      <trkpt lat="41.7615670" lon="-1.0060810">
        <ele>265.2</ele>
        <time>2019-01-01T13:25:16Z</time>
      </trkpt>
      <trkpt lat="41.7615120" lon="-1.0058310">
        <ele>266.2</ele>
        <time>2019-01-01T13:25:22Z</time>
      </trkpt>
      <trkpt lat="41.7614510" lon="-1.0055430">
        <ele>267.0</ele>
        <time>2019-01-01T13:25:29Z</time>
      </trkpt>
      <trkpt lat="41.7614240" lon="-1.0054270">
        <ele>267.4</ele>
        <time>2019-01-01T13:25:32Z</time>
      </trkpt>
      <trkpt lat="41.7613670" lon="-1.0051910">
        <ele>268.6</ele>
        <time>2019-01-01T13:25:38Z</time>
      </trkpt>
      <trkpt lat="41.7613580" lon="-1.0051510">
        <ele>268.8</ele>
        <time>2019-01-01T13:25:39Z</time>
      </trkpt>
      <trkpt lat="41.7613030" lon="-1.0048740">
        <ele>269.4</ele>
        <time>2019-01-01T13:25:46Z</time>
      </trkpt>
      <trkpt lat="41.7612860" lon="-1.0048020">
        <ele>269.6</ele>
        <time>2019-01-01T13:25:48Z</time>
      </trkpt>
      <trkpt lat="41.7612070" lon="-1.0045230">
        <ele>270.2</ele>
        <time>2019-01-01T13:25:55Z</time>
      </trkpt>
      <trkpt lat="41.7610940" lon="-1.0041550">
        <ele>269.8</ele>
        <time>2019-01-01T13:26:02Z</time>
      </trkpt>
      <trkpt lat="41.7610240" lon="-1.0038090">
        <ele>269.4</ele>
        <time>2019-01-01T13:26:08Z</time>
      </trkpt>
      <trkpt lat="41.7609440" lon="-1.0033790">
        <ele>269.2</ele>
        <time>2019-01-01T13:26:16Z</time>
      </trkpt>
      <trkpt lat="41.7608500" lon="-1.0030170">
        <ele>268.8</ele>
        <time>2019-01-01T13:26:22Z</time>
      </trkpt>
      <trkpt lat="41.7608150" lon="-1.0029050">
        <ele>268.6</ele>
        <time>2019-01-01T13:26:24Z</time>
      </trkpt>
      <trkpt lat="41.7606430" lon="-1.0023530">
        <ele>268.2</ele>
        <time>2019-01-01T13:26:34Z</time>
      </trkpt>
      <trkpt lat="41.7605300" lon="-1.0020220">
        <ele>267.6</ele>
        <time>2019-01-01T13:26:40Z</time>
      </trkpt>
      <trkpt lat="41.7604390" lon="-1.0017840">
        <ele>267.2</ele>
        <time>2019-01-01T13:26:44Z</time>
      </trkpt>
      <trkpt lat="41.7603440" lon="-1.0015480">
        <ele>266.6</ele>
        <time>2019-01-01T13:26:48Z</time>
      </trkpt>
      <trkpt lat="41.7602860" lon="-1.0013880">
        <ele>266.4</ele>
        <time>2019-01-01T13:26:51Z</time>
      </trkpt>
      <trkpt lat="41.7602500" lon="-1.0011900">
        <ele>266.4</ele>
        <time>2019-01-01T13:26:54Z</time>
      </trkpt>
      <trkpt lat="41.7602440" lon="-1.0011160">
        <ele>266.2</ele>
        <time>2019-01-01T13:26:55Z</time>
      </trkpt>
      <trkpt lat="41.7602580" lon="-1.0008610">
        <ele>265.8</ele>
        <time>2019-01-01T13:26:59Z</time>
      </trkpt>
      <trkpt lat="41.7602670" lon="-1.0008070">
        <ele>265.8</ele>
        <time>2019-01-01T13:27:00Z</time>
      </trkpt>
      <trkpt lat="41.7603000" lon="-1.0005130">
        <ele>265.8</ele>
        <time>2019-01-01T13:27:05Z</time>
      </trkpt>
      <trkpt lat="41.7603020" lon="-1.0004430">
        <ele>265.6</ele>
        <time>2019-01-01T13:27:06Z</time>
      </trkpt>
      <trkpt lat="41.7603010" lon="-1.0002980">
        <ele>265.4</ele>
        <time>2019-01-01T13:27:08Z</time>
      </trkpt>
      <trkpt lat="41.7602650" lon="-1.0000830">
        <ele>264.8</ele>
        <time>2019-01-01T13:27:11Z</time>
      </trkpt>
      <trkpt lat="41.7602330" lon="-0.9999400">
        <ele>264.6</ele>
        <time>2019-01-01T13:27:13Z</time>
      </trkpt>
      <trkpt lat="41.7601750" lon="-0.9997170">
        <ele>264.2</ele>
        <time>2019-01-01T13:27:16Z</time>
      </trkpt>
      <trkpt lat="41.7601100" lon="-0.9995700">
        <ele>263.6</ele>
        <time>2019-01-01T13:27:18Z</time>
      </trkpt>
      <trkpt lat="41.7600700" lon="-0.9994970">
        <ele>263.4</ele>
        <time>2019-01-01T13:27:19Z</time>
      </trkpt>
      <trkpt lat="41.7598820" lon="-0.9992230">
        <ele>262.6</ele>
        <time>2019-01-01T13:27:23Z</time>
      </trkpt>
      <trkpt lat="41.7596950" lon="-0.9989820">
        <ele>261.6</ele>
        <time>2019-01-01T13:27:27Z</time>
      </trkpt>
      <trkpt lat="41.7596450" lon="-0.9989420">
        <ele>261.4</ele>
        <time>2019-01-01T13:27:28Z</time>
      </trkpt>
      <trkpt lat="41.7595960" lon="-0.9989140">
        <ele>261.4</ele>
        <time>2019-01-01T13:27:29Z</time>
      </trkpt>
      <trkpt lat="41.7594960" lon="-0.9988720">
        <ele>261.4</ele>
        <time>2019-01-01T13:27:31Z</time>
      </trkpt>
      <trkpt lat="41.7592670" lon="-0.9987800">
        <ele>261.0</ele>
        <time>2019-01-01T13:27:35Z</time>
      </trkpt>
      <trkpt lat="41.7592040" lon="-0.9987450">
        <ele>260.8</ele>
        <time>2019-01-01T13:27:36Z</time>
      </trkpt>
      <trkpt lat="41.7590830" lon="-0.9986410">
        <ele>260.2</ele>
        <time>2019-01-01T13:27:38Z</time>
      </trkpt>
      <trkpt lat="41.7590240" lon="-0.9985740">
        <ele>260.0</ele>
        <time>2019-01-01T13:27:39Z</time>
      </trkpt>
      <trkpt lat="41.7589070" lon="-0.9984250">
        <ele>259.0</ele>
        <time>2019-01-01T13:27:41Z</time>
      </trkpt>
      <trkpt lat="41.7587860" lon="-0.9982690">
        <ele>257.8</ele>
        <time>2019-01-01T13:27:43Z</time>
      </trkpt>
      <trkpt lat="41.7587200" lon="-0.9981950">
        <ele>257.0</ele>
        <time>2019-01-01T13:27:44Z</time>
      </trkpt>
      <trkpt lat="41.7586500" lon="-0.9981240">
        <ele>256.6</ele>
        <time>2019-01-01T13:27:45Z</time>
      </trkpt>
      <trkpt lat="41.7584280" lon="-0.9979280">
        <ele>255.4</ele>
        <time>2019-01-01T13:27:48Z</time>
      </trkpt>
      <trkpt lat="41.7582700" lon="-0.9978190">
        <ele>254.2</ele>
        <time>2019-01-01T13:27:50Z</time>
      </trkpt>
      <trkpt lat="41.7579420" lon="-0.9976600">
        <ele>252.8</ele>
        <time>2019-01-01T13:27:54Z</time>
      </trkpt>
      <trkpt lat="41.7578580" lon="-0.9976280">
        <ele>252.4</ele>
        <time>2019-01-01T13:27:55Z</time>
      </trkpt>
      <trkpt lat="41.7577730" lon="-0.9975860">
        <ele>252.0</ele>
        <time>2019-01-01T13:27:56Z</time>
      </trkpt>
      <trkpt lat="41.7576920" lon="-0.9975320">
        <ele>251.6</ele>
        <time>2019-01-01T13:27:57Z</time>
      </trkpt>
      <trkpt lat="41.7575460" lon="-0.9973950">
        <ele>250.6</ele>
        <time>2019-01-01T13:27:59Z</time>
      </trkpt>
      <trkpt lat="41.7574790" lon="-0.9973140">
        <ele>250.0</ele>
        <time>2019-01-01T13:28:00Z</time>
      </trkpt>
      <trkpt lat="41.7574150" lon="-0.9972330">
        <ele>249.6</ele>
        <time>2019-01-01T13:28:01Z</time>
      </trkpt>
      <trkpt lat="41.7572330" lon="-0.9969920">
        <ele>248.2</ele>
        <time>2019-01-01T13:28:04Z</time>
      </trkpt>
      <trkpt lat="41.7571760" lon="-0.9969070">
        <ele>247.6</ele>
        <time>2019-01-01T13:28:05Z</time>
      </trkpt>
      <trkpt lat="41.7570620" lon="-0.9967500">
        <ele>247.0</ele>
        <time>2019-01-01T13:28:07Z</time>
      </trkpt>
      <trkpt lat="41.7568880" lon="-0.9965150">
        <ele>245.8</ele>
        <time>2019-01-01T13:28:10Z</time>
      </trkpt>
      <trkpt lat="41.7567720" lon="-0.9963600">
        <ele>244.8</ele>
        <time>2019-01-01T13:28:12Z</time>
      </trkpt>
      <trkpt lat="41.7565380" lon="-0.9960430">
        <ele>243.4</ele>
        <time>2019-01-01T13:28:16Z</time>
      </trkpt>
      <trkpt lat="41.7563690" lon="-0.9958100">
        <ele>242.0</ele>
        <time>2019-01-01T13:28:19Z</time>
      </trkpt>
      <trkpt lat="41.7563130" lon="-0.9957380">
        <ele>242.0</ele>
        <time>2019-01-01T13:28:20Z</time>
      </trkpt>
      <trkpt lat="41.7559440" lon="-0.9953850">
        <ele>241.2</ele>
        <time>2019-01-01T13:28:26Z</time>
      </trkpt>
      <trkpt lat="41.7556720" lon="-0.9951730">
        <ele>239.8</ele>
        <time>2019-01-01T13:28:30Z</time>
      </trkpt>
      <trkpt lat="41.7554790" lon="-0.9949910">
        <ele>238.6</ele>
        <time>2019-01-01T13:28:33Z</time>
      </trkpt>
      <trkpt lat="41.7551690" lon="-0.9945690">
        <ele>237.4</ele>
        <time>2019-01-01T13:28:39Z</time>
      </trkpt>
      <trkpt lat="41.7549720" lon="-0.9942640">
        <ele>236.4</ele>
        <time>2019-01-01T13:28:43Z</time>
      </trkpt>
      <trkpt lat="41.7548820" lon="-0.9940950">
        <ele>235.6</ele>
        <time>2019-01-01T13:28:45Z</time>
      </trkpt>
      <trkpt lat="41.7548030" lon="-0.9939240">
        <ele>235.4</ele>
        <time>2019-01-01T13:28:47Z</time>
      </trkpt>
      <trkpt lat="41.7546970" lon="-0.9936540">
        <ele>234.6</ele>
        <time>2019-01-01T13:28:50Z</time>
      </trkpt>
      <trkpt lat="41.7546280" lon="-0.9934600">
        <ele>234.2</ele>
        <time>2019-01-01T13:28:52Z</time>
      </trkpt>
      <trkpt lat="41.7545600" lon="-0.9932600">
        <ele>232.8</ele>
        <time>2019-01-01T13:28:54Z</time>
      </trkpt>
      <trkpt lat="41.7544900" lon="-0.9930610">
        <ele>232.0</ele>
        <time>2019-01-01T13:28:56Z</time>
      </trkpt>
      <trkpt lat="41.7544590" lon="-0.9929640">
        <ele>231.6</ele>
        <time>2019-01-01T13:28:57Z</time>
      </trkpt>
      <trkpt lat="41.7542940" lon="-0.9925160">
        <ele>230.8</ele>
        <time>2019-01-01T13:29:02Z</time>
      </trkpt>
      <trkpt lat="41.7542690" lon="-0.9924700">
        <ele>230.6</ele>
        <time>2019-01-01T13:29:03Z</time>
      </trkpt>
      <trkpt lat="41.7542430" lon="-0.9924250">
        <ele>230.4</ele>
        <time>2019-01-01T13:29:04Z</time>
      </trkpt>
      <trkpt lat="41.7540890" lon="-0.9921530">
        <ele>230.0</ele>
        <time>2019-01-01T13:29:07Z</time>
      </trkpt>
      <trkpt lat="41.7540540" lon="-0.9920860">
        <ele>230.0</ele>
        <time>2019-01-01T13:29:08Z</time>
      </trkpt>
      <trkpt lat="41.7540210" lon="-0.9919510">
        <ele>230.2</ele>
        <time>2019-01-01T13:29:10Z</time>
      </trkpt>
      <trkpt lat="41.7540020" lon="-0.9918270">
        <ele>230.4</ele>
        <time>2019-01-01T13:29:12Z</time>
      </trkpt>
      <trkpt lat="41.7539800" lon="-0.9917020">
        <ele>230.2</ele>
        <time>2019-01-01T13:29:14Z</time>
      </trkpt>
      <trkpt lat="41.7539510" lon="-0.9915790">
        <ele>229.8</ele>
        <time>2019-01-01T13:29:16Z</time>
      </trkpt>
      <trkpt lat="41.7539370" lon="-0.9915290">
        <ele>229.6</ele>
        <time>2019-01-01T13:29:17Z</time>
      </trkpt>
      <trkpt lat="41.7538980" lon="-0.9913750">
        <ele>228.4</ele>
        <time>2019-01-01T13:29:20Z</time>
      </trkpt>
      <trkpt lat="41.7538630" lon="-0.9912190">
        <ele>227.6</ele>
        <time>2019-01-01T13:29:23Z</time>
      </trkpt>
      <trkpt lat="41.7538470" lon="-0.9911180">
        <ele>227.4</ele>
        <time>2019-01-01T13:29:25Z</time>
      </trkpt>
      <trkpt lat="41.7538350" lon="-0.9909970">
        <ele>226.6</ele>
        <time>2019-01-01T13:29:28Z</time>
      </trkpt>
      <trkpt lat="41.7538160" lon="-0.9909050">
        <ele>225.8</ele>
        <time>2019-01-01T13:29:30Z</time>
      </trkpt>
      <trkpt lat="41.7538000" lon="-0.9908560">
        <ele>225.6</ele>
        <time>2019-01-01T13:29:31Z</time>
      </trkpt>
      <trkpt lat="41.7537620" lon="-0.9907710">
        <ele>225.0</ele>
        <time>2019-01-01T13:29:33Z</time>
      </trkpt>
      <trkpt lat="41.7537410" lon="-0.9907320">
        <ele>224.8</ele>
        <time>2019-01-01T13:29:34Z</time>
      </trkpt>
      <trkpt lat="41.7535840" lon="-0.9904680">
        <ele>223.8</ele>
        <time>2019-01-01T13:29:40Z</time>
      </trkpt>
      <trkpt lat="41.7535530" lon="-0.9904200">
        <ele>223.8</ele>
        <time>2019-01-01T13:29:41Z</time>
      </trkpt>
      <trkpt lat="41.7533960" lon="-0.9901440">
        <ele>222.8</ele>
        <time>2019-01-01T13:29:46Z</time>
      </trkpt>
      <trkpt lat="41.7533690" lon="-0.9900850">
        <ele>222.4</ele>
        <time>2019-01-01T13:29:47Z</time>
      </trkpt>
      <trkpt lat="41.7533380" lon="-0.9898940">
        <ele>221.6</ele>
        <time>2019-01-01T13:29:50Z</time>
      </trkpt>
      <trkpt lat="41.7533390" lon="-0.9897370">
        <ele>220.4</ele>
        <time>2019-01-01T13:29:52Z</time>
      </trkpt>
      <trkpt lat="41.7533520" lon="-0.9896500">
        <ele>219.6</ele>
        <time>2019-01-01T13:29:53Z</time>
      </trkpt>
      <trkpt lat="41.7533750" lon="-0.9895650">
        <ele>219.4</ele>
        <time>2019-01-01T13:29:54Z</time>
      </trkpt>
      <trkpt lat="41.7534420" lon="-0.9894120">
        <ele>218.2</ele>
        <time>2019-01-01T13:29:56Z</time>
      </trkpt>
      <trkpt lat="41.7534860" lon="-0.9893480">
        <ele>217.6</ele>
        <time>2019-01-01T13:29:58Z</time>
      </trkpt>
      <trkpt lat="41.7543100" lon="-0.9886090">
        <ele>327.6</ele>
        <time>2019-01-01T13:31:26Z</time>
      </trkpt>
      <trkpt lat="41.7543650" lon="-0.9885890">
        <ele>327.5</ele>
        <time>2019-01-01T13:31:39Z</time>
      </trkpt>
      <trkpt lat="41.7543910" lon="-0.9885460">
        <ele>327.3</ele>
        <time>2019-01-01T13:31:42Z</time>
      </trkpt>
      <trkpt lat="41.7544200" lon="-0.9885060">
        <ele>327.2</ele>
        <time>2019-01-01T13:31:43Z</time>
      </trkpt>
      <trkpt lat="41.7544600" lon="-0.9884570">
        <ele>327.0</ele>
        <time>2019-01-01T13:31:44Z</time>
      </trkpt>
      <trkpt lat="41.7544930" lon="-0.9884200">
        <ele>326.8</ele>
        <time>2019-01-01T13:31:45Z</time>
      </trkpt>
      <trkpt lat="41.7545430" lon="-0.9883550">
        <ele>326.6</ele>
        <time>2019-01-01T13:31:46Z</time>
      </trkpt>
      <trkpt lat="41.7545770" lon="-0.9883000">
        <ele>326.4</ele>
        <time>2019-01-01T13:31:47Z</time>
      </trkpt>
      <trkpt lat="41.7545990" lon="-0.9882530">
        <ele>326.2</ele>
        <time>2019-01-01T13:31:48Z</time>
      </trkpt>
      <trkpt lat="41.7546210" lon="-0.9881980">
        <ele>326.1</ele>
        <time>2019-01-01T13:31:49Z</time>
      </trkpt>
      <trkpt lat="41.7546580" lon="-0.9881350">
        <ele>325.9</ele>
        <time>2019-01-01T13:31:50Z</time>
      </trkpt>
      <trkpt lat="41.7546840" lon="-0.9880660">
        <ele>325.8</ele>
        <time>2019-01-01T13:31:51Z</time>
      </trkpt>
      <trkpt lat="41.7547100" lon="-0.9879940">
        <ele>325.7</ele>
        <time>2019-01-01T13:31:52Z</time>
      </trkpt>
      <trkpt lat="41.7547380" lon="-0.9879220">
        <ele>325.5</ele>
        <time>2019-01-01T13:31:53Z</time>
      </trkpt>
      <trkpt lat="41.7547640" lon="-0.9878500">
        <ele>325.4</ele>
        <time>2019-01-01T13:31:54Z</time>
      </trkpt>
      <trkpt lat="41.7547850" lon="-0.9877800">
        <ele>325.3</ele>
        <time>2019-01-01T13:31:55Z</time>
      </trkpt>
      <trkpt lat="41.7548040" lon="-0.9877080">
        <ele>325.1</ele>
        <time>2019-01-01T13:31:56Z</time>
      </trkpt>
      <trkpt lat="41.7548310" lon="-0.9876390">
        <ele>324.9</ele>
        <time>2019-01-01T13:31:57Z</time>
      </trkpt>
      <trkpt lat="41.7548650" lon="-0.9875700">
        <ele>324.8</ele>
        <time>2019-01-01T13:31:58Z</time>
      </trkpt>
      <trkpt lat="41.7549080" lon="-0.9875090">
        <ele>324.6</ele>
        <time>2019-01-01T13:31:59Z</time>
      </trkpt>
      <trkpt lat="41.7549520" lon="-0.9874520">
        <ele>324.5</ele>
        <time>2019-01-01T13:32:00Z</time>
      </trkpt>
      <trkpt lat="41.7549860" lon="-0.9873940">
        <ele>324.4</ele>
        <time>2019-01-01T13:32:01Z</time>
      </trkpt>
      <trkpt lat="41.7550450" lon="-0.9873190">
        <ele>324.2</ele>
        <time>2019-01-01T13:32:02Z</time>
      </trkpt>
      <trkpt lat="41.7550760" lon="-0.9872610">
        <ele>324.0</ele>
        <time>2019-01-01T13:32:03Z</time>
      </trkpt>
      <trkpt lat="41.7551310" lon="-0.9871820">
        <ele>323.8</ele>
        <time>2019-01-01T13:32:04Z</time>
      </trkpt>
      <trkpt lat="41.7551630" lon="-0.9870990">
        <ele>323.6</ele>
        <time>2019-01-01T13:32:05Z</time>
      </trkpt>
      <trkpt lat="41.7551910" lon="-0.9870040">
        <ele>323.4</ele>
        <time>2019-01-01T13:32:06Z</time>
      </trkpt>
      <trkpt lat="41.7552020" lon="-0.9869290">
        <ele>323.2</ele>
        <time>2019-01-01T13:32:07Z</time>
      </trkpt>
      <trkpt lat="41.7552170" lon="-0.9868380">
        <ele>323.1</ele>
        <time>2019-01-01T13:32:08Z</time>
      </trkpt>
      <trkpt lat="41.7552190" lon="-0.9867510">
        <ele>323.0</ele>
        <time>2019-01-01T13:32:09Z</time>
      </trkpt>
      <trkpt lat="41.7552230" lon="-0.9866680">
        <ele>322.9</ele>
        <time>2019-01-01T13:32:10Z</time>
      </trkpt>
      <trkpt lat="41.7552210" lon="-0.9865860">
        <ele>322.8</ele>
        <time>2019-01-01T13:32:11Z</time>
      </trkpt>
      <trkpt lat="41.7552270" lon="-0.9865000">
        <ele>322.7</ele>
        <time>2019-01-01T13:32:12Z</time>
      </trkpt>
      <trkpt lat="41.7552160" lon="-0.9864090">
        <ele>322.6</ele>
        <time>2019-01-01T13:32:13Z</time>
      </trkpt>
      <trkpt lat="41.7552160" lon="-0.9863080">
        <ele>322.5</ele>
        <time>2019-01-01T13:32:14Z</time>
      </trkpt>
      <trkpt lat="41.7552270" lon="-0.9862170">
        <ele>322.3</ele>
        <time>2019-01-01T13:32:15Z</time>
      </trkpt>
      <trkpt lat="41.7552360" lon="-0.9861240">
        <ele>322.1</ele>
        <time>2019-01-01T13:32:16Z</time>
      </trkpt>
      <trkpt lat="41.7552570" lon="-0.9860170">
        <ele>321.8</ele>
        <time>2019-01-01T13:32:17Z</time>
      </trkpt>
      <trkpt lat="41.7552860" lon="-0.9859340">
        <ele>321.5</ele>
        <time>2019-01-01T13:32:18Z</time>
      </trkpt>
      <trkpt lat="41.7553030" lon="-0.9858530">
        <ele>321.3</ele>
        <time>2019-01-01T13:32:19Z</time>
      </trkpt>
      <trkpt lat="41.7553210" lon="-0.9857580">
        <ele>321.1</ele>
        <time>2019-01-01T13:32:20Z</time>
      </trkpt>
      <trkpt lat="41.7553220" lon="-0.9856700">
        <ele>321.0</ele>
        <time>2019-01-01T13:32:21Z</time>
      </trkpt>
      <trkpt lat="41.7553400" lon="-0.9855760">
        <ele>320.8</ele>
        <time>2019-01-01T13:32:22Z</time>
      </trkpt>
      <trkpt lat="41.7553450" lon="-0.9854890">
        <ele>320.6</ele>
        <time>2019-01-01T13:32:23Z</time>
      </trkpt>
      <trkpt lat="41.7553460" lon="-0.9854070">
        <ele>320.4</ele>
        <time>2019-01-01T13:32:24Z</time>
      </trkpt>
      <trkpt lat="41.7553660" lon="-0.9852970">
        <ele>320.1</ele>
        <time>2019-01-01T13:32:25Z</time>
      </trkpt>
      <trkpt lat="41.7553700" lon="-0.9852040">
        <ele>319.9</ele>
        <time>2019-01-01T13:32:26Z</time>
      </trkpt>
      <trkpt lat="41.7553770" lon="-0.9851220">
        <ele>319.7</ele>
        <time>2019-01-01T13:32:27Z</time>
      </trkpt>
      <trkpt lat="41.7553840" lon="-0.9850200">
        <ele>319.5</ele>
        <time>2019-01-01T13:32:28Z</time>
      </trkpt>
      <trkpt lat="41.7553990" lon="-0.9849200">
        <ele>319.3</ele>
        <time>2019-01-01T13:32:29Z</time>
      </trkpt>
      <trkpt lat="41.7554090" lon="-0.9848290">
        <ele>319.1</ele>
        <time>2019-01-01T13:32:30Z</time>
      </trkpt>
      <trkpt lat="41.7554110" lon="-0.9847360">
        <ele>318.9</ele>
        <time>2019-01-01T13:32:31Z</time>
      </trkpt>
      <trkpt lat="41.7554130" lon="-0.9846470">
        <ele>318.7</ele>
        <time>2019-01-01T13:32:32Z</time>
      </trkpt>
      <trkpt lat="41.7554080" lon="-0.9845450">
        <ele>318.5</ele>
        <time>2019-01-01T13:32:33Z</time>
      </trkpt>
      <trkpt lat="41.7554110" lon="-0.9844460">
        <ele>318.3</ele>
        <time>2019-01-01T13:32:34Z</time>
      </trkpt>
      <trkpt lat="41.7553910" lon="-0.9843500">
        <ele>318.2</ele>
        <time>2019-01-01T13:32:35Z</time>
      </trkpt>
      <trkpt lat="41.7553840" lon="-0.9842500">
        <ele>318.1</ele>
        <time>2019-01-01T13:32:36Z</time>
      </trkpt>
      <trkpt lat="41.7553600" lon="-0.9841700">
        <ele>318.1</ele>
        <time>2019-01-01T13:32:37Z</time>
      </trkpt>
      <trkpt lat="41.7553460" lon="-0.9840780">
        <ele>318.0</ele>
        <time>2019-01-01T13:32:38Z</time>
      </trkpt>
      <trkpt lat="41.7553310" lon="-0.9839870">
        <ele>317.9</ele>
        <time>2019-01-01T13:32:39Z</time>
      </trkpt>
      <trkpt lat="41.7553150" lon="-0.9838850">
        <ele>317.8</ele>
        <time>2019-01-01T13:32:40Z</time>
      </trkpt>
      <trkpt lat="41.7553010" lon="-0.9837930">
        <ele>317.7</ele>
        <time>2019-01-01T13:32:41Z</time>
      </trkpt>
      <trkpt lat="41.7552900" lon="-0.9836940">
        <ele>317.5</ele>
        <time>2019-01-01T13:32:42Z</time>
      </trkpt>
      <trkpt lat="41.7552740" lon="-0.9836120">
        <ele>317.4</ele>
        <time>2019-01-01T13:32:43Z</time>
      </trkpt>
      <trkpt lat="41.7552600" lon="-0.9835130">
        <ele>317.3</ele>
        <time>2019-01-01T13:32:44Z</time>
      </trkpt>
      <trkpt lat="41.7552500" lon="-0.9834140">
        <ele>317.1</ele>
        <time>2019-01-01T13:32:45Z</time>
      </trkpt>
      <trkpt lat="41.7552400" lon="-0.9833290">
        <ele>316.9</ele>
        <time>2019-01-01T13:32:46Z</time>
      </trkpt>
      <trkpt lat="41.7552220" lon="-0.9832480">
        <ele>316.7</ele>
        <time>2019-01-01T13:32:47Z</time>
      </trkpt>
      <trkpt lat="41.7551920" lon="-0.9831540">
        <ele>316.4</ele>
        <time>2019-01-01T13:32:48Z</time>
      </trkpt>
      <trkpt lat="41.7551620" lon="-0.9830700">
        <ele>316.1</ele>
        <time>2019-01-01T13:32:49Z</time>
      </trkpt>
      <trkpt lat="41.7551360" lon="-0.9829720">
        <ele>315.7</ele>
        <time>2019-01-01T13:32:50Z</time>
      </trkpt>
      <trkpt lat="41.7550900" lon="-0.9829180">
        <ele>315.4</ele>
        <time>2019-01-01T13:32:51Z</time>
      </trkpt>
      <trkpt lat="41.7550510" lon="-0.9828480">
        <ele>315.2</ele>
        <time>2019-01-01T13:32:52Z</time>
      </trkpt>
      <trkpt lat="41.7550000" lon="-0.9827910">
        <ele>314.9</ele>
        <time>2019-01-01T13:32:53Z</time>
      </trkpt>
      <trkpt lat="41.7549490" lon="-0.9827040">
        <ele>314.7</ele>
        <time>2019-01-01T13:32:54Z</time>
      </trkpt>
      <trkpt lat="41.7548920" lon="-0.9826470">
        <ele>314.5</ele>
        <time>2019-01-01T13:32:55Z</time>
      </trkpt>
      <trkpt lat="41.7548400" lon="-0.9826000">
        <ele>314.4</ele>
        <time>2019-01-01T13:32:56Z</time>
      </trkpt>
      <trkpt lat="41.7547820" lon="-0.9825650">
        <ele>314.3</ele>
        <time>2019-01-01T13:32:57Z</time>
      </trkpt>
      <trkpt lat="41.7547120" lon="-0.9825300">
        <ele>314.3</ele>
        <time>2019-01-01T13:32:58Z</time>
      </trkpt>
      <trkpt lat="41.7546400" lon="-0.9824800">
        <ele>314.2</ele>
        <time>2019-01-01T13:32:59Z</time>
      </trkpt>
      <trkpt lat="41.7545700" lon="-0.9824430">
        <ele>314.0</ele>
        <time>2019-01-01T13:33:00Z</time>
      </trkpt>
      <trkpt lat="41.7545100" lon="-0.9824000">
        <ele>313.9</ele>
        <time>2019-01-01T13:33:01Z</time>
      </trkpt>
      <trkpt lat="41.7544450" lon="-0.9823610">
        <ele>313.8</ele>
        <time>2019-01-01T13:33:02Z</time>
      </trkpt>
      <trkpt lat="41.7543860" lon="-0.9823270">
        <ele>313.7</ele>
        <time>2019-01-01T13:33:03Z</time>
      </trkpt>
      <trkpt lat="41.7543220" lon="-0.9822850">
        <ele>313.6</ele>
        <time>2019-01-01T13:33:04Z</time>
      </trkpt>
      <trkpt lat="41.7542650" lon="-0.9822480">
        <ele>313.6</ele>
        <time>2019-01-01T13:33:05Z</time>
      </trkpt>
      <trkpt lat="41.7542010" lon="-0.9822210">
        <ele>313.7</ele>
        <time>2019-01-01T13:33:06Z</time>
      </trkpt>
      <trkpt lat="41.7541370" lon="-0.9822150">
        <ele>313.7</ele>
        <time>2019-01-01T13:33:07Z</time>
      </trkpt>
      <trkpt lat="41.7540700" lon="-0.9821950">
        <ele>313.6</ele>
        <time>2019-01-01T13:33:08Z</time>
      </trkpt>
      <trkpt lat="41.7539980" lon="-0.9821770">
        <ele>313.5</ele>
        <time>2019-01-01T13:33:09Z</time>
      </trkpt>
      <trkpt lat="41.7539270" lon="-0.9821580">
        <ele>313.3</ele>
        <time>2019-01-01T13:33:10Z</time>
      </trkpt>
      <trkpt lat="41.7538570" lon="-0.9821310">
        <ele>313.1</ele>
        <time>2019-01-01T13:33:11Z</time>
      </trkpt>
      <trkpt lat="41.7537960" lon="-0.9821190">
        <ele>312.9</ele>
        <time>2019-01-01T13:33:12Z</time>
      </trkpt>
      <trkpt lat="41.7537310" lon="-0.9820890">
        <ele>312.7</ele>
        <time>2019-01-01T13:33:13Z</time>
      </trkpt>
      <trkpt lat="41.7536520" lon="-0.9820490">
        <ele>312.4</ele>
        <time>2019-01-01T13:33:14Z</time>
      </trkpt>
      <trkpt lat="41.7535850" lon="-0.9820140">
        <ele>312.3</ele>
        <time>2019-01-01T13:33:15Z</time>
      </trkpt>
      <trkpt lat="41.7535170" lon="-0.9819760">
        <ele>312.1</ele>
        <time>2019-01-01T13:33:16Z</time>
      </trkpt>
      <trkpt lat="41.7534530" lon="-0.9819310">
        <ele>311.9</ele>
        <time>2019-01-01T13:33:17Z</time>
      </trkpt>
      <trkpt lat="41.7533970" lon="-0.9818810">
        <ele>311.8</ele>
        <time>2019-01-01T13:33:18Z</time>
      </trkpt>
      <trkpt lat="41.7533340" lon="-0.9818290">
        <ele>311.7</ele>
        <time>2019-01-01T13:33:19Z</time>
      </trkpt>
      <trkpt lat="41.7532740" lon="-0.9817860">
        <ele>311.6</ele>
        <time>2019-01-01T13:33:20Z</time>
      </trkpt>
      <trkpt lat="41.7532260" lon="-0.9817410">
        <ele>311.5</ele>
        <time>2019-01-01T13:33:21Z</time>
      </trkpt>
      <trkpt lat="41.7531790" lon="-0.9816990">
        <ele>311.5</ele>
        <time>2019-01-01T13:33:22Z</time>
      </trkpt>
      <trkpt lat="41.7531380" lon="-0.9816430">
        <ele>311.4</ele>
        <time>2019-01-01T13:33:23Z</time>
      </trkpt>
      <trkpt lat="41.7530890" lon="-0.9815870">
        <ele>311.3</ele>
        <time>2019-01-01T13:33:24Z</time>
      </trkpt>
      <trkpt lat="41.7530440" lon="-0.9815350">
        <ele>311.2</ele>
        <time>2019-01-01T13:33:25Z</time>
      </trkpt>
      <trkpt lat="41.7529890" lon="-0.9814730">
        <ele>311.1</ele>
        <time>2019-01-01T13:33:26Z</time>
      </trkpt>
      <trkpt lat="41.7529400" lon="-0.9814030">
        <ele>310.9</ele>
        <time>2019-01-01T13:33:27Z</time>
      </trkpt>
      <trkpt lat="41.7528960" lon="-0.9813360">
        <ele>310.8</ele>
        <time>2019-01-01T13:33:28Z</time>
      </trkpt>
      <trkpt lat="41.7528660" lon="-0.9812440">
        <ele>310.6</ele>
        <time>2019-01-01T13:33:29Z</time>
      </trkpt>
      <trkpt lat="41.7528350" lon="-0.9811520">
        <ele>310.5</ele>
        <time>2019-01-01T13:33:30Z</time>
      </trkpt>
      <trkpt lat="41.7528130" lon="-0.9810680">
        <ele>310.4</ele>
        <time>2019-01-01T13:33:31Z</time>
      </trkpt>
      <trkpt lat="41.7527860" lon="-0.9809820">
        <ele>310.3</ele>
        <time>2019-01-01T13:33:32Z</time>
      </trkpt>
      <trkpt lat="41.7527510" lon="-0.9809030">
        <ele>310.2</ele>
        <time>2019-01-01T13:33:33Z</time>
      </trkpt>
      <trkpt lat="41.7527110" lon="-0.9808350">
        <ele>310.1</ele>
        <time>2019-01-01T13:33:34Z</time>
      </trkpt>
      <trkpt lat="41.7526610" lon="-0.9807620">
        <ele>310.0</ele>
        <time>2019-01-01T13:33:35Z</time>
      </trkpt>
      <trkpt lat="41.7526070" lon="-0.9807020">
        <ele>309.9</ele>
        <time>2019-01-01T13:33:36Z</time>
      </trkpt>
      <trkpt lat="41.7525610" lon="-0.9806510">
        <ele>309.7</ele>
        <time>2019-01-01T13:33:37Z</time>
      </trkpt>
      <trkpt lat="41.7525150" lon="-0.9805930">
        <ele>309.5</ele>
        <time>2019-01-01T13:33:38Z</time>
      </trkpt>
      <trkpt lat="41.7524680" lon="-0.9805360">
        <ele>309.4</ele>
        <time>2019-01-01T13:33:39Z</time>
      </trkpt>
      <trkpt lat="41.7524140" lon="-0.9804720">
        <ele>309.2</ele>
        <time>2019-01-01T13:33:40Z</time>
      </trkpt>
      <trkpt lat="41.7523610" lon="-0.9804090">
        <ele>309.0</ele>
        <time>2019-01-01T13:33:41Z</time>
      </trkpt>
      <trkpt lat="41.7523190" lon="-0.9803510">
        <ele>308.9</ele>
        <time>2019-01-01T13:33:42Z</time>
      </trkpt>
      <trkpt lat="41.7522610" lon="-0.9802910">
        <ele>308.8</ele>
        <time>2019-01-01T13:33:43Z</time>
      </trkpt>
      <trkpt lat="41.7522080" lon="-0.9802230">
        <ele>308.7</ele>
        <time>2019-01-01T13:33:44Z</time>
      </trkpt>
      <trkpt lat="41.7521620" lon="-0.9801670">
        <ele>308.6</ele>
        <time>2019-01-01T13:33:45Z</time>
      </trkpt>
      <trkpt lat="41.7521130" lon="-0.9801100">
        <ele>308.5</ele>
        <time>2019-01-01T13:33:46Z</time>
      </trkpt>
      <trkpt lat="41.7520650" lon="-0.9800530">
        <ele>308.4</ele>
        <time>2019-01-01T13:33:47Z</time>
      </trkpt>
      <trkpt lat="41.7520180" lon="-0.9799870">
        <ele>308.2</ele>
        <time>2019-01-01T13:33:48Z</time>
      </trkpt>
      <trkpt lat="41.7519800" lon="-0.9799380">
        <ele>308.2</ele>
        <time>2019-01-01T13:33:49Z</time>
      </trkpt>
      <trkpt lat="41.7519440" lon="-0.9798720">
        <ele>308.1</ele>
        <time>2019-01-01T13:33:50Z</time>
      </trkpt>
      <trkpt lat="41.7518990" lon="-0.9798100">
        <ele>308.0</ele>
        <time>2019-01-01T13:33:51Z</time>
      </trkpt>
      <trkpt lat="41.7518580" lon="-0.9797600">
        <ele>308.0</ele>
        <time>2019-01-01T13:33:52Z</time>
      </trkpt>
      <trkpt lat="41.7517950" lon="-0.9797080">
        <ele>307.9</ele>
        <time>2019-01-01T13:33:53Z</time>
      </trkpt>
      <trkpt lat="41.7517540" lon="-0.9796540">
        <ele>307.9</ele>
        <time>2019-01-01T13:33:54Z</time>
      </trkpt>
      <trkpt lat="41.7517140" lon="-0.9796300">
        <ele>307.8</ele>
        <time>2019-01-01T13:33:55Z</time>
      </trkpt>
      <trkpt lat="41.7516590" lon="-0.9795990">
        <ele>307.8</ele>
        <time>2019-01-01T13:33:56Z</time>
      </trkpt>
      <trkpt lat="41.7516080" lon="-0.9795740">
        <ele>307.7</ele>
        <time>2019-01-01T13:33:57Z</time>
      </trkpt>
      <trkpt lat="41.7515630" lon="-0.9795330">
        <ele>307.6</ele>
        <time>2019-01-01T13:33:58Z</time>
      </trkpt>
      <trkpt lat="41.7515380" lon="-0.9794950">
        <ele>307.5</ele>
        <time>2019-01-01T13:33:59Z</time>
      </trkpt>
      <trkpt lat="41.7514980" lon="-0.9794590">
        <ele>307.4</ele>
        <time>2019-01-01T13:34:00Z</time>
      </trkpt>
      <trkpt lat="41.7514410" lon="-0.9794050">
        <ele>307.3</ele>
        <time>2019-01-01T13:34:01Z</time>
      </trkpt>
      <trkpt lat="41.7513860" lon="-0.9793590">
        <ele>307.1</ele>
        <time>2019-01-01T13:34:02Z</time>
      </trkpt>
      <trkpt lat="41.7513370" lon="-0.9793290">
        <ele>307.0</ele>
        <time>2019-01-01T13:34:03Z</time>
      </trkpt>
      <trkpt lat="41.7512920" lon="-0.9792920">
        <ele>306.8</ele>
        <time>2019-01-01T13:34:04Z</time>
      </trkpt>
      <trkpt lat="41.7512290" lon="-0.9792620">
        <ele>306.7</ele>
        <time>2019-01-01T13:34:05Z</time>
      </trkpt>
      <trkpt lat="41.7511840" lon="-0.9792680">
        <ele>306.6</ele>
        <time>2019-01-01T13:34:06Z</time>
      </trkpt>
      <trkpt lat="41.7511280" lon="-0.9792840">
        <ele>306.6</ele>
        <time>2019-01-01T13:34:07Z</time>
      </trkpt>
      <trkpt lat="41.7510800" lon="-0.9793190">
        <ele>306.5</ele>
        <time>2019-01-01T13:34:08Z</time>
      </trkpt>
      <trkpt lat="41.7510450" lon="-0.9793750">
        <ele>306.5</ele>
        <time>2019-01-01T13:34:09Z</time>
      </trkpt>
      <trkpt lat="41.7510040" lon="-0.9794290">
        <ele>306.4</ele>
        <time>2019-01-01T13:34:10Z</time>
      </trkpt>
      <trkpt lat="41.7509690" lon="-0.9794810">
        <ele>306.4</ele>
        <time>2019-01-01T13:34:11Z</time>
      </trkpt>
      <trkpt lat="41.7509330" lon="-0.9795370">
        <ele>306.3</ele>
        <time>2019-01-01T13:34:12Z</time>
      </trkpt>
      <trkpt lat="41.7509010" lon="-0.9796050">
        <ele>306.2</ele>
        <time>2019-01-01T13:34:13Z</time>
      </trkpt>
      <trkpt lat="41.7508810" lon="-0.9796730">
        <ele>306.1</ele>
        <time>2019-01-01T13:34:14Z</time>
      </trkpt>
      <trkpt lat="41.7508630" lon="-0.9797360">
        <ele>306.0</ele>
        <time>2019-01-01T13:34:15Z</time>
      </trkpt>
      <trkpt lat="41.7508410" lon="-0.9797990">
        <ele>305.9</ele>
        <time>2019-01-01T13:34:16Z</time>
      </trkpt>
      <trkpt lat="41.7508180" lon="-0.9798490">
        <ele>305.9</ele>
        <time>2019-01-01T13:34:17Z</time>
      </trkpt>
      <trkpt lat="41.7507880" lon="-0.9799020">
        <ele>305.8</ele>
        <time>2019-01-01T13:34:18Z</time>
      </trkpt>
      <trkpt lat="41.7507510" lon="-0.9799560">
        <ele>305.7</ele>
        <time>2019-01-01T13:34:19Z</time>
      </trkpt>
      <trkpt lat="41.7507130" lon="-0.9800030">
        <ele>305.7</ele>
        <time>2019-01-01T13:34:20Z</time>
      </trkpt>
      <trkpt lat="41.7506790" lon="-0.9800440">
        <ele>305.6</ele>
        <time>2019-01-01T13:34:21Z</time>
      </trkpt>
      <trkpt lat="41.7506370" lon="-0.9800900">
        <ele>305.6</ele>
        <time>2019-01-01T13:34:22Z</time>
      </trkpt>
      <trkpt lat="41.7506070" lon="-0.9801230">
        <ele>305.5</ele>
        <time>2019-01-01T13:34:23Z</time>
      </trkpt>
      <trkpt lat="41.7505620" lon="-0.9801650">
        <ele>305.5</ele>
        <time>2019-01-01T13:34:24Z</time>
      </trkpt>
      <trkpt lat="41.7505260" lon="-0.9802000">
        <ele>305.4</ele>
        <time>2019-01-01T13:34:25Z</time>
      </trkpt>
      <trkpt lat="41.7504830" lon="-0.9802200">
        <ele>305.4</ele>
        <time>2019-01-01T13:34:26Z</time>
      </trkpt>
      <trkpt lat="41.7504440" lon="-0.9802480">
        <ele>305.3</ele>
        <time>2019-01-01T13:34:27Z</time>
      </trkpt>
      <trkpt lat="41.7504050" lon="-0.9802890">
        <ele>305.2</ele>
        <time>2019-01-01T13:34:28Z</time>
      </trkpt>
      <trkpt lat="41.7503630" lon="-0.9803160">
        <ele>305.1</ele>
        <time>2019-01-01T13:34:29Z</time>
      </trkpt>
      <trkpt lat="41.7503150" lon="-0.9803410">
        <ele>305.0</ele>
        <time>2019-01-01T13:34:30Z</time>
      </trkpt>
      <trkpt lat="41.7502590" lon="-0.9803520">
        <ele>304.8</ele>
        <time>2019-01-01T13:34:31Z</time>
      </trkpt>
      <trkpt lat="41.7502140" lon="-0.9803610">
        <ele>304.7</ele>
        <time>2019-01-01T13:34:32Z</time>
      </trkpt>
      <trkpt lat="41.7501630" lon="-0.9803730">
        <ele>304.5</ele>
        <time>2019-01-01T13:34:33Z</time>
      </trkpt>
      <trkpt lat="41.7501050" lon="-0.9803920">
        <ele>304.4</ele>
        <time>2019-01-01T13:34:34Z</time>
      </trkpt>
      <trkpt lat="41.7500560" lon="-0.9804240">
        <ele>304.2</ele>
        <time>2019-01-01T13:34:35Z</time>
      </trkpt>
      <trkpt lat="41.7500090" lon="-0.9804520">
        <ele>304.1</ele>
        <time>2019-01-01T13:34:36Z</time>
      </trkpt>
      <trkpt lat="41.7499580" lon="-0.9804800">
        <ele>303.9</ele>
        <time>2019-01-01T13:34:37Z</time>
      </trkpt>
      <trkpt lat="41.7499180" lon="-0.9805110">
        <ele>303.7</ele>
        <time>2019-01-01T13:34:38Z</time>
      </trkpt>
      <trkpt lat="41.7498580" lon="-0.9805440">
        <ele>303.6</ele>
        <time>2019-01-01T13:34:39Z</time>
      </trkpt>
      <trkpt lat="41.7498080" lon="-0.9805770">
        <ele>303.4</ele>
        <time>2019-01-01T13:34:40Z</time>
      </trkpt>
      <trkpt lat="41.7497560" lon="-0.9805950">
        <ele>303.3</ele>
        <time>2019-01-01T13:34:41Z</time>
      </trkpt>
      <trkpt lat="41.7497080" lon="-0.9806110">
        <ele>303.2</ele>
        <time>2019-01-01T13:34:42Z</time>
      </trkpt>
      <trkpt lat="41.7496640" lon="-0.9806270">
        <ele>303.1</ele>
        <time>2019-01-01T13:34:43Z</time>
      </trkpt>
      <trkpt lat="41.7496120" lon="-0.9806430">
        <ele>303.0</ele>
        <time>2019-01-01T13:34:44Z</time>
      </trkpt>
      <trkpt lat="41.7495490" lon="-0.9806610">
        <ele>302.9</ele>
        <time>2019-01-01T13:34:45Z</time>
      </trkpt>
      <trkpt lat="41.7494950" lon="-0.9806680">
        <ele>302.9</ele>
        <time>2019-01-01T13:34:46Z</time>
      </trkpt>
      <trkpt lat="41.7494470" lon="-0.9806840">
        <ele>302.9</ele>
        <time>2019-01-01T13:34:47Z</time>
      </trkpt>
      <trkpt lat="41.7493890" lon="-0.9806910">
        <ele>302.8</ele>
        <time>2019-01-01T13:34:48Z</time>
      </trkpt>
      <trkpt lat="41.7493370" lon="-0.9807250">
        <ele>302.8</ele>
        <time>2019-01-01T13:34:49Z</time>
      </trkpt>
      <trkpt lat="41.7492870" lon="-0.9807610">
        <ele>302.8</ele>
        <time>2019-01-01T13:34:50Z</time>
      </trkpt>
      <trkpt lat="41.7492470" lon="-0.9807970">
        <ele>302.7</ele>
        <time>2019-01-01T13:34:51Z</time>
      </trkpt>
      <trkpt lat="41.7492030" lon="-0.9808240">
        <ele>302.7</ele>
        <time>2019-01-01T13:34:52Z</time>
      </trkpt>
      <trkpt lat="41.7491630" lon="-0.9808390">
        <ele>302.7</ele>
        <time>2019-01-01T13:34:53Z</time>
      </trkpt>
      <trkpt lat="41.7491180" lon="-0.9808660">
        <ele>302.6</ele>
        <time>2019-01-01T13:34:54Z</time>
      </trkpt>
      <trkpt lat="41.7490740" lon="-0.9808840">
        <ele>302.5</ele>
        <time>2019-01-01T13:34:55Z</time>
      </trkpt>
      <trkpt lat="41.7490260" lon="-0.9809030">
        <ele>302.5</ele>
        <time>2019-01-01T13:34:56Z</time>
      </trkpt>
      <trkpt lat="41.7489780" lon="-0.9809350">
        <ele>302.4</ele>
        <time>2019-01-01T13:34:57Z</time>
      </trkpt>
      <trkpt lat="41.7489300" lon="-0.9809440">
        <ele>302.3</ele>
        <time>2019-01-01T13:34:58Z</time>
      </trkpt>
      <trkpt lat="41.7488790" lon="-0.9809690">
        <ele>302.2</ele>
        <time>2019-01-01T13:34:59Z</time>
      </trkpt>
      <trkpt lat="41.7488200" lon="-0.9809740">
        <ele>302.1</ele>
        <time>2019-01-01T13:35:00Z</time>
      </trkpt>
      <trkpt lat="41.7487580" lon="-0.9809830">
        <ele>302.0</ele>
        <time>2019-01-01T13:35:01Z</time>
      </trkpt>
      <trkpt lat="41.7487040" lon="-0.9809870">
        <ele>301.9</ele>
        <time>2019-01-01T13:35:02Z</time>
      </trkpt>
      <trkpt lat="41.7486480" lon="-0.9809960">
        <ele>301.7</ele>
        <time>2019-01-01T13:35:03Z</time>
      </trkpt>
      <trkpt lat="41.7485950" lon="-0.9810090">
        <ele>301.6</ele>
        <time>2019-01-01T13:35:04Z</time>
      </trkpt>
      <trkpt lat="41.7485470" lon="-0.9810160">
        <ele>301.5</ele>
        <time>2019-01-01T13:35:05Z</time>
      </trkpt>
      <trkpt lat="41.7484960" lon="-0.9810280">
        <ele>301.3</ele>
        <time>2019-01-01T13:35:06Z</time>
      </trkpt>
      <trkpt lat="41.7484420" lon="-0.9810400">
        <ele>301.2</ele>
        <time>2019-01-01T13:35:07Z</time>
      </trkpt>
      <trkpt lat="41.7483880" lon="-0.9810630">
        <ele>301.0</ele>
        <time>2019-01-01T13:35:08Z</time>
      </trkpt>
      <trkpt lat="41.7483380" lon="-0.9810860">
        <ele>300.9</ele>
        <time>2019-01-01T13:35:09Z</time>
      </trkpt>
      <trkpt lat="41.7482790" lon="-0.9811090">
        <ele>300.7</ele>
        <time>2019-01-01T13:35:10Z</time>
      </trkpt>
      <trkpt lat="41.7482280" lon="-0.9811200">
        <ele>300.6</ele>
        <time>2019-01-01T13:35:11Z</time>
      </trkpt>
      <trkpt lat="41.7481740" lon="-0.9811400">
        <ele>300.5</ele>
        <time>2019-01-01T13:35:12Z</time>
      </trkpt>
      <trkpt lat="41.7481190" lon="-0.9811530">
        <ele>300.4</ele>
        <time>2019-01-01T13:35:13Z</time>
      </trkpt>
      <trkpt lat="41.7480490" lon="-0.9811580">
        <ele>300.3</ele>
        <time>2019-01-01T13:35:14Z</time>
      </trkpt>
      <trkpt lat="41.7479950" lon="-0.9811630">
        <ele>300.2</ele>
        <time>2019-01-01T13:35:15Z</time>
      </trkpt>
      <trkpt lat="41.7479350" lon="-0.9811760">
        <ele>300.1</ele>
        <time>2019-01-01T13:35:16Z</time>
      </trkpt>
      <trkpt lat="41.7478820" lon="-0.9811680">
        <ele>300.1</ele>
        <time>2019-01-01T13:35:17Z</time>
      </trkpt>
      <trkpt lat="41.7478310" lon="-0.9811560">
        <ele>300.0</ele>
        <time>2019-01-01T13:35:18Z</time>
      </trkpt>
      <trkpt lat="41.7477780" lon="-0.9811250">
        <ele>299.9</ele>
        <time>2019-01-01T13:35:19Z</time>
      </trkpt>
      <trkpt lat="41.7477210" lon="-0.9810970">
        <ele>299.8</ele>
        <time>2019-01-01T13:35:20Z</time>
      </trkpt>
      <trkpt lat="41.7476600" lon="-0.9810590">
        <ele>299.6</ele>
        <time>2019-01-01T13:35:21Z</time>
      </trkpt>
      <trkpt lat="41.7476110" lon="-0.9810200">
        <ele>299.5</ele>
        <time>2019-01-01T13:35:22Z</time>
      </trkpt>
      <trkpt lat="41.7475680" lon="-0.9809790">
        <ele>299.4</ele>
        <time>2019-01-01T13:35:23Z</time>
      </trkpt>
      <trkpt lat="41.7475220" lon="-0.9809250">
        <ele>299.3</ele>
        <time>2019-01-01T13:35:24Z</time>
      </trkpt>
      <trkpt lat="41.7474800" lon="-0.9808770">
        <ele>299.2</ele>
        <time>2019-01-01T13:35:25Z</time>
      </trkpt>
      <trkpt lat="41.7474390" lon="-0.9808300">
        <ele>299.1</ele>
        <time>2019-01-01T13:35:26Z</time>
      </trkpt>
      <trkpt lat="41.7473870" lon="-0.9807930">
        <ele>299.0</ele>
        <time>2019-01-01T13:35:27Z</time>
      </trkpt>
      <trkpt lat="41.7473400" lon="-0.9807570">
        <ele>298.8</ele>
        <time>2019-01-01T13:35:28Z</time>
      </trkpt>
      <trkpt lat="41.7472940" lon="-0.9807250">
        <ele>298.7</ele>
        <time>2019-01-01T13:35:29Z</time>
      </trkpt>
      <trkpt lat="41.7472470" lon="-0.9806950">
        <ele>298.6</ele>
        <time>2019-01-01T13:35:30Z</time>
      </trkpt>
      <trkpt lat="41.7471990" lon="-0.9806670">
        <ele>298.5</ele>
        <time>2019-01-01T13:35:31Z</time>
      </trkpt>
      <trkpt lat="41.7471450" lon="-0.9806430">
        <ele>298.4</ele>
        <time>2019-01-01T13:35:32Z</time>
      </trkpt>
      <trkpt lat="41.7470990" lon="-0.9806060">
        <ele>298.3</ele>
        <time>2019-01-01T13:35:33Z</time>
      </trkpt>
      <trkpt lat="41.7470530" lon="-0.9805650">
        <ele>298.2</ele>
        <time>2019-01-01T13:35:34Z</time>
      </trkpt>
      <trkpt lat="41.7470110" lon="-0.9805350">
        <ele>298.2</ele>
        <time>2019-01-01T13:35:35Z</time>
      </trkpt>
      <trkpt lat="41.7469620" lon="-0.9804920">
        <ele>298.1</ele>
        <time>2019-01-01T13:35:36Z</time>
      </trkpt>
      <trkpt lat="41.7469150" lon="-0.9804660">
        <ele>298.0</ele>
        <time>2019-01-01T13:35:37Z</time>
      </trkpt>
      <trkpt lat="41.7468640" lon="-0.9804210">
        <ele>297.9</ele>
        <time>2019-01-01T13:35:38Z</time>
      </trkpt>
      <trkpt lat="41.7468180" lon="-0.9803720">
        <ele>297.9</ele>
        <time>2019-01-01T13:35:39Z</time>
      </trkpt>
      <trkpt lat="41.7467640" lon="-0.9803290">
        <ele>297.8</ele>
        <time>2019-01-01T13:35:40Z</time>
      </trkpt>
      <trkpt lat="41.7467120" lon="-0.9802870">
        <ele>297.7</ele>
        <time>2019-01-01T13:35:41Z</time>
      </trkpt>
      <trkpt lat="41.7466630" lon="-0.9802530">
        <ele>297.6</ele>
        <time>2019-01-01T13:35:42Z</time>
      </trkpt>
      <trkpt lat="41.7466230" lon="-0.9802030">
        <ele>297.5</ele>
        <time>2019-01-01T13:35:43Z</time>
      </trkpt>
      <trkpt lat="41.7465780" lon="-0.9801630">
        <ele>297.5</ele>
        <time>2019-01-01T13:35:44Z</time>
      </trkpt>
      <trkpt lat="41.7465290" lon="-0.9801430">
        <ele>297.4</ele>
        <time>2019-01-01T13:35:45Z</time>
      </trkpt>
      <trkpt lat="41.7464780" lon="-0.9801150">
        <ele>297.2</ele>
        <time>2019-01-01T13:35:46Z</time>
      </trkpt>
      <trkpt lat="41.7464340" lon="-0.9800900">
        <ele>297.1</ele>
        <time>2019-01-01T13:35:47Z</time>
      </trkpt>
      <trkpt lat="41.7463920" lon="-0.9800600">
        <ele>297.0</ele>
        <time>2019-01-01T13:35:48Z</time>
      </trkpt>
      <trkpt lat="41.7463460" lon="-0.9800240">
        <ele>296.9</ele>
        <time>2019-01-01T13:35:49Z</time>
      </trkpt>
      <trkpt lat="41.7462990" lon="-0.9800000">
        <ele>296.8</ele>
        <time>2019-01-01T13:35:50Z</time>
      </trkpt>
      <trkpt lat="41.7462580" lon="-0.9799630">
        <ele>296.7</ele>
        <time>2019-01-01T13:35:51Z</time>
      </trkpt>
      <trkpt lat="41.7462170" lon="-0.9799250">
        <ele>296.7</ele>
        <time>2019-01-01T13:35:52Z</time>
      </trkpt>
      <trkpt lat="41.7461740" lon="-0.9798930">
        <ele>296.6</ele>
        <time>2019-01-01T13:35:53Z</time>
      </trkpt>
      <trkpt lat="41.7461270" lon="-0.9798600">
        <ele>296.6</ele>
        <time>2019-01-01T13:35:54Z</time>
      </trkpt>
      <trkpt lat="41.7460860" lon="-0.9798310">
        <ele>296.5</ele>
        <time>2019-01-01T13:35:55Z</time>
      </trkpt>
      <trkpt lat="41.7460350" lon="-0.9797970">
        <ele>296.5</ele>
        <time>2019-01-01T13:35:56Z</time>
      </trkpt>
      <trkpt lat="41.7459990" lon="-0.9797600">
        <ele>296.4</ele>
        <time>2019-01-01T13:35:57Z</time>
      </trkpt>
      <trkpt lat="41.7459560" lon="-0.9797200">
        <ele>296.4</ele>
        <time>2019-01-01T13:35:58Z</time>
      </trkpt>
      <trkpt lat="41.7459190" lon="-0.9796850">
        <ele>296.3</ele>
        <time>2019-01-01T13:35:59Z</time>
      </trkpt>
      <trkpt lat="41.7458740" lon="-0.9796450">
        <ele>296.3</ele>
        <time>2019-01-01T13:36:00Z</time>
      </trkpt>
      <trkpt lat="41.7458300" lon="-0.9796130">
        <ele>296.2</ele>
        <time>2019-01-01T13:36:01Z</time>
      </trkpt>
      <trkpt lat="41.7457760" lon="-0.9795770">
        <ele>296.1</ele>
        <time>2019-01-01T13:36:02Z</time>
      </trkpt>
      <trkpt lat="41.7457240" lon="-0.9795470">
        <ele>296.0</ele>
        <time>2019-01-01T13:36:03Z</time>
      </trkpt>
      <trkpt lat="41.7456730" lon="-0.9795190">
        <ele>295.8</ele>
        <time>2019-01-01T13:36:04Z</time>
      </trkpt>
      <trkpt lat="41.7456360" lon="-0.9794860">
        <ele>295.7</ele>
        <time>2019-01-01T13:36:05Z</time>
      </trkpt>
      <trkpt lat="41.7455960" lon="-0.9794430">
        <ele>295.6</ele>
        <time>2019-01-01T13:36:06Z</time>
      </trkpt>
      <trkpt lat="41.7455550" lon="-0.9793900">
        <ele>295.4</ele>
        <time>2019-01-01T13:36:07Z</time>
      </trkpt>
      <trkpt lat="41.7455080" lon="-0.9793350">
        <ele>295.3</ele>
        <time>2019-01-01T13:36:08Z</time>
      </trkpt>
      <trkpt lat="41.7454680" lon="-0.9792920">
        <ele>295.1</ele>
        <time>2019-01-01T13:36:09Z</time>
      </trkpt>
      <trkpt lat="41.7454310" lon="-0.9792370">
        <ele>295.0</ele>
        <time>2019-01-01T13:36:10Z</time>
      </trkpt>
      <trkpt lat="41.7453920" lon="-0.9791820">
        <ele>294.9</ele>
        <time>2019-01-01T13:36:11Z</time>
      </trkpt>
      <trkpt lat="41.7453640" lon="-0.9791270">
        <ele>294.9</ele>
        <time>2019-01-01T13:36:12Z</time>
      </trkpt>
      <trkpt lat="41.7453340" lon="-0.9790660">
        <ele>294.9</ele>
        <time>2019-01-01T13:36:13Z</time>
      </trkpt>
      <trkpt lat="41.7453100" lon="-0.9790000">
        <ele>294.9</ele>
        <time>2019-01-01T13:36:14Z</time>
      </trkpt>
      <trkpt lat="41.7452860" lon="-0.9789400">
        <ele>294.9</ele>
        <time>2019-01-01T13:36:15Z</time>
      </trkpt>
      <trkpt lat="41.7452580" lon="-0.9788760">
        <ele>294.9</ele>
        <time>2019-01-01T13:36:16Z</time>
      </trkpt>
      <trkpt lat="41.7452330" lon="-0.9788130">
        <ele>294.9</ele>
        <time>2019-01-01T13:36:17Z</time>
      </trkpt>
      <trkpt lat="41.7452090" lon="-0.9787520">
        <ele>295.0</ele>
        <time>2019-01-01T13:36:18Z</time>
      </trkpt>
      <trkpt lat="41.7451910" lon="-0.9786900">
        <ele>295.0</ele>
        <time>2019-01-01T13:36:19Z</time>
      </trkpt>
      <trkpt lat="41.7451660" lon="-0.9786290">
        <ele>295.0</ele>
        <time>2019-01-01T13:36:20Z</time>
      </trkpt>
      <trkpt lat="41.7451400" lon="-0.9785810">
        <ele>295.0</ele>
        <time>2019-01-01T13:36:21Z</time>
      </trkpt>
      <trkpt lat="41.7451150" lon="-0.9785130">
        <ele>295.1</ele>
        <time>2019-01-01T13:36:22Z</time>
      </trkpt>
      <trkpt lat="41.7450880" lon="-0.9784580">
        <ele>295.1</ele>
        <time>2019-01-01T13:36:23Z</time>
      </trkpt>
      <trkpt lat="41.7450590" lon="-0.9783990">
        <ele>295.1</ele>
        <time>2019-01-01T13:36:24Z</time>
      </trkpt>
      <trkpt lat="41.7450260" lon="-0.9783430">
        <ele>295.1</ele>
        <time>2019-01-01T13:36:25Z</time>
      </trkpt>
      <trkpt lat="41.7449990" lon="-0.9782820">
        <ele>295.1</ele>
        <time>2019-01-01T13:36:26Z</time>
      </trkpt>
      <trkpt lat="41.7449620" lon="-0.9782180">
        <ele>295.1</ele>
        <time>2019-01-01T13:36:27Z</time>
      </trkpt>
      <trkpt lat="41.7449400" lon="-0.9781550">
        <ele>295.1</ele>
        <time>2019-01-01T13:36:28Z</time>
      </trkpt>
      <trkpt lat="41.7449160" lon="-0.9780810">
        <ele>295.1</ele>
        <time>2019-01-01T13:36:29Z</time>
      </trkpt>
      <trkpt lat="41.7448980" lon="-0.9780160">
        <ele>295.1</ele>
        <time>2019-01-01T13:36:30Z</time>
      </trkpt>
      <trkpt lat="41.7448740" lon="-0.9779450">
        <ele>295.1</ele>
        <time>2019-01-01T13:36:31Z</time>
      </trkpt>
      <trkpt lat="41.7448430" lon="-0.9778750">
        <ele>295.0</ele>
        <time>2019-01-01T13:36:32Z</time>
      </trkpt>
      <trkpt lat="41.7448120" lon="-0.9778090">
        <ele>295.0</ele>
        <time>2019-01-01T13:36:33Z</time>
      </trkpt>
      <trkpt lat="41.7447980" lon="-0.9777510">
        <ele>295.0</ele>
        <time>2019-01-01T13:36:34Z</time>
      </trkpt>
      <trkpt lat="41.7447720" lon="-0.9776780">
        <ele>294.9</ele>
        <time>2019-01-01T13:36:35Z</time>
      </trkpt>
      <trkpt lat="41.7447520" lon="-0.9776160">
        <ele>294.9</ele>
        <time>2019-01-01T13:36:36Z</time>
      </trkpt>
      <trkpt lat="41.7447370" lon="-0.9775410">
        <ele>294.8</ele>
        <time>2019-01-01T13:36:37Z</time>
      </trkpt>
      <trkpt lat="41.7447160" lon="-0.9774630">
        <ele>294.7</ele>
        <time>2019-01-01T13:36:38Z</time>
      </trkpt>
      <trkpt lat="41.7446920" lon="-0.9773980">
        <ele>294.6</ele>
        <time>2019-01-01T13:36:39Z</time>
      </trkpt>
      <trkpt lat="41.7446780" lon="-0.9773290">
        <ele>294.5</ele>
        <time>2019-01-01T13:36:40Z</time>
      </trkpt>
      <trkpt lat="41.7446600" lon="-0.9772550">
        <ele>294.4</ele>
        <time>2019-01-01T13:36:41Z</time>
      </trkpt>
      <trkpt lat="41.7446410" lon="-0.9771810">
        <ele>294.3</ele>
        <time>2019-01-01T13:36:42Z</time>
      </trkpt>
      <trkpt lat="41.7446140" lon="-0.9771200">
        <ele>294.1</ele>
        <time>2019-01-01T13:36:43Z</time>
      </trkpt>
      <trkpt lat="41.7446000" lon="-0.9770590">
        <ele>293.9</ele>
        <time>2019-01-01T13:36:44Z</time>
      </trkpt>
      <trkpt lat="41.7445970" lon="-0.9770040">
        <ele>293.8</ele>
        <time>2019-01-01T13:36:45Z</time>
      </trkpt>
      <trkpt lat="41.7445890" lon="-0.9769250">
        <ele>293.6</ele>
        <time>2019-01-01T13:36:46Z</time>
      </trkpt>
      <trkpt lat="41.7445910" lon="-0.9768540">
        <ele>293.4</ele>
        <time>2019-01-01T13:36:47Z</time>
      </trkpt>
      <trkpt lat="41.7445930" lon="-0.9767810">
        <ele>293.2</ele>
        <time>2019-01-01T13:36:48Z</time>
      </trkpt>
      <trkpt lat="41.7446020" lon="-0.9767070">
        <ele>292.9</ele>
        <time>2019-01-01T13:36:49Z</time>
      </trkpt>
      <trkpt lat="41.7445960" lon="-0.9766230">
        <ele>292.7</ele>
        <time>2019-01-01T13:36:50Z</time>
      </trkpt>
      <trkpt lat="41.7445970" lon="-0.9765370">
        <ele>292.5</ele>
        <time>2019-01-01T13:36:51Z</time>
      </trkpt>
      <trkpt lat="41.7445980" lon="-0.9764540">
        <ele>292.3</ele>
        <time>2019-01-01T13:36:52Z</time>
      </trkpt>
      <trkpt lat="41.7445950" lon="-0.9763760">
        <ele>292.1</ele>
        <time>2019-01-01T13:36:53Z</time>
      </trkpt>
      <trkpt lat="41.7445800" lon="-0.9762910">
        <ele>291.9</ele>
        <time>2019-01-01T13:36:54Z</time>
      </trkpt>
      <trkpt lat="41.7445770" lon="-0.9762080">
        <ele>291.7</ele>
        <time>2019-01-01T13:36:55Z</time>
      </trkpt>
      <trkpt lat="41.7445760" lon="-0.9761230">
        <ele>291.5</ele>
        <time>2019-01-01T13:36:56Z</time>
      </trkpt>
      <trkpt lat="41.7445720" lon="-0.9760540">
        <ele>291.4</ele>
        <time>2019-01-01T13:36:57Z</time>
      </trkpt>
      <trkpt lat="41.7445750" lon="-0.9759700">
        <ele>291.2</ele>
        <time>2019-01-01T13:36:58Z</time>
      </trkpt>
      <trkpt lat="41.7445750" lon="-0.9758910">
        <ele>291.1</ele>
        <time>2019-01-01T13:36:59Z</time>
      </trkpt>
      <trkpt lat="41.7445810" lon="-0.9758160">
        <ele>290.9</ele>
        <time>2019-01-01T13:37:00Z</time>
      </trkpt>
      <trkpt lat="41.7445980" lon="-0.9757380">
        <ele>290.7</ele>
        <time>2019-01-01T13:37:01Z</time>
      </trkpt>
      <trkpt lat="41.7446050" lon="-0.9756630">
        <ele>290.5</ele>
        <time>2019-01-01T13:37:02Z</time>
      </trkpt>
      <trkpt lat="41.7445980" lon="-0.9755860">
        <ele>290.5</ele>
        <time>2019-01-01T13:37:03Z</time>
      </trkpt>
      <trkpt lat="41.7445980" lon="-0.9755130">
        <ele>290.4</ele>
        <time>2019-01-01T13:37:04Z</time>
      </trkpt>
      <trkpt lat="41.7446070" lon="-0.9754360">
        <ele>290.4</ele>
        <time>2019-01-01T13:37:05Z</time>
      </trkpt>
      <trkpt lat="41.7445960" lon="-0.9753670">
        <ele>290.4</ele>
        <time>2019-01-01T13:37:06Z</time>
      </trkpt>
      <trkpt lat="41.7445900" lon="-0.9752840">
        <ele>290.4</ele>
        <time>2019-01-01T13:37:07Z</time>
      </trkpt>
      <trkpt lat="41.7445950" lon="-0.9751890">
        <ele>290.5</ele>
        <time>2019-01-01T13:37:08Z</time>
      </trkpt>
      <trkpt lat="41.7446020" lon="-0.9751030">
        <ele>290.5</ele>
        <time>2019-01-01T13:37:09Z</time>
      </trkpt>
      <trkpt lat="41.7446150" lon="-0.9750180">
        <ele>290.5</ele>
        <time>2019-01-01T13:37:10Z</time>
      </trkpt>
      <trkpt lat="41.7446230" lon="-0.9749360">
        <ele>290.6</ele>
        <time>2019-01-01T13:37:11Z</time>
      </trkpt>
      <trkpt lat="41.7446310" lon="-0.9748620">
        <ele>290.5</ele>
        <time>2019-01-01T13:37:12Z</time>
      </trkpt>
      <trkpt lat="41.7446480" lon="-0.9747740">
        <ele>290.4</ele>
        <time>2019-01-01T13:37:13Z</time>
      </trkpt>
      <trkpt lat="41.7446660" lon="-0.9746850">
        <ele>290.1</ele>
        <time>2019-01-01T13:37:14Z</time>
      </trkpt>
      <trkpt lat="41.7446830" lon="-0.9746140">
        <ele>289.7</ele>
        <time>2019-01-01T13:37:15Z</time>
      </trkpt>
      <trkpt lat="41.7446990" lon="-0.9745430">
        <ele>289.4</ele>
        <time>2019-01-01T13:37:16Z</time>
      </trkpt>
      <trkpt lat="41.7447150" lon="-0.9744660">
        <ele>289.0</ele>
        <time>2019-01-01T13:37:17Z</time>
      </trkpt>
      <trkpt lat="41.7447260" lon="-0.9744010">
        <ele>288.7</ele>
        <time>2019-01-01T13:37:18Z</time>
      </trkpt>
      <trkpt lat="41.7447440" lon="-0.9743390">
        <ele>288.4</ele>
        <time>2019-01-01T13:37:19Z</time>
      </trkpt>
      <trkpt lat="41.7447630" lon="-0.9742920">
        <ele>288.3</ele>
        <time>2019-01-01T13:37:20Z</time>
      </trkpt>
      <trkpt lat="41.7447840" lon="-0.9742300">
        <ele>288.1</ele>
        <time>2019-01-01T13:37:21Z</time>
      </trkpt>
      <trkpt lat="41.7448110" lon="-0.9741400">
        <ele>288.0</ele>
        <time>2019-01-01T13:37:22Z</time>
      </trkpt>
      <trkpt lat="41.7448390" lon="-0.9740740">
        <ele>287.9</ele>
        <time>2019-01-01T13:37:23Z</time>
      </trkpt>
      <trkpt lat="41.7448540" lon="-0.9740170">
        <ele>287.9</ele>
        <time>2019-01-01T13:37:24Z</time>
      </trkpt>
      <trkpt lat="41.7448750" lon="-0.9739670">
        <ele>287.9</ele>
        <time>2019-01-01T13:37:25Z</time>
      </trkpt>
      <trkpt lat="41.7449040" lon="-0.9739100">
        <ele>287.8</ele>
        <time>2019-01-01T13:37:26Z</time>
      </trkpt>
      <trkpt lat="41.7449350" lon="-0.9738340">
        <ele>287.8</ele>
        <time>2019-01-01T13:37:27Z</time>
      </trkpt>
      <trkpt lat="41.7449550" lon="-0.9737540">
        <ele>287.8</ele>
        <time>2019-01-01T13:37:28Z</time>
      </trkpt>
      <trkpt lat="41.7449760" lon="-0.9736900">
        <ele>287.9</ele>
        <time>2019-01-01T13:37:29Z</time>
      </trkpt>
      <trkpt lat="41.7450020" lon="-0.9736310">
        <ele>287.9</ele>
        <time>2019-01-01T13:37:30Z</time>
      </trkpt>
      <trkpt lat="41.7450210" lon="-0.9735690">
        <ele>288.0</ele>
        <time>2019-01-01T13:37:31Z</time>
      </trkpt>
      <trkpt lat="41.7450430" lon="-0.9735020">
        <ele>288.1</ele>
        <time>2019-01-01T13:37:32Z</time>
      </trkpt>
      <trkpt lat="41.7450640" lon="-0.9734160">
        <ele>288.3</ele>
        <time>2019-01-01T13:37:33Z</time>
      </trkpt>
      <trkpt lat="41.7450880" lon="-0.9733430">
        <ele>288.5</ele>
        <time>2019-01-01T13:37:34Z</time>
      </trkpt>
      <trkpt lat="41.7451000" lon="-0.9732820">
        <ele>288.6</ele>
        <time>2019-01-01T13:37:35Z</time>
      </trkpt>
      <trkpt lat="41.7451160" lon="-0.9732100">
        <ele>288.8</ele>
        <time>2019-01-01T13:37:36Z</time>
      </trkpt>
      <trkpt lat="41.7451370" lon="-0.9731520">
        <ele>288.9</ele>
        <time>2019-01-01T13:37:37Z</time>
      </trkpt>
      <trkpt lat="41.7451360" lon="-0.9730880">
        <ele>289.0</ele>
        <time>2019-01-01T13:37:38Z</time>
      </trkpt>
      <trkpt lat="41.7451480" lon="-0.9730210">
        <ele>289.1</ele>
        <time>2019-01-01T13:37:39Z</time>
      </trkpt>
      <trkpt lat="41.7451660" lon="-0.9729440">
        <ele>289.1</ele>
        <time>2019-01-01T13:37:40Z</time>
      </trkpt>
      <trkpt lat="41.7451720" lon="-0.9728830">
        <ele>289.0</ele>
        <time>2019-01-01T13:37:41Z</time>
      </trkpt>
      <trkpt lat="41.7451710" lon="-0.9728230">
        <ele>288.9</ele>
        <time>2019-01-01T13:37:42Z</time>
      </trkpt>
      <trkpt lat="41.7451790" lon="-0.9727600">
        <ele>288.8</ele>
        <time>2019-01-01T13:37:43Z</time>
      </trkpt>
      <trkpt lat="41.7451940" lon="-0.9726890">
        <ele>288.6</ele>
        <time>2019-01-01T13:37:44Z</time>
      </trkpt>
      <trkpt lat="41.7452140" lon="-0.9726260">
        <ele>288.3</ele>
        <time>2019-01-01T13:37:45Z</time>
      </trkpt>
      <trkpt lat="41.7452270" lon="-0.9725610">
        <ele>288.0</ele>
        <time>2019-01-01T13:37:46Z</time>
      </trkpt>
      <trkpt lat="41.7452340" lon="-0.9725010">
        <ele>287.7</ele>
        <time>2019-01-01T13:37:47Z</time>
      </trkpt>
      <trkpt lat="41.7452340" lon="-0.9724440">
        <ele>287.4</ele>
        <time>2019-01-01T13:37:48Z</time>
      </trkpt>
      <trkpt lat="41.7452400" lon="-0.9724010">
        <ele>287.1</ele>
        <time>2019-01-01T13:37:49Z</time>
      </trkpt>
      <trkpt lat="41.7452480" lon="-0.9722890">
        <ele>286.4</ele>
        <time>2019-01-01T13:37:50Z</time>
      </trkpt>
      <trkpt lat="41.7452500" lon="-0.9721990">
        <ele>285.7</ele>
        <time>2019-01-01T13:37:51Z</time>
      </trkpt>
      <trkpt lat="41.7452550" lon="-0.9720870">
        <ele>284.7</ele>
        <time>2019-01-01T13:37:52Z</time>
      </trkpt>
      <trkpt lat="41.7452500" lon="-0.9720370">
        <ele>284.2</ele>
        <time>2019-01-01T13:37:53Z</time>
      </trkpt>
      <trkpt lat="41.7452520" lon="-0.9719670">
        <ele>283.5</ele>
        <time>2019-01-01T13:37:54Z</time>
      </trkpt>
      <trkpt lat="41.7452460" lon="-0.9718950">
        <ele>282.7</ele>
        <time>2019-01-01T13:37:55Z</time>
      </trkpt>
      <trkpt lat="41.7452480" lon="-0.9718310">
        <ele>282.1</ele>
        <time>2019-01-01T13:37:56Z</time>
      </trkpt>
      <trkpt lat="41.7452480" lon="-0.9717520">
        <ele>281.3</ele>
        <time>2019-01-01T13:37:57Z</time>
      </trkpt>
      <trkpt lat="41.7452390" lon="-0.9716770">
        <ele>280.7</ele>
        <time>2019-01-01T13:37:58Z</time>
      </trkpt>
      <trkpt lat="41.7452410" lon="-0.9716020">
        <ele>280.4</ele>
        <time>2019-01-01T13:37:59Z</time>
      </trkpt>
      <trkpt lat="41.7452500" lon="-0.9715240">
        <ele>280.3</ele>
        <time>2019-01-01T13:38:00Z</time>
      </trkpt>
      <trkpt lat="41.7452670" lon="-0.9714550">
        <ele>280.4</ele>
        <time>2019-01-01T13:38:01Z</time>
      </trkpt>
      <trkpt lat="41.7452780" lon="-0.9713870">
        <ele>280.6</ele>
        <time>2019-01-01T13:38:02Z</time>
      </trkpt>
      <trkpt lat="41.7452920" lon="-0.9713180">
        <ele>280.9</ele>
        <time>2019-01-01T13:38:03Z</time>
      </trkpt>
      <trkpt lat="41.7453010" lon="-0.9712400">
        <ele>281.4</ele>
        <time>2019-01-01T13:38:04Z</time>
      </trkpt>
      <trkpt lat="41.7453010" lon="-0.9711790">
        <ele>281.8</ele>
        <time>2019-01-01T13:38:05Z</time>
      </trkpt>
      <trkpt lat="41.7453140" lon="-0.9711180">
        <ele>282.2</ele>
        <time>2019-01-01T13:38:06Z</time>
      </trkpt>
      <trkpt lat="41.7453050" lon="-0.9710690">
        <ele>282.5</ele>
        <time>2019-01-01T13:38:07Z</time>
      </trkpt>
      <trkpt lat="41.7452970" lon="-0.9710090">
        <ele>282.9</ele>
        <time>2019-01-01T13:38:08Z</time>
      </trkpt>
      <trkpt lat="41.7452970" lon="-0.9709560">
        <ele>283.3</ele>
        <time>2019-01-01T13:38:09Z</time>
      </trkpt>
      <trkpt lat="41.7452990" lon="-0.9708960">
        <ele>283.8</ele>
        <time>2019-01-01T13:38:10Z</time>
      </trkpt>
      <trkpt lat="41.7452950" lon="-0.9708490">
        <ele>284.2</ele>
        <time>2019-01-01T13:38:11Z</time>
      </trkpt>
      <trkpt lat="41.7452900" lon="-0.9707930">
        <ele>284.7</ele>
        <time>2019-01-01T13:38:12Z</time>
      </trkpt>
      <trkpt lat="41.7452860" lon="-0.9707410">
        <ele>285.2</ele>
        <time>2019-01-01T13:38:13Z</time>
      </trkpt>
      <trkpt lat="41.7452770" lon="-0.9706830">
        <ele>285.6</ele>
        <time>2019-01-01T13:38:14Z</time>
      </trkpt>
      <trkpt lat="41.7452780" lon="-0.9706270">
        <ele>286.1</ele>
        <time>2019-01-01T13:38:15Z</time>
      </trkpt>
      <trkpt lat="41.7452690" lon="-0.9705620">
        <ele>286.5</ele>
        <time>2019-01-01T13:38:16Z</time>
      </trkpt>
      <trkpt lat="41.7452590" lon="-0.9704990">
        <ele>286.9</ele>
        <time>2019-01-01T13:38:17Z</time>
      </trkpt>
      <trkpt lat="41.7452420" lon="-0.9704320">
        <ele>287.1</ele>
        <time>2019-01-01T13:38:18Z</time>
      </trkpt>
      <trkpt lat="41.7452370" lon="-0.9703760">
        <ele>287.3</ele>
        <time>2019-01-01T13:38:19Z</time>
      </trkpt>
      <trkpt lat="41.7452280" lon="-0.9703230">
        <ele>287.4</ele>
        <time>2019-01-01T13:38:20Z</time>
      </trkpt>
      <trkpt lat="41.7452280" lon="-0.9702490">
        <ele>287.5</ele>
        <time>2019-01-01T13:38:21Z</time>
      </trkpt>
      <trkpt lat="41.7452270" lon="-0.9701860">
        <ele>287.5</ele>
        <time>2019-01-01T13:38:22Z</time>
      </trkpt>
      <trkpt lat="41.7452190" lon="-0.9701080">
        <ele>287.5</ele>
        <time>2019-01-01T13:38:23Z</time>
      </trkpt>
      <trkpt lat="41.7450480" lon="-0.9693670">
        <ele>280.7</ele>
        <time>2019-01-01T13:38:35Z</time>
      </trkpt>
      <trkpt lat="41.7450060" lon="-0.9693420">
        <ele>279.2</ele>
        <time>2019-01-01T13:38:36Z</time>
      </trkpt>
      <trkpt lat="41.7449930" lon="-0.9692160">
        <ele>276.5</ele>
        <time>2019-01-01T13:38:37Z</time>
      </trkpt>
      <trkpt lat="41.7449250" lon="-0.9691560">
        <ele>277.1</ele>
        <time>2019-01-01T13:38:38Z</time>
      </trkpt>
      <trkpt lat="41.7449170" lon="-0.9690610">
        <ele>277.6</ele>
        <time>2019-01-01T13:38:39Z</time>
      </trkpt>
      <trkpt lat="41.7448930" lon="-0.9689830">
        <ele>278.0</ele>
        <time>2019-01-01T13:38:40Z</time>
      </trkpt>
      <trkpt lat="41.7448960" lon="-0.9689430">
        <ele>278.2</ele>
        <time>2019-01-01T13:38:41Z</time>
      </trkpt>
      <trkpt lat="41.7448770" lon="-0.9688760">
        <ele>278.5</ele>
        <time>2019-01-01T13:38:42Z</time>
      </trkpt>
      <trkpt lat="41.7448470" lon="-0.9688050">
        <ele>278.8</ele>
        <time>2019-01-01T13:38:43Z</time>
      </trkpt>
      <trkpt lat="41.7448400" lon="-0.9687290">
        <ele>279.0</ele>
        <time>2019-01-01T13:38:44Z</time>
      </trkpt>
      <trkpt lat="41.7448240" lon="-0.9686680">
        <ele>279.1</ele>
        <time>2019-01-01T13:38:45Z</time>
      </trkpt>
      <trkpt lat="41.7448090" lon="-0.9685830">
        <ele>279.1</ele>
        <time>2019-01-01T13:38:46Z</time>
      </trkpt>
      <trkpt lat="41.7447880" lon="-0.9685300">
        <ele>279.1</ele>
        <time>2019-01-01T13:38:47Z</time>
      </trkpt>
      <trkpt lat="41.7447550" lon="-0.9684720">
        <ele>279.1</ele>
        <time>2019-01-01T13:38:48Z</time>
      </trkpt>
      <trkpt lat="41.7447270" lon="-0.9684080">
        <ele>279.0</ele>
        <time>2019-01-01T13:38:49Z</time>
      </trkpt>
      <trkpt lat="41.7446910" lon="-0.9683440">
        <ele>278.9</ele>
        <time>2019-01-01T13:38:50Z</time>
      </trkpt>
      <trkpt lat="41.7446560" lon="-0.9682690">
        <ele>278.7</ele>
        <time>2019-01-01T13:38:51Z</time>
      </trkpt>
      <trkpt lat="41.7446150" lon="-0.9682150">
        <ele>278.6</ele>
        <time>2019-01-01T13:38:52Z</time>
      </trkpt>
      <trkpt lat="41.7445800" lon="-0.9681520">
        <ele>278.4</ele>
        <time>2019-01-01T13:38:53Z</time>
      </trkpt>
      <trkpt lat="41.7445600" lon="-0.9681230">
        <ele>278.3</ele>
        <time>2019-01-01T13:38:54Z</time>
      </trkpt>
      <trkpt lat="41.7445080" lon="-0.9680750">
        <ele>278.0</ele>
        <time>2019-01-01T13:38:55Z</time>
      </trkpt>
      <trkpt lat="41.7444660" lon="-0.9680250">
        <ele>277.8</ele>
        <time>2019-01-01T13:38:56Z</time>
      </trkpt>
      <trkpt lat="41.7444230" lon="-0.9679840">
        <ele>277.7</ele>
        <time>2019-01-01T13:38:57Z</time>
      </trkpt>
      <trkpt lat="41.7443870" lon="-0.9679310">
        <ele>277.7</ele>
        <time>2019-01-01T13:38:58Z</time>
      </trkpt>
      <trkpt lat="41.7443650" lon="-0.9678900">
        <ele>277.7</ele>
        <time>2019-01-01T13:38:59Z</time>
      </trkpt>
      <trkpt lat="41.7443250" lon="-0.9678200">
        <ele>277.7</ele>
        <time>2019-01-01T13:39:00Z</time>
      </trkpt>
      <trkpt lat="41.7442930" lon="-0.9677640">
        <ele>277.8</ele>
        <time>2019-01-01T13:39:01Z</time>
      </trkpt>
      <trkpt lat="41.7442480" lon="-0.9677080">
        <ele>277.9</ele>
        <time>2019-01-01T13:39:02Z</time>
      </trkpt>
      <trkpt lat="41.7442150" lon="-0.9676560">
        <ele>277.9</ele>
        <time>2019-01-01T13:39:03Z</time>
      </trkpt>
      <trkpt lat="41.7441720" lon="-0.9675990">
        <ele>278.0</ele>
        <time>2019-01-01T13:39:04Z</time>
      </trkpt>
      <trkpt lat="41.7441240" lon="-0.9675490">
        <ele>278.1</ele>
        <time>2019-01-01T13:39:05Z</time>
      </trkpt>
      <trkpt lat="41.7440870" lon="-0.9675100">
        <ele>278.1</ele>
        <time>2019-01-01T13:39:06Z</time>
      </trkpt>
      <trkpt lat="41.7440500" lon="-0.9674750">
        <ele>278.1</ele>
        <time>2019-01-01T13:39:07Z</time>
      </trkpt>
      <trkpt lat="41.7440010" lon="-0.9674380">
        <ele>278.1</ele>
        <time>2019-01-01T13:39:08Z</time>
      </trkpt>
      <trkpt lat="41.7439760" lon="-0.9674040">
        <ele>278.1</ele>
        <time>2019-01-01T13:39:09Z</time>
      </trkpt>
      <trkpt lat="41.7439390" lon="-0.9673620">
        <ele>278.2</ele>
        <time>2019-01-01T13:39:10Z</time>
      </trkpt>
      <trkpt lat="41.7439090" lon="-0.9673280">
        <ele>278.2</ele>
        <time>2019-01-01T13:39:11Z</time>
      </trkpt>
      <trkpt lat="41.7438680" lon="-0.9672780">
        <ele>278.2</ele>
        <time>2019-01-01T13:39:12Z</time>
      </trkpt>
      <trkpt lat="41.7438400" lon="-0.9672490">
        <ele>278.2</ele>
        <time>2019-01-01T13:39:13Z</time>
      </trkpt>
      <trkpt lat="41.7438180" lon="-0.9672090">
        <ele>278.2</ele>
        <time>2019-01-01T13:39:14Z</time>
      </trkpt>
      <trkpt lat="41.7437880" lon="-0.9671560">
        <ele>278.2</ele>
        <time>2019-01-01T13:39:15Z</time>
      </trkpt>
      <trkpt lat="41.7437440" lon="-0.9671010">
        <ele>278.2</ele>
        <time>2019-01-01T13:39:16Z</time>
      </trkpt>
      <trkpt lat="41.7437100" lon="-0.9670560">
        <ele>278.2</ele>
        <time>2019-01-01T13:39:17Z</time>
      </trkpt>
      <trkpt lat="41.7436930" lon="-0.9670020">
        <ele>278.2</ele>
        <time>2019-01-01T13:39:18Z</time>
      </trkpt>
      <trkpt lat="41.7436580" lon="-0.9669430">
        <ele>278.1</ele>
        <time>2019-01-01T13:39:19Z</time>
      </trkpt>
      <trkpt lat="41.7436240" lon="-0.9668850">
        <ele>278.0</ele>
        <time>2019-01-01T13:39:20Z</time>
      </trkpt>
      <trkpt lat="41.7435970" lon="-0.9668250">
        <ele>277.9</ele>
        <time>2019-01-01T13:39:21Z</time>
      </trkpt>
      <trkpt lat="41.7435820" lon="-0.9667670">
        <ele>277.9</ele>
        <time>2019-01-01T13:39:22Z</time>
      </trkpt>
      <trkpt lat="41.7435760" lon="-0.9667050">
        <ele>277.8</ele>
        <time>2019-01-01T13:39:23Z</time>
      </trkpt>
      <trkpt lat="41.7435700" lon="-0.9666420">
        <ele>277.7</ele>
        <time>2019-01-01T13:39:24Z</time>
      </trkpt>
      <trkpt lat="41.7435760" lon="-0.9665590">
        <ele>277.5</ele>
        <time>2019-01-01T13:39:25Z</time>
      </trkpt>
      <trkpt lat="41.7435750" lon="-0.9664950">
        <ele>277.4</ele>
        <time>2019-01-01T13:39:26Z</time>
      </trkpt>
      <trkpt lat="41.7435700" lon="-0.9664300">
        <ele>277.3</ele>
        <time>2019-01-01T13:39:27Z</time>
      </trkpt>
      <trkpt lat="41.7435650" lon="-0.9663620">
        <ele>277.3</ele>
        <time>2019-01-01T13:39:28Z</time>
      </trkpt>
      <trkpt lat="41.7435550" lon="-0.9663040">
        <ele>277.2</ele>
        <time>2019-01-01T13:39:29Z</time>
      </trkpt>
      <trkpt lat="41.7435390" lon="-0.9662390">
        <ele>277.2</ele>
        <time>2019-01-01T13:39:30Z</time>
      </trkpt>
      <trkpt lat="41.7435180" lon="-0.9661890">
        <ele>277.2</ele>
        <time>2019-01-01T13:39:31Z</time>
      </trkpt>
      <trkpt lat="41.7434930" lon="-0.9661420">
        <ele>277.1</ele>
        <time>2019-01-01T13:39:32Z</time>
      </trkpt>
      <trkpt lat="41.7434690" lon="-0.9660840">
        <ele>277.1</ele>
        <time>2019-01-01T13:39:33Z</time>
      </trkpt>
      <trkpt lat="41.7434530" lon="-0.9660290">
        <ele>277.0</ele>
        <time>2019-01-01T13:39:34Z</time>
      </trkpt>
      <trkpt lat="41.7434410" lon="-0.9659580">
        <ele>276.9</ele>
        <time>2019-01-01T13:39:35Z</time>
      </trkpt>
      <trkpt lat="41.7434070" lon="-0.9659070">
        <ele>276.8</ele>
        <time>2019-01-01T13:39:36Z</time>
      </trkpt>
      <trkpt lat="41.7433780" lon="-0.9658390">
        <ele>276.6</ele>
        <time>2019-01-01T13:39:37Z</time>
      </trkpt>
      <trkpt lat="41.7433610" lon="-0.9657740">
        <ele>276.4</ele>
        <time>2019-01-01T13:39:38Z</time>
      </trkpt>
      <trkpt lat="41.7433270" lon="-0.9657130">
        <ele>276.2</ele>
        <time>2019-01-01T13:39:39Z</time>
      </trkpt>
      <trkpt lat="41.7432910" lon="-0.9656440">
        <ele>275.9</ele>
        <time>2019-01-01T13:39:40Z</time>
      </trkpt>
      <trkpt lat="41.7432770" lon="-0.9655890">
        <ele>275.8</ele>
        <time>2019-01-01T13:39:41Z</time>
      </trkpt>
      <trkpt lat="41.7432490" lon="-0.9655340">
        <ele>275.6</ele>
        <time>2019-01-01T13:39:42Z</time>
      </trkpt>
      <trkpt lat="41.7432070" lon="-0.9654590">
        <ele>275.4</ele>
        <time>2019-01-01T13:39:43Z</time>
      </trkpt>
      <trkpt lat="41.7431840" lon="-0.9653970">
        <ele>275.3</ele>
        <time>2019-01-01T13:39:44Z</time>
      </trkpt>
      <trkpt lat="41.7431630" lon="-0.9653550">
        <ele>275.3</ele>
        <time>2019-01-01T13:39:45Z</time>
      </trkpt>
      <trkpt lat="41.7431220" lon="-0.9652960">
        <ele>275.3</ele>
        <time>2019-01-01T13:39:46Z</time>
      </trkpt>
      <trkpt lat="41.7430990" lon="-0.9652450">
        <ele>275.2</ele>
        <time>2019-01-01T13:39:47Z</time>
      </trkpt>
      <trkpt lat="41.7430710" lon="-0.9651900">
        <ele>275.2</ele>
        <time>2019-01-01T13:39:48Z</time>
      </trkpt>
      <trkpt lat="41.7430440" lon="-0.9651390">
        <ele>275.1</ele>
        <time>2019-01-01T13:39:49Z</time>
      </trkpt>
      <trkpt lat="41.7430090" lon="-0.9650820">
        <ele>275.1</ele>
        <time>2019-01-01T13:39:50Z</time>
      </trkpt>
      <trkpt lat="41.7429830" lon="-0.9650340">
        <ele>275.0</ele>
        <time>2019-01-01T13:39:51Z</time>
      </trkpt>
      <trkpt lat="41.7429550" lon="-0.9649980">
        <ele>274.9</ele>
        <time>2019-01-01T13:39:52Z</time>
      </trkpt>
      <trkpt lat="41.7429210" lon="-0.9649600">
        <ele>274.8</ele>
        <time>2019-01-01T13:39:53Z</time>
      </trkpt>
      <trkpt lat="41.7428930" lon="-0.9649200">
        <ele>274.7</ele>
        <time>2019-01-01T13:39:54Z</time>
      </trkpt>
      <trkpt lat="41.7428720" lon="-0.9648830">
        <ele>274.6</ele>
        <time>2019-01-01T13:39:55Z</time>
      </trkpt>
      <trkpt lat="41.7428700" lon="-0.9648440">
        <ele>274.5</ele>
        <time>2019-01-01T13:39:56Z</time>
      </trkpt>
      <trkpt lat="41.7428550" lon="-0.9648060">
        <ele>274.4</ele>
        <time>2019-01-01T13:39:57Z</time>
      </trkpt>
      <trkpt lat="41.7428410" lon="-0.9647640">
        <ele>274.3</ele>
        <time>2019-01-01T13:39:58Z</time>
      </trkpt>
      <trkpt lat="41.7428230" lon="-0.9647320">
        <ele>274.1</ele>
        <time>2019-01-01T13:39:59Z</time>
      </trkpt>
      <trkpt lat="41.7427950" lon="-0.9646920">
        <ele>273.9</ele>
        <time>2019-01-01T13:40:01Z</time>
      </trkpt>
      <trkpt lat="41.7427610" lon="-0.9646600">
        <ele>273.8</ele>
        <time>2019-01-01T13:40:03Z</time>
      </trkpt>
      <trkpt lat="41.7427250" lon="-0.9646320">
        <ele>273.6</ele>
        <time>2019-01-01T13:40:05Z</time>
      </trkpt>
      <trkpt lat="41.7426870" lon="-0.9645970">
        <ele>273.4</ele>
        <time>2019-01-01T13:40:07Z</time>
      </trkpt>
      <trkpt lat="41.7426510" lon="-0.9645480">
        <ele>273.1</ele>
        <time>2019-01-01T13:40:09Z</time>
      </trkpt>
      <trkpt lat="41.7426320" lon="-0.9645180">
        <ele>272.9</ele>
        <time>2019-01-01T13:40:10Z</time>
      </trkpt>
      <trkpt lat="41.7426130" lon="-0.9644900">
        <ele>272.7</ele>
        <time>2019-01-01T13:40:11Z</time>
      </trkpt>
      <trkpt lat="41.7425940" lon="-0.9644620">
        <ele>272.6</ele>
        <time>2019-01-01T13:40:12Z</time>
      </trkpt>
      <trkpt lat="41.7425590" lon="-0.9644100">
        <ele>272.2</ele>
        <time>2019-01-01T13:40:14Z</time>
      </trkpt>
      <trkpt lat="41.7425290" lon="-0.9643610">
        <ele>271.9</ele>
        <time>2019-01-01T13:40:16Z</time>
      </trkpt>
      <trkpt lat="41.7425020" lon="-0.9643070">
        <ele>271.7</ele>
        <time>2019-01-01T13:40:18Z</time>
      </trkpt>
      <trkpt lat="41.7424730" lon="-0.9642470">
        <ele>271.5</ele>
        <time>2019-01-01T13:40:20Z</time>
      </trkpt>
      <trkpt lat="41.7424570" lon="-0.9642160">
        <ele>271.4</ele>
        <time>2019-01-01T13:40:21Z</time>
      </trkpt>
      <trkpt lat="41.7424390" lon="-0.9641850">
        <ele>271.3</ele>
        <time>2019-01-01T13:40:22Z</time>
      </trkpt>
      <trkpt lat="41.7424200" lon="-0.9641530">
        <ele>271.1</ele>
        <time>2019-01-01T13:40:23Z</time>
      </trkpt>
      <trkpt lat="41.7423950" lon="-0.9641080">
        <ele>270.8</ele>
        <time>2019-01-01T13:40:24Z</time>
      </trkpt>
      <trkpt lat="41.7423710" lon="-0.9640630">
        <ele>270.6</ele>
        <time>2019-01-01T13:40:25Z</time>
      </trkpt>
      <trkpt lat="41.7423450" lon="-0.9640180">
        <ele>270.5</ele>
        <time>2019-01-01T13:40:26Z</time>
      </trkpt>
      <trkpt lat="41.7423170" lon="-0.9639730">
        <ele>270.3</ele>
        <time>2019-01-01T13:40:27Z</time>
      </trkpt>
      <trkpt lat="41.7422880" lon="-0.9639280">
        <ele>270.3</ele>
        <time>2019-01-01T13:40:28Z</time>
      </trkpt>
      <trkpt lat="41.7422610" lon="-0.9638850">
        <ele>270.3</ele>
        <time>2019-01-01T13:40:29Z</time>
      </trkpt>
      <trkpt lat="41.7422340" lon="-0.9638410">
        <ele>270.2</ele>
        <time>2019-01-01T13:40:30Z</time>
      </trkpt>
      <trkpt lat="41.7422080" lon="-0.9637950">
        <ele>270.2</ele>
        <time>2019-01-01T13:40:31Z</time>
      </trkpt>
      <trkpt lat="41.7421830" lon="-0.9637480">
        <ele>270.1</ele>
        <time>2019-01-01T13:40:32Z</time>
      </trkpt>
      <trkpt lat="41.7421560" lon="-0.9637010">
        <ele>270.1</ele>
        <time>2019-01-01T13:40:33Z</time>
      </trkpt>
      <trkpt lat="41.7421050" lon="-0.9636310">
        <ele>270.1</ele>
        <time>2019-01-01T13:40:34Z</time>
      </trkpt>
      <trkpt lat="41.7420640" lon="-0.9635880">
        <ele>270.1</ele>
        <time>2019-01-01T13:40:35Z</time>
      </trkpt>
      <trkpt lat="41.7420330" lon="-0.9635410">
        <ele>270.1</ele>
        <time>2019-01-01T13:40:36Z</time>
      </trkpt>
      <trkpt lat="41.7420070" lon="-0.9635030">
        <ele>270.1</ele>
        <time>2019-01-01T13:40:37Z</time>
      </trkpt>
      <trkpt lat="41.7419770" lon="-0.9634610">
        <ele>270.1</ele>
        <time>2019-01-01T13:40:38Z</time>
      </trkpt>
      <trkpt lat="41.7419650" lon="-0.9634210">
        <ele>270.0</ele>
        <time>2019-01-01T13:40:39Z</time>
      </trkpt>
      <trkpt lat="41.7419200" lon="-0.9633770">
        <ele>270.0</ele>
        <time>2019-01-01T13:40:40Z</time>
      </trkpt>
      <trkpt lat="41.7418850" lon="-0.9633230">
        <ele>270.0</ele>
        <time>2019-01-01T13:40:41Z</time>
      </trkpt>
      <trkpt lat="41.7418470" lon="-0.9632760">
        <ele>270.0</ele>
        <time>2019-01-01T13:40:42Z</time>
      </trkpt>
      <trkpt lat="41.7418000" lon="-0.9632210">
        <ele>270.0</ele>
        <time>2019-01-01T13:40:43Z</time>
      </trkpt>
      <trkpt lat="41.7417590" lon="-0.9631630">
        <ele>270.0</ele>
        <time>2019-01-01T13:40:44Z</time>
      </trkpt>
      <trkpt lat="41.7417120" lon="-0.9630890">
        <ele>270.0</ele>
        <time>2019-01-01T13:40:45Z</time>
      </trkpt>
      <trkpt lat="41.7416760" lon="-0.9630220">
        <ele>269.9</ele>
        <time>2019-01-01T13:40:47Z</time>
      </trkpt>
      <trkpt lat="41.7416310" lon="-0.9629810">
        <ele>269.9</ele>
        <time>2019-01-01T13:40:48Z</time>
      </trkpt>
      <trkpt lat="41.7416010" lon="-0.9629420">
        <ele>269.9</ele>
        <time>2019-01-01T13:40:49Z</time>
      </trkpt>
      <trkpt lat="41.7415650" lon="-0.9628910">
        <ele>269.8</ele>
        <time>2019-01-01T13:40:50Z</time>
      </trkpt>
      <trkpt lat="41.7415350" lon="-0.9628520">
        <ele>269.7</ele>
        <time>2019-01-01T13:40:51Z</time>
      </trkpt>
      <trkpt lat="41.7415050" lon="-0.9628180">
        <ele>269.7</ele>
        <time>2019-01-01T13:40:52Z</time>
      </trkpt>
      <trkpt lat="41.7414770" lon="-0.9627710">
        <ele>269.6</ele>
        <time>2019-01-01T13:40:53Z</time>
      </trkpt>
      <trkpt lat="41.7414730" lon="-0.9627310">
        <ele>269.5</ele>
        <time>2019-01-01T13:40:54Z</time>
      </trkpt>
      <trkpt lat="41.7414560" lon="-0.9626690">
        <ele>269.3</ele>
        <time>2019-01-01T13:40:55Z</time>
      </trkpt>
      <trkpt lat="41.7414360" lon="-0.9626170">
        <ele>269.2</ele>
        <time>2019-01-01T13:40:56Z</time>
      </trkpt>
      <trkpt lat="41.7414160" lon="-0.9625530">
        <ele>269.0</ele>
        <time>2019-01-01T13:40:57Z</time>
      </trkpt>
      <trkpt lat="41.7414020" lon="-0.9625010">
        <ele>269.0</ele>
        <time>2019-01-01T13:40:58Z</time>
      </trkpt>
      <trkpt lat="41.7413860" lon="-0.9624400">
        <ele>269.0</ele>
        <time>2019-01-01T13:40:59Z</time>
      </trkpt>
      <trkpt lat="41.7413710" lon="-0.9623860">
        <ele>269.0</ele>
        <time>2019-01-01T13:41:00Z</time>
      </trkpt>
      <trkpt lat="41.7413610" lon="-0.9623190">
        <ele>269.0</ele>
        <time>2019-01-01T13:41:01Z</time>
      </trkpt>
      <trkpt lat="41.7413510" lon="-0.9622620">
        <ele>269.0</ele>
        <time>2019-01-01T13:41:02Z</time>
      </trkpt>
      <trkpt lat="41.7413510" lon="-0.9622040">
        <ele>269.0</ele>
        <time>2019-01-01T13:41:03Z</time>
      </trkpt>
      <trkpt lat="41.7413500" lon="-0.9621480">
        <ele>269.0</ele>
        <time>2019-01-01T13:41:04Z</time>
      </trkpt>
      <trkpt lat="41.7413510" lon="-0.9620880">
        <ele>269.0</ele>
        <time>2019-01-01T13:41:05Z</time>
      </trkpt>
      <trkpt lat="41.7413460" lon="-0.9620220">
        <ele>268.9</ele>
        <time>2019-01-01T13:41:06Z</time>
      </trkpt>
      <trkpt lat="41.7413390" lon="-0.9619560">
        <ele>268.9</ele>
        <time>2019-01-01T13:41:07Z</time>
      </trkpt>
      <trkpt lat="41.7413410" lon="-0.9618880">
        <ele>268.9</ele>
        <time>2019-01-01T13:41:08Z</time>
      </trkpt>
      <trkpt lat="41.7413330" lon="-0.9618190">
        <ele>268.9</ele>
        <time>2019-01-01T13:41:09Z</time>
      </trkpt>
      <trkpt lat="41.7413330" lon="-0.9617520">
        <ele>268.8</ele>
        <time>2019-01-01T13:41:10Z</time>
      </trkpt>
      <trkpt lat="41.7413270" lon="-0.9616950">
        <ele>268.8</ele>
        <time>2019-01-01T13:41:11Z</time>
      </trkpt>
      <trkpt lat="41.7413240" lon="-0.9616280">
        <ele>268.7</ele>
        <time>2019-01-01T13:41:12Z</time>
      </trkpt>
      <trkpt lat="41.7413100" lon="-0.9615650">
        <ele>268.6</ele>
        <time>2019-01-01T13:41:13Z</time>
      </trkpt>
      <trkpt lat="41.7413030" lon="-0.9615010">
        <ele>268.5</ele>
        <time>2019-01-01T13:41:14Z</time>
      </trkpt>
      <trkpt lat="41.7412980" lon="-0.9614390">
        <ele>268.4</ele>
        <time>2019-01-01T13:41:15Z</time>
      </trkpt>
      <trkpt lat="41.7412880" lon="-0.9613660">
        <ele>268.4</ele>
        <time>2019-01-01T13:41:16Z</time>
      </trkpt>
      <trkpt lat="41.7412890" lon="-0.9613030">
        <ele>268.3</ele>
        <time>2019-01-01T13:41:17Z</time>
      </trkpt>
      <trkpt lat="41.7412860" lon="-0.9612420">
        <ele>268.4</ele>
        <time>2019-01-01T13:41:18Z</time>
      </trkpt>
      <trkpt lat="41.7412790" lon="-0.9611740">
        <ele>268.4</ele>
        <time>2019-01-01T13:41:19Z</time>
      </trkpt>
      <trkpt lat="41.7412710" lon="-0.9611030">
        <ele>268.5</ele>
        <time>2019-01-01T13:41:20Z</time>
      </trkpt>
      <trkpt lat="41.7412630" lon="-0.9610410">
        <ele>268.6</ele>
        <time>2019-01-01T13:41:21Z</time>
      </trkpt>
      <trkpt lat="41.7412490" lon="-0.9609780">
        <ele>268.6</ele>
        <time>2019-01-01T13:41:22Z</time>
      </trkpt>
      <trkpt lat="41.7412420" lon="-0.9609230">
        <ele>268.5</ele>
        <time>2019-01-01T13:41:23Z</time>
      </trkpt>
      <trkpt lat="41.7412330" lon="-0.9608530">
        <ele>268.5</ele>
        <time>2019-01-01T13:41:24Z</time>
      </trkpt>
      <trkpt lat="41.7412290" lon="-0.9607890">
        <ele>268.3</ele>
        <time>2019-01-01T13:41:25Z</time>
      </trkpt>
      <trkpt lat="41.7412230" lon="-0.9607260">
        <ele>268.1</ele>
        <time>2019-01-01T13:41:26Z</time>
      </trkpt>
      <trkpt lat="41.7412090" lon="-0.9606670">
        <ele>267.9</ele>
        <time>2019-01-01T13:41:27Z</time>
      </trkpt>
      <trkpt lat="41.7411980" lon="-0.9606040">
        <ele>267.7</ele>
        <time>2019-01-01T13:41:28Z</time>
      </trkpt>
      <trkpt lat="41.7411910" lon="-0.9605420">
        <ele>267.5</ele>
        <time>2019-01-01T13:41:29Z</time>
      </trkpt>
      <trkpt lat="41.7411710" lon="-0.9604820">
        <ele>267.3</ele>
        <time>2019-01-01T13:41:30Z</time>
      </trkpt>
      <trkpt lat="41.7411410" lon="-0.9604250">
        <ele>267.1</ele>
        <time>2019-01-01T13:41:31Z</time>
      </trkpt>
      <trkpt lat="41.7411260" lon="-0.9603530">
        <ele>267.0</ele>
        <time>2019-01-01T13:41:32Z</time>
      </trkpt>
      <trkpt lat="41.7410940" lon="-0.9602930">
        <ele>266.9</ele>
        <time>2019-01-01T13:41:33Z</time>
      </trkpt>
      <trkpt lat="41.7410920" lon="-0.9601430">
        <ele>266.6</ele>
        <time>2019-01-01T13:41:34Z</time>
      </trkpt>
      <trkpt lat="41.7410720" lon="-0.9600760">
        <ele>266.3</ele>
        <time>2019-01-01T13:41:35Z</time>
      </trkpt>
      <trkpt lat="41.7410390" lon="-0.9600270">
        <ele>266.1</ele>
        <time>2019-01-01T13:41:36Z</time>
      </trkpt>
      <trkpt lat="41.7410090" lon="-0.9599840">
        <ele>265.9</ele>
        <time>2019-01-01T13:41:37Z</time>
      </trkpt>
      <trkpt lat="41.7409670" lon="-0.9599400">
        <ele>265.6</ele>
        <time>2019-01-01T13:41:38Z</time>
      </trkpt>
      <trkpt lat="41.7409460" lon="-0.9598700">
        <ele>265.4</ele>
        <time>2019-01-01T13:41:39Z</time>
      </trkpt>
      <trkpt lat="41.7409120" lon="-0.9598180">
        <ele>265.1</ele>
        <time>2019-01-01T13:41:40Z</time>
      </trkpt>
      <trkpt lat="41.7408900" lon="-0.9597640">
        <ele>264.9</ele>
        <time>2019-01-01T13:41:41Z</time>
      </trkpt>
      <trkpt lat="41.7408560" lon="-0.9597030">
        <ele>264.6</ele>
        <time>2019-01-01T13:41:42Z</time>
      </trkpt>
      <trkpt lat="41.7408330" lon="-0.9596440">
        <ele>264.4</ele>
        <time>2019-01-01T13:41:43Z</time>
      </trkpt>
      <trkpt lat="41.7408090" lon="-0.9595840">
        <ele>264.3</ele>
        <time>2019-01-01T13:41:44Z</time>
      </trkpt>
      <trkpt lat="41.7407850" lon="-0.9595200">
        <ele>264.3</ele>
        <time>2019-01-01T13:41:45Z</time>
      </trkpt>
      <trkpt lat="41.7407710" lon="-0.9594520">
        <ele>264.4</ele>
        <time>2019-01-01T13:41:46Z</time>
      </trkpt>
      <trkpt lat="41.7407410" lon="-0.9593900">
        <ele>264.5</ele>
        <time>2019-01-01T13:41:47Z</time>
      </trkpt>
      <trkpt lat="41.7407080" lon="-0.9593260">
        <ele>264.7</ele>
        <time>2019-01-01T13:41:48Z</time>
      </trkpt>
      <trkpt lat="41.7406770" lon="-0.9592550">
        <ele>264.8</ele>
        <time>2019-01-01T13:41:49Z</time>
      </trkpt>
      <trkpt lat="41.7406390" lon="-0.9591950">
        <ele>264.9</ele>
        <time>2019-01-01T13:41:50Z</time>
      </trkpt>
      <trkpt lat="41.7406040" lon="-0.9591350">
        <ele>264.9</ele>
        <time>2019-01-01T13:41:51Z</time>
      </trkpt>
      <trkpt lat="41.7405770" lon="-0.9590820">
        <ele>264.9</ele>
        <time>2019-01-01T13:41:52Z</time>
      </trkpt>
      <trkpt lat="41.7405430" lon="-0.9590240">
        <ele>264.8</ele>
        <time>2019-01-01T13:41:53Z</time>
      </trkpt>
      <trkpt lat="41.7405110" lon="-0.9589760">
        <ele>264.7</ele>
        <time>2019-01-01T13:41:54Z</time>
      </trkpt>
      <trkpt lat="41.7404800" lon="-0.9589270">
        <ele>264.6</ele>
        <time>2019-01-01T13:41:55Z</time>
      </trkpt>
      <trkpt lat="41.7404210" lon="-0.9588630">
        <ele>264.5</ele>
        <time>2019-01-01T13:41:56Z</time>
      </trkpt>
      <trkpt lat="41.7403790" lon="-0.9588100">
        <ele>264.3</ele>
        <time>2019-01-01T13:41:57Z</time>
      </trkpt>
      <trkpt lat="41.7403350" lon="-0.9587480">
        <ele>264.1</ele>
        <time>2019-01-01T13:41:58Z</time>
      </trkpt>
      <trkpt lat="41.7403130" lon="-0.9587090">
        <ele>263.9</ele>
        <time>2019-01-01T13:41:59Z</time>
      </trkpt>
      <trkpt lat="41.7402740" lon="-0.9586600">
        <ele>263.6</ele>
        <time>2019-01-01T13:42:00Z</time>
      </trkpt>
      <trkpt lat="41.7402330" lon="-0.9586090">
        <ele>263.2</ele>
        <time>2019-01-01T13:42:01Z</time>
      </trkpt>
      <trkpt lat="41.7401960" lon="-0.9585680">
        <ele>262.9</ele>
        <time>2019-01-01T13:42:02Z</time>
      </trkpt>
      <trkpt lat="41.7401630" lon="-0.9585230">
        <ele>262.5</ele>
        <time>2019-01-01T13:42:03Z</time>
      </trkpt>
      <trkpt lat="41.7401430" lon="-0.9584630">
        <ele>262.1</ele>
        <time>2019-01-01T13:42:04Z</time>
      </trkpt>
      <trkpt lat="41.7401120" lon="-0.9583830">
        <ele>261.5</ele>
        <time>2019-01-01T13:42:06Z</time>
      </trkpt>
      <trkpt lat="41.7399900" lon="-0.9583150">
        <ele>260.5</ele>
        <time>2019-01-01T13:42:07Z</time>
      </trkpt>
      <trkpt lat="41.7399870" lon="-0.9582500">
        <ele>259.9</ele>
        <time>2019-01-01T13:42:08Z</time>
      </trkpt>
      <trkpt lat="41.7399680" lon="-0.9582050">
        <ele>259.5</ele>
        <time>2019-01-01T13:42:09Z</time>
      </trkpt>
      <trkpt lat="41.7399490" lon="-0.9581550">
        <ele>259.0</ele>
        <time>2019-01-01T13:42:10Z</time>
      </trkpt>
      <trkpt lat="41.7399300" lon="-0.9581080">
        <ele>258.5</ele>
        <time>2019-01-01T13:42:11Z</time>
      </trkpt>
      <trkpt lat="41.7398880" lon="-0.9580810">
        <ele>257.9</ele>
        <time>2019-01-01T13:42:12Z</time>
      </trkpt>
      <trkpt lat="41.7398490" lon="-0.9580530">
        <ele>257.4</ele>
        <time>2019-01-01T13:42:13Z</time>
      </trkpt>
      <trkpt lat="41.7397780" lon="-0.9580060">
        <ele>256.3</ele>
        <time>2019-01-01T13:42:14Z</time>
      </trkpt>
      <trkpt lat="41.7397270" lon="-0.9579400">
        <ele>255.4</ele>
        <time>2019-01-01T13:42:15Z</time>
      </trkpt>
      <trkpt lat="41.7396860" lon="-0.9578590">
        <ele>254.4</ele>
        <time>2019-01-01T13:42:16Z</time>
      </trkpt>
      <trkpt lat="41.7396630" lon="-0.9577770">
        <ele>253.5</ele>
        <time>2019-01-01T13:42:17Z</time>
      </trkpt>
      <trkpt lat="41.7395990" lon="-0.9577370">
        <ele>252.4</ele>
        <time>2019-01-01T13:42:18Z</time>
      </trkpt>
      <trkpt lat="41.7395150" lon="-0.9577040">
        <ele>251.0</ele>
        <time>2019-01-01T13:42:19Z</time>
      </trkpt>
      <trkpt lat="41.7395050" lon="-0.9576610">
        <ele>250.4</ele>
        <time>2019-01-01T13:42:20Z</time>
      </trkpt>
      <trkpt lat="41.7395090" lon="-0.9575920">
        <ele>250.4</ele>
        <time>2019-01-01T13:42:21Z</time>
      </trkpt>
      <trkpt lat="41.7394800" lon="-0.9575290">
        <ele>250.6</ele>
        <time>2019-01-01T13:42:22Z</time>
      </trkpt>
      <trkpt lat="41.7394690" lon="-0.9574800">
        <ele>250.7</ele>
        <time>2019-01-01T13:42:23Z</time>
      </trkpt>
      <trkpt lat="41.7394360" lon="-0.9574360">
        <ele>250.9</ele>
        <time>2019-01-01T13:42:24Z</time>
      </trkpt>
      <trkpt lat="41.7394100" lon="-0.9574050">
        <ele>251.0</ele>
        <time>2019-01-01T13:42:25Z</time>
      </trkpt>
      <trkpt lat="41.7393720" lon="-0.9573960">
        <ele>251.2</ele>
        <time>2019-01-01T13:42:26Z</time>
      </trkpt>
      <trkpt lat="41.7393240" lon="-0.9573970">
        <ele>251.4</ele>
        <time>2019-01-01T13:42:27Z</time>
      </trkpt>
      <trkpt lat="41.7392800" lon="-0.9573670">
        <ele>251.5</ele>
        <time>2019-01-01T13:42:28Z</time>
      </trkpt>
      <trkpt lat="41.7392490" lon="-0.9573430">
        <ele>251.7</ele>
        <time>2019-01-01T13:42:29Z</time>
      </trkpt>
      <trkpt lat="41.7391970" lon="-0.9573100">
        <ele>251.9</ele>
        <time>2019-01-01T13:42:30Z</time>
      </trkpt>
      <trkpt lat="41.7391640" lon="-0.9572720">
        <ele>252.1</ele>
        <time>2019-01-01T13:42:31Z</time>
      </trkpt>
      <trkpt lat="41.7391390" lon="-0.9572310">
        <ele>252.3</ele>
        <time>2019-01-01T13:42:32Z</time>
      </trkpt>
      <trkpt lat="41.7391100" lon="-0.9572050">
        <ele>252.4</ele>
        <time>2019-01-01T13:42:33Z</time>
      </trkpt>
      <trkpt lat="41.7390760" lon="-0.9571760">
        <ele>252.6</ele>
        <time>2019-01-01T13:42:34Z</time>
      </trkpt>
      <trkpt lat="41.7390420" lon="-0.9571560">
        <ele>252.8</ele>
        <time>2019-01-01T13:42:35Z</time>
      </trkpt>
      <trkpt lat="41.7390100" lon="-0.9571340">
        <ele>253.0</ele>
        <time>2019-01-01T13:42:36Z</time>
      </trkpt>
      <trkpt lat="41.7389740" lon="-0.9571140">
        <ele>253.1</ele>
        <time>2019-01-01T13:42:37Z</time>
      </trkpt>
      <trkpt lat="41.7389380" lon="-0.9570990">
        <ele>253.4</ele>
        <time>2019-01-01T13:42:38Z</time>
      </trkpt>
      <trkpt lat="41.7389030" lon="-0.9570870">
        <ele>253.5</ele>
        <time>2019-01-01T13:42:39Z</time>
      </trkpt>
      <trkpt lat="41.7388670" lon="-0.9570790">
        <ele>253.7</ele>
        <time>2019-01-01T13:42:40Z</time>
      </trkpt>
      <trkpt lat="41.7388290" lon="-0.9570740">
        <ele>253.9</ele>
        <time>2019-01-01T13:42:41Z</time>
      </trkpt>
      <trkpt lat="41.7387940" lon="-0.9570710">
        <ele>254.1</ele>
        <time>2019-01-01T13:42:42Z</time>
      </trkpt>
      <trkpt lat="41.7387600" lon="-0.9570680">
        <ele>254.3</ele>
        <time>2019-01-01T13:42:43Z</time>
      </trkpt>
      <trkpt lat="41.7387320" lon="-0.9570670">
        <ele>254.4</ele>
        <time>2019-01-01T13:42:44Z</time>
      </trkpt>
      <trkpt lat="41.7387020" lon="-0.9570660">
        <ele>254.5</ele>
        <time>2019-01-01T13:42:45Z</time>
      </trkpt>
      <trkpt lat="41.7386730" lon="-0.9570610">
        <ele>254.6</ele>
        <time>2019-01-01T13:42:46Z</time>
      </trkpt>
      <trkpt lat="41.7386330" lon="-0.9570390">
        <ele>254.8</ele>
        <time>2019-01-01T13:42:48Z</time>
      </trkpt>
      <trkpt lat="41.7386260" lon="-0.9570150">
        <ele>254.9</ele>
        <time>2019-01-01T13:42:51Z</time>
      </trkpt>
      <trkpt lat="41.7386000" lon="-0.9570190">
        <ele>254.9</ele>
        <time>2019-01-01T13:43:03Z</time>
      </trkpt>
      <trkpt lat="41.7385730" lon="-0.9570220">
        <ele>254.9</ele>
        <time>2019-01-01T13:43:04Z</time>
      </trkpt>
      <trkpt lat="41.7385350" lon="-0.9570170">
        <ele>255.0</ele>
        <time>2019-01-01T13:43:05Z</time>
      </trkpt>
      <trkpt lat="41.7384970" lon="-0.9570120">
        <ele>255.0</ele>
        <time>2019-01-01T13:43:06Z</time>
      </trkpt>
      <trkpt lat="41.7384590" lon="-0.9570080">
        <ele>255.0</ele>
        <time>2019-01-01T13:43:07Z</time>
      </trkpt>
      <trkpt lat="41.7384200" lon="-0.9570030">
        <ele>255.1</ele>
        <time>2019-01-01T13:43:08Z</time>
      </trkpt>
      <trkpt lat="41.7383820" lon="-0.9569980">
        <ele>255.1</ele>
        <time>2019-01-01T13:43:09Z</time>
      </trkpt>
      <trkpt lat="41.7383440" lon="-0.9569920">
        <ele>255.1</ele>
        <time>2019-01-01T13:43:10Z</time>
      </trkpt>
      <trkpt lat="41.7383080" lon="-0.9569810">
        <ele>255.2</ele>
        <time>2019-01-01T13:43:11Z</time>
      </trkpt>
      <trkpt lat="41.7382750" lon="-0.9569650">
        <ele>255.2</ele>
        <time>2019-01-01T13:43:12Z</time>
      </trkpt>
      <trkpt lat="41.7382410" lon="-0.9569430">
        <ele>255.1</ele>
        <time>2019-01-01T13:43:13Z</time>
      </trkpt>
      <trkpt lat="41.7382050" lon="-0.9569170">
        <ele>255.1</ele>
        <time>2019-01-01T13:43:14Z</time>
      </trkpt>
      <trkpt lat="41.7381600" lon="-0.9568830">
        <ele>255.1</ele>
        <time>2019-01-01T13:43:15Z</time>
      </trkpt>
      <trkpt lat="41.7381200" lon="-0.9568530">
        <ele>255.0</ele>
        <time>2019-01-01T13:43:16Z</time>
      </trkpt>
      <trkpt lat="41.7380830" lon="-0.9568280">
        <ele>255.0</ele>
        <time>2019-01-01T13:43:17Z</time>
      </trkpt>
      <trkpt lat="41.7380480" lon="-0.9568100">
        <ele>254.9</ele>
        <time>2019-01-01T13:43:18Z</time>
      </trkpt>
      <trkpt lat="41.7380180" lon="-0.9568030">
        <ele>254.9</ele>
        <time>2019-01-01T13:43:19Z</time>
      </trkpt>
      <trkpt lat="41.7379840" lon="-0.9568010">
        <ele>254.8</ele>
        <time>2019-01-01T13:43:20Z</time>
      </trkpt>
      <trkpt lat="41.7379500" lon="-0.9568050">
        <ele>254.8</ele>
        <time>2019-01-01T13:43:21Z</time>
      </trkpt>
      <trkpt lat="41.7379160" lon="-0.9568130">
        <ele>254.7</ele>
        <time>2019-01-01T13:43:22Z</time>
      </trkpt>
      <trkpt lat="41.7378760" lon="-0.9568250">
        <ele>254.6</ele>
        <time>2019-01-01T13:43:23Z</time>
      </trkpt>
      <trkpt lat="41.7378380" lon="-0.9568410">
        <ele>254.6</ele>
        <time>2019-01-01T13:43:24Z</time>
      </trkpt>
      <trkpt lat="41.7377980" lon="-0.9568570">
        <ele>254.5</ele>
        <time>2019-01-01T13:43:25Z</time>
      </trkpt>
      <trkpt lat="41.7377560" lon="-0.9568700">
        <ele>254.2</ele>
        <time>2019-01-01T13:43:26Z</time>
      </trkpt>
      <trkpt lat="41.7377140" lon="-0.9568800">
        <ele>254.0</ele>
        <time>2019-01-01T13:43:27Z</time>
      </trkpt>
      <trkpt lat="41.7376720" lon="-0.9568850">
        <ele>253.8</ele>
        <time>2019-01-01T13:43:28Z</time>
      </trkpt>
      <trkpt lat="41.7376290" lon="-0.9568870">
        <ele>253.7</ele>
        <time>2019-01-01T13:43:29Z</time>
      </trkpt>
      <trkpt lat="41.7375850" lon="-0.9568920">
        <ele>253.6</ele>
        <time>2019-01-01T13:43:30Z</time>
      </trkpt>
      <trkpt lat="41.7375420" lon="-0.9568970">
        <ele>253.5</ele>
        <time>2019-01-01T13:43:31Z</time>
      </trkpt>
      <trkpt lat="41.7374990" lon="-0.9569040">
        <ele>253.5</ele>
        <time>2019-01-01T13:43:32Z</time>
      </trkpt>
      <trkpt lat="41.7374590" lon="-0.9569100">
        <ele>253.4</ele>
        <time>2019-01-01T13:43:33Z</time>
      </trkpt>
      <trkpt lat="41.7374180" lon="-0.9569160">
        <ele>253.3</ele>
        <time>2019-01-01T13:43:34Z</time>
      </trkpt>
      <trkpt lat="41.7373790" lon="-0.9569260">
        <ele>253.2</ele>
        <time>2019-01-01T13:43:35Z</time>
      </trkpt>
      <trkpt lat="41.7373410" lon="-0.9569370">
        <ele>253.1</ele>
        <time>2019-01-01T13:43:36Z</time>
      </trkpt>
      <trkpt lat="41.7373050" lon="-0.9569520">
        <ele>253.0</ele>
        <time>2019-01-01T13:43:37Z</time>
      </trkpt>
      <trkpt lat="41.7372780" lon="-0.9569700">
        <ele>252.9</ele>
        <time>2019-01-01T13:43:38Z</time>
      </trkpt>
      <trkpt lat="41.7372520" lon="-0.9569930">
        <ele>252.8</ele>
        <time>2019-01-01T13:43:39Z</time>
      </trkpt>
      <trkpt lat="41.7372290" lon="-0.9570140">
        <ele>252.7</ele>
        <time>2019-01-01T13:43:40Z</time>
      </trkpt>
      <trkpt lat="41.7371810" lon="-0.9570250">
        <ele>252.6</ele>
        <time>2019-01-01T13:43:42Z</time>
      </trkpt>
      <trkpt lat="41.7371310" lon="-0.9570130">
        <ele>252.4</ele>
        <time>2019-01-01T13:43:44Z</time>
      </trkpt>
      <trkpt lat="41.7370830" lon="-0.9570320">
        <ele>252.3</ele>
        <time>2019-01-01T13:43:46Z</time>
      </trkpt>
      <trkpt lat="41.7370440" lon="-0.9570720">
        <ele>252.2</ele>
        <time>2019-01-01T13:43:48Z</time>
      </trkpt>
      <trkpt lat="41.7369990" lon="-0.9570970">
        <ele>252.1</ele>
        <time>2019-01-01T13:43:50Z</time>
      </trkpt>
      <trkpt lat="41.7369470" lon="-0.9570880">
        <ele>252.0</ele>
        <time>2019-01-01T13:43:52Z</time>
      </trkpt>
      <trkpt lat="41.7369190" lon="-0.9570810">
        <ele>252.0</ele>
        <time>2019-01-01T13:43:53Z</time>
      </trkpt>
      <trkpt lat="41.7368790" lon="-0.9570790">
        <ele>252.0</ele>
        <time>2019-01-01T13:43:54Z</time>
      </trkpt>
      <trkpt lat="41.7368410" lon="-0.9570780">
        <ele>252.1</ele>
        <time>2019-01-01T13:43:55Z</time>
      </trkpt>
      <trkpt lat="41.7368050" lon="-0.9570760">
        <ele>252.1</ele>
        <time>2019-01-01T13:43:56Z</time>
      </trkpt>
      <trkpt lat="41.7367710" lon="-0.9570730">
        <ele>252.1</ele>
        <time>2019-01-01T13:43:57Z</time>
      </trkpt>
      <trkpt lat="41.7367370" lon="-0.9570690">
        <ele>252.2</ele>
        <time>2019-01-01T13:43:58Z</time>
      </trkpt>
      <trkpt lat="41.7367070" lon="-0.9570630">
        <ele>252.2</ele>
        <time>2019-01-01T13:43:59Z</time>
      </trkpt>
      <trkpt lat="41.7366580" lon="-0.9570530">
        <ele>252.2</ele>
        <time>2019-01-01T13:44:01Z</time>
      </trkpt>
      <trkpt lat="41.7366110" lon="-0.9570460">
        <ele>252.1</ele>
        <time>2019-01-01T13:44:03Z</time>
      </trkpt>
      <trkpt lat="41.7365640" lon="-0.9570360">
        <ele>252.1</ele>
        <time>2019-01-01T13:44:05Z</time>
      </trkpt>
      <trkpt lat="41.7365180" lon="-0.9570250">
        <ele>252.0</ele>
        <time>2019-01-01T13:44:07Z</time>
      </trkpt>
      <trkpt lat="41.7364700" lon="-0.9570170">
        <ele>251.9</ele>
        <time>2019-01-01T13:44:09Z</time>
      </trkpt>
      <trkpt lat="41.7364360" lon="-0.9570150">
        <ele>251.8</ele>
        <time>2019-01-01T13:44:10Z</time>
      </trkpt>
      <trkpt lat="41.7364030" lon="-0.9570140">
        <ele>251.7</ele>
        <time>2019-01-01T13:44:11Z</time>
      </trkpt>
      <trkpt lat="41.7363690" lon="-0.9570110">
        <ele>251.6</ele>
        <time>2019-01-01T13:44:12Z</time>
      </trkpt>
      <trkpt lat="41.7363350" lon="-0.9570070">
        <ele>251.6</ele>
        <time>2019-01-01T13:44:13Z</time>
      </trkpt>
      <trkpt lat="41.7363000" lon="-0.9570040">
        <ele>251.5</ele>
        <time>2019-01-01T13:44:14Z</time>
      </trkpt>
      <trkpt lat="41.7362650" lon="-0.9570000">
        <ele>251.4</ele>
        <time>2019-01-01T13:44:15Z</time>
      </trkpt>
      <trkpt lat="41.7362300" lon="-0.9569960">
        <ele>251.4</ele>
        <time>2019-01-01T13:44:16Z</time>
      </trkpt>
      <trkpt lat="41.7361930" lon="-0.9569950">
        <ele>251.3</ele>
        <time>2019-01-01T13:44:17Z</time>
      </trkpt>
      <trkpt lat="41.7361540" lon="-0.9569920">
        <ele>251.2</ele>
        <time>2019-01-01T13:44:18Z</time>
      </trkpt>
      <trkpt lat="41.7361160" lon="-0.9569890">
        <ele>251.1</ele>
        <time>2019-01-01T13:44:19Z</time>
      </trkpt>
      <trkpt lat="41.7360790" lon="-0.9569840">
        <ele>251.1</ele>
        <time>2019-01-01T13:44:20Z</time>
      </trkpt>
      <trkpt lat="41.7360410" lon="-0.9569780">
        <ele>251.0</ele>
        <time>2019-01-01T13:44:21Z</time>
      </trkpt>
      <trkpt lat="41.7360040" lon="-0.9569720">
        <ele>250.9</ele>
        <time>2019-01-01T13:44:22Z</time>
      </trkpt>
      <trkpt lat="41.7359680" lon="-0.9569660">
        <ele>250.8</ele>
        <time>2019-01-01T13:44:23Z</time>
      </trkpt>
      <trkpt lat="41.7359330" lon="-0.9569590">
        <ele>250.7</ele>
        <time>2019-01-01T13:44:24Z</time>
      </trkpt>
      <trkpt lat="41.7358990" lon="-0.9569490">
        <ele>250.7</ele>
        <time>2019-01-01T13:44:25Z</time>
      </trkpt>
      <trkpt lat="41.7358660" lon="-0.9569380">
        <ele>250.6</ele>
        <time>2019-01-01T13:44:26Z</time>
      </trkpt>
      <trkpt lat="41.7358340" lon="-0.9569260">
        <ele>250.6</ele>
        <time>2019-01-01T13:44:27Z</time>
      </trkpt>
      <trkpt lat="41.7358010" lon="-0.9569130">
        <ele>250.5</ele>
        <time>2019-01-01T13:44:28Z</time>
      </trkpt>
      <trkpt lat="41.7357660" lon="-0.9569000">
        <ele>250.5</ele>
        <time>2019-01-01T13:44:29Z</time>
      </trkpt>
      <trkpt lat="41.7357300" lon="-0.9568910">
        <ele>250.5</ele>
        <time>2019-01-01T13:44:30Z</time>
      </trkpt>
      <trkpt lat="41.7356920" lon="-0.9568830">
        <ele>250.5</ele>
        <time>2019-01-01T13:44:31Z</time>
      </trkpt>
      <trkpt lat="41.7356550" lon="-0.9568760">
        <ele>250.5</ele>
        <time>2019-01-01T13:44:32Z</time>
      </trkpt>
      <trkpt lat="41.7356180" lon="-0.9568690">
        <ele>250.5</ele>
        <time>2019-01-01T13:44:33Z</time>
      </trkpt>
      <trkpt lat="41.7355830" lon="-0.9568610">
        <ele>250.4</ele>
        <time>2019-01-01T13:44:34Z</time>
      </trkpt>
      <trkpt lat="41.7355470" lon="-0.9568500">
        <ele>250.4</ele>
        <time>2019-01-01T13:44:35Z</time>
      </trkpt>
      <trkpt lat="41.7355130" lon="-0.9568380">
        <ele>250.4</ele>
        <time>2019-01-01T13:44:36Z</time>
      </trkpt>
      <trkpt lat="41.7354790" lon="-0.9568230">
        <ele>250.4</ele>
        <time>2019-01-01T13:44:37Z</time>
      </trkpt>
      <trkpt lat="41.7354460" lon="-0.9568060">
        <ele>250.3</ele>
        <time>2019-01-01T13:44:38Z</time>
      </trkpt>
      <trkpt lat="41.7354110" lon="-0.9567930">
        <ele>250.3</ele>
        <time>2019-01-01T13:44:39Z</time>
      </trkpt>
      <trkpt lat="41.7353740" lon="-0.9567850">
        <ele>250.2</ele>
        <time>2019-01-01T13:44:40Z</time>
      </trkpt>
      <trkpt lat="41.7353370" lon="-0.9567790">
        <ele>250.1</ele>
        <time>2019-01-01T13:44:41Z</time>
      </trkpt>
      <trkpt lat="41.7353010" lon="-0.9567750">
        <ele>250.1</ele>
        <time>2019-01-01T13:44:42Z</time>
      </trkpt>
      <trkpt lat="41.7352630" lon="-0.9567670">
        <ele>250.0</ele>
        <time>2019-01-01T13:44:43Z</time>
      </trkpt>
      <trkpt lat="41.7352250" lon="-0.9567580">
        <ele>249.9</ele>
        <time>2019-01-01T13:44:44Z</time>
      </trkpt>
      <trkpt lat="41.7351860" lon="-0.9567490">
        <ele>249.9</ele>
        <time>2019-01-01T13:44:45Z</time>
      </trkpt>
      <trkpt lat="41.7351460" lon="-0.9567450">
        <ele>249.8</ele>
        <time>2019-01-01T13:44:46Z</time>
      </trkpt>
      <trkpt lat="41.7351090" lon="-0.9567450">
        <ele>249.8</ele>
        <time>2019-01-01T13:44:47Z</time>
      </trkpt>
      <trkpt lat="41.7350720" lon="-0.9567500">
        <ele>249.8</ele>
        <time>2019-01-01T13:44:48Z</time>
      </trkpt>
      <trkpt lat="41.7350350" lon="-0.9567540">
        <ele>249.8</ele>
        <time>2019-01-01T13:44:49Z</time>
      </trkpt>
      <trkpt lat="41.7349990" lon="-0.9567610">
        <ele>249.9</ele>
        <time>2019-01-01T13:44:50Z</time>
      </trkpt>
      <trkpt lat="41.7349620" lon="-0.9567730">
        <ele>249.9</ele>
        <time>2019-01-01T13:44:51Z</time>
      </trkpt>
      <trkpt lat="41.7349290" lon="-0.9567880">
        <ele>250.0</ele>
        <time>2019-01-01T13:44:52Z</time>
      </trkpt>
      <trkpt lat="41.7348950" lon="-0.9568040">
        <ele>250.1</ele>
        <time>2019-01-01T13:44:53Z</time>
      </trkpt>
      <trkpt lat="41.7348630" lon="-0.9568190">
        <ele>250.2</ele>
        <time>2019-01-01T13:44:54Z</time>
      </trkpt>
      <trkpt lat="41.7348320" lon="-0.9568340">
        <ele>250.2</ele>
        <time>2019-01-01T13:44:55Z</time>
      </trkpt>
      <trkpt lat="41.7348030" lon="-0.9568500">
        <ele>250.3</ele>
        <time>2019-01-01T13:44:56Z</time>
      </trkpt>
      <trkpt lat="41.7347740" lon="-0.9568680">
        <ele>250.3</ele>
        <time>2019-01-01T13:44:57Z</time>
      </trkpt>
      <trkpt lat="41.7347450" lon="-0.9568860">
        <ele>250.4</ele>
        <time>2019-01-01T13:44:58Z</time>
      </trkpt>
      <trkpt lat="41.7347150" lon="-0.9569020">
        <ele>250.4</ele>
        <time>2019-01-01T13:44:59Z</time>
      </trkpt>
      <trkpt lat="41.7346850" lon="-0.9569160">
        <ele>250.4</ele>
        <time>2019-01-01T13:45:00Z</time>
      </trkpt>
      <trkpt lat="41.7346530" lon="-0.9569310">
        <ele>250.4</ele>
        <time>2019-01-01T13:45:01Z</time>
      </trkpt>
      <trkpt lat="41.7346220" lon="-0.9569450">
        <ele>250.4</ele>
        <time>2019-01-01T13:45:02Z</time>
      </trkpt>
      <trkpt lat="41.7345900" lon="-0.9569580">
        <ele>250.5</ele>
        <time>2019-01-01T13:45:03Z</time>
      </trkpt>
      <trkpt lat="41.7345570" lon="-0.9569690">
        <ele>250.5</ele>
        <time>2019-01-01T13:45:04Z</time>
      </trkpt>
      <trkpt lat="41.7345210" lon="-0.9569750">
        <ele>250.5</ele>
        <time>2019-01-01T13:45:05Z</time>
      </trkpt>
      <trkpt lat="41.7344860" lon="-0.9569780">
        <ele>250.5</ele>
        <time>2019-01-01T13:45:06Z</time>
      </trkpt>
      <trkpt lat="41.7344500" lon="-0.9569790">
        <ele>250.5</ele>
        <time>2019-01-01T13:45:07Z</time>
      </trkpt>
      <trkpt lat="41.7344130" lon="-0.9569770">
        <ele>250.5</ele>
        <time>2019-01-01T13:45:08Z</time>
      </trkpt>
      <trkpt lat="41.7343730" lon="-0.9569750">
        <ele>250.5</ele>
        <time>2019-01-01T13:45:09Z</time>
      </trkpt>
      <trkpt lat="41.7343340" lon="-0.9569710">
        <ele>250.5</ele>
        <time>2019-01-01T13:45:10Z</time>
      </trkpt>
      <trkpt lat="41.7342950" lon="-0.9569660">
        <ele>250.5</ele>
        <time>2019-01-01T13:45:11Z</time>
      </trkpt>
      <trkpt lat="41.7342560" lon="-0.9569610">
        <ele>250.5</ele>
        <time>2019-01-01T13:45:12Z</time>
      </trkpt>
      <trkpt lat="41.7342190" lon="-0.9569560">
        <ele>250.5</ele>
        <time>2019-01-01T13:45:13Z</time>
      </trkpt>
      <trkpt lat="41.7341840" lon="-0.9569500">
        <ele>250.5</ele>
        <time>2019-01-01T13:45:14Z</time>
      </trkpt>
      <trkpt lat="41.7341500" lon="-0.9569430">
        <ele>250.5</ele>
        <time>2019-01-01T13:45:15Z</time>
      </trkpt>
      <trkpt lat="41.7341200" lon="-0.9569350">
        <ele>250.5</ele>
        <time>2019-01-01T13:45:16Z</time>
      </trkpt>
      <trkpt lat="41.7340870" lon="-0.9569270">
        <ele>250.5</ele>
        <time>2019-01-01T13:45:17Z</time>
      </trkpt>
      <trkpt lat="41.7340540" lon="-0.9569180">
        <ele>250.5</ele>
        <time>2019-01-01T13:45:18Z</time>
      </trkpt>
      <trkpt lat="41.7340200" lon="-0.9569090">
        <ele>250.4</ele>
        <time>2019-01-01T13:45:19Z</time>
      </trkpt>
      <trkpt lat="41.7339850" lon="-0.9569010">
        <ele>250.4</ele>
        <time>2019-01-01T13:45:20Z</time>
      </trkpt>
      <trkpt lat="41.7339500" lon="-0.9568980">
        <ele>250.4</ele>
        <time>2019-01-01T13:45:21Z</time>
      </trkpt>
      <trkpt lat="41.7339170" lon="-0.9569050">
        <ele>250.4</ele>
        <time>2019-01-01T13:45:22Z</time>
      </trkpt>
      <trkpt lat="41.7338810" lon="-0.9569130">
        <ele>250.4</ele>
        <time>2019-01-01T13:45:23Z</time>
      </trkpt>
      <trkpt lat="41.7338450" lon="-0.9569200">
        <ele>250.4</ele>
        <time>2019-01-01T13:45:24Z</time>
      </trkpt>
      <trkpt lat="41.7338070" lon="-0.9569230">
        <ele>250.4</ele>
        <time>2019-01-01T13:45:25Z</time>
      </trkpt>
      <trkpt lat="41.7337690" lon="-0.9569200">
        <ele>250.3</ele>
        <time>2019-01-01T13:45:26Z</time>
      </trkpt>
      <trkpt lat="41.7337310" lon="-0.9569130">
        <ele>250.2</ele>
        <time>2019-01-01T13:45:27Z</time>
      </trkpt>
      <trkpt lat="41.7336920" lon="-0.9569020">
        <ele>250.1</ele>
        <time>2019-01-01T13:45:28Z</time>
      </trkpt>
      <trkpt lat="41.7336550" lon="-0.9568840">
        <ele>250.1</ele>
        <time>2019-01-01T13:45:29Z</time>
      </trkpt>
      <trkpt lat="41.7336220" lon="-0.9568580">
        <ele>250.0</ele>
        <time>2019-01-01T13:45:30Z</time>
      </trkpt>
      <trkpt lat="41.7335890" lon="-0.9568300">
        <ele>249.9</ele>
        <time>2019-01-01T13:45:31Z</time>
      </trkpt>
      <trkpt lat="41.7335550" lon="-0.9568030">
        <ele>249.8</ele>
        <time>2019-01-01T13:45:32Z</time>
      </trkpt>
      <trkpt lat="41.7335210" lon="-0.9567820">
        <ele>249.8</ele>
        <time>2019-01-01T13:45:33Z</time>
      </trkpt>
      <trkpt lat="41.7334860" lon="-0.9567630">
        <ele>249.7</ele>
        <time>2019-01-01T13:45:34Z</time>
      </trkpt>
      <trkpt lat="41.7334530" lon="-0.9567450">
        <ele>249.6</ele>
        <time>2019-01-01T13:45:35Z</time>
      </trkpt>
      <trkpt lat="41.7334200" lon="-0.9567250">
        <ele>249.6</ele>
        <time>2019-01-01T13:45:36Z</time>
      </trkpt>
      <trkpt lat="41.7333870" lon="-0.9567040">
        <ele>249.5</ele>
        <time>2019-01-01T13:45:37Z</time>
      </trkpt>
      <trkpt lat="41.7333560" lon="-0.9566840">
        <ele>249.4</ele>
        <time>2019-01-01T13:45:38Z</time>
      </trkpt>
      <trkpt lat="41.7333270" lon="-0.9566640">
        <ele>249.2</ele>
        <time>2019-01-01T13:45:39Z</time>
      </trkpt>
      <trkpt lat="41.7333000" lon="-0.9566400">
        <ele>249.1</ele>
        <time>2019-01-01T13:45:40Z</time>
      </trkpt>
      <trkpt lat="41.7332690" lon="-0.9566130">
        <ele>249.0</ele>
        <time>2019-01-01T13:45:41Z</time>
      </trkpt>
      <trkpt lat="41.7332370" lon="-0.9565890">
        <ele>248.9</ele>
        <time>2019-01-01T13:45:42Z</time>
      </trkpt>
      <trkpt lat="41.7332060" lon="-0.9565660">
        <ele>248.8</ele>
        <time>2019-01-01T13:45:43Z</time>
      </trkpt>
      <trkpt lat="41.7331730" lon="-0.9565410">
        <ele>248.7</ele>
        <time>2019-01-01T13:45:44Z</time>
      </trkpt>
      <trkpt lat="41.7331290" lon="-0.9565130">
        <ele>248.6</ele>
        <time>2019-01-01T13:45:45Z</time>
      </trkpt>
      <trkpt lat="41.7330510" lon="-0.9564880">
        <ele>248.4</ele>
        <time>2019-01-01T13:45:46Z</time>
      </trkpt>
      <trkpt lat="41.7330030" lon="-0.9564620">
        <ele>248.2</ele>
        <time>2019-01-01T13:45:48Z</time>
      </trkpt>
      <trkpt lat="41.7329690" lon="-0.9564680">
        <ele>248.1</ele>
        <time>2019-01-01T13:45:49Z</time>
      </trkpt>
      <trkpt lat="41.7329440" lon="-0.9564550">
        <ele>248.1</ele>
        <time>2019-01-01T13:45:50Z</time>
      </trkpt>
      <trkpt lat="41.7329050" lon="-0.9564330">
        <ele>247.9</ele>
        <time>2019-01-01T13:45:51Z</time>
      </trkpt>
      <trkpt lat="41.7328760" lon="-0.9564480">
        <ele>247.7</ele>
        <time>2019-01-01T13:45:52Z</time>
      </trkpt>
      <trkpt lat="41.7328160" lon="-0.9564470">
        <ele>247.5</ele>
        <time>2019-01-01T13:45:53Z</time>
      </trkpt>
      <trkpt lat="41.7327690" lon="-0.9564510">
        <ele>247.2</ele>
        <time>2019-01-01T13:45:54Z</time>
      </trkpt>
      <trkpt lat="41.7327110" lon="-0.9564580">
        <ele>247.0</ele>
        <time>2019-01-01T13:45:55Z</time>
      </trkpt>
      <trkpt lat="41.7326650" lon="-0.9564550">
        <ele>246.7</ele>
        <time>2019-01-01T13:45:56Z</time>
      </trkpt>
      <trkpt lat="41.7326360" lon="-0.9564660">
        <ele>246.6</ele>
        <time>2019-01-01T13:45:57Z</time>
      </trkpt>
      <trkpt lat="41.7325830" lon="-0.9564570">
        <ele>246.3</ele>
        <time>2019-01-01T13:45:59Z</time>
      </trkpt>
      <trkpt lat="41.7325560" lon="-0.9564540">
        <ele>246.1</ele>
        <time>2019-01-01T13:46:00Z</time>
      </trkpt>
      <trkpt lat="41.7325270" lon="-0.9564460">
        <ele>246.0</ele>
        <time>2019-01-01T13:46:01Z</time>
      </trkpt>
      <trkpt lat="41.7324970" lon="-0.9564330">
        <ele>245.8</ele>
        <time>2019-01-01T13:46:02Z</time>
      </trkpt>
      <trkpt lat="41.7324670" lon="-0.9564160">
        <ele>245.6</ele>
        <time>2019-01-01T13:46:03Z</time>
      </trkpt>
      <trkpt lat="41.7324380" lon="-0.9563970">
        <ele>245.4</ele>
        <time>2019-01-01T13:46:04Z</time>
      </trkpt>
      <trkpt lat="41.7324090" lon="-0.9563780">
        <ele>245.1</ele>
        <time>2019-01-01T13:46:05Z</time>
      </trkpt>
      <trkpt lat="41.7323780" lon="-0.9563600">
        <ele>244.9</ele>
        <time>2019-01-01T13:46:06Z</time>
      </trkpt>
      <trkpt lat="41.7323420" lon="-0.9563450">
        <ele>244.7</ele>
        <time>2019-01-01T13:46:07Z</time>
      </trkpt>
      <trkpt lat="41.7323080" lon="-0.9563360">
        <ele>245.1</ele>
        <time>2019-01-01T13:46:08Z</time>
      </trkpt>
      <trkpt lat="41.7322740" lon="-0.9563360">
        <ele>245.4</ele>
        <time>2019-01-01T13:46:09Z</time>
      </trkpt>
      <trkpt lat="41.7322430" lon="-0.9563510">
        <ele>245.8</ele>
        <time>2019-01-01T13:46:10Z</time>
      </trkpt>
      <trkpt lat="41.7322180" lon="-0.9563810">
        <ele>246.2</ele>
        <time>2019-01-01T13:46:11Z</time>
      </trkpt>
      <trkpt lat="41.7322020" lon="-0.9564180">
        <ele>246.5</ele>
        <time>2019-01-01T13:46:12Z</time>
      </trkpt>
      <trkpt lat="41.7321840" lon="-0.9564780">
        <ele>247.1</ele>
        <time>2019-01-01T13:46:14Z</time>
      </trkpt>
      <trkpt lat="41.7321710" lon="-0.9565320">
        <ele>247.5</ele>
        <time>2019-01-01T13:46:16Z</time>
      </trkpt>
      <trkpt lat="41.7321630" lon="-0.9565840">
        <ele>247.9</ele>
        <time>2019-01-01T13:46:18Z</time>
      </trkpt>
      <trkpt lat="41.7321540" lon="-0.9566290">
        <ele>248.1</ele>
        <time>2019-01-01T13:46:20Z</time>
      </trkpt>
      <trkpt lat="41.7321380" lon="-0.9566680">
        <ele>248.3</ele>
        <time>2019-01-01T13:46:22Z</time>
      </trkpt>
      <trkpt lat="41.7321230" lon="-0.9567080">
        <ele>248.5</ele>
        <time>2019-01-01T13:46:24Z</time>
      </trkpt>
      <trkpt lat="41.7321060" lon="-0.9567450">
        <ele>248.6</ele>
        <time>2019-01-01T13:46:26Z</time>
      </trkpt>
      <trkpt lat="41.7320820" lon="-0.9567770">
        <ele>248.8</ele>
        <time>2019-01-01T13:46:28Z</time>
      </trkpt>
      <trkpt lat="41.7320540" lon="-0.9568060">
        <ele>249.0</ele>
        <time>2019-01-01T13:46:30Z</time>
      </trkpt>
      <trkpt lat="41.7320160" lon="-0.9568390">
        <ele>249.2</ele>
        <time>2019-01-01T13:46:32Z</time>
      </trkpt>
      <trkpt lat="41.7319730" lon="-0.9568720">
        <ele>249.4</ele>
        <time>2019-01-01T13:46:34Z</time>
      </trkpt>
      <trkpt lat="41.7319310" lon="-0.9569050">
        <ele>249.7</ele>
        <time>2019-01-01T13:46:36Z</time>
      </trkpt>
      <trkpt lat="41.7318880" lon="-0.9569390">
        <ele>250.0</ele>
        <time>2019-01-01T13:46:38Z</time>
      </trkpt>
      <trkpt lat="41.7318420" lon="-0.9569720">
        <ele>250.3</ele>
        <time>2019-01-01T13:46:40Z</time>
      </trkpt>
      <trkpt lat="41.7318010" lon="-0.9570070">
        <ele>250.5</ele>
        <time>2019-01-01T13:46:42Z</time>
      </trkpt>
      <trkpt lat="41.7317620" lon="-0.9570480">
        <ele>250.8</ele>
        <time>2019-01-01T13:46:44Z</time>
      </trkpt>
      <trkpt lat="41.7317220" lon="-0.9570880">
        <ele>251.1</ele>
        <time>2019-01-01T13:46:46Z</time>
      </trkpt>
      <trkpt lat="41.7316830" lon="-0.9571280">
        <ele>251.4</ele>
        <time>2019-01-01T13:46:48Z</time>
      </trkpt>
      <trkpt lat="41.7316440" lon="-0.9571720">
        <ele>251.6</ele>
        <time>2019-01-01T13:46:50Z</time>
      </trkpt>
      <trkpt lat="41.7316050" lon="-0.9572150">
        <ele>252.0</ele>
        <time>2019-01-01T13:46:52Z</time>
      </trkpt>
      <trkpt lat="41.7315630" lon="-0.9572530">
        <ele>252.4</ele>
        <time>2019-01-01T13:46:54Z</time>
      </trkpt>
      <trkpt lat="41.7315210" lon="-0.9572840">
        <ele>252.7</ele>
        <time>2019-01-01T13:46:56Z</time>
      </trkpt>
      <trkpt lat="41.7314710" lon="-0.9573070">
        <ele>252.9</ele>
        <time>2019-01-01T13:46:58Z</time>
      </trkpt>
      <trkpt lat="41.7314430" lon="-0.9573190">
        <ele>253.1</ele>
        <time>2019-01-01T13:46:59Z</time>
      </trkpt>
      <trkpt lat="41.7314130" lon="-0.9573340">
        <ele>253.3</ele>
        <time>2019-01-01T13:47:00Z</time>
      </trkpt>
      <trkpt lat="41.7313860" lon="-0.9573490">
        <ele>253.4</ele>
        <time>2019-01-01T13:47:01Z</time>
      </trkpt>
      <trkpt lat="41.7313590" lon="-0.9573620">
        <ele>253.6</ele>
        <time>2019-01-01T13:47:02Z</time>
      </trkpt>
      <trkpt lat="41.7313330" lon="-0.9573760">
        <ele>253.7</ele>
        <time>2019-01-01T13:47:03Z</time>
      </trkpt>
      <trkpt lat="41.7313060" lon="-0.9573880">
        <ele>253.9</ele>
        <time>2019-01-01T13:47:04Z</time>
      </trkpt>
      <trkpt lat="41.7312800" lon="-0.9573990">
        <ele>254.0</ele>
        <time>2019-01-01T13:47:05Z</time>
      </trkpt>
      <trkpt lat="41.7312530" lon="-0.9574080">
        <ele>254.2</ele>
        <time>2019-01-01T13:47:06Z</time>
      </trkpt>
      <trkpt lat="41.7312040" lon="-0.9574180">
        <ele>254.6</ele>
        <time>2019-01-01T13:47:08Z</time>
      </trkpt>
      <trkpt lat="41.7311570" lon="-0.9574270">
        <ele>254.9</ele>
        <time>2019-01-01T13:47:10Z</time>
      </trkpt>
      <trkpt lat="41.7311100" lon="-0.9574310">
        <ele>255.2</ele>
        <time>2019-01-01T13:47:12Z</time>
      </trkpt>
      <trkpt lat="41.7310630" lon="-0.9574360">
        <ele>255.8</ele>
        <time>2019-01-01T13:47:14Z</time>
      </trkpt>
      <trkpt lat="41.7310170" lon="-0.9574450">
        <ele>256.3</ele>
        <time>2019-01-01T13:47:16Z</time>
      </trkpt>
      <trkpt lat="41.7309720" lon="-0.9574490">
        <ele>256.8</ele>
        <time>2019-01-01T13:47:18Z</time>
      </trkpt>
      <trkpt lat="41.7309270" lon="-0.9574600">
        <ele>257.4</ele>
        <time>2019-01-01T13:47:20Z</time>
      </trkpt>
      <trkpt lat="41.7308810" lon="-0.9574860">
        <ele>257.8</ele>
        <time>2019-01-01T13:47:22Z</time>
      </trkpt>
      <trkpt lat="41.7308420" lon="-0.9575200">
        <ele>258.3</ele>
        <time>2019-01-01T13:47:24Z</time>
      </trkpt>
      <trkpt lat="41.7308130" lon="-0.9575480">
        <ele>258.6</ele>
        <time>2019-01-01T13:47:26Z</time>
      </trkpt>
      <trkpt lat="41.7307840" lon="-0.9575750">
        <ele>258.9</ele>
        <time>2019-01-01T13:47:28Z</time>
      </trkpt>
      <trkpt lat="41.7307550" lon="-0.9576020">
        <ele>259.2</ele>
        <time>2019-01-01T13:47:30Z</time>
      </trkpt>
      <trkpt lat="41.7307290" lon="-0.9576310">
        <ele>259.5</ele>
        <time>2019-01-01T13:47:32Z</time>
      </trkpt>
      <trkpt lat="41.7306990" lon="-0.9576610">
        <ele>259.8</ele>
        <time>2019-01-01T13:47:34Z</time>
      </trkpt>
      <trkpt lat="41.7306670" lon="-0.9576920">
        <ele>260.2</ele>
        <time>2019-01-01T13:47:36Z</time>
      </trkpt>
      <trkpt lat="41.7306380" lon="-0.9577230">
        <ele>260.5</ele>
        <time>2019-01-01T13:47:38Z</time>
      </trkpt>
      <trkpt lat="41.7306120" lon="-0.9577540">
        <ele>260.8</ele>
        <time>2019-01-01T13:47:40Z</time>
      </trkpt>
      <trkpt lat="41.7305850" lon="-0.9577850">
        <ele>261.2</ele>
        <time>2019-01-01T13:47:42Z</time>
      </trkpt>
      <trkpt lat="41.7305530" lon="-0.9578150">
        <ele>261.7</ele>
        <time>2019-01-01T13:47:44Z</time>
      </trkpt>
      <trkpt lat="41.7305200" lon="-0.9578450">
        <ele>262.2</ele>
        <time>2019-01-01T13:47:46Z</time>
      </trkpt>
      <trkpt lat="41.7304870" lon="-0.9578770">
        <ele>262.7</ele>
        <time>2019-01-01T13:47:48Z</time>
      </trkpt>
      <trkpt lat="41.7304580" lon="-0.9579150">
        <ele>263.2</ele>
        <time>2019-01-01T13:47:50Z</time>
      </trkpt>
      <trkpt lat="41.7304320" lon="-0.9579610">
        <ele>263.7</ele>
        <time>2019-01-01T13:47:52Z</time>
      </trkpt>
      <trkpt lat="41.7304080" lon="-0.9580100">
        <ele>264.1</ele>
        <time>2019-01-01T13:47:54Z</time>
      </trkpt>
      <trkpt lat="41.7303880" lon="-0.9580590">
        <ele>264.4</ele>
        <time>2019-01-01T13:47:56Z</time>
      </trkpt>
      <trkpt lat="41.7303620" lon="-0.9581060">
        <ele>264.8</ele>
        <time>2019-01-01T13:47:58Z</time>
      </trkpt>
      <trkpt lat="41.7303400" lon="-0.9581540">
        <ele>265.2</ele>
        <time>2019-01-01T13:48:00Z</time>
      </trkpt>
      <trkpt lat="41.7303190" lon="-0.9582030">
        <ele>265.5</ele>
        <time>2019-01-01T13:48:02Z</time>
      </trkpt>
      <trkpt lat="41.7303060" lon="-0.9582530">
        <ele>265.9</ele>
        <time>2019-01-01T13:48:04Z</time>
      </trkpt>
      <trkpt lat="41.7302920" lon="-0.9583060">
        <ele>266.2</ele>
        <time>2019-01-01T13:48:06Z</time>
      </trkpt>
      <trkpt lat="41.7302730" lon="-0.9583590">
        <ele>266.6</ele>
        <time>2019-01-01T13:48:08Z</time>
      </trkpt>
      <trkpt lat="41.7302540" lon="-0.9584100">
        <ele>267.0</ele>
        <time>2019-01-01T13:48:10Z</time>
      </trkpt>
      <trkpt lat="41.7302360" lon="-0.9584600">
        <ele>267.4</ele>
        <time>2019-01-01T13:48:12Z</time>
      </trkpt>
      <trkpt lat="41.7302260" lon="-0.9585110">
        <ele>268.0</ele>
        <time>2019-01-01T13:48:14Z</time>
      </trkpt>
      <trkpt lat="41.7302170" lon="-0.9585630">
        <ele>268.5</ele>
        <time>2019-01-01T13:48:16Z</time>
      </trkpt>
      <trkpt lat="41.7302080" lon="-0.9586190">
        <ele>269.1</ele>
        <time>2019-01-01T13:48:18Z</time>
      </trkpt>
      <trkpt lat="41.7302000" lon="-0.9586820">
        <ele>269.7</ele>
        <time>2019-01-01T13:48:20Z</time>
      </trkpt>
      <trkpt lat="41.7301900" lon="-0.9587470">
        <ele>270.4</ele>
        <time>2019-01-01T13:48:22Z</time>
      </trkpt>
      <trkpt lat="41.7301800" lon="-0.9588110">
        <ele>271.1</ele>
        <time>2019-01-01T13:48:24Z</time>
      </trkpt>
      <trkpt lat="41.7301720" lon="-0.9588780">
        <ele>271.6</ele>
        <time>2019-01-01T13:48:26Z</time>
      </trkpt>
      <trkpt lat="41.7301630" lon="-0.9589470">
        <ele>272.2</ele>
        <time>2019-01-01T13:48:28Z</time>
      </trkpt>
      <trkpt lat="41.7301560" lon="-0.9589820">
        <ele>272.5</ele>
        <time>2019-01-01T13:48:29Z</time>
      </trkpt>
      <trkpt lat="41.7301480" lon="-0.9590160">
        <ele>272.7</ele>
        <time>2019-01-01T13:48:30Z</time>
      </trkpt>
      <trkpt lat="41.7301300" lon="-0.9590830">
        <ele>273.4</ele>
        <time>2019-01-01T13:48:32Z</time>
      </trkpt>
      <trkpt lat="41.7301080" lon="-0.9591470">
        <ele>274.2</ele>
        <time>2019-01-01T13:48:34Z</time>
      </trkpt>
      <trkpt lat="41.7300830" lon="-0.9592060">
        <ele>275.0</ele>
        <time>2019-01-01T13:48:36Z</time>
      </trkpt>
      <trkpt lat="41.7300560" lon="-0.9592640">
        <ele>275.8</ele>
        <time>2019-01-01T13:48:38Z</time>
      </trkpt>
      <trkpt lat="41.7300250" lon="-0.9593190">
        <ele>276.2</ele>
        <time>2019-01-01T13:48:40Z</time>
      </trkpt>
      <trkpt lat="41.7299900" lon="-0.9593660">
        <ele>276.5</ele>
        <time>2019-01-01T13:48:42Z</time>
      </trkpt>
      <trkpt lat="41.7299480" lon="-0.9593980">
        <ele>276.9</ele>
        <time>2019-01-01T13:48:44Z</time>
      </trkpt>
      <trkpt lat="41.7299000" lon="-0.9594190">
        <ele>277.3</ele>
        <time>2019-01-01T13:48:46Z</time>
      </trkpt>
      <trkpt lat="41.7298510" lon="-0.9594260">
        <ele>277.7</ele>
        <time>2019-01-01T13:48:48Z</time>
      </trkpt>
      <trkpt lat="41.7298040" lon="-0.9594320">
        <ele>277.9</ele>
        <time>2019-01-01T13:48:50Z</time>
      </trkpt>
      <trkpt lat="41.7297690" lon="-0.9594380">
        <ele>278.1</ele>
        <time>2019-01-01T13:48:52Z</time>
      </trkpt>
      <trkpt lat="41.7297300" lon="-0.9594420">
        <ele>278.3</ele>
        <time>2019-01-01T13:48:54Z</time>
      </trkpt>
      <trkpt lat="41.7296910" lon="-0.9594410">
        <ele>278.6</ele>
        <time>2019-01-01T13:48:56Z</time>
      </trkpt>
      <trkpt lat="41.7296550" lon="-0.9594410">
        <ele>278.8</ele>
        <time>2019-01-01T13:48:58Z</time>
      </trkpt>
      <trkpt lat="41.7296190" lon="-0.9594410">
        <ele>278.9</ele>
        <time>2019-01-01T13:49:00Z</time>
      </trkpt>
      <trkpt lat="41.7295830" lon="-0.9594330">
        <ele>279.0</ele>
        <time>2019-01-01T13:49:02Z</time>
      </trkpt>
      <trkpt lat="41.7295480" lon="-0.9594200">
        <ele>279.0</ele>
        <time>2019-01-01T13:49:04Z</time>
      </trkpt>
      <trkpt lat="41.7295140" lon="-0.9594050">
        <ele>279.1</ele>
        <time>2019-01-01T13:49:06Z</time>
      </trkpt>
      <trkpt lat="41.7294800" lon="-0.9593890">
        <ele>279.1</ele>
        <time>2019-01-01T13:49:08Z</time>
      </trkpt>
      <trkpt lat="41.7294460" lon="-0.9593690">
        <ele>279.1</ele>
        <time>2019-01-01T13:49:10Z</time>
      </trkpt>
      <trkpt lat="41.7294140" lon="-0.9593510">
        <ele>279.1</ele>
        <time>2019-01-01T13:49:12Z</time>
      </trkpt>
      <trkpt lat="41.7293820" lon="-0.9593360">
        <ele>279.1</ele>
        <time>2019-01-01T13:49:14Z</time>
      </trkpt>
      <trkpt lat="41.7293520" lon="-0.9593200">
        <ele>279.1</ele>
        <time>2019-01-01T13:49:16Z</time>
      </trkpt>
      <trkpt lat="41.7293220" lon="-0.9593040">
        <ele>279.0</ele>
        <time>2019-01-01T13:49:18Z</time>
      </trkpt>
      <trkpt lat="41.7292910" lon="-0.9592860">
        <ele>279.0</ele>
        <time>2019-01-01T13:49:20Z</time>
      </trkpt>
      <trkpt lat="41.7292620" lon="-0.9592550">
        <ele>278.9</ele>
        <time>2019-01-01T13:49:23Z</time>
      </trkpt>
      <trkpt lat="41.7292390" lon="-0.9592280">
        <ele>278.8</ele>
        <time>2019-01-01T13:49:26Z</time>
      </trkpt>
      <trkpt lat="41.7292120" lon="-0.9592020">
        <ele>278.7</ele>
        <time>2019-01-01T13:49:29Z</time>
      </trkpt>
      <trkpt lat="41.7291810" lon="-0.9591670">
        <ele>278.7</ele>
        <time>2019-01-01T13:49:32Z</time>
      </trkpt>
      <trkpt lat="41.7291580" lon="-0.9591400">
        <ele>278.6</ele>
        <time>2019-01-01T13:49:34Z</time>
      </trkpt>
      <trkpt lat="41.7291340" lon="-0.9591120">
        <ele>278.5</ele>
        <time>2019-01-01T13:49:36Z</time>
      </trkpt>
      <trkpt lat="41.7291080" lon="-0.9590840">
        <ele>278.3</ele>
        <time>2019-01-01T13:49:38Z</time>
      </trkpt>
      <trkpt lat="41.7290840" lon="-0.9590590">
        <ele>278.3</ele>
        <time>2019-01-01T13:49:40Z</time>
      </trkpt>
      <trkpt lat="41.7290620" lon="-0.9590370">
        <ele>278.2</ele>
        <time>2019-01-01T13:49:42Z</time>
      </trkpt>
      <trkpt lat="41.7290330" lon="-0.9590100">
        <ele>278.1</ele>
        <time>2019-01-01T13:49:45Z</time>
      </trkpt>
      <trkpt lat="41.7290120" lon="-0.9589690">
        <ele>278.1</ele>
        <time>2019-01-01T13:49:48Z</time>
      </trkpt>
      <trkpt lat="41.7289780" lon="-0.9589400">
        <ele>278.0</ele>
        <time>2019-01-01T13:49:51Z</time>
      </trkpt>
      <trkpt lat="41.7289520" lon="-0.9589240">
        <ele>278.0</ele>
        <time>2019-01-01T13:49:53Z</time>
      </trkpt>
      <trkpt lat="41.7289190" lon="-0.9588960">
        <ele>277.9</ele>
        <time>2019-01-01T13:49:55Z</time>
      </trkpt>
      <trkpt lat="41.7288830" lon="-0.9588600">
        <ele>277.9</ele>
        <time>2019-01-01T13:49:57Z</time>
      </trkpt>
      <trkpt lat="41.7288430" lon="-0.9588270">
        <ele>277.8</ele>
        <time>2019-01-01T13:49:59Z</time>
      </trkpt>
      <trkpt lat="41.7288100" lon="-0.9587920">
        <ele>277.7</ele>
        <time>2019-01-01T13:50:01Z</time>
      </trkpt>
      <trkpt lat="41.7287670" lon="-0.9587630">
        <ele>277.6</ele>
        <time>2019-01-01T13:50:03Z</time>
      </trkpt>
      <trkpt lat="41.7287330" lon="-0.9587330">
        <ele>277.5</ele>
        <time>2019-01-01T13:50:05Z</time>
      </trkpt>
      <trkpt lat="41.7287040" lon="-0.9586960">
        <ele>277.4</ele>
        <time>2019-01-01T13:50:07Z</time>
      </trkpt>
      <trkpt lat="41.7286700" lon="-0.9586630">
        <ele>277.3</ele>
        <time>2019-01-01T13:50:09Z</time>
      </trkpt>
      <trkpt lat="41.7286480" lon="-0.9586320">
        <ele>277.1</ele>
        <time>2019-01-01T13:50:11Z</time>
      </trkpt>
      <trkpt lat="41.7286280" lon="-0.9586010">
        <ele>276.9</ele>
        <time>2019-01-01T13:50:13Z</time>
      </trkpt>
      <trkpt lat="41.7286070" lon="-0.9585700">
        <ele>276.7</ele>
        <time>2019-01-01T13:50:15Z</time>
      </trkpt>
      <trkpt lat="41.7285780" lon="-0.9585360">
        <ele>276.4</ele>
        <time>2019-01-01T13:50:17Z</time>
      </trkpt>
      <trkpt lat="41.7285520" lon="-0.9585050">
        <ele>276.2</ele>
        <time>2019-01-01T13:50:19Z</time>
      </trkpt>
      <trkpt lat="41.7285200" lon="-0.9584710">
        <ele>275.5</ele>
        <time>2019-01-01T13:50:21Z</time>
      </trkpt>
      <trkpt lat="41.7284970" lon="-0.9584460">
        <ele>275.1</ele>
        <time>2019-01-01T13:50:22Z</time>
      </trkpt>
      <trkpt lat="41.7284730" lon="-0.9584230">
        <ele>274.8</ele>
        <time>2019-01-01T13:50:23Z</time>
      </trkpt>
      <trkpt lat="41.7284470" lon="-0.9583990">
        <ele>274.3</ele>
        <time>2019-01-01T13:50:24Z</time>
      </trkpt>
      <trkpt lat="41.7284220" lon="-0.9583730">
        <ele>273.6</ele>
        <time>2019-01-01T13:50:25Z</time>
      </trkpt>
      <trkpt lat="41.7283980" lon="-0.9583460">
        <ele>273.0</ele>
        <time>2019-01-01T13:50:26Z</time>
      </trkpt>
      <trkpt lat="41.7283720" lon="-0.9583160">
        <ele>272.2</ele>
        <time>2019-01-01T13:50:27Z</time>
      </trkpt>
      <trkpt lat="41.7283450" lon="-0.9582870">
        <ele>272.1</ele>
        <time>2019-01-01T13:50:28Z</time>
      </trkpt>
      <trkpt lat="41.7283180" lon="-0.9582590">
        <ele>271.5</ele>
        <time>2019-01-01T13:50:29Z</time>
      </trkpt>
      <trkpt lat="41.7282850" lon="-0.9582230">
        <ele>270.9</ele>
        <time>2019-01-01T13:50:30Z</time>
      </trkpt>
      <trkpt lat="41.7282550" lon="-0.9581890">
        <ele>270.3</ele>
        <time>2019-01-01T13:50:31Z</time>
      </trkpt>
      <trkpt lat="41.7282250" lon="-0.9581520">
        <ele>269.7</ele>
        <time>2019-01-01T13:50:32Z</time>
      </trkpt>
      <trkpt lat="41.7281930" lon="-0.9581040">
        <ele>269.2</ele>
        <time>2019-01-01T13:50:33Z</time>
      </trkpt>
      <trkpt lat="41.7281590" lon="-0.9580600">
        <ele>268.6</ele>
        <time>2019-01-01T13:50:34Z</time>
      </trkpt>
      <trkpt lat="41.7281120" lon="-0.9580170">
        <ele>267.8</ele>
        <time>2019-01-01T13:50:35Z</time>
      </trkpt>
      <trkpt lat="41.7280780" lon="-0.9579800">
        <ele>267.4</ele>
        <time>2019-01-01T13:50:36Z</time>
      </trkpt>
      <trkpt lat="41.7280370" lon="-0.9579340">
        <ele>266.9</ele>
        <time>2019-01-01T13:50:37Z</time>
      </trkpt>
      <trkpt lat="41.7279770" lon="-0.9578900">
        <ele>266.3</ele>
        <time>2019-01-01T13:50:38Z</time>
      </trkpt>
      <trkpt lat="41.7279180" lon="-0.9578550">
        <ele>265.9</ele>
        <time>2019-01-01T13:50:39Z</time>
      </trkpt>
      <trkpt lat="41.7278550" lon="-0.9578170">
        <ele>265.5</ele>
        <time>2019-01-01T13:50:40Z</time>
      </trkpt>
      <trkpt lat="41.7277860" lon="-0.9577850">
        <ele>265.3</ele>
        <time>2019-01-01T13:50:41Z</time>
      </trkpt>
      <trkpt lat="41.7277230" lon="-0.9577500">
        <ele>264.9</ele>
        <time>2019-01-01T13:50:42Z</time>
      </trkpt>
      <trkpt lat="41.7276600" lon="-0.9577160">
        <ele>264.7</ele>
        <time>2019-01-01T13:50:43Z</time>
      </trkpt>
      <trkpt lat="41.7275960" lon="-0.9576870">
        <ele>264.5</ele>
        <time>2019-01-01T13:50:44Z</time>
      </trkpt>
      <trkpt lat="41.7275360" lon="-0.9576620">
        <ele>264.3</ele>
        <time>2019-01-01T13:50:45Z</time>
      </trkpt>
      <trkpt lat="41.7274700" lon="-0.9576320">
        <ele>264.0</ele>
        <time>2019-01-01T13:50:46Z</time>
      </trkpt>
      <trkpt lat="41.7273900" lon="-0.9575970">
        <ele>263.9</ele>
        <time>2019-01-01T13:50:47Z</time>
      </trkpt>
      <trkpt lat="41.7273120" lon="-0.9575750">
        <ele>263.3</ele>
        <time>2019-01-01T13:50:48Z</time>
      </trkpt>
      <trkpt lat="41.7272480" lon="-0.9575660">
        <ele>262.9</ele>
        <time>2019-01-01T13:50:49Z</time>
      </trkpt>
      <trkpt lat="41.7271750" lon="-0.9575540">
        <ele>262.2</ele>
        <time>2019-01-01T13:50:50Z</time>
      </trkpt>
      <trkpt lat="41.7271020" lon="-0.9575610">
        <ele>261.5</ele>
        <time>2019-01-01T13:50:51Z</time>
      </trkpt>
      <trkpt lat="41.7270420" lon="-0.9575690">
        <ele>260.7</ele>
        <time>2019-01-01T13:50:52Z</time>
      </trkpt>
      <trkpt lat="41.7269870" lon="-0.9575780">
        <ele>259.4</ele>
        <time>2019-01-01T13:50:53Z</time>
      </trkpt>
      <trkpt lat="41.7269420" lon="-0.9575710">
        <ele>258.9</ele>
        <time>2019-01-01T13:50:54Z</time>
      </trkpt>
      <trkpt lat="41.7269050" lon="-0.9575570">
        <ele>258.8</ele>
        <time>2019-01-01T13:50:55Z</time>
      </trkpt>
      <trkpt lat="41.7268790" lon="-0.9575250">
        <ele>258.7</ele>
        <time>2019-01-01T13:50:56Z</time>
      </trkpt>
      <trkpt lat="41.7268420" lon="-0.9574640">
        <ele>258.6</ele>
        <time>2019-01-01T13:50:58Z</time>
      </trkpt>
      <trkpt lat="41.7268360" lon="-0.9574170">
        <ele>258.6</ele>
        <time>2019-01-01T13:51:01Z</time>
      </trkpt>
      <trkpt lat="41.7268360" lon="-0.9573550">
        <ele>259.4</ele>
        <time>2019-01-01T13:51:03Z</time>
      </trkpt>
      <trkpt lat="41.7268350" lon="-0.9573060">
        <ele>259.8</ele>
        <time>2019-01-01T13:51:04Z</time>
      </trkpt>
      <trkpt lat="41.7268360" lon="-0.9572640">
        <ele>260.2</ele>
        <time>2019-01-01T13:51:05Z</time>
      </trkpt>
      <trkpt lat="41.7268370" lon="-0.9572190">
        <ele>260.6</ele>
        <time>2019-01-01T13:51:06Z</time>
      </trkpt>
      <trkpt lat="41.7268350" lon="-0.9571750">
        <ele>261.0</ele>
        <time>2019-01-01T13:51:07Z</time>
      </trkpt>
      <trkpt lat="41.7268320" lon="-0.9571300">
        <ele>261.3</ele>
        <time>2019-01-01T13:51:08Z</time>
      </trkpt>
      <trkpt lat="41.7268260" lon="-0.9570880">
        <ele>261.7</ele>
        <time>2019-01-01T13:51:09Z</time>
      </trkpt>
      <trkpt lat="41.7268160" lon="-0.9570470">
        <ele>262.0</ele>
        <time>2019-01-01T13:51:11Z</time>
      </trkpt>
      <trkpt lat="41.7267990" lon="-0.9570020">
        <ele>261.8</ele>
        <time>2019-01-01T13:51:14Z</time>
      </trkpt>
      <trkpt lat="41.7267810" lon="-0.9569410">
        <ele>262.1</ele>
        <time>2019-01-01T13:51:16Z</time>
      </trkpt>
      <trkpt lat="41.7267730" lon="-0.9569060">
        <ele>261.8</ele>
        <time>2019-01-01T13:51:17Z</time>
      </trkpt>
      <trkpt lat="41.7267560" lon="-0.9568410">
        <ele>262.0</ele>
        <time>2019-01-01T13:51:19Z</time>
      </trkpt>
      <trkpt lat="41.7267310" lon="-0.9567780">
        <ele>261.9</ele>
        <time>2019-01-01T13:51:21Z</time>
      </trkpt>
      <trkpt lat="41.7267160" lon="-0.9567460">
        <ele>262.1</ele>
        <time>2019-01-01T13:51:22Z</time>
      </trkpt>
      <trkpt lat="41.7266990" lon="-0.9567160">
        <ele>261.6</ele>
        <time>2019-01-01T13:51:23Z</time>
      </trkpt>
      <trkpt lat="41.7266830" lon="-0.9566840">
        <ele>261.8</ele>
        <time>2019-01-01T13:51:24Z</time>
      </trkpt>
      <trkpt lat="41.7266680" lon="-0.9566510">
        <ele>261.4</ele>
        <time>2019-01-01T13:51:25Z</time>
      </trkpt>
      <trkpt lat="41.7266540" lon="-0.9566180">
        <ele>261.5</ele>
        <time>2019-01-01T13:51:26Z</time>
      </trkpt>
      <trkpt lat="41.7266400" lon="-0.9565840">
        <ele>260.9</ele>
        <time>2019-01-01T13:51:27Z</time>
      </trkpt>
      <trkpt lat="41.7266290" lon="-0.9565490">
        <ele>261.0</ele>
        <time>2019-01-01T13:51:28Z</time>
      </trkpt>
      <trkpt lat="41.7266190" lon="-0.9565140">
        <ele>261.1</ele>
        <time>2019-01-01T13:51:29Z</time>
      </trkpt>
      <trkpt lat="41.7266100" lon="-0.9564770">
        <ele>260.6</ele>
        <time>2019-01-01T13:51:30Z</time>
      </trkpt>
      <trkpt lat="41.7266050" lon="-0.9564390">
        <ele>260.6</ele>
        <time>2019-01-01T13:51:31Z</time>
      </trkpt>
      <trkpt lat="41.7266050" lon="-0.9563990">
        <ele>260.7</ele>
        <time>2019-01-01T13:51:32Z</time>
      </trkpt>
      <trkpt lat="41.7266050" lon="-0.9563620">
        <ele>260.8</ele>
        <time>2019-01-01T13:51:33Z</time>
      </trkpt>
      <trkpt lat="41.7266000" lon="-0.9563260">
        <ele>260.8</ele>
        <time>2019-01-01T13:51:34Z</time>
      </trkpt>
      <trkpt lat="41.7265650" lon="-0.9562780">
        <ele>260.3</ele>
        <time>2019-01-01T13:51:36Z</time>
      </trkpt>
      <trkpt lat="41.7265390" lon="-0.9562270">
        <ele>259.7</ele>
        <time>2019-01-01T13:51:44Z</time>
      </trkpt>
      <trkpt lat="41.7265150" lon="-0.9561640">
        <ele>259.2</ele>
        <time>2019-01-01T13:51:46Z</time>
      </trkpt>
      <trkpt lat="41.7264970" lon="-0.9561100">
        <ele>259.2</ele>
        <time>2019-01-01T13:51:48Z</time>
      </trkpt>
      <trkpt lat="41.7264820" lon="-0.9560670">
        <ele>258.6</ele>
        <time>2019-01-01T13:51:50Z</time>
      </trkpt>
      <trkpt lat="41.7264670" lon="-0.9560260">
        <ele>258.6</ele>
        <time>2019-01-01T13:51:52Z</time>
      </trkpt>
      <trkpt lat="41.7264460" lon="-0.9559840">
        <ele>257.9</ele>
        <time>2019-01-01T13:51:54Z</time>
      </trkpt>
      <trkpt lat="41.7264120" lon="-0.9559370">
        <ele>257.2</ele>
        <time>2019-01-01T13:51:56Z</time>
      </trkpt>
      <trkpt lat="41.7263900" lon="-0.9559130">
        <ele>256.3</ele>
        <time>2019-01-01T13:51:57Z</time>
      </trkpt>
      <trkpt lat="41.7263650" lon="-0.9558910">
        <ele>256.3</ele>
        <time>2019-01-01T13:51:58Z</time>
      </trkpt>
      <trkpt lat="41.7263410" lon="-0.9558720">
        <ele>255.4</ele>
        <time>2019-01-01T13:51:59Z</time>
      </trkpt>
      <trkpt lat="41.7263150" lon="-0.9558540">
        <ele>254.6</ele>
        <time>2019-01-01T13:52:00Z</time>
      </trkpt>
      <trkpt lat="41.7262880" lon="-0.9558340">
        <ele>253.7</ele>
        <time>2019-01-01T13:52:01Z</time>
      </trkpt>
      <trkpt lat="41.7262610" lon="-0.9558120">
        <ele>252.8</ele>
        <time>2019-01-01T13:52:02Z</time>
      </trkpt>
      <trkpt lat="41.7262350" lon="-0.9557840">
        <ele>252.9</ele>
        <time>2019-01-01T13:52:03Z</time>
      </trkpt>
      <trkpt lat="41.7262080" lon="-0.9557490">
        <ele>252.1</ele>
        <time>2019-01-01T13:52:04Z</time>
      </trkpt>
      <trkpt lat="41.7261830" lon="-0.9557130">
        <ele>251.3</ele>
        <time>2019-01-01T13:52:05Z</time>
      </trkpt>
      <trkpt lat="41.7261580" lon="-0.9556770">
        <ele>250.4</ele>
        <time>2019-01-01T13:52:06Z</time>
      </trkpt>
      <trkpt lat="41.7261360" lon="-0.9556410">
        <ele>250.4</ele>
        <time>2019-01-01T13:52:07Z</time>
      </trkpt>
      <trkpt lat="41.7261190" lon="-0.9556070">
        <ele>249.5</ele>
        <time>2019-01-01T13:52:08Z</time>
      </trkpt>
      <trkpt lat="41.7261050" lon="-0.9555720">
        <ele>249.5</ele>
        <time>2019-01-01T13:52:09Z</time>
      </trkpt>
      <trkpt lat="41.7260920" lon="-0.9555370">
        <ele>248.5</ele>
        <time>2019-01-01T13:52:10Z</time>
      </trkpt>
      <trkpt lat="41.7260770" lon="-0.9555050">
        <ele>248.5</ele>
        <time>2019-01-01T13:52:11Z</time>
      </trkpt>
      <trkpt lat="41.7260590" lon="-0.9554750">
        <ele>247.6</ele>
        <time>2019-01-01T13:52:12Z</time>
      </trkpt>
      <trkpt lat="41.7260410" lon="-0.9554450">
        <ele>247.6</ele>
        <time>2019-01-01T13:52:13Z</time>
      </trkpt>
      <trkpt lat="41.7260220" lon="-0.9554140">
        <ele>246.6</ele>
        <time>2019-01-01T13:52:14Z</time>
      </trkpt>
      <trkpt lat="41.7260030" lon="-0.9553860">
        <ele>245.8</ele>
        <time>2019-01-01T13:52:15Z</time>
      </trkpt>
      <trkpt lat="41.7259830" lon="-0.9553590">
        <ele>245.8</ele>
        <time>2019-01-01T13:52:16Z</time>
      </trkpt>
      <trkpt lat="41.7259640" lon="-0.9553300">
        <ele>245.0</ele>
        <time>2019-01-01T13:52:17Z</time>
      </trkpt>
      <trkpt lat="41.7259480" lon="-0.9552970">
        <ele>245.0</ele>
        <time>2019-01-01T13:52:18Z</time>
      </trkpt>
      <trkpt lat="41.7259310" lon="-0.9552620">
        <ele>244.3</ele>
        <time>2019-01-01T13:52:19Z</time>
      </trkpt>
      <trkpt lat="41.7259110" lon="-0.9552260">
        <ele>244.3</ele>
        <time>2019-01-01T13:52:20Z</time>
      </trkpt>
      <trkpt lat="41.7258840" lon="-0.9551790">
        <ele>243.5</ele>
        <time>2019-01-01T13:52:21Z</time>
      </trkpt>
      <trkpt lat="41.7258570" lon="-0.9551330">
        <ele>242.7</ele>
        <time>2019-01-01T13:52:22Z</time>
      </trkpt>
      <trkpt lat="41.7258310" lon="-0.9550850">
        <ele>241.9</ele>
        <time>2019-01-01T13:52:23Z</time>
      </trkpt>
      <trkpt lat="41.7258070" lon="-0.9550370">
        <ele>241.1</ele>
        <time>2019-01-01T13:52:24Z</time>
      </trkpt>
      <trkpt lat="41.7257840" lon="-0.9549920">
        <ele>241.2</ele>
        <time>2019-01-01T13:52:25Z</time>
      </trkpt>
      <trkpt lat="41.7257610" lon="-0.9549490">
        <ele>240.5</ele>
        <time>2019-01-01T13:52:26Z</time>
      </trkpt>
      <trkpt lat="41.7257400" lon="-0.9549040">
        <ele>239.8</ele>
        <time>2019-01-01T13:52:27Z</time>
      </trkpt>
      <trkpt lat="41.7257220" lon="-0.9548600">
        <ele>239.8</ele>
        <time>2019-01-01T13:52:28Z</time>
      </trkpt>
      <trkpt lat="41.7257040" lon="-0.9548170">
        <ele>239.1</ele>
        <time>2019-01-01T13:52:29Z</time>
      </trkpt>
      <trkpt lat="41.7256840" lon="-0.9547830">
        <ele>238.4</ele>
        <time>2019-01-01T13:52:30Z</time>
      </trkpt>
      <trkpt lat="41.7256600" lon="-0.9547550">
        <ele>238.4</ele>
        <time>2019-01-01T13:52:31Z</time>
      </trkpt>
      <trkpt lat="41.7256350" lon="-0.9547310">
        <ele>237.7</ele>
        <time>2019-01-01T13:52:32Z</time>
      </trkpt>
      <trkpt lat="41.7256100" lon="-0.9547050">
        <ele>236.9</ele>
        <time>2019-01-01T13:52:33Z</time>
      </trkpt>
      <trkpt lat="41.7255890" lon="-0.9546800">
        <ele>236.1</ele>
        <time>2019-01-01T13:52:34Z</time>
      </trkpt>
      <trkpt lat="41.7255850" lon="-0.9546330">
        <ele>236.2</ele>
        <time>2019-01-01T13:52:56Z</time>
      </trkpt>
      <trkpt lat="41.7255760" lon="-0.9545910">
        <ele>236.2</ele>
        <time>2019-01-01T13:52:58Z</time>
      </trkpt>
      <trkpt lat="41.7255570" lon="-0.9545570">
        <ele>235.4</ele>
        <time>2019-01-01T13:53:00Z</time>
      </trkpt>
      <trkpt lat="41.7255390" lon="-0.9545260">
        <ele>235.4</ele>
        <time>2019-01-01T13:53:02Z</time>
      </trkpt>
      <trkpt lat="41.7255250" lon="-0.9544850">
        <ele>234.6</ele>
        <time>2019-01-01T13:53:04Z</time>
      </trkpt>
      <trkpt lat="41.7255130" lon="-0.9544310">
        <ele>234.5</ele>
        <time>2019-01-01T13:53:06Z</time>
      </trkpt>
      <trkpt lat="41.7255010" lon="-0.9543710">
        <ele>234.4</ele>
        <time>2019-01-01T13:53:08Z</time>
      </trkpt>
      <trkpt lat="41.7255010" lon="-0.9543260">
        <ele>234.3</ele>
        <time>2019-01-01T13:53:29Z</time>
      </trkpt>
      <trkpt lat="41.7254870" lon="-0.9542900">
        <ele>233.5</ele>
        <time>2019-01-01T13:53:31Z</time>
      </trkpt>
      <trkpt lat="41.7254640" lon="-0.9542450">
        <ele>233.3</ele>
        <time>2019-01-01T13:53:33Z</time>
      </trkpt>
      <trkpt lat="41.7254310" lon="-0.9542110">
        <ele>232.4</ele>
        <time>2019-01-01T13:53:35Z</time>
      </trkpt>
      <trkpt lat="41.7253950" lon="-0.9541860">
        <ele>230.9</ele>
        <time>2019-01-01T13:53:37Z</time>
      </trkpt>
      <trkpt lat="41.7253700" lon="-0.9541510">
        <ele>230.7</ele>
        <time>2019-01-01T13:53:49Z</time>
      </trkpt>
      <trkpt lat="41.7253350" lon="-0.9541000">
        <ele>229.8</ele>
        <time>2019-01-01T13:53:51Z</time>
      </trkpt>
      <trkpt lat="41.7253000" lon="-0.9540410">
        <ele>228.1</ele>
        <time>2019-01-01T13:53:53Z</time>
      </trkpt>
      <trkpt lat="41.7252810" lon="-0.9540090">
        <ele>228.1</ele>
        <time>2019-01-01T13:53:54Z</time>
      </trkpt>
      <trkpt lat="41.7252610" lon="-0.9539740">
        <ele>227.4</ele>
        <time>2019-01-01T13:53:55Z</time>
      </trkpt>
      <trkpt lat="41.7252430" lon="-0.9539380">
        <ele>227.4</ele>
        <time>2019-01-01T13:53:56Z</time>
      </trkpt>
      <trkpt lat="41.7252260" lon="-0.9539000">
        <ele>226.7</ele>
        <time>2019-01-01T13:53:57Z</time>
      </trkpt>
      <trkpt lat="41.7252100" lon="-0.9538580">
        <ele>226.7</ele>
        <time>2019-01-01T13:53:58Z</time>
      </trkpt>
      <trkpt lat="41.7251950" lon="-0.9538120">
        <ele>226.0</ele>
        <time>2019-01-01T13:53:59Z</time>
      </trkpt>
      <trkpt lat="41.7251780" lon="-0.9537620">
        <ele>225.9</ele>
        <time>2019-01-01T13:54:00Z</time>
      </trkpt>
      <trkpt lat="41.7251610" lon="-0.9537160">
        <ele>225.3</ele>
        <time>2019-01-01T13:54:01Z</time>
      </trkpt>
      <trkpt lat="41.7251440" lon="-0.9536750">
        <ele>225.2</ele>
        <time>2019-01-01T13:54:02Z</time>
      </trkpt>
      <trkpt lat="41.7251240" lon="-0.9536350">
        <ele>224.6</ele>
        <time>2019-01-01T13:54:03Z</time>
      </trkpt>
      <trkpt lat="41.7251000" lon="-0.9536000">
        <ele>224.0</ele>
        <time>2019-01-01T13:54:04Z</time>
      </trkpt>
      <trkpt lat="41.7250740" lon="-0.9535660">
        <ele>223.5</ele>
        <time>2019-01-01T13:54:05Z</time>
      </trkpt>
      <trkpt lat="41.7250490" lon="-0.9535360">
        <ele>223.7</ele>
        <time>2019-01-01T13:54:06Z</time>
      </trkpt>
      <trkpt lat="41.7250240" lon="-0.9535120">
        <ele>223.1</ele>
        <time>2019-01-01T13:54:07Z</time>
      </trkpt>
      <trkpt lat="41.7249790" lon="-0.9534920">
        <ele>222.1</ele>
        <time>2019-01-01T13:54:09Z</time>
      </trkpt>
      <trkpt lat="41.7249330" lon="-0.9534530">
        <ele>221.5</ele>
        <time>2019-01-01T13:54:11Z</time>
      </trkpt>
      <trkpt lat="41.7249140" lon="-0.9534280">
        <ele>221.2</ele>
        <time>2019-01-01T13:54:12Z</time>
      </trkpt>
      <trkpt lat="41.7248900" lon="-0.9533910">
        <ele>221.5</ele>
        <time>2019-01-01T13:54:47Z</time>
      </trkpt>
      <trkpt lat="41.7248530" lon="-0.9533380">
        <ele>220.6</ele>
        <time>2019-01-01T13:54:49Z</time>
      </trkpt>
      <trkpt lat="41.7248330" lon="-0.9533100">
        <ele>220.8</ele>
        <time>2019-01-01T13:54:50Z</time>
      </trkpt>
      <trkpt lat="41.7248120" lon="-0.9532870">
        <ele>220.3</ele>
        <time>2019-01-01T13:54:51Z</time>
      </trkpt>
      <trkpt lat="41.7247770" lon="-0.9532510">
        <ele>220.0</ele>
        <time>2019-01-01T13:54:53Z</time>
      </trkpt>
      <trkpt lat="41.7247510" lon="-0.9532130">
        <ele>219.7</ele>
        <time>2019-01-01T13:55:08Z</time>
      </trkpt>
      <trkpt lat="41.7247320" lon="-0.9531770">
        <ele>220.0</ele>
        <time>2019-01-01T13:55:09Z</time>
      </trkpt>
      <trkpt lat="41.7247130" lon="-0.9531390">
        <ele>219.7</ele>
        <time>2019-01-01T13:55:10Z</time>
      </trkpt>
      <trkpt lat="41.7246950" lon="-0.9530980">
        <ele>220.0</ele>
        <time>2019-01-01T13:55:11Z</time>
      </trkpt>
      <trkpt lat="41.7246780" lon="-0.9530540">
        <ele>219.8</ele>
        <time>2019-01-01T13:55:12Z</time>
      </trkpt>
      <trkpt lat="41.7246610" lon="-0.9530110">
        <ele>219.5</ele>
        <time>2019-01-01T13:55:13Z</time>
      </trkpt>
      <trkpt lat="41.7246470" lon="-0.9529700">
        <ele>219.3</ele>
        <time>2019-01-01T13:55:14Z</time>
      </trkpt>
      <trkpt lat="41.7246310" lon="-0.9529320">
        <ele>219.0</ele>
        <time>2019-01-01T13:55:15Z</time>
      </trkpt>
      <trkpt lat="41.7246120" lon="-0.9528990">
        <ele>218.8</ele>
        <time>2019-01-01T13:55:16Z</time>
      </trkpt>
      <trkpt lat="41.7245900" lon="-0.9528680">
        <ele>218.6</ele>
        <time>2019-01-01T13:55:17Z</time>
      </trkpt>
      <trkpt lat="41.7245660" lon="-0.9528420">
        <ele>218.4</ele>
        <time>2019-01-01T13:55:18Z</time>
      </trkpt>
      <trkpt lat="41.7245400" lon="-0.9528210">
        <ele>218.2</ele>
        <time>2019-01-01T13:55:19Z</time>
      </trkpt>
      <trkpt lat="41.7245150" lon="-0.9528030">
        <ele>218.0</ele>
        <time>2019-01-01T13:55:20Z</time>
      </trkpt>
      <trkpt lat="41.7244910" lon="-0.9527830">
        <ele>217.2</ele>
        <time>2019-01-01T13:55:21Z</time>
      </trkpt>
      <trkpt lat="41.7244540" lon="-0.9527410">
        <ele>216.7</ele>
        <time>2019-01-01T13:55:23Z</time>
      </trkpt>
      <trkpt lat="41.7244210" lon="-0.9526900">
        <ele>216.3</ele>
        <time>2019-01-01T13:55:25Z</time>
      </trkpt>
      <trkpt lat="41.7243970" lon="-0.9526320">
        <ele>215.9</ele>
        <time>2019-01-01T13:55:27Z</time>
      </trkpt>
      <trkpt lat="41.7243840" lon="-0.9525690">
        <ele>215.6</ele>
        <time>2019-01-01T13:55:29Z</time>
      </trkpt>
      <trkpt lat="41.7243770" lon="-0.9525030">
        <ele>215.4</ele>
        <time>2019-01-01T13:55:31Z</time>
      </trkpt>
      <trkpt lat="41.7243730" lon="-0.9524420">
        <ele>215.1</ele>
        <time>2019-01-01T13:55:33Z</time>
      </trkpt>
      <trkpt lat="41.7243590" lon="-0.9523900">
        <ele>214.9</ele>
        <time>2019-01-01T13:56:00Z</time>
      </trkpt>
      <trkpt lat="41.7243450" lon="-0.9523330">
        <ele>214.7</ele>
        <time>2019-01-01T13:56:02Z</time>
      </trkpt>
      <trkpt lat="41.7243310" lon="-0.9522850">
        <ele>214.5</ele>
        <time>2019-01-01T13:56:04Z</time>
      </trkpt>
      <trkpt lat="41.7243200" lon="-0.9522330">
        <ele>214.3</ele>
        <time>2019-01-01T13:56:06Z</time>
      </trkpt>
      <trkpt lat="41.7243010" lon="-0.9521690">
        <ele>214.2</ele>
        <time>2019-01-01T13:56:08Z</time>
      </trkpt>
      <trkpt lat="41.7242800" lon="-0.9521260">
        <ele>214.2</ele>
        <time>2019-01-01T13:56:09Z</time>
      </trkpt>
      <trkpt lat="41.7242570" lon="-0.9520820">
        <ele>214.2</ele>
        <time>2019-01-01T13:56:10Z</time>
      </trkpt>
      <trkpt lat="41.7242410" lon="-0.9520320">
        <ele>214.2</ele>
        <time>2019-01-01T13:56:11Z</time>
      </trkpt>
      <trkpt lat="41.7242230" lon="-0.9519810">
        <ele>214.2</ele>
        <time>2019-01-01T13:56:12Z</time>
      </trkpt>
      <trkpt lat="41.7242030" lon="-0.9519410">
        <ele>214.1</ele>
        <time>2019-01-01T13:56:13Z</time>
      </trkpt>
      <trkpt lat="41.7241770" lon="-0.9519180">
        <ele>214.1</ele>
        <time>2019-01-01T13:56:14Z</time>
      </trkpt>
      <trkpt lat="41.7241490" lon="-0.9519200">
        <ele>214.1</ele>
        <time>2019-01-01T13:56:15Z</time>
      </trkpt>
      <trkpt lat="41.7241320" lon="-0.9519640">
        <ele>214.2</ele>
        <time>2019-01-01T13:56:17Z</time>
      </trkpt>
      <trkpt lat="41.7241300" lon="-0.9520190">
        <ele>214.2</ele>
        <time>2019-01-01T13:56:19Z</time>
      </trkpt>
      <trkpt lat="41.7241190" lon="-0.9520690">
        <ele>214.2</ele>
        <time>2019-01-01T13:56:21Z</time>
      </trkpt>
      <trkpt lat="41.7241080" lon="-0.9521220">
        <ele>214.1</ele>
        <time>2019-01-01T13:56:23Z</time>
      </trkpt>
      <trkpt lat="41.7241010" lon="-0.9521690">
        <ele>214.1</ele>
        <time>2019-01-01T13:56:24Z</time>
      </trkpt>
      <trkpt lat="41.7241000" lon="-0.9522310">
        <ele>214.0</ele>
        <time>2019-01-01T13:56:25Z</time>
      </trkpt>
      <trkpt lat="41.7241030" lon="-0.9523040">
        <ele>213.9</ele>
        <time>2019-01-01T13:56:26Z</time>
      </trkpt>
      <trkpt lat="41.7241550" lon="-0.9523970">
        <ele>213.7</ele>
        <time>2019-01-01T13:56:27Z</time>
      </trkpt>
      <trkpt lat="41.7241630" lon="-0.9524690">
        <ele>213.5</ele>
        <time>2019-01-01T13:56:28Z</time>
      </trkpt>
      <trkpt lat="41.7241730" lon="-0.9525330">
        <ele>213.4</ele>
        <time>2019-01-01T13:56:29Z</time>
      </trkpt>
      <trkpt lat="41.7241970" lon="-0.9526200">
        <ele>213.1</ele>
        <time>2019-01-01T13:56:30Z</time>
      </trkpt>
      <trkpt lat="41.7242450" lon="-0.9527130">
        <ele>212.7</ele>
        <time>2019-01-01T13:56:31Z</time>
      </trkpt>
      <trkpt lat="41.7242730" lon="-0.9528140">
        <ele>212.3</ele>
        <time>2019-01-01T13:56:32Z</time>
      </trkpt>
      <trkpt lat="41.7242970" lon="-0.9529110">
        <ele>211.9</ele>
        <time>2019-01-01T13:56:33Z</time>
      </trkpt>
      <trkpt lat="41.7243360" lon="-0.9530250">
        <ele>211.5</ele>
        <time>2019-01-01T13:56:34Z</time>
      </trkpt>
      <trkpt lat="41.7243630" lon="-0.9531220">
        <ele>211.1</ele>
        <time>2019-01-01T13:56:35Z</time>
      </trkpt>
      <trkpt lat="41.7243760" lon="-0.9532000">
        <ele>210.9</ele>
        <time>2019-01-01T13:56:36Z</time>
      </trkpt>
      <trkpt lat="41.7244210" lon="-0.9532820">
        <ele>210.7</ele>
        <time>2019-01-01T13:56:37Z</time>
      </trkpt>
      <trkpt lat="41.7244170" lon="-0.9533300">
        <ele>210.6</ele>
        <time>2019-01-01T13:56:38Z</time>
      </trkpt>
      <trkpt lat="41.7244180" lon="-0.9533670">
        <ele>210.6</ele>
        <time>2019-01-01T13:56:39Z</time>
      </trkpt>
      <trkpt lat="41.7244090" lon="-0.9534240">
        <ele>210.5</ele>
        <time>2019-01-01T13:56:40Z</time>
      </trkpt>
      <trkpt lat="41.7243840" lon="-0.9534410">
        <ele>210.5</ele>
        <time>2019-01-01T13:56:41Z</time>
      </trkpt>
      <trkpt lat="41.7242920" lon="-0.9534490">
        <ele>208.6</ele>
        <time>2019-01-01T13:56:42Z</time>
      </trkpt>
      <trkpt lat="41.7242530" lon="-0.9534780">
        <ele>208.5</ele>
        <time>2019-01-01T13:56:43Z</time>
      </trkpt>
      <trkpt lat="41.7241850" lon="-0.9534910">
        <ele>208.2</ele>
        <time>2019-01-01T13:56:44Z</time>
      </trkpt>
      <trkpt lat="41.7241380" lon="-0.9534790">
        <ele>208.0</ele>
        <time>2019-01-01T13:56:45Z</time>
      </trkpt>
      <trkpt lat="41.7240770" lon="-0.9534360">
        <ele>207.7</ele>
        <time>2019-01-01T13:56:46Z</time>
      </trkpt>
      <trkpt lat="41.7240530" lon="-0.9534180">
        <ele>206.2</ele>
        <time>2019-01-01T13:56:47Z</time>
      </trkpt>
      <trkpt lat="41.7240040" lon="-0.9534010">
        <ele>205.8</ele>
        <time>2019-01-01T13:56:48Z</time>
      </trkpt>
      <trkpt lat="41.7239660" lon="-0.9533980">
        <ele>205.6</ele>
        <time>2019-01-01T13:56:49Z</time>
      </trkpt>
      <trkpt lat="41.7239260" lon="-0.9534250">
        <ele>205.3</ele>
        <time>2019-01-01T13:56:50Z</time>
      </trkpt>
      <trkpt lat="41.7239050" lon="-0.9534490">
        <ele>205.2</ele>
        <time>2019-01-01T13:56:51Z</time>
      </trkpt>
      <trkpt lat="41.7238830" lon="-0.9534850">
        <ele>205.0</ele>
        <time>2019-01-01T13:56:52Z</time>
      </trkpt>
      <trkpt lat="41.7238490" lon="-0.9534970">
        <ele>204.9</ele>
        <time>2019-01-01T13:56:53Z</time>
      </trkpt>
      <trkpt lat="41.7238200" lon="-0.9535130">
        <ele>204.8</ele>
        <time>2019-01-01T13:56:54Z</time>
      </trkpt>
      <trkpt lat="41.7237800" lon="-0.9535260">
        <ele>204.6</ele>
        <time>2019-01-01T13:56:55Z</time>
      </trkpt>
      <trkpt lat="41.7237450" lon="-0.9535270">
        <ele>204.5</ele>
        <time>2019-01-01T13:56:56Z</time>
      </trkpt>
      <trkpt lat="41.7237020" lon="-0.9535370">
        <ele>204.4</ele>
        <time>2019-01-01T13:56:57Z</time>
      </trkpt>
      <trkpt lat="41.7236670" lon="-0.9535330">
        <ele>204.3</ele>
        <time>2019-01-01T13:56:58Z</time>
      </trkpt>
      <trkpt lat="41.7236310" lon="-0.9535420">
        <ele>204.1</ele>
        <time>2019-01-01T13:56:59Z</time>
      </trkpt>
      <trkpt lat="41.7235940" lon="-0.9535550">
        <ele>204.0</ele>
        <time>2019-01-01T13:57:00Z</time>
      </trkpt>
      <trkpt lat="41.7235600" lon="-0.9535760">
        <ele>203.9</ele>
        <time>2019-01-01T13:57:01Z</time>
      </trkpt>
      <trkpt lat="41.7235280" lon="-0.9536080">
        <ele>203.7</ele>
        <time>2019-01-01T13:57:02Z</time>
      </trkpt>
      <trkpt lat="41.7234980" lon="-0.9536350">
        <ele>203.6</ele>
        <time>2019-01-01T13:57:03Z</time>
      </trkpt>
      <trkpt lat="41.7234700" lon="-0.9536590">
        <ele>203.5</ele>
        <time>2019-01-01T13:57:04Z</time>
      </trkpt>
      <trkpt lat="41.7234430" lon="-0.9536770">
        <ele>203.4</ele>
        <time>2019-01-01T13:57:05Z</time>
      </trkpt>
      <trkpt lat="41.7233980" lon="-0.9537120">
        <ele>203.3</ele>
        <time>2019-01-01T13:57:07Z</time>
      </trkpt>
      <trkpt lat="41.7233740" lon="-0.9537390">
        <ele>203.2</ele>
        <time>2019-01-01T13:57:08Z</time>
      </trkpt>
      <trkpt lat="41.7233510" lon="-0.9537670">
        <ele>203.1</ele>
        <time>2019-01-01T13:57:09Z</time>
      </trkpt>
      <trkpt lat="41.7233290" lon="-0.9537980">
        <ele>203.0</ele>
        <time>2019-01-01T13:57:10Z</time>
      </trkpt>
      <trkpt lat="41.7233040" lon="-0.9538220">
        <ele>202.9</ele>
        <time>2019-01-01T13:57:11Z</time>
      </trkpt>
      <trkpt lat="41.7232790" lon="-0.9538430">
        <ele>202.8</ele>
        <time>2019-01-01T13:57:12Z</time>
      </trkpt>
      <trkpt lat="41.7232530" lon="-0.9538620">
        <ele>202.7</ele>
        <time>2019-01-01T13:57:13Z</time>
      </trkpt>
      <trkpt lat="41.7232250" lon="-0.9538790">
        <ele>202.7</ele>
        <time>2019-01-01T13:57:14Z</time>
      </trkpt>
      <trkpt lat="41.7231960" lon="-0.9539050">
        <ele>202.6</ele>
        <time>2019-01-01T13:57:15Z</time>
      </trkpt>
      <trkpt lat="41.7231650" lon="-0.9539340">
        <ele>202.5</ele>
        <time>2019-01-01T13:57:16Z</time>
      </trkpt>
      <trkpt lat="41.7231360" lon="-0.9539620">
        <ele>202.5</ele>
        <time>2019-01-01T13:57:17Z</time>
      </trkpt>
      <trkpt lat="41.7231050" lon="-0.9539870">
        <ele>202.4</ele>
        <time>2019-01-01T13:57:18Z</time>
      </trkpt>
      <trkpt lat="41.7230720" lon="-0.9540070">
        <ele>202.3</ele>
        <time>2019-01-01T13:57:19Z</time>
      </trkpt>
      <trkpt lat="41.7230390" lon="-0.9540280">
        <ele>202.3</ele>
        <time>2019-01-01T13:57:20Z</time>
      </trkpt>
      <trkpt lat="41.7230060" lon="-0.9540500">
        <ele>202.3</ele>
        <time>2019-01-01T13:57:21Z</time>
      </trkpt>
      <trkpt lat="41.7229740" lon="-0.9540690">
        <ele>202.3</ele>
        <time>2019-01-01T13:57:22Z</time>
      </trkpt>
      <trkpt lat="41.7229390" lon="-0.9540830">
        <ele>202.3</ele>
        <time>2019-01-01T13:57:23Z</time>
      </trkpt>
      <trkpt lat="41.7229050" lon="-0.9540890">
        <ele>202.3</ele>
        <time>2019-01-01T13:57:24Z</time>
      </trkpt>
      <trkpt lat="41.7228710" lon="-0.9540930">
        <ele>202.3</ele>
        <time>2019-01-01T13:57:25Z</time>
      </trkpt>
      <trkpt lat="41.7228380" lon="-0.9540990">
        <ele>202.3</ele>
        <time>2019-01-01T13:57:26Z</time>
      </trkpt>
      <trkpt lat="41.7228050" lon="-0.9541090">
        <ele>202.3</ele>
        <time>2019-01-01T13:57:27Z</time>
      </trkpt>
      <trkpt lat="41.7227720" lon="-0.9541250">
        <ele>202.3</ele>
        <time>2019-01-01T13:57:28Z</time>
      </trkpt>
      <trkpt lat="41.7227390" lon="-0.9541370">
        <ele>202.3</ele>
        <time>2019-01-01T13:57:29Z</time>
      </trkpt>
      <trkpt lat="41.7227050" lon="-0.9541510">
        <ele>202.3</ele>
        <time>2019-01-01T13:57:30Z</time>
      </trkpt>
      <trkpt lat="41.7226730" lon="-0.9541660">
        <ele>202.3</ele>
        <time>2019-01-01T13:57:31Z</time>
      </trkpt>
      <trkpt lat="41.7226400" lon="-0.9541790">
        <ele>202.3</ele>
        <time>2019-01-01T13:57:32Z</time>
      </trkpt>
      <trkpt lat="41.7226070" lon="-0.9541910">
        <ele>202.3</ele>
        <time>2019-01-01T13:57:33Z</time>
      </trkpt>
      <trkpt lat="41.7225700" lon="-0.9542030">
        <ele>202.3</ele>
        <time>2019-01-01T13:57:34Z</time>
      </trkpt>
      <trkpt lat="41.7225310" lon="-0.9542180">
        <ele>202.3</ele>
        <time>2019-01-01T13:57:35Z</time>
      </trkpt>
      <trkpt lat="41.7224930" lon="-0.9542330">
        <ele>202.3</ele>
        <time>2019-01-01T13:57:36Z</time>
      </trkpt>
      <trkpt lat="41.7224490" lon="-0.9542460">
        <ele>202.3</ele>
        <time>2019-01-01T13:57:37Z</time>
      </trkpt>
      <trkpt lat="41.7224040" lon="-0.9542610">
        <ele>202.3</ele>
        <time>2019-01-01T13:57:38Z</time>
      </trkpt>
      <trkpt lat="41.7223580" lon="-0.9542730">
        <ele>202.3</ele>
        <time>2019-01-01T13:57:39Z</time>
      </trkpt>
      <trkpt lat="41.7223150" lon="-0.9542810">
        <ele>202.3</ele>
        <time>2019-01-01T13:57:40Z</time>
      </trkpt>
      <trkpt lat="41.7222740" lon="-0.9542870">
        <ele>202.3</ele>
        <time>2019-01-01T13:57:41Z</time>
      </trkpt>
      <trkpt lat="41.7222330" lon="-0.9542900">
        <ele>202.2</ele>
        <time>2019-01-01T13:57:42Z</time>
      </trkpt>
      <trkpt lat="41.7221930" lon="-0.9542900">
        <ele>202.2</ele>
        <time>2019-01-01T13:57:43Z</time>
      </trkpt>
      <trkpt lat="41.7221520" lon="-0.9542860">
        <ele>202.1</ele>
        <time>2019-01-01T13:57:44Z</time>
      </trkpt>
      <trkpt lat="41.7221150" lon="-0.9542800">
        <ele>202.1</ele>
        <time>2019-01-01T13:57:45Z</time>
      </trkpt>
      <trkpt lat="41.7220780" lon="-0.9542720">
        <ele>202.0</ele>
        <time>2019-01-01T13:57:46Z</time>
      </trkpt>
      <trkpt lat="41.7220410" lon="-0.9542640">
        <ele>201.9</ele>
        <time>2019-01-01T13:57:47Z</time>
      </trkpt>
      <trkpt lat="41.7220070" lon="-0.9542530">
        <ele>201.8</ele>
        <time>2019-01-01T13:57:48Z</time>
      </trkpt>
      <trkpt lat="41.7219730" lon="-0.9542390">
        <ele>201.6</ele>
        <time>2019-01-01T13:57:49Z</time>
      </trkpt>
      <trkpt lat="41.7219400" lon="-0.9542210">
        <ele>201.5</ele>
        <time>2019-01-01T13:57:50Z</time>
      </trkpt>
      <trkpt lat="41.7219060" lon="-0.9542000">
        <ele>201.4</ele>
        <time>2019-01-01T13:57:51Z</time>
      </trkpt>
      <trkpt lat="41.7218720" lon="-0.9541770">
        <ele>201.2</ele>
        <time>2019-01-01T13:57:52Z</time>
      </trkpt>
      <trkpt lat="41.7218280" lon="-0.9541460">
        <ele>201.1</ele>
        <time>2019-01-01T13:57:53Z</time>
      </trkpt>
      <trkpt lat="41.7217710" lon="-0.9541050">
        <ele>200.9</ele>
        <time>2019-01-01T13:57:54Z</time>
      </trkpt>
      <trkpt lat="41.7217140" lon="-0.9540720">
        <ele>200.9</ele>
        <time>2019-01-01T13:57:55Z</time>
      </trkpt>
      <trkpt lat="41.7216630" lon="-0.9540350">
        <ele>200.8</ele>
        <time>2019-01-01T13:57:56Z</time>
      </trkpt>
      <trkpt lat="41.7216240" lon="-0.9540060">
        <ele>200.8</ele>
        <time>2019-01-01T13:57:57Z</time>
      </trkpt>
      <trkpt lat="41.7215840" lon="-0.9539760">
        <ele>200.8</ele>
        <time>2019-01-01T13:57:58Z</time>
      </trkpt>
      <trkpt lat="41.7215540" lon="-0.9539450">
        <ele>200.8</ele>
        <time>2019-01-01T13:57:59Z</time>
      </trkpt>
      <trkpt lat="41.7215100" lon="-0.9539160">
        <ele>200.8</ele>
        <time>2019-01-01T13:58:00Z</time>
      </trkpt>
      <trkpt lat="41.7214570" lon="-0.9538800">
        <ele>200.8</ele>
        <time>2019-01-01T13:58:01Z</time>
      </trkpt>
      <trkpt lat="41.7214180" lon="-0.9538480">
        <ele>200.8</ele>
        <time>2019-01-01T13:58:02Z</time>
      </trkpt>
      <trkpt lat="41.7213860" lon="-0.9538170">
        <ele>200.8</ele>
        <time>2019-01-01T13:58:03Z</time>
      </trkpt>
      <trkpt lat="41.7213500" lon="-0.9537800">
        <ele>200.8</ele>
        <time>2019-01-01T13:58:04Z</time>
      </trkpt>
      <trkpt lat="41.7213220" lon="-0.9537390">
        <ele>200.8</ele>
        <time>2019-01-01T13:58:05Z</time>
      </trkpt>
      <trkpt lat="41.7212780" lon="-0.9537020">
        <ele>200.8</ele>
        <time>2019-01-01T13:58:06Z</time>
      </trkpt>
      <trkpt lat="41.7212510" lon="-0.9536620">
        <ele>200.8</ele>
        <time>2019-01-01T13:58:07Z</time>
      </trkpt>
      <trkpt lat="41.7212140" lon="-0.9536250">
        <ele>200.8</ele>
        <time>2019-01-01T13:58:08Z</time>
      </trkpt>
      <trkpt lat="41.7211870" lon="-0.9535910">
        <ele>200.8</ele>
        <time>2019-01-01T13:58:09Z</time>
      </trkpt>
      <trkpt lat="41.7211530" lon="-0.9535560">
        <ele>200.8</ele>
        <time>2019-01-01T13:58:10Z</time>
      </trkpt>
      <trkpt lat="41.7211290" lon="-0.9535180">
        <ele>200.8</ele>
        <time>2019-01-01T13:58:11Z</time>
      </trkpt>
      <trkpt lat="41.7211010" lon="-0.9534820">
        <ele>200.8</ele>
        <time>2019-01-01T13:58:12Z</time>
      </trkpt>
      <trkpt lat="41.7210640" lon="-0.9534390">
        <ele>200.7</ele>
        <time>2019-01-01T13:58:13Z</time>
      </trkpt>
      <trkpt lat="41.7210340" lon="-0.9533990">
        <ele>200.7</ele>
        <time>2019-01-01T13:58:14Z</time>
      </trkpt>
      <trkpt lat="41.7210060" lon="-0.9533660">
        <ele>200.7</ele>
        <time>2019-01-01T13:58:15Z</time>
      </trkpt>
      <trkpt lat="41.7209520" lon="-0.9533250">
        <ele>200.7</ele>
        <time>2019-01-01T13:58:16Z</time>
      </trkpt>
      <trkpt lat="41.7209140" lon="-0.9532920">
        <ele>200.7</ele>
        <time>2019-01-01T13:58:17Z</time>
      </trkpt>
      <trkpt lat="41.7208720" lon="-0.9532700">
        <ele>200.7</ele>
        <time>2019-01-01T13:58:18Z</time>
      </trkpt>
      <trkpt lat="41.7208300" lon="-0.9532470">
        <ele>200.7</ele>
        <time>2019-01-01T13:58:19Z</time>
      </trkpt>
      <trkpt lat="41.7207860" lon="-0.9532330">
        <ele>200.7</ele>
        <time>2019-01-01T13:58:20Z</time>
      </trkpt>
      <trkpt lat="41.7207430" lon="-0.9532270">
        <ele>200.7</ele>
        <time>2019-01-01T13:58:21Z</time>
      </trkpt>
      <trkpt lat="41.7206980" lon="-0.9532270">
        <ele>200.7</ele>
        <time>2019-01-01T13:58:22Z</time>
      </trkpt>
      <trkpt lat="41.7206530" lon="-0.9532320">
        <ele>200.7</ele>
        <time>2019-01-01T13:58:23Z</time>
      </trkpt>
      <trkpt lat="41.7206070" lon="-0.9532390">
        <ele>200.6</ele>
        <time>2019-01-01T13:58:24Z</time>
      </trkpt>
      <trkpt lat="41.7205600" lon="-0.9532480">
        <ele>200.6</ele>
        <time>2019-01-01T13:58:25Z</time>
      </trkpt>
      <trkpt lat="41.7205110" lon="-0.9532570">
        <ele>200.5</ele>
        <time>2019-01-01T13:58:26Z</time>
      </trkpt>
      <trkpt lat="41.7204480" lon="-0.9532680">
        <ele>200.5</ele>
        <time>2019-01-01T13:58:27Z</time>
      </trkpt>
      <trkpt lat="41.7204030" lon="-0.9532630">
        <ele>200.4</ele>
        <time>2019-01-01T13:58:28Z</time>
      </trkpt>
      <trkpt lat="41.7203500" lon="-0.9532530">
        <ele>200.4</ele>
        <time>2019-01-01T13:58:29Z</time>
      </trkpt>
      <trkpt lat="41.7202970" lon="-0.9532400">
        <ele>200.3</ele>
        <time>2019-01-01T13:58:30Z</time>
      </trkpt>
      <trkpt lat="41.7202540" lon="-0.9532410">
        <ele>200.3</ele>
        <time>2019-01-01T13:58:31Z</time>
      </trkpt>
      <trkpt lat="41.7202070" lon="-0.9532290">
        <ele>200.2</ele>
        <time>2019-01-01T13:58:32Z</time>
      </trkpt>
      <trkpt lat="41.7201610" lon="-0.9532190">
        <ele>200.1</ele>
        <time>2019-01-01T13:58:33Z</time>
      </trkpt>
      <trkpt lat="41.7200640" lon="-0.9531900">
        <ele>200.0</ele>
        <time>2019-01-01T13:58:35Z</time>
      </trkpt>
      <trkpt lat="41.7200270" lon="-0.9531740">
        <ele>199.9</ele>
        <time>2019-01-01T13:58:36Z</time>
      </trkpt>
      <trkpt lat="41.7199970" lon="-0.9531590">
        <ele>199.8</ele>
        <time>2019-01-01T13:58:37Z</time>
      </trkpt>
      <trkpt lat="41.7199530" lon="-0.9531320">
        <ele>199.7</ele>
        <time>2019-01-01T13:58:38Z</time>
      </trkpt>
      <trkpt lat="41.7198970" lon="-0.9531240">
        <ele>199.6</ele>
        <time>2019-01-01T13:58:39Z</time>
      </trkpt>
      <trkpt lat="41.7198560" lon="-0.9531000">
        <ele>199.6</ele>
        <time>2019-01-01T13:58:40Z</time>
      </trkpt>
      <trkpt lat="41.7198190" lon="-0.9530890">
        <ele>199.6</ele>
        <time>2019-01-01T13:58:41Z</time>
      </trkpt>
      <trkpt lat="41.7197780" lon="-0.9530800">
        <ele>199.6</ele>
        <time>2019-01-01T13:58:42Z</time>
      </trkpt>
      <trkpt lat="41.7197420" lon="-0.9530750">
        <ele>199.7</ele>
        <time>2019-01-01T13:58:43Z</time>
      </trkpt>
      <trkpt lat="41.7196980" lon="-0.9530750">
        <ele>199.9</ele>
        <time>2019-01-01T13:58:44Z</time>
      </trkpt>
      <trkpt lat="41.7196520" lon="-0.9530720">
        <ele>200.0</ele>
        <time>2019-01-01T13:58:45Z</time>
      </trkpt>
      <trkpt lat="41.7195930" lon="-0.9530850">
        <ele>200.1</ele>
        <time>2019-01-01T13:58:46Z</time>
      </trkpt>
      <trkpt lat="41.7195380" lon="-0.9530860">
        <ele>200.3</ele>
        <time>2019-01-01T13:58:47Z</time>
      </trkpt>
      <trkpt lat="41.7194950" lon="-0.9530850">
        <ele>200.3</ele>
        <time>2019-01-01T13:58:48Z</time>
      </trkpt>
      <trkpt lat="41.7194510" lon="-0.9530890">
        <ele>200.3</ele>
        <time>2019-01-01T13:58:49Z</time>
      </trkpt>
      <trkpt lat="41.7194020" lon="-0.9530850">
        <ele>200.4</ele>
        <time>2019-01-01T13:58:50Z</time>
      </trkpt>
      <trkpt lat="41.7193540" lon="-0.9530970">
        <ele>200.3</ele>
        <time>2019-01-01T13:58:51Z</time>
      </trkpt>
      <trkpt lat="41.7193080" lon="-0.9531040">
        <ele>200.3</ele>
        <time>2019-01-01T13:58:52Z</time>
      </trkpt>
      <trkpt lat="41.7192650" lon="-0.9531190">
        <ele>200.3</ele>
        <time>2019-01-01T13:58:53Z</time>
      </trkpt>
      <trkpt lat="41.7192170" lon="-0.9531350">
        <ele>200.3</ele>
        <time>2019-01-01T13:58:54Z</time>
      </trkpt>
      <trkpt lat="41.7191750" lon="-0.9531530">
        <ele>200.3</ele>
        <time>2019-01-01T13:58:55Z</time>
      </trkpt>
      <trkpt lat="41.7191290" lon="-0.9531680">
        <ele>200.3</ele>
        <time>2019-01-01T13:58:56Z</time>
      </trkpt>
      <trkpt lat="41.7190760" lon="-0.9531810">
        <ele>200.3</ele>
        <time>2019-01-01T13:58:57Z</time>
      </trkpt>
      <trkpt lat="41.7190300" lon="-0.9531910">
        <ele>200.3</ele>
        <time>2019-01-01T13:58:58Z</time>
      </trkpt>
      <trkpt lat="41.7189800" lon="-0.9532070">
        <ele>200.3</ele>
        <time>2019-01-01T13:58:59Z</time>
      </trkpt>
      <trkpt lat="41.7189340" lon="-0.9532220">
        <ele>200.3</ele>
        <time>2019-01-01T13:59:00Z</time>
      </trkpt>
      <trkpt lat="41.7188960" lon="-0.9532340">
        <ele>200.3</ele>
        <time>2019-01-01T13:59:01Z</time>
      </trkpt>
      <trkpt lat="41.7188420" lon="-0.9532530">
        <ele>200.3</ele>
        <time>2019-01-01T13:59:02Z</time>
      </trkpt>
      <trkpt lat="41.7188050" lon="-0.9532620">
        <ele>200.4</ele>
        <time>2019-01-01T13:59:03Z</time>
      </trkpt>
      <trkpt lat="41.7187640" lon="-0.9532690">
        <ele>200.4</ele>
        <time>2019-01-01T13:59:04Z</time>
      </trkpt>
      <trkpt lat="41.7187220" lon="-0.9532700">
        <ele>200.5</ele>
        <time>2019-01-01T13:59:05Z</time>
      </trkpt>
      <trkpt lat="41.7186670" lon="-0.9532880">
        <ele>200.6</ele>
        <time>2019-01-01T13:59:06Z</time>
      </trkpt>
      <trkpt lat="41.7186220" lon="-0.9533050">
        <ele>200.8</ele>
        <time>2019-01-01T13:59:07Z</time>
      </trkpt>
      <trkpt lat="41.7185770" lon="-0.9533180">
        <ele>200.9</ele>
        <time>2019-01-01T13:59:08Z</time>
      </trkpt>
      <trkpt lat="41.7185330" lon="-0.9533300">
        <ele>201.0</ele>
        <time>2019-01-01T13:59:09Z</time>
      </trkpt>
      <trkpt lat="41.7184920" lon="-0.9533340">
        <ele>201.2</ele>
        <time>2019-01-01T13:59:10Z</time>
      </trkpt>
      <trkpt lat="41.7184510" lon="-0.9533380">
        <ele>201.3</ele>
        <time>2019-01-01T13:59:11Z</time>
      </trkpt>
      <trkpt lat="41.7184040" lon="-0.9533370">
        <ele>201.3</ele>
        <time>2019-01-01T13:59:12Z</time>
      </trkpt>
      <trkpt lat="41.7183570" lon="-0.9533400">
        <ele>201.4</ele>
        <time>2019-01-01T13:59:13Z</time>
      </trkpt>
      <trkpt lat="41.7182980" lon="-0.9533470">
        <ele>201.5</ele>
        <time>2019-01-01T13:59:14Z</time>
      </trkpt>
      <trkpt lat="41.7182500" lon="-0.9533480">
        <ele>201.5</ele>
        <time>2019-01-01T13:59:15Z</time>
      </trkpt>
      <trkpt lat="41.7182080" lon="-0.9533560">
        <ele>201.5</ele>
        <time>2019-01-01T13:59:16Z</time>
      </trkpt>
      <trkpt lat="41.7181600" lon="-0.9533510">
        <ele>201.5</ele>
        <time>2019-01-01T13:59:17Z</time>
      </trkpt>
      <trkpt lat="41.7181260" lon="-0.9533610">
        <ele>201.5</ele>
        <time>2019-01-01T13:59:18Z</time>
      </trkpt>
      <trkpt lat="41.7180680" lon="-0.9533750">
        <ele>201.5</ele>
        <time>2019-01-01T13:59:19Z</time>
      </trkpt>
      <trkpt lat="41.7180140" lon="-0.9533900">
        <ele>201.5</ele>
        <time>2019-01-01T13:59:20Z</time>
      </trkpt>
      <trkpt lat="41.7179530" lon="-0.9534050">
        <ele>201.5</ele>
        <time>2019-01-01T13:59:21Z</time>
      </trkpt>
      <trkpt lat="41.7179110" lon="-0.9534110">
        <ele>201.5</ele>
        <time>2019-01-01T13:59:22Z</time>
      </trkpt>
      <trkpt lat="41.7178530" lon="-0.9534140">
        <ele>201.5</ele>
        <time>2019-01-01T13:59:23Z</time>
      </trkpt>
      <trkpt lat="41.7178140" lon="-0.9534290">
        <ele>201.5</ele>
        <time>2019-01-01T13:59:24Z</time>
      </trkpt>
      <trkpt lat="41.7177750" lon="-0.9534320">
        <ele>201.5</ele>
        <time>2019-01-01T13:59:25Z</time>
      </trkpt>
      <trkpt lat="41.7177330" lon="-0.9534320">
        <ele>201.5</ele>
        <time>2019-01-01T13:59:26Z</time>
      </trkpt>
      <trkpt lat="41.7176620" lon="-0.9534230">
        <ele>201.5</ele>
        <time>2019-01-01T13:59:27Z</time>
      </trkpt>
      <trkpt lat="41.7176110" lon="-0.9534230">
        <ele>201.5</ele>
        <time>2019-01-01T13:59:28Z</time>
      </trkpt>
      <trkpt lat="41.7175730" lon="-0.9534330">
        <ele>201.6</ele>
        <time>2019-01-01T13:59:29Z</time>
      </trkpt>
      <trkpt lat="41.7175290" lon="-0.9534430">
        <ele>201.6</ele>
        <time>2019-01-01T13:59:30Z</time>
      </trkpt>
      <trkpt lat="41.7174910" lon="-0.9534390">
        <ele>201.6</ele>
        <time>2019-01-01T13:59:31Z</time>
      </trkpt>
      <trkpt lat="41.7174480" lon="-0.9534320">
        <ele>201.6</ele>
        <time>2019-01-01T13:59:32Z</time>
      </trkpt>
      <trkpt lat="41.7173880" lon="-0.9534310">
        <ele>201.7</ele>
        <time>2019-01-01T13:59:33Z</time>
      </trkpt>
      <trkpt lat="41.7173480" lon="-0.9534300">
        <ele>201.8</ele>
        <time>2019-01-01T13:59:34Z</time>
      </trkpt>
      <trkpt lat="41.7173010" lon="-0.9534410">
        <ele>201.8</ele>
        <time>2019-01-01T13:59:35Z</time>
      </trkpt>
      <trkpt lat="41.7172530" lon="-0.9534420">
        <ele>201.9</ele>
        <time>2019-01-01T13:59:36Z</time>
      </trkpt>
      <trkpt lat="41.7172090" lon="-0.9534440">
        <ele>201.9</ele>
        <time>2019-01-01T13:59:37Z</time>
      </trkpt>
      <trkpt lat="41.7171630" lon="-0.9534700">
        <ele>201.8</ele>
        <time>2019-01-01T13:59:38Z</time>
      </trkpt>
      <trkpt lat="41.7171140" lon="-0.9534770">
        <ele>201.7</ele>
        <time>2019-01-01T13:59:39Z</time>
      </trkpt>
      <trkpt lat="41.7170820" lon="-0.9534720">
        <ele>201.7</ele>
        <time>2019-01-01T13:59:40Z</time>
      </trkpt>
      <trkpt lat="41.7170360" lon="-0.9534740">
        <ele>201.6</ele>
        <time>2019-01-01T13:59:41Z</time>
      </trkpt>
      <trkpt lat="41.7169760" lon="-0.9534740">
        <ele>201.5</ele>
        <time>2019-01-01T13:59:42Z</time>
      </trkpt>
      <trkpt lat="41.7169330" lon="-0.9534810">
        <ele>201.5</ele>
        <time>2019-01-01T13:59:43Z</time>
      </trkpt>
      <trkpt lat="41.7168820" lon="-0.9534920">
        <ele>201.4</ele>
        <time>2019-01-01T13:59:44Z</time>
      </trkpt>
      <trkpt lat="41.7168290" lon="-0.9535010">
        <ele>201.3</ele>
        <time>2019-01-01T13:59:45Z</time>
      </trkpt>
      <trkpt lat="41.7167910" lon="-0.9535110">
        <ele>201.2</ele>
        <time>2019-01-01T13:59:46Z</time>
      </trkpt>
      <trkpt lat="41.7167550" lon="-0.9535100">
        <ele>201.1</ele>
        <time>2019-01-01T13:59:47Z</time>
      </trkpt>
      <trkpt lat="41.7167040" lon="-0.9535120">
        <ele>201.0</ele>
        <time>2019-01-01T13:59:48Z</time>
      </trkpt>
      <trkpt lat="41.7166710" lon="-0.9535170">
        <ele>200.9</ele>
        <time>2019-01-01T13:59:49Z</time>
      </trkpt>
      <trkpt lat="41.7166270" lon="-0.9535260">
        <ele>200.9</ele>
        <time>2019-01-01T13:59:50Z</time>
      </trkpt>
      <trkpt lat="41.7165750" lon="-0.9535460">
        <ele>200.8</ele>
        <time>2019-01-01T13:59:51Z</time>
      </trkpt>
      <trkpt lat="41.7165240" lon="-0.9535660">
        <ele>200.7</ele>
        <time>2019-01-01T13:59:52Z</time>
      </trkpt>
      <trkpt lat="41.7164780" lon="-0.9535800">
        <ele>200.6</ele>
        <time>2019-01-01T13:59:53Z</time>
      </trkpt>
      <trkpt lat="41.7164370" lon="-0.9535910">
        <ele>200.6</ele>
        <time>2019-01-01T13:59:54Z</time>
      </trkpt>
      <trkpt lat="41.7164000" lon="-0.9535970">
        <ele>200.5</ele>
        <time>2019-01-01T13:59:55Z</time>
      </trkpt>
      <trkpt lat="41.7163530" lon="-0.9536050">
        <ele>200.4</ele>
        <time>2019-01-01T13:59:56Z</time>
      </trkpt>
      <trkpt lat="41.7163110" lon="-0.9536090">
        <ele>200.4</ele>
        <time>2019-01-01T13:59:57Z</time>
      </trkpt>
      <trkpt lat="41.7162720" lon="-0.9536070">
        <ele>200.3</ele>
        <time>2019-01-01T13:59:58Z</time>
      </trkpt>
      <trkpt lat="41.7162250" lon="-0.9536150">
        <ele>200.2</ele>
        <time>2019-01-01T13:59:59Z</time>
      </trkpt>
      <trkpt lat="41.7161730" lon="-0.9536150">
        <ele>200.1</ele>
        <time>2019-01-01T14:00:00Z</time>
      </trkpt>
      <trkpt lat="41.7161310" lon="-0.9536260">
        <ele>200.1</ele>
        <time>2019-01-01T14:00:01Z</time>
      </trkpt>
      <trkpt lat="41.7160940" lon="-0.9536390">
        <ele>200.0</ele>
        <time>2019-01-01T14:00:02Z</time>
      </trkpt>
      <trkpt lat="41.7160450" lon="-0.9536480">
        <ele>199.9</ele>
        <time>2019-01-01T14:00:03Z</time>
      </trkpt>
      <trkpt lat="41.7160000" lon="-0.9536520">
        <ele>199.8</ele>
        <time>2019-01-01T14:00:04Z</time>
      </trkpt>
      <trkpt lat="41.7159560" lon="-0.9536620">
        <ele>199.8</ele>
        <time>2019-01-01T14:00:05Z</time>
      </trkpt>
      <trkpt lat="41.7159050" lon="-0.9536700">
        <ele>199.8</ele>
        <time>2019-01-01T14:00:06Z</time>
      </trkpt>
      <trkpt lat="41.7158520" lon="-0.9536720">
        <ele>199.8</ele>
        <time>2019-01-01T14:00:07Z</time>
      </trkpt>
      <trkpt lat="41.7158110" lon="-0.9536780">
        <ele>199.9</ele>
        <time>2019-01-01T14:00:08Z</time>
      </trkpt>
      <trkpt lat="41.7157610" lon="-0.9536860">
        <ele>199.9</ele>
        <time>2019-01-01T14:00:09Z</time>
      </trkpt>
      <trkpt lat="41.7157120" lon="-0.9536900">
        <ele>200.0</ele>
        <time>2019-01-01T14:00:10Z</time>
      </trkpt>
      <trkpt lat="41.7156710" lon="-0.9536970">
        <ele>199.9</ele>
        <time>2019-01-01T14:00:11Z</time>
      </trkpt>
      <trkpt lat="41.7156200" lon="-0.9537060">
        <ele>199.9</ele>
        <time>2019-01-01T14:00:12Z</time>
      </trkpt>
      <trkpt lat="41.7155790" lon="-0.9537140">
        <ele>199.8</ele>
        <time>2019-01-01T14:00:13Z</time>
      </trkpt>
      <trkpt lat="41.7155310" lon="-0.9537260">
        <ele>199.7</ele>
        <time>2019-01-01T14:00:14Z</time>
      </trkpt>
      <trkpt lat="41.7154850" lon="-0.9537400">
        <ele>199.6</ele>
        <time>2019-01-01T14:00:15Z</time>
      </trkpt>
      <trkpt lat="41.7154370" lon="-0.9537490">
        <ele>199.4</ele>
        <time>2019-01-01T14:00:16Z</time>
      </trkpt>
      <trkpt lat="41.7153860" lon="-0.9537580">
        <ele>199.3</ele>
        <time>2019-01-01T14:00:17Z</time>
      </trkpt>
      <trkpt lat="41.7153390" lon="-0.9537680">
        <ele>199.1</ele>
        <time>2019-01-01T14:00:18Z</time>
      </trkpt>
      <trkpt lat="41.7152890" lon="-0.9537790">
        <ele>199.0</ele>
        <time>2019-01-01T14:00:19Z</time>
      </trkpt>
      <trkpt lat="41.7152460" lon="-0.9537930">
        <ele>198.9</ele>
        <time>2019-01-01T14:00:20Z</time>
      </trkpt>
      <trkpt lat="41.7151980" lon="-0.9538110">
        <ele>198.8</ele>
        <time>2019-01-01T14:00:21Z</time>
      </trkpt>
      <trkpt lat="41.7151510" lon="-0.9538220">
        <ele>198.7</ele>
        <time>2019-01-01T14:00:22Z</time>
      </trkpt>
      <trkpt lat="41.7151090" lon="-0.9538380">
        <ele>198.7</ele>
        <time>2019-01-01T14:00:23Z</time>
      </trkpt>
      <trkpt lat="41.7150280" lon="-0.9538410">
        <ele>198.6</ele>
        <time>2019-01-01T14:00:24Z</time>
      </trkpt>
      <trkpt lat="41.7149580" lon="-0.9538640">
        <ele>198.6</ele>
        <time>2019-01-01T14:00:26Z</time>
      </trkpt>
      <trkpt lat="41.7148860" lon="-0.9538920">
        <ele>198.7</ele>
        <time>2019-01-01T14:00:28Z</time>
      </trkpt>
      <trkpt lat="41.7148420" lon="-0.9539070">
        <ele>198.7</ele>
        <time>2019-01-01T14:00:29Z</time>
      </trkpt>
      <trkpt lat="41.7147760" lon="-0.9539210">
        <ele>198.7</ele>
        <time>2019-01-01T14:00:30Z</time>
      </trkpt>
      <trkpt lat="41.7147070" lon="-0.9539340">
        <ele>198.8</ele>
        <time>2019-01-01T14:00:31Z</time>
      </trkpt>
      <trkpt lat="41.7146620" lon="-0.9539530">
        <ele>198.8</ele>
        <time>2019-01-01T14:00:32Z</time>
      </trkpt>
      <trkpt lat="41.7146110" lon="-0.9539640">
        <ele>198.8</ele>
        <time>2019-01-01T14:00:33Z</time>
      </trkpt>
      <trkpt lat="41.7145570" lon="-0.9539700">
        <ele>198.8</ele>
        <time>2019-01-01T14:00:34Z</time>
      </trkpt>
      <trkpt lat="41.7145080" lon="-0.9539750">
        <ele>198.8</ele>
        <time>2019-01-01T14:00:35Z</time>
      </trkpt>
      <trkpt lat="41.7144550" lon="-0.9539860">
        <ele>198.8</ele>
        <time>2019-01-01T14:00:36Z</time>
      </trkpt>
      <trkpt lat="41.7144110" lon="-0.9540000">
        <ele>198.9</ele>
        <time>2019-01-01T14:00:37Z</time>
      </trkpt>
      <trkpt lat="41.7143610" lon="-0.9540110">
        <ele>198.9</ele>
        <time>2019-01-01T14:00:38Z</time>
      </trkpt>
      <trkpt lat="41.7143140" lon="-0.9540190">
        <ele>198.9</ele>
        <time>2019-01-01T14:00:39Z</time>
      </trkpt>
      <trkpt lat="41.7142680" lon="-0.9540380">
        <ele>198.9</ele>
        <time>2019-01-01T14:00:40Z</time>
      </trkpt>
      <trkpt lat="41.7142200" lon="-0.9540530">
        <ele>198.9</ele>
        <time>2019-01-01T14:00:41Z</time>
      </trkpt>
      <trkpt lat="41.7141740" lon="-0.9540700">
        <ele>198.9</ele>
        <time>2019-01-01T14:00:42Z</time>
      </trkpt>
      <trkpt lat="41.7141330" lon="-0.9540810">
        <ele>198.9</ele>
        <time>2019-01-01T14:00:43Z</time>
      </trkpt>
      <trkpt lat="41.7140830" lon="-0.9540940">
        <ele>198.9</ele>
        <time>2019-01-01T14:00:44Z</time>
      </trkpt>
      <trkpt lat="41.7140390" lon="-0.9541010">
        <ele>198.9</ele>
        <time>2019-01-01T14:00:45Z</time>
      </trkpt>
      <trkpt lat="41.7139930" lon="-0.9541110">
        <ele>198.9</ele>
        <time>2019-01-01T14:00:46Z</time>
      </trkpt>
      <trkpt lat="41.7139470" lon="-0.9541340">
        <ele>199.0</ele>
        <time>2019-01-01T14:00:47Z</time>
      </trkpt>
      <trkpt lat="41.7138960" lon="-0.9541460">
        <ele>199.0</ele>
        <time>2019-01-01T14:00:48Z</time>
      </trkpt>
      <trkpt lat="41.7138490" lon="-0.9541620">
        <ele>199.0</ele>
        <time>2019-01-01T14:00:49Z</time>
      </trkpt>
      <trkpt lat="41.7137980" lon="-0.9541770">
        <ele>199.0</ele>
        <time>2019-01-01T14:00:50Z</time>
      </trkpt>
      <trkpt lat="41.7137510" lon="-0.9541880">
        <ele>199.1</ele>
        <time>2019-01-01T14:00:51Z</time>
      </trkpt>
      <trkpt lat="41.7137040" lon="-0.9541950">
        <ele>199.1</ele>
        <time>2019-01-01T14:00:52Z</time>
      </trkpt>
      <trkpt lat="41.7136480" lon="-0.9542050">
        <ele>199.1</ele>
        <time>2019-01-01T14:00:53Z</time>
      </trkpt>
      <trkpt lat="41.7136100" lon="-0.9542150">
        <ele>199.1</ele>
        <time>2019-01-01T14:00:54Z</time>
      </trkpt>
      <trkpt lat="41.7135660" lon="-0.9542220">
        <ele>199.1</ele>
        <time>2019-01-01T14:00:55Z</time>
      </trkpt>
      <trkpt lat="41.7135180" lon="-0.9542440">
        <ele>199.2</ele>
        <time>2019-01-01T14:00:56Z</time>
      </trkpt>
      <trkpt lat="41.7134720" lon="-0.9542530">
        <ele>199.2</ele>
        <time>2019-01-01T14:00:57Z</time>
      </trkpt>
      <trkpt lat="41.7134160" lon="-0.9542670">
        <ele>199.2</ele>
        <time>2019-01-01T14:00:58Z</time>
      </trkpt>
      <trkpt lat="41.7133750" lon="-0.9542740">
        <ele>199.2</ele>
        <time>2019-01-01T14:00:59Z</time>
      </trkpt>
      <trkpt lat="41.7133330" lon="-0.9542780">
        <ele>199.2</ele>
        <time>2019-01-01T14:01:00Z</time>
      </trkpt>
      <trkpt lat="41.7132770" lon="-0.9542900">
        <ele>199.2</ele>
        <time>2019-01-01T14:01:01Z</time>
      </trkpt>
      <trkpt lat="41.7132270" lon="-0.9543080">
        <ele>199.3</ele>
        <time>2019-01-01T14:01:02Z</time>
      </trkpt>
      <trkpt lat="41.7131830" lon="-0.9543190">
        <ele>199.3</ele>
        <time>2019-01-01T14:01:03Z</time>
      </trkpt>
      <trkpt lat="41.7131390" lon="-0.9543310">
        <ele>199.3</ele>
        <time>2019-01-01T14:01:04Z</time>
      </trkpt>
      <trkpt lat="41.7130950" lon="-0.9543530">
        <ele>199.3</ele>
        <time>2019-01-01T14:01:05Z</time>
      </trkpt>
      <trkpt lat="41.7130460" lon="-0.9543710">
        <ele>199.3</ele>
        <time>2019-01-01T14:01:06Z</time>
      </trkpt>
      <trkpt lat="41.7130070" lon="-0.9543960">
        <ele>199.4</ele>
        <time>2019-01-01T14:01:07Z</time>
      </trkpt>
      <trkpt lat="41.7129710" lon="-0.9544250">
        <ele>199.4</ele>
        <time>2019-01-01T14:01:08Z</time>
      </trkpt>
      <trkpt lat="41.7129160" lon="-0.9544400">
        <ele>199.5</ele>
        <time>2019-01-01T14:01:09Z</time>
      </trkpt>
      <trkpt lat="41.7128710" lon="-0.9544610">
        <ele>199.5</ele>
        <time>2019-01-01T14:01:10Z</time>
      </trkpt>
      <trkpt lat="41.7128210" lon="-0.9544810">
        <ele>199.6</ele>
        <time>2019-01-01T14:01:11Z</time>
      </trkpt>
      <trkpt lat="41.7127820" lon="-0.9545000">
        <ele>199.7</ele>
        <time>2019-01-01T14:01:12Z</time>
      </trkpt>
      <trkpt lat="41.7127370" lon="-0.9545130">
        <ele>199.7</ele>
        <time>2019-01-01T14:01:13Z</time>
      </trkpt>
      <trkpt lat="41.7126910" lon="-0.9545440">
        <ele>199.8</ele>
        <time>2019-01-01T14:01:14Z</time>
      </trkpt>
      <trkpt lat="41.7126420" lon="-0.9545600">
        <ele>199.9</ele>
        <time>2019-01-01T14:01:15Z</time>
      </trkpt>
      <trkpt lat="41.7125890" lon="-0.9545830">
        <ele>200.0</ele>
        <time>2019-01-01T14:01:16Z</time>
      </trkpt>
      <trkpt lat="41.7125380" lon="-0.9545980">
        <ele>200.1</ele>
        <time>2019-01-01T14:01:17Z</time>
      </trkpt>
      <trkpt lat="41.7124850" lon="-0.9546150">
        <ele>200.2</ele>
        <time>2019-01-01T14:01:18Z</time>
      </trkpt>
      <trkpt lat="41.7124400" lon="-0.9546280">
        <ele>200.2</ele>
        <time>2019-01-01T14:01:19Z</time>
      </trkpt>
      <trkpt lat="41.7123870" lon="-0.9546470">
        <ele>200.4</ele>
        <time>2019-01-01T14:01:20Z</time>
      </trkpt>
      <trkpt lat="41.7123390" lon="-0.9546620">
        <ele>200.5</ele>
        <time>2019-01-01T14:01:21Z</time>
      </trkpt>
      <trkpt lat="41.7122920" lon="-0.9546770">
        <ele>200.6</ele>
        <time>2019-01-01T14:01:22Z</time>
      </trkpt>
      <trkpt lat="41.7122380" lon="-0.9546850">
        <ele>200.7</ele>
        <time>2019-01-01T14:01:23Z</time>
      </trkpt>
      <trkpt lat="41.7121830" lon="-0.9547040">
        <ele>200.8</ele>
        <time>2019-01-01T14:01:24Z</time>
      </trkpt>
      <trkpt lat="41.7121350" lon="-0.9547200">
        <ele>200.9</ele>
        <time>2019-01-01T14:01:25Z</time>
      </trkpt>
      <trkpt lat="41.7120780" lon="-0.9547410">
        <ele>201.0</ele>
        <time>2019-01-01T14:01:26Z</time>
      </trkpt>
      <trkpt lat="41.7120280" lon="-0.9547620">
        <ele>201.1</ele>
        <time>2019-01-01T14:01:27Z</time>
      </trkpt>
      <trkpt lat="41.7119840" lon="-0.9547850">
        <ele>201.2</ele>
        <time>2019-01-01T14:01:28Z</time>
      </trkpt>
      <trkpt lat="41.7119400" lon="-0.9547970">
        <ele>201.3</ele>
        <time>2019-01-01T14:01:29Z</time>
      </trkpt>
      <trkpt lat="41.7118820" lon="-0.9548070">
        <ele>201.3</ele>
        <time>2019-01-01T14:01:30Z</time>
      </trkpt>
      <trkpt lat="41.7118410" lon="-0.9548240">
        <ele>201.4</ele>
        <time>2019-01-01T14:01:31Z</time>
      </trkpt>
      <trkpt lat="41.7117870" lon="-0.9548360">
        <ele>201.4</ele>
        <time>2019-01-01T14:01:32Z</time>
      </trkpt>
      <trkpt lat="41.7117380" lon="-0.9548580">
        <ele>201.5</ele>
        <time>2019-01-01T14:01:33Z</time>
      </trkpt>
      <trkpt lat="41.7116950" lon="-0.9548770">
        <ele>201.5</ele>
        <time>2019-01-01T14:01:34Z</time>
      </trkpt>
      <trkpt lat="41.7116470" lon="-0.9548970">
        <ele>201.6</ele>
        <time>2019-01-01T14:01:35Z</time>
      </trkpt>
      <trkpt lat="41.7116020" lon="-0.9549110">
        <ele>201.6</ele>
        <time>2019-01-01T14:01:36Z</time>
      </trkpt>
      <trkpt lat="41.7115540" lon="-0.9549290">
        <ele>201.6</ele>
        <time>2019-01-01T14:01:37Z</time>
      </trkpt>
      <trkpt lat="41.7115010" lon="-0.9549390">
        <ele>201.7</ele>
        <time>2019-01-01T14:01:38Z</time>
      </trkpt>
      <trkpt lat="41.7114420" lon="-0.9549580">
        <ele>201.8</ele>
        <time>2019-01-01T14:01:39Z</time>
      </trkpt>
      <trkpt lat="41.7113930" lon="-0.9549690">
        <ele>201.8</ele>
        <time>2019-01-01T14:01:40Z</time>
      </trkpt>
      <trkpt lat="41.7113500" lon="-0.9549880">
        <ele>201.9</ele>
        <time>2019-01-01T14:01:41Z</time>
      </trkpt>
      <trkpt lat="41.7112980" lon="-0.9550140">
        <ele>202.0</ele>
        <time>2019-01-01T14:01:42Z</time>
      </trkpt>
      <trkpt lat="41.7112460" lon="-0.9550330">
        <ele>201.9</ele>
        <time>2019-01-01T14:01:43Z</time>
      </trkpt>
      <trkpt lat="41.7111900" lon="-0.9550460">
        <ele>201.8</ele>
        <time>2019-01-01T14:01:44Z</time>
      </trkpt>
      <trkpt lat="41.7111420" lon="-0.9550630">
        <ele>201.8</ele>
        <time>2019-01-01T14:01:45Z</time>
      </trkpt>
      <trkpt lat="41.7110910" lon="-0.9550850">
        <ele>201.8</ele>
        <time>2019-01-01T14:01:46Z</time>
      </trkpt>
      <trkpt lat="41.7110430" lon="-0.9550950">
        <ele>201.8</ele>
        <time>2019-01-01T14:01:47Z</time>
      </trkpt>
      <trkpt lat="41.7109910" lon="-0.9551060">
        <ele>201.8</ele>
        <time>2019-01-01T14:01:48Z</time>
      </trkpt>
      <trkpt lat="41.7109400" lon="-0.9551100">
        <ele>201.8</ele>
        <time>2019-01-01T14:01:49Z</time>
      </trkpt>
      <trkpt lat="41.7108710" lon="-0.9551170">
        <ele>201.8</ele>
        <time>2019-01-01T14:01:50Z</time>
      </trkpt>
      <trkpt lat="41.7108180" lon="-0.9551240">
        <ele>201.9</ele>
        <time>2019-01-01T14:01:51Z</time>
      </trkpt>
      <trkpt lat="41.7107650" lon="-0.9551330">
        <ele>201.9</ele>
        <time>2019-01-01T14:01:52Z</time>
      </trkpt>
      <trkpt lat="41.7107240" lon="-0.9551430">
        <ele>201.9</ele>
        <time>2019-01-01T14:01:53Z</time>
      </trkpt>
      <trkpt lat="41.7106660" lon="-0.9551490">
        <ele>202.0</ele>
        <time>2019-01-01T14:01:54Z</time>
      </trkpt>
      <trkpt lat="41.7106100" lon="-0.9551610">
        <ele>202.0</ele>
        <time>2019-01-01T14:01:55Z</time>
      </trkpt>
      <trkpt lat="41.7105540" lon="-0.9551650">
        <ele>202.0</ele>
        <time>2019-01-01T14:01:56Z</time>
      </trkpt>
      <trkpt lat="41.7105040" lon="-0.9551850">
        <ele>202.0</ele>
        <time>2019-01-01T14:01:57Z</time>
      </trkpt>
      <trkpt lat="41.7104500" lon="-0.9552050">
        <ele>202.0</ele>
        <time>2019-01-01T14:01:58Z</time>
      </trkpt>
      <trkpt lat="41.7104030" lon="-0.9552220">
        <ele>202.0</ele>
        <time>2019-01-01T14:01:59Z</time>
      </trkpt>
      <trkpt lat="41.7103490" lon="-0.9552520">
        <ele>202.0</ele>
        <time>2019-01-01T14:02:00Z</time>
      </trkpt>
      <trkpt lat="41.7103020" lon="-0.9552720">
        <ele>202.1</ele>
        <time>2019-01-01T14:02:01Z</time>
      </trkpt>
      <trkpt lat="41.7102500" lon="-0.9552930">
        <ele>202.1</ele>
        <time>2019-01-01T14:02:02Z</time>
      </trkpt>
      <trkpt lat="41.7102090" lon="-0.9553160">
        <ele>202.2</ele>
        <time>2019-01-01T14:02:03Z</time>
      </trkpt>
      <trkpt lat="41.7101610" lon="-0.9553350">
        <ele>202.3</ele>
        <time>2019-01-01T14:02:04Z</time>
      </trkpt>
      <trkpt lat="41.7101200" lon="-0.9553640">
        <ele>202.4</ele>
        <time>2019-01-01T14:02:05Z</time>
      </trkpt>
      <trkpt lat="41.7100760" lon="-0.9553910">
        <ele>202.5</ele>
        <time>2019-01-01T14:02:06Z</time>
      </trkpt>
      <trkpt lat="41.7100350" lon="-0.9554140">
        <ele>202.6</ele>
        <time>2019-01-01T14:02:07Z</time>
      </trkpt>
      <trkpt lat="41.7099940" lon="-0.9554470">
        <ele>202.6</ele>
        <time>2019-01-01T14:02:08Z</time>
      </trkpt>
      <trkpt lat="41.7099510" lon="-0.9554730">
        <ele>202.5</ele>
        <time>2019-01-01T14:02:09Z</time>
      </trkpt>
      <trkpt lat="41.7099140" lon="-0.9554970">
        <ele>202.5</ele>
        <time>2019-01-01T14:02:10Z</time>
      </trkpt>
      <trkpt lat="41.7098590" lon="-0.9555090">
        <ele>202.4</ele>
        <time>2019-01-01T14:02:11Z</time>
      </trkpt>
      <trkpt lat="41.7098230" lon="-0.9555410">
        <ele>202.4</ele>
        <time>2019-01-01T14:02:12Z</time>
      </trkpt>
      <trkpt lat="41.7097810" lon="-0.9555610">
        <ele>202.3</ele>
        <time>2019-01-01T14:02:13Z</time>
      </trkpt>
      <trkpt lat="41.7097420" lon="-0.9555870">
        <ele>202.3</ele>
        <time>2019-01-01T14:02:14Z</time>
      </trkpt>
      <trkpt lat="41.7097050" lon="-0.9556120">
        <ele>202.4</ele>
        <time>2019-01-01T14:02:15Z</time>
      </trkpt>
      <trkpt lat="41.7096690" lon="-0.9556350">
        <ele>202.4</ele>
        <time>2019-01-01T14:02:16Z</time>
      </trkpt>
      <trkpt lat="41.7096230" lon="-0.9556610">
        <ele>202.4</ele>
        <time>2019-01-01T14:02:17Z</time>
      </trkpt>
      <trkpt lat="41.7095860" lon="-0.9556840">
        <ele>202.4</ele>
        <time>2019-01-01T14:02:18Z</time>
      </trkpt>
      <trkpt lat="41.7095540" lon="-0.9557040">
        <ele>202.4</ele>
        <time>2019-01-01T14:02:19Z</time>
      </trkpt>
      <trkpt lat="41.7095170" lon="-0.9557160">
        <ele>202.4</ele>
        <time>2019-01-01T14:02:20Z</time>
      </trkpt>
      <trkpt lat="41.7094790" lon="-0.9557430">
        <ele>202.4</ele>
        <time>2019-01-01T14:02:21Z</time>
      </trkpt>
      <trkpt lat="41.7094380" lon="-0.9557720">
        <ele>202.4</ele>
        <time>2019-01-01T14:02:22Z</time>
      </trkpt>
      <trkpt lat="41.7093950" lon="-0.9557960">
        <ele>202.4</ele>
        <time>2019-01-01T14:02:23Z</time>
      </trkpt>
      <trkpt lat="41.7093500" lon="-0.9558200">
        <ele>202.4</ele>
        <time>2019-01-01T14:02:24Z</time>
      </trkpt>
      <trkpt lat="41.7093080" lon="-0.9558430">
        <ele>202.3</ele>
        <time>2019-01-01T14:02:25Z</time>
      </trkpt>
      <trkpt lat="41.7092680" lon="-0.9558650">
        <ele>202.3</ele>
        <time>2019-01-01T14:02:26Z</time>
      </trkpt>
      <trkpt lat="41.7092290" lon="-0.9558870">
        <ele>202.2</ele>
        <time>2019-01-01T14:02:27Z</time>
      </trkpt>
      <trkpt lat="41.7091900" lon="-0.9559110">
        <ele>202.1</ele>
        <time>2019-01-01T14:02:28Z</time>
      </trkpt>
      <trkpt lat="41.7091530" lon="-0.9559360">
        <ele>202.0</ele>
        <time>2019-01-01T14:02:29Z</time>
      </trkpt>
      <trkpt lat="41.7091210" lon="-0.9559640">
        <ele>201.9</ele>
        <time>2019-01-01T14:02:30Z</time>
      </trkpt>
      <trkpt lat="41.7090740" lon="-0.9559880">
        <ele>201.7</ele>
        <time>2019-01-01T14:02:31Z</time>
      </trkpt>
      <trkpt lat="41.7090360" lon="-0.9560250">
        <ele>201.6</ele>
        <time>2019-01-01T14:02:32Z</time>
      </trkpt>
      <trkpt lat="41.7089980" lon="-0.9560440">
        <ele>201.4</ele>
        <time>2019-01-01T14:02:33Z</time>
      </trkpt>
      <trkpt lat="41.7089510" lon="-0.9560740">
        <ele>201.2</ele>
        <time>2019-01-01T14:02:34Z</time>
      </trkpt>
      <trkpt lat="41.7089140" lon="-0.9560980">
        <ele>201.1</ele>
        <time>2019-01-01T14:02:35Z</time>
      </trkpt>
      <trkpt lat="41.7088580" lon="-0.9561250">
        <ele>200.9</ele>
        <time>2019-01-01T14:02:36Z</time>
      </trkpt>
      <trkpt lat="41.7088250" lon="-0.9561480">
        <ele>200.8</ele>
        <time>2019-01-01T14:02:37Z</time>
      </trkpt>
      <trkpt lat="41.7087840" lon="-0.9561740">
        <ele>200.6</ele>
        <time>2019-01-01T14:02:38Z</time>
      </trkpt>
      <trkpt lat="41.7087450" lon="-0.9562030">
        <ele>200.5</ele>
        <time>2019-01-01T14:02:39Z</time>
      </trkpt>
      <trkpt lat="41.7087050" lon="-0.9562260">
        <ele>200.4</ele>
        <time>2019-01-01T14:02:40Z</time>
      </trkpt>
      <trkpt lat="41.7086690" lon="-0.9562500">
        <ele>200.3</ele>
        <time>2019-01-01T14:02:41Z</time>
      </trkpt>
      <trkpt lat="41.7086330" lon="-0.9562800">
        <ele>200.1</ele>
        <time>2019-01-01T14:02:42Z</time>
      </trkpt>
      <trkpt lat="41.7085920" lon="-0.9563130">
        <ele>200.0</ele>
        <time>2019-01-01T14:02:43Z</time>
      </trkpt>
      <trkpt lat="41.7085540" lon="-0.9563330">
        <ele>199.8</ele>
        <time>2019-01-01T14:02:44Z</time>
      </trkpt>
      <trkpt lat="41.7084980" lon="-0.9563490">
        <ele>199.5</ele>
        <time>2019-01-01T14:02:45Z</time>
      </trkpt>
      <trkpt lat="41.7084540" lon="-0.9563630">
        <ele>199.2</ele>
        <time>2019-01-01T14:02:46Z</time>
      </trkpt>
      <trkpt lat="41.7084140" lon="-0.9563890">
        <ele>198.6</ele>
        <time>2019-01-01T14:02:47Z</time>
      </trkpt>
      <trkpt lat="41.7083730" lon="-0.9564240">
        <ele>199.3</ele>
        <time>2019-01-01T14:02:48Z</time>
      </trkpt>
      <trkpt lat="41.7083270" lon="-0.9564580">
        <ele>200.1</ele>
        <time>2019-01-01T14:02:49Z</time>
      </trkpt>
      <trkpt lat="41.7082860" lon="-0.9564800">
        <ele>200.8</ele>
        <time>2019-01-01T14:02:50Z</time>
      </trkpt>
      <trkpt lat="41.7082540" lon="-0.9564980">
        <ele>201.3</ele>
        <time>2019-01-01T14:02:51Z</time>
      </trkpt>
      <trkpt lat="41.7082170" lon="-0.9565220">
        <ele>201.3</ele>
        <time>2019-01-01T14:02:52Z</time>
      </trkpt>
      <trkpt lat="41.7081820" lon="-0.9565410">
        <ele>201.4</ele>
        <time>2019-01-01T14:02:53Z</time>
      </trkpt>
      <trkpt lat="41.7081480" lon="-0.9565630">
        <ele>201.4</ele>
        <time>2019-01-01T14:02:54Z</time>
      </trkpt>
      <trkpt lat="41.7081010" lon="-0.9565800">
        <ele>201.4</ele>
        <time>2019-01-01T14:02:55Z</time>
      </trkpt>
      <trkpt lat="41.7080570" lon="-0.9566090">
        <ele>201.5</ele>
        <time>2019-01-01T14:02:56Z</time>
      </trkpt>
      <trkpt lat="41.7080010" lon="-0.9566460">
        <ele>201.5</ele>
        <time>2019-01-01T14:02:57Z</time>
      </trkpt>
      <trkpt lat="41.7079570" lon="-0.9566740">
        <ele>201.5</ele>
        <time>2019-01-01T14:02:58Z</time>
      </trkpt>
      <trkpt lat="41.7079010" lon="-0.9567080">
        <ele>201.5</ele>
        <time>2019-01-01T14:02:59Z</time>
      </trkpt>
      <trkpt lat="41.7078460" lon="-0.9567440">
        <ele>201.6</ele>
        <time>2019-01-01T14:03:00Z</time>
      </trkpt>
      <trkpt lat="41.7077940" lon="-0.9567810">
        <ele>201.6</ele>
        <time>2019-01-01T14:03:01Z</time>
      </trkpt>
      <trkpt lat="41.7077420" lon="-0.9568150">
        <ele>201.6</ele>
        <time>2019-01-01T14:03:02Z</time>
      </trkpt>
      <trkpt lat="41.7076890" lon="-0.9568510">
        <ele>201.7</ele>
        <time>2019-01-01T14:03:03Z</time>
      </trkpt>
      <trkpt lat="41.7076380" lon="-0.9568970">
        <ele>201.7</ele>
        <time>2019-01-01T14:03:04Z</time>
      </trkpt>
      <trkpt lat="41.7075890" lon="-0.9569310">
        <ele>201.7</ele>
        <time>2019-01-01T14:03:05Z</time>
      </trkpt>
      <trkpt lat="41.7075370" lon="-0.9569590">
        <ele>201.7</ele>
        <time>2019-01-01T14:03:06Z</time>
      </trkpt>
      <trkpt lat="41.7074930" lon="-0.9570030">
        <ele>201.7</ele>
        <time>2019-01-01T14:03:07Z</time>
      </trkpt>
      <trkpt lat="41.7074460" lon="-0.9570330">
        <ele>201.8</ele>
        <time>2019-01-01T14:03:08Z</time>
      </trkpt>
      <trkpt lat="41.7073970" lon="-0.9570650">
        <ele>201.8</ele>
        <time>2019-01-01T14:03:09Z</time>
      </trkpt>
      <trkpt lat="41.7073450" lon="-0.9570960">
        <ele>201.8</ele>
        <time>2019-01-01T14:03:10Z</time>
      </trkpt>
      <trkpt lat="41.7073010" lon="-0.9571360">
        <ele>201.8</ele>
        <time>2019-01-01T14:03:11Z</time>
      </trkpt>
      <trkpt lat="41.7072590" lon="-0.9571720">
        <ele>201.8</ele>
        <time>2019-01-01T14:03:12Z</time>
      </trkpt>
      <trkpt lat="41.7072070" lon="-0.9572100">
        <ele>201.8</ele>
        <time>2019-01-01T14:03:13Z</time>
      </trkpt>
      <trkpt lat="41.7071640" lon="-0.9572350">
        <ele>201.8</ele>
        <time>2019-01-01T14:03:14Z</time>
      </trkpt>
      <trkpt lat="41.7071170" lon="-0.9572570">
        <ele>201.8</ele>
        <time>2019-01-01T14:03:15Z</time>
      </trkpt>
      <trkpt lat="41.7070670" lon="-0.9572790">
        <ele>201.9</ele>
        <time>2019-01-01T14:03:16Z</time>
      </trkpt>
      <trkpt lat="41.7070090" lon="-0.9573050">
        <ele>201.9</ele>
        <time>2019-01-01T14:03:17Z</time>
      </trkpt>
      <trkpt lat="41.7069620" lon="-0.9573330">
        <ele>201.9</ele>
        <time>2019-01-01T14:03:18Z</time>
      </trkpt>
      <trkpt lat="41.7069180" lon="-0.9573640">
        <ele>201.9</ele>
        <time>2019-01-01T14:03:19Z</time>
      </trkpt>
      <trkpt lat="41.7068720" lon="-0.9573860">
        <ele>201.9</ele>
        <time>2019-01-01T14:03:20Z</time>
      </trkpt>
      <trkpt lat="41.7068380" lon="-0.9573970">
        <ele>201.9</ele>
        <time>2019-01-01T14:03:21Z</time>
      </trkpt>
      <trkpt lat="41.7067830" lon="-0.9574180">
        <ele>201.9</ele>
        <time>2019-01-01T14:03:22Z</time>
      </trkpt>
      <trkpt lat="41.7067380" lon="-0.9574370">
        <ele>201.9</ele>
        <time>2019-01-01T14:03:23Z</time>
      </trkpt>
      <trkpt lat="41.7066790" lon="-0.9574670">
        <ele>201.9</ele>
        <time>2019-01-01T14:03:24Z</time>
      </trkpt>
      <trkpt lat="41.7066350" lon="-0.9575000">
        <ele>201.9</ele>
        <time>2019-01-01T14:03:25Z</time>
      </trkpt>
      <trkpt lat="41.7065890" lon="-0.9575320">
        <ele>201.9</ele>
        <time>2019-01-01T14:03:26Z</time>
      </trkpt>
      <trkpt lat="41.7065420" lon="-0.9575620">
        <ele>201.9</ele>
        <time>2019-01-01T14:03:27Z</time>
      </trkpt>
      <trkpt lat="41.7064900" lon="-0.9576030">
        <ele>201.9</ele>
        <time>2019-01-01T14:03:28Z</time>
      </trkpt>
      <trkpt lat="41.7064600" lon="-0.9576210">
        <ele>201.9</ele>
        <time>2019-01-01T14:03:29Z</time>
      </trkpt>
      <trkpt lat="41.7064160" lon="-0.9576570">
        <ele>201.9</ele>
        <time>2019-01-01T14:03:30Z</time>
      </trkpt>
      <trkpt lat="41.7063860" lon="-0.9576930">
        <ele>201.9</ele>
        <time>2019-01-01T14:03:31Z</time>
      </trkpt>
      <trkpt lat="41.7063280" lon="-0.9577330">
        <ele>202.0</ele>
        <time>2019-01-01T14:03:32Z</time>
      </trkpt>
      <trkpt lat="41.7062790" lon="-0.9577620">
        <ele>202.0</ele>
        <time>2019-01-01T14:03:33Z</time>
      </trkpt>
      <trkpt lat="41.7062240" lon="-0.9577850">
        <ele>202.0</ele>
        <time>2019-01-01T14:03:34Z</time>
      </trkpt>
      <trkpt lat="41.7061770" lon="-0.9578110">
        <ele>202.0</ele>
        <time>2019-01-01T14:03:35Z</time>
      </trkpt>
      <trkpt lat="41.7061470" lon="-0.9578460">
        <ele>202.0</ele>
        <time>2019-01-01T14:03:36Z</time>
      </trkpt>
      <trkpt lat="41.7061110" lon="-0.9578760">
        <ele>202.0</ele>
        <time>2019-01-01T14:03:37Z</time>
      </trkpt>
      <trkpt lat="41.7060760" lon="-0.9579100">
        <ele>202.0</ele>
        <time>2019-01-01T14:03:38Z</time>
      </trkpt>
      <trkpt lat="41.7060240" lon="-0.9579480">
        <ele>202.0</ele>
        <time>2019-01-01T14:03:39Z</time>
      </trkpt>
      <trkpt lat="41.7059880" lon="-0.9579800">
        <ele>202.0</ele>
        <time>2019-01-01T14:03:40Z</time>
      </trkpt>
      <trkpt lat="41.7059480" lon="-0.9580170">
        <ele>202.0</ele>
        <time>2019-01-01T14:03:41Z</time>
      </trkpt>
      <trkpt lat="41.7059030" lon="-0.9580600">
        <ele>202.0</ele>
        <time>2019-01-01T14:03:42Z</time>
      </trkpt>
      <trkpt lat="41.7058530" lon="-0.9580900">
        <ele>202.0</ele>
        <time>2019-01-01T14:03:43Z</time>
      </trkpt>
      <trkpt lat="41.7058120" lon="-0.9581230">
        <ele>202.0</ele>
        <time>2019-01-01T14:03:44Z</time>
      </trkpt>
      <trkpt lat="41.7057740" lon="-0.9581600">
        <ele>202.0</ele>
        <time>2019-01-01T14:03:45Z</time>
      </trkpt>
      <trkpt lat="41.7057340" lon="-0.9581950">
        <ele>202.0</ele>
        <time>2019-01-01T14:03:46Z</time>
      </trkpt>
      <trkpt lat="41.7056960" lon="-0.9582290">
        <ele>202.0</ele>
        <time>2019-01-01T14:03:47Z</time>
      </trkpt>
      <trkpt lat="41.7056530" lon="-0.9582610">
        <ele>202.0</ele>
        <time>2019-01-01T14:03:48Z</time>
      </trkpt>
      <trkpt lat="41.7056180" lon="-0.9582950">
        <ele>202.1</ele>
        <time>2019-01-01T14:03:49Z</time>
      </trkpt>
      <trkpt lat="41.7055810" lon="-0.9583220">
        <ele>202.1</ele>
        <time>2019-01-01T14:03:50Z</time>
      </trkpt>
      <trkpt lat="41.7055430" lon="-0.9583620">
        <ele>202.1</ele>
        <time>2019-01-01T14:03:51Z</time>
      </trkpt>
      <trkpt lat="41.7054950" lon="-0.9583920">
        <ele>202.1</ele>
        <time>2019-01-01T14:03:52Z</time>
      </trkpt>
      <trkpt lat="41.7054480" lon="-0.9584270">
        <ele>202.1</ele>
        <time>2019-01-01T14:03:53Z</time>
      </trkpt>
      <trkpt lat="41.7054060" lon="-0.9584610">
        <ele>202.1</ele>
        <time>2019-01-01T14:03:54Z</time>
      </trkpt>
      <trkpt lat="41.7053620" lon="-0.9585010">
        <ele>202.1</ele>
        <time>2019-01-01T14:03:55Z</time>
      </trkpt>
      <trkpt lat="41.7053110" lon="-0.9585420">
        <ele>202.1</ele>
        <time>2019-01-01T14:03:56Z</time>
      </trkpt>
      <trkpt lat="41.7052760" lon="-0.9585810">
        <ele>202.1</ele>
        <time>2019-01-01T14:03:57Z</time>
      </trkpt>
      <trkpt lat="41.7052410" lon="-0.9586330">
        <ele>202.1</ele>
        <time>2019-01-01T14:03:58Z</time>
      </trkpt>
      <trkpt lat="41.7052140" lon="-0.9586820">
        <ele>202.1</ele>
        <time>2019-01-01T14:03:59Z</time>
      </trkpt>
      <trkpt lat="41.7051830" lon="-0.9587320">
        <ele>202.1</ele>
        <time>2019-01-01T14:04:00Z</time>
      </trkpt>
      <trkpt lat="41.7051510" lon="-0.9587920">
        <ele>202.1</ele>
        <time>2019-01-01T14:04:01Z</time>
      </trkpt>
      <trkpt lat="41.7051250" lon="-0.9588520">
        <ele>202.1</ele>
        <time>2019-01-01T14:04:02Z</time>
      </trkpt>
      <trkpt lat="41.7050990" lon="-0.9589240">
        <ele>202.1</ele>
        <time>2019-01-01T14:04:03Z</time>
      </trkpt>
      <trkpt lat="41.7050690" lon="-0.9589770">
        <ele>202.1</ele>
        <time>2019-01-01T14:04:04Z</time>
      </trkpt>
      <trkpt lat="41.7050360" lon="-0.9590300">
        <ele>202.2</ele>
        <time>2019-01-01T14:04:05Z</time>
      </trkpt>
      <trkpt lat="41.7050140" lon="-0.9590850">
        <ele>202.2</ele>
        <time>2019-01-01T14:04:06Z</time>
      </trkpt>
      <trkpt lat="41.7049860" lon="-0.9591470">
        <ele>202.2</ele>
        <time>2019-01-01T14:04:07Z</time>
      </trkpt>
      <trkpt lat="41.7049640" lon="-0.9592090">
        <ele>202.2</ele>
        <time>2019-01-01T14:04:08Z</time>
      </trkpt>
      <trkpt lat="41.7049290" lon="-0.9592700">
        <ele>202.2</ele>
        <time>2019-01-01T14:04:09Z</time>
      </trkpt>
      <trkpt lat="41.7049020" lon="-0.9593270">
        <ele>202.2</ele>
        <time>2019-01-01T14:04:10Z</time>
      </trkpt>
      <trkpt lat="41.7048700" lon="-0.9593870">
        <ele>202.2</ele>
        <time>2019-01-01T14:04:11Z</time>
      </trkpt>
      <trkpt lat="41.7048340" lon="-0.9594490">
        <ele>202.2</ele>
        <time>2019-01-01T14:04:12Z</time>
      </trkpt>
      <trkpt lat="41.7048160" lon="-0.9595100">
        <ele>202.2</ele>
        <time>2019-01-01T14:04:13Z</time>
      </trkpt>
      <trkpt lat="41.7047900" lon="-0.9595700">
        <ele>202.2</ele>
        <time>2019-01-01T14:04:14Z</time>
      </trkpt>
      <trkpt lat="41.7047650" lon="-0.9596320">
        <ele>202.2</ele>
        <time>2019-01-01T14:04:15Z</time>
      </trkpt>
      <trkpt lat="41.7047420" lon="-0.9597010">
        <ele>202.2</ele>
        <time>2019-01-01T14:04:16Z</time>
      </trkpt>
      <trkpt lat="41.7047180" lon="-0.9597640">
        <ele>202.2</ele>
        <time>2019-01-01T14:04:17Z</time>
      </trkpt>
      <trkpt lat="41.7046970" lon="-0.9598330">
        <ele>202.2</ele>
        <time>2019-01-01T14:04:18Z</time>
      </trkpt>
      <trkpt lat="41.7046740" lon="-0.9598910">
        <ele>202.2</ele>
        <time>2019-01-01T14:04:19Z</time>
      </trkpt>
      <trkpt lat="41.7046470" lon="-0.9599560">
        <ele>202.2</ele>
        <time>2019-01-01T14:04:20Z</time>
      </trkpt>
      <trkpt lat="41.7046240" lon="-0.9600190">
        <ele>202.3</ele>
        <time>2019-01-01T14:04:21Z</time>
      </trkpt>
      <trkpt lat="41.7045930" lon="-0.9600780">
        <ele>202.3</ele>
        <time>2019-01-01T14:04:22Z</time>
      </trkpt>
      <trkpt lat="41.7045620" lon="-0.9601410">
        <ele>202.3</ele>
        <time>2019-01-01T14:04:23Z</time>
      </trkpt>
      <trkpt lat="41.7045410" lon="-0.9601940">
        <ele>202.3</ele>
        <time>2019-01-01T14:04:24Z</time>
      </trkpt>
      <trkpt lat="41.7045120" lon="-0.9602430">
        <ele>202.3</ele>
        <time>2019-01-01T14:04:25Z</time>
      </trkpt>
      <trkpt lat="41.7044700" lon="-0.9602920">
        <ele>202.3</ele>
        <time>2019-01-01T14:04:26Z</time>
      </trkpt>
      <trkpt lat="41.7044370" lon="-0.9603330">
        <ele>202.3</ele>
        <time>2019-01-01T14:04:27Z</time>
      </trkpt>
      <trkpt lat="41.7043990" lon="-0.9603750">
        <ele>202.3</ele>
        <time>2019-01-01T14:04:28Z</time>
      </trkpt>
      <trkpt lat="41.7043610" lon="-0.9604250">
        <ele>202.3</ele>
        <time>2019-01-01T14:04:29Z</time>
      </trkpt>
      <trkpt lat="41.7043250" lon="-0.9604630">
        <ele>202.3</ele>
        <time>2019-01-01T14:04:30Z</time>
      </trkpt>
      <trkpt lat="41.7042860" lon="-0.9605030">
        <ele>202.3</ele>
        <time>2019-01-01T14:04:31Z</time>
      </trkpt>
      <trkpt lat="41.7042420" lon="-0.9605380">
        <ele>202.3</ele>
        <time>2019-01-01T14:04:32Z</time>
      </trkpt>
      <trkpt lat="41.7042030" lon="-0.9605750">
        <ele>202.3</ele>
        <time>2019-01-01T14:04:33Z</time>
      </trkpt>
      <trkpt lat="41.7041540" lon="-0.9606140">
        <ele>202.3</ele>
        <time>2019-01-01T14:04:34Z</time>
      </trkpt>
      <trkpt lat="41.7041060" lon="-0.9606560">
        <ele>202.3</ele>
        <time>2019-01-01T14:04:35Z</time>
      </trkpt>
      <trkpt lat="41.7040680" lon="-0.9607000">
        <ele>202.3</ele>
        <time>2019-01-01T14:04:36Z</time>
      </trkpt>
      <trkpt lat="41.7040250" lon="-0.9607440">
        <ele>202.3</ele>
        <time>2019-01-01T14:04:37Z</time>
      </trkpt>
      <trkpt lat="41.7039880" lon="-0.9607920">
        <ele>202.4</ele>
        <time>2019-01-01T14:04:38Z</time>
      </trkpt>
      <trkpt lat="41.7039400" lon="-0.9608430">
        <ele>202.4</ele>
        <time>2019-01-01T14:04:39Z</time>
      </trkpt>
      <trkpt lat="41.7038940" lon="-0.9608970">
        <ele>202.4</ele>
        <time>2019-01-01T14:04:40Z</time>
      </trkpt>
      <trkpt lat="41.7038670" lon="-0.9609460">
        <ele>202.4</ele>
        <time>2019-01-01T14:04:41Z</time>
      </trkpt>
      <trkpt lat="41.7038310" lon="-0.9609960">
        <ele>202.4</ele>
        <time>2019-01-01T14:04:42Z</time>
      </trkpt>
      <trkpt lat="41.7037790" lon="-0.9610490">
        <ele>202.4</ele>
        <time>2019-01-01T14:04:43Z</time>
      </trkpt>
      <trkpt lat="41.7037400" lon="-0.9611050">
        <ele>202.4</ele>
        <time>2019-01-01T14:04:44Z</time>
      </trkpt>
      <trkpt lat="41.7036980" lon="-0.9611580">
        <ele>202.4</ele>
        <time>2019-01-01T14:04:45Z</time>
      </trkpt>
      <trkpt lat="41.7036650" lon="-0.9612100">
        <ele>202.4</ele>
        <time>2019-01-01T14:04:46Z</time>
      </trkpt>
      <trkpt lat="41.7036300" lon="-0.9612640">
        <ele>202.4</ele>
        <time>2019-01-01T14:04:47Z</time>
      </trkpt>
      <trkpt lat="41.7035880" lon="-0.9613180">
        <ele>202.3</ele>
        <time>2019-01-01T14:04:48Z</time>
      </trkpt>
      <trkpt lat="41.7035450" lon="-0.9613630">
        <ele>202.3</ele>
        <time>2019-01-01T14:04:49Z</time>
      </trkpt>
      <trkpt lat="41.7035100" lon="-0.9614160">
        <ele>202.3</ele>
        <time>2019-01-01T14:04:50Z</time>
      </trkpt>
      <trkpt lat="41.7034690" lon="-0.9614770">
        <ele>202.3</ele>
        <time>2019-01-01T14:04:51Z</time>
      </trkpt>
      <trkpt lat="41.7034280" lon="-0.9615260">
        <ele>202.3</ele>
        <time>2019-01-01T14:04:52Z</time>
      </trkpt>
      <trkpt lat="41.7033950" lon="-0.9615830">
        <ele>202.3</ele>
        <time>2019-01-01T14:04:53Z</time>
      </trkpt>
      <trkpt lat="41.7033640" lon="-0.9616390">
        <ele>202.3</ele>
        <time>2019-01-01T14:04:54Z</time>
      </trkpt>
      <trkpt lat="41.7033300" lon="-0.9616940">
        <ele>202.4</ele>
        <time>2019-01-01T14:04:55Z</time>
      </trkpt>
      <trkpt lat="41.7032930" lon="-0.9617460">
        <ele>202.4</ele>
        <time>2019-01-01T14:04:56Z</time>
      </trkpt>
      <trkpt lat="41.7032570" lon="-0.9618060">
        <ele>202.5</ele>
        <time>2019-01-01T14:04:57Z</time>
      </trkpt>
      <trkpt lat="41.7032320" lon="-0.9618610">
        <ele>202.6</ele>
        <time>2019-01-01T14:04:58Z</time>
      </trkpt>
      <trkpt lat="41.7032080" lon="-0.9619210">
        <ele>202.6</ele>
        <time>2019-01-01T14:04:59Z</time>
      </trkpt>
      <trkpt lat="41.7031840" lon="-0.9619840">
        <ele>202.7</ele>
        <time>2019-01-01T14:05:00Z</time>
      </trkpt>
      <trkpt lat="41.7031610" lon="-0.9620460">
        <ele>202.8</ele>
        <time>2019-01-01T14:05:01Z</time>
      </trkpt>
      <trkpt lat="41.7031330" lon="-0.9621100">
        <ele>202.9</ele>
        <time>2019-01-01T14:05:02Z</time>
      </trkpt>
      <trkpt lat="41.7031070" lon="-0.9621720">
        <ele>202.9</ele>
        <time>2019-01-01T14:05:03Z</time>
      </trkpt>
      <trkpt lat="41.7030850" lon="-0.9622280">
        <ele>203.0</ele>
        <time>2019-01-01T14:05:04Z</time>
      </trkpt>
      <trkpt lat="41.7030660" lon="-0.9622900">
        <ele>203.1</ele>
        <time>2019-01-01T14:05:05Z</time>
      </trkpt>
      <trkpt lat="41.7030370" lon="-0.9623520">
        <ele>203.2</ele>
        <time>2019-01-01T14:05:06Z</time>
      </trkpt>
      <trkpt lat="41.7030160" lon="-0.9624090">
        <ele>203.3</ele>
        <time>2019-01-01T14:05:07Z</time>
      </trkpt>
      <trkpt lat="41.7029930" lon="-0.9624700">
        <ele>203.4</ele>
        <time>2019-01-01T14:05:08Z</time>
      </trkpt>
      <trkpt lat="41.7029770" lon="-0.9625370">
        <ele>203.5</ele>
        <time>2019-01-01T14:05:09Z</time>
      </trkpt>
      <trkpt lat="41.7029390" lon="-0.9625970">
        <ele>203.6</ele>
        <time>2019-01-01T14:05:10Z</time>
      </trkpt>
      <trkpt lat="41.7029190" lon="-0.9626570">
        <ele>203.7</ele>
        <time>2019-01-01T14:05:11Z</time>
      </trkpt>
      <trkpt lat="41.7028910" lon="-0.9627170">
        <ele>203.8</ele>
        <time>2019-01-01T14:05:12Z</time>
      </trkpt>
      <trkpt lat="41.7028660" lon="-0.9627810">
        <ele>203.9</ele>
        <time>2019-01-01T14:05:13Z</time>
      </trkpt>
      <trkpt lat="41.7028450" lon="-0.9628340">
        <ele>203.9</ele>
        <time>2019-01-01T14:05:14Z</time>
      </trkpt>
      <trkpt lat="41.7028240" lon="-0.9628840">
        <ele>204.0</ele>
        <time>2019-01-01T14:05:15Z</time>
      </trkpt>
      <trkpt lat="41.7027940" lon="-0.9629330">
        <ele>204.1</ele>
        <time>2019-01-01T14:05:16Z</time>
      </trkpt>
      <trkpt lat="41.7027630" lon="-0.9629740">
        <ele>204.2</ele>
        <time>2019-01-01T14:05:17Z</time>
      </trkpt>
      <trkpt lat="41.7027320" lon="-0.9630280">
        <ele>204.3</ele>
        <time>2019-01-01T14:05:18Z</time>
      </trkpt>
      <trkpt lat="41.7027040" lon="-0.9630800">
        <ele>204.4</ele>
        <time>2019-01-01T14:05:19Z</time>
      </trkpt>
      <trkpt lat="41.7026790" lon="-0.9631430">
        <ele>204.5</ele>
        <time>2019-01-01T14:05:20Z</time>
      </trkpt>
      <trkpt lat="41.7026640" lon="-0.9632020">
        <ele>204.6</ele>
        <time>2019-01-01T14:05:21Z</time>
      </trkpt>
      <trkpt lat="41.7026580" lon="-0.9632620">
        <ele>204.6</ele>
        <time>2019-01-01T14:05:22Z</time>
      </trkpt>
      <trkpt lat="41.7026560" lon="-0.9633220">
        <ele>204.7</ele>
        <time>2019-01-01T14:05:23Z</time>
      </trkpt>
      <trkpt lat="41.7026690" lon="-0.9633920">
        <ele>204.7</ele>
        <time>2019-01-01T14:05:24Z</time>
      </trkpt>
      <trkpt lat="41.7026740" lon="-0.9634560">
        <ele>204.8</ele>
        <time>2019-01-01T14:05:25Z</time>
      </trkpt>
      <trkpt lat="41.7026860" lon="-0.9635280">
        <ele>204.8</ele>
        <time>2019-01-01T14:05:26Z</time>
      </trkpt>
      <trkpt lat="41.7027220" lon="-0.9635910">
        <ele>204.8</ele>
        <time>2019-01-01T14:05:27Z</time>
      </trkpt>
      <trkpt lat="41.7027440" lon="-0.9636500">
        <ele>204.9</ele>
        <time>2019-01-01T14:05:28Z</time>
      </trkpt>
      <trkpt lat="41.7027400" lon="-0.9637160">
        <ele>204.9</ele>
        <time>2019-01-01T14:05:29Z</time>
      </trkpt>
      <trkpt lat="41.7027540" lon="-0.9637780">
        <ele>205.0</ele>
        <time>2019-01-01T14:05:30Z</time>
      </trkpt>
      <trkpt lat="41.7027590" lon="-0.9638460">
        <ele>205.0</ele>
        <time>2019-01-01T14:05:31Z</time>
      </trkpt>
      <trkpt lat="41.7027730" lon="-0.9639100">
        <ele>205.1</ele>
        <time>2019-01-01T14:05:32Z</time>
      </trkpt>
      <trkpt lat="41.7027660" lon="-0.9639640">
        <ele>205.1</ele>
        <time>2019-01-01T14:05:33Z</time>
      </trkpt>
      <trkpt lat="41.7027700" lon="-0.9640410">
        <ele>205.2</ele>
        <time>2019-01-01T14:05:34Z</time>
      </trkpt>
      <trkpt lat="41.7027560" lon="-0.9640820">
        <ele>205.2</ele>
        <time>2019-01-01T14:05:35Z</time>
      </trkpt>
      <trkpt lat="41.7027240" lon="-0.9641750">
        <ele>205.3</ele>
        <time>2019-01-01T14:05:37Z</time>
      </trkpt>
      <trkpt lat="41.7026950" lon="-0.9642180">
        <ele>205.3</ele>
        <time>2019-01-01T14:05:38Z</time>
      </trkpt>
      <trkpt lat="41.7026630" lon="-0.9642870">
        <ele>205.3</ele>
        <time>2019-01-01T14:05:39Z</time>
      </trkpt>
      <trkpt lat="41.7026320" lon="-0.9643300">
        <ele>205.3</ele>
        <time>2019-01-01T14:05:40Z</time>
      </trkpt>
      <trkpt lat="41.7026000" lon="-0.9643900">
        <ele>205.3</ele>
        <time>2019-01-01T14:05:41Z</time>
      </trkpt>
      <trkpt lat="41.7025620" lon="-0.9644520">
        <ele>205.3</ele>
        <time>2019-01-01T14:05:42Z</time>
      </trkpt>
      <trkpt lat="41.7025220" lon="-0.9645100">
        <ele>205.3</ele>
        <time>2019-01-01T14:05:43Z</time>
      </trkpt>
      <trkpt lat="41.7024830" lon="-0.9645750">
        <ele>205.2</ele>
        <time>2019-01-01T14:05:44Z</time>
      </trkpt>
      <trkpt lat="41.7024490" lon="-0.9646370">
        <ele>205.1</ele>
        <time>2019-01-01T14:05:45Z</time>
      </trkpt>
      <trkpt lat="41.7024250" lon="-0.9646910">
        <ele>205.0</ele>
        <time>2019-01-01T14:05:46Z</time>
      </trkpt>
      <trkpt lat="41.7023980" lon="-0.9647440">
        <ele>204.8</ele>
        <time>2019-01-01T14:05:47Z</time>
      </trkpt>
      <trkpt lat="41.7023720" lon="-0.9648070">
        <ele>204.6</ele>
        <time>2019-01-01T14:05:48Z</time>
      </trkpt>
      <trkpt lat="41.7023460" lon="-0.9648670">
        <ele>204.4</ele>
        <time>2019-01-01T14:05:49Z</time>
      </trkpt>
      <trkpt lat="41.7023270" lon="-0.9649270">
        <ele>204.1</ele>
        <time>2019-01-01T14:05:50Z</time>
      </trkpt>
      <trkpt lat="41.7022930" lon="-0.9649790">
        <ele>203.9</ele>
        <time>2019-01-01T14:05:51Z</time>
      </trkpt>
      <trkpt lat="41.7022560" lon="-0.9650340">
        <ele>203.8</ele>
        <time>2019-01-01T14:05:52Z</time>
      </trkpt>
      <trkpt lat="41.7022380" lon="-0.9650790">
        <ele>203.7</ele>
        <time>2019-01-01T14:05:53Z</time>
      </trkpt>
      <trkpt lat="41.7022090" lon="-0.9651290">
        <ele>203.7</ele>
        <time>2019-01-01T14:05:54Z</time>
      </trkpt>
      <trkpt lat="41.7021800" lon="-0.9651780">
        <ele>203.7</ele>
        <time>2019-01-01T14:05:55Z</time>
      </trkpt>
      <trkpt lat="41.7021620" lon="-0.9652260">
        <ele>203.6</ele>
        <time>2019-01-01T14:05:56Z</time>
      </trkpt>
      <trkpt lat="41.7021450" lon="-0.9652770">
        <ele>203.6</ele>
        <time>2019-01-01T14:05:57Z</time>
      </trkpt>
      <trkpt lat="41.7021280" lon="-0.9653200">
        <ele>203.7</ele>
        <time>2019-01-01T14:05:58Z</time>
      </trkpt>
      <trkpt lat="41.7021130" lon="-0.9653780">
        <ele>203.7</ele>
        <time>2019-01-01T14:05:59Z</time>
      </trkpt>
      <trkpt lat="41.7020920" lon="-0.9654310">
        <ele>203.7</ele>
        <time>2019-01-01T14:06:00Z</time>
      </trkpt>
      <trkpt lat="41.7020830" lon="-0.9654750">
        <ele>203.7</ele>
        <time>2019-01-01T14:06:01Z</time>
      </trkpt>
      <trkpt lat="41.7020610" lon="-0.9655200">
        <ele>203.7</ele>
        <time>2019-01-01T14:06:02Z</time>
      </trkpt>
      <trkpt lat="41.7020450" lon="-0.9655550">
        <ele>203.8</ele>
        <time>2019-01-01T14:06:03Z</time>
      </trkpt>
      <trkpt lat="41.7020040" lon="-0.9656030">
        <ele>203.8</ele>
        <time>2019-01-01T14:06:05Z</time>
      </trkpt>
      <trkpt lat="41.7019480" lon="-0.9655980">
        <ele>203.8</ele>
        <time>2019-01-01T14:06:07Z</time>
      </trkpt>
      <trkpt lat="41.7019160" lon="-0.9655880">
        <ele>203.8</ele>
        <time>2019-01-01T14:06:08Z</time>
      </trkpt>
      <trkpt lat="41.7018850" lon="-0.9655660">
        <ele>203.8</ele>
        <time>2019-01-01T14:06:09Z</time>
      </trkpt>
      <trkpt lat="41.7018520" lon="-0.9655350">
        <ele>203.9</ele>
        <time>2019-01-01T14:06:10Z</time>
      </trkpt>
      <trkpt lat="41.7018200" lon="-0.9655040">
        <ele>203.9</ele>
        <time>2019-01-01T14:06:11Z</time>
      </trkpt>
      <trkpt lat="41.7017910" lon="-0.9654700">
        <ele>203.9</ele>
        <time>2019-01-01T14:06:12Z</time>
      </trkpt>
      <trkpt lat="41.7017640" lon="-0.9654300">
        <ele>203.9</ele>
        <time>2019-01-01T14:06:13Z</time>
      </trkpt>
      <trkpt lat="41.7017400" lon="-0.9653850">
        <ele>203.9</ele>
        <time>2019-01-01T14:06:14Z</time>
      </trkpt>
      <trkpt lat="41.7017160" lon="-0.9653370">
        <ele>203.9</ele>
        <time>2019-01-01T14:06:15Z</time>
      </trkpt>
      <trkpt lat="41.7016930" lon="-0.9652900">
        <ele>203.9</ele>
        <time>2019-01-01T14:06:16Z</time>
      </trkpt>
      <trkpt lat="41.7016700" lon="-0.9652440">
        <ele>203.9</ele>
        <time>2019-01-01T14:06:17Z</time>
      </trkpt>
      <trkpt lat="41.7016440" lon="-0.9651990">
        <ele>203.8</ele>
        <time>2019-01-01T14:06:18Z</time>
      </trkpt>
      <trkpt lat="41.7016150" lon="-0.9651560">
        <ele>203.8</ele>
        <time>2019-01-01T14:06:19Z</time>
      </trkpt>
      <trkpt lat="41.7015870" lon="-0.9651140">
        <ele>203.8</ele>
        <time>2019-01-01T14:06:20Z</time>
      </trkpt>
      <trkpt lat="41.7015600" lon="-0.9650700">
        <ele>203.8</ele>
        <time>2019-01-01T14:06:21Z</time>
      </trkpt>
      <trkpt lat="41.7015350" lon="-0.9650240">
        <ele>203.8</ele>
        <time>2019-01-01T14:06:22Z</time>
      </trkpt>
      <trkpt lat="41.7015100" lon="-0.9649760">
        <ele>203.8</ele>
        <time>2019-01-01T14:06:23Z</time>
      </trkpt>
      <trkpt lat="41.7014830" lon="-0.9649270">
        <ele>203.8</ele>
        <time>2019-01-01T14:06:24Z</time>
      </trkpt>
      <trkpt lat="41.7014400" lon="-0.9648590">
        <ele>203.8</ele>
        <time>2019-01-01T14:06:25Z</time>
      </trkpt>
      <trkpt lat="41.7014180" lon="-0.9648120">
        <ele>203.7</ele>
        <time>2019-01-01T14:06:26Z</time>
      </trkpt>
      <trkpt lat="41.7013760" lon="-0.9647610">
        <ele>203.7</ele>
        <time>2019-01-01T14:06:27Z</time>
      </trkpt>
      <trkpt lat="41.7013380" lon="-0.9647120">
        <ele>203.7</ele>
        <time>2019-01-01T14:06:28Z</time>
      </trkpt>
      <trkpt lat="41.7013350" lon="-0.9646550">
        <ele>203.7</ele>
        <time>2019-01-01T14:06:29Z</time>
      </trkpt>
      <trkpt lat="41.7012980" lon="-0.9645960">
        <ele>203.7</ele>
        <time>2019-01-01T14:06:30Z</time>
      </trkpt>
      <trkpt lat="41.7012540" lon="-0.9645090">
        <ele>203.7</ele>
        <time>2019-01-01T14:06:32Z</time>
      </trkpt>
      <trkpt lat="41.7012200" lon="-0.9644440">
        <ele>203.7</ele>
        <time>2019-01-01T14:06:33Z</time>
      </trkpt>
      <trkpt lat="41.7011950" lon="-0.9643850">
        <ele>203.7</ele>
        <time>2019-01-01T14:06:34Z</time>
      </trkpt>
      <trkpt lat="41.7011790" lon="-0.9643400">
        <ele>203.7</ele>
        <time>2019-01-01T14:06:35Z</time>
      </trkpt>
      <trkpt lat="41.7011520" lon="-0.9643000">
        <ele>203.7</ele>
        <time>2019-01-01T14:06:36Z</time>
      </trkpt>
      <trkpt lat="41.7011270" lon="-0.9642370">
        <ele>203.7</ele>
        <time>2019-01-01T14:06:37Z</time>
      </trkpt>
      <trkpt lat="41.7011030" lon="-0.9641970">
        <ele>203.7</ele>
        <time>2019-01-01T14:06:38Z</time>
      </trkpt>
      <trkpt lat="41.7010620" lon="-0.9641530">
        <ele>203.8</ele>
        <time>2019-01-01T14:06:39Z</time>
      </trkpt>
      <trkpt lat="41.7010150" lon="-0.9640940">
        <ele>203.8</ele>
        <time>2019-01-01T14:06:40Z</time>
      </trkpt>
      <trkpt lat="41.7009820" lon="-0.9640380">
        <ele>203.8</ele>
        <time>2019-01-01T14:06:41Z</time>
      </trkpt>
      <trkpt lat="41.7009650" lon="-0.9639760">
        <ele>203.9</ele>
        <time>2019-01-01T14:06:42Z</time>
      </trkpt>
      <trkpt lat="41.7009550" lon="-0.9639170">
        <ele>203.9</ele>
        <time>2019-01-01T14:06:43Z</time>
      </trkpt>
      <trkpt lat="41.7009170" lon="-0.9638650">
        <ele>203.9</ele>
        <time>2019-01-01T14:06:44Z</time>
      </trkpt>
      <trkpt lat="41.7008900" lon="-0.9638140">
        <ele>203.9</ele>
        <time>2019-01-01T14:06:45Z</time>
      </trkpt>
      <trkpt lat="41.7008430" lon="-0.9637540">
        <ele>203.8</ele>
        <time>2019-01-01T14:06:46Z</time>
      </trkpt>
      <trkpt lat="41.7008230" lon="-0.9636830">
        <ele>203.8</ele>
        <time>2019-01-01T14:06:47Z</time>
      </trkpt>
      <trkpt lat="41.7008000" lon="-0.9636240">
        <ele>203.8</ele>
        <time>2019-01-01T14:06:48Z</time>
      </trkpt>
      <trkpt lat="41.7007670" lon="-0.9635750">
        <ele>203.8</ele>
        <time>2019-01-01T14:06:49Z</time>
      </trkpt>
      <trkpt lat="41.7007460" lon="-0.9635340">
        <ele>203.7</ele>
        <time>2019-01-01T14:06:50Z</time>
      </trkpt>
      <trkpt lat="41.7006970" lon="-0.9634850">
        <ele>203.7</ele>
        <time>2019-01-01T14:06:51Z</time>
      </trkpt>
      <trkpt lat="41.7006610" lon="-0.9634380">
        <ele>203.7</ele>
        <time>2019-01-01T14:06:52Z</time>
      </trkpt>
      <trkpt lat="41.7006450" lon="-0.9633860">
        <ele>203.7</ele>
        <time>2019-01-01T14:06:53Z</time>
      </trkpt>
      <trkpt lat="41.7006020" lon="-0.9633300">
        <ele>203.7</ele>
        <time>2019-01-01T14:06:54Z</time>
      </trkpt>
      <trkpt lat="41.7005820" lon="-0.9632620">
        <ele>203.7</ele>
        <time>2019-01-01T14:06:55Z</time>
      </trkpt>
      <trkpt lat="41.7005470" lon="-0.9632040">
        <ele>203.7</ele>
        <time>2019-01-01T14:06:56Z</time>
      </trkpt>
      <trkpt lat="41.7005290" lon="-0.9631530">
        <ele>203.7</ele>
        <time>2019-01-01T14:06:57Z</time>
      </trkpt>
      <trkpt lat="41.7005080" lon="-0.9630910">
        <ele>203.7</ele>
        <time>2019-01-01T14:06:58Z</time>
      </trkpt>
      <trkpt lat="41.7004630" lon="-0.9630400">
        <ele>203.7</ele>
        <time>2019-01-01T14:06:59Z</time>
      </trkpt>
      <trkpt lat="41.7004420" lon="-0.9629780">
        <ele>203.7</ele>
        <time>2019-01-01T14:07:00Z</time>
      </trkpt>
      <trkpt lat="41.7004040" lon="-0.9629360">
        <ele>203.8</ele>
        <time>2019-01-01T14:07:01Z</time>
      </trkpt>
      <trkpt lat="41.7003780" lon="-0.9628900">
        <ele>203.7</ele>
        <time>2019-01-01T14:07:02Z</time>
      </trkpt>
      <trkpt lat="41.7003500" lon="-0.9628330">
        <ele>203.7</ele>
        <time>2019-01-01T14:07:03Z</time>
      </trkpt>
      <trkpt lat="41.7003140" lon="-0.9627780">
        <ele>203.7</ele>
        <time>2019-01-01T14:07:04Z</time>
      </trkpt>
      <trkpt lat="41.7003040" lon="-0.9627300">
        <ele>203.7</ele>
        <time>2019-01-01T14:07:05Z</time>
      </trkpt>
      <trkpt lat="41.7002820" lon="-0.9627000">
        <ele>203.7</ele>
        <time>2019-01-01T14:07:06Z</time>
      </trkpt>
      <trkpt lat="41.7002580" lon="-0.9626610">
        <ele>203.6</ele>
        <time>2019-01-01T14:07:07Z</time>
      </trkpt>
      <trkpt lat="41.7002220" lon="-0.9625990">
        <ele>203.6</ele>
        <time>2019-01-01T14:07:08Z</time>
      </trkpt>
      <trkpt lat="41.7001860" lon="-0.9625450">
        <ele>203.6</ele>
        <time>2019-01-01T14:07:09Z</time>
      </trkpt>
      <trkpt lat="41.7001650" lon="-0.9625010">
        <ele>203.7</ele>
        <time>2019-01-01T14:07:10Z</time>
      </trkpt>
      <trkpt lat="41.7001240" lon="-0.9624600">
        <ele>203.7</ele>
        <time>2019-01-01T14:07:11Z</time>
      </trkpt>
      <trkpt lat="41.7000930" lon="-0.9624060">
        <ele>203.8</ele>
        <time>2019-01-01T14:07:12Z</time>
      </trkpt>
      <trkpt lat="41.7000550" lon="-0.9623530">
        <ele>203.9</ele>
        <time>2019-01-01T14:07:13Z</time>
      </trkpt>
      <trkpt lat="41.7000210" lon="-0.9622810">
        <ele>204.1</ele>
        <time>2019-01-01T14:07:14Z</time>
      </trkpt>
      <trkpt lat="41.7000130" lon="-0.9622450">
        <ele>204.2</ele>
        <time>2019-01-01T14:07:15Z</time>
      </trkpt>
      <trkpt lat="41.6999900" lon="-0.9621820">
        <ele>204.3</ele>
        <time>2019-01-01T14:07:16Z</time>
      </trkpt>
      <trkpt lat="41.6999630" lon="-0.9621280">
        <ele>204.3</ele>
        <time>2019-01-01T14:07:17Z</time>
      </trkpt>
      <trkpt lat="41.6999410" lon="-0.9620730">
        <ele>204.4</ele>
        <time>2019-01-01T14:07:18Z</time>
      </trkpt>
      <trkpt lat="41.6999170" lon="-0.9620060">
        <ele>204.2</ele>
        <time>2019-01-01T14:07:19Z</time>
      </trkpt>
      <trkpt lat="41.6998920" lon="-0.9619430">
        <ele>204.1</ele>
        <time>2019-01-01T14:07:20Z</time>
      </trkpt>
      <trkpt lat="41.6998720" lon="-0.9618850">
        <ele>204.0</ele>
        <time>2019-01-01T14:07:21Z</time>
      </trkpt>
      <trkpt lat="41.6998500" lon="-0.9618280">
        <ele>203.9</ele>
        <time>2019-01-01T14:07:22Z</time>
      </trkpt>
      <trkpt lat="41.6998300" lon="-0.9617630">
        <ele>203.8</ele>
        <time>2019-01-01T14:07:23Z</time>
      </trkpt>
      <trkpt lat="41.6998000" lon="-0.9616990">
        <ele>203.7</ele>
        <time>2019-01-01T14:07:24Z</time>
      </trkpt>
      <trkpt lat="41.6997810" lon="-0.9616520">
        <ele>203.6</ele>
        <time>2019-01-01T14:07:25Z</time>
      </trkpt>
      <trkpt lat="41.6997600" lon="-0.9615960">
        <ele>203.5</ele>
        <time>2019-01-01T14:07:26Z</time>
      </trkpt>
      <trkpt lat="41.6997360" lon="-0.9615380">
        <ele>203.3</ele>
        <time>2019-01-01T14:07:27Z</time>
      </trkpt>
      <trkpt lat="41.6997040" lon="-0.9614790">
        <ele>203.2</ele>
        <time>2019-01-01T14:07:28Z</time>
      </trkpt>
      <trkpt lat="41.6996780" lon="-0.9614160">
        <ele>203.0</ele>
        <time>2019-01-01T14:07:29Z</time>
      </trkpt>
      <trkpt lat="41.6996580" lon="-0.9613470">
        <ele>202.9</ele>
        <time>2019-01-01T14:07:30Z</time>
      </trkpt>
      <trkpt lat="41.6996430" lon="-0.9612740">
        <ele>202.7</ele>
        <time>2019-01-01T14:07:31Z</time>
      </trkpt>
      <trkpt lat="41.6996250" lon="-0.9611850">
        <ele>202.4</ele>
        <time>2019-01-01T14:07:32Z</time>
      </trkpt>
      <trkpt lat="41.6996030" lon="-0.9611450">
        <ele>202.3</ele>
        <time>2019-01-01T14:07:33Z</time>
      </trkpt>
      <trkpt lat="41.6995770" lon="-0.9610930">
        <ele>202.1</ele>
        <time>2019-01-01T14:07:34Z</time>
      </trkpt>
      <trkpt lat="41.6995570" lon="-0.9610270">
        <ele>201.9</ele>
        <time>2019-01-01T14:07:35Z</time>
      </trkpt>
      <trkpt lat="41.6995260" lon="-0.9609770">
        <ele>201.7</ele>
        <time>2019-01-01T14:07:36Z</time>
      </trkpt>
      <trkpt lat="41.6994990" lon="-0.9609160">
        <ele>201.5</ele>
        <time>2019-01-01T14:07:37Z</time>
      </trkpt>
      <trkpt lat="41.6994770" lon="-0.9608720">
        <ele>201.4</ele>
        <time>2019-01-01T14:07:38Z</time>
      </trkpt>
      <trkpt lat="41.6994520" lon="-0.9608200">
        <ele>201.3</ele>
        <time>2019-01-01T14:07:39Z</time>
      </trkpt>
      <trkpt lat="41.6994330" lon="-0.9607560">
        <ele>201.2</ele>
        <time>2019-01-01T14:07:40Z</time>
      </trkpt>
      <trkpt lat="41.6994080" lon="-0.9606980">
        <ele>201.1</ele>
        <time>2019-01-01T14:07:41Z</time>
      </trkpt>
      <trkpt lat="41.6993840" lon="-0.9606480">
        <ele>201.1</ele>
        <time>2019-01-01T14:07:42Z</time>
      </trkpt>
      <trkpt lat="41.6993530" lon="-0.9605910">
        <ele>201.0</ele>
        <time>2019-01-01T14:07:43Z</time>
      </trkpt>
      <trkpt lat="41.6993310" lon="-0.9605320">
        <ele>201.0</ele>
        <time>2019-01-01T14:07:44Z</time>
      </trkpt>
      <trkpt lat="41.6993040" lon="-0.9604810">
        <ele>200.9</ele>
        <time>2019-01-01T14:07:45Z</time>
      </trkpt>
      <trkpt lat="41.6992820" lon="-0.9604140">
        <ele>200.9</ele>
        <time>2019-01-01T14:07:46Z</time>
      </trkpt>
      <trkpt lat="41.6992560" lon="-0.9603710">
        <ele>200.9</ele>
        <time>2019-01-01T14:07:47Z</time>
      </trkpt>
      <trkpt lat="41.6992300" lon="-0.9603140">
        <ele>200.9</ele>
        <time>2019-01-01T14:07:48Z</time>
      </trkpt>
      <trkpt lat="41.6992090" lon="-0.9602610">
        <ele>200.9</ele>
        <time>2019-01-01T14:07:49Z</time>
      </trkpt>
      <trkpt lat="41.6991910" lon="-0.9602060">
        <ele>200.9</ele>
        <time>2019-01-01T14:07:50Z</time>
      </trkpt>
      <trkpt lat="41.6991650" lon="-0.9601540">
        <ele>200.9</ele>
        <time>2019-01-01T14:07:51Z</time>
      </trkpt>
      <trkpt lat="41.6991400" lon="-0.9601090">
        <ele>200.9</ele>
        <time>2019-01-01T14:07:52Z</time>
      </trkpt>
      <trkpt lat="41.6991230" lon="-0.9600450">
        <ele>200.9</ele>
        <time>2019-01-01T14:07:53Z</time>
      </trkpt>
      <trkpt lat="41.6990930" lon="-0.9599730">
        <ele>200.9</ele>
        <time>2019-01-01T14:07:54Z</time>
      </trkpt>
      <trkpt lat="41.6990740" lon="-0.9599180">
        <ele>200.9</ele>
        <time>2019-01-01T14:07:55Z</time>
      </trkpt>
      <trkpt lat="41.6990470" lon="-0.9598580">
        <ele>200.9</ele>
        <time>2019-01-01T14:07:56Z</time>
      </trkpt>
      <trkpt lat="41.6990380" lon="-0.9597830">
        <ele>200.9</ele>
        <time>2019-01-01T14:07:57Z</time>
      </trkpt>
      <trkpt lat="41.6990290" lon="-0.9597270">
        <ele>200.9</ele>
        <time>2019-01-01T14:07:58Z</time>
      </trkpt>
      <trkpt lat="41.6989950" lon="-0.9596630">
        <ele>200.9</ele>
        <time>2019-01-01T14:07:59Z</time>
      </trkpt>
      <trkpt lat="41.6989680" lon="-0.9596100">
        <ele>200.9</ele>
        <time>2019-01-01T14:08:00Z</time>
      </trkpt>
      <trkpt lat="41.6989430" lon="-0.9595430">
        <ele>200.9</ele>
        <time>2019-01-01T14:08:01Z</time>
      </trkpt>
      <trkpt lat="41.6989180" lon="-0.9594660">
        <ele>201.0</ele>
        <time>2019-01-01T14:08:02Z</time>
      </trkpt>
      <trkpt lat="41.6988930" lon="-0.9594110">
        <ele>201.0</ele>
        <time>2019-01-01T14:08:03Z</time>
      </trkpt>
      <trkpt lat="41.6988720" lon="-0.9593440">
        <ele>201.0</ele>
        <time>2019-01-01T14:08:04Z</time>
      </trkpt>
      <trkpt lat="41.6988500" lon="-0.9592820">
        <ele>201.1</ele>
        <time>2019-01-01T14:08:05Z</time>
      </trkpt>
      <trkpt lat="41.6988330" lon="-0.9592110">
        <ele>201.2</ele>
        <time>2019-01-01T14:08:06Z</time>
      </trkpt>
      <trkpt lat="41.6988020" lon="-0.9591460">
        <ele>201.2</ele>
        <time>2019-01-01T14:08:07Z</time>
      </trkpt>
      <trkpt lat="41.6987760" lon="-0.9590900">
        <ele>201.3</ele>
        <time>2019-01-01T14:08:08Z</time>
      </trkpt>
      <trkpt lat="41.6987430" lon="-0.9590280">
        <ele>201.4</ele>
        <time>2019-01-01T14:08:09Z</time>
      </trkpt>
      <trkpt lat="41.6987240" lon="-0.9589710">
        <ele>201.6</ele>
        <time>2019-01-01T14:08:10Z</time>
      </trkpt>
      <trkpt lat="41.6987000" lon="-0.9589180">
        <ele>201.6</ele>
        <time>2019-01-01T14:08:11Z</time>
      </trkpt>
      <trkpt lat="41.6986700" lon="-0.9588690">
        <ele>201.6</ele>
        <time>2019-01-01T14:08:12Z</time>
      </trkpt>
      <trkpt lat="41.6986360" lon="-0.9588150">
        <ele>201.6</ele>
        <time>2019-01-01T14:08:13Z</time>
      </trkpt>
      <trkpt lat="41.6986070" lon="-0.9587570">
        <ele>201.6</ele>
        <time>2019-01-01T14:08:14Z</time>
      </trkpt>
      <trkpt lat="41.6985800" lon="-0.9586980">
        <ele>201.6</ele>
        <time>2019-01-01T14:08:15Z</time>
      </trkpt>
      <trkpt lat="41.6985580" lon="-0.9586350">
        <ele>201.7</ele>
        <time>2019-01-01T14:08:16Z</time>
      </trkpt>
      <trkpt lat="41.6985370" lon="-0.9585810">
        <ele>201.8</ele>
        <time>2019-01-01T14:08:17Z</time>
      </trkpt>
      <trkpt lat="41.6985040" lon="-0.9585240">
        <ele>201.9</ele>
        <time>2019-01-01T14:08:18Z</time>
      </trkpt>
      <trkpt lat="41.6984750" lon="-0.9584630">
        <ele>202.0</ele>
        <time>2019-01-01T14:08:19Z</time>
      </trkpt>
      <trkpt lat="41.6984360" lon="-0.9584000">
        <ele>202.1</ele>
        <time>2019-01-01T14:08:20Z</time>
      </trkpt>
      <trkpt lat="41.6984150" lon="-0.9583390">
        <ele>202.2</ele>
        <time>2019-01-01T14:08:21Z</time>
      </trkpt>
      <trkpt lat="41.6983910" lon="-0.9582830">
        <ele>202.4</ele>
        <time>2019-01-01T14:08:22Z</time>
      </trkpt>
      <trkpt lat="41.6983600" lon="-0.9582290">
        <ele>202.4</ele>
        <time>2019-01-01T14:08:23Z</time>
      </trkpt>
      <trkpt lat="41.6983390" lon="-0.9581670">
        <ele>202.5</ele>
        <time>2019-01-01T14:08:24Z</time>
      </trkpt>
      <trkpt lat="41.6983180" lon="-0.9581030">
        <ele>202.5</ele>
        <time>2019-01-01T14:08:25Z</time>
      </trkpt>
      <trkpt lat="41.6982900" lon="-0.9580570">
        <ele>202.5</ele>
        <time>2019-01-01T14:08:26Z</time>
      </trkpt>
      <trkpt lat="41.6982630" lon="-0.9579990">
        <ele>202.6</ele>
        <time>2019-01-01T14:08:27Z</time>
      </trkpt>
      <trkpt lat="41.6982390" lon="-0.9579500">
        <ele>202.6</ele>
        <time>2019-01-01T14:08:28Z</time>
      </trkpt>
      <trkpt lat="41.6982120" lon="-0.9578840">
        <ele>202.6</ele>
        <time>2019-01-01T14:08:29Z</time>
      </trkpt>
      <trkpt lat="41.6981790" lon="-0.9578090">
        <ele>202.6</ele>
        <time>2019-01-01T14:08:30Z</time>
      </trkpt>
      <trkpt lat="41.6981570" lon="-0.9577530">
        <ele>202.6</ele>
        <time>2019-01-01T14:08:31Z</time>
      </trkpt>
      <trkpt lat="41.6981240" lon="-0.9576990">
        <ele>202.6</ele>
        <time>2019-01-01T14:08:32Z</time>
      </trkpt>
      <trkpt lat="41.6980980" lon="-0.9576550">
        <ele>202.6</ele>
        <time>2019-01-01T14:08:33Z</time>
      </trkpt>
      <trkpt lat="41.6980730" lon="-0.9575950">
        <ele>202.6</ele>
        <time>2019-01-01T14:08:34Z</time>
      </trkpt>
      <trkpt lat="41.6980450" lon="-0.9575390">
        <ele>202.6</ele>
        <time>2019-01-01T14:08:35Z</time>
      </trkpt>
      <trkpt lat="41.6980240" lon="-0.9574880">
        <ele>202.6</ele>
        <time>2019-01-01T14:08:36Z</time>
      </trkpt>
      <trkpt lat="41.6979840" lon="-0.9574540">
        <ele>202.6</ele>
        <time>2019-01-01T14:08:37Z</time>
      </trkpt>
      <trkpt lat="41.6979540" lon="-0.9574080">
        <ele>202.6</ele>
        <time>2019-01-01T14:08:38Z</time>
      </trkpt>
      <trkpt lat="41.6979240" lon="-0.9573520">
        <ele>202.6</ele>
        <time>2019-01-01T14:08:39Z</time>
      </trkpt>
      <trkpt lat="41.6978970" lon="-0.9572940">
        <ele>202.6</ele>
        <time>2019-01-01T14:08:40Z</time>
      </trkpt>
      <trkpt lat="41.6978670" lon="-0.9572390">
        <ele>202.6</ele>
        <time>2019-01-01T14:08:41Z</time>
      </trkpt>
      <trkpt lat="41.6978360" lon="-0.9571910">
        <ele>202.6</ele>
        <time>2019-01-01T14:08:42Z</time>
      </trkpt>
      <trkpt lat="41.6978000" lon="-0.9571540">
        <ele>202.7</ele>
        <time>2019-01-01T14:08:43Z</time>
      </trkpt>
      <trkpt lat="41.6977670" lon="-0.9571270">
        <ele>202.7</ele>
        <time>2019-01-01T14:08:44Z</time>
      </trkpt>
      <trkpt lat="41.6977370" lon="-0.9570800">
        <ele>202.7</ele>
        <time>2019-01-01T14:08:45Z</time>
      </trkpt>
      <trkpt lat="41.6976930" lon="-0.9570350">
        <ele>202.8</ele>
        <time>2019-01-01T14:08:46Z</time>
      </trkpt>
      <trkpt lat="41.6976730" lon="-0.9569790">
        <ele>202.9</ele>
        <time>2019-01-01T14:08:47Z</time>
      </trkpt>
      <trkpt lat="41.6976380" lon="-0.9569110">
        <ele>203.0</ele>
        <time>2019-01-01T14:08:48Z</time>
      </trkpt>
      <trkpt lat="41.6976090" lon="-0.9568630">
        <ele>203.1</ele>
        <time>2019-01-01T14:08:49Z</time>
      </trkpt>
      <trkpt lat="41.6975840" lon="-0.9568110">
        <ele>203.2</ele>
        <time>2019-01-01T14:08:50Z</time>
      </trkpt>
      <trkpt lat="41.6975530" lon="-0.9567630">
        <ele>203.3</ele>
        <time>2019-01-01T14:08:51Z</time>
      </trkpt>
      <trkpt lat="41.6975260" lon="-0.9567130">
        <ele>203.4</ele>
        <time>2019-01-01T14:08:52Z</time>
      </trkpt>
      <trkpt lat="41.6974950" lon="-0.9566640">
        <ele>203.4</ele>
        <time>2019-01-01T14:08:53Z</time>
      </trkpt>
      <trkpt lat="41.6974690" lon="-0.9566160">
        <ele>203.4</ele>
        <time>2019-01-01T14:08:54Z</time>
      </trkpt>
      <trkpt lat="41.6974400" lon="-0.9565520">
        <ele>203.5</ele>
        <time>2019-01-01T14:08:55Z</time>
      </trkpt>
      <trkpt lat="41.6974180" lon="-0.9564950">
        <ele>203.5</ele>
        <time>2019-01-01T14:08:56Z</time>
      </trkpt>
      <trkpt lat="41.6973780" lon="-0.9564550">
        <ele>203.4</ele>
        <time>2019-01-01T14:08:57Z</time>
      </trkpt>
      <trkpt lat="41.6973570" lon="-0.9564100">
        <ele>203.4</ele>
        <time>2019-01-01T14:08:58Z</time>
      </trkpt>
      <trkpt lat="41.6973090" lon="-0.9563490">
        <ele>203.4</ele>
        <time>2019-01-01T14:08:59Z</time>
      </trkpt>
      <trkpt lat="41.6972930" lon="-0.9562770">
        <ele>203.4</ele>
        <time>2019-01-01T14:09:00Z</time>
      </trkpt>
      <trkpt lat="41.6972640" lon="-0.9561920">
        <ele>203.3</ele>
        <time>2019-01-01T14:09:01Z</time>
      </trkpt>
      <trkpt lat="41.6972330" lon="-0.9561510">
        <ele>203.3</ele>
        <time>2019-01-01T14:09:02Z</time>
      </trkpt>
      <trkpt lat="41.6971810" lon="-0.9561150">
        <ele>203.2</ele>
        <time>2019-01-01T14:09:03Z</time>
      </trkpt>
      <trkpt lat="41.6971620" lon="-0.9560530">
        <ele>203.1</ele>
        <time>2019-01-01T14:09:04Z</time>
      </trkpt>
      <trkpt lat="41.6971160" lon="-0.9560690">
        <ele>203.0</ele>
        <time>2019-01-01T14:09:05Z</time>
      </trkpt>
      <trkpt lat="41.6970710" lon="-0.9560350">
        <ele>202.9</ele>
        <time>2019-01-01T14:09:06Z</time>
      </trkpt>
      <trkpt lat="41.6970430" lon="-0.9559900">
        <ele>202.8</ele>
        <time>2019-01-01T14:09:07Z</time>
      </trkpt>
      <trkpt lat="41.6970110" lon="-0.9559270">
        <ele>202.7</ele>
        <time>2019-01-01T14:09:08Z</time>
      </trkpt>
      <trkpt lat="41.6969730" lon="-0.9558720">
        <ele>202.6</ele>
        <time>2019-01-01T14:09:09Z</time>
      </trkpt>
      <trkpt lat="41.6969490" lon="-0.9558190">
        <ele>202.6</ele>
        <time>2019-01-01T14:09:10Z</time>
      </trkpt>
      <trkpt lat="41.6969220" lon="-0.9557670">
        <ele>202.6</ele>
        <time>2019-01-01T14:09:11Z</time>
      </trkpt>
      <trkpt lat="41.6968890" lon="-0.9557170">
        <ele>202.5</ele>
        <time>2019-01-01T14:09:12Z</time>
      </trkpt>
      <trkpt lat="41.6968650" lon="-0.9556720">
        <ele>202.5</ele>
        <time>2019-01-01T14:09:13Z</time>
      </trkpt>
      <trkpt lat="41.6968380" lon="-0.9556010">
        <ele>202.5</ele>
        <time>2019-01-01T14:09:14Z</time>
      </trkpt>
      <trkpt lat="41.6967910" lon="-0.9555410">
        <ele>202.4</ele>
        <time>2019-01-01T14:09:15Z</time>
      </trkpt>
      <trkpt lat="41.6967700" lon="-0.9554970">
        <ele>202.3</ele>
        <time>2019-01-01T14:09:16Z</time>
      </trkpt>
      <trkpt lat="41.6967310" lon="-0.9554540">
        <ele>202.2</ele>
        <time>2019-01-01T14:09:17Z</time>
      </trkpt>
      <trkpt lat="41.6967050" lon="-0.9554130">
        <ele>202.1</ele>
        <time>2019-01-01T14:09:18Z</time>
      </trkpt>
      <trkpt lat="41.6966760" lon="-0.9553540">
        <ele>202.0</ele>
        <time>2019-01-01T14:09:19Z</time>
      </trkpt>
      <trkpt lat="41.6966450" lon="-0.9553070">
        <ele>201.9</ele>
        <time>2019-01-01T14:09:20Z</time>
      </trkpt>
      <trkpt lat="41.6966120" lon="-0.9552450">
        <ele>201.8</ele>
        <time>2019-01-01T14:09:21Z</time>
      </trkpt>
      <trkpt lat="41.6965790" lon="-0.9551830">
        <ele>201.7</ele>
        <time>2019-01-01T14:09:22Z</time>
      </trkpt>
      <trkpt lat="41.6965410" lon="-0.9551410">
        <ele>201.7</ele>
        <time>2019-01-01T14:09:23Z</time>
      </trkpt>
      <trkpt lat="41.6965020" lon="-0.9550880">
        <ele>201.6</ele>
        <time>2019-01-01T14:09:24Z</time>
      </trkpt>
      <trkpt lat="41.6964690" lon="-0.9550510">
        <ele>201.6</ele>
        <time>2019-01-01T14:09:25Z</time>
      </trkpt>
      <trkpt lat="41.6964320" lon="-0.9550200">
        <ele>201.6</ele>
        <time>2019-01-01T14:09:26Z</time>
      </trkpt>
      <trkpt lat="41.6963810" lon="-0.9549910">
        <ele>201.6</ele>
        <time>2019-01-01T14:09:27Z</time>
      </trkpt>
      <trkpt lat="41.6963360" lon="-0.9549460">
        <ele>201.6</ele>
        <time>2019-01-01T14:09:28Z</time>
      </trkpt>
      <trkpt lat="41.6962870" lon="-0.9549130">
        <ele>201.6</ele>
        <time>2019-01-01T14:09:29Z</time>
      </trkpt>
      <trkpt lat="41.6962460" lon="-0.9548820">
        <ele>201.6</ele>
        <time>2019-01-01T14:09:30Z</time>
      </trkpt>
      <trkpt lat="41.6962020" lon="-0.9548450">
        <ele>201.6</ele>
        <time>2019-01-01T14:09:31Z</time>
      </trkpt>
      <trkpt lat="41.6961590" lon="-0.9548040">
        <ele>201.6</ele>
        <time>2019-01-01T14:09:32Z</time>
      </trkpt>
      <trkpt lat="41.6961170" lon="-0.9547680">
        <ele>201.6</ele>
        <time>2019-01-01T14:09:33Z</time>
      </trkpt>
      <trkpt lat="41.6960800" lon="-0.9547300">
        <ele>201.6</ele>
        <time>2019-01-01T14:09:34Z</time>
      </trkpt>
      <trkpt lat="41.6960370" lon="-0.9547020">
        <ele>201.6</ele>
        <time>2019-01-01T14:09:35Z</time>
      </trkpt>
      <trkpt lat="41.6959960" lon="-0.9546660">
        <ele>201.6</ele>
        <time>2019-01-01T14:09:36Z</time>
      </trkpt>
      <trkpt lat="41.6959530" lon="-0.9546410">
        <ele>201.6</ele>
        <time>2019-01-01T14:09:37Z</time>
      </trkpt>
      <trkpt lat="41.6959200" lon="-0.9546070">
        <ele>201.6</ele>
        <time>2019-01-01T14:09:38Z</time>
      </trkpt>
      <trkpt lat="41.6958760" lon="-0.9545700">
        <ele>201.6</ele>
        <time>2019-01-01T14:09:39Z</time>
      </trkpt>
      <trkpt lat="41.6958380" lon="-0.9545450">
        <ele>201.6</ele>
        <time>2019-01-01T14:09:40Z</time>
      </trkpt>
      <trkpt lat="41.6957970" lon="-0.9545130">
        <ele>201.6</ele>
        <time>2019-01-01T14:09:41Z</time>
      </trkpt>
      <trkpt lat="41.6957670" lon="-0.9544920">
        <ele>201.6</ele>
        <time>2019-01-01T14:09:42Z</time>
      </trkpt>
      <trkpt lat="41.6957290" lon="-0.9544610">
        <ele>201.6</ele>
        <time>2019-01-01T14:09:43Z</time>
      </trkpt>
      <trkpt lat="41.6956970" lon="-0.9544270">
        <ele>201.6</ele>
        <time>2019-01-01T14:09:44Z</time>
      </trkpt>
      <trkpt lat="41.6956610" lon="-0.9544070">
        <ele>201.6</ele>
        <time>2019-01-01T14:09:45Z</time>
      </trkpt>
      <trkpt lat="41.6956160" lon="-0.9543540">
        <ele>201.6</ele>
        <time>2019-01-01T14:09:46Z</time>
      </trkpt>
      <trkpt lat="41.6955780" lon="-0.9543240">
        <ele>201.6</ele>
        <time>2019-01-01T14:09:47Z</time>
      </trkpt>
      <trkpt lat="41.6955290" lon="-0.9542710">
        <ele>201.6</ele>
        <time>2019-01-01T14:09:48Z</time>
      </trkpt>
      <trkpt lat="41.6954790" lon="-0.9542280">
        <ele>201.6</ele>
        <time>2019-01-01T14:09:49Z</time>
      </trkpt>
      <trkpt lat="41.6954350" lon="-0.9541890">
        <ele>201.6</ele>
        <time>2019-01-01T14:09:50Z</time>
      </trkpt>
      <trkpt lat="41.6953860" lon="-0.9541480">
        <ele>201.6</ele>
        <time>2019-01-01T14:09:51Z</time>
      </trkpt>
      <trkpt lat="41.6953360" lon="-0.9541040">
        <ele>201.6</ele>
        <time>2019-01-01T14:09:52Z</time>
      </trkpt>
      <trkpt lat="41.6953030" lon="-0.9540550">
        <ele>201.6</ele>
        <time>2019-01-01T14:09:53Z</time>
      </trkpt>
      <trkpt lat="41.6952550" lon="-0.9540120">
        <ele>201.6</ele>
        <time>2019-01-01T14:09:54Z</time>
      </trkpt>
      <trkpt lat="41.6952150" lon="-0.9539710">
        <ele>201.6</ele>
        <time>2019-01-01T14:09:55Z</time>
      </trkpt>
      <trkpt lat="41.6951800" lon="-0.9539410">
        <ele>201.6</ele>
        <time>2019-01-01T14:09:56Z</time>
      </trkpt>
      <trkpt lat="41.6951340" lon="-0.9538940">
        <ele>201.6</ele>
        <time>2019-01-01T14:09:57Z</time>
      </trkpt>
      <trkpt lat="41.6950930" lon="-0.9538480">
        <ele>201.6</ele>
        <time>2019-01-01T14:09:58Z</time>
      </trkpt>
      <trkpt lat="41.6950500" lon="-0.9537970">
        <ele>201.6</ele>
        <time>2019-01-01T14:09:59Z</time>
      </trkpt>
      <trkpt lat="41.6950100" lon="-0.9537580">
        <ele>201.6</ele>
        <time>2019-01-01T14:10:00Z</time>
      </trkpt>
      <trkpt lat="41.6949700" lon="-0.9537160">
        <ele>201.6</ele>
        <time>2019-01-01T14:10:01Z</time>
      </trkpt>
      <trkpt lat="41.6949230" lon="-0.9536730">
        <ele>201.6</ele>
        <time>2019-01-01T14:10:02Z</time>
      </trkpt>
      <trkpt lat="41.6948820" lon="-0.9536220">
        <ele>201.6</ele>
        <time>2019-01-01T14:10:03Z</time>
      </trkpt>
      <trkpt lat="41.6948360" lon="-0.9535840">
        <ele>201.6</ele>
        <time>2019-01-01T14:10:04Z</time>
      </trkpt>
      <trkpt lat="41.6947910" lon="-0.9535460">
        <ele>201.6</ele>
        <time>2019-01-01T14:10:05Z</time>
      </trkpt>
      <trkpt lat="41.6947480" lon="-0.9535090">
        <ele>201.6</ele>
        <time>2019-01-01T14:10:06Z</time>
      </trkpt>
      <trkpt lat="41.6947050" lon="-0.9534690">
        <ele>201.6</ele>
        <time>2019-01-01T14:10:07Z</time>
      </trkpt>
      <trkpt lat="41.6946620" lon="-0.9534340">
        <ele>201.6</ele>
        <time>2019-01-01T14:10:08Z</time>
      </trkpt>
      <trkpt lat="41.6946190" lon="-0.9533940">
        <ele>201.6</ele>
        <time>2019-01-01T14:10:09Z</time>
      </trkpt>
      <trkpt lat="41.6945780" lon="-0.9533650">
        <ele>201.6</ele>
        <time>2019-01-01T14:10:10Z</time>
      </trkpt>
      <trkpt lat="41.6945380" lon="-0.9533290">
        <ele>201.6</ele>
        <time>2019-01-01T14:10:11Z</time>
      </trkpt>
      <trkpt lat="41.6944920" lon="-0.9532870">
        <ele>201.6</ele>
        <time>2019-01-01T14:10:12Z</time>
      </trkpt>
      <trkpt lat="41.6944510" lon="-0.9532490">
        <ele>201.6</ele>
        <time>2019-01-01T14:10:13Z</time>
      </trkpt>
      <trkpt lat="41.6944070" lon="-0.9532100">
        <ele>201.6</ele>
        <time>2019-01-01T14:10:14Z</time>
      </trkpt>
      <trkpt lat="41.6943700" lon="-0.9531740">
        <ele>201.6</ele>
        <time>2019-01-01T14:10:15Z</time>
      </trkpt>
      <trkpt lat="41.6943280" lon="-0.9531460">
        <ele>201.6</ele>
        <time>2019-01-01T14:10:16Z</time>
      </trkpt>
      <trkpt lat="41.6942830" lon="-0.9531180">
        <ele>201.6</ele>
        <time>2019-01-01T14:10:17Z</time>
      </trkpt>
      <trkpt lat="41.6942430" lon="-0.9530790">
        <ele>201.6</ele>
        <time>2019-01-01T14:10:18Z</time>
      </trkpt>
      <trkpt lat="41.6941940" lon="-0.9530410">
        <ele>201.6</ele>
        <time>2019-01-01T14:10:19Z</time>
      </trkpt>
      <trkpt lat="41.6941530" lon="-0.9530190">
        <ele>201.6</ele>
        <time>2019-01-01T14:10:20Z</time>
      </trkpt>
      <trkpt lat="41.6941000" lon="-0.9529810">
        <ele>201.6</ele>
        <time>2019-01-01T14:10:21Z</time>
      </trkpt>
      <trkpt lat="41.6940600" lon="-0.9529360">
        <ele>201.6</ele>
        <time>2019-01-01T14:10:22Z</time>
      </trkpt>
      <trkpt lat="41.6940130" lon="-0.9528970">
        <ele>201.6</ele>
        <time>2019-01-01T14:10:23Z</time>
      </trkpt>
      <trkpt lat="41.6939660" lon="-0.9528630">
        <ele>201.6</ele>
        <time>2019-01-01T14:10:24Z</time>
      </trkpt>
      <trkpt lat="41.6939200" lon="-0.9528250">
        <ele>201.6</ele>
        <time>2019-01-01T14:10:25Z</time>
      </trkpt>
      <trkpt lat="41.6938770" lon="-0.9527880">
        <ele>201.6</ele>
        <time>2019-01-01T14:10:26Z</time>
      </trkpt>
      <trkpt lat="41.6938340" lon="-0.9527430">
        <ele>201.6</ele>
        <time>2019-01-01T14:10:27Z</time>
      </trkpt>
      <trkpt lat="41.6938020" lon="-0.9527070">
        <ele>201.6</ele>
        <time>2019-01-01T14:10:28Z</time>
      </trkpt>
      <trkpt lat="41.6937610" lon="-0.9526680">
        <ele>201.6</ele>
        <time>2019-01-01T14:10:29Z</time>
      </trkpt>
      <trkpt lat="41.6937200" lon="-0.9526300">
        <ele>201.6</ele>
        <time>2019-01-01T14:10:30Z</time>
      </trkpt>
      <trkpt lat="41.6936770" lon="-0.9525970">
        <ele>201.6</ele>
        <time>2019-01-01T14:10:31Z</time>
      </trkpt>
      <trkpt lat="41.6936360" lon="-0.9525560">
        <ele>201.6</ele>
        <time>2019-01-01T14:10:32Z</time>
      </trkpt>
      <trkpt lat="41.6935930" lon="-0.9525050">
        <ele>201.6</ele>
        <time>2019-01-01T14:10:33Z</time>
      </trkpt>
      <trkpt lat="41.6935500" lon="-0.9524710">
        <ele>201.6</ele>
        <time>2019-01-01T14:10:34Z</time>
      </trkpt>
      <trkpt lat="41.6935060" lon="-0.9524330">
        <ele>201.6</ele>
        <time>2019-01-01T14:10:35Z</time>
      </trkpt>
      <trkpt lat="41.6934610" lon="-0.9523950">
        <ele>201.6</ele>
        <time>2019-01-01T14:10:36Z</time>
      </trkpt>
      <trkpt lat="41.6934200" lon="-0.9523710">
        <ele>201.6</ele>
        <time>2019-01-01T14:10:37Z</time>
      </trkpt>
      <trkpt lat="41.6933760" lon="-0.9523380">
        <ele>201.6</ele>
        <time>2019-01-01T14:10:38Z</time>
      </trkpt>
      <trkpt lat="41.6933380" lon="-0.9522950">
        <ele>201.6</ele>
        <time>2019-01-01T14:10:39Z</time>
      </trkpt>
      <trkpt lat="41.6932940" lon="-0.9522550">
        <ele>201.6</ele>
        <time>2019-01-01T14:10:40Z</time>
      </trkpt>
      <trkpt lat="41.6932530" lon="-0.9522040">
        <ele>201.6</ele>
        <time>2019-01-01T14:10:41Z</time>
      </trkpt>
      <trkpt lat="41.6932170" lon="-0.9521550">
        <ele>201.6</ele>
        <time>2019-01-01T14:10:42Z</time>
      </trkpt>
      <trkpt lat="41.6931800" lon="-0.9521080">
        <ele>201.6</ele>
        <time>2019-01-01T14:10:43Z</time>
      </trkpt>
      <trkpt lat="41.6931430" lon="-0.9520640">
        <ele>201.6</ele>
        <time>2019-01-01T14:10:44Z</time>
      </trkpt>
      <trkpt lat="41.6931060" lon="-0.9520200">
        <ele>201.6</ele>
        <time>2019-01-01T14:10:45Z</time>
      </trkpt>
      <trkpt lat="41.6930740" lon="-0.9519770">
        <ele>201.6</ele>
        <time>2019-01-01T14:10:46Z</time>
      </trkpt>
      <trkpt lat="41.6930350" lon="-0.9519330">
        <ele>201.6</ele>
        <time>2019-01-01T14:10:47Z</time>
      </trkpt>
      <trkpt lat="41.6929940" lon="-0.9518960">
        <ele>201.6</ele>
        <time>2019-01-01T14:10:48Z</time>
      </trkpt>
      <trkpt lat="41.6929550" lon="-0.9518500">
        <ele>201.6</ele>
        <time>2019-01-01T14:10:49Z</time>
      </trkpt>
      <trkpt lat="41.6929200" lon="-0.9518090">
        <ele>201.6</ele>
        <time>2019-01-01T14:10:50Z</time>
      </trkpt>
      <trkpt lat="41.6928800" lon="-0.9517620">
        <ele>201.6</ele>
        <time>2019-01-01T14:10:51Z</time>
      </trkpt>
      <trkpt lat="41.6928440" lon="-0.9517190">
        <ele>201.6</ele>
        <time>2019-01-01T14:10:52Z</time>
      </trkpt>
      <trkpt lat="41.6928120" lon="-0.9516720">
        <ele>201.6</ele>
        <time>2019-01-01T14:10:53Z</time>
      </trkpt>
      <trkpt lat="41.6927740" lon="-0.9516280">
        <ele>201.6</ele>
        <time>2019-01-01T14:10:54Z</time>
      </trkpt>
      <trkpt lat="41.6927370" lon="-0.9515900">
        <ele>201.6</ele>
        <time>2019-01-01T14:10:55Z</time>
      </trkpt>
      <trkpt lat="41.6927050" lon="-0.9515510">
        <ele>201.6</ele>
        <time>2019-01-01T14:10:56Z</time>
      </trkpt>
      <trkpt lat="41.6926640" lon="-0.9515130">
        <ele>201.6</ele>
        <time>2019-01-01T14:10:57Z</time>
      </trkpt>
      <trkpt lat="41.6926280" lon="-0.9514630">
        <ele>201.6</ele>
        <time>2019-01-01T14:10:58Z</time>
      </trkpt>
      <trkpt lat="41.6925970" lon="-0.9514150">
        <ele>201.6</ele>
        <time>2019-01-01T14:10:59Z</time>
      </trkpt>
      <trkpt lat="41.6925580" lon="-0.9513640">
        <ele>201.6</ele>
        <time>2019-01-01T14:11:00Z</time>
      </trkpt>
      <trkpt lat="41.6925280" lon="-0.9513110">
        <ele>201.6</ele>
        <time>2019-01-01T14:11:01Z</time>
      </trkpt>
      <trkpt lat="41.6925010" lon="-0.9512700">
        <ele>201.5</ele>
        <time>2019-01-01T14:11:02Z</time>
      </trkpt>
      <trkpt lat="41.6924730" lon="-0.9512230">
        <ele>201.5</ele>
        <time>2019-01-01T14:11:03Z</time>
      </trkpt>
      <trkpt lat="41.6924480" lon="-0.9511650">
        <ele>201.4</ele>
        <time>2019-01-01T14:11:04Z</time>
      </trkpt>
      <trkpt lat="41.6924240" lon="-0.9511110">
        <ele>201.4</ele>
        <time>2019-01-01T14:11:05Z</time>
      </trkpt>
      <trkpt lat="41.6923990" lon="-0.9510520">
        <ele>201.3</ele>
        <time>2019-01-01T14:11:06Z</time>
      </trkpt>
      <trkpt lat="41.6923720" lon="-0.9509980">
        <ele>201.2</ele>
        <time>2019-01-01T14:11:07Z</time>
      </trkpt>
      <trkpt lat="41.6923520" lon="-0.9509410">
        <ele>201.1</ele>
        <time>2019-01-01T14:11:08Z</time>
      </trkpt>
      <trkpt lat="41.6923300" lon="-0.9508720">
        <ele>201.0</ele>
        <time>2019-01-01T14:11:09Z</time>
      </trkpt>
      <trkpt lat="41.6923080" lon="-0.9508060">
        <ele>200.8</ele>
        <time>2019-01-01T14:11:10Z</time>
      </trkpt>
      <trkpt lat="41.6922860" lon="-0.9507420">
        <ele>200.7</ele>
        <time>2019-01-01T14:11:11Z</time>
      </trkpt>
      <trkpt lat="41.6922670" lon="-0.9506800">
        <ele>200.7</ele>
        <time>2019-01-01T14:11:12Z</time>
      </trkpt>
      <trkpt lat="41.6922460" lon="-0.9506130">
        <ele>200.6</ele>
        <time>2019-01-01T14:11:13Z</time>
      </trkpt>
      <trkpt lat="41.6922290" lon="-0.9505590">
        <ele>200.6</ele>
        <time>2019-01-01T14:11:14Z</time>
      </trkpt>
      <trkpt lat="41.6922060" lon="-0.9504900">
        <ele>200.5</ele>
        <time>2019-01-01T14:11:15Z</time>
      </trkpt>
      <trkpt lat="41.6921830" lon="-0.9504310">
        <ele>200.5</ele>
        <time>2019-01-01T14:11:16Z</time>
      </trkpt>
      <trkpt lat="41.6921620" lon="-0.9503460">
        <ele>200.5</ele>
        <time>2019-01-01T14:11:17Z</time>
      </trkpt>
      <trkpt lat="41.6921430" lon="-0.9502870">
        <ele>200.5</ele>
        <time>2019-01-01T14:11:18Z</time>
      </trkpt>
      <trkpt lat="41.6921210" lon="-0.9502220">
        <ele>200.5</ele>
        <time>2019-01-01T14:11:19Z</time>
      </trkpt>
      <trkpt lat="41.6921040" lon="-0.9501430">
        <ele>200.4</ele>
        <time>2019-01-01T14:11:20Z</time>
      </trkpt>
      <trkpt lat="41.6920840" lon="-0.9500970">
        <ele>200.4</ele>
        <time>2019-01-01T14:11:21Z</time>
      </trkpt>
      <trkpt lat="41.6920650" lon="-0.9500550">
        <ele>200.3</ele>
        <time>2019-01-01T14:11:22Z</time>
      </trkpt>
      <trkpt lat="41.6920410" lon="-0.9499900">
        <ele>200.2</ele>
        <time>2019-01-01T14:11:23Z</time>
      </trkpt>
      <trkpt lat="41.6920260" lon="-0.9499350">
        <ele>200.1</ele>
        <time>2019-01-01T14:11:24Z</time>
      </trkpt>
      <trkpt lat="41.6920150" lon="-0.9498740">
        <ele>200.0</ele>
        <time>2019-01-01T14:11:25Z</time>
      </trkpt>
      <trkpt lat="41.6920020" lon="-0.9498170">
        <ele>199.9</ele>
        <time>2019-01-01T14:11:26Z</time>
      </trkpt>
      <trkpt lat="41.6919850" lon="-0.9497470">
        <ele>199.8</ele>
        <time>2019-01-01T14:11:27Z</time>
      </trkpt>
      <trkpt lat="41.6919600" lon="-0.9496990">
        <ele>199.8</ele>
        <time>2019-01-01T14:11:28Z</time>
      </trkpt>
      <trkpt lat="41.6919450" lon="-0.9496370">
        <ele>199.7</ele>
        <time>2019-01-01T14:11:29Z</time>
      </trkpt>
      <trkpt lat="41.6919360" lon="-0.9495840">
        <ele>199.6</ele>
        <time>2019-01-01T14:11:30Z</time>
      </trkpt>
      <trkpt lat="41.6919180" lon="-0.9495250">
        <ele>199.6</ele>
        <time>2019-01-01T14:11:31Z</time>
      </trkpt>
      <trkpt lat="41.6919000" lon="-0.9494640">
        <ele>199.5</ele>
        <time>2019-01-01T14:11:32Z</time>
      </trkpt>
      <trkpt lat="41.6918790" lon="-0.9494090">
        <ele>199.4</ele>
        <time>2019-01-01T14:11:33Z</time>
      </trkpt>
      <trkpt lat="41.6918560" lon="-0.9493360">
        <ele>199.4</ele>
        <time>2019-01-01T14:11:34Z</time>
      </trkpt>
      <trkpt lat="41.6918300" lon="-0.9492720">
        <ele>199.3</ele>
        <time>2019-01-01T14:11:35Z</time>
      </trkpt>
      <trkpt lat="41.6918080" lon="-0.9492070">
        <ele>199.3</ele>
        <time>2019-01-01T14:11:36Z</time>
      </trkpt>
      <trkpt lat="41.6917820" lon="-0.9491440">
        <ele>199.3</ele>
        <time>2019-01-01T14:11:37Z</time>
      </trkpt>
      <trkpt lat="41.6917650" lon="-0.9490880">
        <ele>199.2</ele>
        <time>2019-01-01T14:11:38Z</time>
      </trkpt>
      <trkpt lat="41.6917400" lon="-0.9490350">
        <ele>199.2</ele>
        <time>2019-01-01T14:11:39Z</time>
      </trkpt>
      <trkpt lat="41.6917160" lon="-0.9489760">
        <ele>199.2</ele>
        <time>2019-01-01T14:11:40Z</time>
      </trkpt>
      <trkpt lat="41.6917000" lon="-0.9489210">
        <ele>199.2</ele>
        <time>2019-01-01T14:11:41Z</time>
      </trkpt>
      <trkpt lat="41.6916810" lon="-0.9488660">
        <ele>199.2</ele>
        <time>2019-01-01T14:11:42Z</time>
      </trkpt>
      <trkpt lat="41.6916570" lon="-0.9488240">
        <ele>199.1</ele>
        <time>2019-01-01T14:11:43Z</time>
      </trkpt>
      <trkpt lat="41.6916320" lon="-0.9487790">
        <ele>199.1</ele>
        <time>2019-01-01T14:11:44Z</time>
      </trkpt>
      <trkpt lat="41.6916140" lon="-0.9487140">
        <ele>199.1</ele>
        <time>2019-01-01T14:11:45Z</time>
      </trkpt>
      <trkpt lat="41.6915800" lon="-0.9486630">
        <ele>199.1</ele>
        <time>2019-01-01T14:11:46Z</time>
      </trkpt>
      <trkpt lat="41.6915530" lon="-0.9486030">
        <ele>199.1</ele>
        <time>2019-01-01T14:11:47Z</time>
      </trkpt>
      <trkpt lat="41.6915270" lon="-0.9485470">
        <ele>199.1</ele>
        <time>2019-01-01T14:11:48Z</time>
      </trkpt>
      <trkpt lat="41.6915080" lon="-0.9484960">
        <ele>199.1</ele>
        <time>2019-01-01T14:11:49Z</time>
      </trkpt>
      <trkpt lat="41.6914800" lon="-0.9484440">
        <ele>199.1</ele>
        <time>2019-01-01T14:11:50Z</time>
      </trkpt>
      <trkpt lat="41.6914570" lon="-0.9483860">
        <ele>199.1</ele>
        <time>2019-01-01T14:11:51Z</time>
      </trkpt>
      <trkpt lat="41.6914340" lon="-0.9483220">
        <ele>199.1</ele>
        <time>2019-01-01T14:11:52Z</time>
      </trkpt>
      <trkpt lat="41.6914060" lon="-0.9482660">
        <ele>199.1</ele>
        <time>2019-01-01T14:11:53Z</time>
      </trkpt>
      <trkpt lat="41.6913820" lon="-0.9481980">
        <ele>199.1</ele>
        <time>2019-01-01T14:11:54Z</time>
      </trkpt>
      <trkpt lat="41.6913560" lon="-0.9481380">
        <ele>199.0</ele>
        <time>2019-01-01T14:11:55Z</time>
      </trkpt>
      <trkpt lat="41.6913300" lon="-0.9480880">
        <ele>199.0</ele>
        <time>2019-01-01T14:11:56Z</time>
      </trkpt>
      <trkpt lat="41.6913100" lon="-0.9480140">
        <ele>199.0</ele>
        <time>2019-01-01T14:11:57Z</time>
      </trkpt>
      <trkpt lat="41.6912910" lon="-0.9479580">
        <ele>199.0</ele>
        <time>2019-01-01T14:11:58Z</time>
      </trkpt>
      <trkpt lat="41.6912650" lon="-0.9479060">
        <ele>199.0</ele>
        <time>2019-01-01T14:11:59Z</time>
      </trkpt>
      <trkpt lat="41.6912310" lon="-0.9478410">
        <ele>199.0</ele>
        <time>2019-01-01T14:12:00Z</time>
      </trkpt>
      <trkpt lat="41.6912100" lon="-0.9477730">
        <ele>199.0</ele>
        <time>2019-01-01T14:12:01Z</time>
      </trkpt>
      <trkpt lat="41.6911920" lon="-0.9477090">
        <ele>198.9</ele>
        <time>2019-01-01T14:12:02Z</time>
      </trkpt>
      <trkpt lat="41.6911800" lon="-0.9476580">
        <ele>198.9</ele>
        <time>2019-01-01T14:12:03Z</time>
      </trkpt>
      <trkpt lat="41.6911620" lon="-0.9475900">
        <ele>198.9</ele>
        <time>2019-01-01T14:12:04Z</time>
      </trkpt>
      <trkpt lat="41.6911480" lon="-0.9475300">
        <ele>198.9</ele>
        <time>2019-01-01T14:12:05Z</time>
      </trkpt>
      <trkpt lat="41.6911440" lon="-0.9474610">
        <ele>198.9</ele>
        <time>2019-01-01T14:12:06Z</time>
      </trkpt>
      <trkpt lat="41.6911420" lon="-0.9473920">
        <ele>198.9</ele>
        <time>2019-01-01T14:12:07Z</time>
      </trkpt>
      <trkpt lat="41.6911390" lon="-0.9473260">
        <ele>199.0</ele>
        <time>2019-01-01T14:12:08Z</time>
      </trkpt>
      <trkpt lat="41.6911440" lon="-0.9472490">
        <ele>199.0</ele>
        <time>2019-01-01T14:12:09Z</time>
      </trkpt>
      <trkpt lat="41.6911490" lon="-0.9471930">
        <ele>199.0</ele>
        <time>2019-01-01T14:12:10Z</time>
      </trkpt>
      <trkpt lat="41.6911550" lon="-0.9471130">
        <ele>199.0</ele>
        <time>2019-01-01T14:12:11Z</time>
      </trkpt>
      <trkpt lat="41.6911470" lon="-0.9470570">
        <ele>199.1</ele>
        <time>2019-01-01T14:12:12Z</time>
      </trkpt>
      <trkpt lat="41.6911500" lon="-0.9469820">
        <ele>199.1</ele>
        <time>2019-01-01T14:12:13Z</time>
      </trkpt>
      <trkpt lat="41.6911450" lon="-0.9469250">
        <ele>199.1</ele>
        <time>2019-01-01T14:12:14Z</time>
      </trkpt>
      <trkpt lat="41.6911410" lon="-0.9468560">
        <ele>199.2</ele>
        <time>2019-01-01T14:12:15Z</time>
      </trkpt>
      <trkpt lat="41.6911380" lon="-0.9468050">
        <ele>199.3</ele>
        <time>2019-01-01T14:12:16Z</time>
      </trkpt>
      <trkpt lat="41.6911260" lon="-0.9467240">
        <ele>199.4</ele>
        <time>2019-01-01T14:12:17Z</time>
      </trkpt>
      <trkpt lat="41.6911110" lon="-0.9466730">
        <ele>199.4</ele>
        <time>2019-01-01T14:12:18Z</time>
      </trkpt>
      <trkpt lat="41.6910950" lon="-0.9466190">
        <ele>199.5</ele>
        <time>2019-01-01T14:12:19Z</time>
      </trkpt>
      <trkpt lat="41.6910710" lon="-0.9465770">
        <ele>199.6</ele>
        <time>2019-01-01T14:12:20Z</time>
      </trkpt>
      <trkpt lat="41.6910540" lon="-0.9465200">
        <ele>199.7</ele>
        <time>2019-01-01T14:12:21Z</time>
      </trkpt>
      <trkpt lat="41.6910380" lon="-0.9464530">
        <ele>199.7</ele>
        <time>2019-01-01T14:12:22Z</time>
      </trkpt>
      <trkpt lat="41.6910200" lon="-0.9464190">
        <ele>199.8</ele>
        <time>2019-01-01T14:12:23Z</time>
      </trkpt>
      <trkpt lat="41.6909880" lon="-0.9463380">
        <ele>199.9</ele>
        <time>2019-01-01T14:12:24Z</time>
      </trkpt>
      <trkpt lat="41.6909580" lon="-0.9462400">
        <ele>200.0</ele>
        <time>2019-01-01T14:12:25Z</time>
      </trkpt>
      <trkpt lat="41.6909360" lon="-0.9461960">
        <ele>200.0</ele>
        <time>2019-01-01T14:12:26Z</time>
      </trkpt>
      <trkpt lat="41.6909130" lon="-0.9461620">
        <ele>200.0</ele>
        <time>2019-01-01T14:12:27Z</time>
      </trkpt>
      <trkpt lat="41.6908790" lon="-0.9460580">
        <ele>200.0</ele>
        <time>2019-01-01T14:12:28Z</time>
      </trkpt>
      <trkpt lat="41.6908480" lon="-0.9460300">
        <ele>200.0</ele>
        <time>2019-01-01T14:12:29Z</time>
      </trkpt>
      <trkpt lat="41.6908230" lon="-0.9459810">
        <ele>200.0</ele>
        <time>2019-01-01T14:12:30Z</time>
      </trkpt>
      <trkpt lat="41.6907970" lon="-0.9459340">
        <ele>200.0</ele>
        <time>2019-01-01T14:12:31Z</time>
      </trkpt>
      <trkpt lat="41.6907780" lon="-0.9458930">
        <ele>200.0</ele>
        <time>2019-01-01T14:12:32Z</time>
      </trkpt>
      <trkpt lat="41.6907580" lon="-0.9458560">
        <ele>199.9</ele>
        <time>2019-01-01T14:12:33Z</time>
      </trkpt>
      <trkpt lat="41.6907360" lon="-0.9458020">
        <ele>199.9</ele>
        <time>2019-01-01T14:12:34Z</time>
      </trkpt>
      <trkpt lat="41.6907180" lon="-0.9457740">
        <ele>199.9</ele>
        <time>2019-01-01T14:12:35Z</time>
      </trkpt>
      <trkpt lat="41.6906970" lon="-0.9457240">
        <ele>199.8</ele>
        <time>2019-01-01T14:12:36Z</time>
      </trkpt>
      <trkpt lat="41.6906690" lon="-0.9456750">
        <ele>199.8</ele>
        <time>2019-01-01T14:12:37Z</time>
      </trkpt>
      <trkpt lat="41.6906440" lon="-0.9456340">
        <ele>199.7</ele>
        <time>2019-01-01T14:12:38Z</time>
      </trkpt>
      <trkpt lat="41.6906130" lon="-0.9455880">
        <ele>199.7</ele>
        <time>2019-01-01T14:12:39Z</time>
      </trkpt>
      <trkpt lat="41.6905910" lon="-0.9455380">
        <ele>199.7</ele>
        <time>2019-01-01T14:12:40Z</time>
      </trkpt>
      <trkpt lat="41.6905650" lon="-0.9454960">
        <ele>199.6</ele>
        <time>2019-01-01T14:12:41Z</time>
      </trkpt>
      <trkpt lat="41.6905380" lon="-0.9454550">
        <ele>199.6</ele>
        <time>2019-01-01T14:12:42Z</time>
      </trkpt>
      <trkpt lat="41.6905090" lon="-0.9454110">
        <ele>199.6</ele>
        <time>2019-01-01T14:12:43Z</time>
      </trkpt>
      <trkpt lat="41.6904800" lon="-0.9453670">
        <ele>199.6</ele>
        <time>2019-01-01T14:12:44Z</time>
      </trkpt>
      <trkpt lat="41.6904500" lon="-0.9453230">
        <ele>199.6</ele>
        <time>2019-01-01T14:12:45Z</time>
      </trkpt>
      <trkpt lat="41.6904200" lon="-0.9452810">
        <ele>199.6</ele>
        <time>2019-01-01T14:12:46Z</time>
      </trkpt>
      <trkpt lat="41.6903900" lon="-0.9452400">
        <ele>199.6</ele>
        <time>2019-01-01T14:12:47Z</time>
      </trkpt>
      <trkpt lat="41.6903590" lon="-0.9451970">
        <ele>199.6</ele>
        <time>2019-01-01T14:12:48Z</time>
      </trkpt>
      <trkpt lat="41.6903220" lon="-0.9451510">
        <ele>199.7</ele>
        <time>2019-01-01T14:12:49Z</time>
      </trkpt>
      <trkpt lat="41.6902960" lon="-0.9451200">
        <ele>199.7</ele>
        <time>2019-01-01T14:12:50Z</time>
      </trkpt>
      <trkpt lat="41.6902640" lon="-0.9450780">
        <ele>199.8</ele>
        <time>2019-01-01T14:12:51Z</time>
      </trkpt>
      <trkpt lat="41.6902290" lon="-0.9450310">
        <ele>199.8</ele>
        <time>2019-01-01T14:12:52Z</time>
      </trkpt>
      <trkpt lat="41.6901910" lon="-0.9449940">
        <ele>199.9</ele>
        <time>2019-01-01T14:12:53Z</time>
      </trkpt>
      <trkpt lat="41.6901530" lon="-0.9449530">
        <ele>199.9</ele>
        <time>2019-01-01T14:12:54Z</time>
      </trkpt>
      <trkpt lat="41.6901200" lon="-0.9449040">
        <ele>200.0</ele>
        <time>2019-01-01T14:12:55Z</time>
      </trkpt>
      <trkpt lat="41.6900890" lon="-0.9448560">
        <ele>200.0</ele>
        <time>2019-01-01T14:12:56Z</time>
      </trkpt>
      <trkpt lat="41.6900510" lon="-0.9448120">
        <ele>200.1</ele>
        <time>2019-01-01T14:12:57Z</time>
      </trkpt>
      <trkpt lat="41.6900140" lon="-0.9447620">
        <ele>200.1</ele>
        <time>2019-01-01T14:12:58Z</time>
      </trkpt>
      <trkpt lat="41.6899770" lon="-0.9447100">
        <ele>200.2</ele>
        <time>2019-01-01T14:12:59Z</time>
      </trkpt>
      <trkpt lat="41.6899410" lon="-0.9446620">
        <ele>200.2</ele>
        <time>2019-01-01T14:13:00Z</time>
      </trkpt>
      <trkpt lat="41.6899090" lon="-0.9446170">
        <ele>200.3</ele>
        <time>2019-01-01T14:13:01Z</time>
      </trkpt>
      <trkpt lat="41.6898810" lon="-0.9445750">
        <ele>200.3</ele>
        <time>2019-01-01T14:13:02Z</time>
      </trkpt>
      <trkpt lat="41.6898390" lon="-0.9445400">
        <ele>200.2</ele>
        <time>2019-01-01T14:13:03Z</time>
      </trkpt>
      <trkpt lat="41.6898030" lon="-0.9445060">
        <ele>200.2</ele>
        <time>2019-01-01T14:13:04Z</time>
      </trkpt>
      <trkpt lat="41.6897730" lon="-0.9444720">
        <ele>200.2</ele>
        <time>2019-01-01T14:13:05Z</time>
      </trkpt>
      <trkpt lat="41.6897350" lon="-0.9444190">
        <ele>200.2</ele>
        <time>2019-01-01T14:13:06Z</time>
      </trkpt>
      <trkpt lat="41.6897020" lon="-0.9443640">
        <ele>200.1</ele>
        <time>2019-01-01T14:13:07Z</time>
      </trkpt>
      <trkpt lat="41.6896630" lon="-0.9443190">
        <ele>200.1</ele>
        <time>2019-01-01T14:13:08Z</time>
      </trkpt>
      <trkpt lat="41.6896210" lon="-0.9442780">
        <ele>200.1</ele>
        <time>2019-01-01T14:13:09Z</time>
      </trkpt>
      <trkpt lat="41.6895830" lon="-0.9442330">
        <ele>200.1</ele>
        <time>2019-01-01T14:13:10Z</time>
      </trkpt>
      <trkpt lat="41.6895420" lon="-0.9441820">
        <ele>200.0</ele>
        <time>2019-01-01T14:13:11Z</time>
      </trkpt>
      <trkpt lat="41.6895010" lon="-0.9441380">
        <ele>200.0</ele>
        <time>2019-01-01T14:13:12Z</time>
      </trkpt>
      <trkpt lat="41.6894650" lon="-0.9440860">
        <ele>200.0</ele>
        <time>2019-01-01T14:13:13Z</time>
      </trkpt>
      <trkpt lat="41.6894260" lon="-0.9440420">
        <ele>199.9</ele>
        <time>2019-01-01T14:13:14Z</time>
      </trkpt>
      <trkpt lat="41.6893880" lon="-0.9440070">
        <ele>199.9</ele>
        <time>2019-01-01T14:13:15Z</time>
      </trkpt>
      <trkpt lat="41.6893490" lon="-0.9439550">
        <ele>199.9</ele>
        <time>2019-01-01T14:13:16Z</time>
      </trkpt>
      <trkpt lat="41.6893170" lon="-0.9439030">
        <ele>199.8</ele>
        <time>2019-01-01T14:13:17Z</time>
      </trkpt>
      <trkpt lat="41.6892860" lon="-0.9438640">
        <ele>199.8</ele>
        <time>2019-01-01T14:13:18Z</time>
      </trkpt>
      <trkpt lat="41.6892410" lon="-0.9438300">
        <ele>199.8</ele>
        <time>2019-01-01T14:13:19Z</time>
      </trkpt>
      <trkpt lat="41.6892010" lon="-0.9438000">
        <ele>199.7</ele>
        <time>2019-01-01T14:13:20Z</time>
      </trkpt>
      <trkpt lat="41.6891630" lon="-0.9437470">
        <ele>199.7</ele>
        <time>2019-01-01T14:13:21Z</time>
      </trkpt>
      <trkpt lat="41.6891180" lon="-0.9437180">
        <ele>199.7</ele>
        <time>2019-01-01T14:13:22Z</time>
      </trkpt>
      <trkpt lat="41.6890840" lon="-0.9436780">
        <ele>199.6</ele>
        <time>2019-01-01T14:13:23Z</time>
      </trkpt>
      <trkpt lat="41.6890430" lon="-0.9436280">
        <ele>199.6</ele>
        <time>2019-01-01T14:13:24Z</time>
      </trkpt>
      <trkpt lat="41.6890090" lon="-0.9435790">
        <ele>199.6</ele>
        <time>2019-01-01T14:13:25Z</time>
      </trkpt>
      <trkpt lat="41.6889760" lon="-0.9435260">
        <ele>199.6</ele>
        <time>2019-01-01T14:13:26Z</time>
      </trkpt>
      <trkpt lat="41.6889390" lon="-0.9434720">
        <ele>199.5</ele>
        <time>2019-01-01T14:13:27Z</time>
      </trkpt>
      <trkpt lat="41.6889070" lon="-0.9434180">
        <ele>199.5</ele>
        <time>2019-01-01T14:13:28Z</time>
      </trkpt>
      <trkpt lat="41.6888710" lon="-0.9433580">
        <ele>199.5</ele>
        <time>2019-01-01T14:13:29Z</time>
      </trkpt>
      <trkpt lat="41.6888370" lon="-0.9433040">
        <ele>199.5</ele>
        <time>2019-01-01T14:13:30Z</time>
      </trkpt>
      <trkpt lat="41.6887970" lon="-0.9432440">
        <ele>199.4</ele>
        <time>2019-01-01T14:13:31Z</time>
      </trkpt>
      <trkpt lat="41.6887700" lon="-0.9431990">
        <ele>199.4</ele>
        <time>2019-01-01T14:13:32Z</time>
      </trkpt>
      <trkpt lat="41.6887440" lon="-0.9431320">
        <ele>199.4</ele>
        <time>2019-01-01T14:13:33Z</time>
      </trkpt>
      <trkpt lat="41.6887110" lon="-0.9430770">
        <ele>199.4</ele>
        <time>2019-01-01T14:13:34Z</time>
      </trkpt>
      <trkpt lat="41.6886820" lon="-0.9430180">
        <ele>199.4</ele>
        <time>2019-01-01T14:13:35Z</time>
      </trkpt>
      <trkpt lat="41.6886440" lon="-0.9429630">
        <ele>199.4</ele>
        <time>2019-01-01T14:13:36Z</time>
      </trkpt>
      <trkpt lat="41.6886070" lon="-0.9429130">
        <ele>199.3</ele>
        <time>2019-01-01T14:13:37Z</time>
      </trkpt>
      <trkpt lat="41.6885680" lon="-0.9428690">
        <ele>199.3</ele>
        <time>2019-01-01T14:13:38Z</time>
      </trkpt>
      <trkpt lat="41.6885190" lon="-0.9428300">
        <ele>199.3</ele>
        <time>2019-01-01T14:13:39Z</time>
      </trkpt>
      <trkpt lat="41.6884780" lon="-0.9427770">
        <ele>199.3</ele>
        <time>2019-01-01T14:13:40Z</time>
      </trkpt>
      <trkpt lat="41.6884470" lon="-0.9427370">
        <ele>199.3</ele>
        <time>2019-01-01T14:13:41Z</time>
      </trkpt>
      <trkpt lat="41.6884040" lon="-0.9426930">
        <ele>199.3</ele>
        <time>2019-01-01T14:13:42Z</time>
      </trkpt>
      <trkpt lat="41.6883620" lon="-0.9426420">
        <ele>199.3</ele>
        <time>2019-01-01T14:13:43Z</time>
      </trkpt>
      <trkpt lat="41.6883210" lon="-0.9425960">
        <ele>199.3</ele>
        <time>2019-01-01T14:13:44Z</time>
      </trkpt>
      <trkpt lat="41.6882820" lon="-0.9425520">
        <ele>199.3</ele>
        <time>2019-01-01T14:13:45Z</time>
      </trkpt>
      <trkpt lat="41.6882390" lon="-0.9425220">
        <ele>199.3</ele>
        <time>2019-01-01T14:13:46Z</time>
      </trkpt>
      <trkpt lat="41.6881870" lon="-0.9424870">
        <ele>199.3</ele>
        <time>2019-01-01T14:13:47Z</time>
      </trkpt>
      <trkpt lat="41.6881680" lon="-0.9424420">
        <ele>199.3</ele>
        <time>2019-01-01T14:13:48Z</time>
      </trkpt>
      <trkpt lat="41.6881260" lon="-0.9423940">
        <ele>199.3</ele>
        <time>2019-01-01T14:13:49Z</time>
      </trkpt>
      <trkpt lat="41.6880700" lon="-0.9423550">
        <ele>199.3</ele>
        <time>2019-01-01T14:13:50Z</time>
      </trkpt>
      <trkpt lat="41.6880320" lon="-0.9423130">
        <ele>199.4</ele>
        <time>2019-01-01T14:13:51Z</time>
      </trkpt>
      <trkpt lat="41.6879890" lon="-0.9422740">
        <ele>199.4</ele>
        <time>2019-01-01T14:13:52Z</time>
      </trkpt>
      <trkpt lat="41.6879360" lon="-0.9422380">
        <ele>199.4</ele>
        <time>2019-01-01T14:13:53Z</time>
      </trkpt>
      <trkpt lat="41.6879010" lon="-0.9421870">
        <ele>199.4</ele>
        <time>2019-01-01T14:13:54Z</time>
      </trkpt>
      <trkpt lat="41.6878410" lon="-0.9421370">
        <ele>199.4</ele>
        <time>2019-01-01T14:13:55Z</time>
      </trkpt>
      <trkpt lat="41.6877970" lon="-0.9420940">
        <ele>199.5</ele>
        <time>2019-01-01T14:13:56Z</time>
      </trkpt>
      <trkpt lat="41.6877630" lon="-0.9420360">
        <ele>199.5</ele>
        <time>2019-01-01T14:13:57Z</time>
      </trkpt>
      <trkpt lat="41.6877280" lon="-0.9419770">
        <ele>199.5</ele>
        <time>2019-01-01T14:13:58Z</time>
      </trkpt>
      <trkpt lat="41.6876860" lon="-0.9419140">
        <ele>199.5</ele>
        <time>2019-01-01T14:13:59Z</time>
      </trkpt>
      <trkpt lat="41.6876480" lon="-0.9418590">
        <ele>199.5</ele>
        <time>2019-01-01T14:14:00Z</time>
      </trkpt>
      <trkpt lat="41.6876120" lon="-0.9418030">
        <ele>199.5</ele>
        <time>2019-01-01T14:14:01Z</time>
      </trkpt>
      <trkpt lat="41.6875690" lon="-0.9417590">
        <ele>199.5</ele>
        <time>2019-01-01T14:14:02Z</time>
      </trkpt>
      <trkpt lat="41.6875320" lon="-0.9417050">
        <ele>199.5</ele>
        <time>2019-01-01T14:14:03Z</time>
      </trkpt>
      <trkpt lat="41.6874960" lon="-0.9416570">
        <ele>199.5</ele>
        <time>2019-01-01T14:14:04Z</time>
      </trkpt>
      <trkpt lat="41.6874570" lon="-0.9416100">
        <ele>199.5</ele>
        <time>2019-01-01T14:14:05Z</time>
      </trkpt>
      <trkpt lat="41.6874280" lon="-0.9415650">
        <ele>199.5</ele>
        <time>2019-01-01T14:14:06Z</time>
      </trkpt>
      <trkpt lat="41.6873970" lon="-0.9415180">
        <ele>199.5</ele>
        <time>2019-01-01T14:14:07Z</time>
      </trkpt>
      <trkpt lat="41.6873530" lon="-0.9414580">
        <ele>199.5</ele>
        <time>2019-01-01T14:14:08Z</time>
      </trkpt>
      <trkpt lat="41.6873150" lon="-0.9414110">
        <ele>199.5</ele>
        <time>2019-01-01T14:14:09Z</time>
      </trkpt>
      <trkpt lat="41.6872840" lon="-0.9413620">
        <ele>199.5</ele>
        <time>2019-01-01T14:14:10Z</time>
      </trkpt>
      <trkpt lat="41.6872490" lon="-0.9413100">
        <ele>199.5</ele>
        <time>2019-01-01T14:14:11Z</time>
      </trkpt>
      <trkpt lat="41.6872150" lon="-0.9412640">
        <ele>199.6</ele>
        <time>2019-01-01T14:14:12Z</time>
      </trkpt>
      <trkpt lat="41.6871780" lon="-0.9412210">
        <ele>199.6</ele>
        <time>2019-01-01T14:14:13Z</time>
      </trkpt>
      <trkpt lat="41.6871360" lon="-0.9411750">
        <ele>199.6</ele>
        <time>2019-01-01T14:14:14Z</time>
      </trkpt>
      <trkpt lat="41.6871010" lon="-0.9411160">
        <ele>199.6</ele>
        <time>2019-01-01T14:14:15Z</time>
      </trkpt>
      <trkpt lat="41.6870640" lon="-0.9410580">
        <ele>199.6</ele>
        <time>2019-01-01T14:14:16Z</time>
      </trkpt>
      <trkpt lat="41.6870280" lon="-0.9410020">
        <ele>199.6</ele>
        <time>2019-01-01T14:14:17Z</time>
      </trkpt>
      <trkpt lat="41.6869930" lon="-0.9409420">
        <ele>199.6</ele>
        <time>2019-01-01T14:14:18Z</time>
      </trkpt>
      <trkpt lat="41.6869590" lon="-0.9408940">
        <ele>199.6</ele>
        <time>2019-01-01T14:14:19Z</time>
      </trkpt>
      <trkpt lat="41.6869320" lon="-0.9408420">
        <ele>199.6</ele>
        <time>2019-01-01T14:14:20Z</time>
      </trkpt>
      <trkpt lat="41.6868970" lon="-0.9407910">
        <ele>199.6</ele>
        <time>2019-01-01T14:14:21Z</time>
      </trkpt>
      <trkpt lat="41.6868670" lon="-0.9407340">
        <ele>199.6</ele>
        <time>2019-01-01T14:14:22Z</time>
      </trkpt>
      <trkpt lat="41.6868400" lon="-0.9406890">
        <ele>199.6</ele>
        <time>2019-01-01T14:14:23Z</time>
      </trkpt>
      <trkpt lat="41.6868080" lon="-0.9406360">
        <ele>199.6</ele>
        <time>2019-01-01T14:14:24Z</time>
      </trkpt>
      <trkpt lat="41.6867770" lon="-0.9405830">
        <ele>199.6</ele>
        <time>2019-01-01T14:14:25Z</time>
      </trkpt>
      <trkpt lat="41.6867500" lon="-0.9405270">
        <ele>199.6</ele>
        <time>2019-01-01T14:14:26Z</time>
      </trkpt>
      <trkpt lat="41.6867280" lon="-0.9404750">
        <ele>199.7</ele>
        <time>2019-01-01T14:14:27Z</time>
      </trkpt>
      <trkpt lat="41.6866990" lon="-0.9404160">
        <ele>199.7</ele>
        <time>2019-01-01T14:14:28Z</time>
      </trkpt>
      <trkpt lat="41.6866700" lon="-0.9403590">
        <ele>199.7</ele>
        <time>2019-01-01T14:14:29Z</time>
      </trkpt>
      <trkpt lat="41.6866440" lon="-0.9403040">
        <ele>199.7</ele>
        <time>2019-01-01T14:14:30Z</time>
      </trkpt>
      <trkpt lat="41.6866200" lon="-0.9402570">
        <ele>199.7</ele>
        <time>2019-01-01T14:14:31Z</time>
      </trkpt>
      <trkpt lat="41.6865940" lon="-0.9402040">
        <ele>199.7</ele>
        <time>2019-01-01T14:14:32Z</time>
      </trkpt>
      <trkpt lat="41.6865680" lon="-0.9401530">
        <ele>199.7</ele>
        <time>2019-01-01T14:14:33Z</time>
      </trkpt>
      <trkpt lat="41.6865500" lon="-0.9400870">
        <ele>199.7</ele>
        <time>2019-01-01T14:14:34Z</time>
      </trkpt>
      <trkpt lat="41.6865200" lon="-0.9400410">
        <ele>199.7</ele>
        <time>2019-01-01T14:14:35Z</time>
      </trkpt>
      <trkpt lat="41.6864950" lon="-0.9399880">
        <ele>199.7</ele>
        <time>2019-01-01T14:14:36Z</time>
      </trkpt>
      <trkpt lat="41.6864570" lon="-0.9399300">
        <ele>199.7</ele>
        <time>2019-01-01T14:14:37Z</time>
      </trkpt>
      <trkpt lat="41.6864310" lon="-0.9398750">
        <ele>199.7</ele>
        <time>2019-01-01T14:14:38Z</time>
      </trkpt>
      <trkpt lat="41.6864070" lon="-0.9398290">
        <ele>199.6</ele>
        <time>2019-01-01T14:14:39Z</time>
      </trkpt>
      <trkpt lat="41.6863780" lon="-0.9397690">
        <ele>199.6</ele>
        <time>2019-01-01T14:14:40Z</time>
      </trkpt>
      <trkpt lat="41.6863500" lon="-0.9397030">
        <ele>199.6</ele>
        <time>2019-01-01T14:14:41Z</time>
      </trkpt>
      <trkpt lat="41.6863250" lon="-0.9396490">
        <ele>199.6</ele>
        <time>2019-01-01T14:14:42Z</time>
      </trkpt>
      <trkpt lat="41.6862960" lon="-0.9395890">
        <ele>199.6</ele>
        <time>2019-01-01T14:14:43Z</time>
      </trkpt>
      <trkpt lat="41.6862610" lon="-0.9395180">
        <ele>199.6</ele>
        <time>2019-01-01T14:14:44Z</time>
      </trkpt>
      <trkpt lat="41.6862300" lon="-0.9394620">
        <ele>199.6</ele>
        <time>2019-01-01T14:14:45Z</time>
      </trkpt>
      <trkpt lat="41.6862050" lon="-0.9394080">
        <ele>199.6</ele>
        <time>2019-01-01T14:14:46Z</time>
      </trkpt>
      <trkpt lat="41.6861840" lon="-0.9393590">
        <ele>199.6</ele>
        <time>2019-01-01T14:14:47Z</time>
      </trkpt>
      <trkpt lat="41.6861570" lon="-0.9393050">
        <ele>199.6</ele>
        <time>2019-01-01T14:14:48Z</time>
      </trkpt>
      <trkpt lat="41.6861390" lon="-0.9392400">
        <ele>199.7</ele>
        <time>2019-01-01T14:14:49Z</time>
      </trkpt>
      <trkpt lat="41.6861150" lon="-0.9391920">
        <ele>199.7</ele>
        <time>2019-01-01T14:14:50Z</time>
      </trkpt>
      <trkpt lat="41.6860900" lon="-0.9391340">
        <ele>199.7</ele>
        <time>2019-01-01T14:14:51Z</time>
      </trkpt>
      <trkpt lat="41.6860640" lon="-0.9390830">
        <ele>199.7</ele>
        <time>2019-01-01T14:14:52Z</time>
      </trkpt>
      <trkpt lat="41.6860460" lon="-0.9390040">
        <ele>199.7</ele>
        <time>2019-01-01T14:14:53Z</time>
      </trkpt>
      <trkpt lat="41.6860250" lon="-0.9389440">
        <ele>199.7</ele>
        <time>2019-01-01T14:14:54Z</time>
      </trkpt>
      <trkpt lat="41.6860010" lon="-0.9388830">
        <ele>199.7</ele>
        <time>2019-01-01T14:14:55Z</time>
      </trkpt>
      <trkpt lat="41.6859830" lon="-0.9388200">
        <ele>199.6</ele>
        <time>2019-01-01T14:14:56Z</time>
      </trkpt>
      <trkpt lat="41.6859600" lon="-0.9387540">
        <ele>199.6</ele>
        <time>2019-01-01T14:14:57Z</time>
      </trkpt>
      <trkpt lat="41.6859410" lon="-0.9386990">
        <ele>199.6</ele>
        <time>2019-01-01T14:14:58Z</time>
      </trkpt>
      <trkpt lat="41.6859150" lon="-0.9386450">
        <ele>199.6</ele>
        <time>2019-01-01T14:14:59Z</time>
      </trkpt>
      <trkpt lat="41.6858930" lon="-0.9385840">
        <ele>199.6</ele>
        <time>2019-01-01T14:15:00Z</time>
      </trkpt>
      <trkpt lat="41.6858690" lon="-0.9385250">
        <ele>199.6</ele>
        <time>2019-01-01T14:15:01Z</time>
      </trkpt>
      <trkpt lat="41.6858470" lon="-0.9384580">
        <ele>199.6</ele>
        <time>2019-01-01T14:15:02Z</time>
      </trkpt>
      <trkpt lat="41.6858250" lon="-0.9384020">
        <ele>199.5</ele>
        <time>2019-01-01T14:15:03Z</time>
      </trkpt>
      <trkpt lat="41.6858090" lon="-0.9383440">
        <ele>199.5</ele>
        <time>2019-01-01T14:15:04Z</time>
      </trkpt>
      <trkpt lat="41.6857930" lon="-0.9382670">
        <ele>199.5</ele>
        <time>2019-01-01T14:15:05Z</time>
      </trkpt>
      <trkpt lat="41.6857660" lon="-0.9382000">
        <ele>199.5</ele>
        <time>2019-01-01T14:15:06Z</time>
      </trkpt>
      <trkpt lat="41.6857430" lon="-0.9381420">
        <ele>199.5</ele>
        <time>2019-01-01T14:15:07Z</time>
      </trkpt>
      <trkpt lat="41.6857180" lon="-0.9380740">
        <ele>199.4</ele>
        <time>2019-01-01T14:15:08Z</time>
      </trkpt>
      <trkpt lat="41.6856940" lon="-0.9380140">
        <ele>199.4</ele>
        <time>2019-01-01T14:15:09Z</time>
      </trkpt>
      <trkpt lat="41.6856700" lon="-0.9379470">
        <ele>199.4</ele>
        <time>2019-01-01T14:15:10Z</time>
      </trkpt>
      <trkpt lat="41.6856380" lon="-0.9378830">
        <ele>199.4</ele>
        <time>2019-01-01T14:15:11Z</time>
      </trkpt>
      <trkpt lat="41.6856110" lon="-0.9378370">
        <ele>199.3</ele>
        <time>2019-01-01T14:15:12Z</time>
      </trkpt>
      <trkpt lat="41.6855780" lon="-0.9377810">
        <ele>199.3</ele>
        <time>2019-01-01T14:15:13Z</time>
      </trkpt>
      <trkpt lat="41.6855510" lon="-0.9377630">
        <ele>199.3</ele>
        <time>2019-01-01T14:15:14Z</time>
      </trkpt>
      <trkpt lat="41.6855340" lon="-0.9377040">
        <ele>199.3</ele>
        <time>2019-01-01T14:15:15Z</time>
      </trkpt>
      <trkpt lat="41.6854830" lon="-0.9376290">
        <ele>199.2</ele>
        <time>2019-01-01T14:15:17Z</time>
      </trkpt>
      <trkpt lat="41.6854570" lon="-0.9375960">
        <ele>199.2</ele>
        <time>2019-01-01T14:15:18Z</time>
      </trkpt>
      <trkpt lat="41.6854550" lon="-0.9375240">
        <ele>199.2</ele>
        <time>2019-01-01T14:15:19Z</time>
      </trkpt>
      <trkpt lat="41.6854220" lon="-0.9374820">
        <ele>199.2</ele>
        <time>2019-01-01T14:15:20Z</time>
      </trkpt>
      <trkpt lat="41.6853880" lon="-0.9374400">
        <ele>199.2</ele>
        <time>2019-01-01T14:15:21Z</time>
      </trkpt>
      <trkpt lat="41.6853670" lon="-0.9373870">
        <ele>199.1</ele>
        <time>2019-01-01T14:15:22Z</time>
      </trkpt>
      <trkpt lat="41.6853460" lon="-0.9373450">
        <ele>199.1</ele>
        <time>2019-01-01T14:15:23Z</time>
      </trkpt>
      <trkpt lat="41.6853150" lon="-0.9372970">
        <ele>199.1</ele>
        <time>2019-01-01T14:15:24Z</time>
      </trkpt>
      <trkpt lat="41.6852870" lon="-0.9372410">
        <ele>199.1</ele>
        <time>2019-01-01T14:15:25Z</time>
      </trkpt>
      <trkpt lat="41.6852620" lon="-0.9372060">
        <ele>199.0</ele>
        <time>2019-01-01T14:15:26Z</time>
      </trkpt>
      <trkpt lat="41.6852310" lon="-0.9371610">
        <ele>199.0</ele>
        <time>2019-01-01T14:15:27Z</time>
      </trkpt>
      <trkpt lat="41.6852090" lon="-0.9371210">
        <ele>199.0</ele>
        <time>2019-01-01T14:15:28Z</time>
      </trkpt>
      <trkpt lat="41.6851790" lon="-0.9370800">
        <ele>199.0</ele>
        <time>2019-01-01T14:15:29Z</time>
      </trkpt>
      <trkpt lat="41.6851480" lon="-0.9370410">
        <ele>199.0</ele>
        <time>2019-01-01T14:15:30Z</time>
      </trkpt>
      <trkpt lat="41.6851150" lon="-0.9370040">
        <ele>198.9</ele>
        <time>2019-01-01T14:15:31Z</time>
      </trkpt>
      <trkpt lat="41.6850790" lon="-0.9369710">
        <ele>198.9</ele>
        <time>2019-01-01T14:15:32Z</time>
      </trkpt>
      <trkpt lat="41.6850440" lon="-0.9369300">
        <ele>198.9</ele>
        <time>2019-01-01T14:15:33Z</time>
      </trkpt>
      <trkpt lat="41.6850130" lon="-0.9368830">
        <ele>198.9</ele>
        <time>2019-01-01T14:15:34Z</time>
      </trkpt>
      <trkpt lat="41.6849810" lon="-0.9368430">
        <ele>198.8</ele>
        <time>2019-01-01T14:15:35Z</time>
      </trkpt>
      <trkpt lat="41.6849420" lon="-0.9367970">
        <ele>198.8</ele>
        <time>2019-01-01T14:15:36Z</time>
      </trkpt>
      <trkpt lat="41.6849030" lon="-0.9367420">
        <ele>198.8</ele>
        <time>2019-01-01T14:15:37Z</time>
      </trkpt>
      <trkpt lat="41.6848700" lon="-0.9366900">
        <ele>198.7</ele>
        <time>2019-01-01T14:15:38Z</time>
      </trkpt>
      <trkpt lat="41.6848310" lon="-0.9366510">
        <ele>198.7</ele>
        <time>2019-01-01T14:15:39Z</time>
      </trkpt>
      <trkpt lat="41.6847840" lon="-0.9366110">
        <ele>198.7</ele>
        <time>2019-01-01T14:15:40Z</time>
      </trkpt>
      <trkpt lat="41.6847550" lon="-0.9365670">
        <ele>198.6</ele>
        <time>2019-01-01T14:15:41Z</time>
      </trkpt>
      <trkpt lat="41.6847170" lon="-0.9365180">
        <ele>198.6</ele>
        <time>2019-01-01T14:15:42Z</time>
      </trkpt>
      <trkpt lat="41.6846800" lon="-0.9364740">
        <ele>198.6</ele>
        <time>2019-01-01T14:15:43Z</time>
      </trkpt>
      <trkpt lat="41.6846570" lon="-0.9364360">
        <ele>198.5</ele>
        <time>2019-01-01T14:15:44Z</time>
      </trkpt>
      <trkpt lat="41.6846180" lon="-0.9363840">
        <ele>198.5</ele>
        <time>2019-01-01T14:15:45Z</time>
      </trkpt>
      <trkpt lat="41.6845760" lon="-0.9363370">
        <ele>198.4</ele>
        <time>2019-01-01T14:15:46Z</time>
      </trkpt>
      <trkpt lat="41.6845400" lon="-0.9363000">
        <ele>198.4</ele>
        <time>2019-01-01T14:15:47Z</time>
      </trkpt>
      <trkpt lat="41.6845050" lon="-0.9362470">
        <ele>198.3</ele>
        <time>2019-01-01T14:15:48Z</time>
      </trkpt>
      <trkpt lat="41.6844620" lon="-0.9361950">
        <ele>198.1</ele>
        <time>2019-01-01T14:15:49Z</time>
      </trkpt>
      <trkpt lat="41.6844230" lon="-0.9361530">
        <ele>198.0</ele>
        <time>2019-01-01T14:15:50Z</time>
      </trkpt>
      <trkpt lat="41.6843700" lon="-0.9361200">
        <ele>197.8</ele>
        <time>2019-01-01T14:15:51Z</time>
      </trkpt>
      <trkpt lat="41.6843270" lon="-0.9360830">
        <ele>197.7</ele>
        <time>2019-01-01T14:15:52Z</time>
      </trkpt>
      <trkpt lat="41.6842860" lon="-0.9360470">
        <ele>197.6</ele>
        <time>2019-01-01T14:15:53Z</time>
      </trkpt>
      <trkpt lat="41.6842440" lon="-0.9360150">
        <ele>197.5</ele>
        <time>2019-01-01T14:15:54Z</time>
      </trkpt>
      <trkpt lat="41.6842050" lon="-0.9359880">
        <ele>197.4</ele>
        <time>2019-01-01T14:15:55Z</time>
      </trkpt>
      <trkpt lat="41.6841620" lon="-0.9359510">
        <ele>197.3</ele>
        <time>2019-01-01T14:15:56Z</time>
      </trkpt>
      <trkpt lat="41.6841210" lon="-0.9359140">
        <ele>197.2</ele>
        <time>2019-01-01T14:15:57Z</time>
      </trkpt>
      <trkpt lat="41.6840770" lon="-0.9358730">
        <ele>197.2</ele>
        <time>2019-01-01T14:15:58Z</time>
      </trkpt>
      <trkpt lat="41.6840330" lon="-0.9358350">
        <ele>197.1</ele>
        <time>2019-01-01T14:15:59Z</time>
      </trkpt>
      <trkpt lat="41.6839950" lon="-0.9358050">
        <ele>197.1</ele>
        <time>2019-01-01T14:16:00Z</time>
      </trkpt>
      <trkpt lat="41.6839470" lon="-0.9357730">
        <ele>197.1</ele>
        <time>2019-01-01T14:16:01Z</time>
      </trkpt>
      <trkpt lat="41.6838970" lon="-0.9357410">
        <ele>197.0</ele>
        <time>2019-01-01T14:16:02Z</time>
      </trkpt>
      <trkpt lat="41.6838510" lon="-0.9357050">
        <ele>197.0</ele>
        <time>2019-01-01T14:16:03Z</time>
      </trkpt>
      <trkpt lat="41.6838130" lon="-0.9356640">
        <ele>197.0</ele>
        <time>2019-01-01T14:16:04Z</time>
      </trkpt>
      <trkpt lat="41.6837730" lon="-0.9356220">
        <ele>197.0</ele>
        <time>2019-01-01T14:16:05Z</time>
      </trkpt>
      <trkpt lat="41.6837390" lon="-0.9355850">
        <ele>197.0</ele>
        <time>2019-01-01T14:16:06Z</time>
      </trkpt>
      <trkpt lat="41.6836940" lon="-0.9355400">
        <ele>197.0</ele>
        <time>2019-01-01T14:16:07Z</time>
      </trkpt>
      <trkpt lat="41.6836480" lon="-0.9355120">
        <ele>197.0</ele>
        <time>2019-01-01T14:16:08Z</time>
      </trkpt>
      <trkpt lat="41.6835990" lon="-0.9354750">
        <ele>197.0</ele>
        <time>2019-01-01T14:16:09Z</time>
      </trkpt>
      <trkpt lat="41.6835560" lon="-0.9354280">
        <ele>197.0</ele>
        <time>2019-01-01T14:16:10Z</time>
      </trkpt>
      <trkpt lat="41.6835140" lon="-0.9353940">
        <ele>197.0</ele>
        <time>2019-01-01T14:16:11Z</time>
      </trkpt>
      <trkpt lat="41.6834650" lon="-0.9353670">
        <ele>197.0</ele>
        <time>2019-01-01T14:16:12Z</time>
      </trkpt>
      <trkpt lat="41.6834150" lon="-0.9353270">
        <ele>197.0</ele>
        <time>2019-01-01T14:16:13Z</time>
      </trkpt>
      <trkpt lat="41.6833700" lon="-0.9352970">
        <ele>197.0</ele>
        <time>2019-01-01T14:16:14Z</time>
      </trkpt>
      <trkpt lat="41.6833200" lon="-0.9352670">
        <ele>197.0</ele>
        <time>2019-01-01T14:16:15Z</time>
      </trkpt>
      <trkpt lat="41.6832800" lon="-0.9352310">
        <ele>197.0</ele>
        <time>2019-01-01T14:16:16Z</time>
      </trkpt>
      <trkpt lat="41.6832270" lon="-0.9351890">
        <ele>197.0</ele>
        <time>2019-01-01T14:16:17Z</time>
      </trkpt>
      <trkpt lat="41.6831760" lon="-0.9351520">
        <ele>197.0</ele>
        <time>2019-01-01T14:16:18Z</time>
      </trkpt>
      <trkpt lat="41.6831400" lon="-0.9351150">
        <ele>197.0</ele>
        <time>2019-01-01T14:16:19Z</time>
      </trkpt>
      <trkpt lat="41.6831140" lon="-0.9350790">
        <ele>197.0</ele>
        <time>2019-01-01T14:16:20Z</time>
      </trkpt>
      <trkpt lat="41.6830510" lon="-0.9350160">
        <ele>197.0</ele>
        <time>2019-01-01T14:16:22Z</time>
      </trkpt>
      <trkpt lat="41.6830100" lon="-0.9349750">
        <ele>197.0</ele>
        <time>2019-01-01T14:16:23Z</time>
      </trkpt>
      <trkpt lat="41.6829720" lon="-0.9349400">
        <ele>197.0</ele>
        <time>2019-01-01T14:16:24Z</time>
      </trkpt>
      <trkpt lat="41.6829310" lon="-0.9348980">
        <ele>197.0</ele>
        <time>2019-01-01T14:16:25Z</time>
      </trkpt>
      <trkpt lat="41.6828920" lon="-0.9348580">
        <ele>197.0</ele>
        <time>2019-01-01T14:16:26Z</time>
      </trkpt>
      <trkpt lat="41.6828540" lon="-0.9348180">
        <ele>197.0</ele>
        <time>2019-01-01T14:16:27Z</time>
      </trkpt>
      <trkpt lat="41.6828130" lon="-0.9347780">
        <ele>197.0</ele>
        <time>2019-01-01T14:16:28Z</time>
      </trkpt>
      <trkpt lat="41.6827740" lon="-0.9347400">
        <ele>197.0</ele>
        <time>2019-01-01T14:16:29Z</time>
      </trkpt>
      <trkpt lat="41.6827340" lon="-0.9347000">
        <ele>197.0</ele>
        <time>2019-01-01T14:16:30Z</time>
      </trkpt>
      <trkpt lat="41.6826860" lon="-0.9346600">
        <ele>197.0</ele>
        <time>2019-01-01T14:16:31Z</time>
      </trkpt>
      <trkpt lat="41.6826340" lon="-0.9346270">
        <ele>197.0</ele>
        <time>2019-01-01T14:16:32Z</time>
      </trkpt>
      <trkpt lat="41.6825940" lon="-0.9345840">
        <ele>197.0</ele>
        <time>2019-01-01T14:16:33Z</time>
      </trkpt>
      <trkpt lat="41.6825510" lon="-0.9345480">
        <ele>197.1</ele>
        <time>2019-01-01T14:16:34Z</time>
      </trkpt>
      <trkpt lat="41.6825110" lon="-0.9345140">
        <ele>197.1</ele>
        <time>2019-01-01T14:16:35Z</time>
      </trkpt>
      <trkpt lat="41.6824750" lon="-0.9344710">
        <ele>197.2</ele>
        <time>2019-01-01T14:16:36Z</time>
      </trkpt>
      <trkpt lat="41.6824330" lon="-0.9344300">
        <ele>197.3</ele>
        <time>2019-01-01T14:16:37Z</time>
      </trkpt>
      <trkpt lat="41.6823980" lon="-0.9343930">
        <ele>197.4</ele>
        <time>2019-01-01T14:16:38Z</time>
      </trkpt>
      <trkpt lat="41.6823590" lon="-0.9343400">
        <ele>197.6</ele>
        <time>2019-01-01T14:16:39Z</time>
      </trkpt>
      <trkpt lat="41.6823170" lon="-0.9342950">
        <ele>197.7</ele>
        <time>2019-01-01T14:16:40Z</time>
      </trkpt>
      <trkpt lat="41.6822650" lon="-0.9342600">
        <ele>197.9</ele>
        <time>2019-01-01T14:16:41Z</time>
      </trkpt>
      <trkpt lat="41.6822220" lon="-0.9342360">
        <ele>198.0</ele>
        <time>2019-01-01T14:16:42Z</time>
      </trkpt>
      <trkpt lat="41.6821700" lon="-0.9342020">
        <ele>198.0</ele>
        <time>2019-01-01T14:16:43Z</time>
      </trkpt>
      <trkpt lat="41.6821150" lon="-0.9341670">
        <ele>198.1</ele>
        <time>2019-01-01T14:16:44Z</time>
      </trkpt>
      <trkpt lat="41.6820720" lon="-0.9341400">
        <ele>198.1</ele>
        <time>2019-01-01T14:16:45Z</time>
      </trkpt>
      <trkpt lat="41.6820220" lon="-0.9341100">
        <ele>198.1</ele>
        <time>2019-01-01T14:16:46Z</time>
      </trkpt>
      <trkpt lat="41.6819700" lon="-0.9340800">
        <ele>198.1</ele>
        <time>2019-01-01T14:16:47Z</time>
      </trkpt>
      <trkpt lat="41.6819190" lon="-0.9340540">
        <ele>198.1</ele>
        <time>2019-01-01T14:16:48Z</time>
      </trkpt>
      <trkpt lat="41.6818760" lon="-0.9340300">
        <ele>198.1</ele>
        <time>2019-01-01T14:16:49Z</time>
      </trkpt>
      <trkpt lat="41.6818310" lon="-0.9340090">
        <ele>198.1</ele>
        <time>2019-01-01T14:16:50Z</time>
      </trkpt>
      <trkpt lat="41.6817790" lon="-0.9339840">
        <ele>198.1</ele>
        <time>2019-01-01T14:16:51Z</time>
      </trkpt>
      <trkpt lat="41.6817360" lon="-0.9339570">
        <ele>198.1</ele>
        <time>2019-01-01T14:16:52Z</time>
      </trkpt>
      <trkpt lat="41.6816900" lon="-0.9339240">
        <ele>198.1</ele>
        <time>2019-01-01T14:16:53Z</time>
      </trkpt>
      <trkpt lat="41.6816380" lon="-0.9338900">
        <ele>198.1</ele>
        <time>2019-01-01T14:16:54Z</time>
      </trkpt>
      <trkpt lat="41.6815900" lon="-0.9338660">
        <ele>198.1</ele>
        <time>2019-01-01T14:16:55Z</time>
      </trkpt>
      <trkpt lat="41.6815500" lon="-0.9338360">
        <ele>198.1</ele>
        <time>2019-01-01T14:16:56Z</time>
      </trkpt>
      <trkpt lat="41.6815040" lon="-0.9338030">
        <ele>198.1</ele>
        <time>2019-01-01T14:16:57Z</time>
      </trkpt>
      <trkpt lat="41.6814620" lon="-0.9337750">
        <ele>198.1</ele>
        <time>2019-01-01T14:16:58Z</time>
      </trkpt>
      <trkpt lat="41.6814060" lon="-0.9337440">
        <ele>198.1</ele>
        <time>2019-01-01T14:16:59Z</time>
      </trkpt>
      <trkpt lat="41.6813700" lon="-0.9337210">
        <ele>198.1</ele>
        <time>2019-01-01T14:17:00Z</time>
      </trkpt>
      <trkpt lat="41.6813220" lon="-0.9336850">
        <ele>198.1</ele>
        <time>2019-01-01T14:17:01Z</time>
      </trkpt>
      <trkpt lat="41.6812790" lon="-0.9336520">
        <ele>198.1</ele>
        <time>2019-01-01T14:17:02Z</time>
      </trkpt>
      <trkpt lat="41.6812310" lon="-0.9336160">
        <ele>198.1</ele>
        <time>2019-01-01T14:17:03Z</time>
      </trkpt>
      <trkpt lat="41.6811930" lon="-0.9335750">
        <ele>198.1</ele>
        <time>2019-01-01T14:17:04Z</time>
      </trkpt>
      <trkpt lat="41.6811590" lon="-0.9335370">
        <ele>198.1</ele>
        <time>2019-01-01T14:17:05Z</time>
      </trkpt>
      <trkpt lat="41.6811170" lon="-0.9335070">
        <ele>198.1</ele>
        <time>2019-01-01T14:17:06Z</time>
      </trkpt>
      <trkpt lat="41.6810710" lon="-0.9334730">
        <ele>198.1</ele>
        <time>2019-01-01T14:17:07Z</time>
      </trkpt>
      <trkpt lat="41.6810370" lon="-0.9334460">
        <ele>198.1</ele>
        <time>2019-01-01T14:17:08Z</time>
      </trkpt>
      <trkpt lat="41.6809940" lon="-0.9334070">
        <ele>198.1</ele>
        <time>2019-01-01T14:17:09Z</time>
      </trkpt>
      <trkpt lat="41.6809600" lon="-0.9333660">
        <ele>198.1</ele>
        <time>2019-01-01T14:17:10Z</time>
      </trkpt>
      <trkpt lat="41.6809260" lon="-0.9333290">
        <ele>198.1</ele>
        <time>2019-01-01T14:17:11Z</time>
      </trkpt>
      <trkpt lat="41.6808950" lon="-0.9332880">
        <ele>198.1</ele>
        <time>2019-01-01T14:17:12Z</time>
      </trkpt>
      <trkpt lat="41.6808660" lon="-0.9332350">
        <ele>198.1</ele>
        <time>2019-01-01T14:17:13Z</time>
      </trkpt>
      <trkpt lat="41.6808300" lon="-0.9331870">
        <ele>198.1</ele>
        <time>2019-01-01T14:17:14Z</time>
      </trkpt>
      <trkpt lat="41.6808040" lon="-0.9331390">
        <ele>198.1</ele>
        <time>2019-01-01T14:17:15Z</time>
      </trkpt>
      <trkpt lat="41.6807750" lon="-0.9330810">
        <ele>198.1</ele>
        <time>2019-01-01T14:17:16Z</time>
      </trkpt>
      <trkpt lat="41.6807480" lon="-0.9330300">
        <ele>198.1</ele>
        <time>2019-01-01T14:17:17Z</time>
      </trkpt>
      <trkpt lat="41.6807180" lon="-0.9329740">
        <ele>198.1</ele>
        <time>2019-01-01T14:17:18Z</time>
      </trkpt>
      <trkpt lat="41.6806940" lon="-0.9329180">
        <ele>198.1</ele>
        <time>2019-01-01T14:17:19Z</time>
      </trkpt>
      <trkpt lat="41.6806620" lon="-0.9328700">
        <ele>198.1</ele>
        <time>2019-01-01T14:17:20Z</time>
      </trkpt>
      <trkpt lat="41.6806310" lon="-0.9328270">
        <ele>198.1</ele>
        <time>2019-01-01T14:17:21Z</time>
      </trkpt>
      <trkpt lat="41.6806060" lon="-0.9327550">
        <ele>198.1</ele>
        <time>2019-01-01T14:17:22Z</time>
      </trkpt>
      <trkpt lat="41.6805880" lon="-0.9326980">
        <ele>198.1</ele>
        <time>2019-01-01T14:17:23Z</time>
      </trkpt>
      <trkpt lat="41.6805510" lon="-0.9326460">
        <ele>198.1</ele>
        <time>2019-01-01T14:17:24Z</time>
      </trkpt>
      <trkpt lat="41.6805170" lon="-0.9326130">
        <ele>198.1</ele>
        <time>2019-01-01T14:17:25Z</time>
      </trkpt>
      <trkpt lat="41.6804890" lon="-0.9325710">
        <ele>198.1</ele>
        <time>2019-01-01T14:17:26Z</time>
      </trkpt>
      <trkpt lat="41.6804590" lon="-0.9325260">
        <ele>198.1</ele>
        <time>2019-01-01T14:17:27Z</time>
      </trkpt>
      <trkpt lat="41.6804400" lon="-0.9324810">
        <ele>198.1</ele>
        <time>2019-01-01T14:17:28Z</time>
      </trkpt>
      <trkpt lat="41.6804150" lon="-0.9324290">
        <ele>198.1</ele>
        <time>2019-01-01T14:17:29Z</time>
      </trkpt>
      <trkpt lat="41.6803880" lon="-0.9323710">
        <ele>198.1</ele>
        <time>2019-01-01T14:17:30Z</time>
      </trkpt>
      <trkpt lat="41.6803560" lon="-0.9323280">
        <ele>198.1</ele>
        <time>2019-01-01T14:17:31Z</time>
      </trkpt>
      <trkpt lat="41.6803260" lon="-0.9322770">
        <ele>198.1</ele>
        <time>2019-01-01T14:17:32Z</time>
      </trkpt>
      <trkpt lat="41.6802930" lon="-0.9322410">
        <ele>198.2</ele>
        <time>2019-01-01T14:17:33Z</time>
      </trkpt>
      <trkpt lat="41.6802630" lon="-0.9321770">
        <ele>198.2</ele>
        <time>2019-01-01T14:17:34Z</time>
      </trkpt>
      <trkpt lat="41.6802350" lon="-0.9321210">
        <ele>198.2</ele>
        <time>2019-01-01T14:17:35Z</time>
      </trkpt>
      <trkpt lat="41.6801980" lon="-0.9320690">
        <ele>198.3</ele>
        <time>2019-01-01T14:17:36Z</time>
      </trkpt>
      <trkpt lat="41.6801740" lon="-0.9320230">
        <ele>198.3</ele>
        <time>2019-01-01T14:17:37Z</time>
      </trkpt>
      <trkpt lat="41.6801550" lon="-0.9319780">
        <ele>198.3</ele>
        <time>2019-01-01T14:17:38Z</time>
      </trkpt>
      <trkpt lat="41.6801200" lon="-0.9319360">
        <ele>198.4</ele>
        <time>2019-01-01T14:17:39Z</time>
      </trkpt>
      <trkpt lat="41.6800750" lon="-0.9319120">
        <ele>198.4</ele>
        <time>2019-01-01T14:17:40Z</time>
      </trkpt>
      <trkpt lat="41.6800590" lon="-0.9318440">
        <ele>198.5</ele>
        <time>2019-01-01T14:17:41Z</time>
      </trkpt>
      <trkpt lat="41.6800080" lon="-0.9318330">
        <ele>198.6</ele>
        <time>2019-01-01T14:17:42Z</time>
      </trkpt>
      <trkpt lat="41.6799910" lon="-0.9317980">
        <ele>198.6</ele>
        <time>2019-01-01T14:17:43Z</time>
      </trkpt>
      <trkpt lat="41.6799510" lon="-0.9317460">
        <ele>198.7</ele>
        <time>2019-01-01T14:17:44Z</time>
      </trkpt>
      <trkpt lat="41.6799130" lon="-0.9317090">
        <ele>198.8</ele>
        <time>2019-01-01T14:17:45Z</time>
      </trkpt>
      <trkpt lat="41.6798670" lon="-0.9316770">
        <ele>198.9</ele>
        <time>2019-01-01T14:17:46Z</time>
      </trkpt>
      <trkpt lat="41.6798330" lon="-0.9316550">
        <ele>199.0</ele>
        <time>2019-01-01T14:17:47Z</time>
      </trkpt>
      <trkpt lat="41.6798010" lon="-0.9316190">
        <ele>199.1</ele>
        <time>2019-01-01T14:17:48Z</time>
      </trkpt>
      <trkpt lat="41.6797600" lon="-0.9315860">
        <ele>199.2</ele>
        <time>2019-01-01T14:17:49Z</time>
      </trkpt>
      <trkpt lat="41.6797340" lon="-0.9315430">
        <ele>199.3</ele>
        <time>2019-01-01T14:17:50Z</time>
      </trkpt>
      <trkpt lat="41.6796910" lon="-0.9315110">
        <ele>199.5</ele>
        <time>2019-01-01T14:17:51Z</time>
      </trkpt>
      <trkpt lat="41.6796420" lon="-0.9314720">
        <ele>199.6</ele>
        <time>2019-01-01T14:17:52Z</time>
      </trkpt>
      <trkpt lat="41.6796030" lon="-0.9314490">
        <ele>199.8</ele>
        <time>2019-01-01T14:17:53Z</time>
      </trkpt>
      <trkpt lat="41.6795600" lon="-0.9314140">
        <ele>199.9</ele>
        <time>2019-01-01T14:17:54Z</time>
      </trkpt>
      <trkpt lat="41.6795140" lon="-0.9313880">
        <ele>199.9</ele>
        <time>2019-01-01T14:17:55Z</time>
      </trkpt>
      <trkpt lat="41.6794670" lon="-0.9313530">
        <ele>199.9</ele>
        <time>2019-01-01T14:17:56Z</time>
      </trkpt>
      <trkpt lat="41.6794260" lon="-0.9313380">
        <ele>199.8</ele>
        <time>2019-01-01T14:17:57Z</time>
      </trkpt>
      <trkpt lat="41.6793840" lon="-0.9313190">
        <ele>199.8</ele>
        <time>2019-01-01T14:17:58Z</time>
      </trkpt>
      <trkpt lat="41.6793360" lon="-0.9312900">
        <ele>199.8</ele>
        <time>2019-01-01T14:17:59Z</time>
      </trkpt>
      <trkpt lat="41.6792850" lon="-0.9312670">
        <ele>199.7</ele>
        <time>2019-01-01T14:18:00Z</time>
      </trkpt>
      <trkpt lat="41.6792370" lon="-0.9312450">
        <ele>199.7</ele>
        <time>2019-01-01T14:18:01Z</time>
      </trkpt>
      <trkpt lat="41.6791950" lon="-0.9312330">
        <ele>199.6</ele>
        <time>2019-01-01T14:18:02Z</time>
      </trkpt>
      <trkpt lat="41.6791440" lon="-0.9312130">
        <ele>199.5</ele>
        <time>2019-01-01T14:18:03Z</time>
      </trkpt>
      <trkpt lat="41.6790890" lon="-0.9311910">
        <ele>199.5</ele>
        <time>2019-01-01T14:18:04Z</time>
      </trkpt>
      <trkpt lat="41.6790470" lon="-0.9311780">
        <ele>199.4</ele>
        <time>2019-01-01T14:18:05Z</time>
      </trkpt>
      <trkpt lat="41.6790050" lon="-0.9311550">
        <ele>199.4</ele>
        <time>2019-01-01T14:18:06Z</time>
      </trkpt>
      <trkpt lat="41.6789550" lon="-0.9311250">
        <ele>199.3</ele>
        <time>2019-01-01T14:18:07Z</time>
      </trkpt>
      <trkpt lat="41.6789170" lon="-0.9311190">
        <ele>199.3</ele>
        <time>2019-01-01T14:18:08Z</time>
      </trkpt>
      <trkpt lat="41.6788770" lon="-0.9311030">
        <ele>199.2</ele>
        <time>2019-01-01T14:18:09Z</time>
      </trkpt>
      <trkpt lat="41.6788420" lon="-0.9310860">
        <ele>199.2</ele>
        <time>2019-01-01T14:18:10Z</time>
      </trkpt>
      <trkpt lat="41.6787970" lon="-0.9310750">
        <ele>199.1</ele>
        <time>2019-01-01T14:18:11Z</time>
      </trkpt>
      <trkpt lat="41.6787570" lon="-0.9310620">
        <ele>199.0</ele>
        <time>2019-01-01T14:18:12Z</time>
      </trkpt>
      <trkpt lat="41.6787190" lon="-0.9310510">
        <ele>199.0</ele>
        <time>2019-01-01T14:18:13Z</time>
      </trkpt>
      <trkpt lat="41.6786850" lon="-0.9310420">
        <ele>199.0</ele>
        <time>2019-01-01T14:18:14Z</time>
      </trkpt>
      <trkpt lat="41.6786430" lon="-0.9310310">
        <ele>199.0</ele>
        <time>2019-01-01T14:18:15Z</time>
      </trkpt>
      <trkpt lat="41.6786080" lon="-0.9310160">
        <ele>198.9</ele>
        <time>2019-01-01T14:18:16Z</time>
      </trkpt>
      <trkpt lat="41.6785660" lon="-0.9310030">
        <ele>198.8</ele>
        <time>2019-01-01T14:18:17Z</time>
      </trkpt>
      <trkpt lat="41.6785330" lon="-0.9309890">
        <ele>198.8</ele>
        <time>2019-01-01T14:18:18Z</time>
      </trkpt>
      <trkpt lat="41.6785000" lon="-0.9309770">
        <ele>198.7</ele>
        <time>2019-01-01T14:18:19Z</time>
      </trkpt>
      <trkpt lat="41.6784690" lon="-0.9309640">
        <ele>198.6</ele>
        <time>2019-01-01T14:18:20Z</time>
      </trkpt>
      <trkpt lat="41.6784400" lon="-0.9309510">
        <ele>198.5</ele>
        <time>2019-01-01T14:18:21Z</time>
      </trkpt>
      <trkpt lat="41.6783870" lon="-0.9309310">
        <ele>198.4</ele>
        <time>2019-01-01T14:18:23Z</time>
      </trkpt>
      <trkpt lat="41.6783570" lon="-0.9309180">
        <ele>198.4</ele>
        <time>2019-01-01T14:18:24Z</time>
      </trkpt>
      <trkpt lat="41.6783280" lon="-0.9309050">
        <ele>198.3</ele>
        <time>2019-01-01T14:18:25Z</time>
      </trkpt>
      <trkpt lat="41.6782970" lon="-0.9308890">
        <ele>198.3</ele>
        <time>2019-01-01T14:18:26Z</time>
      </trkpt>
      <trkpt lat="41.6782650" lon="-0.9308740">
        <ele>198.2</ele>
        <time>2019-01-01T14:18:27Z</time>
      </trkpt>
      <trkpt lat="41.6782330" lon="-0.9308600">
        <ele>198.1</ele>
        <time>2019-01-01T14:18:28Z</time>
      </trkpt>
      <trkpt lat="41.6781980" lon="-0.9308440">
        <ele>198.0</ele>
        <time>2019-01-01T14:18:29Z</time>
      </trkpt>
      <trkpt lat="41.6781620" lon="-0.9308260">
        <ele>197.9</ele>
        <time>2019-01-01T14:18:30Z</time>
      </trkpt>
      <trkpt lat="41.6781270" lon="-0.9308060">
        <ele>197.8</ele>
        <time>2019-01-01T14:18:31Z</time>
      </trkpt>
      <trkpt lat="41.6780900" lon="-0.9307810">
        <ele>197.7</ele>
        <time>2019-01-01T14:18:32Z</time>
      </trkpt>
      <trkpt lat="41.6780540" lon="-0.9307540">
        <ele>197.6</ele>
        <time>2019-01-01T14:18:33Z</time>
      </trkpt>
      <trkpt lat="41.6780190" lon="-0.9307260">
        <ele>197.6</ele>
        <time>2019-01-01T14:18:34Z</time>
      </trkpt>
      <trkpt lat="41.6779840" lon="-0.9307020">
        <ele>197.6</ele>
        <time>2019-01-01T14:18:35Z</time>
      </trkpt>
      <trkpt lat="41.6779520" lon="-0.9306790">
        <ele>197.6</ele>
        <time>2019-01-01T14:18:36Z</time>
      </trkpt>
      <trkpt lat="41.6779180" lon="-0.9306540">
        <ele>197.7</ele>
        <time>2019-01-01T14:18:37Z</time>
      </trkpt>
      <trkpt lat="41.6778840" lon="-0.9306280">
        <ele>197.8</ele>
        <time>2019-01-01T14:18:38Z</time>
      </trkpt>
      <trkpt lat="41.6778500" lon="-0.9306010">
        <ele>198.0</ele>
        <time>2019-01-01T14:18:39Z</time>
      </trkpt>
      <trkpt lat="41.6778160" lon="-0.9305730">
        <ele>198.4</ele>
        <time>2019-01-01T14:18:40Z</time>
      </trkpt>
      <trkpt lat="41.6777830" lon="-0.9305440">
        <ele>198.5</ele>
        <time>2019-01-01T14:18:41Z</time>
      </trkpt>
      <trkpt lat="41.6777520" lon="-0.9305160">
        <ele>198.6</ele>
        <time>2019-01-01T14:18:42Z</time>
      </trkpt>
      <trkpt lat="41.6777210" lon="-0.9304910">
        <ele>198.7</ele>
        <time>2019-01-01T14:18:43Z</time>
      </trkpt>
      <trkpt lat="41.6776890" lon="-0.9304660">
        <ele>198.9</ele>
        <time>2019-01-01T14:18:44Z</time>
      </trkpt>
      <trkpt lat="41.6776560" lon="-0.9304400">
        <ele>199.1</ele>
        <time>2019-01-01T14:18:45Z</time>
      </trkpt>
      <trkpt lat="41.6776220" lon="-0.9304140">
        <ele>199.3</ele>
        <time>2019-01-01T14:18:46Z</time>
      </trkpt>
      <trkpt lat="41.6775890" lon="-0.9303870">
        <ele>199.5</ele>
        <time>2019-01-01T14:18:47Z</time>
      </trkpt>
      <trkpt lat="41.6775560" lon="-0.9303610">
        <ele>199.7</ele>
        <time>2019-01-01T14:18:48Z</time>
      </trkpt>
      <trkpt lat="41.6775230" lon="-0.9303380">
        <ele>200.0</ele>
        <time>2019-01-01T14:18:49Z</time>
      </trkpt>
      <trkpt lat="41.6774900" lon="-0.9303140">
        <ele>200.1</ele>
        <time>2019-01-01T14:18:50Z</time>
      </trkpt>
      <trkpt lat="41.6774630" lon="-0.9302940">
        <ele>200.2</ele>
        <time>2019-01-01T14:18:51Z</time>
      </trkpt>
      <trkpt lat="41.6774360" lon="-0.9302730">
        <ele>200.3</ele>
        <time>2019-01-01T14:18:52Z</time>
      </trkpt>
      <trkpt lat="41.6774080" lon="-0.9302510">
        <ele>200.4</ele>
        <time>2019-01-01T14:18:53Z</time>
      </trkpt>
      <trkpt lat="41.6773790" lon="-0.9302300">
        <ele>200.5</ele>
        <time>2019-01-01T14:18:54Z</time>
      </trkpt>
      <trkpt lat="41.6773490" lon="-0.9302100">
        <ele>200.5</ele>
        <time>2019-01-01T14:18:55Z</time>
      </trkpt>
      <trkpt lat="41.6773180" lon="-0.9301870">
        <ele>200.5</ele>
        <time>2019-01-01T14:18:56Z</time>
      </trkpt>
      <trkpt lat="41.6772870" lon="-0.9301610">
        <ele>200.6</ele>
        <time>2019-01-01T14:18:57Z</time>
      </trkpt>
      <trkpt lat="41.6772520" lon="-0.9301320">
        <ele>200.6</ele>
        <time>2019-01-01T14:18:58Z</time>
      </trkpt>
      <trkpt lat="41.6772160" lon="-0.9301030">
        <ele>200.6</ele>
        <time>2019-01-01T14:18:59Z</time>
      </trkpt>
      <trkpt lat="41.6771800" lon="-0.9300750">
        <ele>200.6</ele>
        <time>2019-01-01T14:19:00Z</time>
      </trkpt>
      <trkpt lat="41.6771440" lon="-0.9300440">
        <ele>200.6</ele>
        <time>2019-01-01T14:19:01Z</time>
      </trkpt>
      <trkpt lat="41.6771090" lon="-0.9300100">
        <ele>200.7</ele>
        <time>2019-01-01T14:19:02Z</time>
      </trkpt>
      <trkpt lat="41.6770750" lon="-0.9299690">
        <ele>200.8</ele>
        <time>2019-01-01T14:19:03Z</time>
      </trkpt>
      <trkpt lat="41.6770450" lon="-0.9298990">
        <ele>200.9</ele>
        <time>2019-01-01T14:19:04Z</time>
      </trkpt>
      <trkpt lat="41.6770140" lon="-0.9298480">
        <ele>201.0</ele>
        <time>2019-01-01T14:19:05Z</time>
      </trkpt>
      <trkpt lat="41.6769800" lon="-0.9297910">
        <ele>201.1</ele>
        <time>2019-01-01T14:19:06Z</time>
      </trkpt>
      <trkpt lat="41.6769450" lon="-0.9297250">
        <ele>201.2</ele>
        <time>2019-01-01T14:19:07Z</time>
      </trkpt>
      <trkpt lat="41.6769150" lon="-0.9296620">
        <ele>201.2</ele>
        <time>2019-01-01T14:19:08Z</time>
      </trkpt>
      <trkpt lat="41.6768910" lon="-0.9295920">
        <ele>201.3</ele>
        <time>2019-01-01T14:19:09Z</time>
      </trkpt>
      <trkpt lat="41.6768660" lon="-0.9295280">
        <ele>201.3</ele>
        <time>2019-01-01T14:19:10Z</time>
      </trkpt>
      <trkpt lat="41.6768470" lon="-0.9294540">
        <ele>201.3</ele>
        <time>2019-01-01T14:19:11Z</time>
      </trkpt>
      <trkpt lat="41.6768320" lon="-0.9293790">
        <ele>201.3</ele>
        <time>2019-01-01T14:19:12Z</time>
      </trkpt>
      <trkpt lat="41.6768140" lon="-0.9293060">
        <ele>201.3</ele>
        <time>2019-01-01T14:19:13Z</time>
      </trkpt>
      <trkpt lat="41.6768220" lon="-0.9292210">
        <ele>201.3</ele>
        <time>2019-01-01T14:19:14Z</time>
      </trkpt>
      <trkpt lat="41.6768230" lon="-0.9291600">
        <ele>201.2</ele>
        <time>2019-01-01T14:19:15Z</time>
      </trkpt>
      <trkpt lat="41.6768300" lon="-0.9290980">
        <ele>201.2</ele>
        <time>2019-01-01T14:19:16Z</time>
      </trkpt>
      <trkpt lat="41.6768600" lon="-0.9290270">
        <ele>201.2</ele>
        <time>2019-01-01T14:19:17Z</time>
      </trkpt>
      <trkpt lat="41.6768800" lon="-0.9289480">
        <ele>201.1</ele>
        <time>2019-01-01T14:19:18Z</time>
      </trkpt>
      <trkpt lat="41.6769080" lon="-0.9288520">
        <ele>201.1</ele>
        <time>2019-01-01T14:19:19Z</time>
      </trkpt>
      <trkpt lat="41.6769510" lon="-0.9287390">
        <ele>201.1</ele>
        <time>2019-01-01T14:19:20Z</time>
      </trkpt>
      <trkpt lat="41.6769680" lon="-0.9286730">
        <ele>201.1</ele>
        <time>2019-01-01T14:19:21Z</time>
      </trkpt>
      <trkpt lat="41.6770040" lon="-0.9285940">
        <ele>201.1</ele>
        <time>2019-01-01T14:19:22Z</time>
      </trkpt>
      <trkpt lat="41.6770480" lon="-0.9284800">
        <ele>201.1</ele>
        <time>2019-01-01T14:19:23Z</time>
      </trkpt>
      <trkpt lat="41.6770940" lon="-0.9284150">
        <ele>201.1</ele>
        <time>2019-01-01T14:19:24Z</time>
      </trkpt>
      <trkpt lat="41.6771420" lon="-0.9283940">
        <ele>201.2</ele>
        <time>2019-01-01T14:19:25Z</time>
      </trkpt>
      <trkpt lat="41.6771800" lon="-0.9283570">
        <ele>201.2</ele>
        <time>2019-01-01T14:19:26Z</time>
      </trkpt>
      <trkpt lat="41.6772290" lon="-0.9283070">
        <ele>201.3</ele>
        <time>2019-01-01T14:19:27Z</time>
      </trkpt>
      <trkpt lat="41.6772780" lon="-0.9282470">
        <ele>201.3</ele>
        <time>2019-01-01T14:19:28Z</time>
      </trkpt>
      <trkpt lat="41.6773200" lon="-0.9281950">
        <ele>201.4</ele>
        <time>2019-01-01T14:19:29Z</time>
      </trkpt>
      <trkpt lat="41.6773490" lon="-0.9281520">
        <ele>201.4</ele>
        <time>2019-01-01T14:19:30Z</time>
      </trkpt>
      <trkpt lat="41.6773870" lon="-0.9280800">
        <ele>201.5</ele>
        <time>2019-01-01T14:19:31Z</time>
      </trkpt>
      <trkpt lat="41.6774170" lon="-0.9280230">
        <ele>201.5</ele>
        <time>2019-01-01T14:19:32Z</time>
      </trkpt>
      <trkpt lat="41.6774450" lon="-0.9279590">
        <ele>201.5</ele>
        <time>2019-01-01T14:19:33Z</time>
      </trkpt>
      <trkpt lat="41.6774760" lon="-0.9278750">
        <ele>201.6</ele>
        <time>2019-01-01T14:19:34Z</time>
      </trkpt>
      <trkpt lat="41.6774960" lon="-0.9278050">
        <ele>201.6</ele>
        <time>2019-01-01T14:19:35Z</time>
      </trkpt>
      <trkpt lat="41.6775300" lon="-0.9277260">
        <ele>201.6</ele>
        <time>2019-01-01T14:19:36Z</time>
      </trkpt>
      <trkpt lat="41.6775520" lon="-0.9276430">
        <ele>201.6</ele>
        <time>2019-01-01T14:19:37Z</time>
      </trkpt>
      <trkpt lat="41.6775630" lon="-0.9275610">
        <ele>201.6</ele>
        <time>2019-01-01T14:19:38Z</time>
      </trkpt>
      <trkpt lat="41.6775690" lon="-0.9275110">
        <ele>201.5</ele>
        <time>2019-01-01T14:19:39Z</time>
      </trkpt>
      <trkpt lat="41.6775750" lon="-0.9274650">
        <ele>201.5</ele>
        <time>2019-01-01T14:19:40Z</time>
      </trkpt>
      <trkpt lat="41.6775920" lon="-0.9273720">
        <ele>201.5</ele>
        <time>2019-01-01T14:19:41Z</time>
      </trkpt>
      <trkpt lat="41.6775980" lon="-0.9272950">
        <ele>201.5</ele>
        <time>2019-01-01T14:19:42Z</time>
      </trkpt>
      <trkpt lat="41.6776070" lon="-0.9271820">
        <ele>201.4</ele>
        <time>2019-01-01T14:19:43Z</time>
      </trkpt>
      <trkpt lat="41.6776130" lon="-0.9270780">
        <ele>201.4</ele>
        <time>2019-01-01T14:19:44Z</time>
      </trkpt>
      <trkpt lat="41.6776120" lon="-0.9269890">
        <ele>201.4</ele>
        <time>2019-01-01T14:19:45Z</time>
      </trkpt>
      <trkpt lat="41.6776090" lon="-0.9269000">
        <ele>201.4</ele>
        <time>2019-01-01T14:19:46Z</time>
      </trkpt>
      <trkpt lat="41.6776020" lon="-0.9268130">
        <ele>201.4</ele>
        <time>2019-01-01T14:19:47Z</time>
      </trkpt>
      <trkpt lat="41.6775540" lon="-0.9267320">
        <ele>201.4</ele>
        <time>2019-01-01T14:19:48Z</time>
      </trkpt>
      <trkpt lat="41.6774870" lon="-0.9267040">
        <ele>201.3</ele>
        <time>2019-01-01T14:19:49Z</time>
      </trkpt>
      <trkpt lat="41.6774740" lon="-0.9266090">
        <ele>201.3</ele>
        <time>2019-01-01T14:19:50Z</time>
      </trkpt>
      <trkpt lat="41.6774240" lon="-0.9265740">
        <ele>201.3</ele>
        <time>2019-01-01T14:19:51Z</time>
      </trkpt>
      <trkpt lat="41.6773830" lon="-0.9264650">
        <ele>201.3</ele>
        <time>2019-01-01T14:19:52Z</time>
      </trkpt>
      <trkpt lat="41.6773800" lon="-0.9263600">
        <ele>201.3</ele>
        <time>2019-01-01T14:19:53Z</time>
      </trkpt>
      <trkpt lat="41.6773310" lon="-0.9262970">
        <ele>201.4</ele>
        <time>2019-01-01T14:19:54Z</time>
      </trkpt>
      <trkpt lat="41.6773160" lon="-0.9262490">
        <ele>201.4</ele>
        <time>2019-01-01T14:19:55Z</time>
      </trkpt>
      <trkpt lat="41.6772590" lon="-0.9261970">
        <ele>201.4</ele>
        <time>2019-01-01T14:19:56Z</time>
      </trkpt>
      <trkpt lat="41.6772000" lon="-0.9261380">
        <ele>201.4</ele>
        <time>2019-01-01T14:19:57Z</time>
      </trkpt>
      <trkpt lat="41.6771610" lon="-0.9260690">
        <ele>201.4</ele>
        <time>2019-01-01T14:19:58Z</time>
      </trkpt>
      <trkpt lat="41.6771280" lon="-0.9260050">
        <ele>201.5</ele>
        <time>2019-01-01T14:19:59Z</time>
      </trkpt>
      <trkpt lat="41.6771020" lon="-0.9259600">
        <ele>201.7</ele>
        <time>2019-01-01T14:20:00Z</time>
      </trkpt>
      <trkpt lat="41.6770410" lon="-0.9259200">
        <ele>201.8</ele>
        <time>2019-01-01T14:20:01Z</time>
      </trkpt>
      <trkpt lat="41.6770070" lon="-0.9258840">
        <ele>201.7</ele>
        <time>2019-01-01T14:20:02Z</time>
      </trkpt>
      <trkpt lat="41.6769530" lon="-0.9258260">
        <ele>201.7</ele>
        <time>2019-01-01T14:20:03Z</time>
      </trkpt>
      <trkpt lat="41.6769030" lon="-0.9257770">
        <ele>201.6</ele>
        <time>2019-01-01T14:20:04Z</time>
      </trkpt>
      <trkpt lat="41.6768540" lon="-0.9257220">
        <ele>201.6</ele>
        <time>2019-01-01T14:20:05Z</time>
      </trkpt>
      <trkpt lat="41.6768160" lon="-0.9256730">
        <ele>201.5</ele>
        <time>2019-01-01T14:20:06Z</time>
      </trkpt>
      <trkpt lat="41.6767860" lon="-0.9256280">
        <ele>201.4</ele>
        <time>2019-01-01T14:20:07Z</time>
      </trkpt>
      <trkpt lat="41.6767590" lon="-0.9255960">
        <ele>201.3</ele>
        <time>2019-01-01T14:20:08Z</time>
      </trkpt>
      <trkpt lat="41.6767290" lon="-0.9255540">
        <ele>201.2</ele>
        <time>2019-01-01T14:20:09Z</time>
      </trkpt>
      <trkpt lat="41.6767020" lon="-0.9255190">
        <ele>201.1</ele>
        <time>2019-01-01T14:20:10Z</time>
      </trkpt>
      <trkpt lat="41.6766760" lon="-0.9254840">
        <ele>200.9</ele>
        <time>2019-01-01T14:20:11Z</time>
      </trkpt>
      <trkpt lat="41.6766530" lon="-0.9254520">
        <ele>200.8</ele>
        <time>2019-01-01T14:20:12Z</time>
      </trkpt>
      <trkpt lat="41.6766250" lon="-0.9254050">
        <ele>200.6</ele>
        <time>2019-01-01T14:20:13Z</time>
      </trkpt>
      <trkpt lat="41.6766080" lon="-0.9253750">
        <ele>200.4</ele>
        <time>2019-01-01T14:20:14Z</time>
      </trkpt>
      <trkpt lat="41.6765740" lon="-0.9253390">
        <ele>200.3</ele>
        <time>2019-01-01T14:20:15Z</time>
      </trkpt>
      <trkpt lat="41.6765490" lon="-0.9252970">
        <ele>200.2</ele>
        <time>2019-01-01T14:20:16Z</time>
      </trkpt>
      <trkpt lat="41.6765140" lon="-0.9252590">
        <ele>200.2</ele>
        <time>2019-01-01T14:20:18Z</time>
      </trkpt>
      <trkpt lat="41.6764900" lon="-0.9252260">
        <ele>200.1</ele>
        <time>2019-01-01T14:20:19Z</time>
      </trkpt>
      <trkpt lat="41.6764650" lon="-0.9251910">
        <ele>200.1</ele>
        <time>2019-01-01T14:20:20Z</time>
      </trkpt>
      <trkpt lat="41.6764390" lon="-0.9251520">
        <ele>200.0</ele>
        <time>2019-01-01T14:20:21Z</time>
      </trkpt>
      <trkpt lat="41.6764050" lon="-0.9250990">
        <ele>199.9</ele>
        <time>2019-01-01T14:20:22Z</time>
      </trkpt>
      <trkpt lat="41.6763770" lon="-0.9250230">
        <ele>199.9</ele>
        <time>2019-01-01T14:20:23Z</time>
      </trkpt>
      <trkpt lat="41.6763370" lon="-0.9249740">
        <ele>199.8</ele>
        <time>2019-01-01T14:20:24Z</time>
      </trkpt>
      <trkpt lat="41.6762920" lon="-0.9249180">
        <ele>199.8</ele>
        <time>2019-01-01T14:20:25Z</time>
      </trkpt>
      <trkpt lat="41.6762460" lon="-0.9248540">
        <ele>199.7</ele>
        <time>2019-01-01T14:20:26Z</time>
      </trkpt>
      <trkpt lat="41.6762040" lon="-0.9248040">
        <ele>199.5</ele>
        <time>2019-01-01T14:20:27Z</time>
      </trkpt>
      <trkpt lat="41.6761670" lon="-0.9247470">
        <ele>199.4</ele>
        <time>2019-01-01T14:20:28Z</time>
      </trkpt>
      <trkpt lat="41.6761210" lon="-0.9246850">
        <ele>199.3</ele>
        <time>2019-01-01T14:20:29Z</time>
      </trkpt>
      <trkpt lat="41.6760640" lon="-0.9246010">
        <ele>199.1</ele>
        <time>2019-01-01T14:20:30Z</time>
      </trkpt>
      <trkpt lat="41.6760050" lon="-0.9245200">
        <ele>199.0</ele>
        <time>2019-01-01T14:20:31Z</time>
      </trkpt>
      <trkpt lat="41.6759550" lon="-0.9244580">
        <ele>198.8</ele>
        <time>2019-01-01T14:20:32Z</time>
      </trkpt>
      <trkpt lat="41.6759010" lon="-0.9243720">
        <ele>198.5</ele>
        <time>2019-01-01T14:20:33Z</time>
      </trkpt>
      <trkpt lat="41.6758530" lon="-0.9242830">
        <ele>198.2</ele>
        <time>2019-01-01T14:20:34Z</time>
      </trkpt>
      <trkpt lat="41.6758000" lon="-0.9242030">
        <ele>198.0</ele>
        <time>2019-01-01T14:20:35Z</time>
      </trkpt>
      <trkpt lat="41.6757540" lon="-0.9241180">
        <ele>197.7</ele>
        <time>2019-01-01T14:20:36Z</time>
      </trkpt>
      <trkpt lat="41.6757140" lon="-0.9240460">
        <ele>197.5</ele>
        <time>2019-01-01T14:20:37Z</time>
      </trkpt>
      <trkpt lat="41.6756780" lon="-0.9239730">
        <ele>197.3</ele>
        <time>2019-01-01T14:20:38Z</time>
      </trkpt>
      <trkpt lat="41.6756350" lon="-0.9239030">
        <ele>197.1</ele>
        <time>2019-01-01T14:20:39Z</time>
      </trkpt>
      <trkpt lat="41.6755960" lon="-0.9238500">
        <ele>196.9</ele>
        <time>2019-01-01T14:20:40Z</time>
      </trkpt>
      <trkpt lat="41.6755580" lon="-0.9237910">
        <ele>196.7</ele>
        <time>2019-01-01T14:20:41Z</time>
      </trkpt>
      <trkpt lat="41.6755020" lon="-0.9237100">
        <ele>196.5</ele>
        <time>2019-01-01T14:20:42Z</time>
      </trkpt>
      <trkpt lat="41.6754710" lon="-0.9236280">
        <ele>196.3</ele>
        <time>2019-01-01T14:20:43Z</time>
      </trkpt>
      <trkpt lat="41.6754410" lon="-0.9235600">
        <ele>196.1</ele>
        <time>2019-01-01T14:20:44Z</time>
      </trkpt>
      <trkpt lat="41.6754110" lon="-0.9234900">
        <ele>196.0</ele>
        <time>2019-01-01T14:20:45Z</time>
      </trkpt>
      <trkpt lat="41.6753710" lon="-0.9234020">
        <ele>195.8</ele>
        <time>2019-01-01T14:20:46Z</time>
      </trkpt>
      <trkpt lat="41.6753310" lon="-0.9233230">
        <ele>195.7</ele>
        <time>2019-01-01T14:20:47Z</time>
      </trkpt>
      <trkpt lat="41.6753210" lon="-0.9232450">
        <ele>195.6</ele>
        <time>2019-01-01T14:20:48Z</time>
      </trkpt>
      <trkpt lat="41.6752970" lon="-0.9232220">
        <ele>195.5</ele>
        <time>2019-01-01T14:20:49Z</time>
      </trkpt>
      <trkpt lat="41.6752680" lon="-0.9231920">
        <ele>195.5</ele>
        <time>2019-01-01T14:20:50Z</time>
      </trkpt>
      <trkpt lat="41.6752340" lon="-0.9231530">
        <ele>195.4</ele>
        <time>2019-01-01T14:20:51Z</time>
      </trkpt>
      <trkpt lat="41.6752120" lon="-0.9230650">
        <ele>195.3</ele>
        <time>2019-01-01T14:20:52Z</time>
      </trkpt>
      <trkpt lat="41.6751780" lon="-0.9229970">
        <ele>195.3</ele>
        <time>2019-01-01T14:20:53Z</time>
      </trkpt>
      <trkpt lat="41.6751540" lon="-0.9229240">
        <ele>195.2</ele>
        <time>2019-01-01T14:20:54Z</time>
      </trkpt>
      <trkpt lat="41.6751180" lon="-0.9228710">
        <ele>195.2</ele>
        <time>2019-01-01T14:20:55Z</time>
      </trkpt>
      <trkpt lat="41.6750990" lon="-0.9228260">
        <ele>195.2</ele>
        <time>2019-01-01T14:20:56Z</time>
      </trkpt>
      <trkpt lat="41.6750750" lon="-0.9227890">
        <ele>195.1</ele>
        <time>2019-01-01T14:20:57Z</time>
      </trkpt>
      <trkpt lat="41.6750400" lon="-0.9227310">
        <ele>195.1</ele>
        <time>2019-01-01T14:20:58Z</time>
      </trkpt>
      <trkpt lat="41.6749900" lon="-0.9226500">
        <ele>195.1</ele>
        <time>2019-01-01T14:21:00Z</time>
      </trkpt>
      <trkpt lat="41.6749580" lon="-0.9225930">
        <ele>195.0</ele>
        <time>2019-01-01T14:21:01Z</time>
      </trkpt>
      <trkpt lat="41.6749200" lon="-0.9225460">
        <ele>195.0</ele>
        <time>2019-01-01T14:21:02Z</time>
      </trkpt>
      <trkpt lat="41.6748850" lon="-0.9225040">
        <ele>194.9</ele>
        <time>2019-01-01T14:21:03Z</time>
      </trkpt>
      <trkpt lat="41.6748500" lon="-0.9224700">
        <ele>194.9</ele>
        <time>2019-01-01T14:21:04Z</time>
      </trkpt>
      <trkpt lat="41.6748080" lon="-0.9224140">
        <ele>194.8</ele>
        <time>2019-01-01T14:21:05Z</time>
      </trkpt>
      <trkpt lat="41.6747790" lon="-0.9224000">
        <ele>194.7</ele>
        <time>2019-01-01T14:21:06Z</time>
      </trkpt>
      <trkpt lat="41.6747420" lon="-0.9223510">
        <ele>194.6</ele>
        <time>2019-01-01T14:21:07Z</time>
      </trkpt>
      <trkpt lat="41.6747120" lon="-0.9223210">
        <ele>194.7</ele>
        <time>2019-01-01T14:21:08Z</time>
      </trkpt>
      <trkpt lat="41.6746840" lon="-0.9222680">
        <ele>194.8</ele>
        <time>2019-01-01T14:21:09Z</time>
      </trkpt>
      <trkpt lat="41.6746450" lon="-0.9222260">
        <ele>194.9</ele>
        <time>2019-01-01T14:21:10Z</time>
      </trkpt>
      <trkpt lat="41.6746230" lon="-0.9221970">
        <ele>195.0</ele>
        <time>2019-01-01T14:21:11Z</time>
      </trkpt>
      <trkpt lat="41.6745840" lon="-0.9221420">
        <ele>195.2</ele>
        <time>2019-01-01T14:21:12Z</time>
      </trkpt>
      <trkpt lat="41.6745470" lon="-0.9221000">
        <ele>195.3</ele>
        <time>2019-01-01T14:21:13Z</time>
      </trkpt>
      <trkpt lat="41.6745100" lon="-0.9220500">
        <ele>195.4</ele>
        <time>2019-01-01T14:21:14Z</time>
      </trkpt>
      <trkpt lat="41.6744760" lon="-0.9220040">
        <ele>195.4</ele>
        <time>2019-01-01T14:21:15Z</time>
      </trkpt>
      <trkpt lat="41.6744460" lon="-0.9219520">
        <ele>195.4</ele>
        <time>2019-01-01T14:21:16Z</time>
      </trkpt>
      <trkpt lat="41.6744140" lon="-0.9219120">
        <ele>195.4</ele>
        <time>2019-01-01T14:21:17Z</time>
      </trkpt>
      <trkpt lat="41.6743910" lon="-0.9218690">
        <ele>195.4</ele>
        <time>2019-01-01T14:21:18Z</time>
      </trkpt>
      <trkpt lat="41.6743640" lon="-0.9218270">
        <ele>195.4</ele>
        <time>2019-01-01T14:21:19Z</time>
      </trkpt>
      <trkpt lat="41.6743420" lon="-0.9217860">
        <ele>195.4</ele>
        <time>2019-01-01T14:21:20Z</time>
      </trkpt>
      <trkpt lat="41.6742910" lon="-0.9217580">
        <ele>195.4</ele>
        <time>2019-01-01T14:21:21Z</time>
      </trkpt>
      <trkpt lat="41.6742520" lon="-0.9217180">
        <ele>195.4</ele>
        <time>2019-01-01T14:21:22Z</time>
      </trkpt>
      <trkpt lat="41.6741960" lon="-0.9216760">
        <ele>195.4</ele>
        <time>2019-01-01T14:21:23Z</time>
      </trkpt>
      <trkpt lat="41.6741530" lon="-0.9216330">
        <ele>195.4</ele>
        <time>2019-01-01T14:21:24Z</time>
      </trkpt>
      <trkpt lat="41.6741190" lon="-0.9215820">
        <ele>195.3</ele>
        <time>2019-01-01T14:21:25Z</time>
      </trkpt>
      <trkpt lat="41.6740690" lon="-0.9215370">
        <ele>195.3</ele>
        <time>2019-01-01T14:21:26Z</time>
      </trkpt>
      <trkpt lat="41.6740310" lon="-0.9214820">
        <ele>195.2</ele>
        <time>2019-01-01T14:21:27Z</time>
      </trkpt>
      <trkpt lat="41.6740050" lon="-0.9214500">
        <ele>195.1</ele>
        <time>2019-01-01T14:21:28Z</time>
      </trkpt>
      <trkpt lat="41.6739560" lon="-0.9214030">
        <ele>194.9</ele>
        <time>2019-01-01T14:21:29Z</time>
      </trkpt>
      <trkpt lat="41.6739320" lon="-0.9213490">
        <ele>194.8</ele>
        <time>2019-01-01T14:21:30Z</time>
      </trkpt>
      <trkpt lat="41.6738840" lon="-0.9213350">
        <ele>194.7</ele>
        <time>2019-01-01T14:21:31Z</time>
      </trkpt>
      <trkpt lat="41.6738570" lon="-0.9212800">
        <ele>194.6</ele>
        <time>2019-01-01T14:21:32Z</time>
      </trkpt>
      <trkpt lat="41.6738310" lon="-0.9212210">
        <ele>194.6</ele>
        <time>2019-01-01T14:21:33Z</time>
      </trkpt>
      <trkpt lat="41.6738070" lon="-0.9211780">
        <ele>194.6</ele>
        <time>2019-01-01T14:21:34Z</time>
      </trkpt>
      <trkpt lat="41.6737790" lon="-0.9211380">
        <ele>194.6</ele>
        <time>2019-01-01T14:21:35Z</time>
      </trkpt>
      <trkpt lat="41.6737540" lon="-0.9211000">
        <ele>194.6</ele>
        <time>2019-01-01T14:21:36Z</time>
      </trkpt>
      <trkpt lat="41.6737170" lon="-0.9210530">
        <ele>194.7</ele>
        <time>2019-01-01T14:21:37Z</time>
      </trkpt>
      <trkpt lat="41.6736900" lon="-0.9210030">
        <ele>194.8</ele>
        <time>2019-01-01T14:21:38Z</time>
      </trkpt>
      <trkpt lat="41.6736570" lon="-0.9209580">
        <ele>195.0</ele>
        <time>2019-01-01T14:21:39Z</time>
      </trkpt>
      <trkpt lat="41.6736140" lon="-0.9209310">
        <ele>195.2</ele>
        <time>2019-01-01T14:21:40Z</time>
      </trkpt>
      <trkpt lat="41.6735790" lon="-0.9208880">
        <ele>195.5</ele>
        <time>2019-01-01T14:21:41Z</time>
      </trkpt>
      <trkpt lat="41.6735460" lon="-0.9208570">
        <ele>195.8</ele>
        <time>2019-01-01T14:21:42Z</time>
      </trkpt>
      <trkpt lat="41.6735000" lon="-0.9208110">
        <ele>196.2</ele>
        <time>2019-01-01T14:21:43Z</time>
      </trkpt>
      <trkpt lat="41.6734600" lon="-0.9207830">
        <ele>196.5</ele>
        <time>2019-01-01T14:21:44Z</time>
      </trkpt>
      <trkpt lat="41.6733990" lon="-0.9207570">
        <ele>196.9</ele>
        <time>2019-01-01T14:21:45Z</time>
      </trkpt>
      <trkpt lat="41.6733680" lon="-0.9207350">
        <ele>197.1</ele>
        <time>2019-01-01T14:21:46Z</time>
      </trkpt>
      <trkpt lat="41.6733320" lon="-0.9207240">
        <ele>197.4</ele>
        <time>2019-01-01T14:21:47Z</time>
      </trkpt>
      <trkpt lat="41.6732910" lon="-0.9206900">
        <ele>197.4</ele>
        <time>2019-01-01T14:21:48Z</time>
      </trkpt>
      <trkpt lat="41.6732560" lon="-0.9206590">
        <ele>197.5</ele>
        <time>2019-01-01T14:21:49Z</time>
      </trkpt>
      <trkpt lat="41.6732130" lon="-0.9206290">
        <ele>197.5</ele>
        <time>2019-01-01T14:21:50Z</time>
      </trkpt>
      <trkpt lat="41.6731710" lon="-0.9206160">
        <ele>197.5</ele>
        <time>2019-01-01T14:21:51Z</time>
      </trkpt>
      <trkpt lat="41.6731150" lon="-0.9205870">
        <ele>197.5</ele>
        <time>2019-01-01T14:21:52Z</time>
      </trkpt>
      <trkpt lat="41.6730680" lon="-0.9205600">
        <ele>197.5</ele>
        <time>2019-01-01T14:21:53Z</time>
      </trkpt>
      <trkpt lat="41.6730070" lon="-0.9205390">
        <ele>197.5</ele>
        <time>2019-01-01T14:21:54Z</time>
      </trkpt>
      <trkpt lat="41.6729670" lon="-0.9205050">
        <ele>197.5</ele>
        <time>2019-01-01T14:21:55Z</time>
      </trkpt>
      <trkpt lat="41.6729160" lon="-0.9204690">
        <ele>197.5</ele>
        <time>2019-01-01T14:21:56Z</time>
      </trkpt>
      <trkpt lat="41.6728690" lon="-0.9204260">
        <ele>197.4</ele>
        <time>2019-01-01T14:21:57Z</time>
      </trkpt>
      <trkpt lat="41.6728470" lon="-0.9203790">
        <ele>197.4</ele>
        <time>2019-01-01T14:21:58Z</time>
      </trkpt>
      <trkpt lat="41.6728180" lon="-0.9203420">
        <ele>197.3</ele>
        <time>2019-01-01T14:21:59Z</time>
      </trkpt>
      <trkpt lat="41.6727770" lon="-0.9202920">
        <ele>197.2</ele>
        <time>2019-01-01T14:22:00Z</time>
      </trkpt>
      <trkpt lat="41.6727530" lon="-0.9202580">
        <ele>197.2</ele>
        <time>2019-01-01T14:22:01Z</time>
      </trkpt>
      <trkpt lat="41.6727340" lon="-0.9202150">
        <ele>197.2</ele>
        <time>2019-01-01T14:22:02Z</time>
      </trkpt>
      <trkpt lat="41.6726780" lon="-0.9201880">
        <ele>197.1</ele>
        <time>2019-01-01T14:22:03Z</time>
      </trkpt>
      <trkpt lat="41.6726250" lon="-0.9201510">
        <ele>197.1</ele>
        <time>2019-01-01T14:22:04Z</time>
      </trkpt>
      <trkpt lat="41.6725820" lon="-0.9201110">
        <ele>197.0</ele>
        <time>2019-01-01T14:22:05Z</time>
      </trkpt>
      <trkpt lat="41.6725410" lon="-0.9200650">
        <ele>197.0</ele>
        <time>2019-01-01T14:22:06Z</time>
      </trkpt>
      <trkpt lat="41.6725200" lon="-0.9200220">
        <ele>197.0</ele>
        <time>2019-01-01T14:22:07Z</time>
      </trkpt>
      <trkpt lat="41.6725160" lon="-0.9199690">
        <ele>197.1</ele>
        <time>2019-01-01T14:22:08Z</time>
      </trkpt>
      <trkpt lat="41.6724680" lon="-0.9199270">
        <ele>197.1</ele>
        <time>2019-01-01T14:22:09Z</time>
      </trkpt>
      <trkpt lat="41.6724370" lon="-0.9198790">
        <ele>197.1</ele>
        <time>2019-01-01T14:22:10Z</time>
      </trkpt>
      <trkpt lat="41.6723900" lon="-0.9198270">
        <ele>197.2</ele>
        <time>2019-01-01T14:22:11Z</time>
      </trkpt>
      <trkpt lat="41.6723660" lon="-0.9198040">
        <ele>197.2</ele>
        <time>2019-01-01T14:22:12Z</time>
      </trkpt>
      <trkpt lat="41.6723050" lon="-0.9197610">
        <ele>197.3</ele>
        <time>2019-01-01T14:22:13Z</time>
      </trkpt>
      <trkpt lat="41.6722520" lon="-0.9197220">
        <ele>197.3</ele>
        <time>2019-01-01T14:22:14Z</time>
      </trkpt>
      <trkpt lat="41.6722210" lon="-0.9196810">
        <ele>197.4</ele>
        <time>2019-01-01T14:22:15Z</time>
      </trkpt>
      <trkpt lat="41.6721890" lon="-0.9196460">
        <ele>197.4</ele>
        <time>2019-01-01T14:22:16Z</time>
      </trkpt>
      <trkpt lat="41.6721510" lon="-0.9195960">
        <ele>197.5</ele>
        <time>2019-01-01T14:22:17Z</time>
      </trkpt>
      <trkpt lat="41.6721030" lon="-0.9195450">
        <ele>197.6</ele>
        <time>2019-01-01T14:22:18Z</time>
      </trkpt>
      <trkpt lat="41.6720680" lon="-0.9194880">
        <ele>197.6</ele>
        <time>2019-01-01T14:22:19Z</time>
      </trkpt>
      <trkpt lat="41.6720390" lon="-0.9194440">
        <ele>197.6</ele>
        <time>2019-01-01T14:22:20Z</time>
      </trkpt>
      <trkpt lat="41.6720020" lon="-0.9193800">
        <ele>197.7</ele>
        <time>2019-01-01T14:22:21Z</time>
      </trkpt>
      <trkpt lat="41.6719850" lon="-0.9193370">
        <ele>197.7</ele>
        <time>2019-01-01T14:22:22Z</time>
      </trkpt>
      <trkpt lat="41.6719700" lon="-0.9192880">
        <ele>197.7</ele>
        <time>2019-01-01T14:22:23Z</time>
      </trkpt>
      <trkpt lat="41.6719470" lon="-0.9192080">
        <ele>197.8</ele>
        <time>2019-01-01T14:22:24Z</time>
      </trkpt>
      <trkpt lat="41.6719200" lon="-0.9191450">
        <ele>197.7</ele>
        <time>2019-01-01T14:22:25Z</time>
      </trkpt>
      <trkpt lat="41.6718850" lon="-0.9191070">
        <ele>197.7</ele>
        <time>2019-01-01T14:22:26Z</time>
      </trkpt>
      <trkpt lat="41.6718510" lon="-0.9190740">
        <ele>197.7</ele>
        <time>2019-01-01T14:22:27Z</time>
      </trkpt>
      <trkpt lat="41.6718200" lon="-0.9190510">
        <ele>197.7</ele>
        <time>2019-01-01T14:22:28Z</time>
      </trkpt>
      <trkpt lat="41.6718040" lon="-0.9189980">
        <ele>197.6</ele>
        <time>2019-01-01T14:22:29Z</time>
      </trkpt>
      <trkpt lat="41.6717510" lon="-0.9189840">
        <ele>197.6</ele>
        <time>2019-01-01T14:22:31Z</time>
      </trkpt>
      <trkpt lat="41.6717330" lon="-0.9189570">
        <ele>198.0</ele>
        <time>2019-01-01T14:22:32Z</time>
      </trkpt>
      <trkpt lat="41.6717130" lon="-0.9189280">
        <ele>198.1</ele>
        <time>2019-01-01T14:22:33Z</time>
      </trkpt>
      <trkpt lat="41.6716770" lon="-0.9189540">
        <ele>198.1</ele>
        <time>2019-01-01T14:22:35Z</time>
      </trkpt>
      <trkpt lat="41.6716460" lon="-0.9190040">
        <ele>198.2</ele>
        <time>2019-01-01T14:22:37Z</time>
      </trkpt>
      <trkpt lat="41.6716240" lon="-0.9190590">
        <ele>198.3</ele>
        <time>2019-01-01T14:22:39Z</time>
      </trkpt>
      <trkpt lat="41.6716040" lon="-0.9191120">
        <ele>198.4</ele>
        <time>2019-01-01T14:22:41Z</time>
      </trkpt>
      <trkpt lat="41.6715770" lon="-0.9191680">
        <ele>198.4</ele>
        <time>2019-01-01T14:22:43Z</time>
      </trkpt>
      <trkpt lat="41.6715480" lon="-0.9192280">
        <ele>198.5</ele>
        <time>2019-01-01T14:22:45Z</time>
      </trkpt>
      <trkpt lat="41.6715320" lon="-0.9192590">
        <ele>198.6</ele>
        <time>2019-01-01T14:22:46Z</time>
      </trkpt>
      <trkpt lat="41.6715080" lon="-0.9193010">
        <ele>198.6</ele>
        <time>2019-01-01T14:22:47Z</time>
      </trkpt>
      <trkpt lat="41.6714850" lon="-0.9193420">
        <ele>198.7</ele>
        <time>2019-01-01T14:22:48Z</time>
      </trkpt>
      <trkpt lat="41.6714620" lon="-0.9193870">
        <ele>198.8</ele>
        <time>2019-01-01T14:22:49Z</time>
      </trkpt>
      <trkpt lat="41.6714350" lon="-0.9194340">
        <ele>198.8</ele>
        <time>2019-01-01T14:22:50Z</time>
      </trkpt>
      <trkpt lat="41.6714060" lon="-0.9194830">
        <ele>198.9</ele>
        <time>2019-01-01T14:22:51Z</time>
      </trkpt>
      <trkpt lat="41.6713760" lon="-0.9195310">
        <ele>199.0</ele>
        <time>2019-01-01T14:22:52Z</time>
      </trkpt>
      <trkpt lat="41.6713470" lon="-0.9195780">
        <ele>199.1</ele>
        <time>2019-01-01T14:22:53Z</time>
      </trkpt>
      <trkpt lat="41.6713200" lon="-0.9196240">
        <ele>199.2</ele>
        <time>2019-01-01T14:22:54Z</time>
      </trkpt>
      <trkpt lat="41.6712960" lon="-0.9196720">
        <ele>199.3</ele>
        <time>2019-01-01T14:22:55Z</time>
      </trkpt>
      <trkpt lat="41.6712720" lon="-0.9197200">
        <ele>199.3</ele>
        <time>2019-01-01T14:22:56Z</time>
      </trkpt>
      <trkpt lat="41.6712490" lon="-0.9197660">
        <ele>199.4</ele>
        <time>2019-01-01T14:22:57Z</time>
      </trkpt>
      <trkpt lat="41.6712250" lon="-0.9198080">
        <ele>199.4</ele>
        <time>2019-01-01T14:22:58Z</time>
      </trkpt>
      <trkpt lat="41.6711950" lon="-0.9198520">
        <ele>199.5</ele>
        <time>2019-01-01T14:22:59Z</time>
      </trkpt>
      <trkpt lat="41.6711640" lon="-0.9198940">
        <ele>199.6</ele>
        <time>2019-01-01T14:23:00Z</time>
      </trkpt>
      <trkpt lat="41.6711340" lon="-0.9199360">
        <ele>199.6</ele>
        <time>2019-01-01T14:23:01Z</time>
      </trkpt>
      <trkpt lat="41.6711040" lon="-0.9199770">
        <ele>199.6</ele>
        <time>2019-01-01T14:23:02Z</time>
      </trkpt>
      <trkpt lat="41.6710700" lon="-0.9200170">
        <ele>199.7</ele>
        <time>2019-01-01T14:23:03Z</time>
      </trkpt>
      <trkpt lat="41.6710410" lon="-0.9200610">
        <ele>199.7</ele>
        <time>2019-01-01T14:23:04Z</time>
      </trkpt>
      <trkpt lat="41.6710110" lon="-0.9201040">
        <ele>199.7</ele>
        <time>2019-01-01T14:23:05Z</time>
      </trkpt>
      <trkpt lat="41.6709800" lon="-0.9201480">
        <ele>199.7</ele>
        <time>2019-01-01T14:23:06Z</time>
      </trkpt>
      <trkpt lat="41.6709470" lon="-0.9201920">
        <ele>199.8</ele>
        <time>2019-01-01T14:23:07Z</time>
      </trkpt>
      <trkpt lat="41.6708880" lon="-0.9202520">
        <ele>199.8</ele>
        <time>2019-01-01T14:23:08Z</time>
      </trkpt>
      <trkpt lat="41.6708470" lon="-0.9202880">
        <ele>199.9</ele>
        <time>2019-01-01T14:23:09Z</time>
      </trkpt>
      <trkpt lat="41.6707870" lon="-0.9203090">
        <ele>200.0</ele>
        <time>2019-01-01T14:23:10Z</time>
      </trkpt>
      <trkpt lat="41.6707250" lon="-0.9203410">
        <ele>200.1</ele>
        <time>2019-01-01T14:23:11Z</time>
      </trkpt>
      <trkpt lat="41.6706870" lon="-0.9204240">
        <ele>200.2</ele>
        <time>2019-01-01T14:23:12Z</time>
      </trkpt>
      <trkpt lat="41.6706770" lon="-0.9204750">
        <ele>200.2</ele>
        <time>2019-01-01T14:23:13Z</time>
      </trkpt>
      <trkpt lat="41.6706410" lon="-0.9205110">
        <ele>200.3</ele>
        <time>2019-01-01T14:23:14Z</time>
      </trkpt>
      <trkpt lat="41.6706100" lon="-0.9205570">
        <ele>200.4</ele>
        <time>2019-01-01T14:23:15Z</time>
      </trkpt>
      <trkpt lat="41.6705840" lon="-0.9206010">
        <ele>200.4</ele>
        <time>2019-01-01T14:23:16Z</time>
      </trkpt>
      <trkpt lat="41.6705460" lon="-0.9206460">
        <ele>200.5</ele>
        <time>2019-01-01T14:23:17Z</time>
      </trkpt>
      <trkpt lat="41.6704830" lon="-0.9206910">
        <ele>200.6</ele>
        <time>2019-01-01T14:23:18Z</time>
      </trkpt>
      <trkpt lat="41.6704430" lon="-0.9207320">
        <ele>200.6</ele>
        <time>2019-01-01T14:23:19Z</time>
      </trkpt>
      <trkpt lat="41.6704030" lon="-0.9207740">
        <ele>200.7</ele>
        <time>2019-01-01T14:23:20Z</time>
      </trkpt>
      <trkpt lat="41.6703720" lon="-0.9208190">
        <ele>200.8</ele>
        <time>2019-01-01T14:23:21Z</time>
      </trkpt>
      <trkpt lat="41.6703070" lon="-0.9208670">
        <ele>200.9</ele>
        <time>2019-01-01T14:23:22Z</time>
      </trkpt>
      <trkpt lat="41.6702790" lon="-0.9208980">
        <ele>200.9</ele>
        <time>2019-01-01T14:23:23Z</time>
      </trkpt>
      <trkpt lat="41.6702520" lon="-0.9209450">
        <ele>201.0</ele>
        <time>2019-01-01T14:23:24Z</time>
      </trkpt>
      <trkpt lat="41.6701840" lon="-0.9209900">
        <ele>201.1</ele>
        <time>2019-01-01T14:23:25Z</time>
      </trkpt>
      <trkpt lat="41.6701500" lon="-0.9210350">
        <ele>201.2</ele>
        <time>2019-01-01T14:23:26Z</time>
      </trkpt>
      <trkpt lat="41.6701020" lon="-0.9210720">
        <ele>201.3</ele>
        <time>2019-01-01T14:23:27Z</time>
      </trkpt>
      <trkpt lat="41.6700640" lon="-0.9210950">
        <ele>201.3</ele>
        <time>2019-01-01T14:23:28Z</time>
      </trkpt>
      <trkpt lat="41.6700310" lon="-0.9211360">
        <ele>201.4</ele>
        <time>2019-01-01T14:23:29Z</time>
      </trkpt>
      <trkpt lat="41.6700140" lon="-0.9211720">
        <ele>201.4</ele>
        <time>2019-01-01T14:23:30Z</time>
      </trkpt>
      <trkpt lat="41.6699590" lon="-0.9212120">
        <ele>201.5</ele>
        <time>2019-01-01T14:23:31Z</time>
      </trkpt>
      <trkpt lat="41.6698920" lon="-0.9212370">
        <ele>201.5</ele>
        <time>2019-01-01T14:23:32Z</time>
      </trkpt>
      <trkpt lat="41.6698570" lon="-0.9212820">
        <ele>201.6</ele>
        <time>2019-01-01T14:23:33Z</time>
      </trkpt>
      <trkpt lat="41.6698250" lon="-0.9213100">
        <ele>201.6</ele>
        <time>2019-01-01T14:23:34Z</time>
      </trkpt>
      <trkpt lat="41.6697870" lon="-0.9213370">
        <ele>201.6</ele>
        <time>2019-01-01T14:23:35Z</time>
      </trkpt>
      <trkpt lat="41.6697470" lon="-0.9213640">
        <ele>201.7</ele>
        <time>2019-01-01T14:23:36Z</time>
      </trkpt>
      <trkpt lat="41.6697180" lon="-0.9214030">
        <ele>201.7</ele>
        <time>2019-01-01T14:23:37Z</time>
      </trkpt>
      <trkpt lat="41.6696710" lon="-0.9214260">
        <ele>201.8</ele>
        <time>2019-01-01T14:23:38Z</time>
      </trkpt>
      <trkpt lat="41.6696030" lon="-0.9214540">
        <ele>201.8</ele>
        <time>2019-01-01T14:23:39Z</time>
      </trkpt>
      <trkpt lat="41.6695640" lon="-0.9214810">
        <ele>201.9</ele>
        <time>2019-01-01T14:23:40Z</time>
      </trkpt>
      <trkpt lat="41.6695270" lon="-0.9215000">
        <ele>201.9</ele>
        <time>2019-01-01T14:23:41Z</time>
      </trkpt>
      <trkpt lat="41.6694860" lon="-0.9215270">
        <ele>202.0</ele>
        <time>2019-01-01T14:23:42Z</time>
      </trkpt>
      <trkpt lat="41.6694480" lon="-0.9215470">
        <ele>202.0</ele>
        <time>2019-01-01T14:23:43Z</time>
      </trkpt>
      <trkpt lat="41.6694030" lon="-0.9215750">
        <ele>202.1</ele>
        <time>2019-01-01T14:23:44Z</time>
      </trkpt>
      <trkpt lat="41.6693750" lon="-0.9216140">
        <ele>202.1</ele>
        <time>2019-01-01T14:23:45Z</time>
      </trkpt>
      <trkpt lat="41.6693390" lon="-0.9216530">
        <ele>202.2</ele>
        <time>2019-01-01T14:23:46Z</time>
      </trkpt>
      <trkpt lat="41.6693030" lon="-0.9217080">
        <ele>202.2</ele>
        <time>2019-01-01T14:23:47Z</time>
      </trkpt>
      <trkpt lat="41.6692640" lon="-0.9217460">
        <ele>202.3</ele>
        <time>2019-01-01T14:23:48Z</time>
      </trkpt>
      <trkpt lat="41.6692150" lon="-0.9217620">
        <ele>202.3</ele>
        <time>2019-01-01T14:23:49Z</time>
      </trkpt>
      <trkpt lat="41.6691340" lon="-0.9217740">
        <ele>202.4</ele>
        <time>2019-01-01T14:23:50Z</time>
      </trkpt>
      <trkpt lat="41.6690870" lon="-0.9218020">
        <ele>202.4</ele>
        <time>2019-01-01T14:23:51Z</time>
      </trkpt>
      <trkpt lat="41.6690440" lon="-0.9218260">
        <ele>202.5</ele>
        <time>2019-01-01T14:23:52Z</time>
      </trkpt>
      <trkpt lat="41.6689830" lon="-0.9218420">
        <ele>202.6</ele>
        <time>2019-01-01T14:23:53Z</time>
      </trkpt>
      <trkpt lat="41.6689430" lon="-0.9218570">
        <ele>202.6</ele>
        <time>2019-01-01T14:23:54Z</time>
      </trkpt>
      <trkpt lat="41.6689050" lon="-0.9219050">
        <ele>202.7</ele>
        <time>2019-01-01T14:23:55Z</time>
      </trkpt>
      <trkpt lat="41.6688320" lon="-0.9219110">
        <ele>202.8</ele>
        <time>2019-01-01T14:23:56Z</time>
      </trkpt>
      <trkpt lat="41.6687890" lon="-0.9219140">
        <ele>202.8</ele>
        <time>2019-01-01T14:23:57Z</time>
      </trkpt>
      <trkpt lat="41.6687440" lon="-0.9219250">
        <ele>202.9</ele>
        <time>2019-01-01T14:23:58Z</time>
      </trkpt>
      <trkpt lat="41.6686990" lon="-0.9219630">
        <ele>202.9</ele>
        <time>2019-01-01T14:23:59Z</time>
      </trkpt>
      <trkpt lat="41.6686300" lon="-0.9219730">
        <ele>203.0</ele>
        <time>2019-01-01T14:24:00Z</time>
      </trkpt>
      <trkpt lat="41.6685860" lon="-0.9219920">
        <ele>203.0</ele>
        <time>2019-01-01T14:24:01Z</time>
      </trkpt>
      <trkpt lat="41.6685410" lon="-0.9220070">
        <ele>203.1</ele>
        <time>2019-01-01T14:24:02Z</time>
      </trkpt>
      <trkpt lat="41.6684870" lon="-0.9220220">
        <ele>203.1</ele>
        <time>2019-01-01T14:24:03Z</time>
      </trkpt>
      <trkpt lat="41.6684550" lon="-0.9220550">
        <ele>203.1</ele>
        <time>2019-01-01T14:24:04Z</time>
      </trkpt>
      <trkpt lat="41.6683780" lon="-0.9220740">
        <ele>203.1</ele>
        <time>2019-01-01T14:24:05Z</time>
      </trkpt>
      <trkpt lat="41.6683140" lon="-0.9220960">
        <ele>203.1</ele>
        <time>2019-01-01T14:24:06Z</time>
      </trkpt>
      <trkpt lat="41.6682640" lon="-0.9221070">
        <ele>203.1</ele>
        <time>2019-01-01T14:24:07Z</time>
      </trkpt>
      <trkpt lat="41.6682140" lon="-0.9221170">
        <ele>203.1</ele>
        <time>2019-01-01T14:24:08Z</time>
      </trkpt>
      <trkpt lat="41.6681480" lon="-0.9221320">
        <ele>203.1</ele>
        <time>2019-01-01T14:24:09Z</time>
      </trkpt>
      <trkpt lat="41.6681090" lon="-0.9221690">
        <ele>203.1</ele>
        <time>2019-01-01T14:24:10Z</time>
      </trkpt>
      <trkpt lat="41.6680580" lon="-0.9221870">
        <ele>202.9</ele>
        <time>2019-01-01T14:24:12Z</time>
      </trkpt>
      <trkpt lat="41.6680200" lon="-0.9222010">
        <ele>202.5</ele>
        <time>2019-01-01T14:24:13Z</time>
      </trkpt>
      <trkpt lat="41.6679680" lon="-0.9222090">
        <ele>201.9</ele>
        <time>2019-01-01T14:24:14Z</time>
      </trkpt>
      <trkpt lat="41.6679440" lon="-0.9222290">
        <ele>201.7</ele>
        <time>2019-01-01T14:24:15Z</time>
      </trkpt>
      <trkpt lat="41.6678920" lon="-0.9222350">
        <ele>201.1</ele>
        <time>2019-01-01T14:24:16Z</time>
      </trkpt>
      <trkpt lat="41.6678580" lon="-0.9222330">
        <ele>200.8</ele>
        <time>2019-01-01T14:24:17Z</time>
      </trkpt>
      <trkpt lat="41.6678130" lon="-0.9222480">
        <ele>200.4</ele>
        <time>2019-01-01T14:24:18Z</time>
      </trkpt>
      <trkpt lat="41.6677360" lon="-0.9222560">
        <ele>199.8</ele>
        <time>2019-01-01T14:24:19Z</time>
      </trkpt>
      <trkpt lat="41.6676750" lon="-0.9222580">
        <ele>199.4</ele>
        <time>2019-01-01T14:24:20Z</time>
      </trkpt>
      <trkpt lat="41.6676220" lon="-0.9222560">
        <ele>199.0</ele>
        <time>2019-01-01T14:24:21Z</time>
      </trkpt>
      <trkpt lat="41.6675780" lon="-0.9222430">
        <ele>198.7</ele>
        <time>2019-01-01T14:24:22Z</time>
      </trkpt>
      <trkpt lat="41.6675150" lon="-0.9222330">
        <ele>198.3</ele>
        <time>2019-01-01T14:24:23Z</time>
      </trkpt>
      <trkpt lat="41.6674710" lon="-0.9222190">
        <ele>198.1</ele>
        <time>2019-01-01T14:24:24Z</time>
      </trkpt>
      <trkpt lat="41.6674210" lon="-0.9222070">
        <ele>197.9</ele>
        <time>2019-01-01T14:24:25Z</time>
      </trkpt>
      <trkpt lat="41.6673820" lon="-0.9221810">
        <ele>197.7</ele>
        <time>2019-01-01T14:24:26Z</time>
      </trkpt>
      <trkpt lat="41.6673390" lon="-0.9221640">
        <ele>197.6</ele>
        <time>2019-01-01T14:24:27Z</time>
      </trkpt>
      <trkpt lat="41.6672830" lon="-0.9221440">
        <ele>197.4</ele>
        <time>2019-01-01T14:24:28Z</time>
      </trkpt>
      <trkpt lat="41.6672320" lon="-0.9221340">
        <ele>197.2</ele>
        <time>2019-01-01T14:24:29Z</time>
      </trkpt>
      <trkpt lat="41.6671770" lon="-0.9221340">
        <ele>197.0</ele>
        <time>2019-01-01T14:24:30Z</time>
      </trkpt>
      <trkpt lat="41.6671190" lon="-0.9221390">
        <ele>196.9</ele>
        <time>2019-01-01T14:24:31Z</time>
      </trkpt>
      <trkpt lat="41.6670750" lon="-0.9221400">
        <ele>196.8</ele>
        <time>2019-01-01T14:24:32Z</time>
      </trkpt>
      <trkpt lat="41.6670220" lon="-0.9221310">
        <ele>196.6</ele>
        <time>2019-01-01T14:24:33Z</time>
      </trkpt>
      <trkpt lat="41.6669750" lon="-0.9221260">
        <ele>196.5</ele>
        <time>2019-01-01T14:24:34Z</time>
      </trkpt>
      <trkpt lat="41.6669320" lon="-0.9221150">
        <ele>196.4</ele>
        <time>2019-01-01T14:24:35Z</time>
      </trkpt>
      <trkpt lat="41.6668850" lon="-0.9221090">
        <ele>196.3</ele>
        <time>2019-01-01T14:24:36Z</time>
      </trkpt>
      <trkpt lat="41.6668320" lon="-0.9220970">
        <ele>196.2</ele>
        <time>2019-01-01T14:24:37Z</time>
      </trkpt>
      <trkpt lat="41.6667830" lon="-0.9220820">
        <ele>196.0</ele>
        <time>2019-01-01T14:24:38Z</time>
      </trkpt>
      <trkpt lat="41.6667440" lon="-0.9220650">
        <ele>195.9</ele>
        <time>2019-01-01T14:24:39Z</time>
      </trkpt>
      <trkpt lat="41.6666930" lon="-0.9220480">
        <ele>195.4</ele>
        <time>2019-01-01T14:24:40Z</time>
      </trkpt>
      <trkpt lat="41.6666410" lon="-0.9220290">
        <ele>194.7</ele>
        <time>2019-01-01T14:24:41Z</time>
      </trkpt>
      <trkpt lat="41.6665950" lon="-0.9220180">
        <ele>195.1</ele>
        <time>2019-01-01T14:24:42Z</time>
      </trkpt>
      <trkpt lat="41.6665470" lon="-0.9220000">
        <ele>195.5</ele>
        <time>2019-01-01T14:24:43Z</time>
      </trkpt>
      <trkpt lat="41.6664860" lon="-0.9219830">
        <ele>195.9</ele>
        <time>2019-01-01T14:24:44Z</time>
      </trkpt>
      <trkpt lat="41.6664390" lon="-0.9219720">
        <ele>196.2</ele>
        <time>2019-01-01T14:24:45Z</time>
      </trkpt>
      <trkpt lat="41.6663820" lon="-0.9219560">
        <ele>196.5</ele>
        <time>2019-01-01T14:24:46Z</time>
      </trkpt>
      <trkpt lat="41.6663360" lon="-0.9219510">
        <ele>196.7</ele>
        <time>2019-01-01T14:24:47Z</time>
      </trkpt>
      <trkpt lat="41.6662890" lon="-0.9219400">
        <ele>196.9</ele>
        <time>2019-01-01T14:24:48Z</time>
      </trkpt>
      <trkpt lat="41.6662430" lon="-0.9219350">
        <ele>197.1</ele>
        <time>2019-01-01T14:24:49Z</time>
      </trkpt>
      <trkpt lat="41.6661860" lon="-0.9219400">
        <ele>197.2</ele>
        <time>2019-01-01T14:24:50Z</time>
      </trkpt>
      <trkpt lat="41.6661360" lon="-0.9219290">
        <ele>197.4</ele>
        <time>2019-01-01T14:24:51Z</time>
      </trkpt>
      <trkpt lat="41.6660890" lon="-0.9219110">
        <ele>197.5</ele>
        <time>2019-01-01T14:24:52Z</time>
      </trkpt>
      <trkpt lat="41.6660460" lon="-0.9218900">
        <ele>197.6</ele>
        <time>2019-01-01T14:24:53Z</time>
      </trkpt>
      <trkpt lat="41.6659940" lon="-0.9218630">
        <ele>197.8</ele>
        <time>2019-01-01T14:24:54Z</time>
      </trkpt>
      <trkpt lat="41.6659570" lon="-0.9218200">
        <ele>197.9</ele>
        <time>2019-01-01T14:24:55Z</time>
      </trkpt>
      <trkpt lat="41.6659220" lon="-0.9217960">
        <ele>198.0</ele>
        <time>2019-01-01T14:24:56Z</time>
      </trkpt>
      <trkpt lat="41.6658850" lon="-0.9217740">
        <ele>198.1</ele>
        <time>2019-01-01T14:24:57Z</time>
      </trkpt>
      <trkpt lat="41.6658420" lon="-0.9217280">
        <ele>198.2</ele>
        <time>2019-01-01T14:24:58Z</time>
      </trkpt>
      <trkpt lat="41.6658020" lon="-0.9216820">
        <ele>198.2</ele>
        <time>2019-01-01T14:24:59Z</time>
      </trkpt>
      <trkpt lat="41.6657600" lon="-0.9216470">
        <ele>198.2</ele>
        <time>2019-01-01T14:25:00Z</time>
      </trkpt>
      <trkpt lat="41.6657240" lon="-0.9216030">
        <ele>197.7</ele>
        <time>2019-01-01T14:25:01Z</time>
      </trkpt>
      <trkpt lat="41.6656870" lon="-0.9215530">
        <ele>197.2</ele>
        <time>2019-01-01T14:25:02Z</time>
      </trkpt>
      <trkpt lat="41.6656520" lon="-0.9215060">
        <ele>196.8</ele>
        <time>2019-01-01T14:25:03Z</time>
      </trkpt>
      <trkpt lat="41.6656090" lon="-0.9214320">
        <ele>196.1</ele>
        <time>2019-01-01T14:25:04Z</time>
      </trkpt>
      <trkpt lat="41.6655760" lon="-0.9213700">
        <ele>195.6</ele>
        <time>2019-01-01T14:25:05Z</time>
      </trkpt>
      <trkpt lat="41.6655480" lon="-0.9213080">
        <ele>195.1</ele>
        <time>2019-01-01T14:25:06Z</time>
      </trkpt>
      <trkpt lat="41.6655180" lon="-0.9212890">
        <ele>195.1</ele>
        <time>2019-01-01T14:25:07Z</time>
      </trkpt>
      <trkpt lat="41.6654710" lon="-0.9212630">
        <ele>195.2</ele>
        <time>2019-01-01T14:25:08Z</time>
      </trkpt>
      <trkpt lat="41.6654190" lon="-0.9212130">
        <ele>195.3</ele>
        <time>2019-01-01T14:25:09Z</time>
      </trkpt>
      <trkpt lat="41.6653730" lon="-0.9211700">
        <ele>195.4</ele>
        <time>2019-01-01T14:25:10Z</time>
      </trkpt>
      <trkpt lat="41.6653310" lon="-0.9211430">
        <ele>195.4</ele>
        <time>2019-01-01T14:25:11Z</time>
      </trkpt>
      <trkpt lat="41.6652930" lon="-0.9211090">
        <ele>195.4</ele>
        <time>2019-01-01T14:25:12Z</time>
      </trkpt>
      <trkpt lat="41.6652470" lon="-0.9210650">
        <ele>195.4</ele>
        <time>2019-01-01T14:25:13Z</time>
      </trkpt>
      <trkpt lat="41.6652120" lon="-0.9210060">
        <ele>195.4</ele>
        <time>2019-01-01T14:25:14Z</time>
      </trkpt>
      <trkpt lat="41.6651710" lon="-0.9209620">
        <ele>195.4</ele>
        <time>2019-01-01T14:25:15Z</time>
      </trkpt>
      <trkpt lat="41.6651310" lon="-0.9209210">
        <ele>195.5</ele>
        <time>2019-01-01T14:25:16Z</time>
      </trkpt>
      <trkpt lat="41.6650930" lon="-0.9208600">
        <ele>195.5</ele>
        <time>2019-01-01T14:25:17Z</time>
      </trkpt>
      <trkpt lat="41.6650610" lon="-0.9207960">
        <ele>195.5</ele>
        <time>2019-01-01T14:25:18Z</time>
      </trkpt>
      <trkpt lat="41.6650340" lon="-0.9207480">
        <ele>195.5</ele>
        <time>2019-01-01T14:25:19Z</time>
      </trkpt>
      <trkpt lat="41.6649890" lon="-0.9207030">
        <ele>195.6</ele>
        <time>2019-01-01T14:25:21Z</time>
      </trkpt>
      <trkpt lat="41.6649440" lon="-0.9206480">
        <ele>195.6</ele>
        <time>2019-01-01T14:25:22Z</time>
      </trkpt>
      <trkpt lat="41.6648850" lon="-0.9205520">
        <ele>194.9</ele>
        <time>2019-01-01T14:25:23Z</time>
      </trkpt>
      <trkpt lat="41.6648330" lon="-0.9204950">
        <ele>194.7</ele>
        <time>2019-01-01T14:25:24Z</time>
      </trkpt>
      <trkpt lat="41.6647930" lon="-0.9204500">
        <ele>194.6</ele>
        <time>2019-01-01T14:25:25Z</time>
      </trkpt>
      <trkpt lat="41.6647480" lon="-0.9203580">
        <ele>194.4</ele>
        <time>2019-01-01T14:25:26Z</time>
      </trkpt>
      <trkpt lat="41.6647080" lon="-0.9203110">
        <ele>194.4</ele>
        <time>2019-01-01T14:25:27Z</time>
      </trkpt>
      <trkpt lat="41.6646840" lon="-0.9202240">
        <ele>194.3</ele>
        <time>2019-01-01T14:25:28Z</time>
      </trkpt>
      <trkpt lat="41.6646600" lon="-0.9201730">
        <ele>194.3</ele>
        <time>2019-01-01T14:25:29Z</time>
      </trkpt>
      <trkpt lat="41.6646270" lon="-0.9201200">
        <ele>194.3</ele>
        <time>2019-01-01T14:25:30Z</time>
      </trkpt>
      <trkpt lat="41.6645820" lon="-0.9200600">
        <ele>194.5</ele>
        <time>2019-01-01T14:25:31Z</time>
      </trkpt>
      <trkpt lat="41.6645420" lon="-0.9200100">
        <ele>194.6</ele>
        <time>2019-01-01T14:25:32Z</time>
      </trkpt>
      <trkpt lat="41.6645140" lon="-0.9199680">
        <ele>194.7</ele>
        <time>2019-01-01T14:25:33Z</time>
      </trkpt>
      <trkpt lat="41.6644880" lon="-0.9199070">
        <ele>194.9</ele>
        <time>2019-01-01T14:25:34Z</time>
      </trkpt>
      <trkpt lat="41.6644590" lon="-0.9198660">
        <ele>195.1</ele>
        <time>2019-01-01T14:25:35Z</time>
      </trkpt>
      <trkpt lat="41.6644250" lon="-0.9198250">
        <ele>195.3</ele>
        <time>2019-01-01T14:25:36Z</time>
      </trkpt>
      <trkpt lat="41.6644040" lon="-0.9197720">
        <ele>195.6</ele>
        <time>2019-01-01T14:25:37Z</time>
      </trkpt>
      <trkpt lat="41.6643870" lon="-0.9197190">
        <ele>195.8</ele>
        <time>2019-01-01T14:25:38Z</time>
      </trkpt>
      <trkpt lat="41.6643660" lon="-0.9196680">
        <ele>196.0</ele>
        <time>2019-01-01T14:25:39Z</time>
      </trkpt>
      <trkpt lat="41.6643400" lon="-0.9196060">
        <ele>196.3</ele>
        <time>2019-01-01T14:25:40Z</time>
      </trkpt>
      <trkpt lat="41.6643030" lon="-0.9195410">
        <ele>196.4</ele>
        <time>2019-01-01T14:25:41Z</time>
      </trkpt>
      <trkpt lat="41.6642710" lon="-0.9194870">
        <ele>196.4</ele>
        <time>2019-01-01T14:25:42Z</time>
      </trkpt>
      <trkpt lat="41.6642500" lon="-0.9194460">
        <ele>196.3</ele>
        <time>2019-01-01T14:25:43Z</time>
      </trkpt>
      <trkpt lat="41.6642220" lon="-0.9193750">
        <ele>196.3</ele>
        <time>2019-01-01T14:25:44Z</time>
      </trkpt>
      <trkpt lat="41.6642020" lon="-0.9192940">
        <ele>196.3</ele>
        <time>2019-01-01T14:25:45Z</time>
      </trkpt>
      <trkpt lat="41.6641860" lon="-0.9192210">
        <ele>196.3</ele>
        <time>2019-01-01T14:25:46Z</time>
      </trkpt>
      <trkpt lat="41.6641710" lon="-0.9191500">
        <ele>196.3</ele>
        <time>2019-01-01T14:25:47Z</time>
      </trkpt>
      <trkpt lat="41.6641480" lon="-0.9190890">
        <ele>196.3</ele>
        <time>2019-01-01T14:25:48Z</time>
      </trkpt>
      <trkpt lat="41.6641240" lon="-0.9190270">
        <ele>196.3</ele>
        <time>2019-01-01T14:25:49Z</time>
      </trkpt>
      <trkpt lat="41.6641080" lon="-0.9189440">
        <ele>196.3</ele>
        <time>2019-01-01T14:25:50Z</time>
      </trkpt>
      <trkpt lat="41.6640960" lon="-0.9188860">
        <ele>196.3</ele>
        <time>2019-01-01T14:25:51Z</time>
      </trkpt>
      <trkpt lat="41.6640800" lon="-0.9188060">
        <ele>196.3</ele>
        <time>2019-01-01T14:25:52Z</time>
      </trkpt>
      <trkpt lat="41.6640580" lon="-0.9187560">
        <ele>196.2</ele>
        <time>2019-01-01T14:25:53Z</time>
      </trkpt>
      <trkpt lat="41.6640430" lon="-0.9186940">
        <ele>196.2</ele>
        <time>2019-01-01T14:25:54Z</time>
      </trkpt>
      <trkpt lat="41.6640330" lon="-0.9186480">
        <ele>196.2</ele>
        <time>2019-01-01T14:25:55Z</time>
      </trkpt>
      <trkpt lat="41.6640030" lon="-0.9185260">
        <ele>196.0</ele>
        <time>2019-01-01T14:25:56Z</time>
      </trkpt>
      <trkpt lat="41.6639870" lon="-0.9184220">
        <ele>195.8</ele>
        <time>2019-01-01T14:25:58Z</time>
      </trkpt>
      <trkpt lat="41.6639620" lon="-0.9183260">
        <ele>195.5</ele>
        <time>2019-01-01T14:25:59Z</time>
      </trkpt>
      <trkpt lat="41.6639470" lon="-0.9182710">
        <ele>195.4</ele>
        <time>2019-01-01T14:26:00Z</time>
      </trkpt>
      <trkpt lat="41.6639070" lon="-0.9181350">
        <ele>194.9</ele>
        <time>2019-01-01T14:26:01Z</time>
      </trkpt>
      <trkpt lat="41.6639090" lon="-0.9180590">
        <ele>194.7</ele>
        <time>2019-01-01T14:26:02Z</time>
      </trkpt>
      <trkpt lat="41.6639190" lon="-0.9180120">
        <ele>194.6</ele>
        <time>2019-01-01T14:26:03Z</time>
      </trkpt>
      <trkpt lat="41.6639160" lon="-0.9179580">
        <ele>194.5</ele>
        <time>2019-01-01T14:26:04Z</time>
      </trkpt>
      <trkpt lat="41.6639230" lon="-0.9178800">
        <ele>194.4</ele>
        <time>2019-01-01T14:26:05Z</time>
      </trkpt>
      <trkpt lat="41.6639440" lon="-0.9177800">
        <ele>194.3</ele>
        <time>2019-01-01T14:26:06Z</time>
      </trkpt>
      <trkpt lat="41.6639470" lon="-0.9176630">
        <ele>194.2</ele>
        <time>2019-01-01T14:26:07Z</time>
      </trkpt>
      <trkpt lat="41.6639560" lon="-0.9175810">
        <ele>194.2</ele>
        <time>2019-01-01T14:26:08Z</time>
      </trkpt>
      <trkpt lat="41.6639440" lon="-0.9175090">
        <ele>194.1</ele>
        <time>2019-01-01T14:26:09Z</time>
      </trkpt>
      <trkpt lat="41.6639560" lon="-0.9174470">
        <ele>194.1</ele>
        <time>2019-01-01T14:26:10Z</time>
      </trkpt>
      <trkpt lat="41.6639480" lon="-0.9173730">
        <ele>194.1</ele>
        <time>2019-01-01T14:26:11Z</time>
      </trkpt>
      <trkpt lat="41.6639500" lon="-0.9173060">
        <ele>194.1</ele>
        <time>2019-01-01T14:26:12Z</time>
      </trkpt>
      <trkpt lat="41.6639520" lon="-0.9172250">
        <ele>194.1</ele>
        <time>2019-01-01T14:26:13Z</time>
      </trkpt>
      <trkpt lat="41.6639420" lon="-0.9171490">
        <ele>194.1</ele>
        <time>2019-01-01T14:26:14Z</time>
      </trkpt>
      <trkpt lat="41.6639620" lon="-0.9170960">
        <ele>194.1</ele>
        <time>2019-01-01T14:26:15Z</time>
      </trkpt>
      <trkpt lat="41.6639540" lon="-0.9170370">
        <ele>194.1</ele>
        <time>2019-01-01T14:26:16Z</time>
      </trkpt>
      <trkpt lat="41.6639310" lon="-0.9169580">
        <ele>194.1</ele>
        <time>2019-01-01T14:26:17Z</time>
      </trkpt>
      <trkpt lat="41.6639040" lon="-0.9168940">
        <ele>194.1</ele>
        <time>2019-01-01T14:26:18Z</time>
      </trkpt>
      <trkpt lat="41.6638810" lon="-0.9168240">
        <ele>194.1</ele>
        <time>2019-01-01T14:26:19Z</time>
      </trkpt>
      <trkpt lat="41.6638710" lon="-0.9167640">
        <ele>194.1</ele>
        <time>2019-01-01T14:26:20Z</time>
      </trkpt>
      <trkpt lat="41.6638750" lon="-0.9166790">
        <ele>194.0</ele>
        <time>2019-01-01T14:26:21Z</time>
      </trkpt>
      <trkpt lat="41.6638640" lon="-0.9166190">
        <ele>194.0</ele>
        <time>2019-01-01T14:26:22Z</time>
      </trkpt>
      <trkpt lat="41.6638590" lon="-0.9165770">
        <ele>194.0</ele>
        <time>2019-01-01T14:26:23Z</time>
      </trkpt>
      <trkpt lat="41.6638660" lon="-0.9164680">
        <ele>194.0</ele>
        <time>2019-01-01T14:26:24Z</time>
      </trkpt>
      <trkpt lat="41.6638740" lon="-0.9163920">
        <ele>194.0</ele>
        <time>2019-01-01T14:26:25Z</time>
      </trkpt>
      <trkpt lat="41.6638830" lon="-0.9163230">
        <ele>194.0</ele>
        <time>2019-01-01T14:26:26Z</time>
      </trkpt>
      <trkpt lat="41.6638760" lon="-0.9162360">
        <ele>194.0</ele>
        <time>2019-01-01T14:26:27Z</time>
      </trkpt>
      <trkpt lat="41.6638760" lon="-0.9161580">
        <ele>194.0</ele>
        <time>2019-01-01T14:26:28Z</time>
      </trkpt>
      <trkpt lat="41.6638740" lon="-0.9161030">
        <ele>194.0</ele>
        <time>2019-01-01T14:26:29Z</time>
      </trkpt>
      <trkpt lat="41.6638900" lon="-0.9160490">
        <ele>194.0</ele>
        <time>2019-01-01T14:26:30Z</time>
      </trkpt>
      <trkpt lat="41.6638820" lon="-0.9159830">
        <ele>194.0</ele>
        <time>2019-01-01T14:26:31Z</time>
      </trkpt>
      <trkpt lat="41.6638690" lon="-0.9159130">
        <ele>194.0</ele>
        <time>2019-01-01T14:26:32Z</time>
      </trkpt>
      <trkpt lat="41.6638630" lon="-0.9158570">
        <ele>194.0</ele>
        <time>2019-01-01T14:26:33Z</time>
      </trkpt>
      <trkpt lat="41.6638510" lon="-0.9157770">
        <ele>193.9</ele>
        <time>2019-01-01T14:26:34Z</time>
      </trkpt>
      <trkpt lat="41.6638420" lon="-0.9156450">
        <ele>193.9</ele>
        <time>2019-01-01T14:26:35Z</time>
      </trkpt>
      <trkpt lat="41.6638330" lon="-0.9155860">
        <ele>193.9</ele>
        <time>2019-01-01T14:26:36Z</time>
      </trkpt>
      <trkpt lat="41.6638390" lon="-0.9155220">
        <ele>193.9</ele>
        <time>2019-01-01T14:26:37Z</time>
      </trkpt>
      <trkpt lat="41.6638490" lon="-0.9154420">
        <ele>193.9</ele>
        <time>2019-01-01T14:26:38Z</time>
      </trkpt>
      <trkpt lat="41.6638430" lon="-0.9153910">
        <ele>193.9</ele>
        <time>2019-01-01T14:26:39Z</time>
      </trkpt>
      <trkpt lat="41.6638490" lon="-0.9153320">
        <ele>193.9</ele>
        <time>2019-01-01T14:26:40Z</time>
      </trkpt>
      <trkpt lat="41.6638430" lon="-0.9152600">
        <ele>193.9</ele>
        <time>2019-01-01T14:26:41Z</time>
      </trkpt>
      <trkpt lat="41.6638420" lon="-0.9152150">
        <ele>193.8</ele>
        <time>2019-01-01T14:26:42Z</time>
      </trkpt>
      <trkpt lat="41.6638480" lon="-0.9151200">
        <ele>193.7</ele>
        <time>2019-01-01T14:26:43Z</time>
      </trkpt>
      <trkpt lat="41.6638470" lon="-0.9150620">
        <ele>193.7</ele>
        <time>2019-01-01T14:26:44Z</time>
      </trkpt>
      <trkpt lat="41.6638460" lon="-0.9149720">
        <ele>193.6</ele>
        <time>2019-01-01T14:26:45Z</time>
      </trkpt>
      <trkpt lat="41.6638570" lon="-0.9148970">
        <ele>193.5</ele>
        <time>2019-01-01T14:26:46Z</time>
      </trkpt>
      <trkpt lat="41.6638570" lon="-0.9148260">
        <ele>193.5</ele>
        <time>2019-01-01T14:26:47Z</time>
      </trkpt>
      <trkpt lat="41.6638270" lon="-0.9147700">
        <ele>193.4</ele>
        <time>2019-01-01T14:26:48Z</time>
      </trkpt>
      <trkpt lat="41.6638100" lon="-0.9147180">
        <ele>193.4</ele>
        <time>2019-01-01T14:26:49Z</time>
      </trkpt>
      <trkpt lat="41.6638350" lon="-0.9146180">
        <ele>193.3</ele>
        <time>2019-01-01T14:26:50Z</time>
      </trkpt>
      <trkpt lat="41.6638460" lon="-0.9145200">
        <ele>193.3</ele>
        <time>2019-01-01T14:26:51Z</time>
      </trkpt>
      <trkpt lat="41.6638440" lon="-0.9144570">
        <ele>193.3</ele>
        <time>2019-01-01T14:26:52Z</time>
      </trkpt>
      <trkpt lat="41.6638360" lon="-0.9143940">
        <ele>193.3</ele>
        <time>2019-01-01T14:26:53Z</time>
      </trkpt>
      <trkpt lat="41.6638400" lon="-0.9142750">
        <ele>193.2</ele>
        <time>2019-01-01T14:26:54Z</time>
      </trkpt>
      <trkpt lat="41.6638400" lon="-0.9142220">
        <ele>193.2</ele>
        <time>2019-01-01T14:26:55Z</time>
      </trkpt>
      <trkpt lat="41.6638300" lon="-0.9141610">
        <ele>193.2</ele>
        <time>2019-01-01T14:26:56Z</time>
      </trkpt>
      <trkpt lat="41.6638440" lon="-0.9140740">
        <ele>193.2</ele>
        <time>2019-01-01T14:26:57Z</time>
      </trkpt>
      <trkpt lat="41.6638590" lon="-0.9139930">
        <ele>193.2</ele>
        <time>2019-01-01T14:26:58Z</time>
      </trkpt>
      <trkpt lat="41.6638630" lon="-0.9139320">
        <ele>193.2</ele>
        <time>2019-01-01T14:26:59Z</time>
      </trkpt>
      <trkpt lat="41.6638620" lon="-0.9138580">
        <ele>193.2</ele>
        <time>2019-01-01T14:27:00Z</time>
      </trkpt>
      <trkpt lat="41.6638630" lon="-0.9138170">
        <ele>193.2</ele>
        <time>2019-01-01T14:27:01Z</time>
      </trkpt>
      <trkpt lat="41.6638810" lon="-0.9137350">
        <ele>193.2</ele>
        <time>2019-01-01T14:27:02Z</time>
      </trkpt>
      <trkpt lat="41.6638630" lon="-0.9136450">
        <ele>193.3</ele>
        <time>2019-01-01T14:27:03Z</time>
      </trkpt>
      <trkpt lat="41.6638750" lon="-0.9135790">
        <ele>193.3</ele>
        <time>2019-01-01T14:27:04Z</time>
      </trkpt>
      <trkpt lat="41.6638510" lon="-0.9135280">
        <ele>193.3</ele>
        <time>2019-01-01T14:27:06Z</time>
      </trkpt>
      <trkpt lat="41.6638770" lon="-0.9134710">
        <ele>193.3</ele>
        <time>2019-01-01T14:27:07Z</time>
      </trkpt>
      <trkpt lat="41.6638910" lon="-0.9133580">
        <ele>193.4</ele>
        <time>2019-01-01T14:27:08Z</time>
      </trkpt>
      <trkpt lat="41.6638970" lon="-0.9132680">
        <ele>193.4</ele>
        <time>2019-01-01T14:27:09Z</time>
      </trkpt>
      <trkpt lat="41.6639110" lon="-0.9131590">
        <ele>193.5</ele>
        <time>2019-01-01T14:27:10Z</time>
      </trkpt>
      <trkpt lat="41.6639020" lon="-0.9131090">
        <ele>193.5</ele>
        <time>2019-01-01T14:27:11Z</time>
      </trkpt>
      <trkpt lat="41.6639000" lon="-0.9130420">
        <ele>193.5</ele>
        <time>2019-01-01T14:27:12Z</time>
      </trkpt>
      <trkpt lat="41.6639090" lon="-0.9129180">
        <ele>193.6</ele>
        <time>2019-01-01T14:27:14Z</time>
      </trkpt>
      <trkpt lat="41.6639260" lon="-0.9128520">
        <ele>193.6</ele>
        <time>2019-01-01T14:27:15Z</time>
      </trkpt>
      <trkpt lat="41.6639290" lon="-0.9127500">
        <ele>193.6</ele>
        <time>2019-01-01T14:27:16Z</time>
      </trkpt>
      <trkpt lat="41.6639300" lon="-0.9127090">
        <ele>193.6</ele>
        <time>2019-01-01T14:27:17Z</time>
      </trkpt>
      <trkpt lat="41.6639370" lon="-0.9126230">
        <ele>193.6</ele>
        <time>2019-01-01T14:27:18Z</time>
      </trkpt>
      <trkpt lat="41.6639530" lon="-0.9125640">
        <ele>193.6</ele>
        <time>2019-01-01T14:27:19Z</time>
      </trkpt>
      <trkpt lat="41.6639610" lon="-0.9124980">
        <ele>193.6</ele>
        <time>2019-01-01T14:27:20Z</time>
      </trkpt>
      <trkpt lat="41.6639500" lon="-0.9124440">
        <ele>193.6</ele>
        <time>2019-01-01T14:27:21Z</time>
      </trkpt>
      <trkpt lat="41.6639630" lon="-0.9123730">
        <ele>193.5</ele>
        <time>2019-01-01T14:27:22Z</time>
      </trkpt>
      <trkpt lat="41.6639710" lon="-0.9122970">
        <ele>193.5</ele>
        <time>2019-01-01T14:27:23Z</time>
      </trkpt>
      <trkpt lat="41.6639880" lon="-0.9122420">
        <ele>193.5</ele>
        <time>2019-01-01T14:27:24Z</time>
      </trkpt>
      <trkpt lat="41.6640020" lon="-0.9121880">
        <ele>193.5</ele>
        <time>2019-01-01T14:27:25Z</time>
      </trkpt>
      <trkpt lat="41.6640040" lon="-0.9121330">
        <ele>193.5</ele>
        <time>2019-01-01T14:27:26Z</time>
      </trkpt>
      <trkpt lat="41.6640060" lon="-0.9120760">
        <ele>193.4</ele>
        <time>2019-01-01T14:27:27Z</time>
      </trkpt>
      <trkpt lat="41.6640040" lon="-0.9120020">
        <ele>193.4</ele>
        <time>2019-01-01T14:27:28Z</time>
      </trkpt>
      <trkpt lat="41.6640260" lon="-0.9119400">
        <ele>193.4</ele>
        <time>2019-01-01T14:27:29Z</time>
      </trkpt>
      <trkpt lat="41.6640530" lon="-0.9118580">
        <ele>193.4</ele>
        <time>2019-01-01T14:27:30Z</time>
      </trkpt>
      <trkpt lat="41.6640710" lon="-0.9117750">
        <ele>193.4</ele>
        <time>2019-01-01T14:27:31Z</time>
      </trkpt>
      <trkpt lat="41.6640990" lon="-0.9117040">
        <ele>193.4</ele>
        <time>2019-01-01T14:27:32Z</time>
      </trkpt>
      <trkpt lat="41.6641250" lon="-0.9116420">
        <ele>193.4</ele>
        <time>2019-01-01T14:27:33Z</time>
      </trkpt>
      <trkpt lat="41.6641150" lon="-0.9115950">
        <ele>193.4</ele>
        <time>2019-01-01T14:27:34Z</time>
      </trkpt>
      <trkpt lat="41.6641230" lon="-0.9114670">
        <ele>195.7</ele>
        <time>2019-01-01T14:27:36Z</time>
      </trkpt>
      <trkpt lat="41.6641790" lon="-0.9113670">
        <ele>196.3</ele>
        <time>2019-01-01T14:27:37Z</time>
      </trkpt>
      <trkpt lat="41.6642090" lon="-0.9112850">
        <ele>196.2</ele>
        <time>2019-01-01T14:27:38Z</time>
      </trkpt>
      <trkpt lat="41.6642170" lon="-0.9112290">
        <ele>196.2</ele>
        <time>2019-01-01T14:27:39Z</time>
      </trkpt>
      <trkpt lat="41.6642320" lon="-0.9111530">
        <ele>196.1</ele>
        <time>2019-01-01T14:27:40Z</time>
      </trkpt>
      <trkpt lat="41.6642310" lon="-0.9110400">
        <ele>196.1</ele>
        <time>2019-01-01T14:27:42Z</time>
      </trkpt>
      <trkpt lat="41.6642320" lon="-0.9109950">
        <ele>196.0</ele>
        <time>2019-01-01T14:27:43Z</time>
      </trkpt>
      <trkpt lat="41.6642560" lon="-0.9108940">
        <ele>196.0</ele>
        <time>2019-01-01T14:27:45Z</time>
      </trkpt>
      <trkpt lat="41.6642830" lon="-0.9108180">
        <ele>196.0</ele>
        <time>2019-01-01T14:27:46Z</time>
      </trkpt>
      <trkpt lat="41.6643150" lon="-0.9106500">
        <ele>196.0</ele>
        <time>2019-01-01T14:27:47Z</time>
      </trkpt>
      <trkpt lat="41.6643260" lon="-0.9106130">
        <ele>196.0</ele>
        <time>2019-01-01T14:27:48Z</time>
      </trkpt>
      <trkpt lat="41.6643570" lon="-0.9105350">
        <ele>195.9</ele>
        <time>2019-01-01T14:27:49Z</time>
      </trkpt>
      <trkpt lat="41.6643540" lon="-0.9104800">
        <ele>195.9</ele>
        <time>2019-01-01T14:27:50Z</time>
      </trkpt>
      <trkpt lat="41.6643850" lon="-0.9104370">
        <ele>195.9</ele>
        <time>2019-01-01T14:27:52Z</time>
      </trkpt>
      <trkpt lat="41.6643730" lon="-0.9103220">
        <ele>195.7</ele>
        <time>2019-01-01T14:27:53Z</time>
      </trkpt>
      <trkpt lat="41.6643750" lon="-0.9102780">
        <ele>195.6</ele>
        <time>2019-01-01T14:27:54Z</time>
      </trkpt>
      <trkpt lat="41.6644050" lon="-0.9102000">
        <ele>195.5</ele>
        <time>2019-01-01T14:27:55Z</time>
      </trkpt>
      <trkpt lat="41.6644070" lon="-0.9101500">
        <ele>195.4</ele>
        <time>2019-01-01T14:27:56Z</time>
      </trkpt>
      <trkpt lat="41.6644190" lon="-0.9101030">
        <ele>195.3</ele>
        <time>2019-01-01T14:27:57Z</time>
      </trkpt>
      <trkpt lat="41.6644460" lon="-0.9100470">
        <ele>195.3</ele>
        <time>2019-01-01T14:27:58Z</time>
      </trkpt>
      <trkpt lat="41.6644410" lon="-0.9100030">
        <ele>195.2</ele>
        <time>2019-01-01T14:27:59Z</time>
      </trkpt>
      <trkpt lat="41.6644510" lon="-0.9099540">
        <ele>195.2</ele>
        <time>2019-01-01T14:28:00Z</time>
      </trkpt>
      <trkpt lat="41.6644600" lon="-0.9098820">
        <ele>195.1</ele>
        <time>2019-01-01T14:28:01Z</time>
      </trkpt>
      <trkpt lat="41.6644840" lon="-0.9098280">
        <ele>195.1</ele>
        <time>2019-01-01T14:28:02Z</time>
      </trkpt>
      <trkpt lat="41.6645070" lon="-0.9097140">
        <ele>195.0</ele>
        <time>2019-01-01T14:28:03Z</time>
      </trkpt>
      <trkpt lat="41.6645240" lon="-0.9096390">
        <ele>195.0</ele>
        <time>2019-01-01T14:28:04Z</time>
      </trkpt>
      <trkpt lat="41.6645310" lon="-0.9095610">
        <ele>194.9</ele>
        <time>2019-01-01T14:28:05Z</time>
      </trkpt>
      <trkpt lat="41.6645450" lon="-0.9095220">
        <ele>194.9</ele>
        <time>2019-01-01T14:28:06Z</time>
      </trkpt>
      <trkpt lat="41.6645540" lon="-0.9094820">
        <ele>194.9</ele>
        <time>2019-01-01T14:28:08Z</time>
      </trkpt>
      <trkpt lat="41.6645750" lon="-0.9094150">
        <ele>194.9</ele>
        <time>2019-01-01T14:28:11Z</time>
      </trkpt>
      <trkpt lat="41.6645860" lon="-0.9093660">
        <ele>194.9</ele>
        <time>2019-01-01T14:28:12Z</time>
      </trkpt>
      <trkpt lat="41.6646100" lon="-0.9093230">
        <ele>194.9</ele>
        <time>2019-01-01T14:28:13Z</time>
      </trkpt>
      <trkpt lat="41.6646180" lon="-0.9092580">
        <ele>194.9</ele>
        <time>2019-01-01T14:28:15Z</time>
      </trkpt>
      <trkpt lat="41.6646240" lon="-0.9092030">
        <ele>194.9</ele>
        <time>2019-01-01T14:28:16Z</time>
      </trkpt>
      <trkpt lat="41.6645890" lon="-0.9091940">
        <ele>194.9</ele>
        <time>2019-01-01T14:28:17Z</time>
      </trkpt>
      <trkpt lat="41.6645640" lon="-0.9091690">
        <ele>194.9</ele>
        <time>2019-01-01T14:28:18Z</time>
      </trkpt>
      <trkpt lat="41.6645340" lon="-0.9091740">
        <ele>194.9</ele>
        <time>2019-01-01T14:28:19Z</time>
      </trkpt>
      <trkpt lat="41.6645090" lon="-0.9091920">
        <ele>194.9</ele>
        <time>2019-01-01T14:28:20Z</time>
      </trkpt>
      <trkpt lat="41.6644910" lon="-0.9092240">
        <ele>194.9</ele>
        <time>2019-01-01T14:28:21Z</time>
      </trkpt>
      <trkpt lat="41.6644830" lon="-0.9092670">
        <ele>194.9</ele>
        <time>2019-01-01T14:28:22Z</time>
      </trkpt>
      <trkpt lat="41.6644770" lon="-0.9093290">
        <ele>194.9</ele>
        <time>2019-01-01T14:28:23Z</time>
      </trkpt>
      <trkpt lat="41.6644720" lon="-0.9093930">
        <ele>194.9</ele>
        <time>2019-01-01T14:28:24Z</time>
      </trkpt>
      <trkpt lat="41.6644890" lon="-0.9094730">
        <ele>194.9</ele>
        <time>2019-01-01T14:28:25Z</time>
      </trkpt>
      <trkpt lat="41.6644790" lon="-0.9095370">
        <ele>195.0</ele>
        <time>2019-01-01T14:28:26Z</time>
      </trkpt>
      <trkpt lat="41.6644710" lon="-0.9096130">
        <ele>195.0</ele>
        <time>2019-01-01T14:28:27Z</time>
      </trkpt>
      <trkpt lat="41.6644630" lon="-0.9096790">
        <ele>195.0</ele>
        <time>2019-01-01T14:28:28Z</time>
      </trkpt>
      <trkpt lat="41.6644510" lon="-0.9097480">
        <ele>195.0</ele>
        <time>2019-01-01T14:28:29Z</time>
      </trkpt>
      <trkpt lat="41.6644370" lon="-0.9098090">
        <ele>195.0</ele>
        <time>2019-01-01T14:28:30Z</time>
      </trkpt>
      <trkpt lat="41.6644270" lon="-0.9098780">
        <ele>195.1</ele>
        <time>2019-01-01T14:28:31Z</time>
      </trkpt>
      <trkpt lat="41.6644130" lon="-0.9099270">
        <ele>195.1</ele>
        <time>2019-01-01T14:28:32Z</time>
      </trkpt>
      <trkpt lat="41.6643940" lon="-0.9099890">
        <ele>195.1</ele>
        <time>2019-01-01T14:28:33Z</time>
      </trkpt>
      <trkpt lat="41.6643820" lon="-0.9100640">
        <ele>195.2</ele>
        <time>2019-01-01T14:28:34Z</time>
      </trkpt>
      <trkpt lat="41.6643670" lon="-0.9101410">
        <ele>195.3</ele>
        <time>2019-01-01T14:28:35Z</time>
      </trkpt>
      <trkpt lat="41.6643580" lon="-0.9102100">
        <ele>195.4</ele>
        <time>2019-01-01T14:28:36Z</time>
      </trkpt>
      <trkpt lat="41.6643400" lon="-0.9102720">
        <ele>195.5</ele>
        <time>2019-01-01T14:28:37Z</time>
      </trkpt>
      <trkpt lat="41.6643210" lon="-0.9103400">
        <ele>195.5</ele>
        <time>2019-01-01T14:28:38Z</time>
      </trkpt>
      <trkpt lat="41.6643060" lon="-0.9104200">
        <ele>195.7</ele>
        <time>2019-01-01T14:28:39Z</time>
      </trkpt>
      <trkpt lat="41.6642920" lon="-0.9104880">
        <ele>195.7</ele>
        <time>2019-01-01T14:28:40Z</time>
      </trkpt>
      <trkpt lat="41.6642950" lon="-0.9105640">
        <ele>195.8</ele>
        <time>2019-01-01T14:28:41Z</time>
      </trkpt>
      <trkpt lat="41.6642870" lon="-0.9106300">
        <ele>195.9</ele>
        <time>2019-01-01T14:28:42Z</time>
      </trkpt>
      <trkpt lat="41.6642660" lon="-0.9106800">
        <ele>195.9</ele>
        <time>2019-01-01T14:28:43Z</time>
      </trkpt>
      <trkpt lat="41.6642770" lon="-0.9107700">
        <ele>195.9</ele>
        <time>2019-01-01T14:28:44Z</time>
      </trkpt>
      <trkpt lat="41.6642450" lon="-0.9108490">
        <ele>196.0</ele>
        <time>2019-01-01T14:28:45Z</time>
      </trkpt>
      <trkpt lat="41.6642370" lon="-0.9109340">
        <ele>196.0</ele>
        <time>2019-01-01T14:28:46Z</time>
      </trkpt>
      <trkpt lat="41.6642100" lon="-0.9109600">
        <ele>196.0</ele>
        <time>2019-01-01T14:28:47Z</time>
      </trkpt>
      <trkpt lat="41.6641690" lon="-0.9109940">
        <ele>196.0</ele>
        <time>2019-01-01T14:28:48Z</time>
      </trkpt>
      <trkpt lat="41.6641580" lon="-0.9110510">
        <ele>196.0</ele>
        <time>2019-01-01T14:28:49Z</time>
      </trkpt>
      <trkpt lat="41.6641630" lon="-0.9111060">
        <ele>196.0</ele>
        <time>2019-01-01T14:28:50Z</time>
      </trkpt>
      <trkpt lat="41.6641430" lon="-0.9110780">
        <ele>196.0</ele>
        <time>2019-01-01T14:29:00Z</time>
      </trkpt>
      <trkpt lat="41.6641180" lon="-0.9111030">
        <ele>196.0</ele>
        <time>2019-01-01T14:29:05Z</time>
      </trkpt>
      <trkpt lat="41.6641110" lon="-0.9110680">
        <ele>196.0</ele>
        <time>2019-01-01T14:29:08Z</time>
      </trkpt>
      <trkpt lat="41.6641410" lon="-0.9110400">
        <ele>196.0</ele>
        <time>2019-01-01T14:29:11Z</time>
      </trkpt>
      <trkpt lat="41.6641720" lon="-0.9110220">
        <ele>196.0</ele>
        <time>2019-01-01T14:29:14Z</time>
      </trkpt>
      <trkpt lat="41.6641720" lon="-0.9109580">
        <ele>196.0</ele>
        <time>2019-01-01T14:29:26Z</time>
      </trkpt>
      <trkpt lat="41.6641850" lon="-0.9108810">
        <ele>196.0</ele>
        <time>2019-01-01T14:29:28Z</time>
      </trkpt>
      <trkpt lat="41.6641960" lon="-0.9108380">
        <ele>196.0</ele>
        <time>2019-01-01T14:29:29Z</time>
      </trkpt>
      <trkpt lat="41.6642070" lon="-0.9107900">
        <ele>196.0</ele>
        <time>2019-01-01T14:29:30Z</time>
      </trkpt>
      <trkpt lat="41.6642180" lon="-0.9107430">
        <ele>196.0</ele>
        <time>2019-01-01T14:29:31Z</time>
      </trkpt>
      <trkpt lat="41.6642280" lon="-0.9107000">
        <ele>196.0</ele>
        <time>2019-01-01T14:29:32Z</time>
      </trkpt>
      <trkpt lat="41.6642390" lon="-0.9106580">
        <ele>196.0</ele>
        <time>2019-01-01T14:29:33Z</time>
      </trkpt>
      <trkpt lat="41.6642470" lon="-0.9106170">
        <ele>196.0</ele>
        <time>2019-01-01T14:29:34Z</time>
      </trkpt>
      <trkpt lat="41.6642540" lon="-0.9105710">
        <ele>196.0</ele>
        <time>2019-01-01T14:29:35Z</time>
      </trkpt>
      <trkpt lat="41.6642640" lon="-0.9105270">
        <ele>196.0</ele>
        <time>2019-01-01T14:29:36Z</time>
      </trkpt>
      <trkpt lat="41.6642740" lon="-0.9104810">
        <ele>195.9</ele>
        <time>2019-01-01T14:29:37Z</time>
      </trkpt>
      <trkpt lat="41.6642890" lon="-0.9104210">
        <ele>195.9</ele>
        <time>2019-01-01T14:29:38Z</time>
      </trkpt>
      <trkpt lat="41.6643030" lon="-0.9103680">
        <ele>195.8</ele>
        <time>2019-01-01T14:29:39Z</time>
      </trkpt>
      <trkpt lat="41.6643210" lon="-0.9103100">
        <ele>195.8</ele>
        <time>2019-01-01T14:29:40Z</time>
      </trkpt>
      <trkpt lat="41.6643380" lon="-0.9102520">
        <ele>195.7</ele>
        <time>2019-01-01T14:29:41Z</time>
      </trkpt>
      <trkpt lat="41.6643530" lon="-0.9101950">
        <ele>195.6</ele>
        <time>2019-01-01T14:29:42Z</time>
      </trkpt>
      <trkpt lat="41.6643680" lon="-0.9101360">
        <ele>195.5</ele>
        <time>2019-01-01T14:29:43Z</time>
      </trkpt>
      <trkpt lat="41.6643810" lon="-0.9100800">
        <ele>195.4</ele>
        <time>2019-01-01T14:29:44Z</time>
      </trkpt>
      <trkpt lat="41.6643920" lon="-0.9100230">
        <ele>195.3</ele>
        <time>2019-01-01T14:29:45Z</time>
      </trkpt>
      <trkpt lat="41.6644020" lon="-0.9099680">
        <ele>195.2</ele>
        <time>2019-01-01T14:29:46Z</time>
      </trkpt>
      <trkpt lat="41.6644100" lon="-0.9099110">
        <ele>195.2</ele>
        <time>2019-01-01T14:29:47Z</time>
      </trkpt>
      <trkpt lat="41.6644220" lon="-0.9098500">
        <ele>195.1</ele>
        <time>2019-01-01T14:29:48Z</time>
      </trkpt>
      <trkpt lat="41.6644340" lon="-0.9097880">
        <ele>195.1</ele>
        <time>2019-01-01T14:29:49Z</time>
      </trkpt>
      <trkpt lat="41.6644490" lon="-0.9096890">
        <ele>195.0</ele>
        <time>2019-01-01T14:29:50Z</time>
      </trkpt>
      <trkpt lat="41.6644620" lon="-0.9096460">
        <ele>195.0</ele>
        <time>2019-01-01T14:29:51Z</time>
      </trkpt>
      <trkpt lat="41.6644720" lon="-0.9095910">
        <ele>195.0</ele>
        <time>2019-01-01T14:29:52Z</time>
      </trkpt>
      <trkpt lat="41.6644920" lon="-0.9095040">
        <ele>195.0</ele>
        <time>2019-01-01T14:29:53Z</time>
      </trkpt>
      <trkpt lat="41.6645210" lon="-0.9094360">
        <ele>194.9</ele>
        <time>2019-01-01T14:29:54Z</time>
      </trkpt>
      <trkpt lat="41.6645550" lon="-0.9093170">
        <ele>194.9</ele>
        <time>2019-01-01T14:29:56Z</time>
      </trkpt>
      <trkpt lat="41.6645630" lon="-0.9092670">
        <ele>194.9</ele>
        <time>2019-01-01T14:29:57Z</time>
      </trkpt>
      <trkpt lat="41.6645640" lon="-0.9091980">
        <ele>194.9</ele>
        <time>2019-01-01T14:29:58Z</time>
      </trkpt>
      <trkpt lat="41.6645640" lon="-0.9090840">
        <ele>194.9</ele>
        <time>2019-01-01T14:30:00Z</time>
      </trkpt>
      <trkpt lat="41.6645580" lon="-0.9090340">
        <ele>194.9</ele>
        <time>2019-01-01T14:30:01Z</time>
      </trkpt>
      <trkpt lat="41.6645550" lon="-0.9089740">
        <ele>194.9</ele>
        <time>2019-01-01T14:30:02Z</time>
      </trkpt>
      <trkpt lat="41.6645420" lon="-0.9089150">
        <ele>194.9</ele>
        <time>2019-01-01T14:30:03Z</time>
      </trkpt>
      <trkpt lat="41.6645270" lon="-0.9088620">
        <ele>194.9</ele>
        <time>2019-01-01T14:30:04Z</time>
      </trkpt>
      <trkpt lat="41.6645080" lon="-0.9087930">
        <ele>195.0</ele>
        <time>2019-01-01T14:30:05Z</time>
      </trkpt>
      <trkpt lat="41.6644840" lon="-0.9087480">
        <ele>195.0</ele>
        <time>2019-01-01T14:30:06Z</time>
      </trkpt>
      <trkpt lat="41.6644570" lon="-0.9086900">
        <ele>195.0</ele>
        <time>2019-01-01T14:30:07Z</time>
      </trkpt>
      <trkpt lat="41.6644330" lon="-0.9086390">
        <ele>195.1</ele>
        <time>2019-01-01T14:30:08Z</time>
      </trkpt>
      <trkpt lat="41.6644090" lon="-0.9085900">
        <ele>195.1</ele>
        <time>2019-01-01T14:30:09Z</time>
      </trkpt>
      <trkpt lat="41.6643850" lon="-0.9085440">
        <ele>195.1</ele>
        <time>2019-01-01T14:30:10Z</time>
      </trkpt>
      <trkpt lat="41.6643600" lon="-0.9084980">
        <ele>195.2</ele>
        <time>2019-01-01T14:30:11Z</time>
      </trkpt>
      <trkpt lat="41.6643340" lon="-0.9084560">
        <ele>195.2</ele>
        <time>2019-01-01T14:30:12Z</time>
      </trkpt>
      <trkpt lat="41.6643080" lon="-0.9084110">
        <ele>195.3</ele>
        <time>2019-01-01T14:30:13Z</time>
      </trkpt>
      <trkpt lat="41.6642720" lon="-0.9083610">
        <ele>195.4</ele>
        <time>2019-01-01T14:30:14Z</time>
      </trkpt>
      <trkpt lat="41.6642450" lon="-0.9083240">
        <ele>195.4</ele>
        <time>2019-01-01T14:30:15Z</time>
      </trkpt>
      <trkpt lat="41.6642210" lon="-0.9082810">
        <ele>195.5</ele>
        <time>2019-01-01T14:30:16Z</time>
      </trkpt>
      <trkpt lat="41.6642020" lon="-0.9082480">
        <ele>195.5</ele>
        <time>2019-01-01T14:30:17Z</time>
      </trkpt>
      <trkpt lat="41.6641820" lon="-0.9081950">
        <ele>195.6</ele>
        <time>2019-01-01T14:30:18Z</time>
      </trkpt>
      <trkpt lat="41.6641440" lon="-0.9081250">
        <ele>195.7</ele>
        <time>2019-01-01T14:30:20Z</time>
      </trkpt>
      <trkpt lat="41.6641260" lon="-0.9080770">
        <ele>195.7</ele>
        <time>2019-01-01T14:30:21Z</time>
      </trkpt>
      <trkpt lat="41.6641160" lon="-0.9080310">
        <ele>195.8</ele>
        <time>2019-01-01T14:30:22Z</time>
      </trkpt>
      <trkpt lat="41.6640950" lon="-0.9079910">
        <ele>195.8</ele>
        <time>2019-01-01T14:30:23Z</time>
      </trkpt>
      <trkpt lat="41.6640710" lon="-0.9079440">
        <ele>195.8</ele>
        <time>2019-01-01T14:30:25Z</time>
      </trkpt>
      <trkpt lat="41.6640540" lon="-0.9078930">
        <ele>195.8</ele>
        <time>2019-01-01T14:30:27Z</time>
      </trkpt>
      <trkpt lat="41.6640270" lon="-0.9078420">
        <ele>195.8</ele>
        <time>2019-01-01T14:30:29Z</time>
      </trkpt>
      <trkpt lat="41.6639860" lon="-0.9078070">
        <ele>195.8</ele>
        <time>2019-01-01T14:30:31Z</time>
      </trkpt>
      <trkpt lat="41.6639620" lon="-0.9077880">
        <ele>195.8</ele>
        <time>2019-01-01T14:30:32Z</time>
      </trkpt>
      <trkpt lat="41.6639370" lon="-0.9077660">
        <ele>195.7</ele>
        <time>2019-01-01T14:30:33Z</time>
      </trkpt>
      <trkpt lat="41.6639090" lon="-0.9077440">
        <ele>195.7</ele>
        <time>2019-01-01T14:30:34Z</time>
      </trkpt>
      <trkpt lat="41.6638750" lon="-0.9077260">
        <ele>195.7</ele>
        <time>2019-01-01T14:30:35Z</time>
      </trkpt>
      <trkpt lat="41.6638330" lon="-0.9077020">
        <ele>195.4</ele>
        <time>2019-01-01T14:30:36Z</time>
      </trkpt>
      <trkpt lat="41.6637920" lon="-0.9076740">
        <ele>195.3</ele>
        <time>2019-01-01T14:30:37Z</time>
      </trkpt>
      <trkpt lat="41.6637580" lon="-0.9076370">
        <ele>195.2</ele>
        <time>2019-01-01T14:30:38Z</time>
      </trkpt>
      <trkpt lat="41.6637220" lon="-0.9075990">
        <ele>195.1</ele>
        <time>2019-01-01T14:30:39Z</time>
      </trkpt>
      <trkpt lat="41.6636870" lon="-0.9075610">
        <ele>195.0</ele>
        <time>2019-01-01T14:30:40Z</time>
      </trkpt>
      <trkpt lat="41.6636510" lon="-0.9075250">
        <ele>194.9</ele>
        <time>2019-01-01T14:30:41Z</time>
      </trkpt>
      <trkpt lat="41.6636120" lon="-0.9074940">
        <ele>194.7</ele>
        <time>2019-01-01T14:30:42Z</time>
      </trkpt>
      <trkpt lat="41.6635710" lon="-0.9074670">
        <ele>194.7</ele>
        <time>2019-01-01T14:30:43Z</time>
      </trkpt>
      <trkpt lat="41.6635310" lon="-0.9074400">
        <ele>194.8</ele>
        <time>2019-01-01T14:30:44Z</time>
      </trkpt>
      <trkpt lat="41.6634920" lon="-0.9074100">
        <ele>194.8</ele>
        <time>2019-01-01T14:30:45Z</time>
      </trkpt>
      <trkpt lat="41.6634560" lon="-0.9073770">
        <ele>194.9</ele>
        <time>2019-01-01T14:30:46Z</time>
      </trkpt>
      <trkpt lat="41.6634270" lon="-0.9073400">
        <ele>194.9</ele>
        <time>2019-01-01T14:30:47Z</time>
      </trkpt>
      <trkpt lat="41.6634100" lon="-0.9072920">
        <ele>195.0</ele>
        <time>2019-01-01T14:30:49Z</time>
      </trkpt>
      <trkpt lat="41.6634080" lon="-0.9072540">
        <ele>195.1</ele>
        <time>2019-01-01T14:30:50Z</time>
      </trkpt>
      <trkpt lat="41.6634130" lon="-0.9072080">
        <ele>195.2</ele>
        <time>2019-01-01T14:30:51Z</time>
      </trkpt>
      <trkpt lat="41.6634080" lon="-0.9071650">
        <ele>195.3</ele>
        <time>2019-01-01T14:30:52Z</time>
      </trkpt>
      <trkpt lat="41.6633890" lon="-0.9071270">
        <ele>195.4</ele>
        <time>2019-01-01T14:30:53Z</time>
      </trkpt>
      <trkpt lat="41.6633650" lon="-0.9070980">
        <ele>195.5</ele>
        <time>2019-01-01T14:30:54Z</time>
      </trkpt>
      <trkpt lat="41.6633410" lon="-0.9070610">
        <ele>195.5</ele>
        <time>2019-01-01T14:30:55Z</time>
      </trkpt>
      <trkpt lat="41.6633180" lon="-0.9070140">
        <ele>195.5</ele>
        <time>2019-01-01T14:30:56Z</time>
      </trkpt>
      <trkpt lat="41.6632960" lon="-0.9069640">
        <ele>195.6</ele>
        <time>2019-01-01T14:30:57Z</time>
      </trkpt>
      <trkpt lat="41.6632700" lon="-0.9069060">
        <ele>195.6</ele>
        <time>2019-01-01T14:30:58Z</time>
      </trkpt>
      <trkpt lat="41.6632370" lon="-0.9068330">
        <ele>195.7</ele>
        <time>2019-01-01T14:30:59Z</time>
      </trkpt>
      <trkpt lat="41.6632040" lon="-0.9067960">
        <ele>195.7</ele>
        <time>2019-01-01T14:31:00Z</time>
      </trkpt>
      <trkpt lat="41.6631820" lon="-0.9067670">
        <ele>195.8</ele>
        <time>2019-01-01T14:31:01Z</time>
      </trkpt>
      <trkpt lat="41.6631610" lon="-0.9067290">
        <ele>195.9</ele>
        <time>2019-01-01T14:31:02Z</time>
      </trkpt>
      <trkpt lat="41.6631960" lon="-0.9066580">
        <ele>196.0</ele>
        <time>2019-01-01T14:31:03Z</time>
      </trkpt>
      <trkpt lat="41.6632190" lon="-0.9065950">
        <ele>196.1</ele>
        <time>2019-01-01T14:31:04Z</time>
      </trkpt>
      <trkpt lat="41.6632340" lon="-0.9065470">
        <ele>196.2</ele>
        <time>2019-01-01T14:31:05Z</time>
      </trkpt>
      <trkpt lat="41.6632560" lon="-0.9065060">
        <ele>196.3</ele>
        <time>2019-01-01T14:31:06Z</time>
      </trkpt>
      <trkpt lat="41.6632830" lon="-0.9064390">
        <ele>196.4</ele>
        <time>2019-01-01T14:31:07Z</time>
      </trkpt>
      <trkpt lat="41.6633120" lon="-0.9063760">
        <ele>196.5</ele>
        <time>2019-01-01T14:31:08Z</time>
      </trkpt>
      <trkpt lat="41.6633380" lon="-0.9063320">
        <ele>196.6</ele>
        <time>2019-01-01T14:31:09Z</time>
      </trkpt>
      <trkpt lat="41.6633790" lon="-0.9062670">
        <ele>196.7</ele>
        <time>2019-01-01T14:31:10Z</time>
      </trkpt>
      <trkpt lat="41.6634100" lon="-0.9062550">
        <ele>196.8</ele>
        <time>2019-01-01T14:31:11Z</time>
      </trkpt>
      <trkpt lat="41.6634370" lon="-0.9061320">
        <ele>196.8</ele>
        <time>2019-01-01T14:31:12Z</time>
      </trkpt>
      <trkpt lat="41.6634820" lon="-0.9061870">
        <ele>197.0</ele>
        <time>2019-01-01T14:31:13Z</time>
      </trkpt>
      <trkpt lat="41.6635300" lon="-0.9061900">
        <ele>197.1</ele>
        <time>2019-01-01T14:31:14Z</time>
      </trkpt>
      <trkpt lat="41.6635790" lon="-0.9061690">
        <ele>197.2</ele>
        <time>2019-01-01T14:31:15Z</time>
      </trkpt>
      <trkpt lat="41.6636270" lon="-0.9061540">
        <ele>197.3</ele>
        <time>2019-01-01T14:31:16Z</time>
      </trkpt>
      <trkpt lat="41.6636850" lon="-0.9061280">
        <ele>197.4</ele>
        <time>2019-01-01T14:31:17Z</time>
      </trkpt>
      <trkpt lat="41.6637310" lon="-0.9060950">
        <ele>197.5</ele>
        <time>2019-01-01T14:31:18Z</time>
      </trkpt>
      <trkpt lat="41.6636990" lon="-0.9060550">
        <ele>197.6</ele>
        <time>2019-01-01T14:31:20Z</time>
      </trkpt>
      <trkpt lat="41.6636800" lon="-0.9060260">
        <ele>197.7</ele>
        <time>2019-01-01T14:31:21Z</time>
      </trkpt>
      <trkpt lat="41.6636500" lon="-0.9059980">
        <ele>197.8</ele>
        <time>2019-01-01T14:31:23Z</time>
      </trkpt>
      <trkpt lat="41.6636300" lon="-0.9059600">
        <ele>197.9</ele>
        <time>2019-01-01T14:31:24Z</time>
      </trkpt>
      <trkpt lat="41.6636030" lon="-0.9059460">
        <ele>198.0</ele>
        <time>2019-01-01T14:31:25Z</time>
      </trkpt>
      <trkpt lat="41.6635790" lon="-0.9059010">
        <ele>198.1</ele>
        <time>2019-01-01T14:31:27Z</time>
      </trkpt>
      <trkpt lat="41.6635600" lon="-0.9058530">
        <ele>198.2</ele>
        <time>2019-01-01T14:31:29Z</time>
      </trkpt>
      <trkpt lat="41.6635420" lon="-0.9058010">
        <ele>198.3</ele>
        <time>2019-01-01T14:31:31Z</time>
      </trkpt>
      <trkpt lat="41.6635220" lon="-0.9057330">
        <ele>198.4</ele>
        <time>2019-01-01T14:31:33Z</time>
      </trkpt>
      <trkpt lat="41.6635110" lon="-0.9056930">
        <ele>198.6</ele>
        <time>2019-01-01T14:31:34Z</time>
      </trkpt>
      <trkpt lat="41.6635010" lon="-0.9056510">
        <ele>198.8</ele>
        <time>2019-01-01T14:31:35Z</time>
      </trkpt>
      <trkpt lat="41.6634910" lon="-0.9056080">
        <ele>198.9</ele>
        <time>2019-01-01T14:31:36Z</time>
      </trkpt>
      <trkpt lat="41.6634810" lon="-0.9055690">
        <ele>199.2</ele>
        <time>2019-01-01T14:31:37Z</time>
      </trkpt>
      <trkpt lat="41.6634720" lon="-0.9055330">
        <ele>199.4</ele>
        <time>2019-01-01T14:31:38Z</time>
      </trkpt>
      <trkpt lat="41.6634610" lon="-0.9054640">
        <ele>199.8</ele>
        <time>2019-01-01T14:31:40Z</time>
      </trkpt>
      <trkpt lat="41.6634550" lon="-0.9053960">
        <ele>200.0</ele>
        <time>2019-01-01T14:31:42Z</time>
      </trkpt>
      <trkpt lat="41.6634330" lon="-0.9053440">
        <ele>200.5</ele>
        <time>2019-01-01T14:31:44Z</time>
      </trkpt>
      <trkpt lat="41.6634170" lon="-0.9053010">
        <ele>201.0</ele>
        <time>2019-01-01T14:31:46Z</time>
      </trkpt>
      <trkpt lat="41.6634210" lon="-0.9052530">
        <ele>201.4</ele>
        <time>2019-01-01T14:31:48Z</time>
      </trkpt>
      <trkpt lat="41.6634540" lon="-0.9052140">
        <ele>201.3</ele>
        <time>2019-01-01T14:31:50Z</time>
      </trkpt>
      <trkpt lat="41.6634980" lon="-0.9051940">
        <ele>200.4</ele>
        <time>2019-01-01T14:31:52Z</time>
      </trkpt>
      <trkpt lat="41.6635400" lon="-0.9051630">
        <ele>199.4</ele>
        <time>2019-01-01T14:31:54Z</time>
      </trkpt>
      <trkpt lat="41.6635870" lon="-0.9051260">
        <ele>197.4</ele>
        <time>2019-01-01T14:31:56Z</time>
      </trkpt>
      <trkpt lat="41.6636120" lon="-0.9051080">
        <ele>197.4</ele>
        <time>2019-01-01T14:31:57Z</time>
      </trkpt>
      <trkpt lat="41.6636360" lon="-0.9050880">
        <ele>197.4</ele>
        <time>2019-01-01T14:31:58Z</time>
      </trkpt>
      <trkpt lat="41.6636620" lon="-0.9050670">
        <ele>197.5</ele>
        <time>2019-01-01T14:31:59Z</time>
      </trkpt>
      <trkpt lat="41.6636840" lon="-0.9050370">
        <ele>197.5</ele>
        <time>2019-01-01T14:32:00Z</time>
      </trkpt>
      <trkpt lat="41.6637020" lon="-0.9050020">
        <ele>197.5</ele>
        <time>2019-01-01T14:32:01Z</time>
      </trkpt>
      <trkpt lat="41.6637090" lon="-0.9049620">
        <ele>197.6</ele>
        <time>2019-01-01T14:32:02Z</time>
      </trkpt>
      <trkpt lat="41.6637060" lon="-0.9049210">
        <ele>197.6</ele>
        <time>2019-01-01T14:32:03Z</time>
      </trkpt>
      <trkpt lat="41.6636980" lon="-0.9048750">
        <ele>197.7</ele>
        <time>2019-01-01T14:32:04Z</time>
      </trkpt>
      <trkpt lat="41.6636880" lon="-0.9048160">
        <ele>197.7</ele>
        <time>2019-01-01T14:32:05Z</time>
      </trkpt>
      <trkpt lat="41.6636770" lon="-0.9047600">
        <ele>197.8</ele>
        <time>2019-01-01T14:32:06Z</time>
      </trkpt>
      <trkpt lat="41.6636680" lon="-0.9047000">
        <ele>197.8</ele>
        <time>2019-01-01T14:32:07Z</time>
      </trkpt>
      <trkpt lat="41.6636630" lon="-0.9046380">
        <ele>197.9</ele>
        <time>2019-01-01T14:32:08Z</time>
      </trkpt>
      <trkpt lat="41.6636610" lon="-0.9045770">
        <ele>198.0</ele>
        <time>2019-01-01T14:32:09Z</time>
      </trkpt>
      <trkpt lat="41.6636590" lon="-0.9045200">
        <ele>198.0</ele>
        <time>2019-01-01T14:32:10Z</time>
      </trkpt>
      <trkpt lat="41.6636550" lon="-0.9044660">
        <ele>198.1</ele>
        <time>2019-01-01T14:32:11Z</time>
      </trkpt>
      <trkpt lat="41.6636490" lon="-0.9044100">
        <ele>198.1</ele>
        <time>2019-01-01T14:32:12Z</time>
      </trkpt>
      <trkpt lat="41.6636420" lon="-0.9043520">
        <ele>198.1</ele>
        <time>2019-01-01T14:32:13Z</time>
      </trkpt>
      <trkpt lat="41.6636360" lon="-0.9042920">
        <ele>198.2</ele>
        <time>2019-01-01T14:32:14Z</time>
      </trkpt>
      <trkpt lat="41.6636280" lon="-0.9042280">
        <ele>198.2</ele>
        <time>2019-01-01T14:32:15Z</time>
      </trkpt>
      <trkpt lat="41.6636100" lon="-0.9041270">
        <ele>198.3</ele>
        <time>2019-01-01T14:32:16Z</time>
      </trkpt>
      <trkpt lat="41.6635990" lon="-0.9040710">
        <ele>198.3</ele>
        <time>2019-01-01T14:32:17Z</time>
      </trkpt>
      <trkpt lat="41.6635850" lon="-0.9040080">
        <ele>198.4</ele>
        <time>2019-01-01T14:32:18Z</time>
      </trkpt>
      <trkpt lat="41.6635870" lon="-0.9039570">
        <ele>198.4</ele>
        <time>2019-01-01T14:32:19Z</time>
      </trkpt>
      <trkpt lat="41.6635790" lon="-0.9038960">
        <ele>198.4</ele>
        <time>2019-01-01T14:32:20Z</time>
      </trkpt>
      <trkpt lat="41.6635750" lon="-0.9038370">
        <ele>198.5</ele>
        <time>2019-01-01T14:32:21Z</time>
      </trkpt>
      <trkpt lat="41.6635720" lon="-0.9037760">
        <ele>198.5</ele>
        <time>2019-01-01T14:32:22Z</time>
      </trkpt>
      <trkpt lat="41.6635680" lon="-0.9037280">
        <ele>198.5</ele>
        <time>2019-01-01T14:32:23Z</time>
      </trkpt>
      <trkpt lat="41.6635630" lon="-0.9036640">
        <ele>198.6</ele>
        <time>2019-01-01T14:32:24Z</time>
      </trkpt>
      <trkpt lat="41.6635630" lon="-0.9036130">
        <ele>198.6</ele>
        <time>2019-01-01T14:32:25Z</time>
      </trkpt>
      <trkpt lat="41.6635470" lon="-0.9035700">
        <ele>198.7</ele>
        <time>2019-01-01T14:32:26Z</time>
      </trkpt>
      <trkpt lat="41.6635590" lon="-0.9035270">
        <ele>198.5</ele>
        <time>2019-01-01T14:32:27Z</time>
      </trkpt>
      <trkpt lat="41.6635940" lon="-0.9034730">
        <ele>198.3</ele>
        <time>2019-01-01T14:32:29Z</time>
      </trkpt>
      <trkpt lat="41.6636500" lon="-0.9034470">
        <ele>198.1</ele>
        <time>2019-01-01T14:32:31Z</time>
      </trkpt>
      <trkpt lat="41.6636840" lon="-0.9034280">
        <ele>198.0</ele>
        <time>2019-01-01T14:32:32Z</time>
      </trkpt>
      <trkpt lat="41.6637180" lon="-0.9034100">
        <ele>197.8</ele>
        <time>2019-01-01T14:32:33Z</time>
      </trkpt>
      <trkpt lat="41.6637520" lon="-0.9033910">
        <ele>197.7</ele>
        <time>2019-01-01T14:32:34Z</time>
      </trkpt>
      <trkpt lat="41.6637850" lon="-0.9033690">
        <ele>197.5</ele>
        <time>2019-01-01T14:32:35Z</time>
      </trkpt>
      <trkpt lat="41.6638180" lon="-0.9033430">
        <ele>197.4</ele>
        <time>2019-01-01T14:32:36Z</time>
      </trkpt>
      <trkpt lat="41.6638520" lon="-0.9033190">
        <ele>197.3</ele>
        <time>2019-01-01T14:32:37Z</time>
      </trkpt>
      <trkpt lat="41.6638850" lon="-0.9032970">
        <ele>197.1</ele>
        <time>2019-01-01T14:32:38Z</time>
      </trkpt>
      <trkpt lat="41.6639180" lon="-0.9032730">
        <ele>197.0</ele>
        <time>2019-01-01T14:32:39Z</time>
      </trkpt>
      <trkpt lat="41.6639500" lon="-0.9032520">
        <ele>196.8</ele>
        <time>2019-01-01T14:32:40Z</time>
      </trkpt>
      <trkpt lat="41.6639810" lon="-0.9032370">
        <ele>196.7</ele>
        <time>2019-01-01T14:32:41Z</time>
      </trkpt>
      <trkpt lat="41.6640170" lon="-0.9032610">
        <ele>196.5</ele>
        <time>2019-01-01T14:32:43Z</time>
      </trkpt>
      <trkpt lat="41.6640490" lon="-0.9032220">
        <ele>196.3</ele>
        <time>2019-01-01T14:32:48Z</time>
      </trkpt>
      <trkpt lat="41.6640580" lon="-0.9031680">
        <ele>196.1</ele>
        <time>2019-01-01T14:32:49Z</time>
      </trkpt>
      <trkpt lat="41.6640640" lon="-0.9031090">
        <ele>195.9</ele>
        <time>2019-01-01T14:32:50Z</time>
      </trkpt>
      <trkpt lat="41.6640700" lon="-0.9030490">
        <ele>195.9</ele>
        <time>2019-01-01T14:32:51Z</time>
      </trkpt>
      <trkpt lat="41.6640740" lon="-0.9029890">
        <ele>196.1</ele>
        <time>2019-01-01T14:32:52Z</time>
      </trkpt>
      <trkpt lat="41.6640760" lon="-0.9029320">
        <ele>196.3</ele>
        <time>2019-01-01T14:32:53Z</time>
      </trkpt>
      <trkpt lat="41.6640770" lon="-0.9028760">
        <ele>196.4</ele>
        <time>2019-01-01T14:32:54Z</time>
      </trkpt>
      <trkpt lat="41.6640790" lon="-0.9028180">
        <ele>196.6</ele>
        <time>2019-01-01T14:32:55Z</time>
      </trkpt>
      <trkpt lat="41.6640810" lon="-0.9027600">
        <ele>196.8</ele>
        <time>2019-01-01T14:32:56Z</time>
      </trkpt>
      <trkpt lat="41.6640870" lon="-0.9026980">
        <ele>196.9</ele>
        <time>2019-01-01T14:32:57Z</time>
      </trkpt>
      <trkpt lat="41.6640910" lon="-0.9026350">
        <ele>197.1</ele>
        <time>2019-01-01T14:32:58Z</time>
      </trkpt>
      <trkpt lat="41.6640980" lon="-0.9025650">
        <ele>196.9</ele>
        <time>2019-01-01T14:32:59Z</time>
      </trkpt>
      <trkpt lat="41.6641030" lon="-0.9024970">
        <ele>196.9</ele>
        <time>2019-01-01T14:33:00Z</time>
      </trkpt>
      <trkpt lat="41.6641020" lon="-0.9024310">
        <ele>196.9</ele>
        <time>2019-01-01T14:33:01Z</time>
      </trkpt>
      <trkpt lat="41.6640990" lon="-0.9023670">
        <ele>196.9</ele>
        <time>2019-01-01T14:33:02Z</time>
      </trkpt>
      <trkpt lat="41.6640930" lon="-0.9023090">
        <ele>196.9</ele>
        <time>2019-01-01T14:33:03Z</time>
      </trkpt>
      <trkpt lat="41.6640890" lon="-0.9022500">
        <ele>196.9</ele>
        <time>2019-01-01T14:33:04Z</time>
      </trkpt>
      <trkpt lat="41.6640860" lon="-0.9021930">
        <ele>196.9</ele>
        <time>2019-01-01T14:33:05Z</time>
      </trkpt>
      <trkpt lat="41.6640810" lon="-0.9021360">
        <ele>196.9</ele>
        <time>2019-01-01T14:33:06Z</time>
      </trkpt>
      <trkpt lat="41.6640760" lon="-0.9020830">
        <ele>196.9</ele>
        <time>2019-01-01T14:33:07Z</time>
      </trkpt>
      <trkpt lat="41.6640660" lon="-0.9020290">
        <ele>196.9</ele>
        <time>2019-01-01T14:33:08Z</time>
      </trkpt>
      <trkpt lat="41.6640590" lon="-0.9019710">
        <ele>196.9</ele>
        <time>2019-01-01T14:33:09Z</time>
      </trkpt>
      <trkpt lat="41.6640490" lon="-0.9019140">
        <ele>196.9</ele>
        <time>2019-01-01T14:33:10Z</time>
      </trkpt>
      <trkpt lat="41.6640420" lon="-0.9018610">
        <ele>196.9</ele>
        <time>2019-01-01T14:33:11Z</time>
      </trkpt>
      <trkpt lat="41.6640340" lon="-0.9017970">
        <ele>197.0</ele>
        <time>2019-01-01T14:33:12Z</time>
      </trkpt>
      <trkpt lat="41.6640240" lon="-0.9016870">
        <ele>197.0</ele>
        <time>2019-01-01T14:33:13Z</time>
      </trkpt>
      <trkpt lat="41.6640330" lon="-0.9016500">
        <ele>197.0</ele>
        <time>2019-01-01T14:33:14Z</time>
      </trkpt>
      <trkpt lat="41.6640190" lon="-0.9015490">
        <ele>197.0</ele>
        <time>2019-01-01T14:33:16Z</time>
      </trkpt>
      <trkpt lat="41.6640180" lon="-0.9014880">
        <ele>197.0</ele>
        <time>2019-01-01T14:33:17Z</time>
      </trkpt>
      <trkpt lat="41.6640350" lon="-0.9013970">
        <ele>197.1</ele>
        <time>2019-01-01T14:33:18Z</time>
      </trkpt>
      <trkpt lat="41.6640310" lon="-0.9013360">
        <ele>197.1</ele>
        <time>2019-01-01T14:33:19Z</time>
      </trkpt>
      <trkpt lat="41.6640050" lon="-0.9012750">
        <ele>197.1</ele>
        <time>2019-01-01T14:33:20Z</time>
      </trkpt>
      <trkpt lat="41.6640040" lon="-0.9012080">
        <ele>197.1</ele>
        <time>2019-01-01T14:33:21Z</time>
      </trkpt>
      <trkpt lat="41.6639970" lon="-0.9011300">
        <ele>197.1</ele>
        <time>2019-01-01T14:33:23Z</time>
      </trkpt>
      <trkpt lat="41.6640200" lon="-0.9009950">
        <ele>197.1</ele>
        <time>2019-01-01T14:33:24Z</time>
      </trkpt>
      <trkpt lat="41.6639920" lon="-0.9009910">
        <ele>197.2</ele>
        <time>2019-01-01T14:33:25Z</time>
      </trkpt>
      <trkpt lat="41.6639760" lon="-0.9009250">
        <ele>197.2</ele>
        <time>2019-01-01T14:33:26Z</time>
      </trkpt>
      <trkpt lat="41.6640030" lon="-0.9008570">
        <ele>197.2</ele>
        <time>2019-01-01T14:33:27Z</time>
      </trkpt>
      <trkpt lat="41.6640140" lon="-0.9008120">
        <ele>197.2</ele>
        <time>2019-01-01T14:33:28Z</time>
      </trkpt>
      <trkpt lat="41.6640320" lon="-0.9007630">
        <ele>197.2</ele>
        <time>2019-01-01T14:33:29Z</time>
      </trkpt>
      <trkpt lat="41.6640520" lon="-0.9007040">
        <ele>197.2</ele>
        <time>2019-01-01T14:33:30Z</time>
      </trkpt>
      <trkpt lat="41.6640870" lon="-0.9006200">
        <ele>197.2</ele>
        <time>2019-01-01T14:33:31Z</time>
      </trkpt>
      <trkpt lat="41.6641490" lon="-0.9005470">
        <ele>197.2</ele>
        <time>2019-01-01T14:33:32Z</time>
      </trkpt>
      <trkpt lat="41.6642010" lon="-0.9005160">
        <ele>197.1</ele>
        <time>2019-01-01T14:33:33Z</time>
      </trkpt>
      <trkpt lat="41.6642450" lon="-0.9004920">
        <ele>197.1</ele>
        <time>2019-01-01T14:33:34Z</time>
      </trkpt>
      <trkpt lat="41.6643030" lon="-0.9004870">
        <ele>197.1</ele>
        <time>2019-01-01T14:33:35Z</time>
      </trkpt>
      <trkpt lat="41.6643730" lon="-0.9004280">
        <ele>197.0</ele>
        <time>2019-01-01T14:33:36Z</time>
      </trkpt>
      <trkpt lat="41.6644450" lon="-0.9003920">
        <ele>197.0</ele>
        <time>2019-01-01T14:33:37Z</time>
      </trkpt>
      <trkpt lat="41.6645090" lon="-0.9004270">
        <ele>196.9</ele>
        <time>2019-01-01T14:33:38Z</time>
      </trkpt>
      <trkpt lat="41.6645250" lon="-0.9003760">
        <ele>196.9</ele>
        <time>2019-01-01T14:33:39Z</time>
      </trkpt>
      <trkpt lat="41.6645560" lon="-0.9003670">
        <ele>196.8</ele>
        <time>2019-01-01T14:33:40Z</time>
      </trkpt>
      <trkpt lat="41.6646130" lon="-0.9003390">
        <ele>196.7</ele>
        <time>2019-01-01T14:33:41Z</time>
      </trkpt>
      <trkpt lat="41.6646530" lon="-0.9003390">
        <ele>196.6</ele>
        <time>2019-01-01T14:33:42Z</time>
      </trkpt>
      <trkpt lat="41.6646980" lon="-0.9003320">
        <ele>196.5</ele>
        <time>2019-01-01T14:33:43Z</time>
      </trkpt>
      <trkpt lat="41.6647330" lon="-0.9003000">
        <ele>196.4</ele>
        <time>2019-01-01T14:33:44Z</time>
      </trkpt>
      <trkpt lat="41.6647790" lon="-0.9002760">
        <ele>196.3</ele>
        <time>2019-01-01T14:33:45Z</time>
      </trkpt>
      <trkpt lat="41.6648210" lon="-0.9002480">
        <ele>196.2</ele>
        <time>2019-01-01T14:33:46Z</time>
      </trkpt>
      <trkpt lat="41.6648630" lon="-0.9002130">
        <ele>196.1</ele>
        <time>2019-01-01T14:33:47Z</time>
      </trkpt>
      <trkpt lat="41.6648980" lon="-0.9001620">
        <ele>196.0</ele>
        <time>2019-01-01T14:33:48Z</time>
      </trkpt>
      <trkpt lat="41.6649470" lon="-0.9001470">
        <ele>195.9</ele>
        <time>2019-01-01T14:33:49Z</time>
      </trkpt>
      <trkpt lat="41.6649820" lon="-0.9001460">
        <ele>195.8</ele>
        <time>2019-01-01T14:33:50Z</time>
      </trkpt>
      <trkpt lat="41.6650310" lon="-0.9001100">
        <ele>195.7</ele>
        <time>2019-01-01T14:33:51Z</time>
      </trkpt>
      <trkpt lat="41.6650800" lon="-0.9000980">
        <ele>195.6</ele>
        <time>2019-01-01T14:33:52Z</time>
      </trkpt>
      <trkpt lat="41.6651090" lon="-0.9000850">
        <ele>195.6</ele>
        <time>2019-01-01T14:33:53Z</time>
      </trkpt>
      <trkpt lat="41.6651660" lon="-0.9000460">
        <ele>195.5</ele>
        <time>2019-01-01T14:33:54Z</time>
      </trkpt>
      <trkpt lat="41.6652140" lon="-0.9000300">
        <ele>195.5</ele>
        <time>2019-01-01T14:33:55Z</time>
      </trkpt>
      <trkpt lat="41.6652530" lon="-0.9000530">
        <ele>195.4</ele>
        <time>2019-01-01T14:33:56Z</time>
      </trkpt>
      <trkpt lat="41.6652940" lon="-0.9000270">
        <ele>195.4</ele>
        <time>2019-01-01T14:33:57Z</time>
      </trkpt>
      <trkpt lat="41.6653310" lon="-0.9000410">
        <ele>195.4</ele>
        <time>2019-01-01T14:33:58Z</time>
      </trkpt>
      <trkpt lat="41.6653650" lon="-0.8999600">
        <ele>195.3</ele>
        <time>2019-01-01T14:33:59Z</time>
      </trkpt>
      <trkpt lat="41.6653960" lon="-0.8999310">
        <ele>195.3</ele>
        <time>2019-01-01T14:34:00Z</time>
      </trkpt>
      <trkpt lat="41.6654480" lon="-0.8998980">
        <ele>195.2</ele>
        <time>2019-01-01T14:34:01Z</time>
      </trkpt>
      <trkpt lat="41.6654860" lon="-0.8998680">
        <ele>195.1</ele>
        <time>2019-01-01T14:34:02Z</time>
      </trkpt>
      <trkpt lat="41.6655190" lon="-0.8998190">
        <ele>195.1</ele>
        <time>2019-01-01T14:34:03Z</time>
      </trkpt>
      <trkpt lat="41.6655640" lon="-0.8997980">
        <ele>195.0</ele>
        <time>2019-01-01T14:34:04Z</time>
      </trkpt>
      <trkpt lat="41.6655970" lon="-0.8997870">
        <ele>195.0</ele>
        <time>2019-01-01T14:34:05Z</time>
      </trkpt>
      <trkpt lat="41.6656370" lon="-0.8997630">
        <ele>195.0</ele>
        <time>2019-01-01T14:34:06Z</time>
      </trkpt>
      <trkpt lat="41.6656770" lon="-0.8997370">
        <ele>194.9</ele>
        <time>2019-01-01T14:34:07Z</time>
      </trkpt>
      <trkpt lat="41.6657180" lon="-0.8997100">
        <ele>194.9</ele>
        <time>2019-01-01T14:34:08Z</time>
      </trkpt>
      <trkpt lat="41.6657600" lon="-0.8996840">
        <ele>194.8</ele>
        <time>2019-01-01T14:34:09Z</time>
      </trkpt>
      <trkpt lat="41.6658020" lon="-0.8996610">
        <ele>194.8</ele>
        <time>2019-01-01T14:34:10Z</time>
      </trkpt>
      <trkpt lat="41.6658420" lon="-0.8996320">
        <ele>194.8</ele>
        <time>2019-01-01T14:34:11Z</time>
      </trkpt>
      <trkpt lat="41.6658790" lon="-0.8995950">
        <ele>194.7</ele>
        <time>2019-01-01T14:34:12Z</time>
      </trkpt>
      <trkpt lat="41.6659110" lon="-0.8995480">
        <ele>194.7</ele>
        <time>2019-01-01T14:34:13Z</time>
      </trkpt>
      <trkpt lat="41.6659360" lon="-0.8994960">
        <ele>193.7</ele>
        <time>2019-01-01T14:34:14Z</time>
      </trkpt>
      <trkpt lat="41.6659470" lon="-0.8994380">
        <ele>193.6</ele>
        <time>2019-01-01T14:34:15Z</time>
      </trkpt>
      <trkpt lat="41.6659430" lon="-0.8993780">
        <ele>193.6</ele>
        <time>2019-01-01T14:34:16Z</time>
      </trkpt>
      <trkpt lat="41.6659320" lon="-0.8993270">
        <ele>193.5</ele>
        <time>2019-01-01T14:34:17Z</time>
      </trkpt>
      <trkpt lat="41.6659210" lon="-0.8992760">
        <ele>193.5</ele>
        <time>2019-01-01T14:34:18Z</time>
      </trkpt>
      <trkpt lat="41.6659100" lon="-0.8992260">
        <ele>193.5</ele>
        <time>2019-01-01T14:34:19Z</time>
      </trkpt>
      <trkpt lat="41.6658990" lon="-0.8991740">
        <ele>193.5</ele>
        <time>2019-01-01T14:34:20Z</time>
      </trkpt>
      <trkpt lat="41.6658890" lon="-0.8991230">
        <ele>193.5</ele>
        <time>2019-01-01T14:34:21Z</time>
      </trkpt>
      <trkpt lat="41.6658820" lon="-0.8990660">
        <ele>193.5</ele>
        <time>2019-01-01T14:34:22Z</time>
      </trkpt>
      <trkpt lat="41.6658710" lon="-0.8990180">
        <ele>193.5</ele>
        <time>2019-01-01T14:34:23Z</time>
      </trkpt>
      <trkpt lat="41.6658560" lon="-0.8989690">
        <ele>193.5</ele>
        <time>2019-01-01T14:34:24Z</time>
      </trkpt>
      <trkpt lat="41.6658360" lon="-0.8989170">
        <ele>193.5</ele>
        <time>2019-01-01T14:34:25Z</time>
      </trkpt>
      <trkpt lat="41.6658170" lon="-0.8988650">
        <ele>193.5</ele>
        <time>2019-01-01T14:34:26Z</time>
      </trkpt>
      <trkpt lat="41.6658010" lon="-0.8988120">
        <ele>193.5</ele>
        <time>2019-01-01T14:34:27Z</time>
      </trkpt>
      <trkpt lat="41.6657850" lon="-0.8987590">
        <ele>193.4</ele>
        <time>2019-01-01T14:34:28Z</time>
      </trkpt>
      <trkpt lat="41.6657630" lon="-0.8987050">
        <ele>193.4</ele>
        <time>2019-01-01T14:34:29Z</time>
      </trkpt>
      <trkpt lat="41.6657410" lon="-0.8986470">
        <ele>193.3</ele>
        <time>2019-01-01T14:34:30Z</time>
      </trkpt>
      <trkpt lat="41.6657220" lon="-0.8985930">
        <ele>193.3</ele>
        <time>2019-01-01T14:34:31Z</time>
      </trkpt>
      <trkpt lat="41.6657020" lon="-0.8985360">
        <ele>193.1</ele>
        <time>2019-01-01T14:34:32Z</time>
      </trkpt>
      <trkpt lat="41.6656800" lon="-0.8984790">
        <ele>193.0</ele>
        <time>2019-01-01T14:34:33Z</time>
      </trkpt>
      <trkpt lat="41.6656550" lon="-0.8984250">
        <ele>192.8</ele>
        <time>2019-01-01T14:34:34Z</time>
      </trkpt>
      <trkpt lat="41.6656310" lon="-0.8983710">
        <ele>192.7</ele>
        <time>2019-01-01T14:34:35Z</time>
      </trkpt>
      <trkpt lat="41.6656080" lon="-0.8983170">
        <ele>192.6</ele>
        <time>2019-01-01T14:34:36Z</time>
      </trkpt>
      <trkpt lat="41.6655870" lon="-0.8982630">
        <ele>192.6</ele>
        <time>2019-01-01T14:34:37Z</time>
      </trkpt>
      <trkpt lat="41.6655670" lon="-0.8982080">
        <ele>192.5</ele>
        <time>2019-01-01T14:34:38Z</time>
      </trkpt>
      <trkpt lat="41.6655450" lon="-0.8981530">
        <ele>192.5</ele>
        <time>2019-01-01T14:34:39Z</time>
      </trkpt>
      <trkpt lat="41.6655240" lon="-0.8981000">
        <ele>192.5</ele>
        <time>2019-01-01T14:34:40Z</time>
      </trkpt>
      <trkpt lat="41.6655010" lon="-0.8980470">
        <ele>192.5</ele>
        <time>2019-01-01T14:34:41Z</time>
      </trkpt>
      <trkpt lat="41.6654780" lon="-0.8979950">
        <ele>192.5</ele>
        <time>2019-01-01T14:34:42Z</time>
      </trkpt>
      <trkpt lat="41.6654550" lon="-0.8979440">
        <ele>192.5</ele>
        <time>2019-01-01T14:34:43Z</time>
      </trkpt>
      <trkpt lat="41.6654320" lon="-0.8978940">
        <ele>192.5</ele>
        <time>2019-01-01T14:34:44Z</time>
      </trkpt>
      <trkpt lat="41.6654090" lon="-0.8978430">
        <ele>192.5</ele>
        <time>2019-01-01T14:34:45Z</time>
      </trkpt>
      <trkpt lat="41.6653830" lon="-0.8977900">
        <ele>192.5</ele>
        <time>2019-01-01T14:34:46Z</time>
      </trkpt>
      <trkpt lat="41.6653590" lon="-0.8977400">
        <ele>192.5</ele>
        <time>2019-01-01T14:34:47Z</time>
      </trkpt>
      <trkpt lat="41.6653350" lon="-0.8976860">
        <ele>192.5</ele>
        <time>2019-01-01T14:34:48Z</time>
      </trkpt>
      <trkpt lat="41.6653080" lon="-0.8976340">
        <ele>192.5</ele>
        <time>2019-01-01T14:34:49Z</time>
      </trkpt>
      <trkpt lat="41.6652820" lon="-0.8975840">
        <ele>192.5</ele>
        <time>2019-01-01T14:34:50Z</time>
      </trkpt>
      <trkpt lat="41.6652570" lon="-0.8975320">
        <ele>192.5</ele>
        <time>2019-01-01T14:34:51Z</time>
      </trkpt>
      <trkpt lat="41.6652330" lon="-0.8974830">
        <ele>192.5</ele>
        <time>2019-01-01T14:34:52Z</time>
      </trkpt>
      <trkpt lat="41.6652110" lon="-0.8974330">
        <ele>192.5</ele>
        <time>2019-01-01T14:34:53Z</time>
      </trkpt>
      <trkpt lat="41.6651860" lon="-0.8973860">
        <ele>192.5</ele>
        <time>2019-01-01T14:34:54Z</time>
      </trkpt>
      <trkpt lat="41.6651630" lon="-0.8973390">
        <ele>192.5</ele>
        <time>2019-01-01T14:34:55Z</time>
      </trkpt>
      <trkpt lat="41.6651360" lon="-0.8972920">
        <ele>192.5</ele>
        <time>2019-01-01T14:34:56Z</time>
      </trkpt>
      <trkpt lat="41.6651080" lon="-0.8972460">
        <ele>192.5</ele>
        <time>2019-01-01T14:34:57Z</time>
      </trkpt>
      <trkpt lat="41.6650800" lon="-0.8971990">
        <ele>192.4</ele>
        <time>2019-01-01T14:34:58Z</time>
      </trkpt>
      <trkpt lat="41.6650530" lon="-0.8971520">
        <ele>192.4</ele>
        <time>2019-01-01T14:34:59Z</time>
      </trkpt>
      <trkpt lat="41.6650260" lon="-0.8971050">
        <ele>192.4</ele>
        <time>2019-01-01T14:35:00Z</time>
      </trkpt>
      <trkpt lat="41.6649990" lon="-0.8970570">
        <ele>192.4</ele>
        <time>2019-01-01T14:35:01Z</time>
      </trkpt>
      <trkpt lat="41.6649620" lon="-0.8970030">
        <ele>192.4</ele>
        <time>2019-01-01T14:35:02Z</time>
      </trkpt>
      <trkpt lat="41.6649250" lon="-0.8969520">
        <ele>192.4</ele>
        <time>2019-01-01T14:35:03Z</time>
      </trkpt>
      <trkpt lat="41.6648920" lon="-0.8968990">
        <ele>192.4</ele>
        <time>2019-01-01T14:35:04Z</time>
      </trkpt>
      <trkpt lat="41.6648680" lon="-0.8968490">
        <ele>192.4</ele>
        <time>2019-01-01T14:35:05Z</time>
      </trkpt>
      <trkpt lat="41.6648500" lon="-0.8967900">
        <ele>192.4</ele>
        <time>2019-01-01T14:35:06Z</time>
      </trkpt>
      <trkpt lat="41.6648120" lon="-0.8967500">
        <ele>192.4</ele>
        <time>2019-01-01T14:35:07Z</time>
      </trkpt>
      <trkpt lat="41.6647710" lon="-0.8967120">
        <ele>192.4</ele>
        <time>2019-01-01T14:35:08Z</time>
      </trkpt>
      <trkpt lat="41.6647460" lon="-0.8966580">
        <ele>192.4</ele>
        <time>2019-01-01T14:35:09Z</time>
      </trkpt>
      <trkpt lat="41.6647180" lon="-0.8966140">
        <ele>192.4</ele>
        <time>2019-01-01T14:35:10Z</time>
      </trkpt>
      <trkpt lat="41.6646960" lon="-0.8965540">
        <ele>192.4</ele>
        <time>2019-01-01T14:35:11Z</time>
      </trkpt>
      <trkpt lat="41.6646670" lon="-0.8965060">
        <ele>192.4</ele>
        <time>2019-01-01T14:35:12Z</time>
      </trkpt>
      <trkpt lat="41.6646300" lon="-0.8964580">
        <ele>192.5</ele>
        <time>2019-01-01T14:35:13Z</time>
      </trkpt>
      <trkpt lat="41.6646120" lon="-0.8964030">
        <ele>192.6</ele>
        <time>2019-01-01T14:35:14Z</time>
      </trkpt>
      <trkpt lat="41.6645940" lon="-0.8963600">
        <ele>192.7</ele>
        <time>2019-01-01T14:35:15Z</time>
      </trkpt>
      <trkpt lat="41.6645600" lon="-0.8963170">
        <ele>192.8</ele>
        <time>2019-01-01T14:35:16Z</time>
      </trkpt>
      <trkpt lat="41.6645190" lon="-0.8962910">
        <ele>193.0</ele>
        <time>2019-01-01T14:35:17Z</time>
      </trkpt>
      <trkpt lat="41.6644910" lon="-0.8962650">
        <ele>193.1</ele>
        <time>2019-01-01T14:35:18Z</time>
      </trkpt>
      <trkpt lat="41.6644490" lon="-0.8962360">
        <ele>193.2</ele>
        <time>2019-01-01T14:35:19Z</time>
      </trkpt>
      <trkpt lat="41.6644190" lon="-0.8962160">
        <ele>193.3</ele>
        <time>2019-01-01T14:35:20Z</time>
      </trkpt>
      <trkpt lat="41.6643880" lon="-0.8961980">
        <ele>193.4</ele>
        <time>2019-01-01T14:35:21Z</time>
      </trkpt>
      <trkpt lat="41.6643440" lon="-0.8961950">
        <ele>193.5</ele>
        <time>2019-01-01T14:35:22Z</time>
      </trkpt>
      <trkpt lat="41.6642960" lon="-0.8961820">
        <ele>193.6</ele>
        <time>2019-01-01T14:35:23Z</time>
      </trkpt>
      <trkpt lat="41.6642490" lon="-0.8961750">
        <ele>193.8</ele>
        <time>2019-01-01T14:35:24Z</time>
      </trkpt>
      <trkpt lat="41.6642050" lon="-0.8961710">
        <ele>193.9</ele>
        <time>2019-01-01T14:35:25Z</time>
      </trkpt>
      <trkpt lat="41.6641590" lon="-0.8961670">
        <ele>194.0</ele>
        <time>2019-01-01T14:35:26Z</time>
      </trkpt>
      <trkpt lat="41.6641270" lon="-0.8961290">
        <ele>194.1</ele>
        <time>2019-01-01T14:35:27Z</time>
      </trkpt>
      <trkpt lat="41.6640800" lon="-0.8960920">
        <ele>194.2</ele>
        <time>2019-01-01T14:35:28Z</time>
      </trkpt>
      <trkpt lat="41.6640720" lon="-0.8960340">
        <ele>194.3</ele>
        <time>2019-01-01T14:35:29Z</time>
      </trkpt>
      <trkpt lat="41.6640550" lon="-0.8959840">
        <ele>194.4</ele>
        <time>2019-01-01T14:35:30Z</time>
      </trkpt>
      <trkpt lat="41.6640400" lon="-0.8959350">
        <ele>194.5</ele>
        <time>2019-01-01T14:35:31Z</time>
      </trkpt>
      <trkpt lat="41.6640140" lon="-0.8958820">
        <ele>194.6</ele>
        <time>2019-01-01T14:35:32Z</time>
      </trkpt>
      <trkpt lat="41.6640090" lon="-0.8958400">
        <ele>194.2</ele>
        <time>2019-01-01T14:35:33Z</time>
      </trkpt>
      <trkpt lat="41.6640100" lon="-0.8957910">
        <ele>193.8</ele>
        <time>2019-01-01T14:35:34Z</time>
      </trkpt>
      <trkpt lat="41.6640470" lon="-0.8957190">
        <ele>193.3</ele>
        <time>2019-01-01T14:35:36Z</time>
      </trkpt>
      <trkpt lat="41.6640680" lon="-0.8956830">
        <ele>193.0</ele>
        <time>2019-01-01T14:35:37Z</time>
      </trkpt>
      <trkpt lat="41.6640890" lon="-0.8956470">
        <ele>192.8</ele>
        <time>2019-01-01T14:35:38Z</time>
      </trkpt>
      <trkpt lat="41.6641130" lon="-0.8956080">
        <ele>192.5</ele>
        <time>2019-01-01T14:35:39Z</time>
      </trkpt>
      <trkpt lat="41.6641350" lon="-0.8955720">
        <ele>192.4</ele>
        <time>2019-01-01T14:35:40Z</time>
      </trkpt>
      <trkpt lat="41.6641580" lon="-0.8955370">
        <ele>192.2</ele>
        <time>2019-01-01T14:35:41Z</time>
      </trkpt>
      <trkpt lat="41.6641820" lon="-0.8955050">
        <ele>192.0</ele>
        <time>2019-01-01T14:35:42Z</time>
      </trkpt>
      <trkpt lat="41.6642040" lon="-0.8954750">
        <ele>191.8</ele>
        <time>2019-01-01T14:35:43Z</time>
      </trkpt>
      <trkpt lat="41.6642270" lon="-0.8954490">
        <ele>191.6</ele>
        <time>2019-01-01T14:35:44Z</time>
      </trkpt>
      <trkpt lat="41.6642500" lon="-0.8954250">
        <ele>191.5</ele>
        <time>2019-01-01T14:35:45Z</time>
      </trkpt>
      <trkpt lat="41.6642750" lon="-0.8953990">
        <ele>191.3</ele>
        <time>2019-01-01T14:35:46Z</time>
      </trkpt>
      <trkpt lat="41.6643000" lon="-0.8953720">
        <ele>191.1</ele>
        <time>2019-01-01T14:35:47Z</time>
      </trkpt>
      <trkpt lat="41.6643240" lon="-0.8953440">
        <ele>191.0</ele>
        <time>2019-01-01T14:35:48Z</time>
      </trkpt>
      <trkpt lat="41.6643480" lon="-0.8953170">
        <ele>190.8</ele>
        <time>2019-01-01T14:35:49Z</time>
      </trkpt>
      <trkpt lat="41.6643730" lon="-0.8952900">
        <ele>190.6</ele>
        <time>2019-01-01T14:35:50Z</time>
      </trkpt>
      <trkpt lat="41.6643970" lon="-0.8952620">
        <ele>190.4</ele>
        <time>2019-01-01T14:35:51Z</time>
      </trkpt>
      <trkpt lat="41.6644220" lon="-0.8952330">
        <ele>190.3</ele>
        <time>2019-01-01T14:35:52Z</time>
      </trkpt>
      <trkpt lat="41.6644470" lon="-0.8952020">
        <ele>190.1</ele>
        <time>2019-01-01T14:35:53Z</time>
      </trkpt>
      <trkpt lat="41.6644720" lon="-0.8951710">
        <ele>190.1</ele>
        <time>2019-01-01T14:35:54Z</time>
      </trkpt>
      <trkpt lat="41.6644980" lon="-0.8951400">
        <ele>190.1</ele>
        <time>2019-01-01T14:35:55Z</time>
      </trkpt>
      <trkpt lat="41.6645240" lon="-0.8951110">
        <ele>190.1</ele>
        <time>2019-01-01T14:35:56Z</time>
      </trkpt>
      <trkpt lat="41.6645530" lon="-0.8950840">
        <ele>190.1</ele>
        <time>2019-01-01T14:35:57Z</time>
      </trkpt>
      <trkpt lat="41.6645820" lon="-0.8950570">
        <ele>190.2</ele>
        <time>2019-01-01T14:35:58Z</time>
      </trkpt>
      <trkpt lat="41.6646100" lon="-0.8950310">
        <ele>190.2</ele>
        <time>2019-01-01T14:35:59Z</time>
      </trkpt>
      <trkpt lat="41.6646390" lon="-0.8950030">
        <ele>190.2</ele>
        <time>2019-01-01T14:36:00Z</time>
      </trkpt>
      <trkpt lat="41.6646690" lon="-0.8949730">
        <ele>190.2</ele>
        <time>2019-01-01T14:36:01Z</time>
      </trkpt>
      <trkpt lat="41.6646980" lon="-0.8949430">
        <ele>190.3</ele>
        <time>2019-01-01T14:36:02Z</time>
      </trkpt>
      <trkpt lat="41.6647290" lon="-0.8949130">
        <ele>190.3</ele>
        <time>2019-01-01T14:36:03Z</time>
      </trkpt>
      <trkpt lat="41.6647610" lon="-0.8948880">
        <ele>190.3</ele>
        <time>2019-01-01T14:36:04Z</time>
      </trkpt>
      <trkpt lat="41.6647970" lon="-0.8948600">
        <ele>190.4</ele>
        <time>2019-01-01T14:36:05Z</time>
      </trkpt>
      <trkpt lat="41.6648290" lon="-0.8948330">
        <ele>190.4</ele>
        <time>2019-01-01T14:36:06Z</time>
      </trkpt>
      <trkpt lat="41.6648560" lon="-0.8948080">
        <ele>190.4</ele>
        <time>2019-01-01T14:36:07Z</time>
      </trkpt>
      <trkpt lat="41.6648860" lon="-0.8947850">
        <ele>190.4</ele>
        <time>2019-01-01T14:36:08Z</time>
      </trkpt>
      <trkpt lat="41.6649170" lon="-0.8947660">
        <ele>190.5</ele>
        <time>2019-01-01T14:36:09Z</time>
      </trkpt>
      <trkpt lat="41.6649460" lon="-0.8947540">
        <ele>190.5</ele>
        <time>2019-01-01T14:36:10Z</time>
      </trkpt>
      <trkpt lat="41.6649790" lon="-0.8947470">
        <ele>190.5</ele>
        <time>2019-01-01T14:36:11Z</time>
      </trkpt>
      <trkpt lat="41.6650160" lon="-0.8947460">
        <ele>190.5</ele>
        <time>2019-01-01T14:36:12Z</time>
      </trkpt>
      <trkpt lat="41.6650550" lon="-0.8947350">
        <ele>190.5</ele>
        <time>2019-01-01T14:36:13Z</time>
      </trkpt>
      <trkpt lat="41.6650960" lon="-0.8947200">
        <ele>190.5</ele>
        <time>2019-01-01T14:36:14Z</time>
      </trkpt>
      <trkpt lat="41.6651480" lon="-0.8946930">
        <ele>190.5</ele>
        <time>2019-01-01T14:36:15Z</time>
      </trkpt>
      <trkpt lat="41.6651940" lon="-0.8946700">
        <ele>190.5</ele>
        <time>2019-01-01T14:36:16Z</time>
      </trkpt>
      <trkpt lat="41.6652400" lon="-0.8946490">
        <ele>190.5</ele>
        <time>2019-01-01T14:36:17Z</time>
      </trkpt>
      <trkpt lat="41.6652850" lon="-0.8946330">
        <ele>190.5</ele>
        <time>2019-01-01T14:36:18Z</time>
      </trkpt>
      <trkpt lat="41.6653300" lon="-0.8946190">
        <ele>190.4</ele>
        <time>2019-01-01T14:36:19Z</time>
      </trkpt>
      <trkpt lat="41.6653740" lon="-0.8946090">
        <ele>190.4</ele>
        <time>2019-01-01T14:36:20Z</time>
      </trkpt>
      <trkpt lat="41.6654160" lon="-0.8946010">
        <ele>190.4</ele>
        <time>2019-01-01T14:36:21Z</time>
      </trkpt>
      <trkpt lat="41.6654570" lon="-0.8945940">
        <ele>190.3</ele>
        <time>2019-01-01T14:36:22Z</time>
      </trkpt>
      <trkpt lat="41.6654970" lon="-0.8945860">
        <ele>190.3</ele>
        <time>2019-01-01T14:36:23Z</time>
      </trkpt>
      <trkpt lat="41.6655360" lon="-0.8945780">
        <ele>190.2</ele>
        <time>2019-01-01T14:36:24Z</time>
      </trkpt>
      <trkpt lat="41.6655750" lon="-0.8945690">
        <ele>190.2</ele>
        <time>2019-01-01T14:36:25Z</time>
      </trkpt>
      <trkpt lat="41.6656150" lon="-0.8945600">
        <ele>190.1</ele>
        <time>2019-01-01T14:36:26Z</time>
      </trkpt>
      <trkpt lat="41.6656550" lon="-0.8945530">
        <ele>190.1</ele>
        <time>2019-01-01T14:36:27Z</time>
      </trkpt>
      <trkpt lat="41.6656940" lon="-0.8945470">
        <ele>190.0</ele>
        <time>2019-01-01T14:36:28Z</time>
      </trkpt>
      <trkpt lat="41.6657340" lon="-0.8945420">
        <ele>189.9</ele>
        <time>2019-01-01T14:36:29Z</time>
      </trkpt>
      <trkpt lat="41.6657730" lon="-0.8945400">
        <ele>189.8</ele>
        <time>2019-01-01T14:36:30Z</time>
      </trkpt>
      <trkpt lat="41.6658120" lon="-0.8945390">
        <ele>189.7</ele>
        <time>2019-01-01T14:36:31Z</time>
      </trkpt>
      <trkpt lat="41.6658510" lon="-0.8945360">
        <ele>189.7</ele>
        <time>2019-01-01T14:36:32Z</time>
      </trkpt>
      <trkpt lat="41.6658890" lon="-0.8945300">
        <ele>189.6</ele>
        <time>2019-01-01T14:36:33Z</time>
      </trkpt>
      <trkpt lat="41.6659280" lon="-0.8945250">
        <ele>189.9</ele>
        <time>2019-01-01T14:36:34Z</time>
      </trkpt>
      <trkpt lat="41.6659680" lon="-0.8945200">
        <ele>190.3</ele>
        <time>2019-01-01T14:36:35Z</time>
      </trkpt>
      <trkpt lat="41.6660150" lon="-0.8945140">
        <ele>190.7</ele>
        <time>2019-01-01T14:36:36Z</time>
      </trkpt>
      <trkpt lat="41.6660600" lon="-0.8945060">
        <ele>191.1</ele>
        <time>2019-01-01T14:36:37Z</time>
      </trkpt>
      <trkpt lat="41.6661060" lon="-0.8944950">
        <ele>191.5</ele>
        <time>2019-01-01T14:36:38Z</time>
      </trkpt>
      <trkpt lat="41.6661450" lon="-0.8944810">
        <ele>191.9</ele>
        <time>2019-01-01T14:36:39Z</time>
      </trkpt>
      <trkpt lat="41.6661780" lon="-0.8944510">
        <ele>192.2</ele>
        <time>2019-01-01T14:36:40Z</time>
      </trkpt>
      <trkpt lat="41.6661890" lon="-0.8944040">
        <ele>192.7</ele>
        <time>2019-01-01T14:36:41Z</time>
      </trkpt>
      <trkpt lat="41.6661860" lon="-0.8943510">
        <ele>192.6</ele>
        <time>2019-01-01T14:36:42Z</time>
      </trkpt>
      <trkpt lat="41.6661630" lon="-0.8943030">
        <ele>192.5</ele>
        <time>2019-01-01T14:36:43Z</time>
      </trkpt>
      <trkpt lat="41.6661310" lon="-0.8942640">
        <ele>192.4</ele>
        <time>2019-01-01T14:36:44Z</time>
      </trkpt>
      <trkpt lat="41.6660930" lon="-0.8942340">
        <ele>192.4</ele>
        <time>2019-01-01T14:36:45Z</time>
      </trkpt>
      <trkpt lat="41.6660560" lon="-0.8942050">
        <ele>192.4</ele>
        <time>2019-01-01T14:36:46Z</time>
      </trkpt>
      <trkpt lat="41.6660200" lon="-0.8941760">
        <ele>192.4</ele>
        <time>2019-01-01T14:36:47Z</time>
      </trkpt>
      <trkpt lat="41.6659850" lon="-0.8941460">
        <ele>192.3</ele>
        <time>2019-01-01T14:36:48Z</time>
      </trkpt>
      <trkpt lat="41.6659540" lon="-0.8941110">
        <ele>192.3</ele>
        <time>2019-01-01T14:36:49Z</time>
      </trkpt>
      <trkpt lat="41.6659230" lon="-0.8940760">
        <ele>192.2</ele>
        <time>2019-01-01T14:36:50Z</time>
      </trkpt>
      <trkpt lat="41.6658910" lon="-0.8940430">
        <ele>192.1</ele>
        <time>2019-01-01T14:36:51Z</time>
      </trkpt>
      <trkpt lat="41.6658590" lon="-0.8940090">
        <ele>192.0</ele>
        <time>2019-01-01T14:36:52Z</time>
      </trkpt>
      <trkpt lat="41.6658260" lon="-0.8939760">
        <ele>191.9</ele>
        <time>2019-01-01T14:36:53Z</time>
      </trkpt>
      <trkpt lat="41.6657930" lon="-0.8939430">
        <ele>191.9</ele>
        <time>2019-01-01T14:36:54Z</time>
      </trkpt>
      <trkpt lat="41.6657610" lon="-0.8939070">
        <ele>191.8</ele>
        <time>2019-01-01T14:36:55Z</time>
      </trkpt>
      <trkpt lat="41.6657290" lon="-0.8938740">
        <ele>191.8</ele>
        <time>2019-01-01T14:36:56Z</time>
      </trkpt>
      <trkpt lat="41.6656970" lon="-0.8938380">
        <ele>191.8</ele>
        <time>2019-01-01T14:36:57Z</time>
      </trkpt>
      <trkpt lat="41.6656650" lon="-0.8938050">
        <ele>191.8</ele>
        <time>2019-01-01T14:36:58Z</time>
      </trkpt>
      <trkpt lat="41.6656330" lon="-0.8937740">
        <ele>191.8</ele>
        <time>2019-01-01T14:36:59Z</time>
      </trkpt>
      <trkpt lat="41.6655990" lon="-0.8937420">
        <ele>191.8</ele>
        <time>2019-01-01T14:37:00Z</time>
      </trkpt>
      <trkpt lat="41.6655670" lon="-0.8937080">
        <ele>191.8</ele>
        <time>2019-01-01T14:37:01Z</time>
      </trkpt>
      <trkpt lat="41.6655360" lon="-0.8936710">
        <ele>191.8</ele>
        <time>2019-01-01T14:37:02Z</time>
      </trkpt>
      <trkpt lat="41.6655030" lon="-0.8936340">
        <ele>191.8</ele>
        <time>2019-01-01T14:37:03Z</time>
      </trkpt>
      <trkpt lat="41.6654690" lon="-0.8935980">
        <ele>191.8</ele>
        <time>2019-01-01T14:37:04Z</time>
      </trkpt>
      <trkpt lat="41.6654350" lon="-0.8935630">
        <ele>191.8</ele>
        <time>2019-01-01T14:37:05Z</time>
      </trkpt>
      <trkpt lat="41.6654010" lon="-0.8935280">
        <ele>191.8</ele>
        <time>2019-01-01T14:37:06Z</time>
      </trkpt>
      <trkpt lat="41.6653660" lon="-0.8934950">
        <ele>191.8</ele>
        <time>2019-01-01T14:37:07Z</time>
      </trkpt>
      <trkpt lat="41.6653330" lon="-0.8934610">
        <ele>191.8</ele>
        <time>2019-01-01T14:37:08Z</time>
      </trkpt>
      <trkpt lat="41.6653010" lon="-0.8934270">
        <ele>191.7</ele>
        <time>2019-01-01T14:37:09Z</time>
      </trkpt>
      <trkpt lat="41.6652690" lon="-0.8933910">
        <ele>191.6</ele>
        <time>2019-01-01T14:37:10Z</time>
      </trkpt>
      <trkpt lat="41.6652380" lon="-0.8933540">
        <ele>191.6</ele>
        <time>2019-01-01T14:37:11Z</time>
      </trkpt>
      <trkpt lat="41.6652050" lon="-0.8933140">
        <ele>191.5</ele>
        <time>2019-01-01T14:37:12Z</time>
      </trkpt>
      <trkpt lat="41.6651750" lon="-0.8932710">
        <ele>191.5</ele>
        <time>2019-01-01T14:37:13Z</time>
      </trkpt>
      <trkpt lat="41.6651460" lon="-0.8932290">
        <ele>191.4</ele>
        <time>2019-01-01T14:37:14Z</time>
      </trkpt>
      <trkpt lat="41.6651160" lon="-0.8931870">
        <ele>191.4</ele>
        <time>2019-01-01T14:37:15Z</time>
      </trkpt>
      <trkpt lat="41.6650830" lon="-0.8931480">
        <ele>191.3</ele>
        <time>2019-01-01T14:37:16Z</time>
      </trkpt>
      <trkpt lat="41.6650500" lon="-0.8931100">
        <ele>191.3</ele>
        <time>2019-01-01T14:37:17Z</time>
      </trkpt>
      <trkpt lat="41.6650160" lon="-0.8930700">
        <ele>191.3</ele>
        <time>2019-01-01T14:37:18Z</time>
      </trkpt>
      <trkpt lat="41.6649840" lon="-0.8930310">
        <ele>191.3</ele>
        <time>2019-01-01T14:37:19Z</time>
      </trkpt>
      <trkpt lat="41.6649500" lon="-0.8929910">
        <ele>191.2</ele>
        <time>2019-01-01T14:37:20Z</time>
      </trkpt>
      <trkpt lat="41.6649190" lon="-0.8929510">
        <ele>191.2</ele>
        <time>2019-01-01T14:37:21Z</time>
      </trkpt>
      <trkpt lat="41.6648880" lon="-0.8929100">
        <ele>191.2</ele>
        <time>2019-01-01T14:37:22Z</time>
      </trkpt>
      <trkpt lat="41.6648570" lon="-0.8928690">
        <ele>191.2</ele>
        <time>2019-01-01T14:37:23Z</time>
      </trkpt>
      <trkpt lat="41.6648280" lon="-0.8928260">
        <ele>191.1</ele>
        <time>2019-01-01T14:37:24Z</time>
      </trkpt>
      <trkpt lat="41.6647970" lon="-0.8927850">
        <ele>191.2</ele>
        <time>2019-01-01T14:37:25Z</time>
      </trkpt>
      <trkpt lat="41.6647660" lon="-0.8927450">
        <ele>191.3</ele>
        <time>2019-01-01T14:37:26Z</time>
      </trkpt>
      <trkpt lat="41.6647330" lon="-0.8927060">
        <ele>191.4</ele>
        <time>2019-01-01T14:37:27Z</time>
      </trkpt>
      <trkpt lat="41.6647000" lon="-0.8926660">
        <ele>191.5</ele>
        <time>2019-01-01T14:37:28Z</time>
      </trkpt>
      <trkpt lat="41.6646700" lon="-0.8926230">
        <ele>191.6</ele>
        <time>2019-01-01T14:37:29Z</time>
      </trkpt>
      <trkpt lat="41.6646380" lon="-0.8925810">
        <ele>191.8</ele>
        <time>2019-01-01T14:37:30Z</time>
      </trkpt>
      <trkpt lat="41.6646080" lon="-0.8925390">
        <ele>191.9</ele>
        <time>2019-01-01T14:37:31Z</time>
      </trkpt>
      <trkpt lat="41.6645790" lon="-0.8924980">
        <ele>192.0</ele>
        <time>2019-01-01T14:37:32Z</time>
      </trkpt>
      <trkpt lat="41.6645520" lon="-0.8924550">
        <ele>192.1</ele>
        <time>2019-01-01T14:37:33Z</time>
      </trkpt>
      <trkpt lat="41.6645230" lon="-0.8924190">
        <ele>192.2</ele>
        <time>2019-01-01T14:37:34Z</time>
      </trkpt>
      <trkpt lat="41.6644960" lon="-0.8923840">
        <ele>192.3</ele>
        <time>2019-01-01T14:37:35Z</time>
      </trkpt>
      <trkpt lat="41.6644740" lon="-0.8923560">
        <ele>192.4</ele>
        <time>2019-01-01T14:37:36Z</time>
      </trkpt>
      <trkpt lat="41.6644550" lon="-0.8923290">
        <ele>192.5</ele>
        <time>2019-01-01T14:37:37Z</time>
      </trkpt>
      <trkpt lat="41.6644340" lon="-0.8923040">
        <ele>192.5</ele>
        <time>2019-01-01T14:37:38Z</time>
      </trkpt>
      <trkpt lat="41.6644130" lon="-0.8922790">
        <ele>192.6</ele>
        <time>2019-01-01T14:37:39Z</time>
      </trkpt>
      <trkpt lat="41.6643930" lon="-0.8922520">
        <ele>192.7</ele>
        <time>2019-01-01T14:37:40Z</time>
      </trkpt>
      <trkpt lat="41.6643610" lon="-0.8921960">
        <ele>192.8</ele>
        <time>2019-01-01T14:37:42Z</time>
      </trkpt>
      <trkpt lat="41.6643450" lon="-0.8921420">
        <ele>192.9</ele>
        <time>2019-01-01T14:37:44Z</time>
      </trkpt>
      <trkpt lat="41.6643020" lon="-0.8920900">
        <ele>193.0</ele>
        <time>2019-01-01T14:37:46Z</time>
      </trkpt>
      <trkpt lat="41.6642730" lon="-0.8920600">
        <ele>193.1</ele>
        <time>2019-01-01T14:37:47Z</time>
      </trkpt>
      <trkpt lat="41.6642340" lon="-0.8920150">
        <ele>193.2</ele>
        <time>2019-01-01T14:37:48Z</time>
      </trkpt>
      <trkpt lat="41.6641730" lon="-0.8919470">
        <ele>193.4</ele>
        <time>2019-01-01T14:37:49Z</time>
      </trkpt>
      <trkpt lat="41.6641420" lon="-0.8918890">
        <ele>193.6</ele>
        <time>2019-01-01T14:37:50Z</time>
      </trkpt>
      <trkpt lat="41.6640980" lon="-0.8918340">
        <ele>193.7</ele>
        <time>2019-01-01T14:37:51Z</time>
      </trkpt>
      <trkpt lat="41.6640590" lon="-0.8917770">
        <ele>193.8</ele>
        <time>2019-01-01T14:37:52Z</time>
      </trkpt>
      <trkpt lat="41.6640210" lon="-0.8917230">
        <ele>194.0</ele>
        <time>2019-01-01T14:37:53Z</time>
      </trkpt>
      <trkpt lat="41.6639790" lon="-0.8916890">
        <ele>194.1</ele>
        <time>2019-01-01T14:37:54Z</time>
      </trkpt>
      <trkpt lat="41.6639510" lon="-0.8916580">
        <ele>194.2</ele>
        <time>2019-01-01T14:37:55Z</time>
      </trkpt>
      <trkpt lat="41.6639170" lon="-0.8915830">
        <ele>194.4</ele>
        <time>2019-01-01T14:37:56Z</time>
      </trkpt>
      <trkpt lat="41.6638710" lon="-0.8915840">
        <ele>194.5</ele>
        <time>2019-01-01T14:37:57Z</time>
      </trkpt>
      <trkpt lat="41.6638750" lon="-0.8915200">
        <ele>194.7</ele>
        <time>2019-01-01T14:37:58Z</time>
      </trkpt>
      <trkpt lat="41.6638430" lon="-0.8915160">
        <ele>194.8</ele>
        <time>2019-01-01T14:37:59Z</time>
      </trkpt>
      <trkpt lat="41.6638390" lon="-0.8914240">
        <ele>194.9</ele>
        <time>2019-01-01T14:38:00Z</time>
      </trkpt>
      <trkpt lat="41.6638120" lon="-0.8914140">
        <ele>194.9</ele>
        <time>2019-01-01T14:38:01Z</time>
      </trkpt>
      <trkpt lat="41.6637770" lon="-0.8913800">
        <ele>195.0</ele>
        <time>2019-01-01T14:38:02Z</time>
      </trkpt>
      <trkpt lat="41.6637410" lon="-0.8913240">
        <ele>195.1</ele>
        <time>2019-01-01T14:38:03Z</time>
      </trkpt>
      <trkpt lat="41.6637150" lon="-0.8912890">
        <ele>195.2</ele>
        <time>2019-01-01T14:38:04Z</time>
      </trkpt>
      <trkpt lat="41.6636750" lon="-0.8912310">
        <ele>195.3</ele>
        <time>2019-01-01T14:38:05Z</time>
      </trkpt>
      <trkpt lat="41.6636420" lon="-0.8911790">
        <ele>195.4</ele>
        <time>2019-01-01T14:38:06Z</time>
      </trkpt>
      <trkpt lat="41.6636300" lon="-0.8911070">
        <ele>195.6</ele>
        <time>2019-01-01T14:38:07Z</time>
      </trkpt>
      <trkpt lat="41.6635990" lon="-0.8910810">
        <ele>195.7</ele>
        <time>2019-01-01T14:38:08Z</time>
      </trkpt>
      <trkpt lat="41.6635730" lon="-0.8910580">
        <ele>195.8</ele>
        <time>2019-01-01T14:38:09Z</time>
      </trkpt>
      <trkpt lat="41.6635400" lon="-0.8909990">
        <ele>195.9</ele>
        <time>2019-01-01T14:38:10Z</time>
      </trkpt>
      <trkpt lat="41.6635240" lon="-0.8909460">
        <ele>196.1</ele>
        <time>2019-01-01T14:38:11Z</time>
      </trkpt>
      <trkpt lat="41.6635020" lon="-0.8909110">
        <ele>196.2</ele>
        <time>2019-01-01T14:38:12Z</time>
      </trkpt>
      <trkpt lat="41.6634810" lon="-0.8908580">
        <ele>196.4</ele>
        <time>2019-01-01T14:38:13Z</time>
      </trkpt>
      <trkpt lat="41.6634550" lon="-0.8908100">
        <ele>196.5</ele>
        <time>2019-01-01T14:38:14Z</time>
      </trkpt>
      <trkpt lat="41.6634120" lon="-0.8907740">
        <ele>196.7</ele>
        <time>2019-01-01T14:38:15Z</time>
      </trkpt>
      <trkpt lat="41.6633870" lon="-0.8907210">
        <ele>196.9</ele>
        <time>2019-01-01T14:38:16Z</time>
      </trkpt>
      <trkpt lat="41.6633640" lon="-0.8906650">
        <ele>197.1</ele>
        <time>2019-01-01T14:38:17Z</time>
      </trkpt>
      <trkpt lat="41.6633380" lon="-0.8906070">
        <ele>197.3</ele>
        <time>2019-01-01T14:38:18Z</time>
      </trkpt>
      <trkpt lat="41.6633210" lon="-0.8905550">
        <ele>197.5</ele>
        <time>2019-01-01T14:38:19Z</time>
      </trkpt>
      <trkpt lat="41.6632850" lon="-0.8905300">
        <ele>197.7</ele>
        <time>2019-01-01T14:38:20Z</time>
      </trkpt>
      <trkpt lat="41.6632550" lon="-0.8904900">
        <ele>197.8</ele>
        <time>2019-01-01T14:38:21Z</time>
      </trkpt>
      <trkpt lat="41.6632290" lon="-0.8904360">
        <ele>198.0</ele>
        <time>2019-01-01T14:38:22Z</time>
      </trkpt>
      <trkpt lat="41.6632050" lon="-0.8903840">
        <ele>198.2</ele>
        <time>2019-01-01T14:38:23Z</time>
      </trkpt>
      <trkpt lat="41.6631810" lon="-0.8903320">
        <ele>198.3</ele>
        <time>2019-01-01T14:38:24Z</time>
      </trkpt>
      <trkpt lat="41.6631570" lon="-0.8902850">
        <ele>198.4</ele>
        <time>2019-01-01T14:38:25Z</time>
      </trkpt>
      <trkpt lat="41.6631300" lon="-0.8902430">
        <ele>198.6</ele>
        <time>2019-01-01T14:38:26Z</time>
      </trkpt>
      <trkpt lat="41.6631020" lon="-0.8902010">
        <ele>198.7</ele>
        <time>2019-01-01T14:38:27Z</time>
      </trkpt>
      <trkpt lat="41.6630750" lon="-0.8901570">
        <ele>198.8</ele>
        <time>2019-01-01T14:38:28Z</time>
      </trkpt>
      <trkpt lat="41.6630480" lon="-0.8901130">
        <ele>198.9</ele>
        <time>2019-01-01T14:38:29Z</time>
      </trkpt>
      <trkpt lat="41.6630220" lon="-0.8900710">
        <ele>199.0</ele>
        <time>2019-01-01T14:38:30Z</time>
      </trkpt>
      <trkpt lat="41.6629950" lon="-0.8900290">
        <ele>199.1</ele>
        <time>2019-01-01T14:38:31Z</time>
      </trkpt>
      <trkpt lat="41.6629660" lon="-0.8899850">
        <ele>199.3</ele>
        <time>2019-01-01T14:38:32Z</time>
      </trkpt>
      <trkpt lat="41.6629360" lon="-0.8899440">
        <ele>199.4</ele>
        <time>2019-01-01T14:38:33Z</time>
      </trkpt>
      <trkpt lat="41.6629050" lon="-0.8899030">
        <ele>199.5</ele>
        <time>2019-01-01T14:38:34Z</time>
      </trkpt>
      <trkpt lat="41.6628720" lon="-0.8898660">
        <ele>199.5</ele>
        <time>2019-01-01T14:38:35Z</time>
      </trkpt>
      <trkpt lat="41.6628370" lon="-0.8898350">
        <ele>199.6</ele>
        <time>2019-01-01T14:38:36Z</time>
      </trkpt>
      <trkpt lat="41.6628020" lon="-0.8898070">
        <ele>199.7</ele>
        <time>2019-01-01T14:38:37Z</time>
      </trkpt>
      <trkpt lat="41.6627680" lon="-0.8897760">
        <ele>200.0</ele>
        <time>2019-01-01T14:38:38Z</time>
      </trkpt>
      <trkpt lat="41.6627360" lon="-0.8897440">
        <ele>199.9</ele>
        <time>2019-01-01T14:38:39Z</time>
      </trkpt>
      <trkpt lat="41.6627060" lon="-0.8897150">
        <ele>199.7</ele>
        <time>2019-01-01T14:38:40Z</time>
      </trkpt>
      <trkpt lat="41.6626700" lon="-0.8896910">
        <ele>199.6</ele>
        <time>2019-01-01T14:38:42Z</time>
      </trkpt>
      <trkpt lat="41.6626320" lon="-0.8896740">
        <ele>199.5</ele>
        <time>2019-01-01T14:38:44Z</time>
      </trkpt>
      <trkpt lat="41.6625840" lon="-0.8896550">
        <ele>199.4</ele>
        <time>2019-01-01T14:38:46Z</time>
      </trkpt>
      <trkpt lat="41.6625570" lon="-0.8896430">
        <ele>199.3</ele>
        <time>2019-01-01T14:38:47Z</time>
      </trkpt>
      <trkpt lat="41.6625290" lon="-0.8896280">
        <ele>199.2</ele>
        <time>2019-01-01T14:38:48Z</time>
      </trkpt>
      <trkpt lat="41.6624820" lon="-0.8896010">
        <ele>199.0</ele>
        <time>2019-01-01T14:38:50Z</time>
      </trkpt>
      <trkpt lat="41.6624450" lon="-0.8895800">
        <ele>198.9</ele>
        <time>2019-01-01T14:38:52Z</time>
      </trkpt>
      <trkpt lat="41.6623990" lon="-0.8896200">
        <ele>198.8</ele>
        <time>2019-01-01T14:39:38Z</time>
      </trkpt>
      <trkpt lat="41.6623660" lon="-0.8895710">
        <ele>198.7</ele>
        <time>2019-01-01T14:39:40Z</time>
      </trkpt>
      <trkpt lat="41.6623500" lon="-0.8895410">
        <ele>198.7</ele>
        <time>2019-01-01T14:39:41Z</time>
      </trkpt>
      <trkpt lat="41.6623340" lon="-0.8895110">
        <ele>198.7</ele>
        <time>2019-01-01T14:39:42Z</time>
      </trkpt>
      <trkpt lat="41.6623160" lon="-0.8894800">
        <ele>198.7</ele>
        <time>2019-01-01T14:39:43Z</time>
      </trkpt>
      <trkpt lat="41.6622950" lon="-0.8894490">
        <ele>198.6</ele>
        <time>2019-01-01T14:39:44Z</time>
      </trkpt>
      <trkpt lat="41.6622720" lon="-0.8894060">
        <ele>198.6</ele>
        <time>2019-01-01T14:39:45Z</time>
      </trkpt>
      <trkpt lat="41.6622550" lon="-0.8893640">
        <ele>198.6</ele>
        <time>2019-01-01T14:39:46Z</time>
      </trkpt>
      <trkpt lat="41.6622440" lon="-0.8893240">
        <ele>198.6</ele>
        <time>2019-01-01T14:39:47Z</time>
      </trkpt>
      <trkpt lat="41.6622370" lon="-0.8892890">
        <ele>198.6</ele>
        <time>2019-01-01T14:39:48Z</time>
      </trkpt>
      <trkpt lat="41.6622350" lon="-0.8892450">
        <ele>198.7</ele>
        <time>2019-01-01T14:39:49Z</time>
      </trkpt>
      <trkpt lat="41.6622420" lon="-0.8892000">
        <ele>198.8</ele>
        <time>2019-01-01T14:39:50Z</time>
      </trkpt>
      <trkpt lat="41.6622540" lon="-0.8891520">
        <ele>198.9</ele>
        <time>2019-01-01T14:39:51Z</time>
      </trkpt>
      <trkpt lat="41.6622710" lon="-0.8891020">
        <ele>199.0</ele>
        <time>2019-01-01T14:39:52Z</time>
      </trkpt>
      <trkpt lat="41.6622840" lon="-0.8890420">
        <ele>199.2</ele>
        <time>2019-01-01T14:39:53Z</time>
      </trkpt>
      <trkpt lat="41.6623000" lon="-0.8889790">
        <ele>199.1</ele>
        <time>2019-01-01T14:39:54Z</time>
      </trkpt>
      <trkpt lat="41.6623130" lon="-0.8889150">
        <ele>199.0</ele>
        <time>2019-01-01T14:39:55Z</time>
      </trkpt>
      <trkpt lat="41.6623250" lon="-0.8888560">
        <ele>198.9</ele>
        <time>2019-01-01T14:39:56Z</time>
      </trkpt>
      <trkpt lat="41.6623320" lon="-0.8888030">
        <ele>198.7</ele>
        <time>2019-01-01T14:39:57Z</time>
      </trkpt>
      <trkpt lat="41.6623390" lon="-0.8887630">
        <ele>198.6</ele>
        <time>2019-01-01T14:39:58Z</time>
      </trkpt>
      <trkpt lat="41.6623260" lon="-0.8886870">
        <ele>198.4</ele>
        <time>2019-01-01T14:40:00Z</time>
      </trkpt>
      <trkpt lat="41.6623140" lon="-0.8886440">
        <ele>198.3</ele>
        <time>2019-01-01T14:40:01Z</time>
      </trkpt>
      <trkpt lat="41.6622960" lon="-0.8885920">
        <ele>198.1</ele>
        <time>2019-01-01T14:40:02Z</time>
      </trkpt>
      <trkpt lat="41.6622750" lon="-0.8885340">
        <ele>198.0</ele>
        <time>2019-01-01T14:40:03Z</time>
      </trkpt>
      <trkpt lat="41.6622570" lon="-0.8884510">
        <ele>197.7</ele>
        <time>2019-01-01T14:40:04Z</time>
      </trkpt>
      <trkpt lat="41.6622420" lon="-0.8882440">
        <ele>197.1</ele>
        <time>2019-01-01T14:40:05Z</time>
      </trkpt>
      <trkpt lat="41.6622030" lon="-0.8881770">
        <ele>196.9</ele>
        <time>2019-01-01T14:40:06Z</time>
      </trkpt>
      <trkpt lat="41.6621890" lon="-0.8881300">
        <ele>196.8</ele>
        <time>2019-01-01T14:40:07Z</time>
      </trkpt>
      <trkpt lat="41.6621640" lon="-0.8880560">
        <ele>196.6</ele>
        <time>2019-01-01T14:40:08Z</time>
      </trkpt>
      <trkpt lat="41.6621380" lon="-0.8880180">
        <ele>196.5</ele>
        <time>2019-01-01T14:40:09Z</time>
      </trkpt>
      <trkpt lat="41.6621350" lon="-0.8879590">
        <ele>196.4</ele>
        <time>2019-01-01T14:40:10Z</time>
      </trkpt>
      <trkpt lat="41.6621100" lon="-0.8879100">
        <ele>196.3</ele>
        <time>2019-01-01T14:40:11Z</time>
      </trkpt>
      <trkpt lat="41.6620940" lon="-0.8878560">
        <ele>196.2</ele>
        <time>2019-01-01T14:40:12Z</time>
      </trkpt>
      <trkpt lat="41.6620800" lon="-0.8878130">
        <ele>196.1</ele>
        <time>2019-01-01T14:40:13Z</time>
      </trkpt>
      <trkpt lat="41.6620500" lon="-0.8877570">
        <ele>196.0</ele>
        <time>2019-01-01T14:40:14Z</time>
      </trkpt>
      <trkpt lat="41.6620320" lon="-0.8876730">
        <ele>195.8</ele>
        <time>2019-01-01T14:40:15Z</time>
      </trkpt>
      <trkpt lat="41.6619990" lon="-0.8876130">
        <ele>195.7</ele>
        <time>2019-01-01T14:40:16Z</time>
      </trkpt>
      <trkpt lat="41.6619750" lon="-0.8875600">
        <ele>195.6</ele>
        <time>2019-01-01T14:40:17Z</time>
      </trkpt>
      <trkpt lat="41.6619490" lon="-0.8875000">
        <ele>195.5</ele>
        <time>2019-01-01T14:40:18Z</time>
      </trkpt>
      <trkpt lat="41.6619330" lon="-0.8874520">
        <ele>195.4</ele>
        <time>2019-01-01T14:40:19Z</time>
      </trkpt>
      <trkpt lat="41.6619200" lon="-0.8873800">
        <ele>195.2</ele>
        <time>2019-01-01T14:40:20Z</time>
      </trkpt>
      <trkpt lat="41.6619070" lon="-0.8873060">
        <ele>195.1</ele>
        <time>2019-01-01T14:40:21Z</time>
      </trkpt>
      <trkpt lat="41.6618930" lon="-0.8872410">
        <ele>195.0</ele>
        <time>2019-01-01T14:40:22Z</time>
      </trkpt>
      <trkpt lat="41.6618710" lon="-0.8871770">
        <ele>194.8</ele>
        <time>2019-01-01T14:40:23Z</time>
      </trkpt>
      <trkpt lat="41.6618520" lon="-0.8871380">
        <ele>194.7</ele>
        <time>2019-01-01T14:40:24Z</time>
      </trkpt>
      <trkpt lat="41.6618110" lon="-0.8870710">
        <ele>194.7</ele>
        <time>2019-01-01T14:40:25Z</time>
      </trkpt>
      <trkpt lat="41.6617880" lon="-0.8870220">
        <ele>194.6</ele>
        <time>2019-01-01T14:40:26Z</time>
      </trkpt>
      <trkpt lat="41.6617730" lon="-0.8868940">
        <ele>194.5</ele>
        <time>2019-01-01T14:40:27Z</time>
      </trkpt>
      <trkpt lat="41.6617520" lon="-0.8868060">
        <ele>194.5</ele>
        <time>2019-01-01T14:40:28Z</time>
      </trkpt>
      <trkpt lat="41.6617280" lon="-0.8867180">
        <ele>194.4</ele>
        <time>2019-01-01T14:40:29Z</time>
      </trkpt>
      <trkpt lat="41.6617100" lon="-0.8866430">
        <ele>194.3</ele>
        <time>2019-01-01T14:40:30Z</time>
      </trkpt>
      <trkpt lat="41.6616840" lon="-0.8865640">
        <ele>194.4</ele>
        <time>2019-01-01T14:40:31Z</time>
      </trkpt>
      <trkpt lat="41.6616660" lon="-0.8864970">
        <ele>194.5</ele>
        <time>2019-01-01T14:40:32Z</time>
      </trkpt>
      <trkpt lat="41.6616260" lon="-0.8864420">
        <ele>194.5</ele>
        <time>2019-01-01T14:40:33Z</time>
      </trkpt>
      <trkpt lat="41.6615740" lon="-0.8864240">
        <ele>194.6</ele>
        <time>2019-01-01T14:40:34Z</time>
      </trkpt>
      <trkpt lat="41.6615140" lon="-0.8864200">
        <ele>194.6</ele>
        <time>2019-01-01T14:40:35Z</time>
      </trkpt>
      <trkpt lat="41.6614880" lon="-0.8863810">
        <ele>194.6</ele>
        <time>2019-01-01T14:40:36Z</time>
      </trkpt>
      <trkpt lat="41.6614400" lon="-0.8863450">
        <ele>194.7</ele>
        <time>2019-01-01T14:40:37Z</time>
      </trkpt>
      <trkpt lat="41.6614010" lon="-0.8863290">
        <ele>194.7</ele>
        <time>2019-01-01T14:40:38Z</time>
      </trkpt>
      <trkpt lat="41.6613790" lon="-0.8862920">
        <ele>194.8</ele>
        <time>2019-01-01T14:40:39Z</time>
      </trkpt>
      <trkpt lat="41.6613670" lon="-0.8862580">
        <ele>194.8</ele>
        <time>2019-01-01T14:40:40Z</time>
      </trkpt>
      <trkpt lat="41.6613840" lon="-0.8862010">
        <ele>194.8</ele>
        <time>2019-01-01T14:40:42Z</time>
      </trkpt>
      <trkpt lat="41.6614190" lon="-0.8861810">
        <ele>194.8</ele>
        <time>2019-01-01T14:40:43Z</time>
      </trkpt>
      <trkpt lat="41.6613840" lon="-0.8861790">
        <ele>194.9</ele>
        <time>2019-01-01T14:41:35Z</time>
      </trkpt>
      <trkpt lat="41.6613920" lon="-0.8862150">
        <ele>194.9</ele>
        <time>2019-01-01T14:41:41Z</time>
      </trkpt>
      <trkpt lat="41.6613650" lon="-0.8862380">
        <ele>194.9</ele>
        <time>2019-01-01T14:41:48Z</time>
      </trkpt>
      <trkpt lat="41.6613430" lon="-0.8862750">
        <ele>194.9</ele>
        <time>2019-01-01T14:41:53Z</time>
      </trkpt>
      <trkpt lat="41.6614230" lon="-0.8863150">
        <ele>194.9</ele>
        <time>2019-01-01T14:51:12Z</time>
      </trkpt>
      <trkpt lat="41.6614450" lon="-0.8863510">
        <ele>194.8</ele>
        <time>2019-01-01T14:51:15Z</time>
      </trkpt>
      <trkpt lat="41.6614720" lon="-0.8863690">
        <ele>194.8</ele>
        <time>2019-01-01T14:51:18Z</time>
      </trkpt>
      <trkpt lat="41.6615000" lon="-0.8863960">
        <ele>194.7</ele>
        <time>2019-01-01T14:51:27Z</time>
      </trkpt>
      <trkpt lat="41.6615260" lon="-0.8864300">
        <ele>194.7</ele>
        <time>2019-01-01T14:51:30Z</time>
      </trkpt>
      <trkpt lat="41.6615500" lon="-0.8864620">
        <ele>194.6</ele>
        <time>2019-01-01T14:51:33Z</time>
      </trkpt>
      <trkpt lat="41.6615700" lon="-0.8864940">
        <ele>194.6</ele>
        <time>2019-01-01T14:51:37Z</time>
      </trkpt>
      <trkpt lat="41.6615920" lon="-0.8865150">
        <ele>194.5</ele>
        <time>2019-01-01T14:51:39Z</time>
      </trkpt>
      <trkpt lat="41.6616210" lon="-0.8865890">
        <ele>194.5</ele>
        <time>2019-01-01T14:51:55Z</time>
      </trkpt>
      <trkpt lat="41.6616060" lon="-0.8866480">
        <ele>194.4</ele>
        <time>2019-01-01T14:51:58Z</time>
      </trkpt>
      <trkpt lat="41.6616040" lon="-0.8867000">
        <ele>194.3</ele>
        <time>2019-01-01T14:51:59Z</time>
      </trkpt>
      <trkpt lat="41.6616120" lon="-0.8867550">
        <ele>194.4</ele>
        <time>2019-01-01T14:52:00Z</time>
      </trkpt>
      <trkpt lat="41.6616240" lon="-0.8868050">
        <ele>194.4</ele>
        <time>2019-01-01T14:52:01Z</time>
      </trkpt>
      <trkpt lat="41.6616370" lon="-0.8868510">
        <ele>194.4</ele>
        <time>2019-01-01T14:52:02Z</time>
      </trkpt>
      <trkpt lat="41.6616500" lon="-0.8868990">
        <ele>194.5</ele>
        <time>2019-01-01T14:52:03Z</time>
      </trkpt>
      <trkpt lat="41.6616630" lon="-0.8869460">
        <ele>194.5</ele>
        <time>2019-01-01T14:52:04Z</time>
      </trkpt>
      <trkpt lat="41.6616810" lon="-0.8869930">
        <ele>194.6</ele>
        <time>2019-01-01T14:52:05Z</time>
      </trkpt>
      <trkpt lat="41.6617000" lon="-0.8870390">
        <ele>194.6</ele>
        <time>2019-01-01T14:52:06Z</time>
      </trkpt>
      <trkpt lat="41.6617210" lon="-0.8870910">
        <ele>194.6</ele>
        <time>2019-01-01T14:52:07Z</time>
      </trkpt>
      <trkpt lat="41.6617420" lon="-0.8871430">
        <ele>194.7</ele>
        <time>2019-01-01T14:52:08Z</time>
      </trkpt>
      <trkpt lat="41.6617610" lon="-0.8871920">
        <ele>194.7</ele>
        <time>2019-01-01T14:52:09Z</time>
      </trkpt>
      <trkpt lat="41.6617790" lon="-0.8872420">
        <ele>194.8</ele>
        <time>2019-01-01T14:52:10Z</time>
      </trkpt>
      <trkpt lat="41.6617960" lon="-0.8872910">
        <ele>194.9</ele>
        <time>2019-01-01T14:52:11Z</time>
      </trkpt>
      <trkpt lat="41.6618140" lon="-0.8873380">
        <ele>195.0</ele>
        <time>2019-01-01T14:52:12Z</time>
      </trkpt>
      <trkpt lat="41.6618330" lon="-0.8873840">
        <ele>195.1</ele>
        <time>2019-01-01T14:52:13Z</time>
      </trkpt>
      <trkpt lat="41.6618540" lon="-0.8874300">
        <ele>195.2</ele>
        <time>2019-01-01T14:52:14Z</time>
      </trkpt>
      <trkpt lat="41.6618720" lon="-0.8874750">
        <ele>195.3</ele>
        <time>2019-01-01T14:52:15Z</time>
      </trkpt>
      <trkpt lat="41.6618900" lon="-0.8875230">
        <ele>195.4</ele>
        <time>2019-01-01T14:52:16Z</time>
      </trkpt>
      <trkpt lat="41.6619080" lon="-0.8875750">
        <ele>195.5</ele>
        <time>2019-01-01T14:52:17Z</time>
      </trkpt>
      <trkpt lat="41.6619260" lon="-0.8876220">
        <ele>195.6</ele>
        <time>2019-01-01T14:52:18Z</time>
      </trkpt>
      <trkpt lat="41.6619450" lon="-0.8876660">
        <ele>195.7</ele>
        <time>2019-01-01T14:52:19Z</time>
      </trkpt>
      <trkpt lat="41.6619630" lon="-0.8877090">
        <ele>195.8</ele>
        <time>2019-01-01T14:52:20Z</time>
      </trkpt>
      <trkpt lat="41.6619800" lon="-0.8877530">
        <ele>195.9</ele>
        <time>2019-01-01T14:52:21Z</time>
      </trkpt>
      <trkpt lat="41.6619960" lon="-0.8877940">
        <ele>196.0</ele>
        <time>2019-01-01T14:52:22Z</time>
      </trkpt>
      <trkpt lat="41.6620160" lon="-0.8878390">
        <ele>196.0</ele>
        <time>2019-01-01T14:52:23Z</time>
      </trkpt>
      <trkpt lat="41.6620360" lon="-0.8878830">
        <ele>196.1</ele>
        <time>2019-01-01T14:52:24Z</time>
      </trkpt>
      <trkpt lat="41.6620550" lon="-0.8879260">
        <ele>196.2</ele>
        <time>2019-01-01T14:52:25Z</time>
      </trkpt>
      <trkpt lat="41.6620720" lon="-0.8879660">
        <ele>196.3</ele>
        <time>2019-01-01T14:52:26Z</time>
      </trkpt>
      <trkpt lat="41.6620890" lon="-0.8880070">
        <ele>196.3</ele>
        <time>2019-01-01T14:52:27Z</time>
      </trkpt>
      <trkpt lat="41.6621070" lon="-0.8880460">
        <ele>196.4</ele>
        <time>2019-01-01T14:52:28Z</time>
      </trkpt>
      <trkpt lat="41.6621210" lon="-0.8880770">
        <ele>196.5</ele>
        <time>2019-01-01T14:52:29Z</time>
      </trkpt>
      <trkpt lat="41.6621450" lon="-0.8881390">
        <ele>196.6</ele>
        <time>2019-01-01T14:52:31Z</time>
      </trkpt>
      <trkpt lat="41.6621580" lon="-0.8881740">
        <ele>196.7</ele>
        <time>2019-01-01T14:52:32Z</time>
      </trkpt>
      <trkpt lat="41.6621860" lon="-0.8882440">
        <ele>196.9</ele>
        <time>2019-01-01T14:52:34Z</time>
      </trkpt>
      <trkpt lat="41.6621970" lon="-0.8882820">
        <ele>197.0</ele>
        <time>2019-01-01T14:52:35Z</time>
      </trkpt>
      <trkpt lat="41.6622070" lon="-0.8883200">
        <ele>197.1</ele>
        <time>2019-01-01T14:52:36Z</time>
      </trkpt>
      <trkpt lat="41.6622170" lon="-0.8883570">
        <ele>197.3</ele>
        <time>2019-01-01T14:52:37Z</time>
      </trkpt>
      <trkpt lat="41.6622320" lon="-0.8884230">
        <ele>197.5</ele>
        <time>2019-01-01T14:52:39Z</time>
      </trkpt>
      <trkpt lat="41.6622430" lon="-0.8884780">
        <ele>197.6</ele>
        <time>2019-01-01T14:52:41Z</time>
      </trkpt>
      <trkpt lat="41.6622470" lon="-0.8885300">
        <ele>197.8</ele>
        <time>2019-01-01T14:52:43Z</time>
      </trkpt>
      <trkpt lat="41.6622500" lon="-0.8885690">
        <ele>197.9</ele>
        <time>2019-01-01T14:52:46Z</time>
      </trkpt>
      <trkpt lat="41.6622690" lon="-0.8885980">
        <ele>198.0</ele>
        <time>2019-01-01T14:52:57Z</time>
      </trkpt>
      <trkpt lat="41.6623200" lon="-0.8886070">
        <ele>198.2</ele>
        <time>2019-01-01T14:52:59Z</time>
      </trkpt>
      <trkpt lat="41.6623480" lon="-0.8885960">
        <ele>198.2</ele>
        <time>2019-01-01T14:53:00Z</time>
      </trkpt>
      <trkpt lat="41.6623780" lon="-0.8885800">
        <ele>199.0</ele>
        <time>2019-01-01T14:53:01Z</time>
      </trkpt>
      <trkpt lat="41.6624250" lon="-0.8885520">
        <ele>199.2</ele>
        <time>2019-01-01T14:53:02Z</time>
      </trkpt>
      <trkpt lat="41.6624730" lon="-0.8885210">
        <ele>199.4</ele>
        <time>2019-01-01T14:53:03Z</time>
      </trkpt>
      <trkpt lat="41.6625470" lon="-0.8884980">
        <ele>199.7</ele>
        <time>2019-01-01T14:53:04Z</time>
      </trkpt>
      <trkpt lat="41.6625920" lon="-0.8885170">
        <ele>200.0</ele>
        <time>2019-01-01T14:53:05Z</time>
      </trkpt>
      <trkpt lat="41.6626320" lon="-0.8885470">
        <ele>200.4</ele>
        <time>2019-01-01T14:53:06Z</time>
      </trkpt>
      <trkpt lat="41.6626900" lon="-0.8885510">
        <ele>200.8</ele>
        <time>2019-01-01T14:53:07Z</time>
      </trkpt>
      <trkpt lat="41.6627380" lon="-0.8885550">
        <ele>201.1</ele>
        <time>2019-01-01T14:53:08Z</time>
      </trkpt>
      <trkpt lat="41.6627840" lon="-0.8885520">
        <ele>201.4</ele>
        <time>2019-01-01T14:53:09Z</time>
      </trkpt>
      <trkpt lat="41.6628370" lon="-0.8885240">
        <ele>201.8</ele>
        <time>2019-01-01T14:53:10Z</time>
      </trkpt>
      <trkpt lat="41.6629040" lon="-0.8884850">
        <ele>202.3</ele>
        <time>2019-01-01T14:53:11Z</time>
      </trkpt>
      <trkpt lat="41.6629450" lon="-0.8884520">
        <ele>202.4</ele>
        <time>2019-01-01T14:53:12Z</time>
      </trkpt>
      <trkpt lat="41.6629740" lon="-0.8884110">
        <ele>202.6</ele>
        <time>2019-01-01T14:53:13Z</time>
      </trkpt>
      <trkpt lat="41.6630250" lon="-0.8883420">
        <ele>202.8</ele>
        <time>2019-01-01T14:53:14Z</time>
      </trkpt>
      <trkpt lat="41.6630650" lon="-0.8882970">
        <ele>203.0</ele>
        <time>2019-01-01T14:53:15Z</time>
      </trkpt>
      <trkpt lat="41.6630940" lon="-0.8882660">
        <ele>203.1</ele>
        <time>2019-01-01T14:53:16Z</time>
      </trkpt>
      <trkpt lat="41.6631210" lon="-0.8882480">
        <ele>203.2</ele>
        <time>2019-01-01T14:53:17Z</time>
      </trkpt>
      <trkpt lat="41.6631640" lon="-0.8882290">
        <ele>203.4</ele>
        <time>2019-01-01T14:53:18Z</time>
      </trkpt>
      <trkpt lat="41.6631930" lon="-0.8882170">
        <ele>203.6</ele>
        <time>2019-01-01T14:53:19Z</time>
      </trkpt>
      <trkpt lat="41.6632320" lon="-0.8881980">
        <ele>203.7</ele>
        <time>2019-01-01T14:53:20Z</time>
      </trkpt>
      <trkpt lat="41.6632670" lon="-0.8881700">
        <ele>203.9</ele>
        <time>2019-01-01T14:53:21Z</time>
      </trkpt>
      <trkpt lat="41.6632970" lon="-0.8881020">
        <ele>204.0</ele>
        <time>2019-01-01T14:53:22Z</time>
      </trkpt>
      <trkpt lat="41.6633420" lon="-0.8880390">
        <ele>204.2</ele>
        <time>2019-01-01T14:53:23Z</time>
      </trkpt>
      <trkpt lat="41.6633780" lon="-0.8879880">
        <ele>204.3</ele>
        <time>2019-01-01T14:53:24Z</time>
      </trkpt>
      <trkpt lat="41.6634220" lon="-0.8879540">
        <ele>204.4</ele>
        <time>2019-01-01T14:53:25Z</time>
      </trkpt>
      <trkpt lat="41.6634680" lon="-0.8879120">
        <ele>204.5</ele>
        <time>2019-01-01T14:53:26Z</time>
      </trkpt>
      <trkpt lat="41.6635070" lon="-0.8878730">
        <ele>204.6</ele>
        <time>2019-01-01T14:53:27Z</time>
      </trkpt>
      <trkpt lat="41.6635820" lon="-0.8878500">
        <ele>204.8</ele>
        <time>2019-01-01T14:53:28Z</time>
      </trkpt>
      <trkpt lat="41.6636260" lon="-0.8878020">
        <ele>204.9</ele>
        <time>2019-01-01T14:53:29Z</time>
      </trkpt>
      <trkpt lat="41.6636720" lon="-0.8877670">
        <ele>205.0</ele>
        <time>2019-01-01T14:53:30Z</time>
      </trkpt>
      <trkpt lat="41.6637070" lon="-0.8877170">
        <ele>205.1</ele>
        <time>2019-01-01T14:53:31Z</time>
      </trkpt>
      <trkpt lat="41.6637430" lon="-0.8876650">
        <ele>205.3</ele>
        <time>2019-01-01T14:53:32Z</time>
      </trkpt>
      <trkpt lat="41.6638040" lon="-0.8876240">
        <ele>205.6</ele>
        <time>2019-01-01T14:53:33Z</time>
      </trkpt>
      <trkpt lat="41.6638520" lon="-0.8875960">
        <ele>205.8</ele>
        <time>2019-01-01T14:53:34Z</time>
      </trkpt>
      <trkpt lat="41.6638810" lon="-0.8875940">
        <ele>206.0</ele>
        <time>2019-01-01T14:53:35Z</time>
      </trkpt>
      <trkpt lat="41.6639270" lon="-0.8875350">
        <ele>205.8</ele>
        <time>2019-01-01T14:53:36Z</time>
      </trkpt>
      <trkpt lat="41.6639780" lon="-0.8875480">
        <ele>205.8</ele>
        <time>2019-01-01T14:53:38Z</time>
      </trkpt>
      <trkpt lat="41.6640290" lon="-0.8875030">
        <ele>205.7</ele>
        <time>2019-01-01T14:53:40Z</time>
      </trkpt>
      <trkpt lat="41.6641030" lon="-0.8874170">
        <ele>205.4</ele>
        <time>2019-01-01T14:53:41Z</time>
      </trkpt>
      <trkpt lat="41.6641640" lon="-0.8873650">
        <ele>205.2</ele>
        <time>2019-01-01T14:53:42Z</time>
      </trkpt>
      <trkpt lat="41.6641990" lon="-0.8873090">
        <ele>204.9</ele>
        <time>2019-01-01T14:53:43Z</time>
      </trkpt>
      <trkpt lat="41.6642450" lon="-0.8872630">
        <ele>204.4</ele>
        <time>2019-01-01T14:53:44Z</time>
      </trkpt>
      <trkpt lat="41.6642830" lon="-0.8872080">
        <ele>204.4</ele>
        <time>2019-01-01T14:53:45Z</time>
      </trkpt>
      <trkpt lat="41.6643220" lon="-0.8871540">
        <ele>204.4</ele>
        <time>2019-01-01T14:53:46Z</time>
      </trkpt>
      <trkpt lat="41.6643690" lon="-0.8870690">
        <ele>203.9</ele>
        <time>2019-01-01T14:53:47Z</time>
      </trkpt>
      <trkpt lat="41.6644100" lon="-0.8870000">
        <ele>203.5</ele>
        <time>2019-01-01T14:53:48Z</time>
      </trkpt>
      <trkpt lat="41.6644450" lon="-0.8869590">
        <ele>203.3</ele>
        <time>2019-01-01T14:53:49Z</time>
      </trkpt>
      <trkpt lat="41.6644850" lon="-0.8868970">
        <ele>203.0</ele>
        <time>2019-01-01T14:53:50Z</time>
      </trkpt>
      <trkpt lat="41.6645300" lon="-0.8868370">
        <ele>202.7</ele>
        <time>2019-01-01T14:53:51Z</time>
      </trkpt>
      <trkpt lat="41.6645660" lon="-0.8867760">
        <ele>202.5</ele>
        <time>2019-01-01T14:53:52Z</time>
      </trkpt>
      <trkpt lat="41.6646170" lon="-0.8867300">
        <ele>202.3</ele>
        <time>2019-01-01T14:53:53Z</time>
      </trkpt>
      <trkpt lat="41.6646470" lon="-0.8866710">
        <ele>202.2</ele>
        <time>2019-01-01T14:53:54Z</time>
      </trkpt>
      <trkpt lat="41.6646890" lon="-0.8866380">
        <ele>202.0</ele>
        <time>2019-01-01T14:53:55Z</time>
      </trkpt>
      <trkpt lat="41.6647430" lon="-0.8865660">
        <ele>201.8</ele>
        <time>2019-01-01T14:53:56Z</time>
      </trkpt>
      <trkpt lat="41.6647970" lon="-0.8865240">
        <ele>201.5</ele>
        <time>2019-01-01T14:53:57Z</time>
      </trkpt>
      <trkpt lat="41.6648170" lon="-0.8864610">
        <ele>201.3</ele>
        <time>2019-01-01T14:53:58Z</time>
      </trkpt>
      <trkpt lat="41.6648490" lon="-0.8864040">
        <ele>201.0</ele>
        <time>2019-01-01T14:53:59Z</time>
      </trkpt>
      <trkpt lat="41.6648850" lon="-0.8863750">
        <ele>200.8</ele>
        <time>2019-01-01T14:54:01Z</time>
      </trkpt>
      <trkpt lat="41.6648860" lon="-0.8863170">
        <ele>200.5</ele>
        <time>2019-01-01T14:54:03Z</time>
      </trkpt>
      <trkpt lat="41.6649180" lon="-0.8862100">
        <ele>199.9</ele>
        <time>2019-01-01T14:54:04Z</time>
      </trkpt>
      <trkpt lat="41.6649430" lon="-0.8861580">
        <ele>199.7</ele>
        <time>2019-01-01T14:54:05Z</time>
      </trkpt>
      <trkpt lat="41.6649790" lon="-0.8861180">
        <ele>199.6</ele>
        <time>2019-01-01T14:54:06Z</time>
      </trkpt>
      <trkpt lat="41.6650300" lon="-0.8860720">
        <ele>199.4</ele>
        <time>2019-01-01T14:54:07Z</time>
      </trkpt>
      <trkpt lat="41.6650660" lon="-0.8860480">
        <ele>199.4</ele>
        <time>2019-01-01T14:54:08Z</time>
      </trkpt>
      <trkpt lat="41.6650960" lon="-0.8860240">
        <ele>199.4</ele>
        <time>2019-01-01T14:54:09Z</time>
      </trkpt>
      <trkpt lat="41.6651190" lon="-0.8859890">
        <ele>199.3</ele>
        <time>2019-01-01T14:54:10Z</time>
      </trkpt>
      <trkpt lat="41.6651410" lon="-0.8859580">
        <ele>199.3</ele>
        <time>2019-01-01T14:54:11Z</time>
      </trkpt>
      <trkpt lat="41.6651630" lon="-0.8859250">
        <ele>199.3</ele>
        <time>2019-01-01T14:54:12Z</time>
      </trkpt>
      <trkpt lat="41.6651860" lon="-0.8858870">
        <ele>199.3</ele>
        <time>2019-01-01T14:54:13Z</time>
      </trkpt>
      <trkpt lat="41.6652110" lon="-0.8858430">
        <ele>199.3</ele>
        <time>2019-01-01T14:54:14Z</time>
      </trkpt>
      <trkpt lat="41.6652370" lon="-0.8857930">
        <ele>199.3</ele>
        <time>2019-01-01T14:54:15Z</time>
      </trkpt>
      <trkpt lat="41.6652690" lon="-0.8857090">
        <ele>199.4</ele>
        <time>2019-01-01T14:54:16Z</time>
      </trkpt>
      <trkpt lat="41.6652910" lon="-0.8856520">
        <ele>199.4</ele>
        <time>2019-01-01T14:54:17Z</time>
      </trkpt>
      <trkpt lat="41.6653120" lon="-0.8855760">
        <ele>199.4</ele>
        <time>2019-01-01T14:54:18Z</time>
      </trkpt>
      <trkpt lat="41.6653440" lon="-0.8855270">
        <ele>199.4</ele>
        <time>2019-01-01T14:54:19Z</time>
      </trkpt>
      <trkpt lat="41.6653720" lon="-0.8854600">
        <ele>199.5</ele>
        <time>2019-01-01T14:54:20Z</time>
      </trkpt>
      <trkpt lat="41.6654180" lon="-0.8854050">
        <ele>199.5</ele>
        <time>2019-01-01T14:54:21Z</time>
      </trkpt>
      <trkpt lat="41.6654470" lon="-0.8853430">
        <ele>199.5</ele>
        <time>2019-01-01T14:54:22Z</time>
      </trkpt>
      <trkpt lat="41.6654860" lon="-0.8852950">
        <ele>199.5</ele>
        <time>2019-01-01T14:54:23Z</time>
      </trkpt>
      <trkpt lat="41.6655000" lon="-0.8852270">
        <ele>199.5</ele>
        <time>2019-01-01T14:54:24Z</time>
      </trkpt>
      <trkpt lat="41.6655230" lon="-0.8851620">
        <ele>199.4</ele>
        <time>2019-01-01T14:54:25Z</time>
      </trkpt>
      <trkpt lat="41.6655510" lon="-0.8851170">
        <ele>199.4</ele>
        <time>2019-01-01T14:54:26Z</time>
      </trkpt>
      <trkpt lat="41.6655880" lon="-0.8850510">
        <ele>199.4</ele>
        <time>2019-01-01T14:54:27Z</time>
      </trkpt>
      <trkpt lat="41.6656160" lon="-0.8849900">
        <ele>199.3</ele>
        <time>2019-01-01T14:54:28Z</time>
      </trkpt>
      <trkpt lat="41.6656400" lon="-0.8849550">
        <ele>199.3</ele>
        <time>2019-01-01T14:54:29Z</time>
      </trkpt>
      <trkpt lat="41.6656610" lon="-0.8849110">
        <ele>199.3</ele>
        <time>2019-01-01T14:54:30Z</time>
      </trkpt>
      <trkpt lat="41.6656910" lon="-0.8848500">
        <ele>199.3</ele>
        <time>2019-01-01T14:54:31Z</time>
      </trkpt>
      <trkpt lat="41.6657290" lon="-0.8848020">
        <ele>199.3</ele>
        <time>2019-01-01T14:54:32Z</time>
      </trkpt>
      <trkpt lat="41.6657610" lon="-0.8847470">
        <ele>199.4</ele>
        <time>2019-01-01T14:54:33Z</time>
      </trkpt>
      <trkpt lat="41.6657750" lon="-0.8847120">
        <ele>199.4</ele>
        <time>2019-01-01T14:54:34Z</time>
      </trkpt>
      <trkpt lat="41.6657990" lon="-0.8846730">
        <ele>199.4</ele>
        <time>2019-01-01T14:54:35Z</time>
      </trkpt>
      <trkpt lat="41.6658290" lon="-0.8846430">
        <ele>199.4</ele>
        <time>2019-01-01T14:54:36Z</time>
      </trkpt>
      <trkpt lat="41.6658190" lon="-0.8845490">
        <ele>199.5</ele>
        <time>2019-01-01T14:54:37Z</time>
      </trkpt>
      <trkpt lat="41.6658200" lon="-0.8844550">
        <ele>199.4</ele>
        <time>2019-01-01T14:54:38Z</time>
      </trkpt>
      <trkpt lat="41.6658640" lon="-0.8843820">
        <ele>199.4</ele>
        <time>2019-01-01T14:54:39Z</time>
      </trkpt>
      <trkpt lat="41.6659100" lon="-0.8843620">
        <ele>199.4</ele>
        <time>2019-01-01T14:54:40Z</time>
      </trkpt>
      <trkpt lat="41.6659280" lon="-0.8843150">
        <ele>199.3</ele>
        <time>2019-01-01T14:54:41Z</time>
      </trkpt>
      <trkpt lat="41.6659440" lon="-0.8842410">
        <ele>199.2</ele>
        <time>2019-01-01T14:54:42Z</time>
      </trkpt>
      <trkpt lat="41.6659770" lon="-0.8841750">
        <ele>199.2</ele>
        <time>2019-01-01T14:54:43Z</time>
      </trkpt>
      <trkpt lat="41.6659840" lon="-0.8840960">
        <ele>199.1</ele>
        <time>2019-01-01T14:54:44Z</time>
      </trkpt>
      <trkpt lat="41.6660020" lon="-0.8840310">
        <ele>199.0</ele>
        <time>2019-01-01T14:54:45Z</time>
      </trkpt>
      <trkpt lat="41.6659980" lon="-0.8839800">
        <ele>199.0</ele>
        <time>2019-01-01T14:54:46Z</time>
      </trkpt>
      <trkpt lat="41.6660240" lon="-0.8839120">
        <ele>199.0</ele>
        <time>2019-01-01T14:54:47Z</time>
      </trkpt>
      <trkpt lat="41.6660590" lon="-0.8838340">
        <ele>198.9</ele>
        <time>2019-01-01T14:54:48Z</time>
      </trkpt>
      <trkpt lat="41.6660760" lon="-0.8837660">
        <ele>198.9</ele>
        <time>2019-01-01T14:54:49Z</time>
      </trkpt>
      <trkpt lat="41.6660920" lon="-0.8837060">
        <ele>198.9</ele>
        <time>2019-01-01T14:54:50Z</time>
      </trkpt>
      <trkpt lat="41.6661040" lon="-0.8836580">
        <ele>198.9</ele>
        <time>2019-01-01T14:54:51Z</time>
      </trkpt>
      <trkpt lat="41.6661090" lon="-0.8835290">
        <ele>198.8</ele>
        <time>2019-01-01T14:54:53Z</time>
      </trkpt>
      <trkpt lat="41.6661350" lon="-0.8834560">
        <ele>198.8</ele>
        <time>2019-01-01T14:54:54Z</time>
      </trkpt>
      <trkpt lat="41.6661500" lon="-0.8834080">
        <ele>198.9</ele>
        <time>2019-01-01T14:54:55Z</time>
      </trkpt>
      <trkpt lat="41.6661690" lon="-0.8833610">
        <ele>198.9</ele>
        <time>2019-01-01T14:54:56Z</time>
      </trkpt>
      <trkpt lat="41.6662060" lon="-0.8832770">
        <ele>198.9</ele>
        <time>2019-01-01T14:54:57Z</time>
      </trkpt>
      <trkpt lat="41.6662280" lon="-0.8832090">
        <ele>199.0</ele>
        <time>2019-01-01T14:54:58Z</time>
      </trkpt>
      <trkpt lat="41.6662460" lon="-0.8831490">
        <ele>199.0</ele>
        <time>2019-01-01T14:54:59Z</time>
      </trkpt>
      <trkpt lat="41.6662570" lon="-0.8831050">
        <ele>199.1</ele>
        <time>2019-01-01T14:55:00Z</time>
      </trkpt>
      <trkpt lat="41.6662630" lon="-0.8830670">
        <ele>199.1</ele>
        <time>2019-01-01T14:55:01Z</time>
      </trkpt>
      <trkpt lat="41.6663090" lon="-0.8830030">
        <ele>199.2</ele>
        <time>2019-01-01T14:55:02Z</time>
      </trkpt>
      <trkpt lat="41.6663140" lon="-0.8829330">
        <ele>199.2</ele>
        <time>2019-01-01T14:55:03Z</time>
      </trkpt>
      <trkpt lat="41.6663030" lon="-0.8828190">
        <ele>199.4</ele>
        <time>2019-01-01T14:55:04Z</time>
      </trkpt>
      <trkpt lat="41.6663200" lon="-0.8827730">
        <ele>199.4</ele>
        <time>2019-01-01T14:55:05Z</time>
      </trkpt>
      <trkpt lat="41.6663310" lon="-0.8826880">
        <ele>199.5</ele>
        <time>2019-01-01T14:55:06Z</time>
      </trkpt>
      <trkpt lat="41.6663430" lon="-0.8826000">
        <ele>199.6</ele>
        <time>2019-01-01T14:55:07Z</time>
      </trkpt>
      <trkpt lat="41.6663550" lon="-0.8825370">
        <ele>199.7</ele>
        <time>2019-01-01T14:55:08Z</time>
      </trkpt>
      <trkpt lat="41.6663450" lon="-0.8824420">
        <ele>199.4</ele>
        <time>2019-01-01T14:55:09Z</time>
      </trkpt>
      <trkpt lat="41.6663310" lon="-0.8823770">
        <ele>199.2</ele>
        <time>2019-01-01T14:55:10Z</time>
      </trkpt>
      <trkpt lat="41.6663310" lon="-0.8822980">
        <ele>199.0</ele>
        <time>2019-01-01T14:55:11Z</time>
      </trkpt>
      <trkpt lat="41.6663590" lon="-0.8821280">
        <ele>198.5</ele>
        <time>2019-01-01T14:55:12Z</time>
      </trkpt>
      <trkpt lat="41.6663710" lon="-0.8820540">
        <ele>198.3</ele>
        <time>2019-01-01T14:55:14Z</time>
      </trkpt>
      <trkpt lat="41.6663490" lon="-0.8819490">
        <ele>198.0</ele>
        <time>2019-01-01T14:55:15Z</time>
      </trkpt>
      <trkpt lat="41.6663510" lon="-0.8819010">
        <ele>197.9</ele>
        <time>2019-01-01T14:55:16Z</time>
      </trkpt>
      <trkpt lat="41.6663420" lon="-0.8818380">
        <ele>197.7</ele>
        <time>2019-01-01T14:55:17Z</time>
      </trkpt>
      <trkpt lat="41.6663280" lon="-0.8817570">
        <ele>197.5</ele>
        <time>2019-01-01T14:55:18Z</time>
      </trkpt>
      <trkpt lat="41.6663150" lon="-0.8817080">
        <ele>197.3</ele>
        <time>2019-01-01T14:55:19Z</time>
      </trkpt>
      <trkpt lat="41.6662950" lon="-0.8816550">
        <ele>197.1</ele>
        <time>2019-01-01T14:55:20Z</time>
      </trkpt>
      <trkpt lat="41.6662720" lon="-0.8815810">
        <ele>196.8</ele>
        <time>2019-01-01T14:55:21Z</time>
      </trkpt>
      <trkpt lat="41.6662440" lon="-0.8815150">
        <ele>196.4</ele>
        <time>2019-01-01T14:55:22Z</time>
      </trkpt>
      <trkpt lat="41.6662190" lon="-0.8814520">
        <ele>196.5</ele>
        <time>2019-01-01T14:55:23Z</time>
      </trkpt>
      <trkpt lat="41.6661880" lon="-0.8813840">
        <ele>196.5</ele>
        <time>2019-01-01T14:55:24Z</time>
      </trkpt>
      <trkpt lat="41.6661770" lon="-0.8813140">
        <ele>196.5</ele>
        <time>2019-01-01T14:55:25Z</time>
      </trkpt>
      <trkpt lat="41.6661430" lon="-0.8812660">
        <ele>196.6</ele>
        <time>2019-01-01T14:55:26Z</time>
      </trkpt>
      <trkpt lat="41.6661100" lon="-0.8812290">
        <ele>196.6</ele>
        <time>2019-01-01T14:55:27Z</time>
      </trkpt>
      <trkpt lat="41.6660720" lon="-0.8811690">
        <ele>196.6</ele>
        <time>2019-01-01T14:55:28Z</time>
      </trkpt>
      <trkpt lat="41.6660410" lon="-0.8811260">
        <ele>196.6</ele>
        <time>2019-01-01T14:55:29Z</time>
      </trkpt>
      <trkpt lat="41.6659940" lon="-0.8810750">
        <ele>196.6</ele>
        <time>2019-01-01T14:55:30Z</time>
      </trkpt>
      <trkpt lat="41.6659490" lon="-0.8810250">
        <ele>196.6</ele>
        <time>2019-01-01T14:55:31Z</time>
      </trkpt>
      <trkpt lat="41.6658900" lon="-0.8809640">
        <ele>196.4</ele>
        <time>2019-01-01T14:55:32Z</time>
      </trkpt>
      <trkpt lat="41.6658670" lon="-0.8809150">
        <ele>196.4</ele>
        <time>2019-01-01T14:55:33Z</time>
      </trkpt>
      <trkpt lat="41.6658430" lon="-0.8808860">
        <ele>196.3</ele>
        <time>2019-01-01T14:55:34Z</time>
      </trkpt>
      <trkpt lat="41.6657990" lon="-0.8808570">
        <ele>196.2</ele>
        <time>2019-01-01T14:55:35Z</time>
      </trkpt>
      <trkpt lat="41.6657640" lon="-0.8808130">
        <ele>196.2</ele>
        <time>2019-01-01T14:55:36Z</time>
      </trkpt>
      <trkpt lat="41.6657410" lon="-0.8807870">
        <ele>196.2</ele>
        <time>2019-01-01T14:55:37Z</time>
      </trkpt>
      <trkpt lat="41.6657240" lon="-0.8807420">
        <ele>196.1</ele>
        <time>2019-01-01T14:55:39Z</time>
      </trkpt>
      <trkpt lat="41.6657280" lon="-0.8806410">
        <ele>196.0</ele>
        <time>2019-01-01T14:55:41Z</time>
      </trkpt>
      <trkpt lat="41.6657320" lon="-0.8806000">
        <ele>195.9</ele>
        <time>2019-01-01T14:55:42Z</time>
      </trkpt>
      <trkpt lat="41.6657280" lon="-0.8805310">
        <ele>195.8</ele>
        <time>2019-01-01T14:55:43Z</time>
      </trkpt>
      <trkpt lat="41.6657220" lon="-0.8804740">
        <ele>195.8</ele>
        <time>2019-01-01T14:55:44Z</time>
      </trkpt>
      <trkpt lat="41.6657170" lon="-0.8804220">
        <ele>195.7</ele>
        <time>2019-01-01T14:55:45Z</time>
      </trkpt>
      <trkpt lat="41.6657110" lon="-0.8803790">
        <ele>195.6</ele>
        <time>2019-01-01T14:55:46Z</time>
      </trkpt>
      <trkpt lat="41.6657050" lon="-0.8803440">
        <ele>195.5</ele>
        <time>2019-01-01T14:55:47Z</time>
      </trkpt>
      <trkpt lat="41.6656990" lon="-0.8802690">
        <ele>195.4</ele>
        <time>2019-01-01T14:56:03Z</time>
      </trkpt>
      <trkpt lat="41.6656950" lon="-0.8802260">
        <ele>195.4</ele>
        <time>2019-01-01T14:56:04Z</time>
      </trkpt>
      <trkpt lat="41.6656940" lon="-0.8801830">
        <ele>195.3</ele>
        <time>2019-01-01T14:56:05Z</time>
      </trkpt>
      <trkpt lat="41.6656980" lon="-0.8801360">
        <ele>195.3</ele>
        <time>2019-01-01T14:56:06Z</time>
      </trkpt>
      <trkpt lat="41.6657060" lon="-0.8800880">
        <ele>195.2</ele>
        <time>2019-01-01T14:56:07Z</time>
      </trkpt>
      <trkpt lat="41.6657190" lon="-0.8800260">
        <ele>195.2</ele>
        <time>2019-01-01T14:56:08Z</time>
      </trkpt>
      <trkpt lat="41.6657310" lon="-0.8799690">
        <ele>195.1</ele>
        <time>2019-01-01T14:56:09Z</time>
      </trkpt>
      <trkpt lat="41.6657410" lon="-0.8799130">
        <ele>195.0</ele>
        <time>2019-01-01T14:56:10Z</time>
      </trkpt>
      <trkpt lat="41.6657580" lon="-0.8798590">
        <ele>195.0</ele>
        <time>2019-01-01T14:56:11Z</time>
      </trkpt>
      <trkpt lat="41.6657800" lon="-0.8798080">
        <ele>195.1</ele>
        <time>2019-01-01T14:56:12Z</time>
      </trkpt>
      <trkpt lat="41.6658080" lon="-0.8797650">
        <ele>195.1</ele>
        <time>2019-01-01T14:56:13Z</time>
      </trkpt>
      <trkpt lat="41.6658390" lon="-0.8797230">
        <ele>195.1</ele>
        <time>2019-01-01T14:56:14Z</time>
      </trkpt>
      <trkpt lat="41.6658730" lon="-0.8796810">
        <ele>195.1</ele>
        <time>2019-01-01T14:56:15Z</time>
      </trkpt>
      <trkpt lat="41.6659240" lon="-0.8796450">
        <ele>195.1</ele>
        <time>2019-01-01T14:56:16Z</time>
      </trkpt>
      <trkpt lat="41.6659560" lon="-0.8796000">
        <ele>195.1</ele>
        <time>2019-01-01T14:56:17Z</time>
      </trkpt>
      <trkpt lat="41.6659780" lon="-0.8795260">
        <ele>195.1</ele>
        <time>2019-01-01T14:56:18Z</time>
      </trkpt>
      <trkpt lat="41.6660120" lon="-0.8794940">
        <ele>195.1</ele>
        <time>2019-01-01T14:56:19Z</time>
      </trkpt>
      <trkpt lat="41.6660570" lon="-0.8794590">
        <ele>195.1</ele>
        <time>2019-01-01T14:56:20Z</time>
      </trkpt>
      <trkpt lat="41.6660800" lon="-0.8794120">
        <ele>195.1</ele>
        <time>2019-01-01T14:56:21Z</time>
      </trkpt>
      <trkpt lat="41.6661000" lon="-0.8793690">
        <ele>195.2</ele>
        <time>2019-01-01T14:56:22Z</time>
      </trkpt>
      <trkpt lat="41.6661290" lon="-0.8793190">
        <ele>195.2</ele>
        <time>2019-01-01T14:56:23Z</time>
      </trkpt>
      <trkpt lat="41.6661550" lon="-0.8792520">
        <ele>195.2</ele>
        <time>2019-01-01T14:56:24Z</time>
      </trkpt>
      <trkpt lat="41.6662040" lon="-0.8792260">
        <ele>195.2</ele>
        <time>2019-01-01T14:56:25Z</time>
      </trkpt>
      <trkpt lat="41.6662250" lon="-0.8791500">
        <ele>195.2</ele>
        <time>2019-01-01T14:56:26Z</time>
      </trkpt>
      <trkpt lat="41.6662870" lon="-0.8790920">
        <ele>195.8</ele>
        <time>2019-01-01T14:56:27Z</time>
      </trkpt>
      <trkpt lat="41.6663140" lon="-0.8790320">
        <ele>196.3</ele>
        <time>2019-01-01T14:56:28Z</time>
      </trkpt>
      <trkpt lat="41.6663240" lon="-0.8789510">
        <ele>196.8</ele>
        <time>2019-01-01T14:56:29Z</time>
      </trkpt>
      <trkpt lat="41.6663530" lon="-0.8788660">
        <ele>197.5</ele>
        <time>2019-01-01T14:56:30Z</time>
      </trkpt>
      <trkpt lat="41.6663840" lon="-0.8787820">
        <ele>198.2</ele>
        <time>2019-01-01T14:56:31Z</time>
      </trkpt>
      <trkpt lat="41.6664190" lon="-0.8787450">
        <ele>198.6</ele>
        <time>2019-01-01T14:56:32Z</time>
      </trkpt>
      <trkpt lat="41.6664370" lon="-0.8787020">
        <ele>198.9</ele>
        <time>2019-01-01T14:56:33Z</time>
      </trkpt>
      <trkpt lat="41.6664520" lon="-0.8786480">
        <ele>199.3</ele>
        <time>2019-01-01T14:56:34Z</time>
      </trkpt>
      <trkpt lat="41.6664640" lon="-0.8785930">
        <ele>199.7</ele>
        <time>2019-01-01T14:56:35Z</time>
      </trkpt>
      <trkpt lat="41.6664750" lon="-0.8785180">
        <ele>200.5</ele>
        <time>2019-01-01T14:56:36Z</time>
      </trkpt>
      <trkpt lat="41.6664870" lon="-0.8784570">
        <ele>200.7</ele>
        <time>2019-01-01T14:56:37Z</time>
      </trkpt>
      <trkpt lat="41.6664850" lon="-0.8783880">
        <ele>200.9</ele>
        <time>2019-01-01T14:56:38Z</time>
      </trkpt>
      <trkpt lat="41.6664930" lon="-0.8783180">
        <ele>201.2</ele>
        <time>2019-01-01T14:56:39Z</time>
      </trkpt>
      <trkpt lat="41.6664940" lon="-0.8782300">
        <ele>201.1</ele>
        <time>2019-01-01T14:56:40Z</time>
      </trkpt>
      <trkpt lat="41.6664880" lon="-0.8781690">
        <ele>201.0</ele>
        <time>2019-01-01T14:56:41Z</time>
      </trkpt>
      <trkpt lat="41.6664940" lon="-0.8780750">
        <ele>201.0</ele>
        <time>2019-01-01T14:56:42Z</time>
      </trkpt>
      <trkpt lat="41.6664960" lon="-0.8779720">
        <ele>200.9</ele>
        <time>2019-01-01T14:56:43Z</time>
      </trkpt>
      <trkpt lat="41.6665000" lon="-0.8779070">
        <ele>200.9</ele>
        <time>2019-01-01T14:56:44Z</time>
      </trkpt>
      <trkpt lat="41.6665060" lon="-0.8778510">
        <ele>200.9</ele>
        <time>2019-01-01T14:56:46Z</time>
      </trkpt>
      <trkpt lat="41.6665240" lon="-0.8777830">
        <ele>200.9</ele>
        <time>2019-01-01T14:56:48Z</time>
      </trkpt>
      <trkpt lat="41.6665280" lon="-0.8777430">
        <ele>200.9</ele>
        <time>2019-01-01T14:56:49Z</time>
      </trkpt>
      <trkpt lat="41.6665300" lon="-0.8776890">
        <ele>200.8</ele>
        <time>2019-01-01T14:56:50Z</time>
      </trkpt>
      <trkpt lat="41.6665210" lon="-0.8776220">
        <ele>200.5</ele>
        <time>2019-01-01T14:56:51Z</time>
      </trkpt>
      <trkpt lat="41.6665180" lon="-0.8775850">
        <ele>200.3</ele>
        <time>2019-01-01T14:56:52Z</time>
      </trkpt>
      <trkpt lat="41.6664770" lon="-0.8776010">
        <ele>200.0</ele>
        <time>2019-01-01T14:56:53Z</time>
      </trkpt>
      <trkpt lat="41.6664660" lon="-0.8775420">
        <ele>199.7</ele>
        <time>2019-01-01T14:56:54Z</time>
      </trkpt>
      <trkpt lat="41.6664390" lon="-0.8774910">
        <ele>199.4</ele>
        <time>2019-01-01T14:56:55Z</time>
      </trkpt>
      <trkpt lat="41.6663970" lon="-0.8773840">
        <ele>198.9</ele>
        <time>2019-01-01T14:56:56Z</time>
      </trkpt>
      <trkpt lat="41.6663790" lon="-0.8773250">
        <ele>197.8</ele>
        <time>2019-01-01T14:56:57Z</time>
      </trkpt>
      <trkpt lat="41.6663510" lon="-0.8772500">
        <ele>197.4</ele>
        <time>2019-01-01T14:56:58Z</time>
      </trkpt>
      <trkpt lat="41.6663280" lon="-0.8771970">
        <ele>197.2</ele>
        <time>2019-01-01T14:56:59Z</time>
      </trkpt>
      <trkpt lat="41.6663310" lon="-0.8771290">
        <ele>196.8</ele>
        <time>2019-01-01T14:57:00Z</time>
      </trkpt>
      <trkpt lat="41.6663250" lon="-0.8770630">
        <ele>196.6</ele>
        <time>2019-01-01T14:57:01Z</time>
      </trkpt>
      <trkpt lat="41.6663370" lon="-0.8770030">
        <ele>196.3</ele>
        <time>2019-01-01T14:57:02Z</time>
      </trkpt>
      <trkpt lat="41.6663410" lon="-0.8769410">
        <ele>196.1</ele>
        <time>2019-01-01T14:57:03Z</time>
      </trkpt>
      <trkpt lat="41.6663610" lon="-0.8769050">
        <ele>195.9</ele>
        <time>2019-01-01T14:57:04Z</time>
      </trkpt>
      <trkpt lat="41.6663860" lon="-0.8768630">
        <ele>195.7</ele>
        <time>2019-01-01T14:57:05Z</time>
      </trkpt>
      <trkpt lat="41.6664020" lon="-0.8768330">
        <ele>195.5</ele>
        <time>2019-01-01T14:57:06Z</time>
      </trkpt>
      <trkpt lat="41.6664100" lon="-0.8767870">
        <ele>195.4</ele>
        <time>2019-01-01T14:57:07Z</time>
      </trkpt>
      <trkpt lat="41.6664330" lon="-0.8767510">
        <ele>195.4</ele>
        <time>2019-01-01T14:57:09Z</time>
      </trkpt>
      <trkpt lat="41.6664050" lon="-0.8767600">
        <ele>195.3</ele>
        <time>2019-01-01T14:57:19Z</time>
      </trkpt>
      <trkpt lat="41.6664370" lon="-0.8767190">
        <ele>195.3</ele>
        <time>2019-01-01T14:57:25Z</time>
      </trkpt>
      <trkpt lat="41.6664690" lon="-0.8766950">
        <ele>195.2</ele>
        <time>2019-01-01T14:57:26Z</time>
      </trkpt>
      <trkpt lat="41.6665070" lon="-0.8766770">
        <ele>195.3</ele>
        <time>2019-01-01T14:57:27Z</time>
      </trkpt>
      <trkpt lat="41.6665440" lon="-0.8766640">
        <ele>195.3</ele>
        <time>2019-01-01T14:57:28Z</time>
      </trkpt>
      <trkpt lat="41.6665860" lon="-0.8766560">
        <ele>195.8</ele>
        <time>2019-01-01T14:57:29Z</time>
      </trkpt>
      <trkpt lat="41.6666310" lon="-0.8766540">
        <ele>196.1</ele>
        <time>2019-01-01T14:57:30Z</time>
      </trkpt>
      <trkpt lat="41.6667060" lon="-0.8766430">
        <ele>196.9</ele>
        <time>2019-01-01T14:57:31Z</time>
      </trkpt>
      <trkpt lat="41.6667490" lon="-0.8766690">
        <ele>197.4</ele>
        <time>2019-01-01T14:57:32Z</time>
      </trkpt>
      <trkpt lat="41.6667990" lon="-0.8766850">
        <ele>197.9</ele>
        <time>2019-01-01T14:57:33Z</time>
      </trkpt>
      <trkpt lat="41.6668490" lon="-0.8767120">
        <ele>198.1</ele>
        <time>2019-01-01T14:57:34Z</time>
      </trkpt>
      <trkpt lat="41.6668990" lon="-0.8767310">
        <ele>198.1</ele>
        <time>2019-01-01T14:57:35Z</time>
      </trkpt>
      <trkpt lat="41.6669540" lon="-0.8767460">
        <ele>198.2</ele>
        <time>2019-01-01T14:57:36Z</time>
      </trkpt>
      <trkpt lat="41.6670100" lon="-0.8767280">
        <ele>198.2</ele>
        <time>2019-01-01T14:57:37Z</time>
      </trkpt>
      <trkpt lat="41.6670550" lon="-0.8767560">
        <ele>198.3</ele>
        <time>2019-01-01T14:57:38Z</time>
      </trkpt>
      <trkpt lat="41.6670970" lon="-0.8767670">
        <ele>198.4</ele>
        <time>2019-01-01T14:57:39Z</time>
      </trkpt>
      <trkpt lat="41.6671470" lon="-0.8767400">
        <ele>198.5</ele>
        <time>2019-01-01T14:57:40Z</time>
      </trkpt>
      <trkpt lat="41.6672130" lon="-0.8767000">
        <ele>198.7</ele>
        <time>2019-01-01T14:57:41Z</time>
      </trkpt>
      <trkpt lat="41.6672660" lon="-0.8766340">
        <ele>198.8</ele>
        <time>2019-01-01T14:57:42Z</time>
      </trkpt>
      <trkpt lat="41.6673160" lon="-0.8766050">
        <ele>198.9</ele>
        <time>2019-01-01T14:57:43Z</time>
      </trkpt>
      <trkpt lat="41.6673950" lon="-0.8765670">
        <ele>198.9</ele>
        <time>2019-01-01T14:57:44Z</time>
      </trkpt>
      <trkpt lat="41.6674620" lon="-0.8765250">
        <ele>199.0</ele>
        <time>2019-01-01T14:57:45Z</time>
      </trkpt>
      <trkpt lat="41.6675330" lon="-0.8765320">
        <ele>199.1</ele>
        <time>2019-01-01T14:57:46Z</time>
      </trkpt>
      <trkpt lat="41.6675670" lon="-0.8765380">
        <ele>199.2</ele>
        <time>2019-01-01T14:57:47Z</time>
      </trkpt>
      <trkpt lat="41.6676230" lon="-0.8765520">
        <ele>199.4</ele>
        <time>2019-01-01T14:57:48Z</time>
      </trkpt>
      <trkpt lat="41.6676730" lon="-0.8765590">
        <ele>199.5</ele>
        <time>2019-01-01T14:57:49Z</time>
      </trkpt>
      <trkpt lat="41.6677270" lon="-0.8765570">
        <ele>199.6</ele>
        <time>2019-01-01T14:57:50Z</time>
      </trkpt>
      <trkpt lat="41.6677890" lon="-0.8765240">
        <ele>199.7</ele>
        <time>2019-01-01T14:57:51Z</time>
      </trkpt>
      <trkpt lat="41.6678300" lon="-0.8765570">
        <ele>199.8</ele>
        <time>2019-01-01T14:57:52Z</time>
      </trkpt>
      <trkpt lat="41.6678790" lon="-0.8765750">
        <ele>199.8</ele>
        <time>2019-01-01T14:57:53Z</time>
      </trkpt>
      <trkpt lat="41.6679290" lon="-0.8766150">
        <ele>199.8</ele>
        <time>2019-01-01T14:57:54Z</time>
      </trkpt>
      <trkpt lat="41.6679750" lon="-0.8766310">
        <ele>199.8</ele>
        <time>2019-01-01T14:57:55Z</time>
      </trkpt>
      <trkpt lat="41.6680270" lon="-0.8766260">
        <ele>199.8</ele>
        <time>2019-01-01T14:57:56Z</time>
      </trkpt>
      <trkpt lat="41.6680720" lon="-0.8766180">
        <ele>199.8</ele>
        <time>2019-01-01T14:57:57Z</time>
      </trkpt>
      <trkpt lat="41.6681350" lon="-0.8766100">
        <ele>199.9</ele>
        <time>2019-01-01T14:57:58Z</time>
      </trkpt>
      <trkpt lat="41.6681900" lon="-0.8765770">
        <ele>200.1</ele>
        <time>2019-01-01T14:57:59Z</time>
      </trkpt>
      <trkpt lat="41.6682520" lon="-0.8765430">
        <ele>200.3</ele>
        <time>2019-01-01T14:58:00Z</time>
      </trkpt>
      <trkpt lat="41.6683060" lon="-0.8765450">
        <ele>200.4</ele>
        <time>2019-01-01T14:58:01Z</time>
      </trkpt>
      <trkpt lat="41.6683600" lon="-0.8765560">
        <ele>200.5</ele>
        <time>2019-01-01T14:58:02Z</time>
      </trkpt>
      <trkpt lat="41.6684300" lon="-0.8765960">
        <ele>200.6</ele>
        <time>2019-01-01T14:58:03Z</time>
      </trkpt>
      <trkpt lat="41.6684650" lon="-0.8765720">
        <ele>200.6</ele>
        <time>2019-01-01T14:58:04Z</time>
      </trkpt>
      <trkpt lat="41.6685170" lon="-0.8765240">
        <ele>200.7</ele>
        <time>2019-01-01T14:58:05Z</time>
      </trkpt>
      <trkpt lat="41.6685740" lon="-0.8765400">
        <ele>200.8</ele>
        <time>2019-01-01T14:58:06Z</time>
      </trkpt>
      <trkpt lat="41.6686520" lon="-0.8764900">
        <ele>200.9</ele>
        <time>2019-01-01T14:58:07Z</time>
      </trkpt>
      <trkpt lat="41.6686940" lon="-0.8764830">
        <ele>201.0</ele>
        <time>2019-01-01T14:58:08Z</time>
      </trkpt>
      <trkpt lat="41.6687360" lon="-0.8765300">
        <ele>201.0</ele>
        <time>2019-01-01T14:58:09Z</time>
      </trkpt>
      <trkpt lat="41.6687910" lon="-0.8765120">
        <ele>201.0</ele>
        <time>2019-01-01T14:58:10Z</time>
      </trkpt>
      <trkpt lat="41.6688430" lon="-0.8765590">
        <ele>200.8</ele>
        <time>2019-01-01T14:58:11Z</time>
      </trkpt>
      <trkpt lat="41.6688990" lon="-0.8765590">
        <ele>200.6</ele>
        <time>2019-01-01T14:58:12Z</time>
      </trkpt>
      <trkpt lat="41.6689460" lon="-0.8765860">
        <ele>200.5</ele>
        <time>2019-01-01T14:58:13Z</time>
      </trkpt>
      <trkpt lat="41.6689740" lon="-0.8767150">
        <ele>200.3</ele>
        <time>2019-01-01T14:58:14Z</time>
      </trkpt>
      <trkpt lat="41.6690130" lon="-0.8767830">
        <ele>200.2</ele>
        <time>2019-01-01T14:58:15Z</time>
      </trkpt>
      <trkpt lat="41.6690480" lon="-0.8768790">
        <ele>200.2</ele>
        <time>2019-01-01T14:58:16Z</time>
      </trkpt>
      <trkpt lat="41.6691100" lon="-0.8768710">
        <ele>200.3</ele>
        <time>2019-01-01T14:58:17Z</time>
      </trkpt>
      <trkpt lat="41.6691750" lon="-0.8768620">
        <ele>200.6</ele>
        <time>2019-01-01T14:58:18Z</time>
      </trkpt>
      <trkpt lat="41.6692600" lon="-0.8767600">
        <ele>201.4</ele>
        <time>2019-01-01T14:58:19Z</time>
      </trkpt>
      <trkpt lat="41.6693290" lon="-0.8767190">
        <ele>202.7</ele>
        <time>2019-01-01T14:58:20Z</time>
      </trkpt>
      <trkpt lat="41.6693950" lon="-0.8766950">
        <ele>203.0</ele>
        <time>2019-01-01T14:58:21Z</time>
      </trkpt>
      <trkpt lat="41.6694520" lon="-0.8766640">
        <ele>203.2</ele>
        <time>2019-01-01T14:58:22Z</time>
      </trkpt>
      <trkpt lat="41.6695410" lon="-0.8766160">
        <ele>203.4</ele>
        <time>2019-01-01T14:58:23Z</time>
      </trkpt>
      <trkpt lat="41.6695960" lon="-0.8765960">
        <ele>203.5</ele>
        <time>2019-01-01T14:58:24Z</time>
      </trkpt>
      <trkpt lat="41.6696370" lon="-0.8766390">
        <ele>203.6</ele>
        <time>2019-01-01T14:58:25Z</time>
      </trkpt>
      <trkpt lat="41.6697510" lon="-0.8765720">
        <ele>203.7</ele>
        <time>2019-01-01T14:58:26Z</time>
      </trkpt>
      <trkpt lat="41.6697930" lon="-0.8765920">
        <ele>203.7</ele>
        <time>2019-01-01T14:58:27Z</time>
      </trkpt>
      <trkpt lat="41.6698200" lon="-0.8766020">
        <ele>203.7</ele>
        <time>2019-01-01T14:58:28Z</time>
      </trkpt>
      <trkpt lat="41.6698830" lon="-0.8766300">
        <ele>203.8</ele>
        <time>2019-01-01T14:58:29Z</time>
      </trkpt>
      <trkpt lat="41.6699180" lon="-0.8766890">
        <ele>203.8</ele>
        <time>2019-01-01T14:58:30Z</time>
      </trkpt>
      <trkpt lat="41.6699720" lon="-0.8767940">
        <ele>203.8</ele>
        <time>2019-01-01T14:58:31Z</time>
      </trkpt>
      <trkpt lat="41.6700360" lon="-0.8768390">
        <ele>203.9</ele>
        <time>2019-01-01T14:58:32Z</time>
      </trkpt>
      <trkpt lat="41.6700780" lon="-0.8768260">
        <ele>203.9</ele>
        <time>2019-01-01T14:58:33Z</time>
      </trkpt>
      <trkpt lat="41.6701520" lon="-0.8768710">
        <ele>203.9</ele>
        <time>2019-01-01T14:58:34Z</time>
      </trkpt>
      <trkpt lat="41.6702030" lon="-0.8768360">
        <ele>203.9</ele>
        <time>2019-01-01T14:58:35Z</time>
      </trkpt>
      <trkpt lat="41.6702510" lon="-0.8768500">
        <ele>203.9</ele>
        <time>2019-01-01T14:58:36Z</time>
      </trkpt>
      <trkpt lat="41.6702850" lon="-0.8769100">
        <ele>204.0</ele>
        <time>2019-01-01T14:58:37Z</time>
      </trkpt>
      <trkpt lat="41.6703320" lon="-0.8768950">
        <ele>204.0</ele>
        <time>2019-01-01T14:58:38Z</time>
      </trkpt>
      <trkpt lat="41.6703880" lon="-0.8768720">
        <ele>204.1</ele>
        <time>2019-01-01T14:58:39Z</time>
      </trkpt>
      <trkpt lat="41.6704490" lon="-0.8768120">
        <ele>204.1</ele>
        <time>2019-01-01T14:58:40Z</time>
      </trkpt>
      <trkpt lat="41.6705140" lon="-0.8767920">
        <ele>204.2</ele>
        <time>2019-01-01T14:58:41Z</time>
      </trkpt>
      <trkpt lat="41.6705700" lon="-0.8768020">
        <ele>204.3</ele>
        <time>2019-01-01T14:58:42Z</time>
      </trkpt>
      <trkpt lat="41.6706260" lon="-0.8766920">
        <ele>204.4</ele>
        <time>2019-01-01T14:58:43Z</time>
      </trkpt>
      <trkpt lat="41.6706660" lon="-0.8766730">
        <ele>204.4</ele>
        <time>2019-01-01T14:58:44Z</time>
      </trkpt>
      <trkpt lat="41.6706940" lon="-0.8766190">
        <ele>204.3</ele>
        <time>2019-01-01T14:58:45Z</time>
      </trkpt>
      <trkpt lat="41.6707030" lon="-0.8765530">
        <ele>204.2</ele>
        <time>2019-01-01T14:58:46Z</time>
      </trkpt>
      <trkpt lat="41.6707140" lon="-0.8764730">
        <ele>204.1</ele>
        <time>2019-01-01T14:58:47Z</time>
      </trkpt>
      <trkpt lat="41.6707360" lon="-0.8763700">
        <ele>204.0</ele>
        <time>2019-01-01T14:58:48Z</time>
      </trkpt>
      <trkpt lat="41.6707280" lon="-0.8763250">
        <ele>203.9</ele>
        <time>2019-01-01T14:58:49Z</time>
      </trkpt>
      <trkpt lat="41.6707140" lon="-0.8762400">
        <ele>203.6</ele>
        <time>2019-01-01T14:58:50Z</time>
      </trkpt>
      <trkpt lat="41.6707180" lon="-0.8761880">
        <ele>203.4</ele>
        <time>2019-01-01T14:58:51Z</time>
      </trkpt>
      <trkpt lat="41.6707350" lon="-0.8760580">
        <ele>203.0</ele>
        <time>2019-01-01T14:58:55Z</time>
      </trkpt>
      <trkpt lat="41.6707450" lon="-0.8760190">
        <ele>202.9</ele>
        <time>2019-01-01T14:58:56Z</time>
      </trkpt>
      <trkpt lat="41.6707630" lon="-0.8759640">
        <ele>202.6</ele>
        <time>2019-01-01T14:58:57Z</time>
      </trkpt>
      <trkpt lat="41.6707810" lon="-0.8758910">
        <ele>202.3</ele>
        <time>2019-01-01T14:58:58Z</time>
      </trkpt>
      <trkpt lat="41.6707800" lon="-0.8757980">
        <ele>202.0</ele>
        <time>2019-01-01T14:58:59Z</time>
      </trkpt>
      <trkpt lat="41.6707910" lon="-0.8757280">
        <ele>201.7</ele>
        <time>2019-01-01T14:59:00Z</time>
      </trkpt>
      <trkpt lat="41.6707640" lon="-0.8756090">
        <ele>201.2</ele>
        <time>2019-01-01T14:59:01Z</time>
      </trkpt>
      <trkpt lat="41.6707600" lon="-0.8755080">
        <ele>200.7</ele>
        <time>2019-01-01T14:59:02Z</time>
      </trkpt>
      <trkpt lat="41.6707590" lon="-0.8754370">
        <ele>200.4</ele>
        <time>2019-01-01T14:59:03Z</time>
      </trkpt>
      <trkpt lat="41.6707770" lon="-0.8753490">
        <ele>199.9</ele>
        <time>2019-01-01T14:59:04Z</time>
      </trkpt>
      <trkpt lat="41.6707790" lon="-0.8752700">
        <ele>199.5</ele>
        <time>2019-01-01T14:59:05Z</time>
      </trkpt>
      <trkpt lat="41.6707720" lon="-0.8752010">
        <ele>199.2</ele>
        <time>2019-01-01T14:59:06Z</time>
      </trkpt>
      <trkpt lat="41.6707890" lon="-0.8751180">
        <ele>198.8</ele>
        <time>2019-01-01T14:59:07Z</time>
      </trkpt>
      <trkpt lat="41.6707840" lon="-0.8750340">
        <ele>198.1</ele>
        <time>2019-01-01T14:59:08Z</time>
      </trkpt>
      <trkpt lat="41.6707900" lon="-0.8749560">
        <ele>198.1</ele>
        <time>2019-01-01T14:59:09Z</time>
      </trkpt>
      <trkpt lat="41.6707960" lon="-0.8748810">
        <ele>198.1</ele>
        <time>2019-01-01T14:59:10Z</time>
      </trkpt>
      <trkpt lat="41.6708080" lon="-0.8747890">
        <ele>198.0</ele>
        <time>2019-01-01T14:59:11Z</time>
      </trkpt>
      <trkpt lat="41.6708100" lon="-0.8747150">
        <ele>197.9</ele>
        <time>2019-01-01T14:59:12Z</time>
      </trkpt>
      <trkpt lat="41.6708180" lon="-0.8746300">
        <ele>197.8</ele>
        <time>2019-01-01T14:59:13Z</time>
      </trkpt>
      <trkpt lat="41.6708230" lon="-0.8745510">
        <ele>197.6</ele>
        <time>2019-01-01T14:59:14Z</time>
      </trkpt>
      <trkpt lat="41.6708220" lon="-0.8744900">
        <ele>197.5</ele>
        <time>2019-01-01T14:59:15Z</time>
      </trkpt>
      <trkpt lat="41.6708280" lon="-0.8744180">
        <ele>197.3</ele>
        <time>2019-01-01T14:59:16Z</time>
      </trkpt>
      <trkpt lat="41.6708400" lon="-0.8743370">
        <ele>197.1</ele>
        <time>2019-01-01T14:59:17Z</time>
      </trkpt>
      <trkpt lat="41.6708360" lon="-0.8742760">
        <ele>197.0</ele>
        <time>2019-01-01T14:59:18Z</time>
      </trkpt>
      <trkpt lat="41.6708320" lon="-0.8742000">
        <ele>196.9</ele>
        <time>2019-01-01T14:59:19Z</time>
      </trkpt>
      <trkpt lat="41.6708310" lon="-0.8741130">
        <ele>196.9</ele>
        <time>2019-01-01T14:59:20Z</time>
      </trkpt>
      <trkpt lat="41.6708320" lon="-0.8740080">
        <ele>196.9</ele>
        <time>2019-01-01T14:59:21Z</time>
      </trkpt>
      <trkpt lat="41.6708210" lon="-0.8739390">
        <ele>196.8</ele>
        <time>2019-01-01T14:59:22Z</time>
      </trkpt>
      <trkpt lat="41.6708060" lon="-0.8738390">
        <ele>196.8</ele>
        <time>2019-01-01T14:59:23Z</time>
      </trkpt>
      <trkpt lat="41.6707860" lon="-0.8737730">
        <ele>196.8</ele>
        <time>2019-01-01T14:59:24Z</time>
      </trkpt>
      <trkpt lat="41.6707700" lon="-0.8736940">
        <ele>196.8</ele>
        <time>2019-01-01T14:59:25Z</time>
      </trkpt>
      <trkpt lat="41.6707500" lon="-0.8736190">
        <ele>196.8</ele>
        <time>2019-01-01T14:59:26Z</time>
      </trkpt>
      <trkpt lat="41.6707430" lon="-0.8735420">
        <ele>196.8</ele>
        <time>2019-01-01T14:59:27Z</time>
      </trkpt>
      <trkpt lat="41.6707280" lon="-0.8734800">
        <ele>196.8</ele>
        <time>2019-01-01T14:59:28Z</time>
      </trkpt>
      <trkpt lat="41.6707150" lon="-0.8734220">
        <ele>196.9</ele>
        <time>2019-01-01T14:59:29Z</time>
      </trkpt>
      <trkpt lat="41.6706940" lon="-0.8733650">
        <ele>196.9</ele>
        <time>2019-01-01T14:59:30Z</time>
      </trkpt>
      <trkpt lat="41.6706830" lon="-0.8733000">
        <ele>197.1</ele>
        <time>2019-01-01T14:59:31Z</time>
      </trkpt>
      <trkpt lat="41.6706700" lon="-0.8732320">
        <ele>197.2</ele>
        <time>2019-01-01T14:59:32Z</time>
      </trkpt>
      <trkpt lat="41.6706490" lon="-0.8731630">
        <ele>197.4</ele>
        <time>2019-01-01T14:59:33Z</time>
      </trkpt>
      <trkpt lat="41.6706410" lon="-0.8731080">
        <ele>197.5</ele>
        <time>2019-01-01T14:59:34Z</time>
      </trkpt>
      <trkpt lat="41.6706260" lon="-0.8730280">
        <ele>197.7</ele>
        <time>2019-01-01T14:59:35Z</time>
      </trkpt>
      <trkpt lat="41.6706240" lon="-0.8729610">
        <ele>197.7</ele>
        <time>2019-01-01T14:59:36Z</time>
      </trkpt>
      <trkpt lat="41.6706350" lon="-0.8729020">
        <ele>197.9</ele>
        <time>2019-01-01T14:59:37Z</time>
      </trkpt>
      <trkpt lat="41.6706160" lon="-0.8729470">
        <ele>198.0</ele>
        <time>2019-01-01T14:59:38Z</time>
      </trkpt>
      <trkpt lat="41.6706570" lon="-0.8729160">
        <ele>198.0</ele>
        <time>2019-01-01T14:59:39Z</time>
      </trkpt>
      <trkpt lat="41.6707180" lon="-0.8728650">
        <ele>198.2</ele>
        <time>2019-01-01T14:59:40Z</time>
      </trkpt>
      <trkpt lat="41.6707610" lon="-0.8728610">
        <ele>198.3</ele>
        <time>2019-01-01T14:59:41Z</time>
      </trkpt>
      <trkpt lat="41.6708090" lon="-0.8728470">
        <ele>198.4</ele>
        <time>2019-01-01T14:59:42Z</time>
      </trkpt>
      <trkpt lat="41.6708560" lon="-0.8728270">
        <ele>198.4</ele>
        <time>2019-01-01T14:59:43Z</time>
      </trkpt>
      <trkpt lat="41.6709000" lon="-0.8728320">
        <ele>198.5</ele>
        <time>2019-01-01T14:59:44Z</time>
      </trkpt>
      <trkpt lat="41.6709470" lon="-0.8728320">
        <ele>198.6</ele>
        <time>2019-01-01T14:59:45Z</time>
      </trkpt>
      <trkpt lat="41.6709960" lon="-0.8728110">
        <ele>198.7</ele>
        <time>2019-01-01T14:59:46Z</time>
      </trkpt>
      <trkpt lat="41.6710510" lon="-0.8728070">
        <ele>198.8</ele>
        <time>2019-01-01T14:59:47Z</time>
      </trkpt>
      <trkpt lat="41.6710820" lon="-0.8727810">
        <ele>198.9</ele>
        <time>2019-01-01T14:59:48Z</time>
      </trkpt>
      <trkpt lat="41.6711280" lon="-0.8727730">
        <ele>198.9</ele>
        <time>2019-01-01T14:59:49Z</time>
      </trkpt>
      <trkpt lat="41.6711790" lon="-0.8727480">
        <ele>199.0</ele>
        <time>2019-01-01T14:59:50Z</time>
      </trkpt>
      <trkpt lat="41.6712360" lon="-0.8727670">
        <ele>199.1</ele>
        <time>2019-01-01T14:59:51Z</time>
      </trkpt>
      <trkpt lat="41.6712830" lon="-0.8727400">
        <ele>199.1</ele>
        <time>2019-01-01T14:59:52Z</time>
      </trkpt>
      <trkpt lat="41.6713160" lon="-0.8727340">
        <ele>199.2</ele>
        <time>2019-01-01T14:59:53Z</time>
      </trkpt>
      <trkpt lat="41.6713730" lon="-0.8727370">
        <ele>199.3</ele>
        <time>2019-01-01T14:59:54Z</time>
      </trkpt>
      <trkpt lat="41.6714270" lon="-0.8727510">
        <ele>199.3</ele>
        <time>2019-01-01T14:59:55Z</time>
      </trkpt>
      <trkpt lat="41.6714880" lon="-0.8727830">
        <ele>199.4</ele>
        <time>2019-01-01T14:59:56Z</time>
      </trkpt>
      <trkpt lat="41.6715460" lon="-0.8727770">
        <ele>199.5</ele>
        <time>2019-01-01T14:59:57Z</time>
      </trkpt>
      <trkpt lat="41.6715960" lon="-0.8727780">
        <ele>199.6</ele>
        <time>2019-01-01T14:59:58Z</time>
      </trkpt>
      <trkpt lat="41.6716440" lon="-0.8727860">
        <ele>199.6</ele>
        <time>2019-01-01T14:59:59Z</time>
      </trkpt>
      <trkpt lat="41.6716960" lon="-0.8727850">
        <ele>199.7</ele>
        <time>2019-01-01T15:00:00Z</time>
      </trkpt>
      <trkpt lat="41.6717420" lon="-0.8727810">
        <ele>199.8</ele>
        <time>2019-01-01T15:00:01Z</time>
      </trkpt>
      <trkpt lat="41.6717850" lon="-0.8727760">
        <ele>199.8</ele>
        <time>2019-01-01T15:00:02Z</time>
      </trkpt>
      <trkpt lat="41.6718450" lon="-0.8727780">
        <ele>199.9</ele>
        <time>2019-01-01T15:00:03Z</time>
      </trkpt>
      <trkpt lat="41.6719020" lon="-0.8727570">
        <ele>200.0</ele>
        <time>2019-01-01T15:00:04Z</time>
      </trkpt>
      <trkpt lat="41.6719580" lon="-0.8727480">
        <ele>200.1</ele>
        <time>2019-01-01T15:00:05Z</time>
      </trkpt>
      <trkpt lat="41.6720060" lon="-0.8727440">
        <ele>200.1</ele>
        <time>2019-01-01T15:00:06Z</time>
      </trkpt>
      <trkpt lat="41.6720550" lon="-0.8727560">
        <ele>200.2</ele>
        <time>2019-01-01T15:00:07Z</time>
      </trkpt>
      <trkpt lat="41.6721070" lon="-0.8727460">
        <ele>200.3</ele>
        <time>2019-01-01T15:00:08Z</time>
      </trkpt>
      <trkpt lat="41.6721430" lon="-0.8727580">
        <ele>200.4</ele>
        <time>2019-01-01T15:00:09Z</time>
      </trkpt>
      <trkpt lat="41.6721930" lon="-0.8727670">
        <ele>200.4</ele>
        <time>2019-01-01T15:00:10Z</time>
      </trkpt>
      <trkpt lat="41.6722510" lon="-0.8727580">
        <ele>200.5</ele>
        <time>2019-01-01T15:00:11Z</time>
      </trkpt>
      <trkpt lat="41.6723050" lon="-0.8727440">
        <ele>200.6</ele>
        <time>2019-01-01T15:00:12Z</time>
      </trkpt>
      <trkpt lat="41.6723600" lon="-0.8727340">
        <ele>200.7</ele>
        <time>2019-01-01T15:00:13Z</time>
      </trkpt>
      <trkpt lat="41.6724140" lon="-0.8727360">
        <ele>200.8</ele>
        <time>2019-01-01T15:00:14Z</time>
      </trkpt>
      <trkpt lat="41.6724830" lon="-0.8727480">
        <ele>200.9</ele>
        <time>2019-01-01T15:00:15Z</time>
      </trkpt>
      <trkpt lat="41.6725300" lon="-0.8727360">
        <ele>201.0</ele>
        <time>2019-01-01T15:00:16Z</time>
      </trkpt>
      <trkpt lat="41.6725620" lon="-0.8727620">
        <ele>201.1</ele>
        <time>2019-01-01T15:00:17Z</time>
      </trkpt>
      <trkpt lat="41.6726200" lon="-0.8727890">
        <ele>201.1</ele>
        <time>2019-01-01T15:00:18Z</time>
      </trkpt>
      <trkpt lat="41.6726760" lon="-0.8727790">
        <ele>201.2</ele>
        <time>2019-01-01T15:00:19Z</time>
      </trkpt>
      <trkpt lat="41.6727240" lon="-0.8727710">
        <ele>201.3</ele>
        <time>2019-01-01T15:00:20Z</time>
      </trkpt>
      <trkpt lat="41.6727660" lon="-0.8727410">
        <ele>201.3</ele>
        <time>2019-01-01T15:00:21Z</time>
      </trkpt>
      <trkpt lat="41.6728150" lon="-0.8727190">
        <ele>201.4</ele>
        <time>2019-01-01T15:00:22Z</time>
      </trkpt>
      <trkpt lat="41.6728720" lon="-0.8727310">
        <ele>201.5</ele>
        <time>2019-01-01T15:00:23Z</time>
      </trkpt>
      <trkpt lat="41.6729230" lon="-0.8727920">
        <ele>201.6</ele>
        <time>2019-01-01T15:00:24Z</time>
      </trkpt>
      <trkpt lat="41.6729570" lon="-0.8728300">
        <ele>201.7</ele>
        <time>2019-01-01T15:00:25Z</time>
      </trkpt>
      <trkpt lat="41.6730170" lon="-0.8728400">
        <ele>201.8</ele>
        <time>2019-01-01T15:00:26Z</time>
      </trkpt>
      <trkpt lat="41.6731130" lon="-0.8728010">
        <ele>202.0</ele>
        <time>2019-01-01T15:00:27Z</time>
      </trkpt>
      <trkpt lat="41.6731540" lon="-0.8727800">
        <ele>202.1</ele>
        <time>2019-01-01T15:00:28Z</time>
      </trkpt>
      <trkpt lat="41.6732020" lon="-0.8727630">
        <ele>202.2</ele>
        <time>2019-01-01T15:00:29Z</time>
      </trkpt>
      <trkpt lat="41.6732490" lon="-0.8727300">
        <ele>202.3</ele>
        <time>2019-01-01T15:00:30Z</time>
      </trkpt>
      <trkpt lat="41.6732820" lon="-0.8727460">
        <ele>202.3</ele>
        <time>2019-01-01T15:00:31Z</time>
      </trkpt>
      <trkpt lat="41.6733490" lon="-0.8727130">
        <ele>202.5</ele>
        <time>2019-01-01T15:00:32Z</time>
      </trkpt>
      <trkpt lat="41.6734110" lon="-0.8727100">
        <ele>202.7</ele>
        <time>2019-01-01T15:00:33Z</time>
      </trkpt>
      <trkpt lat="41.6734680" lon="-0.8726490">
        <ele>202.8</ele>
        <time>2019-01-01T15:00:34Z</time>
      </trkpt>
      <trkpt lat="41.6735130" lon="-0.8726450">
        <ele>202.9</ele>
        <time>2019-01-01T15:00:35Z</time>
      </trkpt>
      <trkpt lat="41.6735880" lon="-0.8726440">
        <ele>203.0</ele>
        <time>2019-01-01T15:00:36Z</time>
      </trkpt>
      <trkpt lat="41.6736460" lon="-0.8726280">
        <ele>203.1</ele>
        <time>2019-01-01T15:00:37Z</time>
      </trkpt>
      <trkpt lat="41.6736990" lon="-0.8726230">
        <ele>203.2</ele>
        <time>2019-01-01T15:00:38Z</time>
      </trkpt>
      <trkpt lat="41.6737580" lon="-0.8725930">
        <ele>203.3</ele>
        <time>2019-01-01T15:00:39Z</time>
      </trkpt>
      <trkpt lat="41.6738150" lon="-0.8725890">
        <ele>203.4</ele>
        <time>2019-01-01T15:00:40Z</time>
      </trkpt>
      <trkpt lat="41.6738760" lon="-0.8725710">
        <ele>203.4</ele>
        <time>2019-01-01T15:00:41Z</time>
      </trkpt>
      <trkpt lat="41.6739330" lon="-0.8725310">
        <ele>203.4</ele>
        <time>2019-01-01T15:00:42Z</time>
      </trkpt>
      <trkpt lat="41.6739800" lon="-0.8725220">
        <ele>203.4</ele>
        <time>2019-01-01T15:00:43Z</time>
      </trkpt>
      <trkpt lat="41.6740270" lon="-0.8725730">
        <ele>203.4</ele>
        <time>2019-01-01T15:00:44Z</time>
      </trkpt>
      <trkpt lat="41.6740570" lon="-0.8726540">
        <ele>203.4</ele>
        <time>2019-01-01T15:00:45Z</time>
      </trkpt>
      <trkpt lat="41.6741020" lon="-0.8726540">
        <ele>203.2</ele>
        <time>2019-01-01T15:00:46Z</time>
      </trkpt>
      <trkpt lat="41.6741570" lon="-0.8726310">
        <ele>202.9</ele>
        <time>2019-01-01T15:00:47Z</time>
      </trkpt>
      <trkpt lat="41.6742020" lon="-0.8725850">
        <ele>202.7</ele>
        <time>2019-01-01T15:00:48Z</time>
      </trkpt>
      <trkpt lat="41.6742690" lon="-0.8725150">
        <ele>202.1</ele>
        <time>2019-01-01T15:00:49Z</time>
      </trkpt>
      <trkpt lat="41.6743020" lon="-0.8725290">
        <ele>202.1</ele>
        <time>2019-01-01T15:00:51Z</time>
      </trkpt>
      <trkpt lat="41.6743410" lon="-0.8724950">
        <ele>202.1</ele>
        <time>2019-01-01T15:00:52Z</time>
      </trkpt>
      <trkpt lat="41.6743480" lon="-0.8724580">
        <ele>202.1</ele>
        <time>2019-01-01T15:00:53Z</time>
      </trkpt>
      <trkpt lat="41.6743580" lon="-0.8723930">
        <ele>202.2</ele>
        <time>2019-01-01T15:00:54Z</time>
      </trkpt>
      <trkpt lat="41.6743570" lon="-0.8723380">
        <ele>202.2</ele>
        <time>2019-01-01T15:00:56Z</time>
      </trkpt>
      <trkpt lat="41.6743600" lon="-0.8722700">
        <ele>202.3</ele>
        <time>2019-01-01T15:00:57Z</time>
      </trkpt>
      <trkpt lat="41.6743700" lon="-0.8722310">
        <ele>202.3</ele>
        <time>2019-01-01T15:00:58Z</time>
      </trkpt>
      <trkpt lat="41.6743530" lon="-0.8721760">
        <ele>202.3</ele>
        <time>2019-01-01T15:00:59Z</time>
      </trkpt>
      <trkpt lat="41.6743530" lon="-0.8721370">
        <ele>202.4</ele>
        <time>2019-01-01T15:01:00Z</time>
      </trkpt>
      <trkpt lat="41.6743380" lon="-0.8720770">
        <ele>202.5</ele>
        <time>2019-01-01T15:01:01Z</time>
      </trkpt>
      <trkpt lat="41.6743360" lon="-0.8720340">
        <ele>202.5</ele>
        <time>2019-01-01T15:01:02Z</time>
      </trkpt>
      <trkpt lat="41.6743430" lon="-0.8719880">
        <ele>202.5</ele>
        <time>2019-01-01T15:01:04Z</time>
      </trkpt>
      <trkpt lat="41.6743560" lon="-0.8720350">
        <ele>202.5</ele>
        <time>2019-01-01T15:01:06Z</time>
      </trkpt>
      <trkpt lat="41.6743720" lon="-0.8720710">
        <ele>202.5</ele>
        <time>2019-01-01T15:01:08Z</time>
      </trkpt>
      <trkpt lat="41.6743970" lon="-0.8720930">
        <ele>202.5</ele>
        <time>2019-01-01T15:01:15Z</time>
      </trkpt>
    </trkseg>
  </trk>
</gpx>
